<?xml version='1.0' encoding='UTF-8'?><gpx version="1.1" creator="JPX - https://github.com/jenetics/jpx" xmlns="http://www.topografix.com/GPX/1/1"><trk><trkseg><trkpt lat="45.36074286127291" lon="10.735302834442134"><ele>96.0</ele><time>2026-05-01T08:38:54.996Z</time></trkpt><trkpt lat="45.36080757613159" lon="10.7352584429069"><ele>96.0</ele><time>2026-05-01T08:39:03.998Z</time></trkpt><trkpt lat="45.36087058415491" lon="10.73525967349392"><ele>96.0</ele><time>2026-05-01T08:39:04.998Z</time></trkpt><trkpt lat="45.360944285917405" lon="10.735263214997664"><ele>96.0</ele><time>2026-05-01T08:39:05.998Z</time></trkpt><trkpt lat="45.36102087449094" lon="10.735277959753553"><ele>96.0</ele><time>2026-05-01T08:39:06.998Z</time></trkpt><trkpt lat="45.36111369038604" lon="10.735294704807455"><ele>96.0</ele><time>2026-05-01T08:39:07.999Z</time></trkpt><trkpt lat="45.36120259129397" lon="10.735311636055336"><ele>96.0</ele><time>2026-05-01T08:39:08.999Z</time></trkpt><trkpt lat="45.36128945499095" lon="10.735320969336286"><ele>96.0</ele><time>2026-05-01T08:39:09.999Z</time></trkpt><trkpt lat="45.36139369489074" lon="10.735342292063534"><ele>96.0</ele><time>2026-05-01T08:39:10.999Z</time></trkpt><trkpt lat="45.36150363916625" lon="10.735357883326136"><ele>96.0</ele><time>2026-05-01T08:39:11.999Z</time></trkpt><trkpt lat="45.3616206418104" lon="10.735375407908009"><ele>96.0</ele><time>2026-05-01T08:39:12.999Z</time></trkpt><trkpt lat="45.36172862381401" lon="10.735398776044761"><ele>96.33333333333333</ele><time>2026-05-01T08:39:13.999Z</time></trkpt><trkpt lat="45.36181600156934" lon="10.735413063508936"><ele>96.66666666666666</ele><time>2026-05-01T08:39:14.999Z</time></trkpt><trkpt lat="45.361906019790105" lon="10.735414137701799"><ele>97.0</ele><time>2026-05-01T08:39:15.999Z</time></trkpt><trkpt lat="45.36198593346701" lon="10.735429134755718"><ele>97.33333333333333</ele><time>2026-05-01T08:39:17Z</time></trkpt><trkpt lat="45.362068249173234" lon="10.735437187687047"><ele>97.66666666666666</ele><time>2026-05-01T08:39:18Z</time></trkpt><trkpt lat="45.3621365760333" lon="10.735438257206477"><ele>98.0</ele><time>2026-05-01T08:39:19Z</time></trkpt><trkpt lat="45.36220120807251" lon="10.735439141279315"><ele>98.4</ele><time>2026-05-01T08:39:20Z</time></trkpt><trkpt lat="45.36230826861537" lon="10.735448579547144"><ele>98.80000000000001</ele><time>2026-05-01T08:39:22Z</time></trkpt><trkpt lat="45.36239675031698" lon="10.735459938820892"><ele>99.2</ele><time>2026-05-01T08:39:24Z</time></trkpt><trkpt lat="45.36249769122732" lon="10.735468937445601"><ele>99.6</ele><time>2026-05-01T08:39:26Z</time></trkpt><trkpt lat="45.3625708734565" lon="10.735480431330174"><ele>100.0</ele><time>2026-05-01T08:39:27Z</time></trkpt><trkpt lat="45.36266292409713" lon="10.735491908369568"><ele>100.0</ele><time>2026-05-01T08:39:28Z</time></trkpt><trkpt lat="45.36279112829985" lon="10.735511137463842"><ele>100.0</ele><time>2026-05-01T08:39:29Z</time></trkpt><trkpt lat="45.362967143441224" lon="10.735535148203"><ele>100.0</ele><time>2026-05-01T08:39:30Z</time></trkpt><trkpt lat="45.36314913493503" lon="10.735574493356513"><ele>101.0</ele><time>2026-05-01T08:39:31Z</time></trkpt><trkpt lat="45.36332798374939" lon="10.735616713601292"><ele>102.0</ele><time>2026-05-01T08:39:32Z</time></trkpt><trkpt lat="45.36349427198314" lon="10.735640149918613"><ele>103.0</ele><time>2026-05-01T08:39:33Z</time></trkpt><trkpt lat="45.36364790035363" lon="10.735655916379535"><ele>103.0</ele><time>2026-05-01T08:39:34Z</time></trkpt><trkpt lat="45.36379881426831" lon="10.735674117258526"><ele>103.0</ele><time>2026-05-01T08:39:35Z</time></trkpt><trkpt lat="45.363948941162334" lon="10.735704701572423"><ele>103.0</ele><time>2026-05-01T08:39:36Z</time></trkpt><trkpt lat="45.36407731673763" lon="10.735721025204368"><ele>103.0</ele><time>2026-05-01T08:39:37Z</time></trkpt><trkpt lat="45.36420069213052" lon="10.735742719175372"><ele>102.80000000000001</ele><time>2026-05-01T08:39:38Z</time></trkpt><trkpt lat="45.36431737871142" lon="10.735760993386778"><ele>102.6</ele><time>2026-05-01T08:39:39.001Z</time></trkpt><trkpt lat="45.36442098699907" lon="10.735771564734177"><ele>102.4</ele><time>2026-05-01T08:39:40.001Z</time></trkpt><trkpt lat="45.36451616548975" lon="10.735768900732968"><ele>102.19999999999999</ele><time>2026-05-01T08:39:41.001Z</time></trkpt><trkpt lat="45.36459982746724" lon="10.73575723376976"><ele>102.0</ele><time>2026-05-01T08:39:42.001Z</time></trkpt><trkpt lat="45.36467835017781" lon="10.735751005223591"><ele>102.19999999999999</ele><time>2026-05-01T08:39:43.001Z</time></trkpt><trkpt lat="45.36474999210628" lon="10.735749405356238"><ele>102.4</ele><time>2026-05-01T08:39:44.001Z</time></trkpt><trkpt lat="45.364840570891815" lon="10.735728745186641"><ele>102.6</ele><time>2026-05-01T08:39:46.001Z</time></trkpt><trkpt lat="45.36491929873662" lon="10.735648076954412"><ele>102.80000000000001</ele><time>2026-05-01T08:39:48.001Z</time></trkpt><trkpt lat="45.364988655640055" lon="10.735582101910675"><ele>103.0</ele><time>2026-05-01T08:39:49.001Z</time></trkpt><trkpt lat="45.36512568550244" lon="10.735481586414233"><ele>103.0</ele><time>2026-05-01T08:39:50.001Z</time></trkpt><trkpt lat="45.365300563973875" lon="10.73536192491828"><ele>103.0</ele><time>2026-05-01T08:39:51.001Z</time></trkpt><trkpt lat="45.36547860800744" lon="10.735229852649168"><ele>103.0</ele><time>2026-05-01T08:39:52.001Z</time></trkpt><trkpt lat="45.36564630393107" lon="10.735095250744038"><ele>103.0</ele><time>2026-05-01T08:39:53.001Z</time></trkpt><trkpt lat="45.36581792861619" lon="10.734956395598523"><ele>103.0</ele><time>2026-05-01T08:39:54.001Z</time></trkpt><trkpt lat="45.36597412260413" lon="10.734836134349178"><ele>103.0</ele><time>2026-05-01T08:39:55.001Z</time></trkpt><trkpt lat="45.36612503278268" lon="10.73472516380355"><ele>103.0</ele><time>2026-05-01T08:39:56.001Z</time></trkpt><trkpt lat="45.36627168056372" lon="10.734619920841771"><ele>103.0</ele><time>2026-05-01T08:39:57.001Z</time></trkpt><trkpt lat="45.366416642172176" lon="10.734524454110213"><ele>103.0</ele><time>2026-05-01T08:39:58.001Z</time></trkpt><trkpt lat="45.366561341198064" lon="10.734432847544904"><ele>103.5</ele><time>2026-05-01T08:39:59.001Z</time></trkpt><trkpt lat="45.366697909496" lon="10.734354298025526"><ele>104.0</ele><time>2026-05-01T08:40:00.001Z</time></trkpt><trkpt lat="45.36682375227637" lon="10.734289135069686"><ele>104.5</ele><time>2026-05-01T08:40:01.001Z</time></trkpt><trkpt lat="45.36694168345424" lon="10.734237276921371"><ele>105.0</ele><time>2026-05-01T08:40:02.001Z</time></trkpt><trkpt lat="45.36705896927588" lon="10.734191378388859"><ele>105.0</ele><time>2026-05-01T08:40:03.001Z</time></trkpt><trkpt lat="45.36717057261255" lon="10.734151473899596"><ele>105.0</ele><time>2026-05-01T08:40:04.001Z</time></trkpt><trkpt lat="45.36728246838766" lon="10.734127840142767"><ele>105.0</ele><time>2026-05-01T08:40:05.001Z</time></trkpt><trkpt lat="45.367387076797876" lon="10.73414879818835"><ele>105.0</ele><time>2026-05-01T08:40:06.001Z</time></trkpt><trkpt lat="45.36748445629234" lon="10.73420420216698"><ele>105.0</ele><time>2026-05-01T08:40:07.001Z</time></trkpt><trkpt lat="45.36757190532571" lon="10.734275361152541"><ele>104.83333333333333</ele><time>2026-05-01T08:40:08.001Z</time></trkpt><trkpt lat="45.36764210661398" lon="10.734341376584945"><ele>104.66666666666666</ele><time>2026-05-01T08:40:09.001Z</time></trkpt><trkpt lat="45.367699996811965" lon="10.734391275247939"><ele>104.5</ele><time>2026-05-01T08:40:10.001Z</time></trkpt><trkpt lat="45.36776290572942" lon="10.7344389518573"><ele>104.33333333333333</ele><time>2026-05-01T08:40:12.001Z</time></trkpt><trkpt lat="45.36783695493803" lon="10.734455067532673"><ele>104.16666666666666</ele><time>2026-05-01T08:41:17Z</time></trkpt><trkpt lat="45.36791957271844" lon="10.734461960877402"><ele>104.0</ele><time>2026-05-01T08:41:19Z</time></trkpt><trkpt lat="45.36807571159542" lon="10.734380285547882"><ele>104.66666666666666</ele><time>2026-05-01T08:41:21Z</time></trkpt><trkpt lat="45.36815989487681" lon="10.734221959634898"><ele>105.33333333333334</ele><time>2026-05-01T08:41:22Z</time></trkpt><trkpt lat="45.36828102699798" lon="10.733992224333447"><ele>106.0</ele><time>2026-05-01T08:41:23Z</time></trkpt><trkpt lat="45.36845047519963" lon="10.733739123299012"><ele>105.5</ele><time>2026-05-01T08:41:24Z</time></trkpt><trkpt lat="45.368628391668736" lon="10.733502093826573"><ele>105.0</ele><time>2026-05-01T08:41:25Z</time></trkpt><trkpt lat="45.36882978041758" lon="10.733270125185713"><ele>106.0</ele><time>2026-05-01T08:41:26Z</time></trkpt><trkpt lat="45.369071910739756" lon="10.733045666087675"><ele>107.0</ele><time>2026-05-01T08:41:27Z</time></trkpt><trkpt lat="45.36932272164521" lon="10.732853678066846"><ele>106.5</ele><time>2026-05-01T08:41:28Z</time></trkpt><trkpt lat="45.36958363775787" lon="10.732704554756635"><ele>106.0</ele><time>2026-05-01T08:41:29Z</time></trkpt><trkpt lat="45.36983047831292" lon="10.73258586731188"><ele>106.0</ele><time>2026-05-01T08:41:30Z</time></trkpt><trkpt lat="45.37009255897009" lon="10.73252114462844"><ele>106.0</ele><time>2026-05-01T08:41:31Z</time></trkpt><trkpt lat="45.370361994201595" lon="10.732489261352844"><ele>107.5</ele><time>2026-05-01T08:41:32Z</time></trkpt><trkpt lat="45.37061174703879" lon="10.732503388825306"><ele>109.0</ele><time>2026-05-01T08:41:33Z</time></trkpt><trkpt lat="45.370818822602196" lon="10.732544814219734"><ele>109.0</ele><time>2026-05-01T08:41:34Z</time></trkpt><trkpt lat="45.37101694671165" lon="10.73258190131417"><ele>109.0</ele><time>2026-05-01T08:41:35Z</time></trkpt><trkpt lat="45.3711935145042" lon="10.732612598564367"><ele>109.0</ele><time>2026-05-01T08:41:36Z</time></trkpt><trkpt lat="45.37135207320752" lon="10.732624004296056"><ele>109.5</ele><time>2026-05-01T08:41:37Z</time></trkpt><trkpt lat="45.371474379623024" lon="10.73262713514448"><ele>110.0</ele><time>2026-05-01T08:41:38Z</time></trkpt><trkpt lat="45.3715881767509" lon="10.732624163816"><ele>110.5</ele><time>2026-05-01T08:41:39Z</time></trkpt><trkpt lat="45.371698473906164" lon="10.73262954979698"><ele>111.0</ele><time>2026-05-01T08:41:40Z</time></trkpt><trkpt lat="45.37180510263223" lon="10.732702839780343"><ele>111.0</ele><time>2026-05-01T08:41:41Z</time></trkpt><trkpt lat="45.371881374743474" lon="10.732766437821095"><ele>111.0</ele><time>2026-05-01T08:41:42Z</time></trkpt><trkpt lat="45.37194488681407" lon="10.732756271366235"><ele>111.0</ele><time>2026-05-01T08:41:43Z</time></trkpt><trkpt lat="45.372015819203156" lon="10.732705740383661"><ele>111.0</ele><time>2026-05-01T08:41:44.001Z</time></trkpt><trkpt lat="45.372092045866296" lon="10.73260499160458"><ele>111.0</ele><time>2026-05-01T08:41:45.001Z</time></trkpt><trkpt lat="45.37220010846617" lon="10.732520828582281"><ele>111.0</ele><time>2026-05-01T08:41:46.001Z</time></trkpt><trkpt lat="45.37231914803053" lon="10.732415250326454"><ele>111.0</ele><time>2026-05-01T08:41:47.001Z</time></trkpt><trkpt lat="45.3725507711976" lon="10.732577959634053"><ele>111.0</ele><time>2026-05-01T08:41:48.001Z</time></trkpt><trkpt lat="45.372769850554434" lon="10.73258314622685"><ele>111.0</ele><time>2026-05-01T08:41:49.001Z</time></trkpt><trkpt lat="45.373013680320156" lon="10.732586539113388"><ele>111.0</ele><time>2026-05-01T08:41:50.001Z</time></trkpt><trkpt lat="45.37326444537958" lon="10.732551425188806"><ele>110.5</ele><time>2026-05-01T08:41:51.001Z</time></trkpt><trkpt lat="45.37350467955287" lon="10.73252849282354"><ele>110.0</ele><time>2026-05-01T08:41:52.001Z</time></trkpt><trkpt lat="45.37373043037162" lon="10.732507466656099"><ele>110.66666666666666</ele><time>2026-05-01T08:41:53.001Z</time></trkpt><trkpt lat="45.3739442783915" lon="10.73249256903441"><ele>111.33333333333334</ele><time>2026-05-01T08:41:54.001Z</time></trkpt><trkpt lat="45.3741565957063" lon="10.732471931481388"><ele>112.0</ele><time>2026-05-01T08:41:55.001Z</time></trkpt><trkpt lat="45.3743643759018" lon="10.732457961189898"><ele>112.0</ele><time>2026-05-01T08:41:56.001Z</time></trkpt><trkpt lat="45.37456685493116" lon="10.732432925966314"><ele>112.0</ele><time>2026-05-01T08:41:57.001Z</time></trkpt><trkpt lat="45.37475434495705" lon="10.732416577350408"><ele>112.0</ele><time>2026-05-01T08:41:58.001Z</time></trkpt><trkpt lat="45.374941144754914" lon="10.73240467974638"><ele>112.33333333333334</ele><time>2026-05-01T08:41:59.001Z</time></trkpt><trkpt lat="45.37513352254865" lon="10.73238975402419"><ele>112.66666666666666</ele><time>2026-05-01T08:42:00.001Z</time></trkpt><trkpt lat="45.3753275412034" lon="10.732376075661234"><ele>113.0</ele><time>2026-05-01T08:42:01.001Z</time></trkpt><trkpt lat="45.37551420404062" lon="10.73237169857353"><ele>115.33333333333333</ele><time>2026-05-01T08:42:02.001Z</time></trkpt><trkpt lat="45.37571209798626" lon="10.732386472020453"><ele>117.66666666666666</ele><time>2026-05-01T08:42:03.001Z</time></trkpt><trkpt lat="45.37590528857396" lon="10.732413092659666"><ele>120.0</ele><time>2026-05-01T08:42:04.001Z</time></trkpt><trkpt lat="45.376100896568474" lon="10.732443446396427"><ele>120.0</ele><time>2026-05-01T08:42:05.001Z</time></trkpt><trkpt lat="45.376300894455035" lon="10.732459938016074"><ele>120.0</ele><time>2026-05-01T08:42:06.001Z</time></trkpt><trkpt lat="45.37650098231425" lon="10.732449222336122"><ele>120.0</ele><time>2026-05-01T08:42:07.001Z</time></trkpt><trkpt lat="45.37670249611791" lon="10.732399157229056"><ele>121.0</ele><time>2026-05-01T08:42:08.001Z</time></trkpt><trkpt lat="45.37689763105182" lon="10.732318701367912"><ele>122.0</ele><time>2026-05-01T08:42:09.001Z</time></trkpt><trkpt lat="45.377090704463846" lon="10.732204576417963"><ele>123.0</ele><time>2026-05-01T08:42:10.001Z</time></trkpt><trkpt lat="45.377268138613346" lon="10.73206177971868"><ele>123.0</ele><time>2026-05-01T08:42:11.001Z</time></trkpt><trkpt lat="45.377435109239194" lon="10.731896107859253"><ele>123.0</ele><time>2026-05-01T08:42:12.001Z</time></trkpt><trkpt lat="45.37759300796278" lon="10.731706149966904"><ele>123.0</ele><time>2026-05-01T08:42:13.001Z</time></trkpt><trkpt lat="45.37774092164405" lon="10.731498668559045"><ele>124.0</ele><time>2026-05-01T08:42:14.001Z</time></trkpt><trkpt lat="45.377892306835136" lon="10.73129236165632"><ele>125.0</ele><time>2026-05-01T08:42:15.001Z</time></trkpt><trkpt lat="45.37805142487852" lon="10.731098563082151"><ele>126.0</ele><time>2026-05-01T08:42:16.001Z</time></trkpt><trkpt lat="45.378211081580666" lon="10.730909246034546"><ele>127.0</ele><time>2026-05-01T08:42:17.001Z</time></trkpt><trkpt lat="45.378382819567015" lon="10.730731495662617"><ele>128.0</ele><time>2026-05-01T08:42:18.001Z</time></trkpt><trkpt lat="45.37857729317747" lon="10.73056743578369"><ele>129.0</ele><time>2026-05-01T08:42:19.001Z</time></trkpt><trkpt lat="45.378791151128745" lon="10.730423011425975"><ele>127.5</ele><time>2026-05-01T08:42:20.001Z</time></trkpt><trkpt lat="45.379009824715595" lon="10.730305138939457"><ele>126.0</ele><time>2026-05-01T08:42:21.001Z</time></trkpt><trkpt lat="45.37923278660291" lon="10.730208468128039"><ele>126.0</ele><time>2026-05-01T08:42:22.001Z</time></trkpt><trkpt lat="45.379457369200715" lon="10.730136793134704"><ele>126.0</ele><time>2026-05-01T08:42:23.001Z</time></trkpt><trkpt lat="45.37969036536322" lon="10.730080441300743"><ele>123.5</ele><time>2026-05-01T08:42:24.001Z</time></trkpt><trkpt lat="45.37992176544912" lon="10.730024474320018"><ele>121.0</ele><time>2026-05-01T08:42:25.001Z</time></trkpt><trkpt lat="45.380149974227635" lon="10.729986808861934"><ele>121.0</ele><time>2026-05-01T08:42:26.001Z</time></trkpt><trkpt lat="45.380384465662615" lon="10.729972310263165"><ele>121.0</ele><time>2026-05-01T08:42:27.001Z</time></trkpt><trkpt lat="45.38062528809048" lon="10.729995325468183"><ele>120.0</ele><time>2026-05-01T08:42:28.001Z</time></trkpt><trkpt lat="45.38086284941155" lon="10.730035146800443"><ele>119.0</ele><time>2026-05-01T08:42:29.001Z</time></trkpt><trkpt lat="45.38109601094174" lon="10.730039503157174"><ele>119.0</ele><time>2026-05-01T08:42:30.001Z</time></trkpt><trkpt lat="45.381325265872086" lon="10.73000087057428"><ele>119.0</ele><time>2026-05-01T08:42:31.001Z</time></trkpt><trkpt lat="45.381549947029306" lon="10.729932266041741"><ele>119.0</ele><time>2026-05-01T08:42:32.001Z</time></trkpt><trkpt lat="45.38176950893278" lon="10.729851762913523"><ele>119.0</ele><time>2026-05-01T08:42:33.001Z</time></trkpt><trkpt lat="45.381984238446385" lon="10.729781358076"><ele>119.0</ele><time>2026-05-01T08:42:34.001Z</time></trkpt><trkpt lat="45.38220116416291" lon="10.72971153366452"><ele>120.33333333333333</ele><time>2026-05-01T08:42:35.001Z</time></trkpt><trkpt lat="45.38241663388567" lon="10.72964679615868"><ele>121.66666666666666</ele><time>2026-05-01T08:42:36.001Z</time></trkpt><trkpt lat="45.382629515077966" lon="10.729580187832791"><ele>123.0</ele><time>2026-05-01T08:42:37.001Z</time></trkpt><trkpt lat="45.382835182285085" lon="10.729497952445321"><ele>122.33333333333334</ele><time>2026-05-01T08:42:38.001Z</time></trkpt><trkpt lat="45.38302897790491" lon="10.729383288900758"><ele>121.66666666666667</ele><time>2026-05-01T08:42:39.001Z</time></trkpt><trkpt lat="45.38321247325542" lon="10.729215850935917"><ele>121.0</ele><time>2026-05-01T08:42:40.001Z</time></trkpt><trkpt lat="45.38339687671304" lon="10.729043589449642"><ele>121.0</ele><time>2026-05-01T08:42:41.001Z</time></trkpt><trkpt lat="45.38355591633341" lon="10.72881251559661"><ele>121.0</ele><time>2026-05-01T08:42:42.001Z</time></trkpt><trkpt lat="45.38371639209791" lon="10.728594165696718"><ele>121.0</ele><time>2026-05-01T08:42:43.001Z</time></trkpt><trkpt lat="45.38388717341948" lon="10.72839547496687"><ele>120.5</ele><time>2026-05-01T08:42:44.001Z</time></trkpt><trkpt lat="45.38407461549604" lon="10.72821697292049"><ele>120.0</ele><time>2026-05-01T08:42:45.001Z</time></trkpt><trkpt lat="45.38427210713644" lon="10.72806444516645"><ele>120.0</ele><time>2026-05-01T08:42:46Z</time></trkpt><trkpt lat="45.38446545088698" lon="10.727916341532296"><ele>120.0</ele><time>2026-05-01T08:42:47Z</time></trkpt><trkpt lat="45.38466104268374" lon="10.727776913607796"><ele>120.0</ele><time>2026-05-01T08:42:48Z</time></trkpt><trkpt lat="45.384863994264016" lon="10.727660186821227"><ele>117.33333333333334</ele><time>2026-05-01T08:42:49Z</time></trkpt><trkpt lat="45.385071166241815" lon="10.727557419596765"><ele>114.66666666666667</ele><time>2026-05-01T08:42:50Z</time></trkpt><trkpt lat="45.385277841664525" lon="10.727474759342124"><ele>112.0</ele><time>2026-05-01T08:42:51Z</time></trkpt><trkpt lat="45.38548848467258" lon="10.727408585204126"><ele>112.0</ele><time>2026-05-01T08:42:52Z</time></trkpt><trkpt lat="45.385695221233355" lon="10.727363577535439"><ele>112.0</ele><time>2026-05-01T08:42:53Z</time></trkpt><trkpt lat="45.38590844905604" lon="10.727345394377885"><ele>112.0</ele><time>2026-05-01T08:42:54Z</time></trkpt><trkpt lat="45.38611052994625" lon="10.72735366233235"><ele>112.0</ele><time>2026-05-01T08:42:55Z</time></trkpt><trkpt lat="45.38630849177598" lon="10.727385442808947"><ele>112.0</ele><time>2026-05-01T08:42:56Z</time></trkpt><trkpt lat="45.386493817039025" lon="10.727422375604927"><ele>112.0</ele><time>2026-05-01T08:42:57Z</time></trkpt><trkpt lat="45.38667506262859" lon="10.727440490225439"><ele>111.66666666666667</ele><time>2026-05-01T08:42:58Z</time></trkpt><trkpt lat="45.386835028395545" lon="10.727412156292106"><ele>111.33333333333334</ele><time>2026-05-01T08:42:59Z</time></trkpt><trkpt lat="45.38700343018978" lon="10.727329980750305"><ele>111.0</ele><time>2026-05-01T08:43:00Z</time></trkpt><trkpt lat="45.38716964446783" lon="10.727213108662298"><ele>111.33333333333334</ele><time>2026-05-01T08:43:01Z</time></trkpt><trkpt lat="45.38733395021077" lon="10.727046794318712"><ele>111.66666666666667</ele><time>2026-05-01T08:43:02Z</time></trkpt><trkpt lat="45.38749495775508" lon="10.72684707084025"><ele>112.0</ele><time>2026-05-01T08:43:03Z</time></trkpt><trkpt lat="45.387630412061014" lon="10.726624821204348"><ele>109.66666666666667</ele><time>2026-05-01T08:43:04Z</time></trkpt><trkpt lat="45.38774914610071" lon="10.726380724429486"><ele>107.33333333333334</ele><time>2026-05-01T08:43:05Z</time></trkpt><trkpt lat="45.38786832608721" lon="10.726141288464756"><ele>105.0</ele><time>2026-05-01T08:43:06Z</time></trkpt><trkpt lat="45.38801136442501" lon="10.7259399113998"><ele>103.66666666666666</ele><time>2026-05-01T08:43:07Z</time></trkpt><trkpt lat="45.388175550467984" lon="10.725753796743113"><ele>102.33333333333333</ele><time>2026-05-01T08:43:08Z</time></trkpt><trkpt lat="45.38835523105714" lon="10.72559521084538"><ele>101.0</ele><time>2026-05-01T08:43:09Z</time></trkpt><trkpt lat="45.38853844795184" lon="10.72546353961293"><ele>101.0</ele><time>2026-05-01T08:43:10Z</time></trkpt><trkpt lat="45.38872050554629" lon="10.725328805604033"><ele>101.0</ele><time>2026-05-01T08:43:11Z</time></trkpt><trkpt lat="45.388890864628074" lon="10.725179673117829"><ele>101.0</ele><time>2026-05-01T08:43:12Z</time></trkpt><trkpt lat="45.38903504064253" lon="10.724997066791737"><ele>99.66666666666666</ele><time>2026-05-01T08:43:13Z</time></trkpt><trkpt lat="45.3891739517184" lon="10.72480435707123"><ele>98.33333333333334</ele><time>2026-05-01T08:43:14Z</time></trkpt><trkpt lat="45.389327024109605" lon="10.724636351490117"><ele>97.0</ele><time>2026-05-01T08:43:15Z</time></trkpt><trkpt lat="45.38950765877532" lon="10.724511033277961"><ele>96.0</ele><time>2026-05-01T08:43:16Z</time></trkpt><trkpt lat="45.38969410016426" lon="10.72441123509431"><ele>95.0</ele><time>2026-05-01T08:43:17Z</time></trkpt><trkpt lat="45.389881411476374" lon="10.724292119171265"><ele>94.0</ele><time>2026-05-01T08:43:18Z</time></trkpt><trkpt lat="45.39006298586324" lon="10.724163889211374"><ele>94.0</ele><time>2026-05-01T08:43:19Z</time></trkpt><trkpt lat="45.39024532024402" lon="10.72403485625558"><ele>94.0</ele><time>2026-05-01T08:43:20Z</time></trkpt><trkpt lat="45.39042775353397" lon="10.72390803201586"><ele>94.0</ele><time>2026-05-01T08:43:21Z</time></trkpt><trkpt lat="45.39060938196268" lon="10.72376908162558"><ele>93.0</ele><time>2026-05-01T08:43:22Z</time></trkpt><trkpt lat="45.39078507516479" lon="10.723627071830668"><ele>92.0</ele><time>2026-05-01T08:43:23Z</time></trkpt><trkpt lat="45.39095476996647" lon="10.723470109298951"><ele>91.0</ele><time>2026-05-01T08:43:24Z</time></trkpt><trkpt lat="45.391121335659086" lon="10.723305903779252"><ele>91.0</ele><time>2026-05-01T08:43:25Z</time></trkpt><trkpt lat="45.391292487640705" lon="10.72313778351873"><ele>91.0</ele><time>2026-05-01T08:43:26Z</time></trkpt><trkpt lat="45.391465181610556" lon="10.722973059114668"><ele>91.0</ele><time>2026-05-01T08:43:27Z</time></trkpt><trkpt lat="45.39163689055434" lon="10.722802773455559"><ele>91.0</ele><time>2026-05-01T08:43:28Z</time></trkpt><trkpt lat="45.39181209002495" lon="10.722633695837406"><ele>91.0</ele><time>2026-05-01T08:43:29Z</time></trkpt><trkpt lat="45.39198116285177" lon="10.722466430596167"><ele>91.0</ele><time>2026-05-01T08:43:30Z</time></trkpt><trkpt lat="45.39215338530123" lon="10.722298464928713"><ele>90.66666666666666</ele><time>2026-05-01T08:43:31Z</time></trkpt><trkpt lat="45.39232333968846" lon="10.72212734331301"><ele>90.33333333333333</ele><time>2026-05-01T08:43:32Z</time></trkpt><trkpt lat="45.39249409237964" lon="10.72196705615075"><ele>90.0</ele><time>2026-05-01T08:43:33Z</time></trkpt><trkpt lat="45.3926804693009" lon="10.721831544689202"><ele>90.0</ele><time>2026-05-01T08:43:34Z</time></trkpt><trkpt lat="45.39287466725875" lon="10.721739395787248"><ele>90.0</ele><time>2026-05-01T08:43:35Z</time></trkpt><trkpt lat="45.39308079393076" lon="10.721675391195332"><ele>90.0</ele><time>2026-05-01T08:43:36Z</time></trkpt><trkpt lat="45.39328474773288" lon="10.72162754248368"><ele>90.66666666666667</ele><time>2026-05-01T08:43:37Z</time></trkpt><trkpt lat="45.393487173395364" lon="10.721591056135871"><ele>91.33333333333334</ele><time>2026-05-01T08:43:38Z</time></trkpt><trkpt lat="45.393696382674236" lon="10.721549269642953"><ele>92.0</ele><time>2026-05-01T08:43:39Z</time></trkpt><trkpt lat="45.39390264135661" lon="10.721515959670917"><ele>93.0</ele><time>2026-05-01T08:43:40Z</time></trkpt><trkpt lat="45.394111925325745" lon="10.721484129293124"><ele>94.0</ele><time>2026-05-01T08:43:41Z</time></trkpt><trkpt lat="45.394316953822475" lon="10.72144596503584"><ele>95.0</ele><time>2026-05-01T08:43:42Z</time></trkpt><trkpt lat="45.394518883034664" lon="10.721411129954701"><ele>94.66666666666667</ele><time>2026-05-01T08:43:43Z</time></trkpt><trkpt lat="45.394708687326954" lon="10.72137375632852"><ele>94.33333333333333</ele><time>2026-05-01T08:43:44Z</time></trkpt><trkpt lat="45.394887300444836" lon="10.721343225469571"><ele>94.0</ele><time>2026-05-01T08:43:45Z</time></trkpt><trkpt lat="45.39505018893915" lon="10.721317271837888"><ele>94.0</ele><time>2026-05-01T08:43:46Z</time></trkpt><trkpt lat="45.39522492349856" lon="10.721291585308924"><ele>94.0</ele><time>2026-05-01T08:43:47.001Z</time></trkpt><trkpt lat="45.39539047106574" lon="10.721280058551725"><ele>94.0</ele><time>2026-05-01T08:43:48.001Z</time></trkpt><trkpt lat="45.39552806703067" lon="10.721281350861592"><ele>94.6</ele><time>2026-05-01T08:43:49.001Z</time></trkpt><trkpt lat="45.39563889021196" lon="10.721293123079105"><ele>95.2</ele><time>2026-05-01T08:43:50.001Z</time></trkpt><trkpt lat="45.39572151564605" lon="10.721305988430366"><ele>95.8</ele><time>2026-05-01T08:43:51.001Z</time></trkpt><trkpt lat="45.39580840964961" lon="10.721315733974546"><ele>96.39999999999999</ele><time>2026-05-01T08:43:52.001Z</time></trkpt><trkpt lat="45.39590218403384" lon="10.721324737581819"><ele>97.0</ele><time>2026-05-01T08:43:53.001Z</time></trkpt><trkpt lat="45.39600499994629" lon="10.72134346110338"><ele>97.0</ele><time>2026-05-01T08:43:54.001Z</time></trkpt><trkpt lat="45.396109675257094" lon="10.721360557210403"><ele>97.0</ele><time>2026-05-01T08:43:55.001Z</time></trkpt><trkpt lat="45.39621983308841" lon="10.72138037838299"><ele>97.0</ele><time>2026-05-01T08:43:56.001Z</time></trkpt><trkpt lat="45.39633454059683" lon="10.721404422316105"><ele>97.0</ele><time>2026-05-01T08:43:57.001Z</time></trkpt><trkpt lat="45.39645082450106" lon="10.72142553172829"><ele>97.5</ele><time>2026-05-01T08:43:58.001Z</time></trkpt><trkpt lat="45.396570206489876" lon="10.721450064177207"><ele>98.0</ele><time>2026-05-01T08:43:59.001Z</time></trkpt><trkpt lat="45.39669949588696" lon="10.72147257103586"><ele>98.5</ele><time>2026-05-01T08:44:00.001Z</time></trkpt><trkpt lat="45.396830409889176" lon="10.7214952473813"><ele>99.0</ele><time>2026-05-01T08:44:01.001Z</time></trkpt><trkpt lat="45.39696528364093" lon="10.721517493957817"><ele>99.0</ele><time>2026-05-01T08:44:02.001Z</time></trkpt><trkpt lat="45.397104981444386" lon="10.721536993012709"><ele>99.0</ele><time>2026-05-01T08:44:03.001Z</time></trkpt><trkpt lat="45.39724712711644" lon="10.721560534734751"><ele>99.0</ele><time>2026-05-01T08:44:04.001Z</time></trkpt><trkpt lat="45.3973901273558" lon="10.721585067674264"><ele>99.0</ele><time>2026-05-01T08:44:05.001Z</time></trkpt><trkpt lat="45.39752656741081" lon="10.72161079889125"><ele>99.0</ele><time>2026-05-01T08:44:06.001Z</time></trkpt><trkpt lat="45.397663745258086" lon="10.721633379535712"><ele>99.0</ele><time>2026-05-01T08:44:07.001Z</time></trkpt><trkpt lat="45.39780099361368" lon="10.721660638267577"><ele>99.0</ele><time>2026-05-01T08:44:08.001Z</time></trkpt><trkpt lat="45.3979424765837" lon="10.72168730979547"><ele>99.0</ele><time>2026-05-01T08:44:09.001Z</time></trkpt><trkpt lat="45.398079460861474" lon="10.721717946233417"><ele>99.25</ele><time>2026-05-01T08:44:10.001Z</time></trkpt><trkpt lat="45.39821526850085" lon="10.721746601110189"><ele>99.5</ele><time>2026-05-01T08:44:11.001Z</time></trkpt><trkpt lat="45.398340603628384" lon="10.721773349837255"><ele>99.75</ele><time>2026-05-01T08:44:12.001Z</time></trkpt><trkpt lat="45.39845667000302" lon="10.721802828422803"><ele>100.0</ele><time>2026-05-01T08:44:13.001Z</time></trkpt><trkpt lat="45.398561771486136" lon="10.721842882701308"><ele>100.0</ele><time>2026-05-01T08:44:14.001Z</time></trkpt><trkpt lat="45.39864966327982" lon="10.721876950968893"><ele>100.0</ele><time>2026-05-01T08:44:15.001Z</time></trkpt><trkpt lat="45.39873369732859" lon="10.721922959190204"><ele>100.0</ele><time>2026-05-01T08:44:16.001Z</time></trkpt><trkpt lat="45.39880923090711" lon="10.721972870885711"><ele>100.0</ele><time>2026-05-01T08:44:17.001Z</time></trkpt><trkpt lat="45.39887116042678" lon="10.722032100698998"><ele>100.0</ele><time>2026-05-01T08:44:18.001Z</time></trkpt><trkpt lat="45.3989196832784" lon="10.722202132424911"><ele>100.16666666666667</ele><time>2026-05-01T08:44:20.001Z</time></trkpt><trkpt lat="45.39895291135238" lon="10.722306906014849"><ele>100.33333333333334</ele><time>2026-05-01T08:44:21.001Z</time></trkpt><trkpt lat="45.398976684151606" lon="10.72242390605192"><ele>100.5</ele><time>2026-05-01T08:44:22.001Z</time></trkpt><trkpt lat="45.399027591432926" lon="10.722503183391762"><ele>100.66666666666666</ele><time>2026-05-01T08:44:23.001Z</time></trkpt><trkpt lat="45.3991047229864" lon="10.722551400482187"><ele>100.83333333333333</ele><time>2026-05-01T08:44:24.001Z</time></trkpt><trkpt lat="45.39918790841239" lon="10.722598676725207"><ele>101.0</ele><time>2026-05-01T08:44:25.001Z</time></trkpt><trkpt lat="45.39925666197034" lon="10.722697748486656"><ele>102.25</ele><time>2026-05-01T08:44:26.001Z</time></trkpt><trkpt lat="45.399288192490054" lon="10.722841116260684"><ele>103.5</ele><time>2026-05-01T08:44:27.001Z</time></trkpt><trkpt lat="45.39935423076949" lon="10.722968969635032"><ele>104.75</ele><time>2026-05-01T08:44:28.001Z</time></trkpt><trkpt lat="45.39941386754633" lon="10.723111660573203"><ele>106.0</ele><time>2026-05-01T08:44:29.001Z</time></trkpt><trkpt lat="45.39947986100058" lon="10.723248458720793"><ele>106.0</ele><time>2026-05-01T08:44:30.001Z</time></trkpt><trkpt lat="45.39955345779991" lon="10.723384854106827"><ele>106.0</ele><time>2026-05-01T08:44:31.001Z</time></trkpt><trkpt lat="45.399635579695016" lon="10.723525183815065"><ele>106.0</ele><time>2026-05-01T08:44:32.001Z</time></trkpt><trkpt lat="45.39972010387136" lon="10.723658996444115"><ele>106.0</ele><time>2026-05-01T08:44:33.001Z</time></trkpt><trkpt lat="45.399806979751645" lon="10.723783637373414"><ele>106.75</ele><time>2026-05-01T08:44:34.001Z</time></trkpt><trkpt lat="45.39989694122511" lon="10.723902704896869"><ele>107.5</ele><time>2026-05-01T08:44:35.001Z</time></trkpt><trkpt lat="45.399983918605734" lon="10.724011573508603"><ele>108.25</ele><time>2026-05-01T08:44:36.001Z</time></trkpt><trkpt lat="45.40006708990218" lon="10.724114816315279"><ele>109.0</ele><time>2026-05-01T08:44:37.001Z</time></trkpt><trkpt lat="45.40015272329542" lon="10.724220149366584"><ele>109.0</ele><time>2026-05-01T08:44:38.001Z</time></trkpt><trkpt lat="45.400244170044395" lon="10.72433463290345"><ele>109.0</ele><time>2026-05-01T08:44:39.001Z</time></trkpt><trkpt lat="45.40033905373317" lon="10.724454669909974"><ele>109.0</ele><time>2026-05-01T08:44:40.001Z</time></trkpt><trkpt lat="45.40043110834296" lon="10.724575461138686"><ele>109.0</ele><time>2026-05-01T08:44:41.001Z</time></trkpt><trkpt lat="45.40052798247911" lon="10.724699350537936"><ele>109.0</ele><time>2026-05-01T08:44:42.001Z</time></trkpt><trkpt lat="45.40062792452859" lon="10.724823161068821"><ele>109.0</ele><time>2026-05-01T08:44:43.001Z</time></trkpt><trkpt lat="45.400731865366836" lon="10.724948863562835"><ele>109.0</ele><time>2026-05-01T08:44:44.001Z</time></trkpt><trkpt lat="45.40083144434088" lon="10.725072343067135"><ele>109.0</ele><time>2026-05-01T08:44:45.001Z</time></trkpt><trkpt lat="45.400926913509146" lon="10.725185186720081"><ele>109.25</ele><time>2026-05-01T08:44:46.001Z</time></trkpt><trkpt lat="45.40102388775653" lon="10.725297636327438"><ele>109.5</ele><time>2026-05-01T08:44:47.001Z</time></trkpt><trkpt lat="45.40113496294966" lon="10.725382523338533"><ele>109.75</ele><time>2026-05-01T08:44:48.001Z</time></trkpt><trkpt lat="45.40125209543537" lon="10.725456774051045"><ele>110.0</ele><time>2026-05-01T08:44:49.001Z</time></trkpt><trkpt lat="45.40135702981714" lon="10.725527054957901"><ele>110.0</ele><time>2026-05-01T08:44:50.001Z</time></trkpt><trkpt lat="45.40146385999822" lon="10.725601576164413"><ele>110.0</ele><time>2026-05-01T08:44:51.001Z</time></trkpt><trkpt lat="45.401575651656785" lon="10.725656570712175"><ele>110.0</ele><time>2026-05-01T08:44:51.999Z</time></trkpt><trkpt lat="45.40169879756569" lon="10.72568602829275"><ele>110.0</ele><time>2026-05-01T08:44:52.999Z</time></trkpt><trkpt lat="45.40183180787103" lon="10.725695059886029"><ele>110.0</ele><time>2026-05-01T08:44:53.999Z</time></trkpt><trkpt lat="45.40196259002139" lon="10.725704213633993"><ele>110.0</ele><time>2026-05-01T08:44:54.999Z</time></trkpt><trkpt lat="45.40209371726475" lon="10.725712321492997"><ele>110.0</ele><time>2026-05-01T08:44:55.999Z</time></trkpt><trkpt lat="45.402222512714445" lon="10.725720321019875"><ele>110.0</ele><time>2026-05-01T08:44:57Z</time></trkpt><trkpt lat="45.40234725073049" lon="10.725730408157418"><ele>110.6</ele><time>2026-05-01T08:44:58Z</time></trkpt><trkpt lat="45.402468572886036" lon="10.725740282132287"><ele>111.2</ele><time>2026-05-01T08:44:59Z</time></trkpt><trkpt lat="45.40258019927371" lon="10.725753547409536"><ele>111.80000000000001</ele><time>2026-05-01T08:45:00Z</time></trkpt><trkpt lat="45.40268814317656" lon="10.725762148016054"><ele>112.4</ele><time>2026-05-01T08:45:01Z</time></trkpt><trkpt lat="45.40278558955795" lon="10.725780409321898"><ele>113.0</ele><time>2026-05-01T08:45:02Z</time></trkpt><trkpt lat="45.402871136522904" lon="10.725795453891912"><ele>112.99999999999999</ele><time>2026-05-01T08:45:03Z</time></trkpt><trkpt lat="45.402950575142846" lon="10.725807579665942"><ele>113.0</ele><time>2026-05-01T08:45:04Z</time></trkpt><trkpt lat="45.4030139210992" lon="10.725821791631201"><ele>113.0</ele><time>2026-05-01T08:45:05Z</time></trkpt><trkpt lat="45.4030761673318" lon="10.725857263225722"><ele>113.0</ele><time>2026-05-01T08:45:06Z</time></trkpt><trkpt lat="45.403182900181676" lon="10.725910833927594"><ele>112.99999999999999</ele><time>2026-05-01T08:45:08Z</time></trkpt><trkpt lat="45.40327127648062" lon="10.725824540512377"><ele>113.0</ele><time>2026-05-01T08:45:10Z</time></trkpt><trkpt lat="45.4032872633377" lon="10.725730694962374"><ele>111.80000000000001</ele><time>2026-05-01T08:45:11Z</time></trkpt><trkpt lat="45.40327259571678" lon="10.725607461087796"><ele>110.60000000000001</ele><time>2026-05-01T08:45:12Z</time></trkpt><trkpt lat="45.40324417764992" lon="10.725478440061815"><ele>109.39999999999999</ele><time>2026-05-01T08:45:13Z</time></trkpt><trkpt lat="45.40321156491699" lon="10.725333976401112"><ele>108.19999999999999</ele><time>2026-05-01T08:45:14Z</time></trkpt><trkpt lat="45.40318541345574" lon="10.725176270451287"><ele>107.0</ele><time>2026-05-01T08:45:15Z</time></trkpt><trkpt lat="45.403155484990315" lon="10.725012465526344"><ele>106.19999999999999</ele><time>2026-05-01T08:45:16Z</time></trkpt><trkpt lat="45.403124832131866" lon="10.724859132850721"><ele>105.39999999999999</ele><time>2026-05-01T08:45:17Z</time></trkpt><trkpt lat="45.40309786198368" lon="10.724706778371516"><ele>104.6</ele><time>2026-05-01T08:45:18Z</time></trkpt><trkpt lat="45.40307108178736" lon="10.724552335441505"><ele>103.80000000000001</ele><time>2026-05-01T08:45:19Z</time></trkpt><trkpt lat="45.40304330030144" lon="10.724396492242404"><ele>103.0</ele><time>2026-05-01T08:45:20Z</time></trkpt><trkpt lat="45.403024944924326" lon="10.7242295422432"><ele>102.75</ele><time>2026-05-01T08:45:21Z</time></trkpt><trkpt lat="45.40300624869436" lon="10.724046115668752"><ele>102.5</ele><time>2026-05-01T08:45:22Z</time></trkpt><trkpt lat="45.40299201321719" lon="10.723880285247628"><ele>102.25</ele><time>2026-05-01T08:45:23Z</time></trkpt><trkpt lat="45.40297512985939" lon="10.723718366295731"><ele>102.0</ele><time>2026-05-01T08:45:24Z</time></trkpt><trkpt lat="45.40295154799423" lon="10.723568196542246"><ele>101.8</ele><time>2026-05-01T08:45:25Z</time></trkpt><trkpt lat="45.402930860669" lon="10.723422927647649"><ele>101.6</ele><time>2026-05-01T08:45:26Z</time></trkpt><trkpt lat="45.40291008402865" lon="10.723281484255251"><ele>101.39999999999999</ele><time>2026-05-01T08:45:27Z</time></trkpt><trkpt lat="45.40289354881821" lon="10.723136848745865"><ele>101.19999999999999</ele><time>2026-05-01T08:45:28Z</time></trkpt><trkpt lat="45.40288047580217" lon="10.722988606437623"><ele>101.0</ele><time>2026-05-01T08:45:29Z</time></trkpt><trkpt lat="45.40287592436334" lon="10.722839007498804"><ele>99.6</ele><time>2026-05-01T08:45:30Z</time></trkpt><trkpt lat="45.40287033458365" lon="10.722708492374032"><ele>98.19999999999999</ele><time>2026-05-01T08:45:31Z</time></trkpt><trkpt lat="45.40286279346673" lon="10.722572156448672"><ele>96.80000000000001</ele><time>2026-05-01T08:45:32Z</time></trkpt><trkpt lat="45.40285193215204" lon="10.722435143812332"><ele>95.4</ele><time>2026-05-01T08:45:33Z</time></trkpt><trkpt lat="45.40284556839203" lon="10.722308833660406"><ele>94.0</ele><time>2026-05-01T08:45:34Z</time></trkpt><trkpt lat="45.402846938152955" lon="10.722183865474106"><ele>94.0</ele><time>2026-05-01T08:45:35Z</time></trkpt><trkpt lat="45.402846383116014" lon="10.722063430918011"><ele>94.0</ele><time>2026-05-01T08:45:36Z</time></trkpt><trkpt lat="45.40284945846166" lon="10.721953703845983"><ele>94.0</ele><time>2026-05-01T08:45:37Z</time></trkpt><trkpt lat="45.4028588319032" lon="10.721842865451336"><ele>94.0</ele><time>2026-05-01T08:45:38Z</time></trkpt><trkpt lat="45.40286200527037" lon="10.721734016429764"><ele>94.0</ele><time>2026-05-01T08:45:39Z</time></trkpt><trkpt lat="45.40286609407404" lon="10.721638690008731"><ele>94.0</ele><time>2026-05-01T08:45:40Z</time></trkpt><trkpt lat="45.402863190227585" lon="10.721457487008875"><ele>93.71428571428571</ele><time>2026-05-01T08:45:42Z</time></trkpt><trkpt lat="45.40287016224986" lon="10.721364396409369"><ele>93.42857142857142</ele><time>2026-05-01T08:45:43Z</time></trkpt><trkpt lat="45.40289254640131" lon="10.721275654322636"><ele>93.14285714285714</ele><time>2026-05-01T08:45:44Z</time></trkpt><trkpt lat="45.40292418045482" lon="10.721179736322066"><ele>92.85714285714286</ele><time>2026-05-01T08:45:45Z</time></trkpt><trkpt lat="45.40296826048109" lon="10.721090749049827"><ele>92.57142857142857</ele><time>2026-05-01T08:45:46Z</time></trkpt><trkpt lat="45.40302109382387" lon="10.721018877634297"><ele>92.28571428571429</ele><time>2026-05-01T08:45:47Z</time></trkpt><trkpt lat="45.40308402566446" lon="10.720955197377808"><ele>92.0</ele><time>2026-05-01T08:45:48Z</time></trkpt><trkpt lat="45.40316004054588" lon="10.720963153181403"><ele>91.83333333333334</ele><time>2026-05-01T08:45:49Z</time></trkpt><trkpt lat="45.40323487327415" lon="10.720979954391877"><ele>91.66666666666667</ele><time>2026-05-01T08:45:50Z</time></trkpt><trkpt lat="45.403290667780496" lon="10.721029867641864"><ele>91.5</ele><time>2026-05-01T08:45:51Z</time></trkpt><trkpt lat="45.403350934824935" lon="10.72107037932885"><ele>91.33333333333333</ele><time>2026-05-01T08:45:52Z</time></trkpt><trkpt lat="45.40342786155214" lon="10.721117339319218"><ele>91.16666666666666</ele><time>2026-05-01T08:45:53Z</time></trkpt><trkpt lat="45.40352942253862" lon="10.721153376043477"><ele>91.0</ele><time>2026-05-01T08:45:54Z</time></trkpt><trkpt lat="45.40360366010802" lon="10.721202238269772"><ele>91.0</ele><time>2026-05-01T08:45:55Z</time></trkpt><trkpt lat="45.403673169909524" lon="10.721236790788609"><ele>91.0</ele><time>2026-05-01T08:45:56.001Z</time></trkpt><trkpt lat="45.40380099175923" lon="10.721280854862139"><ele>91.0</ele><time>2026-05-01T08:45:58.001Z</time></trkpt><trkpt lat="45.40387123304972" lon="10.721253443367086"><ele>91.0</ele><time>2026-05-01T08:45:59.001Z</time></trkpt><trkpt lat="45.40393673425253" lon="10.721192309411098"><ele>91.0</ele><time>2026-05-01T08:46:00.001Z</time></trkpt><trkpt lat="45.40397798944011" lon="10.721098102729465"><ele>91.0</ele><time>2026-05-01T08:46:01.001Z</time></trkpt><trkpt lat="45.40401384226514" lon="10.720971522320639"><ele>90.5</ele><time>2026-05-01T08:46:02.001Z</time></trkpt><trkpt lat="45.40403384942833" lon="10.720864771309959"><ele>90.0</ele><time>2026-05-01T08:46:03.001Z</time></trkpt><trkpt lat="45.404075860830126" lon="10.720781109904586"><ele>89.5</ele><time>2026-05-01T08:46:04.001Z</time></trkpt><trkpt lat="45.404155916622244" lon="10.72073823036984"><ele>89.0</ele><time>2026-05-01T08:46:05.001Z</time></trkpt><trkpt lat="45.40423872556117" lon="10.720702949096085"><ele>88.5</ele><time>2026-05-01T08:46:06.001Z</time></trkpt><trkpt lat="45.40431847381704" lon="10.720679886041093"><ele>88.0</ele><time>2026-05-01T08:46:07.001Z</time></trkpt><trkpt lat="45.40441600724754" lon="10.720646383356625"><ele>88.0</ele><time>2026-05-01T08:46:08.001Z</time></trkpt><trkpt lat="45.40451894510853" lon="10.720617724689582"><ele>88.0</ele><time>2026-05-01T08:46:09.001Z</time></trkpt><trkpt lat="45.40463165958539" lon="10.720599255973129"><ele>88.0</ele><time>2026-05-01T08:46:10.001Z</time></trkpt><trkpt lat="45.404734956823745" lon="10.720582993400201"><ele>88.0</ele><time>2026-05-01T08:46:11.001Z</time></trkpt><trkpt lat="45.404831126589904" lon="10.720568447189489"><ele>88.0</ele><time>2026-05-01T08:46:12.001Z</time></trkpt><trkpt lat="45.40493313359779" lon="10.720551823559731"><ele>87.75</ele><time>2026-05-01T08:46:13.001Z</time></trkpt><trkpt lat="45.4050532132056" lon="10.720542936881369"><ele>87.5</ele><time>2026-05-01T08:46:14.001Z</time></trkpt><trkpt lat="45.405163797891674" lon="10.720521562408436"><ele>87.25</ele><time>2026-05-01T08:46:15.001Z</time></trkpt><trkpt lat="45.40527179621052" lon="10.720499779995171"><ele>87.0</ele><time>2026-05-01T08:46:16.001Z</time></trkpt><trkpt lat="45.40538294228578" lon="10.720477109961381"><ele>86.0</ele><time>2026-05-01T08:46:17.001Z</time></trkpt><trkpt lat="45.405500467347416" lon="10.720461287573047"><ele>85.0</ele><time>2026-05-01T08:46:18.001Z</time></trkpt><trkpt lat="45.40562572683324" lon="10.720450118467399"><ele>84.0</ele><time>2026-05-01T08:46:19.001Z</time></trkpt><trkpt lat="45.405744267239875" lon="10.72043237590613"><ele>83.0</ele><time>2026-05-01T08:46:20.001Z</time></trkpt><trkpt lat="45.405864851127085" lon="10.720404983007708"><ele>83.0</ele><time>2026-05-01T08:46:21.001Z</time></trkpt><trkpt lat="45.405983529465026" lon="10.720382412752151"><ele>83.0</ele><time>2026-05-01T08:46:22.001Z</time></trkpt><trkpt lat="45.40610000539291" lon="10.72036438625721"><ele>83.0</ele><time>2026-05-01T08:46:23.001Z</time></trkpt><trkpt lat="45.406224311859546" lon="10.720349467791273"><ele>83.0</ele><time>2026-05-01T08:46:24.001Z</time></trkpt><trkpt lat="45.406343379089" lon="10.720330363542255"><ele>81.25</ele><time>2026-05-01T08:46:25.001Z</time></trkpt><trkpt lat="45.40647365873844" lon="10.720307772862524"><ele>79.5</ele><time>2026-05-01T08:46:26.001Z</time></trkpt><trkpt lat="45.406597262875145" lon="10.720282932815632"><ele>77.75</ele><time>2026-05-01T08:46:27.001Z</time></trkpt><trkpt lat="45.40672079962323" lon="10.720255530029812"><ele>76.0</ele><time>2026-05-01T08:46:28.001Z</time></trkpt><trkpt lat="45.406849533152595" lon="10.720233986454659"><ele>75.39999999999999</ele><time>2026-05-01T08:46:29.001Z</time></trkpt><trkpt lat="45.40697575835387" lon="10.720212480610025"><ele>74.8</ele><time>2026-05-01T08:46:30.001Z</time></trkpt><trkpt lat="45.407091732569235" lon="10.72018861701403"><ele>74.19999999999999</ele><time>2026-05-01T08:46:31.001Z</time></trkpt><trkpt lat="45.40718314997041" lon="10.720169522388112"><ele>73.6</ele><time>2026-05-01T08:46:32.001Z</time></trkpt><trkpt lat="45.407261301019865" lon="10.720153279056884"><ele>73.0</ele><time>2026-05-01T08:46:33.001Z</time></trkpt><trkpt lat="45.407329841279086" lon="10.720144470066524"><ele>72.83333333333333</ele><time>2026-05-01T08:46:34.001Z</time></trkpt><trkpt lat="45.407394925768195" lon="10.720133138095802"><ele>72.66666666666666</ele><time>2026-05-01T08:46:35.001Z</time></trkpt><trkpt lat="45.407493645664665" lon="10.720117761865463"><ele>72.5</ele><time>2026-05-01T08:46:37.001Z</time></trkpt><trkpt lat="45.40755741054181" lon="10.72010253367004"><ele>72.33333333333333</ele><time>2026-05-01T08:46:41.001Z</time></trkpt><trkpt lat="45.407631759279674" lon="10.72008849144229"><ele>72.16666666666667</ele><time>2026-05-01T08:46:56.001Z</time></trkpt><trkpt lat="45.4077354953425" lon="10.720064230979343"><ele>72.0</ele><time>2026-05-01T08:46:58Z</time></trkpt><trkpt lat="45.40779829463166" lon="10.720040686478011"><ele>72.0</ele><time>2026-05-01T08:46:59Z</time></trkpt><trkpt lat="45.40787356010328" lon="10.72000565121814"><ele>72.0</ele><time>2026-05-01T08:47:00Z</time></trkpt><trkpt lat="45.407967404213366" lon="10.719957103642583"><ele>72.0</ele><time>2026-05-01T08:47:01Z</time></trkpt><trkpt lat="45.408082043164434" lon="10.719898915477653"><ele>72.0</ele><time>2026-05-01T08:47:02Z</time></trkpt><trkpt lat="45.40824071395272" lon="10.719848984510868"><ele>72.33333333333333</ele><time>2026-05-01T08:47:03Z</time></trkpt><trkpt lat="45.40842533384824" lon="10.719760826270534"><ele>72.66666666666666</ele><time>2026-05-01T08:47:04Z</time></trkpt><trkpt lat="45.40861637209009" lon="10.719681375220375"><ele>73.0</ele><time>2026-05-01T08:47:05Z</time></trkpt><trkpt lat="45.4087987568569" lon="10.71958831860885"><ele>72.66666666666666</ele><time>2026-05-01T08:47:06Z</time></trkpt><trkpt lat="45.408976395120504" lon="10.71949168866285"><ele>72.33333333333333</ele><time>2026-05-01T08:47:07Z</time></trkpt><trkpt lat="45.409147247229015" lon="10.719376599909028"><ele>72.0</ele><time>2026-05-01T08:47:08Z</time></trkpt><trkpt lat="45.40930867891453" lon="10.719253174869808"><ele>72.33333333333333</ele><time>2026-05-01T08:47:09Z</time></trkpt><trkpt lat="45.409469976509584" lon="10.71912974098689"><ele>72.66666666666666</ele><time>2026-05-01T08:47:10Z</time></trkpt><trkpt lat="45.409631276204564" lon="10.719010816555798"><ele>73.0</ele><time>2026-05-01T08:47:11Z</time></trkpt><trkpt lat="45.40979469069983" lon="10.718926307800361"><ele>73.0</ele><time>2026-05-01T08:47:12Z</time></trkpt><trkpt lat="45.40996891723735" lon="10.718860919538354"><ele>73.0</ele><time>2026-05-01T08:47:13Z</time></trkpt><trkpt lat="45.410151796956356" lon="10.718812764067355"><ele>73.0</ele><time>2026-05-01T08:47:14Z</time></trkpt><trkpt lat="45.41033167330595" lon="10.718782615479816"><ele>75.0</ele><time>2026-05-01T08:47:15Z</time></trkpt><trkpt lat="45.41050888932885" lon="10.718745590045403"><ele>77.0</ele><time>2026-05-01T08:47:16Z</time></trkpt><trkpt lat="45.41069137490226" lon="10.718706973118495"><ele>79.0</ele><time>2026-05-01T08:47:17Z</time></trkpt><trkpt lat="45.4108731989299" lon="10.71866104752943"><ele>79.0</ele><time>2026-05-01T08:47:18Z</time></trkpt><trkpt lat="45.411057588231415" lon="10.718609956090125"><ele>79.0</ele><time>2026-05-01T08:47:19Z</time></trkpt><trkpt lat="45.411243791233716" lon="10.718562951520704"><ele>79.0</ele><time>2026-05-01T08:47:20Z</time></trkpt><trkpt lat="45.41142723830198" lon="10.718508502666952"><ele>76.33333333333333</ele><time>2026-05-01T08:47:21Z</time></trkpt><trkpt lat="45.41162353973605" lon="10.718467048148872"><ele>73.66666666666667</ele><time>2026-05-01T08:47:22Z</time></trkpt><trkpt lat="45.41181938433595" lon="10.718426582949684"><ele>71.0</ele><time>2026-05-01T08:47:23Z</time></trkpt><trkpt lat="45.412018614322406" lon="10.718422426257712"><ele>71.33333333333334</ele><time>2026-05-01T08:47:24Z</time></trkpt><trkpt lat="45.412221514971584" lon="10.718413064881965"><ele>71.66666666666667</ele><time>2026-05-01T08:47:25Z</time></trkpt><trkpt lat="45.41241271871399" lon="10.718401747096104"><ele>72.0</ele><time>2026-05-01T08:47:26Z</time></trkpt><trkpt lat="45.41260302608964" lon="10.718373681775702"><ele>72.0</ele><time>2026-05-01T08:47:27Z</time></trkpt><trkpt lat="45.412781465270065" lon="10.718327246704836"><ele>72.0</ele><time>2026-05-01T08:47:28Z</time></trkpt><trkpt lat="45.412954054060286" lon="10.718275950836587"><ele>72.0</ele><time>2026-05-01T08:47:29Z</time></trkpt><trkpt lat="45.41313712233126" lon="10.718224730368618"><ele>73.33333333333333</ele><time>2026-05-01T08:47:30Z</time></trkpt><trkpt lat="45.413320230743935" lon="10.718172604800888"><ele>74.66666666666666</ele><time>2026-05-01T08:47:31Z</time></trkpt><trkpt lat="45.41351372029584" lon="10.718110085776088"><ele>76.0</ele><time>2026-05-01T08:47:32Z</time></trkpt><trkpt lat="45.41371014000959" lon="10.71804430564988"><ele>77.33333333333333</ele><time>2026-05-01T08:47:33Z</time></trkpt><trkpt lat="45.41390047303986" lon="10.717972778443006"><ele>78.66666666666667</ele><time>2026-05-01T08:47:34Z</time></trkpt><trkpt lat="45.414090989182334" lon="10.717905518149392"><ele>80.0</ele><time>2026-05-01T08:47:35Z</time></trkpt><trkpt lat="45.41427584495309" lon="10.71782273479475"><ele>80.0</ele><time>2026-05-01T08:47:36Z</time></trkpt><trkpt lat="45.41446381937971" lon="10.717738044585927"><ele>80.0</ele><time>2026-05-01T08:47:37Z</time></trkpt><trkpt lat="45.41464867621336" lon="10.717651928999437"><ele>80.0</ele><time>2026-05-01T08:47:38Z</time></trkpt><trkpt lat="45.41481959635569" lon="10.717575447892356"><ele>78.0</ele><time>2026-05-01T08:47:39Z</time></trkpt><trkpt lat="45.41499023521099" lon="10.71749741320691"><ele>76.0</ele><time>2026-05-01T08:47:40Z</time></trkpt><trkpt lat="45.41516271910941" lon="10.717427773083926"><ele>74.0</ele><time>2026-05-01T08:47:41Z</time></trkpt><trkpt lat="45.41534205923279" lon="10.71735874293798"><ele>77.33333333333334</ele><time>2026-05-01T08:47:42Z</time></trkpt><trkpt lat="45.415510459481496" lon="10.717302222913801"><ele>80.66666666666667</ele><time>2026-05-01T08:47:43Z</time></trkpt><trkpt lat="45.415658811426496" lon="10.717227190649353"><ele>84.0</ele><time>2026-05-01T08:47:44Z</time></trkpt><trkpt lat="45.415829939075564" lon="10.717177498432934"><ele>84.0</ele><time>2026-05-01T08:47:45Z</time></trkpt><trkpt lat="45.415999888684716" lon="10.717121589213741"><ele>84.0</ele><time>2026-05-01T08:47:46Z</time></trkpt><trkpt lat="45.41616988998029" lon="10.717055585165745"><ele>84.0</ele><time>2026-05-01T08:47:47Z</time></trkpt><trkpt lat="45.416338244335726" lon="10.716980556316566"><ele>80.0</ele><time>2026-05-01T08:47:48Z</time></trkpt><trkpt lat="45.416509696057865" lon="10.716899564138552"><ele>76.0</ele><time>2026-05-01T08:47:49Z</time></trkpt><trkpt lat="45.41667960224687" lon="10.716805440143577"><ele>72.0</ele><time>2026-05-01T08:47:50.001Z</time></trkpt><trkpt lat="45.416845402932765" lon="10.716702437985756"><ele>72.0</ele><time>2026-05-01T08:47:51.001Z</time></trkpt><trkpt lat="45.417007935359806" lon="10.716598062808211"><ele>72.0</ele><time>2026-05-01T08:47:52.001Z</time></trkpt><trkpt lat="45.4171733628168" lon="10.716489023212466"><ele>72.0</ele><time>2026-05-01T08:47:53.001Z</time></trkpt><trkpt lat="45.417321597675794" lon="10.716389653940425"><ele>71.25</ele><time>2026-05-01T08:47:54.001Z</time></trkpt><trkpt lat="45.41746129964851" lon="10.716296700292109"><ele>70.5</ele><time>2026-05-01T08:47:55.001Z</time></trkpt><trkpt lat="45.41759649546884" lon="10.716216230685994"><ele>69.75</ele><time>2026-05-01T08:47:56.001Z</time></trkpt><trkpt lat="45.41772528737697" lon="10.716127814997435"><ele>69.0</ele><time>2026-05-01T08:47:57.001Z</time></trkpt><trkpt lat="45.41783217164011" lon="10.716053989679507"><ele>69.0</ele><time>2026-05-01T08:47:58.001Z</time></trkpt><trkpt lat="45.417925789898874" lon="10.71599124784268"><ele>69.0</ele><time>2026-05-01T08:47:59.001Z</time></trkpt><trkpt lat="45.41800591858647" lon="10.715940771414788"><ele>69.0</ele><time>2026-05-01T08:48:00.001Z</time></trkpt><trkpt lat="45.418084374878106" lon="10.715886639090874"><ele>69.0</ele><time>2026-05-01T08:48:01.001Z</time></trkpt><trkpt lat="45.41816748811708" lon="10.715826187523664"><ele>69.0</ele><time>2026-05-01T08:48:02.001Z</time></trkpt><trkpt lat="45.41825696218051" lon="10.715761651793066"><ele>70.2</ele><time>2026-05-01T08:48:03.001Z</time></trkpt><trkpt lat="45.41833165789038" lon="10.715698668438245"><ele>71.4</ele><time>2026-05-01T08:48:04.001Z</time></trkpt><trkpt lat="45.418411172653165" lon="10.7156335375819"><ele>72.6</ele><time>2026-05-01T08:48:05.001Z</time></trkpt><trkpt lat="45.418504657641925" lon="10.715554119814394"><ele>73.8</ele><time>2026-05-01T08:48:06.001Z</time></trkpt><trkpt lat="45.418585837033866" lon="10.715459106490776"><ele>75.0</ele><time>2026-05-01T08:48:07.001Z</time></trkpt><trkpt lat="45.41869257315293" lon="10.71534157495315"><ele>75.25</ele><time>2026-05-01T08:48:08.001Z</time></trkpt><trkpt lat="45.418791086975276" lon="10.715219277399001"><ele>75.5</ele><time>2026-05-01T08:48:09.001Z</time></trkpt><trkpt lat="45.41890065740255" lon="10.715077494632773"><ele>75.75</ele><time>2026-05-01T08:48:10.001Z</time></trkpt><trkpt lat="45.41901253542641" lon="10.714917867422368"><ele>76.0</ele><time>2026-05-01T08:48:11.001Z</time></trkpt><trkpt lat="45.41912075779874" lon="10.71474577576893"><ele>76.0</ele><time>2026-05-01T08:48:12.001Z</time></trkpt><trkpt lat="45.41921269229719" lon="10.714538708553883"><ele>76.0</ele><time>2026-05-01T08:48:13.001Z</time></trkpt><trkpt lat="45.419329181960215" lon="10.714316879766844"><ele>76.0</ele><time>2026-05-01T08:48:14.001Z</time></trkpt><trkpt lat="45.41943818445729" lon="10.71409496978107"><ele>73.33333333333333</ele><time>2026-05-01T08:48:15.001Z</time></trkpt><trkpt lat="45.41954671350086" lon="10.713854674850168"><ele>70.66666666666667</ele><time>2026-05-01T08:48:16.001Z</time></trkpt><trkpt lat="45.41964934255077" lon="10.713612943317516"><ele>68.0</ele><time>2026-05-01T08:48:17.001Z</time></trkpt><trkpt lat="45.41974142716951" lon="10.71336424148448"><ele>68.0</ele><time>2026-05-01T08:48:18.001Z</time></trkpt><trkpt lat="45.41982422986008" lon="10.713114101647752"><ele>68.0</ele><time>2026-05-01T08:48:19.001Z</time></trkpt><trkpt lat="45.41989621450942" lon="10.712856730604207"><ele>68.0</ele><time>2026-05-01T08:48:20.001Z</time></trkpt><trkpt lat="45.41996523769757" lon="10.712582618936091"><ele>67.66666666666667</ele><time>2026-05-01T08:48:21.001Z</time></trkpt><trkpt lat="45.420041670514244" lon="10.712338120171255"><ele>67.33333333333333</ele><time>2026-05-01T08:48:22.001Z</time></trkpt><trkpt lat="45.4201162962324" lon="10.712093490439095"><ele>67.0</ele><time>2026-05-01T08:48:23.001Z</time></trkpt><trkpt lat="45.42019077951962" lon="10.7118522334289"><ele>67.0</ele><time>2026-05-01T08:48:24.001Z</time></trkpt><trkpt lat="45.420258930963094" lon="10.711617022960976"><ele>67.0</ele><time>2026-05-01T08:48:25.001Z</time></trkpt><trkpt lat="45.42032392486897" lon="10.71140990288065"><ele>67.0</ele><time>2026-05-01T08:48:26.001Z</time></trkpt><trkpt lat="45.42038590559565" lon="10.71119726236028"><ele>67.0</ele><time>2026-05-01T08:48:27.001Z</time></trkpt><trkpt lat="45.420444214284984" lon="10.71096961178992"><ele>67.0</ele><time>2026-05-01T08:48:28.001Z</time></trkpt><trkpt lat="45.42050264177007" lon="10.710752708785375"><ele>67.0</ele><time>2026-05-01T08:48:29.001Z</time></trkpt><trkpt lat="45.42056456974148" lon="10.71053204490392"><ele>67.5</ele><time>2026-05-01T08:48:30.001Z</time></trkpt><trkpt lat="45.42061905656573" lon="10.710338607398356"><ele>68.0</ele><time>2026-05-01T08:48:31.001Z</time></trkpt><trkpt lat="45.420672043963506" lon="10.710147219377253"><ele>68.5</ele><time>2026-05-01T08:48:32.001Z</time></trkpt><trkpt lat="45.420728763532864" lon="10.70996032612412"><ele>69.0</ele><time>2026-05-01T08:48:33.001Z</time></trkpt><trkpt lat="45.42078280733296" lon="10.70977536625108"><ele>69.25</ele><time>2026-05-01T08:48:34.001Z</time></trkpt><trkpt lat="45.420834128048" lon="10.709598631437002"><ele>69.5</ele><time>2026-05-01T08:48:35.001Z</time></trkpt><trkpt lat="45.420893817615756" lon="10.709416148756757"><ele>69.75</ele><time>2026-05-01T08:48:36.001Z</time></trkpt><trkpt lat="45.420953360077974" lon="10.709242464473443"><ele>70.0</ele><time>2026-05-01T08:48:37.001Z</time></trkpt><trkpt lat="45.421010732745046" lon="10.709072042535917"><ele>70.0</ele><time>2026-05-01T08:48:38.001Z</time></trkpt><trkpt lat="45.42106984346758" lon="10.708912060497848"><ele>70.0</ele><time>2026-05-01T08:48:39.001Z</time></trkpt><trkpt lat="45.421132659350505" lon="10.708754764178607"><ele>70.0</ele><time>2026-05-01T08:48:40.001Z</time></trkpt><trkpt lat="45.421195069956696" lon="10.70860100067004"><ele>70.0</ele><time>2026-05-01T08:48:41.001Z</time></trkpt><trkpt lat="45.42126620400436" lon="10.708451112667527"><ele>70.0</ele><time>2026-05-01T08:48:42.001Z</time></trkpt><trkpt lat="45.42133609816598" lon="10.708298934081615"><ele>70.0</ele><time>2026-05-01T08:48:43.001Z</time></trkpt><trkpt lat="45.421407180053485" lon="10.70814624492091"><ele>70.0</ele><time>2026-05-01T08:48:44.001Z</time></trkpt><trkpt lat="45.421485063558556" lon="10.708004619335659"><ele>70.0</ele><time>2026-05-01T08:48:45.001Z</time></trkpt><trkpt lat="45.421572063277566" lon="10.707864266486919"><ele>69.75</ele><time>2026-05-01T08:48:46.001Z</time></trkpt><trkpt lat="45.42167457062728" lon="10.707737792983346"><ele>69.5</ele><time>2026-05-01T08:48:47.001Z</time></trkpt><trkpt lat="45.42178922643504" lon="10.707634404746797"><ele>69.25</ele><time>2026-05-01T08:48:48.001Z</time></trkpt><trkpt lat="45.42190641174155" lon="10.707534243122415"><ele>69.0</ele><time>2026-05-01T08:48:49.001Z</time></trkpt><trkpt lat="45.42202679374322" lon="10.707436683293206"><ele>69.0</ele><time>2026-05-01T08:48:50.001Z</time></trkpt><trkpt lat="45.42214287897568" lon="10.7073385647763"><ele>69.0</ele><time>2026-05-01T08:48:51.001Z</time></trkpt><trkpt lat="45.422262693008065" lon="10.707233409514213"><ele>69.0</ele><time>2026-05-01T08:48:52.001Z</time></trkpt><trkpt lat="45.42238598100727" lon="10.707130081521957"><ele>69.0</ele><time>2026-05-01T08:48:53.001Z</time></trkpt><trkpt lat="45.4224954564507" lon="10.707030136538398"><ele>69.75</ele><time>2026-05-01T08:48:54.001Z</time></trkpt><trkpt lat="45.42259560770554" lon="10.70693674018758"><ele>70.5</ele><time>2026-05-01T08:48:55.001Z</time></trkpt><trkpt lat="45.42269035446707" lon="10.706854078440267"><ele>71.25</ele><time>2026-05-01T08:48:56.001Z</time></trkpt><trkpt lat="45.42279473858582" lon="10.706745266540107"><ele>72.0</ele><time>2026-05-01T08:48:57.001Z</time></trkpt><trkpt lat="45.422908010353275" lon="10.706628083045704"><ele>74.0</ele><time>2026-05-01T08:48:58.001Z</time></trkpt><trkpt lat="45.42302076425874" lon="10.706509903060324"><ele>76.0</ele><time>2026-05-01T08:48:59.001Z</time></trkpt><trkpt lat="45.4231284083574" lon="10.706398816645867"><ele>78.0</ele><time>2026-05-01T08:49:00.001Z</time></trkpt><trkpt lat="45.42322433691942" lon="10.706283531917432"><ele>80.0</ele><time>2026-05-01T08:49:01.001Z</time></trkpt><trkpt lat="45.423314352809555" lon="10.706160658289415"><ele>79.5</ele><time>2026-05-01T08:49:02.001Z</time></trkpt><trkpt lat="45.42341169753877" lon="10.706042068283159"><ele>79.0</ele><time>2026-05-01T08:49:03.001Z</time></trkpt><trkpt lat="45.42352100461971" lon="10.705933919018104"><ele>78.5</ele><time>2026-05-01T08:49:03.998Z</time></trkpt><trkpt lat="45.423616911744105" lon="10.705839747940901"><ele>78.0</ele><time>2026-05-01T08:49:04.998Z</time></trkpt><trkpt lat="45.42371994303018" lon="10.705749240132132"><ele>78.75</ele><time>2026-05-01T08:49:05.998Z</time></trkpt><trkpt lat="45.423820674545645" lon="10.705662379047189"><ele>79.5</ele><time>2026-05-01T08:49:06.998Z</time></trkpt><trkpt lat="45.42391745523517" lon="10.70556877701418"><ele>80.25</ele><time>2026-05-01T08:49:07.998Z</time></trkpt><trkpt lat="45.42401813231543" lon="10.70548061234953"><ele>81.0</ele><time>2026-05-01T08:49:08.998Z</time></trkpt><trkpt lat="45.42411948465713" lon="10.705389477795382"><ele>81.0</ele><time>2026-05-01T08:49:09.998Z</time></trkpt><trkpt lat="45.42420469894274" lon="10.705307481201174"><ele>81.0</ele><time>2026-05-01T08:49:10.998Z</time></trkpt><trkpt lat="45.42429264661796" lon="10.705223268801529"><ele>81.0</ele><time>2026-05-01T08:49:11.998Z</time></trkpt><trkpt lat="45.42437956616912" lon="10.705150764576832"><ele>81.0</ele><time>2026-05-01T08:49:12.998Z</time></trkpt><trkpt lat="45.424468209259096" lon="10.70508113177516"><ele>81.0</ele><time>2026-05-01T08:49:13.998Z</time></trkpt><trkpt lat="45.42454886757423" lon="10.705025873024686"><ele>80.39999999999999</ele><time>2026-05-01T08:49:14.998Z</time></trkpt><trkpt lat="45.424638100972395" lon="10.704966028312523"><ele>79.8</ele><time>2026-05-01T08:49:15.998Z</time></trkpt><trkpt lat="45.42472151978305" lon="10.704910279529225"><ele>79.19999999999999</ele><time>2026-05-01T08:49:16.998Z</time></trkpt><trkpt lat="45.42480263858642" lon="10.704849434924377"><ele>78.6</ele><time>2026-05-01T08:49:17.999Z</time></trkpt><trkpt lat="45.42487902907168" lon="10.704797610430672"><ele>78.0</ele><time>2026-05-01T08:49:18.999Z</time></trkpt><trkpt lat="45.42495896314056" lon="10.70474636377126"><ele>78.0</ele><time>2026-05-01T08:49:19.999Z</time></trkpt><trkpt lat="45.425055415385174" lon="10.704696091280802"><ele>78.0</ele><time>2026-05-01T08:49:20.999Z</time></trkpt><trkpt lat="45.4251417271417" lon="10.704648315695177"><ele>78.0</ele><time>2026-05-01T08:49:21.999Z</time></trkpt><trkpt lat="45.42522035606091" lon="10.70459139939101"><ele>78.0</ele><time>2026-05-01T08:49:22.999Z</time></trkpt><trkpt lat="45.42530848353198" lon="10.704535785194176"><ele>78.0</ele><time>2026-05-01T08:49:23.999Z</time></trkpt><trkpt lat="45.42539664152824" lon="10.704473394508497"><ele>78.0</ele><time>2026-05-01T08:49:24.999Z</time></trkpt><trkpt lat="45.425477069258385" lon="10.704413541506844"><ele>78.0</ele><time>2026-05-01T08:49:25.999Z</time></trkpt><trkpt lat="45.425552687215024" lon="10.704348596547067"><ele>78.0</ele><time>2026-05-01T08:49:26.999Z</time></trkpt><trkpt lat="45.42562585023183" lon="10.704276404271234"><ele>78.0</ele><time>2026-05-01T08:49:27.999Z</time></trkpt><trkpt lat="45.42569620726108" lon="10.704195309096148"><ele>78.0</ele><time>2026-05-01T08:49:28.999Z</time></trkpt><trkpt lat="45.42576498281219" lon="10.704105491503217"><ele>77.6</ele><time>2026-05-01T08:49:29.999Z</time></trkpt><trkpt lat="45.42584587908882" lon="10.70403538135689"><ele>77.19999999999999</ele><time>2026-05-01T08:49:30.999Z</time></trkpt><trkpt lat="45.42592387670029" lon="10.703960663634279"><ele>76.8</ele><time>2026-05-01T08:49:31.999Z</time></trkpt><trkpt lat="45.42600622014123" lon="10.703882453342981"><ele>76.39999999999999</ele><time>2026-05-01T08:49:32.999Z</time></trkpt><trkpt lat="45.42609693081943" lon="10.703797155014321"><ele>76.0</ele><time>2026-05-01T08:49:33.999Z</time></trkpt><trkpt lat="45.42618721407828" lon="10.703712258564984"><ele>76.0</ele><time>2026-05-01T08:49:34.999Z</time></trkpt><trkpt lat="45.4262737767766" lon="10.703630860694664"><ele>76.0</ele><time>2026-05-01T08:49:35.999Z</time></trkpt><trkpt lat="45.42635124969367" lon="10.703559137948819"><ele>76.0</ele><time>2026-05-01T08:49:36.999Z</time></trkpt><trkpt lat="45.426432683570034" lon="10.703484474600337"><ele>76.0</ele><time>2026-05-01T08:49:37.999Z</time></trkpt><trkpt lat="45.42650042923202" lon="10.703401574060946"><ele>76.0</ele><time>2026-05-01T08:49:38.999Z</time></trkpt><trkpt lat="45.42659728138575" lon="10.70336791009074"><ele>75.8</ele><time>2026-05-01T08:49:39.999Z</time></trkpt><trkpt lat="45.42669047521864" lon="10.703320252854052"><ele>75.6</ele><time>2026-05-01T08:49:41Z</time></trkpt><trkpt lat="45.42677825834471" lon="10.703258060510256"><ele>75.4</ele><time>2026-05-01T08:49:42Z</time></trkpt><trkpt lat="45.42686511233515" lon="10.703188340321056"><ele>75.2</ele><time>2026-05-01T08:49:43Z</time></trkpt><trkpt lat="45.42694982804116" lon="10.703105107139994"><ele>75.0</ele><time>2026-05-01T08:49:44Z</time></trkpt><trkpt lat="45.42704099966595" lon="10.703012730227643"><ele>74.6</ele><time>2026-05-01T08:49:45Z</time></trkpt><trkpt lat="45.42714528381808" lon="10.702937920079048"><ele>74.2</ele><time>2026-05-01T08:49:46Z</time></trkpt><trkpt lat="45.42724474601721" lon="10.702856756283834"><ele>73.8</ele><time>2026-05-01T08:49:47Z</time></trkpt><trkpt lat="45.427334832234116" lon="10.702770817454494"><ele>73.4</ele><time>2026-05-01T08:49:48Z</time></trkpt><trkpt lat="45.427421788863654" lon="10.702681120377882"><ele>73.0</ele><time>2026-05-01T08:49:49Z</time></trkpt><trkpt lat="45.42749420797984" lon="10.702582280991827"><ele>72.4</ele><time>2026-05-01T08:49:50Z</time></trkpt><trkpt lat="45.42755279052589" lon="10.702467718121664"><ele>71.8</ele><time>2026-05-01T08:49:51Z</time></trkpt><trkpt lat="45.42760041611155" lon="10.70235362177346"><ele>71.2</ele><time>2026-05-01T08:49:52Z</time></trkpt><trkpt lat="45.42765177537386" lon="10.702241144598757"><ele>70.6</ele><time>2026-05-01T08:49:53Z</time></trkpt><trkpt lat="45.427711596183435" lon="10.702156615979087"><ele>70.0</ele><time>2026-05-01T08:49:54Z</time></trkpt><trkpt lat="45.4277947245029" lon="10.702096699766809"><ele>70.0</ele><time>2026-05-01T08:49:55Z</time></trkpt><trkpt lat="45.42788883033283" lon="10.702093294617534"><ele>70.0</ele><time>2026-05-01T08:49:56Z</time></trkpt><trkpt lat="45.42797417208035" lon="10.702137009783893"><ele>70.0</ele><time>2026-05-01T08:49:57Z</time></trkpt><trkpt lat="45.42805239983391" lon="10.70218117089761"><ele>70.0</ele><time>2026-05-01T08:49:58Z</time></trkpt><trkpt lat="45.42815041909716" lon="10.70225417808871"><ele>70.0</ele><time>2026-05-01T08:49:59Z</time></trkpt><trkpt lat="45.42825081901949" lon="10.702285349268806"><ele>69.8</ele><time>2026-05-01T08:50:00Z</time></trkpt><trkpt lat="45.428365111566464" lon="10.702289244814926"><ele>69.6</ele><time>2026-05-01T08:50:01Z</time></trkpt><trkpt lat="45.42846460645622" lon="10.70233644731484"><ele>69.4</ele><time>2026-05-01T08:50:02Z</time></trkpt><trkpt lat="45.42857321590947" lon="10.702383448997194"><ele>69.2</ele><time>2026-05-01T08:50:03Z</time></trkpt><trkpt lat="45.428670471661135" lon="10.70241898052815"><ele>69.0</ele><time>2026-05-01T08:50:04Z</time></trkpt><trkpt lat="45.42875903176915" lon="10.702448759602639"><ele>69.16666666666667</ele><time>2026-05-01T08:50:05Z</time></trkpt><trkpt lat="45.428843957652454" lon="10.70247504149523"><ele>69.33333333333333</ele><time>2026-05-01T08:50:06Z</time></trkpt><trkpt lat="45.42892159945038" lon="10.702499419370854"><ele>69.5</ele><time>2026-05-01T08:50:07Z</time></trkpt><trkpt lat="45.428996530162394" lon="10.702525318242287"><ele>69.66666666666666</ele><time>2026-05-01T08:50:08Z</time></trkpt><trkpt lat="45.42908064491921" lon="10.702549662349552"><ele>69.83333333333333</ele><time>2026-05-01T08:50:09Z</time></trkpt><trkpt lat="45.4291655655666" lon="10.702568560147583"><ele>70.0</ele><time>2026-05-01T08:50:10Z</time></trkpt><trkpt lat="45.42924505420445" lon="10.702608332406717"><ele>70.0</ele><time>2026-05-01T08:50:11Z</time></trkpt><trkpt lat="45.429329607543394" lon="10.702658721897887"><ele>70.0</ele><time>2026-05-01T08:50:12Z</time></trkpt><trkpt lat="45.42941461481008" lon="10.702710202198803"><ele>70.0</ele><time>2026-05-01T08:50:13Z</time></trkpt><trkpt lat="45.42949908400063" lon="10.702756215252865"><ele>70.0</ele><time>2026-05-01T08:50:14Z</time></trkpt><trkpt lat="45.42961712068951" lon="10.702768621759601"><ele>70.0</ele><time>2026-05-01T08:50:15Z</time></trkpt><trkpt lat="45.42977639222741" lon="10.702818770792758"><ele>69.5</ele><time>2026-05-01T08:50:16Z</time></trkpt><trkpt lat="45.42989893525726" lon="10.702847239925134"><ele>69.0</ele><time>2026-05-01T08:50:17Z</time></trkpt><trkpt lat="45.43002602702532" lon="10.702867062774668"><ele>68.5</ele><time>2026-05-01T08:50:18Z</time></trkpt><trkpt lat="45.430151395382524" lon="10.702872505342809"><ele>68.0</ele><time>2026-05-01T08:50:19Z</time></trkpt><trkpt lat="45.430281016628214" lon="10.702868723169717"><ele>68.0</ele><time>2026-05-01T08:50:20Z</time></trkpt><trkpt lat="45.430407409654414" lon="10.702858785502176"><ele>68.0</ele><time>2026-05-01T08:50:21Z</time></trkpt><trkpt lat="45.43052067075223" lon="10.702859322355248"><ele>68.0</ele><time>2026-05-01T08:50:22Z</time></trkpt><trkpt lat="45.43063039467322" lon="10.702867857125206"><ele>68.0</ele><time>2026-05-01T08:50:23Z</time></trkpt><trkpt lat="45.43073523127964" lon="10.702886556531194"><ele>67.83333333333334</ele><time>2026-05-01T08:50:24Z</time></trkpt><trkpt lat="45.43082858661971" lon="10.702898153138447"><ele>67.66666666666667</ele><time>2026-05-01T08:50:25Z</time></trkpt><trkpt lat="45.430917903747535" lon="10.702908898869376"><ele>67.5</ele><time>2026-05-01T08:50:26Z</time></trkpt><trkpt lat="45.43099966381608" lon="10.70291049240006"><ele>67.33333333333333</ele><time>2026-05-01T08:50:27.001Z</time></trkpt><trkpt lat="45.43107271157183" lon="10.702910292242148"><ele>67.16666666666666</ele><time>2026-05-01T08:50:28.001Z</time></trkpt><trkpt lat="45.431138198924266" lon="10.702911599906137"><ele>67.0</ele><time>2026-05-01T08:50:30.001Z</time></trkpt><trkpt lat="45.4312360987432" lon="10.702902293698525"><ele>67.0</ele><time>2026-05-01T08:50:33.001Z</time></trkpt><trkpt lat="45.43130299103586" lon="10.702896675563977"><ele>67.0</ele><time>2026-05-01T08:50:35.001Z</time></trkpt><trkpt lat="45.43138050178209" lon="10.702889381843905"><ele>67.0</ele><time>2026-05-01T08:50:37.001Z</time></trkpt><trkpt lat="45.43148171977805" lon="10.70287838597018"><ele>67.0</ele><time>2026-05-01T08:50:39.001Z</time></trkpt><trkpt lat="45.43153501097188" lon="10.702926593832432"><ele>67.0</ele><time>2026-05-01T08:50:40.001Z</time></trkpt><trkpt lat="45.43159815768853" lon="10.702851858475752"><ele>67.0</ele><time>2026-05-01T08:50:41.001Z</time></trkpt><trkpt lat="45.43169078740036" lon="10.702749598576936"><ele>67.33333333333333</ele><time>2026-05-01T08:50:43.001Z</time></trkpt><trkpt lat="45.43172475822075" lon="10.702656860332029"><ele>67.66666666666666</ele><time>2026-05-01T08:50:44.001Z</time></trkpt><trkpt lat="45.43175210585095" lon="10.702557453317207"><ele>68.0</ele><time>2026-05-01T08:50:45.001Z</time></trkpt><trkpt lat="45.43176099502877" lon="10.702437027083677"><ele>68.33333333333333</ele><time>2026-05-01T08:50:46.001Z</time></trkpt><trkpt lat="45.43176180618608" lon="10.70230079509409"><ele>68.66666666666667</ele><time>2026-05-01T08:50:47.001Z</time></trkpt><trkpt lat="45.43176570525261" lon="10.702173615950882"><ele>69.0</ele><time>2026-05-01T08:50:48.001Z</time></trkpt><trkpt lat="45.43175179648685" lon="10.702048248909056"><ele>68.8</ele><time>2026-05-01T08:50:49.001Z</time></trkpt><trkpt lat="45.43175972048619" lon="10.70191202792142"><ele>68.60000000000001</ele><time>2026-05-01T08:50:50.001Z</time></trkpt><trkpt lat="45.43175615412737" lon="10.701771389185673"><ele>68.4</ele><time>2026-05-01T08:50:51.001Z</time></trkpt><trkpt lat="45.43173506644267" lon="10.701630192564796"><ele>68.2</ele><time>2026-05-01T08:50:52.001Z</time></trkpt><trkpt lat="45.431783623385016" lon="10.701505319426348"><ele>68.0</ele><time>2026-05-01T08:50:53.001Z</time></trkpt><trkpt lat="45.431833999113906" lon="10.701378543441429"><ele>68.0</ele><time>2026-05-01T08:50:54.001Z</time></trkpt><trkpt lat="45.43191081474188" lon="10.701281133625402"><ele>68.0</ele><time>2026-05-01T08:50:55.001Z</time></trkpt><trkpt lat="45.432014190742116" lon="10.701217987647755"><ele>68.0</ele><time>2026-05-01T08:50:56.001Z</time></trkpt><trkpt lat="45.43211065727312" lon="10.701148680483717"><ele>68.0</ele><time>2026-05-01T08:50:57.001Z</time></trkpt><trkpt lat="45.43225279838528" lon="10.701183905181296"><ele>67.75</ele><time>2026-05-01T08:50:58.001Z</time></trkpt><trkpt lat="45.43237931889163" lon="10.701170706084616"><ele>67.5</ele><time>2026-05-01T08:50:59.001Z</time></trkpt><trkpt lat="45.432505524130214" lon="10.70114661095324"><ele>67.25</ele><time>2026-05-01T08:51:00.001Z</time></trkpt><trkpt lat="45.43263216879191" lon="10.701121839923857"><ele>67.0</ele><time>2026-05-01T08:51:01.001Z</time></trkpt><trkpt lat="45.43276016379325" lon="10.701094325426013"><ele>65.75</ele><time>2026-05-01T08:51:02.001Z</time></trkpt><trkpt lat="45.43288797329104" lon="10.701061510768088"><ele>64.5</ele><time>2026-05-01T08:51:03.001Z</time></trkpt><trkpt lat="45.43301508744401" lon="10.701026463555118"><ele>63.25</ele><time>2026-05-01T08:51:04.001Z</time></trkpt><trkpt lat="45.43314606986616" lon="10.700989887576768"><ele>62.0</ele><time>2026-05-01T08:51:05.001Z</time></trkpt><trkpt lat="45.43328327790051" lon="10.700947770642495"><ele>62.0</ele><time>2026-05-01T08:51:06.001Z</time></trkpt><trkpt lat="45.4334201899023" lon="10.700903855801894"><ele>62.0</ele><time>2026-05-01T08:51:07.001Z</time></trkpt><trkpt lat="45.43356069000315" lon="10.700861501211719"><ele>62.0</ele><time>2026-05-01T08:51:08.001Z</time></trkpt><trkpt lat="45.43370219601609" lon="10.700824267923199"><ele>62.0</ele><time>2026-05-01T08:51:09.001Z</time></trkpt><trkpt lat="45.43385075090511" lon="10.700783043925838"><ele>63.333333333333336</ele><time>2026-05-01T08:51:09.997Z</time></trkpt><trkpt lat="45.433997132394744" lon="10.700738573815954"><ele>64.66666666666667</ele><time>2026-05-01T08:51:10.997Z</time></trkpt><trkpt lat="45.43414659577792" lon="10.70069128205207"><ele>66.0</ele><time>2026-05-01T08:51:11.997Z</time></trkpt><trkpt lat="45.434300488285835" lon="10.700644264641925"><ele>66.0</ele><time>2026-05-01T08:51:12.997Z</time></trkpt><trkpt lat="45.434460338689746" lon="10.700591925551459"><ele>66.0</ele><time>2026-05-01T08:51:13.997Z</time></trkpt><trkpt lat="45.43462183336136" lon="10.70054022221935"><ele>66.0</ele><time>2026-05-01T08:51:14.997Z</time></trkpt><trkpt lat="45.43477742016711" lon="10.700484889486452"><ele>66.33333333333333</ele><time>2026-05-01T08:51:15.997Z</time></trkpt><trkpt lat="45.43492825038298" lon="10.700430200761474"><ele>66.66666666666666</ele><time>2026-05-01T08:51:16.997Z</time></trkpt><trkpt lat="45.43507224132329" lon="10.700360095140883"><ele>67.0</ele><time>2026-05-01T08:51:17.997Z</time></trkpt><trkpt lat="45.43520928915811" lon="10.700284105200272"><ele>66.75</ele><time>2026-05-01T08:51:18.997Z</time></trkpt><trkpt lat="45.43533441488431" lon="10.700213767478147"><ele>66.5</ele><time>2026-05-01T08:51:19.997Z</time></trkpt><trkpt lat="45.43546325608082" lon="10.700132848427705"><ele>66.25</ele><time>2026-05-01T08:51:20.998Z</time></trkpt><trkpt lat="45.43558991339792" lon="10.700044264725616"><ele>66.0</ele><time>2026-05-01T08:51:21.998Z</time></trkpt><trkpt lat="45.435719290281675" lon="10.69996259610259"><ele>66.5</ele><time>2026-05-01T08:51:22.998Z</time></trkpt><trkpt lat="45.43584025236785" lon="10.699862496455143"><ele>67.0</ele><time>2026-05-01T08:51:23.998Z</time></trkpt><trkpt lat="45.43595632000437" lon="10.699765043120875"><ele>67.5</ele><time>2026-05-01T08:51:24.998Z</time></trkpt><trkpt lat="45.436063352396815" lon="10.699680317076249"><ele>68.0</ele><time>2026-05-01T08:51:25.998Z</time></trkpt><trkpt lat="45.436174509955926" lon="10.699599155359374"><ele>68.0</ele><time>2026-05-01T08:51:26.998Z</time></trkpt><trkpt lat="45.43629025763718" lon="10.699519002532204"><ele>68.0</ele><time>2026-05-01T08:51:27.998Z</time></trkpt><trkpt lat="45.43640572447873" lon="10.699434895972656"><ele>68.0</ele><time>2026-05-01T08:51:28.998Z</time></trkpt><trkpt lat="45.436523047167285" lon="10.699363397910652"><ele>68.0</ele><time>2026-05-01T08:51:29.998Z</time></trkpt><trkpt lat="45.436636077053784" lon="10.69930178354529"><ele>67.75</ele><time>2026-05-01T08:51:30.998Z</time></trkpt><trkpt lat="45.4367571096946" lon="10.699257892765367"><ele>67.5</ele><time>2026-05-01T08:51:31.998Z</time></trkpt><trkpt lat="45.436879072209855" lon="10.699248613050628"><ele>67.25</ele><time>2026-05-01T08:51:32.998Z</time></trkpt><trkpt lat="45.4369981544178" lon="10.699256890572201"><ele>67.0</ele><time>2026-05-01T08:51:33.999Z</time></trkpt><trkpt lat="45.4371017529839" lon="10.699257710094127"><ele>66.6</ele><time>2026-05-01T08:51:34.999Z</time></trkpt><trkpt lat="45.43720112542094" lon="10.699245753703254"><ele>66.2</ele><time>2026-05-01T08:51:35.999Z</time></trkpt><trkpt lat="45.43729909897903" lon="10.699232571800092"><ele>65.8</ele><time>2026-05-01T08:51:36.999Z</time></trkpt><trkpt lat="45.43739423176642" lon="10.699223061213852"><ele>65.4</ele><time>2026-05-01T08:51:37.999Z</time></trkpt><trkpt lat="45.43748947120708" lon="10.699215508707661"><ele>65.0</ele><time>2026-05-01T08:51:38.999Z</time></trkpt><trkpt lat="45.437589345969556" lon="10.699204425185439"><ele>65.0</ele><time>2026-05-01T08:51:39.999Z</time></trkpt><trkpt lat="45.43769110564336" lon="10.699194529281046"><ele>65.0</ele><time>2026-05-01T08:51:40.999Z</time></trkpt><trkpt lat="45.437777504172146" lon="10.699183776873584"><ele>65.0</ele><time>2026-05-01T08:51:41.999Z</time></trkpt><trkpt lat="45.43785487473411" lon="10.69917737569945"><ele>65.0</ele><time>2026-05-01T08:51:42.999Z</time></trkpt><trkpt lat="45.43792195463366" lon="10.699171332486596"><ele>65.0</ele><time>2026-05-01T08:51:43.999Z</time></trkpt><trkpt lat="45.43802778216539" lon="10.699159946189873"><ele>65.0</ele><time>2026-05-01T08:51:45.999Z</time></trkpt><trkpt lat="45.438106427888485" lon="10.699153346820776"><ele>65.16666666666667</ele><time>2026-05-01T08:51:47.999Z</time></trkpt><trkpt lat="45.4381963855567" lon="10.699148703239045"><ele>65.33333333333334</ele><time>2026-05-01T08:51:50.999Z</time></trkpt><trkpt lat="45.438287049408075" lon="10.699141504696453"><ele>65.5</ele><time>2026-05-01T08:51:54Z</time></trkpt><trkpt lat="45.438365778266984" lon="10.699132030195019"><ele>65.66666666666667</ele><time>2026-05-01T08:51:56Z</time></trkpt><trkpt lat="45.43843596809923" lon="10.69912667598147"><ele>65.83333333333333</ele><time>2026-05-01T08:51:58Z</time></trkpt><trkpt lat="45.43852225319854" lon="10.699119815788976"><ele>66.0</ele><time>2026-05-01T08:52:00Z</time></trkpt><trkpt lat="45.43862107471018" lon="10.699111357449672"><ele>66.0</ele><time>2026-05-01T08:52:02Z</time></trkpt><trkpt lat="45.4387195194296" lon="10.699101558042688"><ele>66.0</ele><time>2026-05-01T08:52:04Z</time></trkpt><trkpt lat="45.438812461044186" lon="10.699093473807455"><ele>66.0</ele><time>2026-05-01T08:52:06Z</time></trkpt><trkpt lat="45.43889905615879" lon="10.699086778701442"><ele>66.0</ele><time>2026-05-01T08:52:08Z</time></trkpt><trkpt lat="45.438972926781084" lon="10.699078316211821"><ele>66.0</ele><time>2026-05-01T08:52:10Z</time></trkpt><trkpt lat="45.439073452170796" lon="10.699063331495992"><ele>66.0</ele><time>2026-05-01T08:52:12Z</time></trkpt><trkpt lat="45.43916640609958" lon="10.699054436958786"><ele>66.0</ele><time>2026-05-01T08:52:14Z</time></trkpt><trkpt lat="45.43925659213153" lon="10.699035068648705"><ele>66.0</ele><time>2026-05-01T08:52:16Z</time></trkpt><trkpt lat="45.43934310239319" lon="10.699024977061184"><ele>66.0</ele><time>2026-05-01T08:52:18Z</time></trkpt><trkpt lat="45.43943629781909" lon="10.699008372116868"><ele>66.0</ele><time>2026-05-01T08:52:20Z</time></trkpt><trkpt lat="45.439527503551204" lon="10.699000521218432"><ele>65.8</ele><time>2026-05-01T08:52:22Z</time></trkpt><trkpt lat="45.439653268465754" lon="10.698985100557367"><ele>65.6</ele><time>2026-05-01T08:52:24Z</time></trkpt><trkpt lat="45.43971791248813" lon="10.699007843500933"><ele>65.4</ele><time>2026-05-01T08:52:25Z</time></trkpt><trkpt lat="45.43981068683351" lon="10.69901751249818"><ele>65.2</ele><time>2026-05-01T08:52:27.001Z</time></trkpt><trkpt lat="45.43989841689949" lon="10.699033495831479"><ele>65.0</ele><time>2026-05-01T08:52:35.001Z</time></trkpt><trkpt lat="45.439982222684655" lon="10.69907745274788"><ele>65.0</ele><time>2026-05-01T08:52:37.001Z</time></trkpt><trkpt lat="45.440051049192284" lon="10.699146922766525"><ele>65.0</ele><time>2026-05-01T08:52:40.001Z</time></trkpt><trkpt lat="45.44011954364889" lon="10.699227166804794"><ele>65.0</ele><time>2026-05-01T08:52:42.001Z</time></trkpt><trkpt lat="45.44018648931449" lon="10.699295184211813"><ele>65.0</ele><time>2026-05-01T08:52:44.001Z</time></trkpt><trkpt lat="45.44026244765774" lon="10.699314986761316"><ele>65.0</ele><time>2026-05-01T08:52:46.001Z</time></trkpt><trkpt lat="45.44033964844506" lon="10.699288969479433"><ele>65.0</ele><time>2026-05-01T08:52:48.001Z</time></trkpt><trkpt lat="45.44037630002442" lon="10.69920888334597"><ele>65.0</ele><time>2026-05-01T08:52:50.001Z</time></trkpt><trkpt lat="45.44041286539428" lon="10.699019551435406"><ele>65.0</ele><time>2026-05-01T08:52:52.001Z</time></trkpt><trkpt lat="45.44043752207707" lon="10.698902013551493"><ele>65.0</ele><time>2026-05-01T08:52:53.001Z</time></trkpt><trkpt lat="45.44046558762537" lon="10.69878999011775"><ele>65.0</ele><time>2026-05-01T08:52:54.001Z</time></trkpt><trkpt lat="45.44050330734772" lon="10.698693194113032"><ele>65.0</ele><time>2026-05-01T08:52:55.001Z</time></trkpt><trkpt lat="45.440556946525724" lon="10.698588348791061"><ele>65.00000000000001</ele><time>2026-05-01T08:52:56.001Z</time></trkpt><trkpt lat="45.44060894794301" lon="10.69850803713992"><ele>65.0</ele><time>2026-05-01T08:52:57.001Z</time></trkpt><trkpt lat="45.440662190234164" lon="10.698425565111267"><ele>65.0</ele><time>2026-05-01T08:52:58.001Z</time></trkpt><trkpt lat="45.44070438720056" lon="10.69833219883159"><ele>65.0</ele><time>2026-05-01T08:52:59.001Z</time></trkpt><trkpt lat="45.440723152626106" lon="10.69824323568992"><ele>65.0</ele><time>2026-05-01T08:53:00.001Z</time></trkpt><trkpt lat="45.44073116850755" lon="10.698146446771277"><ele>65.00000000000001</ele><time>2026-05-01T08:53:01.001Z</time></trkpt><trkpt lat="45.440728442498106" lon="10.69805125779607"><ele>65.0</ele><time>2026-05-01T08:53:02.001Z</time></trkpt><trkpt lat="45.4407210407257" lon="10.697864379262926"><ele>65.0</ele><time>2026-05-01T08:53:04.001Z</time></trkpt><trkpt lat="45.44072081067294" lon="10.697766323512537"><ele>65.0</ele><time>2026-05-01T08:53:05.002Z</time></trkpt><trkpt lat="45.440722715751704" lon="10.697601924353908"><ele>65.0</ele><time>2026-05-01T08:53:07.002Z</time></trkpt><trkpt lat="45.4407225159918" lon="10.697454796016695"><ele>65.0</ele><time>2026-05-01T08:53:09.002Z</time></trkpt><trkpt lat="45.44072138185179" lon="10.697306119442105"><ele>65.0</ele><time>2026-05-01T08:53:11.002Z</time></trkpt><trkpt lat="45.44071673674456" lon="10.697216045452675"><ele>65.0</ele><time>2026-05-01T08:53:14.002Z</time></trkpt><trkpt lat="45.44071563233186" lon="10.697093127319196"><ele>65.0</ele><time>2026-05-01T08:53:17.998Z</time></trkpt><trkpt lat="45.440697764027824" lon="10.696915248568262"><ele>65.0</ele><time>2026-05-01T08:53:19.998Z</time></trkpt><trkpt lat="45.4406696799419" lon="10.696811424241751"><ele>65.0</ele><time>2026-05-01T08:53:20.998Z</time></trkpt><trkpt lat="45.440628983655316" lon="10.696716634623723"><ele>65.0</ele><time>2026-05-01T08:53:21.998Z</time></trkpt><trkpt lat="45.440562002020044" lon="10.696617638716258"><ele>65.2</ele><time>2026-05-01T08:53:22.998Z</time></trkpt><trkpt lat="45.44048401987065" lon="10.696533382385915"><ele>65.4</ele><time>2026-05-01T08:53:23.998Z</time></trkpt><trkpt lat="45.44040193279623" lon="10.696476026833347"><ele>65.6</ele><time>2026-05-01T08:53:24.998Z</time></trkpt><trkpt lat="45.44031992293872" lon="10.696425076620503"><ele>65.8</ele><time>2026-05-01T08:53:25.998Z</time></trkpt><trkpt lat="45.44024083682934" lon="10.696372936182334"><ele>66.0</ele><time>2026-05-01T08:53:26.998Z</time></trkpt><trkpt lat="45.440156770815946" lon="10.696320853167546"><ele>66.16666666666667</ele><time>2026-05-01T08:53:27.998Z</time></trkpt><trkpt lat="45.440079640854776" lon="10.696268277008476"><ele>66.33333333333333</ele><time>2026-05-01T08:53:28.998Z</time></trkpt><trkpt lat="45.440001372244424" lon="10.696218225186335"><ele>66.5</ele><time>2026-05-01T08:53:29.999Z</time></trkpt><trkpt lat="45.43992655730757" lon="10.696170417349823"><ele>66.66666666666666</ele><time>2026-05-01T08:53:30.999Z</time></trkpt><trkpt lat="45.439862296817054" lon="10.696121723086891"><ele>66.83333333333333</ele><time>2026-05-01T08:53:31.999Z</time></trkpt><trkpt lat="45.439786873401566" lon="10.69608104637544"><ele>67.0</ele><time>2026-05-01T08:53:32.999Z</time></trkpt><trkpt lat="45.43972132347742" lon="10.696041589825123"><ele>67.0</ele><time>2026-05-01T08:53:33.999Z</time></trkpt><trkpt lat="45.43965678593244" lon="10.696000847804877"><ele>67.0</ele><time>2026-05-01T08:53:34.999Z</time></trkpt><trkpt lat="45.439595312426995" lon="10.69594522652773"><ele>67.0</ele><time>2026-05-01T08:53:35.999Z</time></trkpt><trkpt lat="45.43952852370604" lon="10.695883555118016"><ele>67.0</ele><time>2026-05-01T08:53:36.999Z</time></trkpt><trkpt lat="45.43947092452058" lon="10.695805099942373"><ele>67.0</ele><time>2026-05-01T08:53:37.999Z</time></trkpt><trkpt lat="45.43943030211308" lon="10.695719794983988"><ele>67.0</ele><time>2026-05-01T08:53:38.999Z</time></trkpt><trkpt lat="45.43940901715372" lon="10.695629849421588"><ele>67.0</ele><time>2026-05-01T08:53:39.999Z</time></trkpt><trkpt lat="45.43941516462593" lon="10.695535570928222"><ele>67.0</ele><time>2026-05-01T08:53:40.999Z</time></trkpt><trkpt lat="45.43943011629287" lon="10.695358388567493"><ele>67.0</ele><time>2026-05-01T08:53:42.999Z</time></trkpt><trkpt lat="45.43945678673497" lon="10.695224449439273"><ele>67.0</ele><time>2026-05-01T08:53:44.999Z</time></trkpt><trkpt lat="45.43948077719944" lon="10.695136456434346"><ele>67.0</ele><time>2026-05-01T08:53:47Z</time></trkpt><trkpt lat="45.439495677464784" lon="10.695047714759296"><ele>67.0</ele><time>2026-05-01T08:53:49Z</time></trkpt><trkpt lat="45.43951144626562" lon="10.69495283091322"><ele>67.0</ele><time>2026-05-01T08:53:50Z</time></trkpt><trkpt lat="45.43954796477354" lon="10.694854675660771"><ele>67.28571428571429</ele><time>2026-05-01T08:53:51Z</time></trkpt><trkpt lat="45.43957061705455" lon="10.694757197657689"><ele>67.57142857142857</ele><time>2026-05-01T08:53:52Z</time></trkpt><trkpt lat="45.43957674203017" lon="10.694657119139135"><ele>67.85714285714286</ele><time>2026-05-01T08:53:53Z</time></trkpt><trkpt lat="45.43961424856617" lon="10.694569441238079"><ele>68.14285714285714</ele><time>2026-05-01T08:53:54Z</time></trkpt><trkpt lat="45.4396373430882" lon="10.69447006042158"><ele>68.42857142857143</ele><time>2026-05-01T08:53:55Z</time></trkpt><trkpt lat="45.439644646228814" lon="10.694368812342944"><ele>68.71428571428572</ele><time>2026-05-01T08:53:56Z</time></trkpt><trkpt lat="45.43968141234318" lon="10.694284269695245"><ele>69.0</ele><time>2026-05-01T08:53:57Z</time></trkpt><trkpt lat="45.43971275488136" lon="10.694140291063576"><ele>69.0</ele><time>2026-05-01T08:53:59Z</time></trkpt><trkpt lat="45.439738746854864" lon="10.69404805352327"><ele>69.0</ele><time>2026-05-01T08:54:02Z</time></trkpt><trkpt lat="45.43976079751995" lon="10.693952736953307"><ele>69.0</ele><time>2026-05-01T08:54:08Z</time></trkpt><trkpt lat="45.43979031803091" lon="10.693840751439305"><ele>69.0</ele><time>2026-05-01T08:54:12.001Z</time></trkpt><trkpt lat="45.43980673976522" lon="10.693726280845674"><ele>69.0</ele><time>2026-05-01T08:54:16.001Z</time></trkpt><trkpt lat="45.43981027638305" lon="10.693633451661592"><ele>69.0</ele><time>2026-05-01T08:54:18.001Z</time></trkpt><trkpt lat="45.43979887492965" lon="10.693543885682471"><ele>69.0</ele><time>2026-05-01T08:54:20.001Z</time></trkpt><trkpt lat="45.439757797118816" lon="10.693419020047179"><ele>68.85714285714286</ele><time>2026-05-01T08:54:23.001Z</time></trkpt><trkpt lat="45.43971123446217" lon="10.69331888010893"><ele>68.71428571428572</ele><time>2026-05-01T08:54:26.001Z</time></trkpt><trkpt lat="45.439668133229794" lon="10.69325139112844"><ele>68.57142857142857</ele><time>2026-05-01T08:54:28.001Z</time></trkpt><trkpt lat="45.43961784781383" lon="10.693191684144498"><ele>68.42857142857143</ele><time>2026-05-01T08:54:30.001Z</time></trkpt><trkpt lat="45.43953291010713" lon="10.69312293007719"><ele>68.28571428571428</ele><time>2026-05-01T08:54:33.001Z</time></trkpt><trkpt lat="45.439481798419514" lon="10.693060881846733"><ele>68.14285714285714</ele><time>2026-05-01T08:54:35.001Z</time></trkpt><trkpt lat="45.43942015610074" lon="10.693015598633737"><ele>68.0</ele><time>2026-05-01T08:54:38.001Z</time></trkpt><trkpt lat="45.43936288102273" lon="10.692973915428807"><ele>68.33333333333334</ele><time>2026-05-01T08:54:42.001Z</time></trkpt><trkpt lat="45.439292098505824" lon="10.69293375797763"><ele>68.66666666666667</ele><time>2026-05-01T08:54:55.002Z</time></trkpt><trkpt lat="45.43924561042421" lon="10.692861165021792"><ele>69.0</ele><time>2026-05-01T08:54:59.002Z</time></trkpt><trkpt lat="45.43922859753153" lon="10.692729079410496"><ele>69.33333333333333</ele><time>2026-05-01T08:55:03.002Z</time></trkpt><trkpt lat="45.43924565660517" lon="10.692598337418604"><ele>69.66666666666666</ele><time>2026-05-01T08:55:05.002Z</time></trkpt><trkpt lat="45.439283081703174" lon="10.692452956374764"><ele>70.0</ele><time>2026-05-01T08:55:07.002Z</time></trkpt><trkpt lat="45.439322319567246" lon="10.692290766003845"><ele>70.0</ele><time>2026-05-01T08:55:09.002Z</time></trkpt><trkpt lat="45.43934758990828" lon="10.69220208439138"><ele>70.0</ele><time>2026-05-01T08:55:10.002Z</time></trkpt><trkpt lat="45.43940068356855" lon="10.692033625181484"><ele>70.0</ele><time>2026-05-01T08:55:12.002Z</time></trkpt><trkpt lat="45.4394356782231" lon="10.691938758648648"><ele>70.0</ele><time>2026-05-01T08:55:13.002Z</time></trkpt><trkpt lat="45.439480067693246" lon="10.691847688752802"><ele>70.0</ele><time>2026-05-01T08:55:14.002Z</time></trkpt><trkpt lat="45.43951594155829" lon="10.691746956086318"><ele>70.0</ele><time>2026-05-01T08:55:15.002Z</time></trkpt><trkpt lat="45.43955493953295" lon="10.691645041713157"><ele>69.83333333333333</ele><time>2026-05-01T08:55:16.003Z</time></trkpt><trkpt lat="45.439592257067794" lon="10.691544189425132"><ele>69.66666666666666</ele><time>2026-05-01T08:55:17.003Z</time></trkpt><trkpt lat="45.439636289045914" lon="10.691444249966771"><ele>69.5</ele><time>2026-05-01T08:55:18.003Z</time></trkpt><trkpt lat="45.43967325614334" lon="10.69135167667118"><ele>69.33333333333333</ele><time>2026-05-01T08:55:19.003Z</time></trkpt><trkpt lat="45.439712545406564" lon="10.691255999409373"><ele>69.16666666666667</ele><time>2026-05-01T08:55:20.003Z</time></trkpt><trkpt lat="45.43974858161302" lon="10.691165987913461"><ele>69.0</ele><time>2026-05-01T08:55:21.003Z</time></trkpt><trkpt lat="45.43979071737329" lon="10.69107438220916"><ele>68.2</ele><time>2026-05-01T08:55:21.999Z</time></trkpt><trkpt lat="45.4398342460373" lon="10.69098844681288"><ele>67.4</ele><time>2026-05-01T08:55:22.999Z</time></trkpt><trkpt lat="45.43987565233775" lon="10.69091358839088"><ele>66.6</ele><time>2026-05-01T08:55:23.999Z</time></trkpt><trkpt lat="45.439957871432" lon="10.690795927511921"><ele>65.8</ele><time>2026-05-01T08:55:25.999Z</time></trkpt><trkpt lat="45.44002183053865" lon="10.690655681361518"><ele>65.0</ele><time>2026-05-01T08:55:27.999Z</time></trkpt><trkpt lat="45.440052151771575" lon="10.690556667549737"><ele>65.0</ele><time>2026-05-01T08:55:28.999Z</time></trkpt><trkpt lat="45.44010032453497" lon="10.69046175187804"><ele>65.0</ele><time>2026-05-01T08:55:29.999Z</time></trkpt><trkpt lat="45.44009790834802" lon="10.690312742111322"><ele>65.0</ele><time>2026-05-01T08:55:30.999Z</time></trkpt><trkpt lat="45.44012430795631" lon="10.690185809367325"><ele>65.0</ele><time>2026-05-01T08:55:32Z</time></trkpt><trkpt lat="45.44014458079653" lon="10.690046471029147"><ele>65.0</ele><time>2026-05-01T08:55:33Z</time></trkpt><trkpt lat="45.44016897448312" lon="10.6898835589999"><ele>65.5</ele><time>2026-05-01T08:55:34Z</time></trkpt><trkpt lat="45.44018874305277" lon="10.689702212776172"><ele>66.0</ele><time>2026-05-01T08:55:35Z</time></trkpt><trkpt lat="45.4402019425799" lon="10.689527594130539"><ele>66.5</ele><time>2026-05-01T08:55:36Z</time></trkpt><trkpt lat="45.44019880004168" lon="10.68937455557636"><ele>67.0</ele><time>2026-05-01T08:55:37Z</time></trkpt><trkpt lat="45.4401925245506" lon="10.689219279981495"><ele>67.8</ele><time>2026-05-01T08:55:38Z</time></trkpt><trkpt lat="45.440174765815705" lon="10.689081962037365"><ele>68.6</ele><time>2026-05-01T08:55:39Z</time></trkpt><trkpt lat="45.4401544889256" lon="10.688954592290928"><ele>69.39999999999999</ele><time>2026-05-01T08:55:40Z</time></trkpt><trkpt lat="45.44013204063017" lon="10.688827508734116"><ele>70.2</ele><time>2026-05-01T08:55:41Z</time></trkpt><trkpt lat="45.44011084963633" lon="10.688708828433892"><ele>71.0</ele><time>2026-05-01T08:55:42Z</time></trkpt><trkpt lat="45.44010350963715" lon="10.688587681192711"><ele>71.33333333333334</ele><time>2026-05-01T08:55:43Z</time></trkpt><trkpt lat="45.44007331768653" lon="10.688481540326608"><ele>71.66666666666667</ele><time>2026-05-01T08:55:44Z</time></trkpt><trkpt lat="45.44005727982255" lon="10.68835683311796"><ele>72.0</ele><time>2026-05-01T08:55:45Z</time></trkpt><trkpt lat="45.440036865619334" lon="10.688236000150686"><ele>72.33333333333333</ele><time>2026-05-01T08:55:46Z</time></trkpt><trkpt lat="45.44001497120429" lon="10.688111245684793"><ele>72.66666666666666</ele><time>2026-05-01T08:55:47Z</time></trkpt><trkpt lat="45.439998141457046" lon="10.688002043690533"><ele>73.0</ele><time>2026-05-01T08:55:48Z</time></trkpt><trkpt lat="45.43998470886423" lon="10.68791397974529"><ele>73.0</ele><time>2026-05-01T08:55:49Z</time></trkpt><trkpt lat="45.439965538916596" lon="10.687810333261083"><ele>73.0</ele><time>2026-05-01T08:55:50Z</time></trkpt><trkpt lat="45.439944864911304" lon="10.68770370535147"><ele>73.0</ele><time>2026-05-01T08:55:51Z</time></trkpt><trkpt lat="45.439931221006916" lon="10.68759350215341"><ele>73.0</ele><time>2026-05-01T08:55:52Z</time></trkpt><trkpt lat="45.43991425144021" lon="10.687480870438806"><ele>73.0</ele><time>2026-05-01T08:55:53Z</time></trkpt><trkpt lat="45.4399014207446" lon="10.687374797163258"><ele>73.0</ele><time>2026-05-01T08:55:54.001Z</time></trkpt><trkpt lat="45.439888542564304" lon="10.687268510146033"><ele>73.0</ele><time>2026-05-01T08:55:55.001Z</time></trkpt><trkpt lat="45.439874543488784" lon="10.687150061115123"><ele>73.0</ele><time>2026-05-01T08:55:56.001Z</time></trkpt><trkpt lat="45.43986035462855" lon="10.687017824386295"><ele>73.0</ele><time>2026-05-01T08:55:57.001Z</time></trkpt><trkpt lat="45.4398484446842" lon="10.686921995664848"><ele>73.0</ele><time>2026-05-01T08:55:58.001Z</time></trkpt><trkpt lat="45.43982992249214" lon="10.686812192772711"><ele>73.0</ele><time>2026-05-01T08:56:01.001Z</time></trkpt><trkpt lat="45.43978946583891" lon="10.68667609860375"><ele>73.0</ele><time>2026-05-01T08:56:03.001Z</time></trkpt><trkpt lat="45.43969734629261" lon="10.686650859715334"><ele>73.0</ele><time>2026-05-01T08:56:05.001Z</time></trkpt><trkpt lat="45.439649835202914" lon="10.68678468699534"><ele>73.0</ele><time>2026-05-01T08:56:07.001Z</time></trkpt><trkpt lat="45.439689219945116" lon="10.686899321805443"><ele>73.0</ele><time>2026-05-01T08:56:09.001Z</time></trkpt><trkpt lat="45.43975414000036" lon="10.686943386083458"><ele>73.0</ele><time>2026-05-01T08:56:13.001Z</time></trkpt><trkpt lat="45.439800336603234" lon="10.687039034844814"><ele>73.0</ele><time>2026-05-01T08:56:17.001Z</time></trkpt><trkpt lat="45.43982620201711" lon="10.687218836978358"><ele>73.0</ele><time>2026-05-01T08:56:19.001Z</time></trkpt><trkpt lat="45.43983784184237" lon="10.68731175020918"><ele>73.0</ele><time>2026-05-01T08:56:20.001Z</time></trkpt><trkpt lat="45.43985255179622" lon="10.687406096812907"><ele>73.0</ele><time>2026-05-01T08:56:21.001Z</time></trkpt><trkpt lat="45.43987359992207" lon="10.687553231086646"><ele>73.0</ele><time>2026-05-01T08:56:23.002Z</time></trkpt><trkpt lat="45.439894905445954" lon="10.687664418987218"><ele>73.0</ele><time>2026-05-01T08:56:25.002Z</time></trkpt><trkpt lat="45.439913550639794" lon="10.687764899763435"><ele>73.0</ele><time>2026-05-01T08:56:28.002Z</time></trkpt><trkpt lat="45.43992995860818" lon="10.687852077633929"><ele>73.0</ele><time>2026-05-01T08:56:32.002Z</time></trkpt><trkpt lat="45.440083402251304" lon="10.687583433474122"><ele>73.0</ele><time>2026-05-01T08:58:45.002Z</time></trkpt><trkpt lat="45.43987603382994" lon="10.687888904494441"><ele>73.0</ele><time>2026-05-01T09:00:49.149Z</time></trkpt><trkpt lat="45.43991325029534" lon="10.687645739706571"><ele>73.0</ele><time>2026-05-01T09:06:26.001Z</time></trkpt><trkpt lat="45.43990229990067" lon="10.687516445079075"><ele>73.0</ele><time>2026-05-01T09:06:27.001Z</time></trkpt><trkpt lat="45.439887615508106" lon="10.687393541680054"><ele>73.0</ele><time>2026-05-01T09:06:28.001Z</time></trkpt><trkpt lat="45.439871046873684" lon="10.687302613483444"><ele>73.0</ele><time>2026-05-01T09:06:29.001Z</time></trkpt><trkpt lat="45.439860979721765" lon="10.687202349089254"><ele>73.0</ele><time>2026-05-01T09:06:31.001Z</time></trkpt><trkpt lat="45.43984281786074" lon="10.68710024373203"><ele>73.0</ele><time>2026-05-01T09:06:33.001Z</time></trkpt><trkpt lat="45.43983519003365" lon="10.686973687500346"><ele>73.0</ele><time>2026-05-01T09:06:35.001Z</time></trkpt><trkpt lat="45.43983288705466" lon="10.686871896419397"><ele>73.0</ele><time>2026-05-01T09:06:38.001Z</time></trkpt><trkpt lat="45.43982652807373" lon="10.686754253921796"><ele>73.0</ele><time>2026-05-01T09:06:41.001Z</time></trkpt><trkpt lat="45.43981475320314" lon="10.68660888756024"><ele>73.0</ele><time>2026-05-01T09:06:43.001Z</time></trkpt><trkpt lat="45.43980686471759" lon="10.686466368574346"><ele>73.6</ele><time>2026-05-01T09:06:45.001Z</time></trkpt><trkpt lat="45.43981566335574" lon="10.686292117729822"><ele>74.19999999999999</ele><time>2026-05-01T09:06:47.001Z</time></trkpt><trkpt lat="45.43984331010402" lon="10.68612869697176"><ele>74.8</ele><time>2026-05-01T09:06:49.001Z</time></trkpt><trkpt lat="45.439877178546936" lon="10.686001022494219"><ele>75.39999999999999</ele><time>2026-05-01T09:06:50.999Z</time></trkpt><trkpt lat="45.43990035564372" lon="10.685884302285476"><ele>76.0</ele><time>2026-05-01T09:06:52.999Z</time></trkpt><trkpt lat="45.43994089400957" lon="10.685775992784428"><ele>76.16666666666666</ele><time>2026-05-01T09:06:53.999Z</time></trkpt><trkpt lat="45.439966513907066" lon="10.685660355883547"><ele>76.33333333333333</ele><time>2026-05-01T09:06:54.999Z</time></trkpt><trkpt lat="45.43999547559304" lon="10.685543553918981"><ele>76.5</ele><time>2026-05-01T09:06:55.999Z</time></trkpt><trkpt lat="45.4400219774055" lon="10.685439144257154"><ele>76.66666666666667</ele><time>2026-05-01T09:06:56.999Z</time></trkpt><trkpt lat="45.4400495099454" lon="10.685341067903884"><ele>76.83333333333334</ele><time>2026-05-01T09:06:57.999Z</time></trkpt><trkpt lat="45.44007349300709" lon="10.68525022566798"><ele>77.0</ele><time>2026-05-01T09:06:58.999Z</time></trkpt><trkpt lat="45.44010659310448" lon="10.685131522275515"><ele>77.0</ele><time>2026-05-01T09:06:59.999Z</time></trkpt><trkpt lat="45.44013479581165" lon="10.685009119184304"><ele>77.0</ele><time>2026-05-01T09:07:00.999Z</time></trkpt><trkpt lat="45.44016698097269" lon="10.684888335278114"><ele>77.0</ele><time>2026-05-01T09:07:01.999Z</time></trkpt><trkpt lat="45.44019881694383" lon="10.684762164598613"><ele>77.0</ele><time>2026-05-01T09:07:02.999Z</time></trkpt><trkpt lat="45.4402284719899" lon="10.684635623264636"><ele>77.0</ele><time>2026-05-01T09:07:03.999Z</time></trkpt><trkpt lat="45.440258844412064" lon="10.684497595268917"><ele>77.6</ele><time>2026-05-01T09:07:04.999Z</time></trkpt><trkpt lat="45.44029599704285" lon="10.68436205968106"><ele>78.2</ele><time>2026-05-01T09:07:05.999Z</time></trkpt><trkpt lat="45.44033290786321" lon="10.684221227556804"><ele>78.8</ele><time>2026-05-01T09:07:06.999Z</time></trkpt><trkpt lat="45.44036964827484" lon="10.684086384695126"><ele>79.4</ele><time>2026-05-01T09:07:07.999Z</time></trkpt><trkpt lat="45.44040252360289" lon="10.683948779028281"><ele>80.0</ele><time>2026-05-01T09:07:08.999Z</time></trkpt><trkpt lat="45.44043546808498" lon="10.683817424736263"><ele>80.0</ele><time>2026-05-01T09:07:10Z</time></trkpt><trkpt lat="45.44046442113827" lon="10.683696600790624"><ele>80.0</ele><time>2026-05-01T09:07:11Z</time></trkpt><trkpt lat="45.44049311577125" lon="10.68357296306534"><ele>80.0</ele><time>2026-05-01T09:07:12Z</time></trkpt><trkpt lat="45.44052655429666" lon="10.683451987618847"><ele>80.0</ele><time>2026-05-01T09:07:13Z</time></trkpt><trkpt lat="45.44055340290746" lon="10.683346011766714"><ele>80.0</ele><time>2026-05-01T09:07:14Z</time></trkpt><trkpt lat="45.44057758095353" lon="10.683234989433627"><ele>80.0</ele><time>2026-05-01T09:07:15Z</time></trkpt><trkpt lat="45.440602715025214" lon="10.68313631286179"><ele>80.6</ele><time>2026-05-01T09:07:16Z</time></trkpt><trkpt lat="45.440637714239024" lon="10.683004353876438"><ele>81.2</ele><time>2026-05-01T09:07:17Z</time></trkpt><trkpt lat="45.44067825244829" lon="10.682874189850748"><ele>81.80000000000001</ele><time>2026-05-01T09:07:18Z</time></trkpt><trkpt lat="45.4407083126855" lon="10.682759251731222"><ele>82.4</ele><time>2026-05-01T09:07:19Z</time></trkpt><trkpt lat="45.44074429460927" lon="10.682636728260915"><ele>83.0</ele><time>2026-05-01T09:07:20Z</time></trkpt><trkpt lat="45.44077732823984" lon="10.682518136719374"><ele>83.33333333333334</ele><time>2026-05-01T09:07:21Z</time></trkpt><trkpt lat="45.44080297968235" lon="10.682405453687476"><ele>83.66666666666667</ele><time>2026-05-01T09:07:22Z</time></trkpt><trkpt lat="45.44082771928863" lon="10.682306330942632"><ele>84.0</ele><time>2026-05-01T09:07:23Z</time></trkpt><trkpt lat="45.44085755571997" lon="10.68217468829223"><ele>84.33333333333333</ele><time>2026-05-01T09:07:25Z</time></trkpt><trkpt lat="45.44087669183083" lon="10.682085764232303"><ele>84.66666666666666</ele><time>2026-05-01T09:07:27Z</time></trkpt><trkpt lat="45.44091018209691" lon="10.681954933409909"><ele>85.0</ele><time>2026-05-01T09:07:29Z</time></trkpt><trkpt lat="45.44092764735604" lon="10.681868475521409"><ele>85.16666666666666</ele><time>2026-05-01T09:07:30Z</time></trkpt><trkpt lat="45.44095230108278" lon="10.681761227473679"><ele>85.33333333333333</ele><time>2026-05-01T09:07:32Z</time></trkpt><trkpt lat="45.44097936159363" lon="10.681647809702183"><ele>85.5</ele><time>2026-05-01T09:07:34Z</time></trkpt><trkpt lat="45.44100536272308" lon="10.681538314494384"><ele>85.66666666666667</ele><time>2026-05-01T09:07:36Z</time></trkpt><trkpt lat="45.441025143065005" lon="10.681407019941314"><ele>85.83333333333334</ele><time>2026-05-01T09:07:38Z</time></trkpt><trkpt lat="45.44105269956793" lon="10.681256498166997"><ele>86.0</ele><time>2026-05-01T09:07:40Z</time></trkpt><trkpt lat="45.441077800176075" lon="10.681097658124912"><ele>86.0</ele><time>2026-05-01T09:07:42Z</time></trkpt><trkpt lat="45.441091108299986" lon="10.680972548250832"><ele>86.0</ele><time>2026-05-01T09:07:44Z</time></trkpt><trkpt lat="45.441098780999944" lon="10.68083725766888"><ele>86.0</ele><time>2026-05-01T09:07:46Z</time></trkpt><trkpt lat="45.44110281460022" lon="10.680741474253253"><ele>86.0</ele><time>2026-05-01T09:07:47Z</time></trkpt><trkpt lat="45.441108759479604" lon="10.680649911698977"><ele>86.0</ele><time>2026-05-01T09:07:48Z</time></trkpt><trkpt lat="45.4411173108368" lon="10.680540709628765"><ele>86.0</ele><time>2026-05-01T09:07:49Z</time></trkpt><trkpt lat="45.44112380259351" lon="10.68043214341585"><ele>86.0</ele><time>2026-05-01T09:07:50Z</time></trkpt><trkpt lat="45.44113466891688" lon="10.680302896038942"><ele>86.0</ele><time>2026-05-01T09:07:51Z</time></trkpt><trkpt lat="45.44115167582449" lon="10.680158199783387"><ele>86.0</ele><time>2026-05-01T09:07:52Z</time></trkpt><trkpt lat="45.441177469762344" lon="10.680025493014272"><ele>86.0</ele><time>2026-05-01T09:07:53Z</time></trkpt><trkpt lat="45.44120499527425" lon="10.679885940390552"><ele>86.0</ele><time>2026-05-01T09:07:54Z</time></trkpt><trkpt lat="45.44123705286309" lon="10.679747975698247"><ele>85.75</ele><time>2026-05-01T09:07:55Z</time></trkpt><trkpt lat="45.441261325215535" lon="10.679590052325885"><ele>85.5</ele><time>2026-05-01T09:07:56Z</time></trkpt><trkpt lat="45.44129066004946" lon="10.679421759685399"><ele>85.25</ele><time>2026-05-01T09:07:57Z</time></trkpt><trkpt lat="45.4413228825111" lon="10.67924416237691"><ele>85.0</ele><time>2026-05-01T09:07:58Z</time></trkpt><trkpt lat="45.44135547952359" lon="10.67904869562833"><ele>85.0</ele><time>2026-05-01T09:07:59Z</time></trkpt><trkpt lat="45.44139556173719" lon="10.678850206468047"><ele>85.0</ele><time>2026-05-01T09:08:00Z</time></trkpt><trkpt lat="45.44143337386315" lon="10.678657517744455"><ele>85.0</ele><time>2026-05-01T09:08:01Z</time></trkpt><trkpt lat="45.44146325226048" lon="10.678489908663765"><ele>85.0</ele><time>2026-05-01T09:08:02Z</time></trkpt><trkpt lat="45.44148760393602" lon="10.678329301441687"><ele>85.0</ele><time>2026-05-01T09:08:03Z</time></trkpt><trkpt lat="45.441518718613466" lon="10.678156151772384"><ele>85.0</ele><time>2026-05-01T09:08:04Z</time></trkpt><trkpt lat="45.441558049082076" lon="10.677981681993801"><ele>85.0</ele><time>2026-05-01T09:08:05Z</time></trkpt><trkpt lat="45.4416063671375" lon="10.677812969646185"><ele>85.0</ele><time>2026-05-01T09:08:06Z</time></trkpt><trkpt lat="45.44165305884038" lon="10.677647793786585"><ele>85.25</ele><time>2026-05-01T09:08:07Z</time></trkpt><trkpt lat="45.441701337957674" lon="10.677476091929092"><ele>85.5</ele><time>2026-05-01T09:08:08Z</time></trkpt><trkpt lat="45.44174828345925" lon="10.677318452702734"><ele>85.75</ele><time>2026-05-01T09:08:09Z</time></trkpt><trkpt lat="45.44179095801525" lon="10.677173407611761"><ele>86.0</ele><time>2026-05-01T09:08:10Z</time></trkpt><trkpt lat="45.44183516291585" lon="10.67703108460453"><ele>85.4</ele><time>2026-05-01T09:08:11Z</time></trkpt><trkpt lat="45.441875507748875" lon="10.676888356794949"><ele>84.8</ele><time>2026-05-01T09:08:12Z</time></trkpt><trkpt lat="45.44191286202645" lon="10.676746280790741"><ele>84.2</ele><time>2026-05-01T09:08:13Z</time></trkpt><trkpt lat="45.44194325121957" lon="10.676614564021547"><ele>83.60000000000001</ele><time>2026-05-01T09:08:14Z</time></trkpt><trkpt lat="45.44196889591376" lon="10.676496070189899"><ele>83.0</ele><time>2026-05-01T09:08:15Z</time></trkpt><trkpt lat="45.44199978399738" lon="10.676371256174008"><ele>83.0</ele><time>2026-05-01T09:08:16Z</time></trkpt><trkpt lat="45.44201123370582" lon="10.67622997836678"><ele>83.0</ele><time>2026-05-01T09:08:17Z</time></trkpt><trkpt lat="45.44205700513106" lon="10.676082983202823"><ele>83.0</ele><time>2026-05-01T09:08:18Z</time></trkpt><trkpt lat="45.442088363502364" lon="10.675937274052036"><ele>83.0</ele><time>2026-05-01T09:08:19Z</time></trkpt><trkpt lat="45.44217458190112" lon="10.675812281452046"><ele>83.0</ele><time>2026-05-01T09:08:20Z</time></trkpt><trkpt lat="45.44222366794918" lon="10.675667581279749"><ele>82.75</ele><time>2026-05-01T09:08:21Z</time></trkpt><trkpt lat="45.44227634433418" lon="10.675518010553967"><ele>82.5</ele><time>2026-05-01T09:08:22.001Z</time></trkpt><trkpt lat="45.442339460251084" lon="10.675383338998769"><ele>82.25</ele><time>2026-05-01T09:08:23.001Z</time></trkpt><trkpt lat="45.442402897865456" lon="10.675251357947317"><ele>82.0</ele><time>2026-05-01T09:08:24.001Z</time></trkpt><trkpt lat="45.44246700127523" lon="10.67512299689384"><ele>81.75</ele><time>2026-05-01T09:08:25.001Z</time></trkpt><trkpt lat="45.44253102413189" lon="10.674997022778147"><ele>81.5</ele><time>2026-05-01T09:08:26.001Z</time></trkpt><trkpt lat="45.44260259947811" lon="10.6748682161768"><ele>81.25</ele><time>2026-05-01T09:08:27.001Z</time></trkpt><trkpt lat="45.44267204645006" lon="10.674732824217381"><ele>81.0</ele><time>2026-05-01T09:08:28.001Z</time></trkpt><trkpt lat="45.442742712421094" lon="10.674601317309675"><ele>81.0</ele><time>2026-05-01T09:08:29.001Z</time></trkpt><trkpt lat="45.442819509059255" lon="10.674468829736268"><ele>81.0</ele><time>2026-05-01T09:08:30.001Z</time></trkpt><trkpt lat="45.44289882470526" lon="10.674334957812672"><ele>81.0</ele><time>2026-05-01T09:08:31.001Z</time></trkpt><trkpt lat="45.44297616068425" lon="10.674216189862419"><ele>81.0</ele><time>2026-05-01T09:08:32.001Z</time></trkpt><trkpt lat="45.44305159032736" lon="10.67409486546755"><ele>81.25</ele><time>2026-05-01T09:08:33.001Z</time></trkpt><trkpt lat="45.44313796965702" lon="10.673970845114592"><ele>81.5</ele><time>2026-05-01T09:08:34.001Z</time></trkpt><trkpt lat="45.44322384509814" lon="10.673834683705294"><ele>81.75</ele><time>2026-05-01T09:08:35.001Z</time></trkpt><trkpt lat="45.443304211609586" lon="10.67370789072026"><ele>82.0</ele><time>2026-05-01T09:08:36.001Z</time></trkpt><trkpt lat="45.44339135234213" lon="10.673574323623777"><ele>82.0</ele><time>2026-05-01T09:08:37.001Z</time></trkpt><trkpt lat="45.443479414144036" lon="10.673433417237101"><ele>82.0</ele><time>2026-05-01T09:08:38.001Z</time></trkpt><trkpt lat="45.4435617374247" lon="10.67329819598303"><ele>82.0</ele><time>2026-05-01T09:08:39.001Z</time></trkpt><trkpt lat="45.44364443293236" lon="10.67317193587872"><ele>82.0</ele><time>2026-05-01T09:08:40.001Z</time></trkpt><trkpt lat="45.44373506487015" lon="10.673048159108697"><ele>82.0</ele><time>2026-05-01T09:08:41.001Z</time></trkpt><trkpt lat="45.443834086728835" lon="10.672921840310094"><ele>82.0</ele><time>2026-05-01T09:08:42.001Z</time></trkpt><trkpt lat="45.44393637224281" lon="10.672791697224362"><ele>82.0</ele><time>2026-05-01T09:08:43.001Z</time></trkpt><trkpt lat="45.44403729011631" lon="10.67266234951964"><ele>82.0</ele><time>2026-05-01T09:08:44.001Z</time></trkpt><trkpt lat="45.44413666184524" lon="10.672534083842265"><ele>82.75</ele><time>2026-05-01T09:08:45.001Z</time></trkpt><trkpt lat="45.444234598190654" lon="10.672413081793355"><ele>83.5</ele><time>2026-05-01T09:08:46.001Z</time></trkpt><trkpt lat="45.44432900516028" lon="10.672299247438415"><ele>84.25</ele><time>2026-05-01T09:08:47.001Z</time></trkpt><trkpt lat="45.44442186388262" lon="10.672176273451587"><ele>85.0</ele><time>2026-05-01T09:08:48.001Z</time></trkpt><trkpt lat="45.444520665580875" lon="10.672047061544918"><ele>84.5</ele><time>2026-05-01T09:08:49.001Z</time></trkpt><trkpt lat="45.444625643798396" lon="10.671912653219783"><ele>84.0</ele><time>2026-05-01T09:08:50.001Z</time></trkpt><trkpt lat="45.44473234151171" lon="10.67178040531456"><ele>83.5</ele><time>2026-05-01T09:08:51.001Z</time></trkpt><trkpt lat="45.44484070468483" lon="10.67164141157755"><ele>83.0</ele><time>2026-05-01T09:08:52.001Z</time></trkpt><trkpt lat="45.44494516527018" lon="10.671504825352493"><ele>83.0</ele><time>2026-05-01T09:08:53.001Z</time></trkpt><trkpt lat="45.44504802604026" lon="10.671369228750383"><ele>83.0</ele><time>2026-05-01T09:08:54.001Z</time></trkpt><trkpt lat="45.445148598425234" lon="10.671240992958516"><ele>83.0</ele><time>2026-05-01T09:08:55.001Z</time></trkpt><trkpt lat="45.44524941525027" lon="10.671113842117373"><ele>83.0</ele><time>2026-05-01T09:08:55.998Z</time></trkpt><trkpt lat="45.44534783442166" lon="10.670986893591579"><ele>82.5</ele><time>2026-05-01T09:08:56.998Z</time></trkpt><trkpt lat="45.445446531703794" lon="10.670864109129395"><ele>82.0</ele><time>2026-05-01T09:08:57.998Z</time></trkpt><trkpt lat="45.4455486704386" lon="10.67073823044906"><ele>81.5</ele><time>2026-05-01T09:08:58.998Z</time></trkpt><trkpt lat="45.44563703163116" lon="10.670625656657453"><ele>81.0</ele><time>2026-05-01T09:08:59.998Z</time></trkpt><trkpt lat="45.44571880155802" lon="10.670517608640969"><ele>81.0</ele><time>2026-05-01T09:09:00.998Z</time></trkpt><trkpt lat="45.445802193705696" lon="10.670409983687728"><ele>81.0</ele><time>2026-05-01T09:09:01.998Z</time></trkpt><trkpt lat="45.44588257326945" lon="10.670305476924264"><ele>81.0</ele><time>2026-05-01T09:09:02.998Z</time></trkpt><trkpt lat="45.44595636678814" lon="10.670214777479298"><ele>81.0</ele><time>2026-05-01T09:09:03.998Z</time></trkpt><trkpt lat="45.44603146919185" lon="10.670122150966339"><ele>81.0</ele><time>2026-05-01T09:09:04.998Z</time></trkpt><trkpt lat="45.446111098356255" lon="10.670021765542936"><ele>81.19999999999999</ele><time>2026-05-01T09:09:05.998Z</time></trkpt><trkpt lat="45.44618993869589" lon="10.669921703044166"><ele>81.39999999999999</ele><time>2026-05-01T09:09:06.998Z</time></trkpt><trkpt lat="45.44627689821209" lon="10.669814902069227"><ele>81.6</ele><time>2026-05-01T09:09:07.998Z</time></trkpt><trkpt lat="45.446353473215304" lon="10.669719309042017"><ele>81.8</ele><time>2026-05-01T09:09:08.998Z</time></trkpt><trkpt lat="45.446432915643534" lon="10.669620001884068"><ele>82.0</ele><time>2026-05-01T09:09:09.999Z</time></trkpt><trkpt lat="45.446504242208185" lon="10.669523007777904"><ele>82.33333333333333</ele><time>2026-05-01T09:09:10.999Z</time></trkpt><trkpt lat="45.44656528141491" lon="10.669440869185458"><ele>82.66666666666666</ele><time>2026-05-01T09:09:11.999Z</time></trkpt><trkpt lat="45.446615054691414" lon="10.669372825740611"><ele>83.0</ele><time>2026-05-01T09:09:12.999Z</time></trkpt><trkpt lat="45.44666030081033" lon="10.669307487518713"><ele>83.33333333333333</ele><time>2026-05-01T09:09:15.999Z</time></trkpt><trkpt lat="45.44672362491177" lon="10.669221970169822"><ele>83.66666666666667</ele><time>2026-05-01T09:09:19.999Z</time></trkpt><trkpt lat="45.44677239834107" lon="10.669154833698935"><ele>84.0</ele><time>2026-05-01T09:09:21.999Z</time></trkpt><trkpt lat="45.44683224557955" lon="10.66907484533961"><ele>84.0</ele><time>2026-05-01T09:09:23.999Z</time></trkpt><trkpt lat="45.44691739520348" lon="10.668995424869545"><ele>84.0</ele><time>2026-05-01T09:09:25.999Z</time></trkpt><trkpt lat="45.4469742844591" lon="10.66894983048436"><ele>84.0</ele><time>2026-05-01T09:09:26.999Z</time></trkpt><trkpt lat="45.44706365744439" lon="10.668819982917489"><ele>84.0</ele><time>2026-05-01T09:09:28.999Z</time></trkpt><trkpt lat="45.447118586221094" lon="10.668735041941783"><ele>84.0</ele><time>2026-05-01T09:09:29.999Z</time></trkpt><trkpt lat="45.447178418465306" lon="10.6686534383774"><ele>83.80000000000001</ele><time>2026-05-01T09:09:30.999Z</time></trkpt><trkpt lat="45.44724102951159" lon="10.668571586365495"><ele>83.60000000000001</ele><time>2026-05-01T09:09:31.999Z</time></trkpt><trkpt lat="45.44730606203814" lon="10.66849532277764"><ele>83.4</ele><time>2026-05-01T09:09:32.999Z</time></trkpt><trkpt lat="45.44738225575206" lon="10.668402908704977"><ele>83.2</ele><time>2026-05-01T09:09:34Z</time></trkpt><trkpt lat="45.447456605014004" lon="10.668304026408359"><ele>83.0</ele><time>2026-05-01T09:09:35Z</time></trkpt><trkpt lat="45.447531762898066" lon="10.66820341523654"><ele>83.0</ele><time>2026-05-01T09:09:36Z</time></trkpt><trkpt lat="45.447600249495714" lon="10.668106921612264"><ele>83.0</ele><time>2026-05-01T09:09:37Z</time></trkpt><trkpt lat="45.44766502100091" lon="10.668016640822694"><ele>83.0</ele><time>2026-05-01T09:09:38Z</time></trkpt><trkpt lat="45.44773657916187" lon="10.667926607202794"><ele>83.0</ele><time>2026-05-01T09:09:39Z</time></trkpt><trkpt lat="45.4478067482555" lon="10.66783069486561"><ele>83.0</ele><time>2026-05-01T09:09:40Z</time></trkpt><trkpt lat="45.44788196252292" lon="10.667729225704667"><ele>82.66666666666667</ele><time>2026-05-01T09:09:41Z</time></trkpt><trkpt lat="45.44795123199621" lon="10.667635026630643"><ele>82.33333333333334</ele><time>2026-05-01T09:09:42Z</time></trkpt><trkpt lat="45.44801161759786" lon="10.66755682325061"><ele>82.0</ele><time>2026-05-01T09:09:43Z</time></trkpt><trkpt lat="45.44806813960371" lon="10.667479936874038"><ele>81.66666666666667</ele><time>2026-05-01T09:09:44Z</time></trkpt><trkpt lat="45.44812523333334" lon="10.667403413899292"><ele>81.33333333333333</ele><time>2026-05-01T09:09:45Z</time></trkpt><trkpt lat="45.448185584281966" lon="10.667329873063558"><ele>81.0</ele><time>2026-05-01T09:09:46Z</time></trkpt><trkpt lat="45.448256920245626" lon="10.667244224456699"><ele>80.83333333333333</ele><time>2026-05-01T09:09:47Z</time></trkpt><trkpt lat="45.44832598373648" lon="10.667161183816255"><ele>80.66666666666667</ele><time>2026-05-01T09:09:48Z</time></trkpt><trkpt lat="45.44838757654443" lon="10.66707994776167"><ele>80.5</ele><time>2026-05-01T09:09:49Z</time></trkpt><trkpt lat="45.448443534185145" lon="10.667003593435734"><ele>80.33333333333334</ele><time>2026-05-01T09:09:50Z</time></trkpt><trkpt lat="45.448503321460855" lon="10.66692762471689"><ele>80.16666666666667</ele><time>2026-05-01T09:09:51Z</time></trkpt><trkpt lat="45.44856594893481" lon="10.666851385924573"><ele>80.0</ele><time>2026-05-01T09:09:52Z</time></trkpt><trkpt lat="45.44861965474849" lon="10.66678468186504"><ele>80.0</ele><time>2026-05-01T09:09:53Z</time></trkpt><trkpt lat="45.44872346467034" lon="10.666657862168524"><ele>80.0</ele><time>2026-05-01T09:09:55Z</time></trkpt><trkpt lat="45.44877809902644" lon="10.666586192473988"><ele>80.0</ele><time>2026-05-01T09:09:56Z</time></trkpt><trkpt lat="45.44883783526896" lon="10.666511164240418"><ele>80.0</ele><time>2026-05-01T09:09:57Z</time></trkpt><trkpt lat="45.44890321246754" lon="10.666424603914203"><ele>80.0</ele><time>2026-05-01T09:09:58Z</time></trkpt><trkpt lat="45.44896753450811" lon="10.666341402560052"><ele>79.6</ele><time>2026-05-01T09:09:59Z</time></trkpt><trkpt lat="45.44902723787385" lon="10.666266189965224"><ele>79.2</ele><time>2026-05-01T09:10:00Z</time></trkpt><trkpt lat="45.449090464936965" lon="10.666187446076782"><ele>78.8</ele><time>2026-05-01T09:10:01Z</time></trkpt><trkpt lat="45.449167898057894" lon="10.666088666753152"><ele>78.4</ele><time>2026-05-01T09:10:02Z</time></trkpt><trkpt lat="45.44923815472635" lon="10.665999939249692"><ele>78.0</ele><time>2026-05-01T09:10:03Z</time></trkpt><trkpt lat="45.44930454971236" lon="10.66591109414271"><ele>78.0</ele><time>2026-05-01T09:10:04Z</time></trkpt><trkpt lat="45.44936564523516" lon="10.665828402369058"><ele>78.0</ele><time>2026-05-01T09:10:05Z</time></trkpt><trkpt lat="45.44943867169693" lon="10.665737791610065"><ele>78.0</ele><time>2026-05-01T09:10:06Z</time></trkpt><trkpt lat="45.44950466059175" lon="10.665649816878751"><ele>78.0</ele><time>2026-05-01T09:10:07Z</time></trkpt><trkpt lat="45.449571046792975" lon="10.665564897436244"><ele>78.0</ele><time>2026-05-01T09:10:08Z</time></trkpt><trkpt lat="45.449639711701714" lon="10.66547636142131"><ele>77.8</ele><time>2026-05-01T09:10:09Z</time></trkpt><trkpt lat="45.44971333762011" lon="10.665384484337375"><ele>77.6</ele><time>2026-05-01T09:10:10Z</time></trkpt><trkpt lat="45.44978483068783" lon="10.665297864238523"><ele>77.4</ele><time>2026-05-01T09:10:11Z</time></trkpt><trkpt lat="45.4498533181928" lon="10.665209677655076"><ele>77.2</ele><time>2026-05-01T09:10:12Z</time></trkpt><trkpt lat="45.44992550945671" lon="10.66511382878548"><ele>77.0</ele><time>2026-05-01T09:10:13Z</time></trkpt><trkpt lat="45.44999921422537" lon="10.665016885024981"><ele>76.6</ele><time>2026-05-01T09:10:14Z</time></trkpt><trkpt lat="45.45008089023825" lon="10.664904244152291"><ele>76.2</ele><time>2026-05-01T09:10:15Z</time></trkpt><trkpt lat="45.45016273655989" lon="10.664798250447049"><ele>75.8</ele><time>2026-05-01T09:10:16Z</time></trkpt><trkpt lat="45.45024274580608" lon="10.664689932005393"><ele>75.4</ele><time>2026-05-01T09:10:17Z</time></trkpt><trkpt lat="45.45032605627141" lon="10.664580309478573"><ele>75.0</ele><time>2026-05-01T09:10:18Z</time></trkpt><trkpt lat="45.450410996281605" lon="10.66447570981915"><ele>74.66666666666667</ele><time>2026-05-01T09:10:19Z</time></trkpt><trkpt lat="45.450483491731546" lon="10.66438232274489"><ele>74.33333333333333</ele><time>2026-05-01T09:10:20Z</time></trkpt><trkpt lat="45.450545424366666" lon="10.66429528967284"><ele>74.0</ele><time>2026-05-01T09:10:21Z</time></trkpt><trkpt lat="45.45060907178238" lon="10.664229193647532"><ele>73.66666666666666</ele><time>2026-05-01T09:10:22Z</time></trkpt><trkpt lat="45.450654799688216" lon="10.664166690588436"><ele>73.33333333333333</ele><time>2026-05-01T09:10:24Z</time></trkpt><trkpt lat="45.450692167019234" lon="10.664050273353709"><ele>73.0</ele><time>2026-05-01T09:10:31.001Z</time></trkpt><trkpt lat="45.45075896778861" lon="10.663976421985149"><ele>73.0</ele><time>2026-05-01T09:10:34.001Z</time></trkpt><trkpt lat="45.45083176291865" lon="10.663869070885179"><ele>73.0</ele><time>2026-05-01T09:10:35.001Z</time></trkpt><trkpt lat="45.45094120035144" lon="10.663739700490666"><ele>73.0</ele><time>2026-05-01T09:10:36.001Z</time></trkpt><trkpt lat="45.45102133603507" lon="10.663647917141162"><ele>73.0</ele><time>2026-05-01T09:10:37.001Z</time></trkpt><trkpt lat="45.451074003604894" lon="10.663574621018782"><ele>73.0</ele><time>2026-05-01T09:10:38.001Z</time></trkpt><trkpt lat="45.45115137314988" lon="10.663484984003322"><ele>73.0</ele><time>2026-05-01T09:10:40.001Z</time></trkpt><trkpt lat="45.451206004110226" lon="10.663416503735608"><ele>73.0</ele><time>2026-05-01T09:10:42.001Z</time></trkpt><trkpt lat="45.45131296879644" lon="10.663405527540583"><ele>73.0</ele><time>2026-05-01T09:10:45.001Z</time></trkpt><trkpt lat="45.4513717171031" lon="10.663371283992394"><ele>73.0</ele><time>2026-05-01T09:10:46.001Z</time></trkpt><trkpt lat="45.45148291790629" lon="10.66334781911121"><ele>73.0</ele><time>2026-05-01T09:10:48.001Z</time></trkpt><trkpt lat="45.45153179224205" lon="10.663280384327262"><ele>73.0</ele><time>2026-05-01T09:10:49.001Z</time></trkpt><trkpt lat="45.451569272608" lon="10.663171518659171"><ele>72.8</ele><time>2026-05-01T09:10:50.001Z</time></trkpt><trkpt lat="45.451586760122716" lon="10.663061676429447"><ele>72.6</ele><time>2026-05-01T09:10:51.001Z</time></trkpt><trkpt lat="45.45155912716895" lon="10.662963002176161"><ele>72.4</ele><time>2026-05-01T09:10:52.001Z</time></trkpt><trkpt lat="45.451647753553836" lon="10.662862328043333"><ele>72.2</ele><time>2026-05-01T09:10:53.001Z</time></trkpt><trkpt lat="45.45171108290372" lon="10.662760030387291"><ele>72.0</ele><time>2026-05-01T09:10:54.001Z</time></trkpt><trkpt lat="45.4517876907313" lon="10.662665144259563"><ele>72.0</ele><time>2026-05-01T09:10:55.001Z</time></trkpt><trkpt lat="45.4518634502488" lon="10.662559839191248"><ele>72.0</ele><time>2026-05-01T09:10:56.001Z</time></trkpt><trkpt lat="45.45194875460154" lon="10.66243218809119"><ele>72.0</ele><time>2026-05-01T09:10:57.001Z</time></trkpt><trkpt lat="45.45204569164703" lon="10.662306046700179"><ele>72.0</ele><time>2026-05-01T09:10:58.001Z</time></trkpt><trkpt lat="45.45213459345967" lon="10.662193697241344"><ele>71.33333333333333</ele><time>2026-05-01T09:10:59.001Z</time></trkpt><trkpt lat="45.452230826789844" lon="10.66206652183484"><ele>70.66666666666666</ele><time>2026-05-01T09:11:00.001Z</time></trkpt><trkpt lat="45.45234236923158" lon="10.66190287876453"><ele>70.0</ele><time>2026-05-01T09:11:01.001Z</time></trkpt><trkpt lat="45.45248588245255" lon="10.661715161824409"><ele>70.0</ele><time>2026-05-01T09:11:01.999Z</time></trkpt><trkpt lat="45.4526283096425" lon="10.661555524476062"><ele>70.0</ele><time>2026-05-01T09:11:02.999Z</time></trkpt><trkpt lat="45.45274177852131" lon="10.661431167915842"><ele>70.0</ele><time>2026-05-01T09:11:03.999Z</time></trkpt><trkpt lat="45.45284326977291" lon="10.66130032531757"><ele>70.0</ele><time>2026-05-01T09:11:04.999Z</time></trkpt><trkpt lat="45.45293002232822" lon="10.66115833730829"><ele>70.0</ele><time>2026-05-01T09:11:05.999Z</time></trkpt><trkpt lat="45.452999846275326" lon="10.661011728332817"><ele>70.0</ele><time>2026-05-01T09:11:06.999Z</time></trkpt><trkpt lat="45.453053336494456" lon="10.660853786973615"><ele>70.0</ele><time>2026-05-01T09:11:07.999Z</time></trkpt><trkpt lat="45.45309550486157" lon="10.660680624948858"><ele>69.4</ele><time>2026-05-01T09:11:08.999Z</time></trkpt><trkpt lat="45.45312411748295" lon="10.660513608402102"><ele>68.8</ele><time>2026-05-01T09:11:09.999Z</time></trkpt><trkpt lat="45.45314963357482" lon="10.660367591037998"><ele>68.2</ele><time>2026-05-01T09:11:10.999Z</time></trkpt><trkpt lat="45.45316650503752" lon="10.660239875933414"><ele>67.6</ele><time>2026-05-01T09:11:11.999Z</time></trkpt><trkpt lat="45.45318340939814" lon="10.660115617537626"><ele>67.0</ele><time>2026-05-01T09:11:12.999Z</time></trkpt><trkpt lat="45.45320134432632" lon="10.659976690762631"><ele>67.0</ele><time>2026-05-01T09:11:13.999Z</time></trkpt><trkpt lat="45.45322464901052" lon="10.659837300743083"><ele>67.0</ele><time>2026-05-01T09:11:14.999Z</time></trkpt><trkpt lat="45.45324397830781" lon="10.659689441743614"><ele>67.0</ele><time>2026-05-01T09:11:15.999Z</time></trkpt><trkpt lat="45.45326177483559" lon="10.659553555792893"><ele>67.0</ele><time>2026-05-01T09:11:16.999Z</time></trkpt><trkpt lat="45.453280699205294" lon="10.65940669650798"><ele>67.0</ele><time>2026-05-01T09:11:17.999Z</time></trkpt><trkpt lat="45.45330153055653" lon="10.659258005311678"><ele>67.2</ele><time>2026-05-01T09:11:18.999Z</time></trkpt><trkpt lat="45.45331787337969" lon="10.659107753331648"><ele>67.4</ele><time>2026-05-01T09:11:19.999Z</time></trkpt><trkpt lat="45.453334285428625" lon="10.658974054335488"><ele>67.6</ele><time>2026-05-01T09:11:20.999Z</time></trkpt><trkpt lat="45.453353134093064" lon="10.658843084787375"><ele>67.8</ele><time>2026-05-01T09:11:21.999Z</time></trkpt><trkpt lat="45.45337067197135" lon="10.658709533078731"><ele>68.0</ele><time>2026-05-01T09:11:22.999Z</time></trkpt><trkpt lat="45.45338790394474" lon="10.658587933686313"><ele>68.16666666666667</ele><time>2026-05-01T09:11:23.999Z</time></trkpt><trkpt lat="45.45340476363846" lon="10.658464401100149"><ele>68.33333333333334</ele><time>2026-05-01T09:11:24.999Z</time></trkpt><trkpt lat="45.453421198178425" lon="10.658366545516952"><ele>68.5</ele><time>2026-05-01T09:11:25.999Z</time></trkpt><trkpt lat="45.45343732645453" lon="10.658247735578469"><ele>68.66666666666667</ele><time>2026-05-01T09:11:26.999Z</time></trkpt><trkpt lat="45.45345796168855" lon="10.658109087585665"><ele>68.83333333333333</ele><time>2026-05-01T09:11:28Z</time></trkpt><trkpt lat="45.45347494635782" lon="10.65797199830287"><ele>69.0</ele><time>2026-05-01T09:11:29Z</time></trkpt><trkpt lat="45.45349072495609" lon="10.657821599444118"><ele>69.2</ele><time>2026-05-01T09:11:30Z</time></trkpt><trkpt lat="45.453500575955914" lon="10.657688605065172"><ele>69.4</ele><time>2026-05-01T09:11:31Z</time></trkpt><trkpt lat="45.45352167531045" lon="10.657554431131802"><ele>69.6</ele><time>2026-05-01T09:11:32Z</time></trkpt><trkpt lat="45.45354081336904" lon="10.65742152276439"><ele>69.8</ele><time>2026-05-01T09:11:33Z</time></trkpt><trkpt lat="45.453556610590624" lon="10.65729007996867"><ele>70.0</ele><time>2026-05-01T09:11:34Z</time></trkpt><trkpt lat="45.4535722736409" lon="10.6571565826702"><ele>70.0</ele><time>2026-05-01T09:11:35Z</time></trkpt><trkpt lat="45.453591396442434" lon="10.657011561298226"><ele>70.0</ele><time>2026-05-01T09:11:36Z</time></trkpt><trkpt lat="45.453607874466805" lon="10.656838504304462"><ele>70.0</ele><time>2026-05-01T09:11:37Z</time></trkpt><trkpt lat="45.45362296127792" lon="10.65662877611756"><ele>70.0</ele><time>2026-05-01T09:11:38Z</time></trkpt><trkpt lat="45.45364962955289" lon="10.656372589463562"><ele>70.66666666666666</ele><time>2026-05-01T09:11:39Z</time></trkpt><trkpt lat="45.45369059553131" lon="10.656087484784168"><ele>71.33333333333333</ele><time>2026-05-01T09:11:40Z</time></trkpt><trkpt lat="45.4537300060275" lon="10.655824924310778"><ele>72.0</ele><time>2026-05-01T09:11:41Z</time></trkpt><trkpt lat="45.45376487917681" lon="10.655591676509916"><ele>72.33333333333333</ele><time>2026-05-01T09:11:42Z</time></trkpt><trkpt lat="45.45380064316051" lon="10.655363764889547"><ele>72.66666666666666</ele><time>2026-05-01T09:11:43Z</time></trkpt><trkpt lat="45.4538423299373" lon="10.655123284507717"><ele>73.0</ele><time>2026-05-01T09:11:44Z</time></trkpt><trkpt lat="45.45387589530858" lon="10.65485618001839"><ele>73.0</ele><time>2026-05-01T09:11:45Z</time></trkpt><trkpt lat="45.45391236642828" lon="10.654598663829502"><ele>73.0</ele><time>2026-05-01T09:11:46Z</time></trkpt><trkpt lat="45.45394346217248" lon="10.654343230179848"><ele>73.0</ele><time>2026-05-01T09:11:47Z</time></trkpt><trkpt lat="45.45398001408231" lon="10.654098216212105"><ele>72.66666666666666</ele><time>2026-05-01T09:11:48Z</time></trkpt><trkpt lat="45.454013932658526" lon="10.653852298583281"><ele>72.33333333333333</ele><time>2026-05-01T09:11:49Z</time></trkpt><trkpt lat="45.45404724213904" lon="10.653617452789243"><ele>72.0</ele><time>2026-05-01T09:11:50Z</time></trkpt><trkpt lat="45.454080976674945" lon="10.653385323558053"><ele>72.0</ele><time>2026-05-01T09:11:51Z</time></trkpt><trkpt lat="45.454114611096124" lon="10.65313727798392"><ele>72.0</ele><time>2026-05-01T09:11:52Z</time></trkpt><trkpt lat="45.45414892301287" lon="10.652891274995383"><ele>72.0</ele><time>2026-05-01T09:11:53Z</time></trkpt><trkpt lat="45.45418407561976" lon="10.652642510257202"><ele>71.33333333333333</ele><time>2026-05-01T09:11:54Z</time></trkpt><trkpt lat="45.45422298467859" lon="10.652374806808444"><ele>70.66666666666666</ele><time>2026-05-01T09:11:55Z</time></trkpt><trkpt lat="45.45425677638766" lon="10.652106854238715"><ele>70.0</ele><time>2026-05-01T09:11:56Z</time></trkpt><trkpt lat="45.45429051122983" lon="10.651845042641717"><ele>69.33333333333333</ele><time>2026-05-01T09:11:57Z</time></trkpt><trkpt lat="45.454321642590855" lon="10.651583644249289"><ele>68.66666666666667</ele><time>2026-05-01T09:11:58Z</time></trkpt><trkpt lat="45.45435222022824" lon="10.651322567614178"><ele>68.0</ele><time>2026-05-01T09:11:59Z</time></trkpt><trkpt lat="45.45438739708356" lon="10.651046400723502"><ele>68.0</ele><time>2026-05-01T09:12:00Z</time></trkpt><trkpt lat="45.454425342764054" lon="10.650742940019807"><ele>68.0</ele><time>2026-05-01T09:12:01Z</time></trkpt><trkpt lat="45.45446349626763" lon="10.65042660728096"><ele>68.0</ele><time>2026-05-01T09:12:02Z</time></trkpt><trkpt lat="45.454508420534346" lon="10.650098992403583"><ele>68.0</ele><time>2026-05-01T09:12:03Z</time></trkpt><trkpt lat="45.45455729315601" lon="10.649747322364666"><ele>68.0</ele><time>2026-05-01T09:12:04Z</time></trkpt><trkpt lat="45.45460660221793" lon="10.649393724619069"><ele>67.66666666666667</ele><time>2026-05-01T09:12:05Z</time></trkpt><trkpt lat="45.45464989341059" lon="10.649078341071025"><ele>67.33333333333333</ele><time>2026-05-01T09:12:06Z</time></trkpt><trkpt lat="45.45469258244685" lon="10.648769944692503"><ele>67.0</ele><time>2026-05-01T09:12:07Z</time></trkpt><trkpt lat="45.4547329743111" lon="10.64846588436098"><ele>67.0</ele><time>2026-05-01T09:12:08Z</time></trkpt><trkpt lat="45.45478022310058" lon="10.648169879536013"><ele>67.0</ele><time>2026-05-01T09:12:09.001Z</time></trkpt><trkpt lat="45.454825309829666" lon="10.64788815856721"><ele>67.0</ele><time>2026-05-01T09:12:10.001Z</time></trkpt><trkpt lat="45.45489071775649" lon="10.647592959457276"><ele>66.66666666666666</ele><time>2026-05-01T09:12:11.001Z</time></trkpt><trkpt lat="45.454962334433006" lon="10.647294224382629"><ele>66.33333333333333</ele><time>2026-05-01T09:12:12.001Z</time></trkpt><trkpt lat="45.455035110450524" lon="10.646991959409263"><ele>66.0</ele><time>2026-05-01T09:12:13.001Z</time></trkpt><trkpt lat="45.455111664043024" lon="10.646683213428958"><ele>65.5</ele><time>2026-05-01T09:12:14.001Z</time></trkpt><trkpt lat="45.45518015123139" lon="10.646377429380395"><ele>65.0</ele><time>2026-05-01T09:12:15.001Z</time></trkpt><trkpt lat="45.455252945841984" lon="10.646061942440978"><ele>66.0</ele><time>2026-05-01T09:12:16.001Z</time></trkpt><trkpt lat="45.45532511250981" lon="10.645756925604305"><ele>67.0</ele><time>2026-05-01T09:12:17.001Z</time></trkpt><trkpt lat="45.45539507935924" lon="10.645455499833885"><ele>68.0</ele><time>2026-05-01T09:12:18.001Z</time></trkpt><trkpt lat="45.455469528409395" lon="10.645140744003287"><ele>68.0</ele><time>2026-05-01T09:12:19.001Z</time></trkpt><trkpt lat="45.45554955878931" lon="10.644799480043112"><ele>68.0</ele><time>2026-05-01T09:12:20.001Z</time></trkpt><trkpt lat="45.455622728324954" lon="10.644477043901144"><ele>67.66666666666667</ele><time>2026-05-01T09:12:21.001Z</time></trkpt><trkpt lat="45.45569734239916" lon="10.644170816309794"><ele>67.33333333333333</ele><time>2026-05-01T09:12:22.001Z</time></trkpt><trkpt lat="45.4557652952116" lon="10.643871384713258"><ele>67.0</ele><time>2026-05-01T09:12:23.001Z</time></trkpt><trkpt lat="45.45582611195267" lon="10.643591394392072"><ele>67.0</ele><time>2026-05-01T09:12:24.001Z</time></trkpt><trkpt lat="45.455886667565565" lon="10.643319464497415"><ele>67.0</ele><time>2026-05-01T09:12:25.001Z</time></trkpt><trkpt lat="45.45594961291601" lon="10.643055318001384"><ele>67.0</ele><time>2026-05-01T09:12:26.001Z</time></trkpt><trkpt lat="45.45601219234451" lon="10.642781502249296"><ele>67.0</ele><time>2026-05-01T09:12:27.001Z</time></trkpt><trkpt lat="45.456078436682226" lon="10.642516267909095"><ele>67.0</ele><time>2026-05-01T09:12:28.001Z</time></trkpt><trkpt lat="45.45614750661699" lon="10.64224359695"><ele>67.0</ele><time>2026-05-01T09:12:29.001Z</time></trkpt><trkpt lat="45.45622053986515" lon="10.641978088481476"><ele>67.0</ele><time>2026-05-01T09:12:30.001Z</time></trkpt><trkpt lat="45.4562942827359" lon="10.641713860352821"><ele>67.0</ele><time>2026-05-01T09:12:31.001Z</time></trkpt><trkpt lat="45.45636194953934" lon="10.641463347507443"><ele>67.0</ele><time>2026-05-01T09:12:32.001Z</time></trkpt><trkpt lat="45.45641895343317" lon="10.641242883581908"><ele>67.25</ele><time>2026-05-01T09:12:33.001Z</time></trkpt><trkpt lat="45.456473972378866" lon="10.641023970942687"><ele>67.5</ele><time>2026-05-01T09:12:34.001Z</time></trkpt><trkpt lat="45.45653286671197" lon="10.640828569443775"><ele>67.75</ele><time>2026-05-01T09:12:35.001Z</time></trkpt><trkpt lat="45.45656831717316" lon="10.640639948886978"><ele>68.0</ele><time>2026-05-01T09:12:36.001Z</time></trkpt><trkpt lat="45.456630334570335" lon="10.640498012950907"><ele>68.0</ele><time>2026-05-01T09:12:37.001Z</time></trkpt><trkpt lat="45.456673965380126" lon="10.640353066250244"><ele>68.0</ele><time>2026-05-01T09:12:38.001Z</time></trkpt><trkpt lat="45.45672528489433" lon="10.640220593885378"><ele>68.0</ele><time>2026-05-01T09:12:39.001Z</time></trkpt><trkpt lat="45.45678311734056" lon="10.640100069539567"><ele>68.0</ele><time>2026-05-01T09:12:40.001Z</time></trkpt><trkpt lat="45.45682747388928" lon="10.639962272015868"><ele>68.0</ele><time>2026-05-01T09:12:41.001Z</time></trkpt><trkpt lat="45.45684823378707" lon="10.639784087956714"><ele>68.5</ele><time>2026-05-01T09:12:42.001Z</time></trkpt><trkpt lat="45.45686802603676" lon="10.639588484179434"><ele>69.0</ele><time>2026-05-01T09:12:43.001Z</time></trkpt><trkpt lat="45.456910288145245" lon="10.639392048957614"><ele>69.5</ele><time>2026-05-01T09:12:44.001Z</time></trkpt><trkpt lat="45.45697525806087" lon="10.639183205293367"><ele>70.0</ele><time>2026-05-01T09:12:45.001Z</time></trkpt><trkpt lat="45.457043800713066" lon="10.63894762258375"><ele>70.0</ele><time>2026-05-01T09:12:46.001Z</time></trkpt><trkpt lat="45.45711237473631" lon="10.638715248268465"><ele>70.0</ele><time>2026-05-01T09:12:47.001Z</time></trkpt><trkpt lat="45.45718529013918" lon="10.638463994112886"><ele>70.0</ele><time>2026-05-01T09:12:48.001Z</time></trkpt><trkpt lat="45.45725445722591" lon="10.638219437958336"><ele>70.33333333333333</ele><time>2026-05-01T09:12:49.001Z</time></trkpt><trkpt lat="45.457317636746374" lon="10.637991620238857"><ele>70.66666666666667</ele><time>2026-05-01T09:12:50.001Z</time></trkpt><trkpt lat="45.457375987321655" lon="10.637763569070847"><ele>71.0</ele><time>2026-05-01T09:12:51.001Z</time></trkpt><trkpt lat="45.457429111963435" lon="10.637561071775181"><ele>71.25</ele><time>2026-05-01T09:12:52.001Z</time></trkpt><trkpt lat="45.457483601513104" lon="10.637367903920602"><ele>71.5</ele><time>2026-05-01T09:12:53.001Z</time></trkpt><trkpt lat="45.45753697051365" lon="10.637176291673748"><ele>71.75</ele><time>2026-05-01T09:12:54.001Z</time></trkpt><trkpt lat="45.45759199688691" lon="10.636982534690901"><ele>72.0</ele><time>2026-05-01T09:12:55.001Z</time></trkpt><trkpt lat="45.45764609506949" lon="10.636785304469615"><ele>71.5</ele><time>2026-05-01T09:12:56.001Z</time></trkpt><trkpt lat="45.45769842301419" lon="10.636591074798263"><ele>71.0</ele><time>2026-05-01T09:12:57.001Z</time></trkpt><trkpt lat="45.457749060749286" lon="10.636391132036922"><ele>70.5</ele><time>2026-05-01T09:12:58.001Z</time></trkpt><trkpt lat="45.45780492347163" lon="10.636199873086436"><ele>70.0</ele><time>2026-05-01T09:12:59.001Z</time></trkpt><trkpt lat="45.457857369293116" lon="10.636008705670923"><ele>70.0</ele><time>2026-05-01T09:13:00.002Z</time></trkpt><trkpt lat="45.45791367792804" lon="10.635808317759269"><ele>70.0</ele><time>2026-05-01T09:13:01.002Z</time></trkpt><trkpt lat="45.457970308545846" lon="10.635615968729294"><ele>70.0</ele><time>2026-05-01T09:13:02.002Z</time></trkpt><trkpt lat="45.45802205134594" lon="10.635429038463416"><ele>70.0</ele><time>2026-05-01T09:13:03.002Z</time></trkpt><trkpt lat="45.458074381200525" lon="10.63523894612112"><ele>69.75</ele><time>2026-05-01T09:13:04.002Z</time></trkpt><trkpt lat="45.45812622204161" lon="10.635056497379535"><ele>69.5</ele><time>2026-05-01T09:13:05.002Z</time></trkpt><trkpt lat="45.45817236275151" lon="10.634881058738797"><ele>69.25</ele><time>2026-05-01T09:13:06.002Z</time></trkpt><trkpt lat="45.45821879163992" lon="10.634703796032467"><ele>69.0</ele><time>2026-05-01T09:13:07.002Z</time></trkpt><trkpt lat="45.45827176642901" lon="10.634522243462209"><ele>68.5</ele><time>2026-05-01T09:13:07.999Z</time></trkpt><trkpt lat="45.45831934102013" lon="10.634351476378848"><ele>68.0</ele><time>2026-05-01T09:13:08.999Z</time></trkpt><trkpt lat="45.45836579688193" lon="10.634183225493032"><ele>67.5</ele><time>2026-05-01T09:13:09.999Z</time></trkpt><trkpt lat="45.45841376370165" lon="10.634010592503358"><ele>67.0</ele><time>2026-05-01T09:13:10.999Z</time></trkpt><trkpt lat="45.45846468491418" lon="10.633836334458591"><ele>67.0</ele><time>2026-05-01T09:13:11.999Z</time></trkpt><trkpt lat="45.45850796608342" lon="10.633680408062395"><ele>67.0</ele><time>2026-05-01T09:13:12.999Z</time></trkpt><trkpt lat="45.458557602413336" lon="10.633529611499394"><ele>67.0</ele><time>2026-05-01T09:13:13.999Z</time></trkpt><trkpt lat="45.458596484331714" lon="10.633365046925501"><ele>67.0</ele><time>2026-05-01T09:13:14.999Z</time></trkpt><trkpt lat="45.458639626980506" lon="10.633211316414789"><ele>66.75</ele><time>2026-05-01T09:13:15.999Z</time></trkpt><trkpt lat="45.458682032430985" lon="10.633064025970535"><ele>66.5</ele><time>2026-05-01T09:13:16.999Z</time></trkpt><trkpt lat="45.45872715312027" lon="10.632916245676451"><ele>66.25</ele><time>2026-05-01T09:13:17.999Z</time></trkpt><trkpt lat="45.45876951396363" lon="10.632753118605228"><ele>66.0</ele><time>2026-05-01T09:13:19Z</time></trkpt><trkpt lat="45.458814821573014" lon="10.632600657755967"><ele>65.75</ele><time>2026-05-01T09:13:20Z</time></trkpt><trkpt lat="45.45886123025391" lon="10.632437695213753"><ele>65.5</ele><time>2026-05-01T09:13:21Z</time></trkpt><trkpt lat="45.45890596157398" lon="10.632275505708465"><ele>65.25</ele><time>2026-05-01T09:13:22Z</time></trkpt><trkpt lat="45.458948244808376" lon="10.632122619168355"><ele>65.0</ele><time>2026-05-01T09:13:23Z</time></trkpt><trkpt lat="45.4589894203727" lon="10.631976632462123"><ele>65.2</ele><time>2026-05-01T09:13:24Z</time></trkpt><trkpt lat="45.459025291998294" lon="10.631839654283437"><ele>65.4</ele><time>2026-05-01T09:13:25Z</time></trkpt><trkpt lat="45.459063046685074" lon="10.631702540043447"><ele>65.6</ele><time>2026-05-01T09:13:26Z</time></trkpt><trkpt lat="45.45910336552546" lon="10.631570199352582"><ele>65.8</ele><time>2026-05-01T09:13:27Z</time></trkpt><trkpt lat="45.459138316810154" lon="10.631438832906834"><ele>66.0</ele><time>2026-05-01T09:13:28Z</time></trkpt><trkpt lat="45.45917219975956" lon="10.631323393145594"><ele>66.0</ele><time>2026-05-01T09:13:29Z</time></trkpt><trkpt lat="45.45920832382573" lon="10.631178445763547"><ele>66.0</ele><time>2026-05-01T09:13:30Z</time></trkpt><trkpt lat="45.45924357079119" lon="10.63104329294501"><ele>66.0</ele><time>2026-05-01T09:13:31Z</time></trkpt><trkpt lat="45.45928204209637" lon="10.630905516051202"><ele>66.0</ele><time>2026-05-01T09:13:32Z</time></trkpt><trkpt lat="45.45932289935185" lon="10.630768915660989"><ele>66.0</ele><time>2026-05-01T09:13:33Z</time></trkpt><trkpt lat="45.45936390369086" lon="10.630629791033474"><ele>66.0</ele><time>2026-05-01T09:13:34Z</time></trkpt><trkpt lat="45.45940725592821" lon="10.630477875887475"><ele>66.0</ele><time>2026-05-01T09:13:35Z</time></trkpt><trkpt lat="45.45944422606462" lon="10.630311867417355"><ele>66.0</ele><time>2026-05-01T09:13:36Z</time></trkpt><trkpt lat="45.459487964459704" lon="10.630140714229745"><ele>66.0</ele><time>2026-05-01T09:13:37Z</time></trkpt><trkpt lat="45.45953879929931" lon="10.6299631195314"><ele>66.0</ele><time>2026-05-01T09:13:38Z</time></trkpt><trkpt lat="45.459585961705734" lon="10.629802598821898"><ele>66.0</ele><time>2026-05-01T09:13:39Z</time></trkpt><trkpt lat="45.45963250451631" lon="10.629648023083567"><ele>66.0</ele><time>2026-05-01T09:13:40Z</time></trkpt><trkpt lat="45.45967605581254" lon="10.629503134247855"><ele>66.0</ele><time>2026-05-01T09:13:41Z</time></trkpt><trkpt lat="45.45972319381639" lon="10.629349478784404"><ele>66.8</ele><time>2026-05-01T09:13:42Z</time></trkpt><trkpt lat="45.45976782995859" lon="10.629192523496918"><ele>67.6</ele><time>2026-05-01T09:13:43Z</time></trkpt><trkpt lat="45.45981124342761" lon="10.629041536537857"><ele>68.4</ele><time>2026-05-01T09:13:44Z</time></trkpt><trkpt lat="45.45985216889294" lon="10.628900206826659"><ele>69.2</ele><time>2026-05-01T09:13:45Z</time></trkpt><trkpt lat="45.45988992543853" lon="10.628772644281751"><ele>70.0</ele><time>2026-05-01T09:13:46Z</time></trkpt><trkpt lat="45.459922219815304" lon="10.628659104247337"><ele>69.6</ele><time>2026-05-01T09:13:47Z</time></trkpt><trkpt lat="45.45995525878868" lon="10.628542790940271"><ele>69.2</ele><time>2026-05-01T09:13:48Z</time></trkpt><trkpt lat="45.45996878571674" lon="10.628436320750396"><ele>68.8</ele><time>2026-05-01T09:13:49Z</time></trkpt><trkpt lat="45.459986450563456" lon="10.628293231562937"><ele>68.4</ele><time>2026-05-01T09:13:51Z</time></trkpt><trkpt lat="45.46001616457325" lon="10.62819880019869"><ele>68.0</ele><time>2026-05-01T09:13:53Z</time></trkpt><trkpt lat="45.460082801127896" lon="10.628031194330346"><ele>68.0</ele><time>2026-05-01T09:13:55.001Z</time></trkpt><trkpt lat="45.46010908346422" lon="10.627918672689852"><ele>68.0</ele><time>2026-05-01T09:13:56.001Z</time></trkpt><trkpt lat="45.46012717199158" lon="10.62780782508613"><ele>68.0</ele><time>2026-05-01T09:13:57.001Z</time></trkpt><trkpt lat="45.46014716356623" lon="10.62770273822895"><ele>68.0</ele><time>2026-05-01T09:13:58.001Z</time></trkpt><trkpt lat="45.460174680700895" lon="10.62761283746776"><ele>68.0</ele><time>2026-05-01T09:13:59.001Z</time></trkpt><trkpt lat="45.460213674746136" lon="10.627530427057255"><ele>68.0</ele><time>2026-05-01T09:14:00.001Z</time></trkpt><trkpt lat="45.460256641479134" lon="10.627443330807028"><ele>67.8</ele><time>2026-05-01T09:14:01.001Z</time></trkpt><trkpt lat="45.46029585120859" lon="10.62734082806657"><ele>67.6</ele><time>2026-05-01T09:14:02.001Z</time></trkpt><trkpt lat="45.46033592222129" lon="10.627219366234952"><ele>67.4</ele><time>2026-05-01T09:14:03.001Z</time></trkpt><trkpt lat="45.46037076534617" lon="10.627095677575054"><ele>67.2</ele><time>2026-05-01T09:14:04.001Z</time></trkpt><trkpt lat="45.46040763456756" lon="10.626965220124635"><ele>67.0</ele><time>2026-05-01T09:14:05.001Z</time></trkpt><trkpt lat="45.46044546268607" lon="10.626821466104975"><ele>67.0</ele><time>2026-05-01T09:14:06.001Z</time></trkpt><trkpt lat="45.46048053906507" lon="10.626683382248268"><ele>67.0</ele><time>2026-05-01T09:14:07.001Z</time></trkpt><trkpt lat="45.46052374772202" lon="10.626537148175636"><ele>67.0</ele><time>2026-05-01T09:14:08.001Z</time></trkpt><trkpt lat="45.46056475275773" lon="10.626394301674809"><ele>67.0</ele><time>2026-05-01T09:14:09.001Z</time></trkpt><trkpt lat="45.46060422753136" lon="10.626262144017238"><ele>67.0</ele><time>2026-05-01T09:14:10.001Z</time></trkpt><trkpt lat="45.460642815388276" lon="10.62612672406953"><ele>67.0</ele><time>2026-05-01T09:14:11.001Z</time></trkpt><trkpt lat="45.460681162077385" lon="10.62598774765345"><ele>67.0</ele><time>2026-05-01T09:14:12.001Z</time></trkpt><trkpt lat="45.46071696433931" lon="10.625853405636647"><ele>67.0</ele><time>2026-05-01T09:14:13.001Z</time></trkpt><trkpt lat="45.46075574663628" lon="10.625717625473033"><ele>67.0</ele><time>2026-05-01T09:14:14.001Z</time></trkpt><trkpt lat="45.46079114476168" lon="10.625580819019277"><ele>67.0</ele><time>2026-05-01T09:14:15.001Z</time></trkpt><trkpt lat="45.460825501240286" lon="10.625452947020374"><ele>67.0</ele><time>2026-05-01T09:14:16.001Z</time></trkpt><trkpt lat="45.46086109023061" lon="10.625328883470246"><ele>67.0</ele><time>2026-05-01T09:14:17.001Z</time></trkpt><trkpt lat="45.4608958280284" lon="10.625203764186377"><ele>67.0</ele><time>2026-05-01T09:14:18.001Z</time></trkpt><trkpt lat="45.46092295516145" lon="10.625094912762838"><ele>67.0</ele><time>2026-05-01T09:14:19.001Z</time></trkpt><trkpt lat="45.460953803762685" lon="10.624980117181137"><ele>67.0</ele><time>2026-05-01T09:14:20.001Z</time></trkpt><trkpt lat="45.4609793804813" lon="10.624875866924748"><ele>67.0</ele><time>2026-05-01T09:14:21.001Z</time></trkpt><trkpt lat="45.461007894380856" lon="10.624768884929825"><ele>66.83333333333333</ele><time>2026-05-01T09:14:22.001Z</time></trkpt><trkpt lat="45.461036487292105" lon="10.624661456143311"><ele>66.66666666666666</ele><time>2026-05-01T09:14:23.001Z</time></trkpt><trkpt lat="45.46106616368285" lon="10.62453122607977"><ele>66.5</ele><time>2026-05-01T09:14:24.001Z</time></trkpt><trkpt lat="45.461092314747276" lon="10.624437830410043"><ele>66.33333333333333</ele><time>2026-05-01T09:14:25.001Z</time></trkpt><trkpt lat="45.461132617315535" lon="10.62429708336269"><ele>66.16666666666667</ele><time>2026-05-01T09:14:27.001Z</time></trkpt><trkpt lat="45.461159037179996" lon="10.624202594122433"><ele>66.0</ele><time>2026-05-01T09:14:29.001Z</time></trkpt><trkpt lat="45.46119672033943" lon="10.624077540252157"><ele>66.0</ele><time>2026-05-01T09:14:32.001Z</time></trkpt><trkpt lat="45.461222266231445" lon="10.623983735752901"><ele>66.0</ele><time>2026-05-01T09:14:34.001Z</time></trkpt><trkpt lat="45.46125413312137" lon="10.623867611041986"><ele>66.0</ele><time>2026-05-01T09:14:37.001Z</time></trkpt><trkpt lat="45.461283731728855" lon="10.623740131937945"><ele>66.0</ele><time>2026-05-01T09:14:40.002Z</time></trkpt><trkpt lat="45.461309347285365" lon="10.623650408211224"><ele>66.0</ele><time>2026-05-01T09:14:44.002Z</time></trkpt><trkpt lat="45.461314943583965" lon="10.623526669886724"><ele>66.0</ele><time>2026-05-01T09:14:52.002Z</time></trkpt><trkpt lat="45.46133911014392" lon="10.623425210274162"><ele>66.25</ele><time>2026-05-01T09:14:54.002Z</time></trkpt><trkpt lat="45.46138049347888" lon="10.62330167317677"><ele>66.5</ele><time>2026-05-01T09:14:56.002Z</time></trkpt><trkpt lat="45.46142513683081" lon="10.623137758962097"><ele>66.75</ele><time>2026-05-01T09:14:58.002Z</time></trkpt><trkpt lat="45.461483361095674" lon="10.622984081948955"><ele>67.0</ele><time>2026-05-01T09:15:00.002Z</time></trkpt><trkpt lat="45.461538471462056" lon="10.622838517854479"><ele>67.0</ele><time>2026-05-01T09:15:02.002Z</time></trkpt><trkpt lat="45.46156805816691" lon="10.62272063511772"><ele>67.0</ele><time>2026-05-01T09:15:04.002Z</time></trkpt><trkpt lat="45.46160229504753" lon="10.622591219697354"><ele>67.0</ele><time>2026-05-01T09:15:06.002Z</time></trkpt><trkpt lat="45.46162627237984" lon="10.622496370475274"><ele>67.0</ele><time>2026-05-01T09:15:08.002Z</time></trkpt><trkpt lat="45.46164671329598" lon="10.622367170753085"><ele>67.0</ele><time>2026-05-01T09:15:10.002Z</time></trkpt><trkpt lat="45.4616670993976" lon="10.622270840255368"><ele>67.0</ele><time>2026-05-01T09:15:12.002Z</time></trkpt><trkpt lat="45.4616964988434" lon="10.622131608579727"><ele>67.0</ele><time>2026-05-01T09:15:15Z</time></trkpt><trkpt lat="45.461710639296115" lon="10.622021288792782"><ele>67.0</ele><time>2026-05-01T09:15:17Z</time></trkpt><trkpt lat="45.461728898176496" lon="10.62191048784235"><ele>67.0</ele><time>2026-05-01T09:15:20Z</time></trkpt><trkpt lat="45.46174089643794" lon="10.621797480530443"><ele>67.0</ele><time>2026-05-01T09:15:24Z</time></trkpt><trkpt lat="45.46175074014644" lon="10.621704725649701"><ele>67.0</ele><time>2026-05-01T09:15:28Z</time></trkpt><trkpt lat="45.461756316894224" lon="10.621575498335256"><ele>67.0</ele><time>2026-05-01T09:15:31Z</time></trkpt><trkpt lat="45.46176634743001" lon="10.621418676547519"><ele>67.0</ele><time>2026-05-01T09:15:33Z</time></trkpt><trkpt lat="45.46178575637977" lon="10.621304930751629"><ele>67.0</ele><time>2026-05-01T09:15:35Z</time></trkpt><trkpt lat="45.46180424684459" lon="10.62120613254629"><ele>67.0</ele><time>2026-05-01T09:15:37Z</time></trkpt><trkpt lat="45.461813232288065" lon="10.621107977701575"><ele>67.0</ele><time>2026-05-01T09:15:40Z</time></trkpt><trkpt lat="45.46181750322706" lon="10.620997399966626"><ele>67.0</ele><time>2026-05-01T09:15:47.001Z</time></trkpt><trkpt lat="45.46182704055533" lon="10.620859847640329"><ele>67.0</ele><time>2026-05-01T09:15:49.001Z</time></trkpt><trkpt lat="45.461853461967976" lon="10.620704121044094"><ele>67.0</ele><time>2026-05-01T09:15:51.001Z</time></trkpt><trkpt lat="45.461870903180895" lon="10.620604722401309"><ele>67.0</ele><time>2026-05-01T09:15:52.001Z</time></trkpt><trkpt lat="45.46189503582674" lon="10.62050302198616"><ele>67.0</ele><time>2026-05-01T09:15:53.001Z</time></trkpt><trkpt lat="45.46191721671459" lon="10.620396792924248"><ele>67.0</ele><time>2026-05-01T09:15:54.001Z</time></trkpt><trkpt lat="45.461939343291924" lon="10.620286403319481"><ele>67.0</ele><time>2026-05-01T09:15:55.001Z</time></trkpt><trkpt lat="45.46196539123846" lon="10.620177279756005"><ele>67.0</ele><time>2026-05-01T09:15:56.001Z</time></trkpt><trkpt lat="45.461995677040484" lon="10.620070193995682"><ele>66.83333333333333</ele><time>2026-05-01T09:15:57.001Z</time></trkpt><trkpt lat="45.462020410999614" lon="10.619968252869047"><ele>66.66666666666666</ele><time>2026-05-01T09:15:58.001Z</time></trkpt><trkpt lat="45.46204642381102" lon="10.619863231951033"><ele>66.5</ele><time>2026-05-01T09:15:59.001Z</time></trkpt><trkpt lat="45.46206902854978" lon="10.619766405010083"><ele>66.33333333333333</ele><time>2026-05-01T09:16:00.001Z</time></trkpt><trkpt lat="45.46208671586589" lon="10.619672323433063"><ele>66.16666666666667</ele><time>2026-05-01T09:16:01.001Z</time></trkpt><trkpt lat="45.46211045174473" lon="10.61958702074948"><ele>66.0</ele><time>2026-05-01T09:16:02.001Z</time></trkpt><trkpt lat="45.46215326133125" lon="10.619421677549022"><ele>65.6</ele><time>2026-05-01T09:16:04.001Z</time></trkpt><trkpt lat="45.46217289598988" lon="10.61933637225824"><ele>65.19999999999999</ele><time>2026-05-01T09:16:05.001Z</time></trkpt><trkpt lat="45.46220723878381" lon="10.619190449665322"><ele>64.80000000000001</ele><time>2026-05-01T09:16:07.001Z</time></trkpt><trkpt lat="45.46224728297619" lon="10.61905428160334"><ele>64.4</ele><time>2026-05-01T09:16:09.001Z</time></trkpt><trkpt lat="45.46228473270016" lon="10.618859874984004"><ele>64.0</ele><time>2026-05-01T09:16:11.001Z</time></trkpt><trkpt lat="45.4622970484947" lon="10.618735200362172"><ele>64.25</ele><time>2026-05-01T09:16:12.001Z</time></trkpt><trkpt lat="45.46232523937754" lon="10.618603069021908"><ele>64.5</ele><time>2026-05-01T09:16:13.001Z</time></trkpt><trkpt lat="45.46235567758838" lon="10.618443200380433"><ele>64.75</ele><time>2026-05-01T09:16:14.001Z</time></trkpt><trkpt lat="45.46239371796791" lon="10.618270990380527"><ele>65.0</ele><time>2026-05-01T09:16:15.001Z</time></trkpt><trkpt lat="45.462445765192896" lon="10.618089342633391"><ele>65.0</ele><time>2026-05-01T09:16:16.001Z</time></trkpt><trkpt lat="45.46250306216515" lon="10.617900845909638"><ele>65.0</ele><time>2026-05-01T09:16:17.001Z</time></trkpt><trkpt lat="45.462556184164185" lon="10.617703545200476"><ele>65.0</ele><time>2026-05-01T09:16:18.001Z</time></trkpt><trkpt lat="45.46260512212123" lon="10.617504853202488"><ele>65.0</ele><time>2026-05-01T09:16:19.001Z</time></trkpt><trkpt lat="45.46264936731264" lon="10.61731565081712"><ele>65.5</ele><time>2026-05-01T09:16:20.001Z</time></trkpt><trkpt lat="45.462695426578144" lon="10.617150035485636"><ele>66.0</ele><time>2026-05-01T09:16:21.001Z</time></trkpt><trkpt lat="45.46274233842551" lon="10.616983609066944"><ele>66.5</ele><time>2026-05-01T09:16:22.001Z</time></trkpt><trkpt lat="45.462787799629915" lon="10.616828303372559"><ele>67.0</ele><time>2026-05-01T09:16:23.001Z</time></trkpt><trkpt lat="45.46283662482757" lon="10.616683392299748"><ele>67.0</ele><time>2026-05-01T09:16:24.001Z</time></trkpt><trkpt lat="45.462891293815865" lon="10.616552563217098"><ele>67.0</ele><time>2026-05-01T09:16:25.001Z</time></trkpt><trkpt lat="45.46294164789016" lon="10.61644438782929"><ele>67.0</ele><time>2026-05-01T09:16:26.001Z</time></trkpt><trkpt lat="45.463005940698025" lon="10.616338390791727"><ele>67.0</ele><time>2026-05-01T09:16:27.001Z</time></trkpt><trkpt lat="45.46306904722764" lon="10.6162344323166"><ele>67.0</ele><time>2026-05-01T09:16:28.001Z</time></trkpt><trkpt lat="45.46312691057992" lon="10.616108269873871"><ele>67.0</ele><time>2026-05-01T09:16:29.001Z</time></trkpt><trkpt lat="45.463183686904465" lon="10.61598056818683"><ele>67.0</ele><time>2026-05-01T09:16:30.001Z</time></trkpt><trkpt lat="45.463244634351746" lon="10.615860546680493"><ele>67.0</ele><time>2026-05-01T09:16:31.001Z</time></trkpt><trkpt lat="45.46330815983308" lon="10.615735685899363"><ele>67.0</ele><time>2026-05-01T09:16:32.001Z</time></trkpt><trkpt lat="45.46337308450014" lon="10.615592637030007"><ele>67.0</ele><time>2026-05-01T09:16:33.001Z</time></trkpt><trkpt lat="45.463446011427415" lon="10.615443797139342"><ele>66.75</ele><time>2026-05-01T09:16:34.001Z</time></trkpt><trkpt lat="45.46351399376199" lon="10.615302795899108"><ele>66.5</ele><time>2026-05-01T09:16:35.002Z</time></trkpt><trkpt lat="45.46358556722881" lon="10.61516956438738"><ele>66.25</ele><time>2026-05-01T09:16:36.002Z</time></trkpt><trkpt lat="45.463660132692816" lon="10.615024577539508"><ele>66.0</ele><time>2026-05-01T09:16:37.002Z</time></trkpt><trkpt lat="45.46373236336266" lon="10.61487461623625"><ele>65.5</ele><time>2026-05-01T09:16:38.002Z</time></trkpt><trkpt lat="45.463807072010056" lon="10.614723538747409"><ele>65.0</ele><time>2026-05-01T09:16:39.002Z</time></trkpt><trkpt lat="45.463884287450064" lon="10.614574085762046"><ele>64.5</ele><time>2026-05-01T09:16:40.002Z</time></trkpt><trkpt lat="45.46395442180369" lon="10.614447372374974"><ele>64.0</ele><time>2026-05-01T09:16:41.002Z</time></trkpt><trkpt lat="45.46402012061917" lon="10.614319336719902"><ele>64.8</ele><time>2026-05-01T09:16:42.002Z</time></trkpt><trkpt lat="45.464088944228585" lon="10.614194303883643"><ele>65.60000000000001</ele><time>2026-05-01T09:16:43.002Z</time></trkpt><trkpt lat="45.46415299758063" lon="10.614084125842627"><ele>66.4</ele><time>2026-05-01T09:16:44.002Z</time></trkpt><trkpt lat="45.46419959903909" lon="10.6139914582767"><ele>67.2</ele><time>2026-05-01T09:16:45.002Z</time></trkpt><trkpt lat="45.46425086187412" lon="10.613893162451117"><ele>68.0</ele><time>2026-05-01T09:16:46.002Z</time></trkpt><trkpt lat="45.46428974332476" lon="10.613801496219484"><ele>68.0</ele><time>2026-05-01T09:16:47.002Z</time></trkpt><trkpt lat="45.464348348570724" lon="10.613722842333264"><ele>68.0</ele><time>2026-05-01T09:16:48.002Z</time></trkpt><trkpt lat="45.464393878488195" lon="10.613635649857022"><ele>68.0</ele><time>2026-05-01T09:16:49.002Z</time></trkpt><trkpt lat="45.46445114380822" lon="10.613525983339795"><ele>68.0</ele><time>2026-05-01T09:16:50.002Z</time></trkpt><trkpt lat="45.4645134044655" lon="10.613406750395145"><ele>68.0</ele><time>2026-05-01T09:16:51.002Z</time></trkpt><trkpt lat="45.46455249191062" lon="10.613269407746763"><ele>68.0</ele><time>2026-05-01T09:16:52.002Z</time></trkpt><trkpt lat="45.464610695349826" lon="10.613157001256296"><ele>68.0</ele><time>2026-05-01T09:16:53.002Z</time></trkpt><trkpt lat="45.464669897988564" lon="10.613048734102332"><ele>68.0</ele><time>2026-05-01T09:16:54.002Z</time></trkpt><trkpt lat="45.46472551729598" lon="10.612942572218065"><ele>68.0</ele><time>2026-05-01T09:16:55.002Z</time></trkpt><trkpt lat="45.464777997033536" lon="10.612836569239372"><ele>68.0</ele><time>2026-05-01T09:16:56.002Z</time></trkpt><trkpt lat="45.464826241042374" lon="10.612739273420663"><ele>67.83333333333334</ele><time>2026-05-01T09:16:57.002Z</time></trkpt><trkpt lat="45.46486636769925" lon="10.612645130141681"><ele>67.66666666666667</ele><time>2026-05-01T09:16:58.002Z</time></trkpt><trkpt lat="45.46489772200615" lon="10.612548891638202"><ele>67.5</ele><time>2026-05-01T09:16:59.002Z</time></trkpt><trkpt lat="45.464918969555306" lon="10.61245351604464"><ele>67.33333333333333</ele><time>2026-05-01T09:17:00.002Z</time></trkpt><trkpt lat="45.4649491376761" lon="10.61235108257813"><ele>67.16666666666666</ele><time>2026-05-01T09:17:01.002Z</time></trkpt><trkpt lat="45.4649883670405" lon="10.612249340546128"><ele>67.0</ele><time>2026-05-01T09:17:02.002Z</time></trkpt><trkpt lat="45.46501866749672" lon="10.61214669722221"><ele>67.0</ele><time>2026-05-01T09:17:03.002Z</time></trkpt><trkpt lat="45.465030811837934" lon="10.612030765968175"><ele>67.0</ele><time>2026-05-01T09:17:04.002Z</time></trkpt><trkpt lat="45.465023622219064" lon="10.611915533854049"><ele>67.0</ele><time>2026-05-01T09:17:05.002Z</time></trkpt><trkpt lat="45.46503025705522" lon="10.61179687225254"><ele>67.0</ele><time>2026-05-01T09:17:06.002Z</time></trkpt><trkpt lat="45.465055005926175" lon="10.611689456643154"><ele>67.0</ele><time>2026-05-01T09:17:07.002Z</time></trkpt><trkpt lat="45.465083948163134" lon="10.611581159030438"><ele>67.0</ele><time>2026-05-01T09:17:08.002Z</time></trkpt><trkpt lat="45.4651090436283" lon="10.61146584343673"><ele>67.4</ele><time>2026-05-01T09:17:09.002Z</time></trkpt><trkpt lat="45.465120306039616" lon="10.611339963727142"><ele>67.80000000000001</ele><time>2026-05-01T09:17:10.002Z</time></trkpt><trkpt lat="45.46512562105757" lon="10.611201109403954"><ele>68.2</ele><time>2026-05-01T09:17:11.002Z</time></trkpt><trkpt lat="45.46509203262425" lon="10.611065871439646"><ele>68.60000000000001</ele><time>2026-05-01T09:17:12.002Z</time></trkpt><trkpt lat="45.465092317183995" lon="10.61090947604717"><ele>69.0</ele><time>2026-05-01T09:17:13.002Z</time></trkpt><trkpt lat="45.46506606920859" lon="10.610730881897858"><ele>69.66666666666667</ele><time>2026-05-01T09:17:14.002Z</time></trkpt><trkpt lat="45.46503849106872" lon="10.61052589406782"><ele>70.33333333333334</ele><time>2026-05-01T09:17:15.002Z</time></trkpt><trkpt lat="45.46501586829102" lon="10.610280427622456"><ele>71.0</ele><time>2026-05-01T09:17:16.002Z</time></trkpt><trkpt lat="45.46500369479037" lon="10.610011633115615"><ele>71.66666666666667</ele><time>2026-05-01T09:17:17.002Z</time></trkpt><trkpt lat="45.464991945379644" lon="10.609738916847267"><ele>72.33333333333333</ele><time>2026-05-01T09:17:18.002Z</time></trkpt><trkpt lat="45.46497184690011" lon="10.609466149082094"><ele>73.0</ele><time>2026-05-01T09:17:19Z</time></trkpt><trkpt lat="45.464952633605144" lon="10.609236416861059"><ele>73.33333333333333</ele><time>2026-05-01T09:17:20Z</time></trkpt><trkpt lat="45.46494133025084" lon="10.60901525355568"><ele>73.66666666666667</ele><time>2026-05-01T09:17:21Z</time></trkpt><trkpt lat="45.46493131600413" lon="10.60879527665801"><ele>74.0</ele><time>2026-05-01T09:17:22Z</time></trkpt><trkpt lat="45.4649384958367" lon="10.608573510949931"><ele>74.5</ele><time>2026-05-01T09:17:23Z</time></trkpt><trkpt lat="45.464948798940654" lon="10.608366187035774"><ele>75.0</ele><time>2026-05-01T09:17:24Z</time></trkpt><trkpt lat="45.46496259316626" lon="10.60815571059009"><ele>75.5</ele><time>2026-05-01T09:17:25Z</time></trkpt><trkpt lat="45.464970871352634" lon="10.607961186272334"><ele>76.0</ele><time>2026-05-01T09:17:26Z</time></trkpt><trkpt lat="45.464982935533286" lon="10.607771445803039"><ele>76.6</ele><time>2026-05-01T09:17:27Z</time></trkpt><trkpt lat="45.46499859042649" lon="10.607576183645133"><ele>77.19999999999999</ele><time>2026-05-01T09:17:28Z</time></trkpt><trkpt lat="45.465000638813464" lon="10.607413407222202"><ele>77.80000000000001</ele><time>2026-05-01T09:17:29Z</time></trkpt><trkpt lat="45.46500267751369" lon="10.607261380529295"><ele>78.4</ele><time>2026-05-01T09:17:30Z</time></trkpt><trkpt lat="45.465004636974996" lon="10.607138015956357"><ele>79.0</ele><time>2026-05-01T09:17:31Z</time></trkpt><trkpt lat="45.465011501634045" lon="10.607034212343695"><ele>79.5</ele><time>2026-05-01T09:17:32Z</time></trkpt><trkpt lat="45.465026052031355" lon="10.60694530130398"><ele>80.0</ele><time>2026-05-01T09:17:33Z</time></trkpt><trkpt lat="45.46505491248317" lon="10.606829304365089"><ele>80.5</ele><time>2026-05-01T09:17:35Z</time></trkpt><trkpt lat="45.465065723127104" lon="10.606733183289593"><ele>81.0</ele><time>2026-05-01T09:17:43Z</time></trkpt><trkpt lat="45.46511119528178" lon="10.606646645059248"><ele>81.5</ele><time>2026-05-01T09:17:45Z</time></trkpt><trkpt lat="45.46507937759027" lon="10.606471427645037"><ele>82.0</ele><time>2026-05-01T09:17:47Z</time></trkpt><trkpt lat="45.46506434339014" lon="10.606380347086713"><ele>82.0</ele><time>2026-05-01T09:17:48Z</time></trkpt><trkpt lat="45.46504600270684" lon="10.606218508589821"><ele>82.0</ele><time>2026-05-01T09:17:50Z</time></trkpt><trkpt lat="45.46505128494992" lon="10.606125625145559"><ele>82.0</ele><time>2026-05-01T09:17:51Z</time></trkpt><trkpt lat="45.4650614356339" lon="10.605952613551104"><ele>82.0</ele><time>2026-05-01T09:17:53.001Z</time></trkpt><trkpt lat="45.46506807803664" lon="10.605785854440462"><ele>82.0</ele><time>2026-05-01T09:17:55.001Z</time></trkpt><trkpt lat="45.46507369484785" lon="10.605610958051296"><ele>81.8</ele><time>2026-05-01T09:17:57.001Z</time></trkpt><trkpt lat="45.46507415490386" lon="10.605515134955521"><ele>81.6</ele><time>2026-05-01T09:17:58.001Z</time></trkpt><trkpt lat="45.46507985784115" lon="10.605382384383825"><ele>81.39999999999999</ele><time>2026-05-01T09:17:59.001Z</time></trkpt><trkpt lat="45.46508633327316" lon="10.605241455568969"><ele>81.19999999999999</ele><time>2026-05-01T09:18:00.001Z</time></trkpt><trkpt lat="45.46509296888648" lon="10.605074674495459"><ele>81.0</ele><time>2026-05-01T09:18:01.001Z</time></trkpt><trkpt lat="45.465097968603075" lon="10.604915021719103"><ele>81.0</ele><time>2026-05-01T09:18:02.001Z</time></trkpt><trkpt lat="45.46510619930768" lon="10.604765023582242"><ele>81.0</ele><time>2026-05-01T09:18:03.001Z</time></trkpt><trkpt lat="45.465110889436644" lon="10.604617284435157"><ele>81.0</ele><time>2026-05-01T09:18:04.001Z</time></trkpt><trkpt lat="45.465116772347926" lon="10.604468388694501"><ele>81.0</ele><time>2026-05-01T09:18:05.001Z</time></trkpt><trkpt lat="45.46511812089721" lon="10.604324590784268"><ele>81.0</ele><time>2026-05-01T09:18:06.001Z</time></trkpt><trkpt lat="45.4651196246647" lon="10.604175804724237"><ele>80.8</ele><time>2026-05-01T09:18:07.001Z</time></trkpt><trkpt lat="45.46511010845301" lon="10.604021488969376"><ele>80.6</ele><time>2026-05-01T09:18:08.001Z</time></trkpt><trkpt lat="45.46509259894594" lon="10.603852431539545"><ele>80.4</ele><time>2026-05-01T09:18:09.001Z</time></trkpt><trkpt lat="45.46507184213748" lon="10.603693821338332"><ele>80.2</ele><time>2026-05-01T09:18:10.001Z</time></trkpt><trkpt lat="45.46505194637214" lon="10.603543518307658"><ele>80.0</ele><time>2026-05-01T09:18:11.001Z</time></trkpt><trkpt lat="45.46504063514981" lon="10.60340125682474"><ele>80.0</ele><time>2026-05-01T09:18:12.001Z</time></trkpt><trkpt lat="45.465029850584976" lon="10.603257811721033"><ele>80.0</ele><time>2026-05-01T09:18:13.001Z</time></trkpt><trkpt lat="45.4650722204525" lon="10.60310532060326"><ele>80.0</ele><time>2026-05-01T09:18:14.001Z</time></trkpt><trkpt lat="45.46507162217631" lon="10.602956731897876"><ele>80.0</ele><time>2026-05-01T09:18:15.001Z</time></trkpt><trkpt lat="45.465082514508104" lon="10.602829693723185"><ele>80.0</ele><time>2026-05-01T09:18:16.001Z</time></trkpt><trkpt lat="45.46504161666713" lon="10.602710822827005"><ele>79.66666666666667</ele><time>2026-05-01T09:18:17.001Z</time></trkpt><trkpt lat="45.465053591125" lon="10.602596116812904"><ele>79.33333333333334</ele><time>2026-05-01T09:18:18.001Z</time></trkpt><trkpt lat="45.465066428127756" lon="10.602492109167704"><ele>79.0</ele><time>2026-05-01T09:18:19.001Z</time></trkpt><trkpt lat="45.46509019805249" lon="10.602351395404758"><ele>78.66666666666667</ele><time>2026-05-01T09:18:21.001Z</time></trkpt><trkpt lat="45.465109179781074" lon="10.602242403642792"><ele>78.33333333333333</ele><time>2026-05-01T09:18:23.001Z</time></trkpt><trkpt lat="45.465137006496214" lon="10.60210128619673"><ele>78.0</ele><time>2026-05-01T09:18:25.001Z</time></trkpt><trkpt lat="45.465157465927476" lon="10.601995917557979"><ele>77.6</ele><time>2026-05-01T09:18:26.001Z</time></trkpt><trkpt lat="45.46514786079636" lon="10.601880969121503"><ele>77.19999999999999</ele><time>2026-05-01T09:18:27.001Z</time></trkpt><trkpt lat="45.465159287972256" lon="10.601758493320585"><ele>76.8</ele><time>2026-05-01T09:18:28.001Z</time></trkpt><trkpt lat="45.46516861684345" lon="10.601641626870146"><ele>76.39999999999999</ele><time>2026-05-01T09:18:29.001Z</time></trkpt><trkpt lat="45.46513152183967" lon="10.601503829930051"><ele>76.0</ele><time>2026-05-01T09:18:30.001Z</time></trkpt><trkpt lat="45.46508906768597" lon="10.60137780514576"><ele>76.0</ele><time>2026-05-01T09:18:31.001Z</time></trkpt><trkpt lat="45.46502583159503" lon="10.60125881882095"><ele>76.0</ele><time>2026-05-01T09:18:32.001Z</time></trkpt><trkpt lat="45.46495826465007" lon="10.601147473771508"><ele>76.0</ele><time>2026-05-01T09:18:33.001Z</time></trkpt><trkpt lat="45.46489089466822" lon="10.601037788536717"><ele>76.0</ele><time>2026-05-01T09:18:34.001Z</time></trkpt><trkpt lat="45.46482043624385" lon="10.600944893862009"><ele>76.0</ele><time>2026-05-01T09:18:35.001Z</time></trkpt><trkpt lat="45.46474926762747" lon="10.60084331038213"><ele>76.0</ele><time>2026-05-01T09:18:36.001Z</time></trkpt><trkpt lat="45.464683114480145" lon="10.600739791775549"><ele>76.0</ele><time>2026-05-01T09:18:37.001Z</time></trkpt><trkpt lat="45.464623300803204" lon="10.60063701097285"><ele>76.0</ele><time>2026-05-01T09:18:38.001Z</time></trkpt><trkpt lat="45.464574463934056" lon="10.600517895948832"><ele>76.0</ele><time>2026-05-01T09:18:39.001Z</time></trkpt><trkpt lat="45.464529226756845" lon="10.60038457027381"><ele>76.0</ele><time>2026-05-01T09:18:40.001Z</time></trkpt><trkpt lat="45.464502403363895" lon="10.600235232349426"><ele>75.25</ele><time>2026-05-01T09:18:41.001Z</time></trkpt><trkpt lat="45.46447432826452" lon="10.600084628278976"><ele>74.5</ele><time>2026-05-01T09:18:42.001Z</time></trkpt><trkpt lat="45.46442728897466" lon="10.599943658216826"><ele>73.75</ele><time>2026-05-01T09:18:43.002Z</time></trkpt><trkpt lat="45.46439108060837" lon="10.599782863089743"><ele>73.0</ele><time>2026-05-01T09:18:44.002Z</time></trkpt><trkpt lat="45.464356922544596" lon="10.59961433692348"><ele>73.0</ele><time>2026-05-01T09:18:45.002Z</time></trkpt><trkpt lat="45.4643229118415" lon="10.599445696931058"><ele>73.0</ele><time>2026-05-01T09:18:46.002Z</time></trkpt><trkpt lat="45.4642870399494" lon="10.599279242182483"><ele>73.0</ele><time>2026-05-01T09:18:47.002Z</time></trkpt><trkpt lat="45.464254027979685" lon="10.59911085108266"><ele>73.0</ele><time>2026-05-01T09:18:48.002Z</time></trkpt><trkpt lat="45.46422134285825" lon="10.598948441517978"><ele>73.0</ele><time>2026-05-01T09:18:49.002Z</time></trkpt><trkpt lat="45.464183213767924" lon="10.598786385180208"><ele>73.0</ele><time>2026-05-01T09:18:50.002Z</time></trkpt><trkpt lat="45.46414943499564" lon="10.598618838398005"><ele>73.0</ele><time>2026-05-01T09:18:51.002Z</time></trkpt><trkpt lat="45.46411543572285" lon="10.598459088829136"><ele>73.0</ele><time>2026-05-01T09:18:52.002Z</time></trkpt><trkpt lat="45.464082827699876" lon="10.598297065904994"><ele>72.5</ele><time>2026-05-01T09:18:53.002Z</time></trkpt><trkpt lat="45.46404666813845" lon="10.598128506020245"><ele>72.0</ele><time>2026-05-01T09:18:54.002Z</time></trkpt><trkpt lat="45.46401028345115" lon="10.597967229023828"><ele>71.5</ele><time>2026-05-01T09:18:55.002Z</time></trkpt><trkpt lat="45.46397278338863" lon="10.597806358106851"><ele>71.0</ele><time>2026-05-01T09:18:56.002Z</time></trkpt><trkpt lat="45.4639387968752" lon="10.597641063811373"><ele>71.0</ele><time>2026-05-01T09:18:57.002Z</time></trkpt><trkpt lat="45.46390278626214" lon="10.597471866757733"><ele>71.0</ele><time>2026-05-01T09:18:58.002Z</time></trkpt><trkpt lat="45.46387262860483" lon="10.59732304425526"><ele>71.0</ele><time>2026-05-01T09:18:59.002Z</time></trkpt><trkpt lat="45.463842399675904" lon="10.59717633227767"><ele>71.0</ele><time>2026-05-01T09:19:00.002Z</time></trkpt><trkpt lat="45.463812530613" lon="10.597009147067325"><ele>71.25</ele><time>2026-05-01T09:19:01.002Z</time></trkpt><trkpt lat="45.46377408375109" lon="10.596857683447666"><ele>71.5</ele><time>2026-05-01T09:19:02.002Z</time></trkpt><trkpt lat="45.46373928216979" lon="10.596694790675096"><ele>71.75</ele><time>2026-05-01T09:19:03.002Z</time></trkpt><trkpt lat="45.46370570976185" lon="10.596534339559067"><ele>72.0</ele><time>2026-05-01T09:19:04.002Z</time></trkpt><trkpt lat="45.46367096525651" lon="10.59637260325411"><ele>72.0</ele><time>2026-05-01T09:19:05.002Z</time></trkpt><trkpt lat="45.463634298915544" lon="10.596209985098533"><ele>72.0</ele><time>2026-05-01T09:19:06.002Z</time></trkpt><trkpt lat="45.463598433682016" lon="10.596045331016189"><ele>72.0</ele><time>2026-05-01T09:19:07.002Z</time></trkpt><trkpt lat="45.46355881781033" lon="10.595886833537715"><ele>72.0</ele><time>2026-05-01T09:19:08.002Z</time></trkpt><trkpt lat="45.4635198831162" lon="10.595727311853548"><ele>71.75</ele><time>2026-05-01T09:19:09.002Z</time></trkpt><trkpt lat="45.46348381328231" lon="10.595565290398712"><ele>71.5</ele><time>2026-05-01T09:19:10.002Z</time></trkpt><trkpt lat="45.46345220711886" lon="10.59540751483076"><ele>71.25</ele><time>2026-05-01T09:19:11.002Z</time></trkpt><trkpt lat="45.46341915649524" lon="10.595243861421409"><ele>71.0</ele><time>2026-05-01T09:19:12.002Z</time></trkpt><trkpt lat="45.463384707148585" lon="10.595091164145577"><ele>70.8</ele><time>2026-05-01T09:19:13.002Z</time></trkpt><trkpt lat="45.46335149048954" lon="10.594936608604575"><ele>70.6</ele><time>2026-05-01T09:19:14.002Z</time></trkpt><trkpt lat="45.46331966208874" lon="10.594786818711029"><ele>70.4</ele><time>2026-05-01T09:19:15.002Z</time></trkpt><trkpt lat="45.463287372385324" lon="10.59464401914099"><ele>70.2</ele><time>2026-05-01T09:19:16.002Z</time></trkpt><trkpt lat="45.463257039704615" lon="10.594508584809498"><ele>70.0</ele><time>2026-05-01T09:19:17.002Z</time></trkpt><trkpt lat="45.46322588524503" lon="10.594365803859942"><ele>70.0</ele><time>2026-05-01T09:19:18.002Z</time></trkpt><trkpt lat="45.46319600017338" lon="10.594227031703138"><ele>70.0</ele><time>2026-05-01T09:19:19.002Z</time></trkpt><trkpt lat="45.463168238095875" lon="10.594097470768734"><ele>70.0</ele><time>2026-05-01T09:19:20.002Z</time></trkpt><trkpt lat="45.46314511452235" lon="10.593980480089499"><ele>70.0</ele><time>2026-05-01T09:19:21.002Z</time></trkpt><trkpt lat="45.46312633030407" lon="10.593867154070852"><ele>70.0</ele><time>2026-05-01T09:19:22.002Z</time></trkpt><trkpt lat="45.46310531977719" lon="10.593758830970911"><ele>70.0</ele><time>2026-05-01T09:19:23.002Z</time></trkpt><trkpt lat="45.46309525088997" lon="10.59365443573284"><ele>70.0</ele><time>2026-05-01T09:19:24.002Z</time></trkpt><trkpt lat="45.463090521706846" lon="10.593551295639433"><ele>70.0</ele><time>2026-05-01T09:19:25Z</time></trkpt><trkpt lat="45.4630917187697" lon="10.593443899268875"><ele>70.0</ele><time>2026-05-01T09:19:26Z</time></trkpt><trkpt lat="45.463101462506074" lon="10.593330614019802"><ele>70.0</ele><time>2026-05-01T09:19:27Z</time></trkpt><trkpt lat="45.46311849967413" lon="10.593228554889672"><ele>70.0</ele><time>2026-05-01T09:19:28Z</time></trkpt><trkpt lat="45.46314719261972" lon="10.593082697026743"><ele>70.0</ele><time>2026-05-01T09:19:30Z</time></trkpt><trkpt lat="45.463182099793165" lon="10.592907851673296"><ele>70.2</ele><time>2026-05-01T09:19:32Z</time></trkpt><trkpt lat="45.46323548760883" lon="10.592822787555331"><ele>70.4</ele><time>2026-05-01T09:19:33Z</time></trkpt><trkpt lat="45.46322173019595" lon="10.592695475062468"><ele>70.6</ele><time>2026-05-01T09:19:34Z</time></trkpt><trkpt lat="45.46318904654869" lon="10.59255037121376"><ele>70.8</ele><time>2026-05-01T09:19:35Z</time></trkpt><trkpt lat="45.46316833737805" lon="10.592403207089706"><ele>71.0</ele><time>2026-05-01T09:19:36Z</time></trkpt><trkpt lat="45.46315559548073" lon="10.59224137622737"><ele>71.0</ele><time>2026-05-01T09:19:37Z</time></trkpt><trkpt lat="45.46315425859102" lon="10.592070954607708"><ele>71.0</ele><time>2026-05-01T09:19:38Z</time></trkpt><trkpt lat="45.4631592071103" lon="10.59189451385092"><ele>71.0</ele><time>2026-05-01T09:19:39Z</time></trkpt><trkpt lat="45.46316533440018" lon="10.591709845168944"><ele>71.0</ele><time>2026-05-01T09:19:40Z</time></trkpt><trkpt lat="45.46316800118757" lon="10.591519130261956"><ele>70.25</ele><time>2026-05-01T09:19:41Z</time></trkpt><trkpt lat="45.463169746017584" lon="10.591328029049777"><ele>69.5</ele><time>2026-05-01T09:19:42Z</time></trkpt><trkpt lat="45.46317182147831" lon="10.591127586015853"><ele>68.75</ele><time>2026-05-01T09:19:43Z</time></trkpt><trkpt lat="45.463174662747434" lon="10.590933925035186"><ele>68.0</ele><time>2026-05-01T09:19:44Z</time></trkpt><trkpt lat="45.46317294553887" lon="10.590735692666511"><ele>67.5</ele><time>2026-05-01T09:19:45Z</time></trkpt><trkpt lat="45.463169977285816" lon="10.59053418540451"><ele>67.0</ele><time>2026-05-01T09:19:46Z</time></trkpt><trkpt lat="45.46316636427096" lon="10.590325300872404"><ele>66.5</ele><time>2026-05-01T09:19:47Z</time></trkpt><trkpt lat="45.463155599467505" lon="10.590117011216908"><ele>66.0</ele><time>2026-05-01T09:19:48Z</time></trkpt><trkpt lat="45.463135281470855" lon="10.58990787654255"><ele>66.0</ele><time>2026-05-01T09:19:49Z</time></trkpt><trkpt lat="45.46309146885767" lon="10.589694170687975"><ele>66.0</ele><time>2026-05-01T09:19:50Z</time></trkpt><trkpt lat="45.463030865956874" lon="10.589489358154568"><ele>66.0</ele><time>2026-05-01T09:19:51Z</time></trkpt><trkpt lat="45.462957649417156" lon="10.589291119773037"><ele>66.0</ele><time>2026-05-01T09:19:52Z</time></trkpt><trkpt lat="45.46287722352252" lon="10.589106916015453"><ele>66.0</ele><time>2026-05-01T09:19:53Z</time></trkpt><trkpt lat="45.462795776372666" lon="10.588933470022251"><ele>66.0</ele><time>2026-05-01T09:19:54Z</time></trkpt><trkpt lat="45.46271967364635" lon="10.588748668395843"><ele>66.0</ele><time>2026-05-01T09:19:55.001Z</time></trkpt><trkpt lat="45.4626389259555" lon="10.588561408652494"><ele>66.0</ele><time>2026-05-01T09:19:56.001Z</time></trkpt><trkpt lat="45.46255947114146" lon="10.58837747261096"><ele>66.0</ele><time>2026-05-01T09:19:57.001Z</time></trkpt><trkpt lat="45.46247946997982" lon="10.588214259983824"><ele>66.0</ele><time>2026-05-01T09:19:58.001Z</time></trkpt><trkpt lat="45.46239202665921" lon="10.588040873764779"><ele>66.0</ele><time>2026-05-01T09:19:59.001Z</time></trkpt><trkpt lat="45.4623041058508" lon="10.587874552972695"><ele>66.25</ele><time>2026-05-01T09:20:00.001Z</time></trkpt><trkpt lat="45.462216156901476" lon="10.587713254412012"><ele>66.5</ele><time>2026-05-01T09:20:01.001Z</time></trkpt><trkpt lat="45.46212172853387" lon="10.587552705998021"><ele>66.75</ele><time>2026-05-01T09:20:02.001Z</time></trkpt><trkpt lat="45.462032879854156" lon="10.587393522117575"><ele>67.0</ele><time>2026-05-01T09:20:03.001Z</time></trkpt><trkpt lat="45.46194387562172" lon="10.587228178452422"><ele>67.0</ele><time>2026-05-01T09:20:04.001Z</time></trkpt><trkpt lat="45.46185107851394" lon="10.58706274313274"><ele>67.0</ele><time>2026-05-01T09:20:05.001Z</time></trkpt><trkpt lat="45.4617631641002" lon="10.586904834980068"><ele>67.0</ele><time>2026-05-01T09:20:06.001Z</time></trkpt><trkpt lat="45.461677479431835" lon="10.58674856809738"><ele>67.0</ele><time>2026-05-01T09:20:07.001Z</time></trkpt><trkpt lat="45.461602531347836" lon="10.586616405596391"><ele>67.0</ele><time>2026-05-01T09:20:08.001Z</time></trkpt><trkpt lat="45.46152919816518" lon="10.586490919728202"><ele>67.0</ele><time>2026-05-01T09:20:09.001Z</time></trkpt><trkpt lat="45.4614614499233" lon="10.58637206786158"><ele>67.0</ele><time>2026-05-01T09:20:10.001Z</time></trkpt><trkpt lat="45.46139631595366" lon="10.586254915577491"><ele>67.0</ele><time>2026-05-01T09:20:11.001Z</time></trkpt><trkpt lat="45.46132738211275" lon="10.586152336788277"><ele>67.0</ele><time>2026-05-01T09:20:12.001Z</time></trkpt><trkpt lat="45.46126838468225" lon="10.58603023248492"><ele>67.0</ele><time>2026-05-01T09:20:13.001Z</time></trkpt><trkpt lat="45.46121005025372" lon="10.585925105593828"><ele>67.0</ele><time>2026-05-01T09:20:14.001Z</time></trkpt><trkpt lat="45.46115182939876" lon="10.585820163980996"><ele>67.0</ele><time>2026-05-01T09:20:15.001Z</time></trkpt><trkpt lat="45.46109326173279" lon="10.585722841847494"><ele>67.0</ele><time>2026-05-01T09:20:16.001Z</time></trkpt><trkpt lat="45.46103724340574" lon="10.585623733244969"><ele>67.0</ele><time>2026-05-01T09:20:17.001Z</time></trkpt><trkpt lat="45.46098135175172" lon="10.585521315756246"><ele>67.0</ele><time>2026-05-01T09:20:18.001Z</time></trkpt><trkpt lat="45.46094143649469" lon="10.585443980671752"><ele>67.0</ele><time>2026-05-01T09:20:19.001Z</time></trkpt><trkpt lat="45.4608895748956" lon="10.585350577749335"><ele>67.0</ele><time>2026-05-01T09:20:21.001Z</time></trkpt><trkpt lat="45.46085008981619" lon="10.585279479723255"><ele>67.0</ele><time>2026-05-01T09:20:24.001Z</time></trkpt><trkpt lat="45.460794428416136" lon="10.585191297346153"><ele>67.0</ele><time>2026-05-01T09:20:31.001Z</time></trkpt><trkpt lat="45.46070545518982" lon="10.585067281125"><ele>67.0</ele><time>2026-05-01T09:20:33.001Z</time></trkpt><trkpt lat="45.460657576889126" lon="10.584997449051183"><ele>67.2</ele><time>2026-05-01T09:20:34.001Z</time></trkpt><trkpt lat="45.460611412757004" lon="10.584912774974255"><ele>67.4</ele><time>2026-05-01T09:20:35.001Z</time></trkpt><trkpt lat="45.46057846676181" lon="10.584777596105758"><ele>67.6</ele><time>2026-05-01T09:20:36.001Z</time></trkpt><trkpt lat="45.4605555372423" lon="10.58463575891068"><ele>67.8</ele><time>2026-05-01T09:20:37.001Z</time></trkpt><trkpt lat="45.46054029590782" lon="10.584482765447783"><ele>68.0</ele><time>2026-05-01T09:20:38.001Z</time></trkpt><trkpt lat="45.4605085770676" lon="10.584336570374782"><ele>68.0</ele><time>2026-05-01T09:20:39.001Z</time></trkpt><trkpt lat="45.46051166160714" lon="10.584163005983525"><ele>68.0</ele><time>2026-05-01T09:20:40.001Z</time></trkpt><trkpt lat="45.46049228199797" lon="10.583999700563433"><ele>68.0</ele><time>2026-05-01T09:20:41.001Z</time></trkpt><trkpt lat="45.46047633739829" lon="10.583843033316864"><ele>68.0</ele><time>2026-05-01T09:20:42.001Z</time></trkpt><trkpt lat="45.46046170773326" lon="10.583690976332848"><ele>68.2</ele><time>2026-05-01T09:20:43.001Z</time></trkpt><trkpt lat="45.460446827736774" lon="10.583541210967994"><ele>68.4</ele><time>2026-05-01T09:20:44.001Z</time></trkpt><trkpt lat="45.46043161754756" lon="10.583386773441012"><ele>68.60000000000001</ele><time>2026-05-01T09:20:45.001Z</time></trkpt><trkpt lat="45.46041740919613" lon="10.583227934929383"><ele>68.8</ele><time>2026-05-01T09:20:46.001Z</time></trkpt><trkpt lat="45.46040140899837" lon="10.583064472887372"><ele>69.0</ele><time>2026-05-01T09:20:47.001Z</time></trkpt><trkpt lat="45.46038396014313" lon="10.582893942408422"><ele>69.2</ele><time>2026-05-01T09:20:48.001Z</time></trkpt><trkpt lat="45.46036750672554" lon="10.582732834511898"><ele>69.4</ele><time>2026-05-01T09:20:49.001Z</time></trkpt><trkpt lat="45.4603522456682" lon="10.582585280412353"><ele>69.6</ele><time>2026-05-01T09:20:50.001Z</time></trkpt><trkpt lat="45.4603374249514" lon="10.582447679482598"><ele>69.8</ele><time>2026-05-01T09:20:51.001Z</time></trkpt><trkpt lat="45.460323365452254" lon="10.58232577417732"><ele>70.0</ele><time>2026-05-01T09:20:52.002Z</time></trkpt><trkpt lat="45.46031181592514" lon="10.582219147389383"><ele>70.0</ele><time>2026-05-01T09:20:53.002Z</time></trkpt><trkpt lat="45.46030482427312" lon="10.58211411270203"><ele>70.0</ele><time>2026-05-01T09:20:54.002Z</time></trkpt><trkpt lat="45.460295691617304" lon="10.581988388153748"><ele>70.0</ele><time>2026-05-01T09:20:55.002Z</time></trkpt><trkpt lat="45.46028325853925" lon="10.581867201034205"><ele>70.0</ele><time>2026-05-01T09:20:56.002Z</time></trkpt><trkpt lat="45.46027283312967" lon="10.581759234154491"><ele>70.0</ele><time>2026-05-01T09:20:57.002Z</time></trkpt><trkpt lat="45.46026217918404" lon="10.581639481251365"><ele>70.0</ele><time>2026-05-01T09:20:58.002Z</time></trkpt><trkpt lat="45.460252111593284" lon="10.581549150151274"><ele>69.66666666666666</ele><time>2026-05-01T09:20:59.002Z</time></trkpt><trkpt lat="45.46023356269801" lon="10.581455984716033"><ele>69.33333333333333</ele><time>2026-05-01T09:21:00.002Z</time></trkpt><trkpt lat="45.46020594243979" lon="10.581374556600075"><ele>69.0</ele><time>2026-05-01T09:21:01.002Z</time></trkpt><trkpt lat="45.460168550326635" lon="10.581191228254996"><ele>68.66666666666667</ele><time>2026-05-01T09:21:03.002Z</time></trkpt><trkpt lat="45.46016902934868" lon="10.581084639545868"><ele>68.33333333333334</ele><time>2026-05-01T09:21:04.002Z</time></trkpt><trkpt lat="45.46017127013954" lon="10.580962660151974"><ele>68.0</ele><time>2026-05-01T09:21:05.002Z</time></trkpt><trkpt lat="45.4601711189231" lon="10.580851192599258"><ele>68.0</ele><time>2026-05-01T09:21:06.002Z</time></trkpt><trkpt lat="45.46017132372602" lon="10.580716755591823"><ele>68.0</ele><time>2026-05-01T09:21:07.002Z</time></trkpt><trkpt lat="45.46016371876655" lon="10.58056978290113"><ele>68.0</ele><time>2026-05-01T09:21:08.002Z</time></trkpt><trkpt lat="45.46014939236575" lon="10.580418403532672"><ele>68.0</ele><time>2026-05-01T09:21:09.002Z</time></trkpt><trkpt lat="45.460131124074465" lon="10.580265900180347"><ele>68.0</ele><time>2026-05-01T09:21:10.002Z</time></trkpt><trkpt lat="45.46011315259087" lon="10.580109797982693"><ele>68.0</ele><time>2026-05-01T09:21:11.002Z</time></trkpt><trkpt lat="45.46009447417332" lon="10.579949991859857"><ele>68.0</ele><time>2026-05-01T09:21:12.002Z</time></trkpt><trkpt lat="45.46007705398683" lon="10.579790213854663"><ele>68.0</ele><time>2026-05-01T09:21:13.002Z</time></trkpt><trkpt lat="45.4600596422154" lon="10.579652499762199"><ele>68.0</ele><time>2026-05-01T09:21:14.002Z</time></trkpt><trkpt lat="45.4600444065736" lon="10.57952632465597"><ele>68.0</ele><time>2026-05-01T09:21:15.002Z</time></trkpt><trkpt lat="45.46003198274553" lon="10.579410526935833"><ele>68.0</ele><time>2026-05-01T09:21:16.002Z</time></trkpt><trkpt lat="45.460027927264655" lon="10.579277213743849"><ele>68.0</ele><time>2026-05-01T09:21:17.002Z</time></trkpt><trkpt lat="45.46001567488164" lon="10.579168998915975"><ele>68.0</ele><time>2026-05-01T09:21:18.002Z</time></trkpt><trkpt lat="45.45999953423692" lon="10.579056883428477"><ele>68.0</ele><time>2026-05-01T09:21:19.002Z</time></trkpt><trkpt lat="45.459988453589986" lon="10.5789487197925"><ele>68.0</ele><time>2026-05-01T09:21:20.002Z</time></trkpt><trkpt lat="45.45997714992386" lon="10.578831041567199"><ele>68.0</ele><time>2026-05-01T09:21:21.002Z</time></trkpt><trkpt lat="45.45996328594208" lon="10.57873114431036"><ele>67.8</ele><time>2026-05-01T09:21:22.002Z</time></trkpt><trkpt lat="45.4599427990042" lon="10.578580355971464"><ele>67.6</ele><time>2026-05-01T09:21:24.002Z</time></trkpt><trkpt lat="45.45992260683689" lon="10.578465160797464"><ele>67.4</ele><time>2026-05-01T09:21:27.002Z</time></trkpt><trkpt lat="45.45991516925788" lon="10.578343545222943"><ele>67.2</ele><time>2026-05-01T09:21:29.002Z</time></trkpt><trkpt lat="45.459898135238824" lon="10.578190340120825"><ele>67.0</ele><time>2026-05-01T09:21:31Z</time></trkpt><trkpt lat="45.459883526390435" lon="10.578075110270325"><ele>67.0</ele><time>2026-05-01T09:21:33Z</time></trkpt><trkpt lat="45.459869553665264" lon="10.577957277422247"><ele>67.0</ele><time>2026-05-01T09:21:35Z</time></trkpt><trkpt lat="45.45986414065139" lon="10.57786557751655"><ele>67.0</ele><time>2026-05-01T09:21:38Z</time></trkpt><trkpt lat="45.459860670339616" lon="10.577754591785075"><ele>67.0</ele><time>2026-05-01T09:22:16.001Z</time></trkpt><trkpt lat="45.45984448228362" lon="10.577570396622768"><ele>67.0</ele><time>2026-05-01T09:22:18.001Z</time></trkpt><trkpt lat="45.459829082503724" lon="10.577445752194693"><ele>67.0</ele><time>2026-05-01T09:22:19.001Z</time></trkpt><trkpt lat="45.459809565359244" lon="10.577293515091453"><ele>67.25</ele><time>2026-05-01T09:22:20.001Z</time></trkpt><trkpt lat="45.45979640539173" lon="10.577126749400467"><ele>67.5</ele><time>2026-05-01T09:22:21.001Z</time></trkpt><trkpt lat="45.459787405096655" lon="10.57694201313672"><ele>67.75</ele><time>2026-05-01T09:22:22.001Z</time></trkpt><trkpt lat="45.45977721571437" lon="10.57676120238373"><ele>68.0</ele><time>2026-05-01T09:22:23.001Z</time></trkpt><trkpt lat="45.45977180906056" lon="10.576590440328008"><ele>68.4</ele><time>2026-05-01T09:22:24.001Z</time></trkpt><trkpt lat="45.4597681382754" lon="10.576425291412177"><ele>68.8</ele><time>2026-05-01T09:22:25.001Z</time></trkpt><trkpt lat="45.45976704256178" lon="10.57627496989144"><ele>69.2</ele><time>2026-05-01T09:22:26.001Z</time></trkpt><trkpt lat="45.45976475715536" lon="10.576132774181652"><ele>69.6</ele><time>2026-05-01T09:22:27.001Z</time></trkpt><trkpt lat="45.45976337123729" lon="10.575995449068085"><ele>70.0</ele><time>2026-05-01T09:22:28.001Z</time></trkpt><trkpt lat="45.459766349794094" lon="10.575856090890841"><ele>70.0</ele><time>2026-05-01T09:22:29.001Z</time></trkpt><trkpt lat="45.45978207841732" lon="10.575718606810474"><ele>70.0</ele><time>2026-05-01T09:22:30.001Z</time></trkpt><trkpt lat="45.45980723117458" lon="10.575563012892188"><ele>70.0</ele><time>2026-05-01T09:22:31.001Z</time></trkpt><trkpt lat="45.459833963748856" lon="10.575386391729381"><ele>70.0</ele><time>2026-05-01T09:22:32.001Z</time></trkpt><trkpt lat="45.45986192036999" lon="10.575236993277326"><ele>70.0</ele><time>2026-05-01T09:22:33.001Z</time></trkpt><trkpt lat="45.45989452758238" lon="10.575071816260573"><ele>70.0</ele><time>2026-05-01T09:22:34.001Z</time></trkpt><trkpt lat="45.45993042691742" lon="10.57488453450007"><ele>70.0</ele><time>2026-05-01T09:22:35.001Z</time></trkpt><trkpt lat="45.45995995407149" lon="10.574664042135945"><ele>70.0</ele><time>2026-05-01T09:22:36.001Z</time></trkpt><trkpt lat="45.459974496694954" lon="10.574417731200715"><ele>70.0</ele><time>2026-05-01T09:22:37.001Z</time></trkpt><trkpt lat="45.459997688011725" lon="10.57415187740034"><ele>70.0</ele><time>2026-05-01T09:22:38.001Z</time></trkpt><trkpt lat="45.46002528748209" lon="10.573905673295473"><ele>70.0</ele><time>2026-05-01T09:22:39.001Z</time></trkpt><trkpt lat="45.46004389235037" lon="10.573696104811113"><ele>70.75</ele><time>2026-05-01T09:22:40.001Z</time></trkpt><trkpt lat="45.460070876973354" lon="10.573483976530216"><ele>71.5</ele><time>2026-05-01T09:22:41.001Z</time></trkpt><trkpt lat="45.46009367904982" lon="10.573277208656064"><ele>72.25</ele><time>2026-05-01T09:22:42.001Z</time></trkpt><trkpt lat="45.460111668142844" lon="10.573094341073459"><ele>73.0</ele><time>2026-05-01T09:22:43.001Z</time></trkpt><trkpt lat="45.460133010248995" lon="10.572923164814773"><ele>73.2</ele><time>2026-05-01T09:22:44.001Z</time></trkpt><trkpt lat="45.46015010981838" lon="10.572760631862186"><ele>73.4</ele><time>2026-05-01T09:22:45.001Z</time></trkpt><trkpt lat="45.46016579621036" lon="10.57261378565873"><ele>73.60000000000001</ele><time>2026-05-01T09:22:46.001Z</time></trkpt><trkpt lat="45.46018040064927" lon="10.572479551725129"><ele>73.8</ele><time>2026-05-01T09:22:47.001Z</time></trkpt><trkpt lat="45.46019197163584" lon="10.572351124149254"><ele>74.0</ele><time>2026-05-01T09:22:48.001Z</time></trkpt><trkpt lat="45.460206279906934" lon="10.572216643828407"><ele>74.0</ele><time>2026-05-01T09:22:49.001Z</time></trkpt><trkpt lat="45.46021917606273" lon="10.57207749442565"><ele>74.0</ele><time>2026-05-01T09:22:50.001Z</time></trkpt><trkpt lat="45.460230261924806" lon="10.571928722791066"><ele>74.0</ele><time>2026-05-01T09:22:51.001Z</time></trkpt><trkpt lat="45.46025867822242" lon="10.571751506653367"><ele>74.0</ele><time>2026-05-01T09:22:52.001Z</time></trkpt><trkpt lat="45.46027969974626" lon="10.57156234811093"><ele>74.60000000000001</ele><time>2026-05-01T09:22:53.001Z</time></trkpt><trkpt lat="45.46028654656531" lon="10.571371609500128"><ele>75.2</ele><time>2026-05-01T09:22:54.001Z</time></trkpt><trkpt lat="45.460310795078044" lon="10.571209982471371"><ele>75.80000000000001</ele><time>2026-05-01T09:22:55.001Z</time></trkpt><trkpt lat="45.4603332315758" lon="10.571073337819007"><ele>76.4</ele><time>2026-05-01T09:22:56.001Z</time></trkpt><trkpt lat="45.46035410543259" lon="10.5709656163831"><ele>77.0</ele><time>2026-05-01T09:22:57.001Z</time></trkpt><trkpt lat="45.460371566012036" lon="10.570813940562783"><ele>77.16666666666667</ele><time>2026-05-01T09:22:59.001Z</time></trkpt><trkpt lat="45.460386261004096" lon="10.570691326289172"><ele>77.33333333333334</ele><time>2026-05-01T09:23:02.001Z</time></trkpt><trkpt lat="45.46039048296204" lon="10.570585931118353"><ele>77.5</ele><time>2026-05-01T09:23:05.002Z</time></trkpt><trkpt lat="45.46041703875059" lon="10.570469913194241"><ele>77.66666666666667</ele><time>2026-05-01T09:23:07.002Z</time></trkpt><trkpt lat="45.46044857813368" lon="10.570315128884621"><ele>77.83333333333333</ele><time>2026-05-01T09:23:09.002Z</time></trkpt><trkpt lat="45.46044485142336" lon="10.570210413278778"><ele>78.0</ele><time>2026-05-01T09:23:10.002Z</time></trkpt><trkpt lat="45.460447195980976" lon="10.570097660872966"><ele>77.16666666666667</ele><time>2026-05-01T09:23:11.002Z</time></trkpt><trkpt lat="45.46045673315069" lon="10.569994071145334"><ele>76.33333333333333</ele><time>2026-05-01T09:23:12.002Z</time></trkpt><trkpt lat="45.46046774487027" lon="10.569876718704453"><ele>75.5</ele><time>2026-05-01T09:23:13.002Z</time></trkpt><trkpt lat="45.46048059797883" lon="10.569761023122751"><ele>74.66666666666666</ele><time>2026-05-01T09:23:14.002Z</time></trkpt><trkpt lat="45.46049413691526" lon="10.569643113485297"><ele>73.83333333333333</ele><time>2026-05-01T09:23:15.002Z</time></trkpt><trkpt lat="45.460511751996385" lon="10.56951323011735"><ele>73.0</ele><time>2026-05-01T09:23:16.002Z</time></trkpt><trkpt lat="45.460536183053435" lon="10.569374483235976"><ele>74.83333333333333</ele><time>2026-05-01T09:23:17.002Z</time></trkpt><trkpt lat="45.460548681519946" lon="10.569244758055422"><ele>76.66666666666666</ele><time>2026-05-01T09:23:18.002Z</time></trkpt><trkpt lat="45.4605575872819" lon="10.569120355317569"><ele>78.5</ele><time>2026-05-01T09:23:19.002Z</time></trkpt><trkpt lat="45.46056809658192" lon="10.5690021198855"><ele>80.33333333333333</ele><time>2026-05-01T09:23:20.002Z</time></trkpt><trkpt lat="45.460576403252624" lon="10.568892463281058"><ele>82.16666666666667</ele><time>2026-05-01T09:23:21.002Z</time></trkpt><trkpt lat="45.46059272937398" lon="10.568777819636674"><ele>84.0</ele><time>2026-05-01T09:23:22.002Z</time></trkpt><trkpt lat="45.460603784876106" lon="10.568672684218898"><ele>84.42857142857143</ele><time>2026-05-01T09:23:23.002Z</time></trkpt><trkpt lat="45.4606159760659" lon="10.568568042678363"><ele>84.85714285714286</ele><time>2026-05-01T09:23:24.002Z</time></trkpt><trkpt lat="45.46062633160325" lon="10.568476631712011"><ele>85.28571428571428</ele><time>2026-05-01T09:23:25.002Z</time></trkpt><trkpt lat="45.460640130691374" lon="10.568386575450504"><ele>85.71428571428572</ele><time>2026-05-01T09:23:26.002Z</time></trkpt><trkpt lat="45.460653294386454" lon="10.56829770029749"><ele>86.14285714285714</ele><time>2026-05-01T09:23:27.002Z</time></trkpt><trkpt lat="45.460672638645995" lon="10.568143310401226"><ele>86.57142857142857</ele><time>2026-05-01T09:23:29.002Z</time></trkpt><trkpt lat="45.46067763654488" lon="10.568049988663155"><ele>87.0</ele><time>2026-05-01T09:23:31.002Z</time></trkpt><trkpt lat="45.460685672077524" lon="10.56794401493539"><ele>86.16666666666667</ele><time>2026-05-01T09:23:33.002Z</time></trkpt><trkpt lat="45.46069862412276" lon="10.567837820666755"><ele>85.33333333333333</ele><time>2026-05-01T09:23:35.002Z</time></trkpt><trkpt lat="45.46070754868117" lon="10.567720546283773"><ele>84.5</ele><time>2026-05-01T09:23:37Z</time></trkpt><trkpt lat="45.460723676904806" lon="10.567595015830463"><ele>83.66666666666666</ele><time>2026-05-01T09:23:39Z</time></trkpt><trkpt lat="45.46073720838792" lon="10.567476671134303"><ele>82.83333333333333</ele><time>2026-05-01T09:23:41Z</time></trkpt><trkpt lat="45.4607483099563" lon="10.567369226420217"><ele>82.0</ele><time>2026-05-01T09:23:43Z</time></trkpt><trkpt lat="45.460767345433325" lon="10.567226366679996"><ele>82.0</ele><time>2026-05-01T09:23:45Z</time></trkpt><trkpt lat="45.46078329296188" lon="10.567062327392854"><ele>82.0</ele><time>2026-05-01T09:23:47Z</time></trkpt><trkpt lat="45.46078394830116" lon="10.566955397046627"><ele>82.0</ele><time>2026-05-01T09:23:48Z</time></trkpt><trkpt lat="45.46078836630082" lon="10.56683301114589"><ele>82.0</ele><time>2026-05-01T09:23:49Z</time></trkpt><trkpt lat="45.460795823059975" lon="10.566716473776983"><ele>82.0</ele><time>2026-05-01T09:23:50Z</time></trkpt><trkpt lat="45.46080511103557" lon="10.566614794209164"><ele>82.0</ele><time>2026-05-01T09:23:51Z</time></trkpt><trkpt lat="45.4608143376286" lon="10.566508049323561"><ele>82.0</ele><time>2026-05-01T09:23:52Z</time></trkpt><trkpt lat="45.460822624297286" lon="10.566411458058607"><ele>82.0</ele><time>2026-05-01T09:23:53Z</time></trkpt><trkpt lat="45.460833528469635" lon="10.566300741906892"><ele>82.0</ele><time>2026-05-01T09:23:54Z</time></trkpt><trkpt lat="45.4608470968442" lon="10.566179851898472"><ele>82.0</ele><time>2026-05-01T09:23:55Z</time></trkpt><trkpt lat="45.46085378703269" lon="10.56607470090532"><ele>82.0</ele><time>2026-05-01T09:23:56Z</time></trkpt><trkpt lat="45.46085841987565" lon="10.565984013601764"><ele>82.0</ele><time>2026-05-01T09:23:57Z</time></trkpt><trkpt lat="45.4608629212829" lon="10.565815103909962"><ele>82.0</ele><time>2026-05-01T09:23:59Z</time></trkpt><trkpt lat="45.46087271839203" lon="10.56571324299505"><ele>82.0</ele><time>2026-05-01T09:24:00Z</time></trkpt><trkpt lat="45.46088231896305" lon="10.565607145011993"><ele>82.0</ele><time>2026-05-01T09:24:01Z</time></trkpt><trkpt lat="45.46089105097897" lon="10.565482219791443"><ele>82.0</ele><time>2026-05-01T09:24:02Z</time></trkpt><trkpt lat="45.460894294601786" lon="10.565364691536479"><ele>82.0</ele><time>2026-05-01T09:24:03Z</time></trkpt><trkpt lat="45.460904556509796" lon="10.565233005329814"><ele>82.0</ele><time>2026-05-01T09:24:04Z</time></trkpt><trkpt lat="45.46091520077398" lon="10.565100235238498"><ele>81.8</ele><time>2026-05-01T09:24:05Z</time></trkpt><trkpt lat="45.46092685737894" lon="10.564954191609816"><ele>81.6</ele><time>2026-05-01T09:24:06Z</time></trkpt><trkpt lat="45.46094045683156" lon="10.564803874617487"><ele>81.39999999999999</ele><time>2026-05-01T09:24:07Z</time></trkpt><trkpt lat="45.460946210237175" lon="10.56465545744659"><ele>81.19999999999999</ele><time>2026-05-01T09:24:08Z</time></trkpt><trkpt lat="45.46095931339738" lon="10.564519934586299"><ele>81.0</ele><time>2026-05-01T09:24:09Z</time></trkpt><trkpt lat="45.46097220705884" lon="10.564397142523578"><ele>80.8</ele><time>2026-05-01T09:24:10Z</time></trkpt><trkpt lat="45.46098338036162" lon="10.564266046090038"><ele>80.6</ele><time>2026-05-01T09:24:11Z</time></trkpt><trkpt lat="45.4609965971561" lon="10.564127222263698"><ele>80.4</ele><time>2026-05-01T09:24:12Z</time></trkpt><trkpt lat="45.46099988634203" lon="10.563973371669189"><ele>80.2</ele><time>2026-05-01T09:24:13Z</time></trkpt><trkpt lat="45.46102287217186" lon="10.563830340693054"><ele>80.0</ele><time>2026-05-01T09:24:14.001Z</time></trkpt><trkpt lat="45.461045715948416" lon="10.563688894611708"><ele>80.0</ele><time>2026-05-01T09:24:15.001Z</time></trkpt><trkpt lat="45.461062256145716" lon="10.563551957240604"><ele>80.0</ele><time>2026-05-01T09:24:16.001Z</time></trkpt><trkpt lat="45.4610817619077" lon="10.563414289166172"><ele>80.0</ele><time>2026-05-01T09:24:17.001Z</time></trkpt><trkpt lat="45.46109863015053" lon="10.5632631646934"><ele>80.0</ele><time>2026-05-01T09:24:18.001Z</time></trkpt><trkpt lat="45.46111762788414" lon="10.56311810584937"><ele>80.0</ele><time>2026-05-01T09:24:19.001Z</time></trkpt><trkpt lat="45.461135036313124" lon="10.562975966108302"><ele>79.75</ele><time>2026-05-01T09:24:20.001Z</time></trkpt><trkpt lat="45.46114389875579" lon="10.562826278398935"><ele>79.5</ele><time>2026-05-01T09:24:21.001Z</time></trkpt><trkpt lat="45.46114866427827" lon="10.562677578098453"><ele>79.25</ele><time>2026-05-01T09:24:22.001Z</time></trkpt><trkpt lat="45.46115157893545" lon="10.562522148855786"><ele>79.0</ele><time>2026-05-01T09:24:23.001Z</time></trkpt><trkpt lat="45.46114105606068" lon="10.562330513397827"><ele>79.0</ele><time>2026-05-01T09:24:24.001Z</time></trkpt><trkpt lat="45.461134656297546" lon="10.56208499840936"><ele>79.0</ele><time>2026-05-01T09:24:25.001Z</time></trkpt><trkpt lat="45.461144487333605" lon="10.561838656497294"><ele>79.0</ele><time>2026-05-01T09:24:26.001Z</time></trkpt><trkpt lat="45.461149539649725" lon="10.561621943727552"><ele>78.5</ele><time>2026-05-01T09:24:27.001Z</time></trkpt><trkpt lat="45.46114907473329" lon="10.561413248018313"><ele>78.0</ele><time>2026-05-01T09:24:28.001Z</time></trkpt><trkpt lat="45.46114824690348" lon="10.561221598598122"><ele>77.5</ele><time>2026-05-01T09:24:29.001Z</time></trkpt><trkpt lat="45.46114628474383" lon="10.561054262098182"><ele>77.0</ele><time>2026-05-01T09:24:30.001Z</time></trkpt><trkpt lat="45.46114895397306" lon="10.560899356811108"><ele>77.0</ele><time>2026-05-01T09:24:31.001Z</time></trkpt><trkpt lat="45.46115004920028" lon="10.56077262306023"><ele>77.0</ele><time>2026-05-01T09:24:32.001Z</time></trkpt><trkpt lat="45.4611501257041" lon="10.560668642218694"><ele>77.0</ele><time>2026-05-01T09:24:33.001Z</time></trkpt><trkpt lat="45.461157890719974" lon="10.560520655585039"><ele>77.0</ele><time>2026-05-01T09:24:35.001Z</time></trkpt><trkpt lat="45.461169923391815" lon="10.560405927179144"><ele>77.0</ele><time>2026-05-01T09:24:38.001Z</time></trkpt><trkpt lat="45.46119324347187" lon="10.560307374105593"><ele>77.0</ele><time>2026-05-01T09:24:40.001Z</time></trkpt><trkpt lat="45.46122800501557" lon="10.560212063260638"><ele>76.66666666666667</ele><time>2026-05-01T09:24:44.001Z</time></trkpt><trkpt lat="45.461254851765894" lon="10.560120352707346"><ele>76.33333333333334</ele><time>2026-05-01T09:24:46.001Z</time></trkpt><trkpt lat="45.4612474903633" lon="10.559974244250759"><ele>76.0</ele><time>2026-05-01T09:24:48.001Z</time></trkpt><trkpt lat="45.461210365074436" lon="10.559893260687721"><ele>75.66666666666667</ele><time>2026-05-01T09:24:49.001Z</time></trkpt><trkpt lat="45.461184669235" lon="10.559808156065026"><ele>75.33333333333333</ele><time>2026-05-01T09:24:50.001Z</time></trkpt><trkpt lat="45.46117209913611" lon="10.559698297345525"><ele>75.0</ele><time>2026-05-01T09:24:51.001Z</time></trkpt><trkpt lat="45.46117219369282" lon="10.559591166517173"><ele>75.5</ele><time>2026-05-01T09:24:52.001Z</time></trkpt><trkpt lat="45.46118135299055" lon="10.559490994269572"><ele>76.0</ele><time>2026-05-01T09:24:53.001Z</time></trkpt><trkpt lat="45.461189234342854" lon="10.559392127710442"><ele>76.5</ele><time>2026-05-01T09:24:54.001Z</time></trkpt><trkpt lat="45.46120149305216" lon="10.559285835693421"><ele>77.0</ele><time>2026-05-01T09:24:55.001Z</time></trkpt><trkpt lat="45.46122064850679" lon="10.559173850161699"><ele>77.5</ele><time>2026-05-01T09:24:56.001Z</time></trkpt><trkpt lat="45.46123960937938" lon="10.559061115934798"><ele>78.0</ele><time>2026-05-01T09:24:57.001Z</time></trkpt><trkpt lat="45.46127553438555" lon="10.55895580645372"><ele>77.5</ele><time>2026-05-01T09:24:58.001Z</time></trkpt><trkpt lat="45.46131042805372" lon="10.558854300822643"><ele>77.0</ele><time>2026-05-01T09:24:59.001Z</time></trkpt><trkpt lat="45.46135273470435" lon="10.558743445830153"><ele>76.5</ele><time>2026-05-01T09:25:00.001Z</time></trkpt><trkpt lat="45.461393034924534" lon="10.558639486889241"><ele>76.0</ele><time>2026-05-01T09:25:01.001Z</time></trkpt><trkpt lat="45.461435406718" lon="10.558537856737974"><ele>75.5</ele><time>2026-05-01T09:25:02.001Z</time></trkpt><trkpt lat="45.46147979056792" lon="10.558432316640557"><ele>75.0</ele><time>2026-05-01T09:25:03.001Z</time></trkpt><trkpt lat="45.46151723319615" lon="10.558329254688678"><ele>75.0</ele><time>2026-05-01T09:25:04.001Z</time></trkpt><trkpt lat="45.461557056543676" lon="10.558233074239775"><ele>75.0</ele><time>2026-05-01T09:25:05.001Z</time></trkpt><trkpt lat="45.46159527044041" lon="10.558134195276994"><ele>75.0</ele><time>2026-05-01T09:25:06.001Z</time></trkpt><trkpt lat="45.46163605677368" lon="10.558029744766452"><ele>75.0</ele><time>2026-05-01T09:25:07.001Z</time></trkpt><trkpt lat="45.461668574338816" lon="10.557924858151623"><ele>75.0</ele><time>2026-05-01T09:25:08.002Z</time></trkpt><trkpt lat="45.46170324232665" lon="10.557825313851781"><ele>75.0</ele><time>2026-05-01T09:25:09.002Z</time></trkpt><trkpt lat="45.461741362011466" lon="10.557718214862438"><ele>75.16666666666667</ele><time>2026-05-01T09:25:10.002Z</time></trkpt><trkpt lat="45.46178542812437" lon="10.557607563202092"><ele>75.33333333333333</ele><time>2026-05-01T09:25:11.002Z</time></trkpt><trkpt lat="45.46183064679022" lon="10.557497828384017"><ele>75.5</ele><time>2026-05-01T09:25:12.002Z</time></trkpt><trkpt lat="45.461857994843264" lon="10.55741398102283"><ele>75.66666666666666</ele><time>2026-05-01T09:25:13.002Z</time></trkpt><trkpt lat="45.461903574406286" lon="10.557277947241035"><ele>75.83333333333333</ele><time>2026-05-01T09:25:15.002Z</time></trkpt><trkpt lat="45.46195087835707" lon="10.557164369956952"><ele>76.0</ele><time>2026-05-01T09:25:17.002Z</time></trkpt><trkpt lat="45.46200023604189" lon="10.557024420699408"><ele>76.0</ele><time>2026-05-01T09:25:19.002Z</time></trkpt><trkpt lat="45.462059097038185" lon="10.55688238637957"><ele>76.0</ele><time>2026-05-01T09:25:21.002Z</time></trkpt><trkpt lat="45.4620848143688" lon="10.556773234837287"><ele>76.0</ele><time>2026-05-01T09:25:22.002Z</time></trkpt><trkpt lat="45.46211337910903" lon="10.556663846793557"><ele>76.0</ele><time>2026-05-01T09:25:23.002Z</time></trkpt><trkpt lat="45.46216432953993" lon="10.556522427342044"><ele>76.0</ele><time>2026-05-01T09:25:24.002Z</time></trkpt><trkpt lat="45.46223361245639" lon="10.556355651469143"><ele>75.25</ele><time>2026-05-01T09:25:25.002Z</time></trkpt><trkpt lat="45.462308845309735" lon="10.556190825000613"><ele>74.5</ele><time>2026-05-01T09:25:26.002Z</time></trkpt><trkpt lat="45.46237322888638" lon="10.556038007374857"><ele>73.75</ele><time>2026-05-01T09:25:27.002Z</time></trkpt><trkpt lat="45.4624421840097" lon="10.555895287519368"><ele>73.0</ele><time>2026-05-01T09:25:28.002Z</time></trkpt><trkpt lat="45.462503434121935" lon="10.555751437361819"><ele>73.0</ele><time>2026-05-01T09:25:29.002Z</time></trkpt><trkpt lat="45.46257275396838" lon="10.555618233963504"><ele>73.0</ele><time>2026-05-01T09:25:30.002Z</time></trkpt><trkpt lat="45.46263917922675" lon="10.55550501276761"><ele>73.0</ele><time>2026-05-01T09:25:31.002Z</time></trkpt><trkpt lat="45.46269869435302" lon="10.555440489000116"><ele>73.0</ele><time>2026-05-01T09:25:32.002Z</time></trkpt><trkpt lat="45.46277764465146" lon="10.555328579637084"><ele>73.0</ele><time>2026-05-01T09:25:34.002Z</time></trkpt><trkpt lat="45.46287192631031" lon="10.555190434634222"><ele>73.25</ele><time>2026-05-01T09:25:36.002Z</time></trkpt><trkpt lat="45.46293185645127" lon="10.555100690711376"><ele>73.5</ele><time>2026-05-01T09:25:37.002Z</time></trkpt><trkpt lat="45.46300554308334" lon="10.554992828903925"><ele>73.75</ele><time>2026-05-01T09:25:38.002Z</time></trkpt><trkpt lat="45.46309365578831" lon="10.554855148979549"><ele>74.0</ele><time>2026-05-01T09:25:39.002Z</time></trkpt><trkpt lat="45.46318899116404" lon="10.554710989794147"><ele>73.0</ele><time>2026-05-01T09:25:40.002Z</time></trkpt><trkpt lat="45.46328970698897" lon="10.554524115636786"><ele>72.0</ele><time>2026-05-01T09:25:41.002Z</time></trkpt><trkpt lat="45.46338648476869" lon="10.554312100077048"><ele>71.0</ele><time>2026-05-01T09:25:42.002Z</time></trkpt><trkpt lat="45.463477823909244" lon="10.554103004051552"><ele>71.0</ele><time>2026-05-01T09:25:43Z</time></trkpt><trkpt lat="45.46355665364369" lon="10.55389297687809"><ele>71.0</ele><time>2026-05-01T09:25:44Z</time></trkpt><trkpt lat="45.463639343028916" lon="10.553685361455058"><ele>71.0</ele><time>2026-05-01T09:25:45Z</time></trkpt><trkpt lat="45.46371831900123" lon="10.553482032148844"><ele>71.5</ele><time>2026-05-01T09:25:46Z</time></trkpt><trkpt lat="45.463794492702654" lon="10.553294266576122"><ele>72.0</ele><time>2026-05-01T09:25:47Z</time></trkpt><trkpt lat="45.463871332372584" lon="10.553110961719591"><ele>72.5</ele><time>2026-05-01T09:25:48Z</time></trkpt><trkpt lat="45.463948548614795" lon="10.552940487574704"><ele>73.0</ele><time>2026-05-01T09:25:49Z</time></trkpt><trkpt lat="45.464018244531644" lon="10.552756061474122"><ele>73.0</ele><time>2026-05-01T09:25:50Z</time></trkpt><trkpt lat="45.46407931315465" lon="10.552579881241524"><ele>73.0</ele><time>2026-05-01T09:25:51Z</time></trkpt><trkpt lat="45.46413553659394" lon="10.55240662067082"><ele>73.0</ele><time>2026-05-01T09:25:52Z</time></trkpt><trkpt lat="45.46420110787651" lon="10.552253116304977"><ele>73.0</ele><time>2026-05-01T09:25:53Z</time></trkpt><trkpt lat="45.46427690013388" lon="10.552099111088758"><ele>73.0</ele><time>2026-05-01T09:25:54Z</time></trkpt><trkpt lat="45.46435139466234" lon="10.551936501002185"><ele>73.0</ele><time>2026-05-01T09:25:55Z</time></trkpt><trkpt lat="45.46443405668436" lon="10.55179065404913"><ele>73.0</ele><time>2026-05-01T09:25:56Z</time></trkpt><trkpt lat="45.46452955043244" lon="10.551639447916088"><ele>73.0</ele><time>2026-05-01T09:25:57Z</time></trkpt><trkpt lat="45.464624937598984" lon="10.551489933675363"><ele>72.75</ele><time>2026-05-01T09:25:58Z</time></trkpt><trkpt lat="45.464713775351306" lon="10.551339659412568"><ele>72.5</ele><time>2026-05-01T09:25:59Z</time></trkpt><trkpt lat="45.464792752838605" lon="10.551199063679697"><ele>72.25</ele><time>2026-05-01T09:26:00Z</time></trkpt><trkpt lat="45.46487086332032" lon="10.551072355092298"><ele>72.0</ele><time>2026-05-01T09:26:01Z</time></trkpt><trkpt lat="45.464943941230125" lon="10.550963952734882"><ele>72.0</ele><time>2026-05-01T09:26:02Z</time></trkpt><trkpt lat="45.46500657583949" lon="10.550855571801266"><ele>72.0</ele><time>2026-05-01T09:26:03Z</time></trkpt><trkpt lat="45.465072734333226" lon="10.55073643924243"><ele>72.0</ele><time>2026-05-01T09:26:04Z</time></trkpt><trkpt lat="45.46514353359759" lon="10.550620750263834"><ele>72.0</ele><time>2026-05-01T09:26:05Z</time></trkpt><trkpt lat="45.46521787167438" lon="10.55051602304502"><ele>72.0</ele><time>2026-05-01T09:26:06Z</time></trkpt><trkpt lat="45.46529569011934" lon="10.550402289400697"><ele>71.75</ele><time>2026-05-01T09:26:07Z</time></trkpt><trkpt lat="45.465366914799326" lon="10.550282760482357"><ele>71.5</ele><time>2026-05-01T09:26:08Z</time></trkpt><trkpt lat="45.46543157839442" lon="10.550149350991028"><ele>71.25</ele><time>2026-05-01T09:26:09Z</time></trkpt><trkpt lat="45.465499837776775" lon="10.550017713418363"><ele>71.0</ele><time>2026-05-01T09:26:10Z</time></trkpt><trkpt lat="45.46556703530835" lon="10.549886482604938"><ele>71.0</ele><time>2026-05-01T09:26:11Z</time></trkpt><trkpt lat="45.465622326463354" lon="10.54975371752896"><ele>71.0</ele><time>2026-05-01T09:26:12Z</time></trkpt><trkpt lat="45.46566780727347" lon="10.549634752340681"><ele>71.0</ele><time>2026-05-01T09:26:13Z</time></trkpt><trkpt lat="45.46571238819267" lon="10.54952799390575"><ele>71.0</ele><time>2026-05-01T09:26:14Z</time></trkpt><trkpt lat="45.46578985974108" lon="10.549425657848708"><ele>71.0</ele><time>2026-05-01T09:26:15Z</time></trkpt><trkpt lat="45.465848904478456" lon="10.549314501087725"><ele>71.5</ele><time>2026-05-01T09:26:16Z</time></trkpt><trkpt lat="45.465907790910364" lon="10.549175885899494"><ele>72.0</ele><time>2026-05-01T09:26:17Z</time></trkpt><trkpt lat="45.46595963485903" lon="10.54901723325536"><ele>72.5</ele><time>2026-05-01T09:26:18Z</time></trkpt><trkpt lat="45.466016313001894" lon="10.54887266216191"><ele>73.0</ele><time>2026-05-01T09:26:19Z</time></trkpt><trkpt lat="45.46606821143133" lon="10.548743791556262"><ele>72.75</ele><time>2026-05-01T09:26:20Z</time></trkpt><trkpt lat="45.46611802194227" lon="10.548585671289372"><ele>72.5</ele><time>2026-05-01T09:26:21Z</time></trkpt><trkpt lat="45.46616614407786" lon="10.548436240960012"><ele>72.25</ele><time>2026-05-01T09:26:22Z</time></trkpt><trkpt lat="45.466210412563356" lon="10.548285527670462"><ele>72.0</ele><time>2026-05-01T09:26:23Z</time></trkpt><trkpt lat="45.4662622589764" lon="10.548135949361477"><ele>72.0</ele><time>2026-05-01T09:26:24Z</time></trkpt><trkpt lat="45.466312267343305" lon="10.547987647666805"><ele>72.0</ele><time>2026-05-01T09:26:25Z</time></trkpt><trkpt lat="45.46635239538011" lon="10.547848498686239"><ele>72.0</ele><time>2026-05-01T09:26:26Z</time></trkpt><trkpt lat="45.46639614949859" lon="10.547712579412833"><ele>72.0</ele><time>2026-05-01T09:26:27Z</time></trkpt><trkpt lat="45.46643429510615" lon="10.547602834826003"><ele>72.0</ele><time>2026-05-01T09:26:28Z</time></trkpt><trkpt lat="45.46647467108564" lon="10.547490910831996"><ele>72.0</ele><time>2026-05-01T09:26:29Z</time></trkpt><trkpt lat="45.46651365098145" lon="10.54736543041553"><ele>72.0</ele><time>2026-05-01T09:26:30Z</time></trkpt><trkpt lat="45.46655336989159" lon="10.547221820737034"><ele>72.0</ele><time>2026-05-01T09:26:31.001Z</time></trkpt><trkpt lat="45.466600208096885" lon="10.547074886663927"><ele>72.0</ele><time>2026-05-01T09:26:32.001Z</time></trkpt><trkpt lat="45.466640264213744" lon="10.546959134936605"><ele>72.0</ele><time>2026-05-01T09:26:33.001Z</time></trkpt><trkpt lat="45.466678626941665" lon="10.546847120329476"><ele>72.16666666666667</ele><time>2026-05-01T09:26:34.001Z</time></trkpt><trkpt lat="45.46671320558496" lon="10.546741522418216"><ele>72.33333333333333</ele><time>2026-05-01T09:26:35.001Z</time></trkpt><trkpt lat="45.46675199458706" lon="10.546624751562724"><ele>72.5</ele><time>2026-05-01T09:26:36.001Z</time></trkpt><trkpt lat="45.46678937639872" lon="10.54651275000892"><ele>72.66666666666666</ele><time>2026-05-01T09:26:37.001Z</time></trkpt><trkpt lat="45.46682353086649" lon="10.546402140949816"><ele>72.83333333333333</ele><time>2026-05-01T09:26:38.001Z</time></trkpt><trkpt lat="45.466845730007115" lon="10.546304356568244"><ele>73.0</ele><time>2026-05-01T09:26:39.001Z</time></trkpt><trkpt lat="45.46687978404351" lon="10.546206946781995"><ele>72.66666666666666</ele><time>2026-05-01T09:26:40.001Z</time></trkpt><trkpt lat="45.466920335620955" lon="10.546119492682337"><ele>72.33333333333333</ele><time>2026-05-01T09:26:41.001Z</time></trkpt><trkpt lat="45.466950440539115" lon="10.546028037614146"><ele>72.0</ele><time>2026-05-01T09:26:42.001Z</time></trkpt><trkpt lat="45.46697141568125" lon="10.545942294275642"><ele>71.66666666666667</ele><time>2026-05-01T09:26:43.001Z</time></trkpt><trkpt lat="45.46699425586093" lon="10.545856189918993"><ele>71.33333333333334</ele><time>2026-05-01T09:26:44.001Z</time></trkpt><trkpt lat="45.467026999464586" lon="10.545687393032315"><ele>71.0</ele><time>2026-05-01T09:26:46.001Z</time></trkpt><trkpt lat="45.46704006003715" lon="10.545586479518734"><ele>71.0</ele><time>2026-05-01T09:26:47.001Z</time></trkpt><trkpt lat="45.46703964308706" lon="10.545466922681555"><ele>71.0</ele><time>2026-05-01T09:26:48.001Z</time></trkpt><trkpt lat="45.46702417454636" lon="10.545322042219185"><ele>71.0</ele><time>2026-05-01T09:26:49.001Z</time></trkpt><trkpt lat="45.467006381520214" lon="10.545171037164467"><ele>71.0</ele><time>2026-05-01T09:26:50.001Z</time></trkpt><trkpt lat="45.46699912560729" lon="10.54498222679217"><ele>71.0</ele><time>2026-05-01T09:26:51.001Z</time></trkpt><trkpt lat="45.466990977283004" lon="10.544792835732446"><ele>71.25</ele><time>2026-05-01T09:26:52.001Z</time></trkpt><trkpt lat="45.466975349447935" lon="10.544607334465766"><ele>71.5</ele><time>2026-05-01T09:26:53.001Z</time></trkpt><trkpt lat="45.466954670684125" lon="10.544431673035819"><ele>71.75</ele><time>2026-05-01T09:26:54.001Z</time></trkpt><trkpt lat="45.46693361658418" lon="10.544246876557901"><ele>72.0</ele><time>2026-05-01T09:26:55.001Z</time></trkpt><trkpt lat="45.46690816975214" lon="10.54404409745933"><ele>72.25</ele><time>2026-05-01T09:26:56.001Z</time></trkpt><trkpt lat="45.46689350285765" lon="10.543866248996164"><ele>72.5</ele><time>2026-05-01T09:26:57.001Z</time></trkpt><trkpt lat="45.46687931559741" lon="10.543690182504427"><ele>72.75</ele><time>2026-05-01T09:26:58.001Z</time></trkpt><trkpt lat="45.466860462556745" lon="10.543525881006936"><ele>73.0</ele><time>2026-05-01T09:26:59.001Z</time></trkpt><trkpt lat="45.466862348412896" lon="10.54336641288847"><ele>73.6</ele><time>2026-05-01T09:27:00.001Z</time></trkpt><trkpt lat="45.46686291114301" lon="10.543208322258883"><ele>74.19999999999999</ele><time>2026-05-01T09:27:01.001Z</time></trkpt><trkpt lat="45.46686725061179" lon="10.543050146281686"><ele>74.8</ele><time>2026-05-01T09:27:02.001Z</time></trkpt><trkpt lat="45.46686412635447" lon="10.542914051402644"><ele>75.39999999999999</ele><time>2026-05-01T09:27:03.001Z</time></trkpt><trkpt lat="45.466863574682506" lon="10.542782953056172"><ele>76.0</ele><time>2026-05-01T09:27:04.001Z</time></trkpt><trkpt lat="45.466869947423966" lon="10.542657102682444"><ele>76.0</ele><time>2026-05-01T09:27:05.001Z</time></trkpt><trkpt lat="45.466874338392685" lon="10.54253768741262"><ele>76.0</ele><time>2026-05-01T09:27:06.001Z</time></trkpt><trkpt lat="45.46688595652414" lon="10.54242713252191"><ele>76.0</ele><time>2026-05-01T09:27:07.001Z</time></trkpt><trkpt lat="45.46688673938089" lon="10.542317667954554"><ele>76.0</ele><time>2026-05-01T09:27:08.001Z</time></trkpt><trkpt lat="45.466900526747764" lon="10.54221510648946"><ele>76.0</ele><time>2026-05-01T09:27:09.001Z</time></trkpt><trkpt lat="45.46690742270484" lon="10.542119656132083"><ele>76.0</ele><time>2026-05-01T09:27:10.001Z</time></trkpt><trkpt lat="45.466916169721266" lon="10.542011761681746"><ele>76.0</ele><time>2026-05-01T09:27:11.001Z</time></trkpt><trkpt lat="45.466926165816524" lon="10.54189866565949"><ele>76.0</ele><time>2026-05-01T09:27:12.001Z</time></trkpt><trkpt lat="45.466933099938394" lon="10.541790344370225"><ele>76.0</ele><time>2026-05-01T09:27:13.001Z</time></trkpt><trkpt lat="45.46693693836955" lon="10.541666857586792"><ele>76.0</ele><time>2026-05-01T09:27:14.001Z</time></trkpt><trkpt lat="45.466944121140564" lon="10.541549783602553"><ele>76.0</ele><time>2026-05-01T09:27:15.001Z</time></trkpt><trkpt lat="45.466956957905545" lon="10.541403864976363"><ele>76.0</ele><time>2026-05-01T09:27:16.001Z</time></trkpt><trkpt lat="45.46696919952623" lon="10.541270354449521"><ele>76.39999999999999</ele><time>2026-05-01T09:27:17.001Z</time></trkpt><trkpt lat="45.46699361076935" lon="10.541127080742356"><ele>76.8</ele><time>2026-05-01T09:27:18.001Z</time></trkpt><trkpt lat="45.4670184581399" lon="10.540997897694691"><ele>77.19999999999999</ele><time>2026-05-01T09:27:19.001Z</time></trkpt><trkpt lat="45.467036050671716" lon="10.5408678916345"><ele>77.6</ele><time>2026-05-01T09:27:20.001Z</time></trkpt><trkpt lat="45.467058386535875" lon="10.540734616202846"><ele>78.0</ele><time>2026-05-01T09:27:21.002Z</time></trkpt><trkpt lat="45.46708041799008" lon="10.540616673914974"><ele>78.0</ele><time>2026-05-01T09:27:22.002Z</time></trkpt><trkpt lat="45.467097217191146" lon="10.54050110333131"><ele>78.0</ele><time>2026-05-01T09:27:23.002Z</time></trkpt><trkpt lat="45.46711765354528" lon="10.540381356524318"><ele>78.0</ele><time>2026-05-01T09:27:24.002Z</time></trkpt><trkpt lat="45.46713962489006" lon="10.540261481271742"><ele>78.0</ele><time>2026-05-01T09:27:25.002Z</time></trkpt><trkpt lat="45.46716414538085" lon="10.5401473340966"><ele>78.0</ele><time>2026-05-01T09:27:26.002Z</time></trkpt><trkpt lat="45.4671935017441" lon="10.540024751131883"><ele>78.0</ele><time>2026-05-01T09:27:27.002Z</time></trkpt><trkpt lat="45.46721602448618" lon="10.539921674661418"><ele>78.33333333333333</ele><time>2026-05-01T09:27:28.002Z</time></trkpt><trkpt lat="45.46723761121339" lon="10.539816582083935"><ele>78.66666666666667</ele><time>2026-05-01T09:27:29.002Z</time></trkpt><trkpt lat="45.46726864084111" lon="10.539713179224377"><ele>79.0</ele><time>2026-05-01T09:27:30.002Z</time></trkpt><trkpt lat="45.4672966674124" lon="10.539622258041451"><ele>79.33333333333334</ele><time>2026-05-01T09:27:31.002Z</time></trkpt><trkpt lat="45.46734845821141" lon="10.539448347052586"><ele>79.66666666666667</ele><time>2026-05-01T09:27:33.002Z</time></trkpt><trkpt lat="45.467376476170074" lon="10.539362075354301"><ele>80.0</ele><time>2026-05-01T09:27:34.002Z</time></trkpt><trkpt lat="45.467401135140115" lon="10.539278441187003"><ele>80.14285714285714</ele><time>2026-05-01T09:27:35.002Z</time></trkpt><trkpt lat="45.467433011362075" lon="10.539158657896081"><ele>80.28571428571429</ele><time>2026-05-01T09:27:37.002Z</time></trkpt><trkpt lat="45.46746182614364" lon="10.539057297527414"><ele>80.42857142857143</ele><time>2026-05-01T09:27:39.002Z</time></trkpt><trkpt lat="45.46749354284728" lon="10.538972047968974"><ele>80.57142857142857</ele><time>2026-05-01T09:27:52Z</time></trkpt><trkpt lat="45.46752530241863" lon="10.538871501201385"><ele>80.71428571428571</ele><time>2026-05-01T09:27:55Z</time></trkpt><trkpt lat="45.467557399719205" lon="10.53879017409533"><ele>80.85714285714286</ele><time>2026-05-01T09:27:57Z</time></trkpt><trkpt lat="45.46758925456938" lon="10.5387050248575"><ele>81.0</ele><time>2026-05-01T09:27:59Z</time></trkpt><trkpt lat="45.46763355622561" lon="10.538595624592588"><ele>82.0</ele><time>2026-05-01T09:28:02Z</time></trkpt><trkpt lat="45.467698105668745" lon="10.538485146227249"><ele>83.0</ele><time>2026-05-01T09:28:05Z</time></trkpt><trkpt lat="45.46777416633438" lon="10.538410406085756"><ele>84.0</ele><time>2026-05-01T09:28:07Z</time></trkpt><trkpt lat="45.467827712314296" lon="10.538267006743977"><ele>85.0</ele><time>2026-05-01T09:28:09Z</time></trkpt><trkpt lat="45.467835059345916" lon="10.538139526277734"><ele>86.0</ele><time>2026-05-01T09:28:11Z</time></trkpt><trkpt lat="45.46784691790751" lon="10.538005926326392"><ele>85.8</ele><time>2026-05-01T09:28:13Z</time></trkpt><trkpt lat="45.46789166331926" lon="10.537868642022989"><ele>85.6</ele><time>2026-05-01T09:28:15Z</time></trkpt><trkpt lat="45.46792276515244" lon="10.53778578399805"><ele>85.4</ele><time>2026-05-01T09:28:16Z</time></trkpt><trkpt lat="45.4679486101297" lon="10.537676580221673"><ele>85.2</ele><time>2026-05-01T09:28:17Z</time></trkpt><trkpt lat="45.46797781251168" lon="10.537557770449947"><ele>85.0</ele><time>2026-05-01T09:28:18Z</time></trkpt><trkpt lat="45.4680316780111" lon="10.537405941501456"><ele>85.0</ele><time>2026-05-01T09:28:19Z</time></trkpt><trkpt lat="45.46809467698821" lon="10.537236068156304"><ele>85.0</ele><time>2026-05-01T09:28:20Z</time></trkpt><trkpt lat="45.46815293903803" lon="10.537097183727015"><ele>85.0</ele><time>2026-05-01T09:28:21Z</time></trkpt><trkpt lat="45.4681989279077" lon="10.536975805706282"><ele>85.0</ele><time>2026-05-01T09:28:22Z</time></trkpt><trkpt lat="45.4682450306055" lon="10.536858123537476"><ele>85.0</ele><time>2026-05-01T09:28:23Z</time></trkpt><trkpt lat="45.468281151034645" lon="10.536755698356416"><ele>85.33333333333333</ele><time>2026-05-01T09:28:24Z</time></trkpt><trkpt lat="45.46831642758653" lon="10.536662679547973"><ele>85.66666666666666</ele><time>2026-05-01T09:28:25Z</time></trkpt><trkpt lat="45.468349148583314" lon="10.536563930561446"><ele>86.0</ele><time>2026-05-01T09:28:26Z</time></trkpt><trkpt lat="45.46839350100677" lon="10.536453985740987"><ele>86.33333333333333</ele><time>2026-05-01T09:28:27Z</time></trkpt><trkpt lat="45.4684244908255" lon="10.536355258347545"><ele>86.66666666666667</ele><time>2026-05-01T09:28:28Z</time></trkpt><trkpt lat="45.46846383730074" lon="10.536246646425273"><ele>87.0</ele><time>2026-05-01T09:28:29Z</time></trkpt><trkpt lat="45.46849480985889" lon="10.536144316216495"><ele>87.33333333333333</ele><time>2026-05-01T09:28:30Z</time></trkpt><trkpt lat="45.46852821699726" lon="10.536049014202979"><ele>87.66666666666667</ele><time>2026-05-01T09:28:31Z</time></trkpt><trkpt lat="45.46856203890142" lon="10.53597144575477"><ele>88.0</ele><time>2026-05-01T09:28:32Z</time></trkpt><trkpt lat="45.468595687998196" lon="10.535890446266057"><ele>88.33333333333334</ele><time>2026-05-01T09:28:33Z</time></trkpt><trkpt lat="45.4686496682034" lon="10.535730283638223"><ele>88.66666666666667</ele><time>2026-05-01T09:28:35.001Z</time></trkpt><trkpt lat="45.468689538631295" lon="10.535593635277735"><ele>89.0</ele><time>2026-05-01T09:28:37.001Z</time></trkpt><trkpt lat="45.46873030168217" lon="10.535481754126629"><ele>89.33333333333334</ele><time>2026-05-01T09:28:39.001Z</time></trkpt><trkpt lat="45.46878200274883" lon="10.535349211224283"><ele>89.66666666666667</ele><time>2026-05-01T09:28:41.001Z</time></trkpt><trkpt lat="45.468814784233594" lon="10.535267023995768"><ele>90.0</ele><time>2026-05-01T09:28:42.001Z</time></trkpt><trkpt lat="45.46884593843935" lon="10.535188753662636"><ele>90.33333333333333</ele><time>2026-05-01T09:28:43.001Z</time></trkpt><trkpt lat="45.468888678059606" lon="10.5350525698394"><ele>90.66666666666666</ele><time>2026-05-01T09:28:45.001Z</time></trkpt><trkpt lat="45.468933422141475" lon="10.53493378622759"><ele>91.0</ele><time>2026-05-01T09:28:46.001Z</time></trkpt><trkpt lat="45.46897477400292" lon="10.534786036929829"><ele>91.0</ele><time>2026-05-01T09:28:47.001Z</time></trkpt><trkpt lat="45.46901286323165" lon="10.534662696994921"><ele>91.0</ele><time>2026-05-01T09:28:48.001Z</time></trkpt><trkpt lat="45.469053727723555" lon="10.53456829109222"><ele>91.0</ele><time>2026-05-01T09:28:49.001Z</time></trkpt><trkpt lat="45.4690952147956" lon="10.53447469865401"><ele>91.0</ele><time>2026-05-01T09:28:50.001Z</time></trkpt><trkpt lat="45.46912980395684" lon="10.534377421394826"><ele>91.0</ele><time>2026-05-01T09:28:51.001Z</time></trkpt><trkpt lat="45.46916372700162" lon="10.534295573109146"><ele>91.0</ele><time>2026-05-01T09:28:52.001Z</time></trkpt><trkpt lat="45.46918752595484" lon="10.534210986466018"><ele>91.4</ele><time>2026-05-01T09:28:53.001Z</time></trkpt><trkpt lat="45.46924042755812" lon="10.534041488753994"><ele>91.8</ele><time>2026-05-01T09:28:55.001Z</time></trkpt><trkpt lat="45.46927688575002" lon="10.533925349080144"><ele>92.2</ele><time>2026-05-01T09:28:56.001Z</time></trkpt><trkpt lat="45.46932105966549" lon="10.533806120919753"><ele>92.60000000000001</ele><time>2026-05-01T09:28:57.001Z</time></trkpt><trkpt lat="45.46935334390805" lon="10.533701133270867"><ele>93.0</ele><time>2026-05-01T09:28:58.001Z</time></trkpt><trkpt lat="45.469376765057696" lon="10.533597367351792"><ele>93.16666666666667</ele><time>2026-05-01T09:28:59.001Z</time></trkpt><trkpt lat="45.4693965090959" lon="10.533499128878479"><ele>93.33333333333333</ele><time>2026-05-01T09:29:00.001Z</time></trkpt><trkpt lat="45.46943130218204" lon="10.533404059040262"><ele>93.5</ele><time>2026-05-01T09:29:01.001Z</time></trkpt><trkpt lat="45.469461493433904" lon="10.533289088496275"><ele>93.66666666666666</ele><time>2026-05-01T09:29:02.001Z</time></trkpt><trkpt lat="45.46949363775483" lon="10.533169983234696"><ele>93.83333333333333</ele><time>2026-05-01T09:29:03.001Z</time></trkpt><trkpt lat="45.46951771546932" lon="10.53304563150974"><ele>94.0</ele><time>2026-05-01T09:29:04.001Z</time></trkpt><trkpt lat="45.46954876345686" lon="10.532932235919274"><ele>94.0</ele><time>2026-05-01T09:29:05.001Z</time></trkpt><trkpt lat="45.46957734386309" lon="10.532827044325819"><ele>94.0</ele><time>2026-05-01T09:29:06.001Z</time></trkpt><trkpt lat="45.46960212982737" lon="10.53273844314753"><ele>94.0</ele><time>2026-05-01T09:29:07.001Z</time></trkpt><trkpt lat="45.46962662143229" lon="10.532652852967525"><ele>94.0</ele><time>2026-05-01T09:29:08.001Z</time></trkpt><trkpt lat="45.46967036065999" lon="10.532510244624472"><ele>94.0</ele><time>2026-05-01T09:29:10.001Z</time></trkpt><trkpt lat="45.46970543355184" lon="10.532401578060991"><ele>94.0</ele><time>2026-05-01T09:29:12.001Z</time></trkpt><trkpt lat="45.469773998870465" lon="10.532341245499142"><ele>94.4</ele><time>2026-05-01T09:29:14.001Z</time></trkpt><trkpt lat="45.46983742241013" lon="10.53232369517889"><ele>94.80000000000001</ele><time>2026-05-01T09:29:15.001Z</time></trkpt><trkpt lat="45.46995105569759" lon="10.532276156691081"><ele>95.19999999999999</ele><time>2026-05-01T09:29:17.001Z</time></trkpt><trkpt lat="45.47008259295961" lon="10.53227457419843"><ele>95.6</ele><time>2026-05-01T09:29:25.002Z</time></trkpt><trkpt lat="45.47014813696003" lon="10.53229449196546"><ele>96.0</ele><time>2026-05-01T09:29:26.002Z</time></trkpt><trkpt lat="45.47024224134006" lon="10.532327025444111"><ele>96.0</ele><time>2026-05-01T09:29:27.002Z</time></trkpt><trkpt lat="45.47037338208656" lon="10.532388653790036"><ele>96.0</ele><time>2026-05-01T09:29:28.002Z</time></trkpt><trkpt lat="45.47051628274804" lon="10.532470211717271"><ele>96.0</ele><time>2026-05-01T09:29:29.002Z</time></trkpt><trkpt lat="45.47063482643051" lon="10.532554268771733"><ele>96.0</ele><time>2026-05-01T09:29:30.002Z</time></trkpt><trkpt lat="45.47077543106538" lon="10.532636224144865"><ele>85.0</ele><time>2026-05-01T09:29:31.002Z</time></trkpt><trkpt lat="45.47331188157996" lon="10.53530425680439"><ele>84.5</ele><time>2026-05-01T09:30:01Z</time></trkpt><trkpt lat="45.47337355971358" lon="10.53538815527043"><ele>84.0</ele><time>2026-05-01T09:30:02Z</time></trkpt><trkpt lat="45.47342415796595" lon="10.535479411372501"><ele>83.5</ele><time>2026-05-01T09:30:03Z</time></trkpt><trkpt lat="45.47346691660263" lon="10.535575935761047"><ele>83.0</ele><time>2026-05-01T09:30:04Z</time></trkpt><trkpt lat="45.47350063225721" lon="10.53567806524674"><ele>82.5</ele><time>2026-05-01T09:30:05Z</time></trkpt><trkpt lat="45.47353436269727" lon="10.535784803361555"><ele>82.0</ele><time>2026-05-01T09:30:06Z</time></trkpt><trkpt lat="45.47355962529223" lon="10.535892224875045"><ele>82.0</ele><time>2026-05-01T09:30:07Z</time></trkpt><trkpt lat="45.473590070791175" lon="10.535991620035865"><ele>82.0</ele><time>2026-05-01T09:30:08Z</time></trkpt><trkpt lat="45.47362991581996" lon="10.536144902234755"><ele>82.0</ele><time>2026-05-01T09:30:10Z</time></trkpt><trkpt lat="45.4736541316464" lon="10.536281910974184"><ele>82.0</ele><time>2026-05-01T09:30:12Z</time></trkpt><trkpt lat="45.473681803690965" lon="10.536367420998328"><ele>82.0</ele><time>2026-05-01T09:30:14Z</time></trkpt><trkpt lat="45.47369817557275" lon="10.536478514865767"><ele>82.0</ele><time>2026-05-01T09:30:16Z</time></trkpt><trkpt lat="45.473729804893146" lon="10.536612060864531"><ele>81.39999999999999</ele><time>2026-05-01T09:30:18Z</time></trkpt><trkpt lat="45.47376558412005" lon="10.536762597268316"><ele>80.8</ele><time>2026-05-01T09:30:20Z</time></trkpt><trkpt lat="45.47379730301299" lon="10.536879169755693"><ele>80.2</ele><time>2026-05-01T09:30:22Z</time></trkpt><trkpt lat="45.47382907786119" lon="10.536988692162579"><ele>79.6</ele><time>2026-05-01T09:30:24Z</time></trkpt><trkpt lat="45.47385247842836" lon="10.537136546993151"><ele>79.0</ele><time>2026-05-01T09:30:26Z</time></trkpt><trkpt lat="45.47387816101396" lon="10.537237951865585"><ele>78.60000000000001</ele><time>2026-05-01T09:30:28Z</time></trkpt><trkpt lat="45.473923762997565" lon="10.537373397383234"><ele>78.2</ele><time>2026-05-01T09:30:30Z</time></trkpt><trkpt lat="45.473949582198635" lon="10.537534961367973"><ele>77.80000000000001</ele><time>2026-05-01T09:30:32Z</time></trkpt><trkpt lat="45.47397952864992" lon="10.537659812388734"><ele>77.4</ele><time>2026-05-01T09:30:34Z</time></trkpt><trkpt lat="45.47400235160702" lon="10.53775736965894"><ele>77.0</ele><time>2026-05-01T09:30:36Z</time></trkpt><trkpt lat="45.474023544864124" lon="10.537846777981821"><ele>76.28571428571429</ele><time>2026-05-01T09:30:39Z</time></trkpt><trkpt lat="45.47404666818349" lon="10.537944328690426"><ele>75.57142857142857</ele><time>2026-05-01T09:30:43.001Z</time></trkpt><trkpt lat="45.47407131340997" lon="10.538048299882176"><ele>74.85714285714286</ele><time>2026-05-01T09:30:55.001Z</time></trkpt><trkpt lat="45.474094552999716" lon="10.5381463411058"><ele>74.14285714285714</ele><time>2026-05-01T09:31:00.001Z</time></trkpt><trkpt lat="45.47411680030028" lon="10.538240196146642"><ele>73.42857142857143</ele><time>2026-05-01T09:31:03.001Z</time></trkpt><trkpt lat="45.47413830565066" lon="10.538330284851686"><ele>72.71428571428572</ele><time>2026-05-01T09:31:14.001Z</time></trkpt><trkpt lat="45.47416414910207" lon="10.538446296355676"><ele>72.0</ele><time>2026-05-01T09:31:18.001Z</time></trkpt><trkpt lat="45.474180301697274" lon="10.53856677746253"><ele>72.0</ele><time>2026-05-01T09:31:21.001Z</time></trkpt><trkpt lat="45.47419565502134" lon="10.538687095371994"><ele>72.0</ele><time>2026-05-01T09:31:24.001Z</time></trkpt><trkpt lat="45.47417712541985" lon="10.538793393092249"><ele>72.0</ele><time>2026-05-01T09:31:27.001Z</time></trkpt><trkpt lat="45.474527270577205" lon="10.538462168149891"><ele>72.0</ele><time>2026-05-01T09:34:31Z</time></trkpt><trkpt lat="45.47458236157296" lon="10.538403621314998"><ele>72.0</ele><time>2026-05-01T09:34:32Z</time></trkpt><trkpt lat="45.47464221008766" lon="10.538343996279622"><ele>72.0</ele><time>2026-05-01T09:34:33Z</time></trkpt><trkpt lat="45.474724771710555" lon="10.538355843060733"><ele>72.0</ele><time>2026-05-01T09:34:34Z</time></trkpt><trkpt lat="45.47479460917499" lon="10.538324977955048"><ele>72.0</ele><time>2026-05-01T09:34:35Z</time></trkpt><trkpt lat="45.47486882652999" lon="10.538302664514088"><ele>72.0</ele><time>2026-05-01T09:34:36Z</time></trkpt><trkpt lat="45.47495512653475" lon="10.538287211189601"><ele>72.16666666666667</ele><time>2026-05-01T09:34:37Z</time></trkpt><trkpt lat="45.47503288397398" lon="10.538259346747019"><ele>72.33333333333333</ele><time>2026-05-01T09:34:38.001Z</time></trkpt><trkpt lat="45.4751139497573" lon="10.538276513787439"><ele>72.5</ele><time>2026-05-01T09:34:39.001Z</time></trkpt><trkpt lat="45.47519090837135" lon="10.53826631166667"><ele>72.66666666666666</ele><time>2026-05-01T09:34:40.001Z</time></trkpt><trkpt lat="45.4752776077384" lon="10.538251969956834"><ele>72.83333333333333</ele><time>2026-05-01T09:34:41.001Z</time></trkpt><trkpt lat="45.475355712776114" lon="10.538236870041755"><ele>73.0</ele><time>2026-05-01T09:34:42.001Z</time></trkpt><trkpt lat="45.475439930913666" lon="10.538213701175744"><ele>73.0</ele><time>2026-05-01T09:34:43.001Z</time></trkpt><trkpt lat="45.4755294205939" lon="10.538186847601244"><ele>73.0</ele><time>2026-05-01T09:34:44.001Z</time></trkpt><trkpt lat="45.4756207837871" lon="10.538179256881325"><ele>73.0</ele><time>2026-05-01T09:34:45.001Z</time></trkpt><trkpt lat="45.475702440562365" lon="10.538176100178221"><ele>73.0</ele><time>2026-05-01T09:34:46.001Z</time></trkpt><trkpt lat="45.475796360138204" lon="10.538203684063824"><ele>73.0</ele><time>2026-05-01T09:34:47.001Z</time></trkpt><trkpt lat="45.47590153628723" lon="10.538214666618979"><ele>73.0</ele><time>2026-05-01T09:34:48.001Z</time></trkpt><trkpt lat="45.47600423153093" lon="10.538249864280097"><ele>73.0</ele><time>2026-05-01T09:34:49.001Z</time></trkpt><trkpt lat="45.4761064891394" lon="10.538286953496511"><ele>73.0</ele><time>2026-05-01T09:34:50.001Z</time></trkpt><trkpt lat="45.47619716734303" lon="10.53830907433697"><ele>73.0</ele><time>2026-05-01T09:34:51.001Z</time></trkpt><trkpt lat="45.476301750714356" lon="10.538328645368818"><ele>73.0</ele><time>2026-05-01T09:34:52.001Z</time></trkpt><trkpt lat="45.47639217576104" lon="10.538388633995618"><ele>72.4</ele><time>2026-05-01T09:34:53.001Z</time></trkpt><trkpt lat="45.476492489321465" lon="10.538414120085799"><ele>71.8</ele><time>2026-05-01T09:34:54.001Z</time></trkpt><trkpt lat="45.476592327100136" lon="10.538430967277188"><ele>71.2</ele><time>2026-05-01T09:34:55.001Z</time></trkpt><trkpt lat="45.476689991221804" lon="10.53843772629836"><ele>70.6</ele><time>2026-05-01T09:34:56.001Z</time></trkpt><trkpt lat="45.47677885245069" lon="10.538438852544148"><ele>70.0</ele><time>2026-05-01T09:34:57.001Z</time></trkpt><trkpt lat="45.47686796334993" lon="10.538431762273417"><ele>70.0</ele><time>2026-05-01T09:34:58.001Z</time></trkpt><trkpt lat="45.47695677560085" lon="10.538421832265119"><ele>70.0</ele><time>2026-05-01T09:34:59.001Z</time></trkpt><trkpt lat="45.47704196748326" lon="10.538410758074017"><ele>70.0</ele><time>2026-05-01T09:35:00.001Z</time></trkpt><trkpt lat="45.477137235027904" lon="10.538407591735133"><ele>70.0</ele><time>2026-05-01T09:35:01.001Z</time></trkpt><trkpt lat="45.47722795502272" lon="10.538418805186991"><ele>70.0</ele><time>2026-05-01T09:35:02.001Z</time></trkpt><trkpt lat="45.477294834074996" lon="10.538409223350438"><ele>70.0</ele><time>2026-05-01T09:35:03.001Z</time></trkpt><trkpt lat="45.4774152764144" lon="10.53839919316179"><ele>70.2</ele><time>2026-05-01T09:35:05.001Z</time></trkpt><trkpt lat="45.477529925323374" lon="10.538387848973798"><ele>70.4</ele><time>2026-05-01T09:35:07.001Z</time></trkpt><trkpt lat="45.477654226860324" lon="10.538354543060892"><ele>70.6</ele><time>2026-05-01T09:35:09.001Z</time></trkpt><trkpt lat="45.47772006787938" lon="10.538346778411283"><ele>70.8</ele><time>2026-05-01T09:35:10.001Z</time></trkpt><trkpt lat="45.477793443269725" lon="10.53834002787636"><ele>71.0</ele><time>2026-05-01T09:35:11.001Z</time></trkpt><trkpt lat="45.477876987805416" lon="10.538340192633969"><ele>71.0</ele><time>2026-05-01T09:35:12.001Z</time></trkpt><trkpt lat="45.477964900533145" lon="10.538338341930867"><ele>71.0</ele><time>2026-05-01T09:35:13.001Z</time></trkpt><trkpt lat="45.47805876843731" lon="10.538347271144621"><ele>71.0</ele><time>2026-05-01T09:35:14.001Z</time></trkpt><trkpt lat="45.478158528271784" lon="10.538343821772585"><ele>71.0</ele><time>2026-05-01T09:35:15.001Z</time></trkpt><trkpt lat="45.478258968021244" lon="10.538335073249128"><ele>71.0</ele><time>2026-05-01T09:35:16.001Z</time></trkpt><trkpt lat="45.47836636022415" lon="10.538320219499509"><ele>71.0</ele><time>2026-05-01T09:35:17.001Z</time></trkpt><trkpt lat="45.478466026013926" lon="10.53833832818305"><ele>71.0</ele><time>2026-05-01T09:35:18.001Z</time></trkpt><trkpt lat="45.47856579326578" lon="10.538334285328842"><ele>71.0</ele><time>2026-05-01T09:35:19.001Z</time></trkpt><trkpt lat="45.478675600545294" lon="10.538327642528671"><ele>71.0</ele><time>2026-05-01T09:35:20.001Z</time></trkpt><trkpt lat="45.47878414698037" lon="10.538320494348103"><ele>71.0</ele><time>2026-05-01T09:35:21.001Z</time></trkpt><trkpt lat="45.47890052202482" lon="10.538315836977578"><ele>71.39999999999999</ele><time>2026-05-01T09:35:22.002Z</time></trkpt><trkpt lat="45.47901170701908" lon="10.53831426422531"><ele>71.8</ele><time>2026-05-01T09:35:23.002Z</time></trkpt><trkpt lat="45.47912095207548" lon="10.538314559618332"><ele>72.19999999999999</ele><time>2026-05-01T09:35:24.002Z</time></trkpt><trkpt lat="45.47923300331515" lon="10.53831530752475"><ele>72.6</ele><time>2026-05-01T09:35:25.002Z</time></trkpt><trkpt lat="45.47934128703021" lon="10.538317543219945"><ele>73.0</ele><time>2026-05-01T09:35:26.002Z</time></trkpt><trkpt lat="45.47944571809809" lon="10.538328561016797"><ele>73.0</ele><time>2026-05-01T09:35:27.002Z</time></trkpt><trkpt lat="45.47958256578072" lon="10.538335656060989"><ele>73.0</ele><time>2026-05-01T09:35:28.002Z</time></trkpt><trkpt lat="45.4796934705542" lon="10.538328677743273"><ele>73.0</ele><time>2026-05-01T09:35:29.002Z</time></trkpt><trkpt lat="45.47980764722782" lon="10.538321107568477"><ele>73.0</ele><time>2026-05-01T09:35:30.002Z</time></trkpt><trkpt lat="45.47991760432697" lon="10.53832082838742"><ele>73.5</ele><time>2026-05-01T09:35:31.002Z</time></trkpt><trkpt lat="45.48002902887113" lon="10.538322911649736"><ele>74.0</ele><time>2026-05-01T09:35:32.002Z</time></trkpt><trkpt lat="45.480145472553154" lon="10.538325555183526"><ele>74.5</ele><time>2026-05-01T09:35:33.002Z</time></trkpt><trkpt lat="45.48025746100569" lon="10.53832171590199"><ele>75.0</ele><time>2026-05-01T09:35:34.002Z</time></trkpt><trkpt lat="45.4803772468514" lon="10.538346055646425"><ele>75.0</ele><time>2026-05-01T09:35:35.002Z</time></trkpt><trkpt lat="45.480474794870425" lon="10.53834675365721"><ele>75.0</ele><time>2026-05-01T09:35:36.002Z</time></trkpt><trkpt lat="45.480588450982346" lon="10.538337548508219"><ele>75.0</ele><time>2026-05-01T09:35:37.002Z</time></trkpt><trkpt lat="45.4807303978432" lon="10.538348558335542"><ele>75.0</ele><time>2026-05-01T09:35:38.002Z</time></trkpt><trkpt lat="45.480865929518146" lon="10.5383496580078"><ele>75.0</ele><time>2026-05-01T09:35:39.002Z</time></trkpt><trkpt lat="45.48100171950842" lon="10.538346156430778"><ele>75.0</ele><time>2026-05-01T09:35:40.002Z</time></trkpt><trkpt lat="45.48115529669013" lon="10.538342042187532"><ele>75.0</ele><time>2026-05-01T09:35:41.002Z</time></trkpt><trkpt lat="45.481301413657675" lon="10.53835336261122"><ele>75.0</ele><time>2026-05-01T09:35:42.002Z</time></trkpt><trkpt lat="45.48143992949376" lon="10.538350590861487"><ele>74.5</ele><time>2026-05-01T09:35:43.002Z</time></trkpt><trkpt lat="45.48158552428182" lon="10.538351928449613"><ele>74.0</ele><time>2026-05-01T09:35:44.002Z</time></trkpt><trkpt lat="45.481727037476" lon="10.538351125892921"><ele>73.5</ele><time>2026-05-01T09:35:45.002Z</time></trkpt><trkpt lat="45.481871741727176" lon="10.538365513757007"><ele>73.0</ele><time>2026-05-01T09:35:46.002Z</time></trkpt><trkpt lat="45.48201624386737" lon="10.538368140519117"><ele>72.5</ele><time>2026-05-01T09:35:47.002Z</time></trkpt><trkpt lat="45.48217352814038" lon="10.538370995997115"><ele>72.0</ele><time>2026-05-01T09:35:48.002Z</time></trkpt><trkpt lat="45.48231667213816" lon="10.538373594758824"><ele>71.5</ele><time>2026-05-01T09:35:49.002Z</time></trkpt><trkpt lat="45.482460259090175" lon="10.538376201561997"><ele>71.0</ele><time>2026-05-01T09:35:50.002Z</time></trkpt><trkpt lat="45.482595310663505" lon="10.53837865341196"><ele>71.0</ele><time>2026-05-01T09:35:51.002Z</time></trkpt><trkpt lat="45.482735288670405" lon="10.53838112496607"><ele>71.0</ele><time>2026-05-01T09:35:52.002Z</time></trkpt><trkpt lat="45.482882456461525" lon="10.538383597487282"><ele>71.0</ele><time>2026-05-01T09:35:53.002Z</time></trkpt><trkpt lat="45.48304597415237" lon="10.538404019392095"><ele>71.5</ele><time>2026-05-01T09:35:54.002Z</time></trkpt><trkpt lat="45.48318438000984" lon="10.538405936250626"><ele>72.0</ele><time>2026-05-01T09:35:55.002Z</time></trkpt><trkpt lat="45.483323846566684" lon="10.538405243792287"><ele>72.5</ele><time>2026-05-01T09:35:56.002Z</time></trkpt><trkpt lat="45.483470446699435" lon="10.53840776090944"><ele>73.0</ele><time>2026-05-01T09:35:57.002Z</time></trkpt><trkpt lat="45.48360585498104" lon="10.538403151950703"><ele>73.0</ele><time>2026-05-01T09:35:58.002Z</time></trkpt><trkpt lat="45.48375200441254" lon="10.538394405406741"><ele>73.0</ele><time>2026-05-01T09:35:59.002Z</time></trkpt><trkpt lat="45.483905645278405" lon="10.53839500653158"><ele>73.0</ele><time>2026-05-01T09:36:00.002Z</time></trkpt><trkpt lat="45.4840530224058" lon="10.538384936773452"><ele>73.0</ele><time>2026-05-01T09:36:01.002Z</time></trkpt><trkpt lat="45.48420394955684" lon="10.53838422808372"><ele>72.75</ele><time>2026-05-01T09:36:02.002Z</time></trkpt><trkpt lat="45.48433344022658" lon="10.538386206105564"><ele>72.5</ele><time>2026-05-01T09:36:03.002Z</time></trkpt><trkpt lat="45.4844792627831" lon="10.538391602366515"><ele>72.25</ele><time>2026-05-01T09:36:04.003Z</time></trkpt><trkpt lat="45.48463229528915" lon="10.538389471497753"><ele>72.0</ele><time>2026-05-01T09:36:05.003Z</time></trkpt><trkpt lat="45.484780763991196" lon="10.538398592785116"><ele>72.0</ele><time>2026-05-01T09:36:06.003Z</time></trkpt><trkpt lat="45.48493647152639" lon="10.53840583286693"><ele>72.0</ele><time>2026-05-01T09:36:07.003Z</time></trkpt><trkpt lat="45.48508059527152" lon="10.538406887941672"><ele>72.0</ele><time>2026-05-01T09:36:08.003Z</time></trkpt><trkpt lat="45.48522857122842" lon="10.538402496876808"><ele>72.0</ele><time>2026-05-01T09:36:09.003Z</time></trkpt><trkpt lat="45.48537587616121" lon="10.538388400572165"><ele>71.5</ele><time>2026-05-01T09:36:10.003Z</time></trkpt><trkpt lat="45.48551248677931" lon="10.53834812892359"><ele>71.0</ele><time>2026-05-01T09:36:11.003Z</time></trkpt><trkpt lat="45.485640494038314" lon="10.53827410679922"><ele>70.5</ele><time>2026-05-01T09:36:12.003Z</time></trkpt><trkpt lat="45.48576726148938" lon="10.53818189094474"><ele>70.0</ele><time>2026-05-01T09:36:13Z</time></trkpt><trkpt lat="45.4858898102834" lon="10.538085264254681"><ele>70.0</ele><time>2026-05-01T09:36:14Z</time></trkpt><trkpt lat="45.4860041600549" lon="10.537973330535156"><ele>70.0</ele><time>2026-05-01T09:36:15Z</time></trkpt><trkpt lat="45.486110112514126" lon="10.537845355476394"><ele>70.0</ele><time>2026-05-01T09:36:16Z</time></trkpt><trkpt lat="45.48620743523042" lon="10.537692451701044"><ele>70.0</ele><time>2026-05-01T09:36:17Z</time></trkpt><trkpt lat="45.48629529455217" lon="10.537520819666522"><ele>69.66666666666666</ele><time>2026-05-01T09:36:18Z</time></trkpt><trkpt lat="45.48639271156895" lon="10.537337384173538"><ele>69.33333333333333</ele><time>2026-05-01T09:36:19Z</time></trkpt><trkpt lat="45.486481079608694" lon="10.537164143527283"><ele>69.0</ele><time>2026-05-01T09:36:20Z</time></trkpt><trkpt lat="45.48657205195719" lon="10.536991148335153"><ele>69.66666666666667</ele><time>2026-05-01T09:36:21Z</time></trkpt><trkpt lat="45.48666708194075" lon="10.536826352288521"><ele>70.33333333333334</ele><time>2026-05-01T09:36:22Z</time></trkpt><trkpt lat="45.48676208326099" lon="10.536659521714384"><ele>71.0</ele><time>2026-05-01T09:36:23Z</time></trkpt><trkpt lat="45.486847200991846" lon="10.536480934730763"><ele>71.0</ele><time>2026-05-01T09:36:24Z</time></trkpt><trkpt lat="45.48693791054801" lon="10.5363047958132"><ele>71.0</ele><time>2026-05-01T09:36:25Z</time></trkpt><trkpt lat="45.48703305397373" lon="10.536126719041645"><ele>71.0</ele><time>2026-05-01T09:36:26Z</time></trkpt><trkpt lat="45.4871286896915" lon="10.535949240432627"><ele>70.66666666666667</ele><time>2026-05-01T09:36:27Z</time></trkpt><trkpt lat="45.48721877858439" lon="10.535772827941953"><ele>70.33333333333333</ele><time>2026-05-01T09:36:28Z</time></trkpt><trkpt lat="45.48731145617573" lon="10.535596448503002"><ele>70.0</ele><time>2026-05-01T09:36:29Z</time></trkpt><trkpt lat="45.48741287914784" lon="10.535445363959454"><ele>71.5</ele><time>2026-05-01T09:36:30Z</time></trkpt><trkpt lat="45.48749620464376" lon="10.535268652680893"><ele>73.0</ele><time>2026-05-01T09:36:31Z</time></trkpt><trkpt lat="45.48757000648604" lon="10.535092447346912"><ele>74.5</ele><time>2026-05-01T09:36:32Z</time></trkpt><trkpt lat="45.48762066638582" lon="10.534894373369083"><ele>76.0</ele><time>2026-05-01T09:36:33Z</time></trkpt><trkpt lat="45.48768389033325" lon="10.53470306633705"><ele>76.5</ele><time>2026-05-01T09:36:34Z</time></trkpt><trkpt lat="45.487742560445604" lon="10.534514285807"><ele>77.0</ele><time>2026-05-01T09:36:35Z</time></trkpt><trkpt lat="45.48779575959054" lon="10.534319328912991"><ele>77.5</ele><time>2026-05-01T09:36:36Z</time></trkpt><trkpt lat="45.48784518192997" lon="10.53412299956597"><ele>78.0</ele><time>2026-05-01T09:36:37Z</time></trkpt><trkpt lat="45.487909547621065" lon="10.533932488134578"><ele>78.0</ele><time>2026-05-01T09:36:38Z</time></trkpt><trkpt lat="45.48792361663739" lon="10.533723868204671"><ele>78.0</ele><time>2026-05-01T09:36:39Z</time></trkpt><trkpt lat="45.4879545970256" lon="10.533519580917694"><ele>78.0</ele><time>2026-05-01T09:36:40Z</time></trkpt><trkpt lat="45.487982912991" lon="10.533319680769681"><ele>78.0</ele><time>2026-05-01T09:36:41Z</time></trkpt><trkpt lat="45.48800874859849" lon="10.533122248541709"><ele>77.0</ele><time>2026-05-01T09:36:42Z</time></trkpt><trkpt lat="45.48803714628469" lon="10.532920714367464"><ele>76.0</ele><time>2026-05-01T09:36:43.001Z</time></trkpt><trkpt lat="45.48807376824867" lon="10.53272226278568"><ele>75.0</ele><time>2026-05-01T09:36:44.001Z</time></trkpt><trkpt lat="45.48809795835428" lon="10.532507090509739"><ele>74.0</ele><time>2026-05-01T09:36:45.001Z</time></trkpt><trkpt lat="45.48812160561779" lon="10.532309391094026"><ele>74.0</ele><time>2026-05-01T09:36:46.001Z</time></trkpt><trkpt lat="45.48816156993109" lon="10.532105524977755"><ele>74.0</ele><time>2026-05-01T09:36:47.001Z</time></trkpt><trkpt lat="45.48823338539011" lon="10.531910378791881"><ele>74.0</ele><time>2026-05-01T09:36:48.001Z</time></trkpt><trkpt lat="45.488263940995594" lon="10.531718597182461"><ele>74.0</ele><time>2026-05-01T09:36:49.001Z</time></trkpt><trkpt lat="45.488294780985676" lon="10.531524981688136"><ele>75.0</ele><time>2026-05-01T09:36:50.001Z</time></trkpt><trkpt lat="45.48832617190897" lon="10.531327907442865"><ele>76.0</ele><time>2026-05-01T09:36:51.001Z</time></trkpt><trkpt lat="45.4883564756716" lon="10.531137658526049"><ele>77.0</ele><time>2026-05-01T09:36:52.001Z</time></trkpt><trkpt lat="45.48838699753323" lon="10.530938185932639"><ele>78.0</ele><time>2026-05-01T09:36:53.001Z</time></trkpt><trkpt lat="45.48841628255097" lon="10.530741789490126"><ele>79.25</ele><time>2026-05-01T09:36:54.001Z</time></trkpt><trkpt lat="45.488446021570795" lon="10.530528205163296"><ele>80.5</ele><time>2026-05-01T09:36:55.001Z</time></trkpt><trkpt lat="45.48847111134856" lon="10.53032916832258"><ele>81.75</ele><time>2026-05-01T09:36:56.001Z</time></trkpt><trkpt lat="45.48848426519509" lon="10.530124263065597"><ele>83.0</ele><time>2026-05-01T09:36:57.001Z</time></trkpt><trkpt lat="45.488494469183884" lon="10.529915545852734"><ele>83.25</ele><time>2026-05-01T09:36:58.001Z</time></trkpt><trkpt lat="45.48849308654719" lon="10.529698385306443"><ele>83.5</ele><time>2026-05-01T09:36:59.001Z</time></trkpt><trkpt lat="45.48848167223443" lon="10.529488559506055"><ele>83.75</ele><time>2026-05-01T09:37:00.001Z</time></trkpt><trkpt lat="45.488468125897654" lon="10.529281718080329"><ele>84.0</ele><time>2026-05-01T09:37:01.001Z</time></trkpt><trkpt lat="45.48845076684222" lon="10.529068043210605"><ele>84.0</ele><time>2026-05-01T09:37:02.001Z</time></trkpt><trkpt lat="45.48842656708646" lon="10.528858522078776"><ele>84.0</ele><time>2026-05-01T09:37:03.001Z</time></trkpt><trkpt lat="45.48839786088006" lon="10.52865623089536"><ele>84.0</ele><time>2026-05-01T09:37:04.001Z</time></trkpt><trkpt lat="45.48836954396699" lon="10.528451143593964"><ele>84.0</ele><time>2026-05-01T09:37:05.001Z</time></trkpt><trkpt lat="45.48833791794045" lon="10.528246642815644"><ele>83.75</ele><time>2026-05-01T09:37:06.001Z</time></trkpt><trkpt lat="45.48830440046507" lon="10.52805205810878"><ele>83.5</ele><time>2026-05-01T09:37:07.001Z</time></trkpt><trkpt lat="45.48827107426439" lon="10.527850462534012"><ele>83.25</ele><time>2026-05-01T09:37:08.001Z</time></trkpt><trkpt lat="45.48823842723879" lon="10.52764186060088"><ele>83.0</ele><time>2026-05-01T09:37:09.001Z</time></trkpt><trkpt lat="45.488205859736276" lon="10.527435127322118"><ele>82.25</ele><time>2026-05-01T09:37:10.001Z</time></trkpt><trkpt lat="45.48816920619066" lon="10.52723112927461"><ele>81.5</ele><time>2026-05-01T09:37:11.001Z</time></trkpt><trkpt lat="45.48813732088645" lon="10.527025968874074"><ele>80.75</ele><time>2026-05-01T09:37:12.001Z</time></trkpt><trkpt lat="45.488104643068425" lon="10.526820220241891"><ele>80.0</ele><time>2026-05-01T09:37:13.001Z</time></trkpt><trkpt lat="45.488076891755476" lon="10.52662438968347"><ele>78.5</ele><time>2026-05-01T09:37:14.001Z</time></trkpt><trkpt lat="45.48803656334695" lon="10.526440407968623"><ele>77.0</ele><time>2026-05-01T09:37:15.001Z</time></trkpt><trkpt lat="45.488010905986435" lon="10.526254788211169"><ele>75.5</ele><time>2026-05-01T09:37:16.001Z</time></trkpt><trkpt lat="45.48799055590115" lon="10.526053746667936"><ele>74.0</ele><time>2026-05-01T09:37:17.001Z</time></trkpt><trkpt lat="45.48795458955565" lon="10.525864774503118"><ele>79.75</ele><time>2026-05-01T09:37:18.001Z</time></trkpt><trkpt lat="45.48792560501569" lon="10.525678097345958"><ele>85.5</ele><time>2026-05-01T09:37:19.001Z</time></trkpt><trkpt lat="45.487890409167534" lon="10.525487728534248"><ele>91.25</ele><time>2026-05-01T09:37:20.001Z</time></trkpt><trkpt lat="45.48785511785571" lon="10.525295958543332"><ele>97.0</ele><time>2026-05-01T09:37:21.001Z</time></trkpt><trkpt lat="45.48782455922472" lon="10.525098382560335"><ele>97.0</ele><time>2026-05-01T09:37:22.001Z</time></trkpt><trkpt lat="45.48778819836891" lon="10.524899867661254"><ele>97.0</ele><time>2026-05-01T09:37:23.001Z</time></trkpt><trkpt lat="45.48775910151851" lon="10.52470262530903"><ele>97.0</ele><time>2026-05-01T09:37:24.001Z</time></trkpt><trkpt lat="45.48772845665237" lon="10.524516271814608"><ele>97.0</ele><time>2026-05-01T09:37:25.001Z</time></trkpt><trkpt lat="45.48770154535435" lon="10.524327442443646"><ele>95.25</ele><time>2026-05-01T09:37:26.002Z</time></trkpt><trkpt lat="45.48766969167393" lon="10.524143369834967"><ele>93.5</ele><time>2026-05-01T09:37:27.002Z</time></trkpt><trkpt lat="45.4876425584074" lon="10.523958509724798"><ele>91.75</ele><time>2026-05-01T09:37:28.002Z</time></trkpt><trkpt lat="45.487625657265454" lon="10.52377596562149"><ele>90.0</ele><time>2026-05-01T09:37:29.002Z</time></trkpt><trkpt lat="45.48759873243535" lon="10.523601666673237"><ele>87.25</ele><time>2026-05-01T09:37:30.002Z</time></trkpt><trkpt lat="45.48757404676142" lon="10.52342822766036"><ele>84.5</ele><time>2026-05-01T09:37:31.002Z</time></trkpt><trkpt lat="45.48755248951093" lon="10.523263089742459"><ele>81.75</ele><time>2026-05-01T09:37:32.002Z</time></trkpt><trkpt lat="45.48753761523324" lon="10.523103773575448"><ele>79.0</ele><time>2026-05-01T09:37:33.002Z</time></trkpt><trkpt lat="45.48752393840616" lon="10.522935187832893"><ele>78.0</ele><time>2026-05-01T09:37:34.002Z</time></trkpt><trkpt lat="45.487520951905985" lon="10.522763409616909"><ele>77.0</ele><time>2026-05-01T09:37:35.002Z</time></trkpt><trkpt lat="45.48752165873609" lon="10.522592034899823"><ele>76.0</ele><time>2026-05-01T09:37:36.002Z</time></trkpt><trkpt lat="45.487531755073476" lon="10.522412955080666"><ele>75.0</ele><time>2026-05-01T09:37:37.002Z</time></trkpt><trkpt lat="45.48755636728905" lon="10.522258219634688"><ele>75.0</ele><time>2026-05-01T09:37:38.002Z</time></trkpt><trkpt lat="45.48758220273056" lon="10.522099676342233"><ele>75.0</ele><time>2026-05-01T09:37:39.002Z</time></trkpt><trkpt lat="45.487620052792636" lon="10.521944458821874"><ele>75.0</ele><time>2026-05-01T09:37:40.002Z</time></trkpt><trkpt lat="45.48765736904442" lon="10.521801623199305"><ele>75.0</ele><time>2026-05-01T09:37:41.002Z</time></trkpt><trkpt lat="45.48770469988908" lon="10.521654234179683"><ele>74.6</ele><time>2026-05-01T09:37:42.002Z</time></trkpt><trkpt lat="45.48774791072679" lon="10.52152478517219"><ele>74.2</ele><time>2026-05-01T09:37:43.002Z</time></trkpt><trkpt lat="45.48780262985285" lon="10.521410458443706"><ele>73.8</ele><time>2026-05-01T09:37:44.002Z</time></trkpt><trkpt lat="45.48785824356247" lon="10.52130826325333"><ele>73.4</ele><time>2026-05-01T09:37:45.002Z</time></trkpt><trkpt lat="45.48791899500567" lon="10.521202224474122"><ele>73.0</ele><time>2026-05-01T09:37:46.002Z</time></trkpt><trkpt lat="45.4879723035737" lon="10.521097790493211"><ele>71.83333333333333</ele><time>2026-05-01T09:37:47.002Z</time></trkpt><trkpt lat="45.48802051658623" lon="10.520999977895721"><ele>70.66666666666666</ele><time>2026-05-01T09:37:48.002Z</time></trkpt><trkpt lat="45.48806387059446" lon="10.520908545254274"><ele>69.5</ele><time>2026-05-01T09:37:49.002Z</time></trkpt><trkpt lat="45.48811723132888" lon="10.520809460488323"><ele>68.33333333333333</ele><time>2026-05-01T09:37:50.002Z</time></trkpt><trkpt lat="45.48816822497397" lon="10.520717588992094"><ele>67.16666666666667</ele><time>2026-05-01T09:37:51.002Z</time></trkpt><trkpt lat="45.4882125247876" lon="10.52061126453743"><ele>66.0</ele><time>2026-05-01T09:37:52.002Z</time></trkpt><trkpt lat="45.488262560633636" lon="10.520493443570041"><ele>66.5</ele><time>2026-05-01T09:37:53.002Z</time></trkpt><trkpt lat="45.4883170129386" lon="10.520394410880874"><ele>67.0</ele><time>2026-05-01T09:37:54.002Z</time></trkpt><trkpt lat="45.488361413358874" lon="10.520297689740866"><ele>67.5</ele><time>2026-05-01T09:37:55.002Z</time></trkpt><trkpt lat="45.488413493171855" lon="10.520201695762541"><ele>68.0</ele><time>2026-05-01T09:37:56.002Z</time></trkpt><trkpt lat="45.48845296315099" lon="10.520103879505971"><ele>68.5</ele><time>2026-05-01T09:37:57.002Z</time></trkpt><trkpt lat="45.48849861776919" lon="10.520015757222602"><ele>69.0</ele><time>2026-05-01T09:37:58.002Z</time></trkpt><trkpt lat="45.48855714180604" lon="10.519934848554136"><ele>69.0</ele><time>2026-05-01T09:37:59.002Z</time></trkpt><trkpt lat="45.48859616129776" lon="10.519849669845929"><ele>69.0</ele><time>2026-05-01T09:38:00.002Z</time></trkpt><trkpt lat="45.48863896391614" lon="10.519755636753146"><ele>69.0</ele><time>2026-05-01T09:38:01.002Z</time></trkpt><trkpt lat="45.48868884574985" lon="10.519641722993757"><ele>69.0</ele><time>2026-05-01T09:38:02.002Z</time></trkpt><trkpt lat="45.48873997937747" lon="10.51954502050635"><ele>69.0</ele><time>2026-05-01T09:38:03.002Z</time></trkpt><trkpt lat="45.48879451222322" lon="10.519436923704562"><ele>69.0</ele><time>2026-05-01T09:38:04.002Z</time></trkpt><trkpt lat="45.488841290378716" lon="10.51933524316352"><ele>68.5</ele><time>2026-05-01T09:38:05.002Z</time></trkpt><trkpt lat="45.48889170099913" lon="10.519243841674022"><ele>68.0</ele><time>2026-05-01T09:38:06.002Z</time></trkpt><trkpt lat="45.488933912559105" lon="10.51915309737115"><ele>67.5</ele><time>2026-05-01T09:38:07.002Z</time></trkpt><trkpt lat="45.48898096172609" lon="10.51905680612408"><ele>67.0</ele><time>2026-05-01T09:38:08.002Z</time></trkpt><trkpt lat="45.48902519888628" lon="10.5189583855256"><ele>66.5</ele><time>2026-05-01T09:38:09.003Z</time></trkpt><trkpt lat="45.489071517015745" lon="10.518857761466304"><ele>66.0</ele><time>2026-05-01T09:38:10.003Z</time></trkpt><trkpt lat="45.48911521702087" lon="10.518764294047072"><ele>66.39999999999999</ele><time>2026-05-01T09:38:11.003Z</time></trkpt><trkpt lat="45.48917093152372" lon="10.518678653377771"><ele>66.8</ele><time>2026-05-01T09:38:12.003Z</time></trkpt><trkpt lat="45.48922505108509" lon="10.51855773985122"><ele>67.19999999999999</ele><time>2026-05-01T09:38:13.003Z</time></trkpt><trkpt lat="45.48928211598441" lon="10.518453926044161"><ele>67.6</ele><time>2026-05-01T09:38:14.003Z</time></trkpt><trkpt lat="45.489329374237705" lon="10.518347814438112"><ele>68.0</ele><time>2026-05-01T09:38:15.003Z</time></trkpt><trkpt lat="45.48938493651237" lon="10.518231078122998"><ele>68.0</ele><time>2026-05-01T09:38:16.003Z</time></trkpt><trkpt lat="45.489440020024055" lon="10.518085758103096"><ele>68.0</ele><time>2026-05-01T09:38:17.003Z</time></trkpt><trkpt lat="45.48954267462142" lon="10.517913548261781"><ele>68.0</ele><time>2026-05-01T09:38:18.003Z</time></trkpt><trkpt lat="45.48963542729688" lon="10.517702417516638"><ele>68.0</ele><time>2026-05-01T09:38:19Z</time></trkpt><trkpt lat="45.48972968634052" lon="10.51751777530715"><ele>68.0</ele><time>2026-05-01T09:38:20Z</time></trkpt><trkpt lat="45.48983320240144" lon="10.517333979723203"><ele>68.0</ele><time>2026-05-01T09:38:21Z</time></trkpt><trkpt lat="45.48993969509272" lon="10.517138213215675"><ele>68.0</ele><time>2026-05-01T09:38:22Z</time></trkpt><trkpt lat="45.49003736395027" lon="10.516955762563647"><ele>68.33333333333334</ele><time>2026-05-01T09:38:23Z</time></trkpt><trkpt lat="45.490128227718984" lon="10.516774149474298"><ele>68.66666666666667</ele><time>2026-05-01T09:38:24Z</time></trkpt><trkpt lat="45.49022816739943" lon="10.516582141077901"><ele>69.0</ele><time>2026-05-01T09:38:25Z</time></trkpt><trkpt lat="45.4902975014389" lon="10.516411528498093"><ele>68.66666666666667</ele><time>2026-05-01T09:38:26Z</time></trkpt><trkpt lat="45.490382503504016" lon="10.516222807281771"><ele>68.33333333333334</ele><time>2026-05-01T09:38:27Z</time></trkpt><trkpt lat="45.490477301750964" lon="10.516042330388665"><ele>68.0</ele><time>2026-05-01T09:38:28Z</time></trkpt><trkpt lat="45.49056825700397" lon="10.515862452695684"><ele>68.0</ele><time>2026-05-01T09:38:29Z</time></trkpt><trkpt lat="45.49064900054445" lon="10.515693934345887"><ele>68.0</ele><time>2026-05-01T09:38:30Z</time></trkpt><trkpt lat="45.490716802140774" lon="10.515539307827806"><ele>68.0</ele><time>2026-05-01T09:38:31Z</time></trkpt><trkpt lat="45.4907689543758" lon="10.515395138222532"><ele>68.0</ele><time>2026-05-01T09:38:32Z</time></trkpt><trkpt lat="45.49080545402649" lon="10.515251755690528"><ele>68.4</ele><time>2026-05-01T09:38:33Z</time></trkpt><trkpt lat="45.490837321103974" lon="10.51511489651745"><ele>68.8</ele><time>2026-05-01T09:38:34Z</time></trkpt><trkpt lat="45.490891814087625" lon="10.51499475609415"><ele>69.2</ele><time>2026-05-01T09:38:35Z</time></trkpt><trkpt lat="45.49098865934726" lon="10.514881364183287"><ele>69.6</ele><time>2026-05-01T09:38:36Z</time></trkpt><trkpt lat="45.491079987044884" lon="10.514775483004497"><ele>70.0</ele><time>2026-05-01T09:38:37Z</time></trkpt><trkpt lat="45.49116745162971" lon="10.51462693092764"><ele>70.0</ele><time>2026-05-01T09:38:38Z</time></trkpt><trkpt lat="45.491250331953346" lon="10.514467294783607"><ele>70.0</ele><time>2026-05-01T09:38:39Z</time></trkpt><trkpt lat="45.49133428478195" lon="10.514298778552039"><ele>70.0</ele><time>2026-05-01T09:38:40Z</time></trkpt><trkpt lat="45.49142146845781" lon="10.514133911241883"><ele>70.0</ele><time>2026-05-01T09:38:41Z</time></trkpt><trkpt lat="45.491506905395326" lon="10.51396270265885"><ele>69.75</ele><time>2026-05-01T09:38:42Z</time></trkpt><trkpt lat="45.49160190148602" lon="10.513789672328638"><ele>69.5</ele><time>2026-05-01T09:38:43Z</time></trkpt><trkpt lat="45.49170290651785" lon="10.513630848375866"><ele>69.25</ele><time>2026-05-01T09:38:44Z</time></trkpt><trkpt lat="45.491795879995784" lon="10.513491361325134"><ele>69.0</ele><time>2026-05-01T09:38:45Z</time></trkpt><trkpt lat="45.49187507711986" lon="10.513385717104825"><ele>69.0</ele><time>2026-05-01T09:38:46Z</time></trkpt><trkpt lat="45.49196164368332" lon="10.513296182034374"><ele>69.0</ele><time>2026-05-01T09:38:47Z</time></trkpt><trkpt lat="45.492041981567674" lon="10.51320932129148"><ele>69.0</ele><time>2026-05-01T09:38:48Z</time></trkpt><trkpt lat="45.49213463310744" lon="10.513125122391807"><ele>69.0</ele><time>2026-05-01T09:38:49Z</time></trkpt><trkpt lat="45.492249497145764" lon="10.513034997273058"><ele>69.0</ele><time>2026-05-01T09:38:50Z</time></trkpt><trkpt lat="45.49236984551544" lon="10.512940855079728"><ele>69.75</ele><time>2026-05-01T09:38:51Z</time></trkpt><trkpt lat="45.49249461868583" lon="10.512843470089654"><ele>70.5</ele><time>2026-05-01T09:38:52.001Z</time></trkpt><trkpt lat="45.49261139075825" lon="10.512751372611916"><ele>71.25</ele><time>2026-05-01T09:38:53.001Z</time></trkpt><trkpt lat="45.492721455804485" lon="10.512670647957536"><ele>72.0</ele><time>2026-05-01T09:38:54.001Z</time></trkpt><trkpt lat="45.49282561565593" lon="10.51260578743382"><ele>71.75</ele><time>2026-05-01T09:38:55.001Z</time></trkpt><trkpt lat="45.49293935835434" lon="10.512516927897732"><ele>71.5</ele><time>2026-05-01T09:38:56.001Z</time></trkpt><trkpt lat="45.493068184169786" lon="10.512421217643025"><ele>71.25</ele><time>2026-05-01T09:38:57.001Z</time></trkpt><trkpt lat="45.493196981385104" lon="10.512327221206217"><ele>71.0</ele><time>2026-05-01T09:38:58.001Z</time></trkpt><trkpt lat="45.49332642696822" lon="10.51222290001723"><ele>71.0</ele><time>2026-05-01T09:38:59.001Z</time></trkpt><trkpt lat="45.493459190651144" lon="10.512121374267018"><ele>71.0</ele><time>2026-05-01T09:39:00.001Z</time></trkpt><trkpt lat="45.493597421698745" lon="10.512016482752477"><ele>71.0</ele><time>2026-05-01T09:39:01.001Z</time></trkpt><trkpt lat="45.493737355389904" lon="10.511905268188706"><ele>70.66666666666667</ele><time>2026-05-01T09:39:02.001Z</time></trkpt><trkpt lat="45.49387802208505" lon="10.511796695979625"><ele>70.33333333333333</ele><time>2026-05-01T09:39:03.001Z</time></trkpt><trkpt lat="45.494021412981795" lon="10.511693376381784"><ele>70.0</ele><time>2026-05-01T09:39:04.001Z</time></trkpt><trkpt lat="45.494156564579455" lon="10.511589916657735"><ele>70.0</ele><time>2026-05-01T09:39:05.001Z</time></trkpt><trkpt lat="45.49429342937496" lon="10.511487745469807"><ele>70.0</ele><time>2026-05-01T09:39:06.001Z</time></trkpt><trkpt lat="45.494425113563096" lon="10.511387044319786"><ele>70.0</ele><time>2026-05-01T09:39:07.001Z</time></trkpt><trkpt lat="45.49454726678474" lon="10.511292309583846"><ele>70.0</ele><time>2026-05-01T09:39:08.001Z</time></trkpt><trkpt lat="45.494660595623806" lon="10.51120625753861"><ele>70.0</ele><time>2026-05-01T09:39:09.001Z</time></trkpt><trkpt lat="45.49476896019536" lon="10.51112494715521"><ele>70.0</ele><time>2026-05-01T09:39:10.001Z</time></trkpt><trkpt lat="45.49487106761603" lon="10.511044170032283"><ele>70.0</ele><time>2026-05-01T09:39:11.001Z</time></trkpt><trkpt lat="45.49496985020492" lon="10.510970312054324"><ele>70.0</ele><time>2026-05-01T09:39:12.001Z</time></trkpt><trkpt lat="45.49505946979164" lon="10.510900618055269"><ele>70.0</ele><time>2026-05-01T09:39:13.001Z</time></trkpt><trkpt lat="45.495149030575206" lon="10.510833225571517"><ele>70.0</ele><time>2026-05-01T09:39:14.001Z</time></trkpt><trkpt lat="45.49523966553032" lon="10.510768262691709"><ele>70.0</ele><time>2026-05-01T09:39:15.001Z</time></trkpt><trkpt lat="45.49533001576" lon="10.510703637038924"><ele>70.0</ele><time>2026-05-01T09:39:16.001Z</time></trkpt><trkpt lat="45.49542150286679" lon="10.510637775927826"><ele>70.0</ele><time>2026-05-01T09:39:17.001Z</time></trkpt><trkpt lat="45.49550809567311" lon="10.510569757970025"><ele>69.8</ele><time>2026-05-01T09:39:18.001Z</time></trkpt><trkpt lat="45.495591778104064" lon="10.510505037657751"><ele>69.6</ele><time>2026-05-01T09:39:19.001Z</time></trkpt><trkpt lat="45.49566714533538" lon="10.510445900712782"><ele>69.4</ele><time>2026-05-01T09:39:20.001Z</time></trkpt><trkpt lat="45.495746026694206" lon="10.510385634336375"><ele>69.2</ele><time>2026-05-01T09:39:21.001Z</time></trkpt><trkpt lat="45.4958258526367" lon="10.510320254969825"><ele>69.0</ele><time>2026-05-01T09:39:22.001Z</time></trkpt><trkpt lat="45.495919908759056" lon="10.510247961040497"><ele>69.5</ele><time>2026-05-01T09:39:23.001Z</time></trkpt><trkpt lat="45.496024099742264" lon="10.510169992098575"><ele>70.0</ele><time>2026-05-01T09:39:24.001Z</time></trkpt><trkpt lat="45.49613136111473" lon="10.510087978876783"><ele>70.5</ele><time>2026-05-01T09:39:25.001Z</time></trkpt><trkpt lat="45.4962419787078" lon="10.510003110120804"><ele>71.0</ele><time>2026-05-01T09:39:26.001Z</time></trkpt><trkpt lat="45.49635686152079" lon="10.509915508808907"><ele>71.0</ele><time>2026-05-01T09:39:27.001Z</time></trkpt><trkpt lat="45.496468084410644" lon="10.509835171327031"><ele>71.0</ele><time>2026-05-01T09:39:28.001Z</time></trkpt><trkpt lat="45.49657062660437" lon="10.509756683712025"><ele>71.0</ele><time>2026-05-01T09:39:29.001Z</time></trkpt><trkpt lat="45.49666760411484" lon="10.509689130654365"><ele>71.0</ele><time>2026-05-01T09:39:30.001Z</time></trkpt><trkpt lat="45.496757608533876" lon="10.509642043533248"><ele>71.0</ele><time>2026-05-01T09:39:31.001Z</time></trkpt><trkpt lat="45.49683656403019" lon="10.50959275082709"><ele>71.5</ele><time>2026-05-01T09:39:32.001Z</time></trkpt><trkpt lat="45.49691167172617" lon="10.509542534032562"><ele>72.0</ele><time>2026-05-01T09:39:33.001Z</time></trkpt><trkpt lat="45.49698737583609" lon="10.50950772263518"><ele>72.5</ele><time>2026-05-01T09:39:34.001Z</time></trkpt><trkpt lat="45.497062471342296" lon="10.509464729358324"><ele>73.0</ele><time>2026-05-01T09:39:35.002Z</time></trkpt><trkpt lat="45.4971333794512" lon="10.509414980799084"><ele>73.5</ele><time>2026-05-01T09:39:36.002Z</time></trkpt><trkpt lat="45.497209722132595" lon="10.509390126801923"><ele>74.0</ele><time>2026-05-01T09:39:37.002Z</time></trkpt><trkpt lat="45.497285564683985" lon="10.50934862699238"><ele>74.0</ele><time>2026-05-01T09:39:38.002Z</time></trkpt><trkpt lat="45.497350867684915" lon="10.509312894217233"><ele>74.0</ele><time>2026-05-01T09:39:39.002Z</time></trkpt><trkpt lat="45.497458844939736" lon="10.509253810798066"><ele>74.0</ele><time>2026-05-01T09:39:41.002Z</time></trkpt><trkpt lat="45.49754061037944" lon="10.509193456827118"><ele>74.0</ele><time>2026-05-01T09:39:43.002Z</time></trkpt><trkpt lat="45.49765019709413" lon="10.50919301300331"><ele>74.0</ele><time>2026-05-01T09:39:45.002Z</time></trkpt><trkpt lat="45.497769496553516" lon="10.509229927783474"><ele>74.0</ele><time>2026-05-01T09:39:47.002Z</time></trkpt><trkpt lat="45.497905640938924" lon="10.509170612935304"><ele>74.0</ele><time>2026-05-01T09:39:49.002Z</time></trkpt><trkpt lat="45.49796801217477" lon="10.509115606944846"><ele>74.0</ele><time>2026-05-01T09:39:50.002Z</time></trkpt><trkpt lat="45.49806092807871" lon="10.5090730034089"><ele>74.0</ele><time>2026-05-01T09:39:52.002Z</time></trkpt><trkpt lat="45.498145546553204" lon="10.509081635698895"><ele>74.0</ele><time>2026-05-01T09:39:54.002Z</time></trkpt><trkpt lat="45.498229956493994" lon="10.50908277609574"><ele>74.5</ele><time>2026-05-01T09:39:57.002Z</time></trkpt><trkpt lat="45.498304404422235" lon="10.509081692192076"><ele>75.0</ele><time>2026-05-01T09:39:59.002Z</time></trkpt><trkpt lat="45.498362952141335" lon="10.509117685971866"><ele>75.5</ele><time>2026-05-01T09:40:01.002Z</time></trkpt><trkpt lat="45.49845945937605" lon="10.509125842369153"><ele>76.0</ele><time>2026-05-01T09:40:04.002Z</time></trkpt><trkpt lat="45.498551581931196" lon="10.509138934115253"><ele>76.5</ele><time>2026-05-01T09:40:06.002Z</time></trkpt><trkpt lat="45.49863173449265" lon="10.50915291220943"><ele>77.0</ele><time>2026-05-01T09:40:08.002Z</time></trkpt><trkpt lat="45.49873164675376" lon="10.509174081508586"><ele>78.2</ele><time>2026-05-01T09:40:10.002Z</time></trkpt><trkpt lat="45.498824952929674" lon="10.509197321192895"><ele>79.4</ele><time>2026-05-01T09:40:12.002Z</time></trkpt><trkpt lat="45.49895208803792" lon="10.509222877204172"><ele>80.60000000000001</ele><time>2026-05-01T09:40:14.002Z</time></trkpt><trkpt lat="45.4990800251028" lon="10.509251441884139"><ele>81.80000000000001</ele><time>2026-05-01T09:40:16.002Z</time></trkpt><trkpt lat="45.499165634127486" lon="10.509303514494343"><ele>83.0</ele><time>2026-05-01T09:40:17.002Z</time></trkpt><trkpt lat="45.49929148065687" lon="10.509349513372824"><ele>83.0</ele><time>2026-05-01T09:40:18.003Z</time></trkpt><trkpt lat="45.499421982738646" lon="10.509402418928339"><ele>83.0</ele><time>2026-05-01T09:40:19.003Z</time></trkpt><trkpt lat="45.49952042672363" lon="10.509432383649083"><ele>83.0</ele><time>2026-05-01T09:40:20.003Z</time></trkpt><trkpt lat="45.499591693602426" lon="10.509469469079917"><ele>83.0</ele><time>2026-05-01T09:40:21.003Z</time></trkpt><trkpt lat="45.499664228146194" lon="10.509510045763319"><ele>83.0</ele><time>2026-05-01T09:40:22.003Z</time></trkpt><trkpt lat="45.499731503029764" lon="10.509545812011286"><ele>82.66666666666667</ele><time>2026-05-01T09:40:23.003Z</time></trkpt><trkpt lat="45.49979926308419" lon="10.509576879021262"><ele>82.33333333333334</ele><time>2026-05-01T09:40:24.003Z</time></trkpt><trkpt lat="45.49986950158607" lon="10.509609763794638"><ele>82.0</ele><time>2026-05-01T09:40:25.001Z</time></trkpt><trkpt lat="45.49994032289224" lon="10.509653769657925"><ele>81.66666666666667</ele><time>2026-05-01T09:40:26.001Z</time></trkpt><trkpt lat="45.50005470567745" lon="10.509712776430154"><ele>81.33333333333333</ele><time>2026-05-01T09:40:28.001Z</time></trkpt><trkpt lat="45.50014825460961" lon="10.509763501358343"><ele>81.0</ele><time>2026-05-01T09:40:30.001Z</time></trkpt><trkpt lat="45.50025030416228" lon="10.509814040890195"><ele>81.0</ele><time>2026-05-01T09:40:32.001Z</time></trkpt><trkpt lat="45.50032133586009" lon="10.50984904117037"><ele>81.0</ele><time>2026-05-01T09:40:33.001Z</time></trkpt><trkpt lat="45.50039326175092" lon="10.509912565914375"><ele>81.0</ele><time>2026-05-01T09:40:34.001Z</time></trkpt><trkpt lat="45.50047073778125" lon="10.509956454718301"><ele>81.0</ele><time>2026-05-01T09:40:35.001Z</time></trkpt><trkpt lat="45.50054308428072" lon="10.509997437867327"><ele>81.0</ele><time>2026-05-01T09:40:36.001Z</time></trkpt><trkpt lat="45.50060738325259" lon="10.510033759352043"><ele>81.0</ele><time>2026-05-01T09:40:37.001Z</time></trkpt><trkpt lat="45.50067772872481" lon="10.51004747652324"><ele>82.16666666666667</ele><time>2026-05-01T09:40:38.001Z</time></trkpt><trkpt lat="45.500740210463476" lon="10.510107177734353"><ele>83.33333333333333</ele><time>2026-05-01T09:40:39.001Z</time></trkpt><trkpt lat="45.5008127337066" lon="10.510147263891673"><ele>84.5</ele><time>2026-05-01T09:40:40.001Z</time></trkpt><trkpt lat="45.500881404604684" lon="10.510185220783427"><ele>85.66666666666666</ele><time>2026-05-01T09:40:41.001Z</time></trkpt><trkpt lat="45.50095601319278" lon="10.510226459600835"><ele>86.83333333333333</ele><time>2026-05-01T09:40:42.001Z</time></trkpt><trkpt lat="45.501036044971734" lon="10.510270695908227"><ele>88.0</ele><time>2026-05-01T09:40:43.001Z</time></trkpt><trkpt lat="45.501115126032786" lon="10.510314406976748"><ele>88.0</ele><time>2026-05-01T09:40:44.001Z</time></trkpt><trkpt lat="45.50119225445195" lon="10.510356698741496"><ele>88.0</ele><time>2026-05-01T09:40:45.001Z</time></trkpt><trkpt lat="45.50127600554027" lon="10.510402215874997"><ele>88.0</ele><time>2026-05-01T09:40:46.001Z</time></trkpt><trkpt lat="45.50139678158775" lon="10.51042425896434"><ele>88.0</ele><time>2026-05-01T09:40:47.001Z</time></trkpt><trkpt lat="45.50154602135639" lon="10.510514853763375"><ele>87.2</ele><time>2026-05-01T09:40:48.001Z</time></trkpt><trkpt lat="45.50166872008561" lon="10.510574717259235"><ele>86.4</ele><time>2026-05-01T09:40:49.001Z</time></trkpt><trkpt lat="45.501764284163066" lon="10.51064374113576"><ele>85.60000000000001</ele><time>2026-05-01T09:40:50.001Z</time></trkpt><trkpt lat="45.501845147083046" lon="10.510716912709112"><ele>84.80000000000001</ele><time>2026-05-01T09:40:51.001Z</time></trkpt><trkpt lat="45.5019211754561" lon="10.510757800075352"><ele>84.0</ele><time>2026-05-01T09:40:52.001Z</time></trkpt><trkpt lat="45.50198872483118" lon="10.510794188041869"><ele>84.0</ele><time>2026-05-01T09:40:53.001Z</time></trkpt><trkpt lat="45.5020803543091" lon="10.510844604319104"><ele>84.0</ele><time>2026-05-01T09:40:54.001Z</time></trkpt><trkpt lat="45.50217838629942" lon="10.510898543249265"><ele>84.0</ele><time>2026-05-01T09:40:55.001Z</time></trkpt><trkpt lat="45.502253045328146" lon="10.510939622038329"><ele>84.0</ele><time>2026-05-01T09:40:56.001Z</time></trkpt><trkpt lat="45.50236182403201" lon="10.510999474080382"><ele>84.0</ele><time>2026-05-01T09:40:58.001Z</time></trkpt><trkpt lat="45.50242961732419" lon="10.511036775172016"><ele>83.83333333333333</ele><time>2026-05-01T09:40:59.001Z</time></trkpt><trkpt lat="45.502498743349406" lon="10.511074809572657"><ele>83.66666666666667</ele><time>2026-05-01T09:41:00.001Z</time></trkpt><trkpt lat="45.502569627704354" lon="10.511113811449862"><ele>83.5</ele><time>2026-05-01T09:41:01.001Z</time></trkpt><trkpt lat="45.502651082039556" lon="10.511158494665368"><ele>83.33333333333334</ele><time>2026-05-01T09:41:02.001Z</time></trkpt><trkpt lat="45.502746097845204" lon="10.511210283951957"><ele>83.16666666666667</ele><time>2026-05-01T09:41:03.001Z</time></trkpt><trkpt lat="45.50283913427275" lon="10.511260994334325"><ele>83.0</ele><time>2026-05-01T09:41:04.001Z</time></trkpt><trkpt lat="45.50291381206048" lon="10.51130169823159"><ele>85.66666666666667</ele><time>2026-05-01T09:41:05.001Z</time></trkpt><trkpt lat="45.503066985298275" lon="10.511385186761213"><ele>88.33333333333333</ele><time>2026-05-01T09:41:07.001Z</time></trkpt><trkpt lat="45.503213417945524" lon="10.511465001240088"><ele>91.0</ele><time>2026-05-01T09:41:08.001Z</time></trkpt><trkpt lat="45.50339166674338" lon="10.511543116350127"><ele>91.0</ele><time>2026-05-01T09:41:09.001Z</time></trkpt><trkpt lat="45.50355101270408" lon="10.511647210448945"><ele>91.0</ele><time>2026-05-01T09:41:10.001Z</time></trkpt><trkpt lat="45.50368755985873" lon="10.511711760258104"><ele>91.0</ele><time>2026-05-01T09:41:11.001Z</time></trkpt><trkpt lat="45.50380211931625" lon="10.511756863878169"><ele>91.0</ele><time>2026-05-01T09:41:12.001Z</time></trkpt><trkpt lat="45.503904567753196" lon="10.511793450970371"><ele>91.19999999999999</ele><time>2026-05-01T09:41:13.001Z</time></trkpt><trkpt lat="45.50399346208038" lon="10.511840402126525"><ele>91.39999999999999</ele><time>2026-05-01T09:41:14.001Z</time></trkpt><trkpt lat="45.504085385476095" lon="10.511910874310937"><ele>91.6</ele><time>2026-05-01T09:41:15.001Z</time></trkpt><trkpt lat="45.504176486508584" lon="10.511984301359979"><ele>91.8</ele><time>2026-05-01T09:41:16.001Z</time></trkpt><trkpt lat="45.50426628931577" lon="10.512040785641728"><ele>92.0</ele><time>2026-05-01T09:41:17.001Z</time></trkpt><trkpt lat="45.50436970647148" lon="10.512098414179384"><ele>92.0</ele><time>2026-05-01T09:41:18.001Z</time></trkpt><trkpt lat="45.50446372360449" lon="10.512174651886097"><ele>92.0</ele><time>2026-05-01T09:41:19.001Z</time></trkpt><trkpt lat="45.50454557989601" lon="10.512256358072792"><ele>92.0</ele><time>2026-05-01T09:41:20.001Z</time></trkpt><trkpt lat="45.50463061999823" lon="10.51235461940335"><ele>92.0</ele><time>2026-05-01T09:41:21.001Z</time></trkpt><trkpt lat="45.504717078903" lon="10.512457553093018"><ele>92.0</ele><time>2026-05-01T09:41:22.001Z</time></trkpt><trkpt lat="45.50479688474191" lon="10.51257813971017"><ele>92.5</ele><time>2026-05-01T09:41:23.001Z</time></trkpt><trkpt lat="45.50487538193112" lon="10.512685145757608"><ele>93.0</ele><time>2026-05-01T09:41:24.001Z</time></trkpt><trkpt lat="45.504960727812296" lon="10.51279706411983"><ele>93.5</ele><time>2026-05-01T09:41:25.001Z</time></trkpt><trkpt lat="45.50503708757113" lon="10.512911417841654"><ele>94.0</ele><time>2026-05-01T09:41:26.001Z</time></trkpt><trkpt lat="45.505122122519516" lon="10.513034211754498"><ele>94.0</ele><time>2026-05-01T09:41:27.001Z</time></trkpt><trkpt lat="45.50520671881526" lon="10.513167301848215"><ele>94.0</ele><time>2026-05-01T09:41:28.001Z</time></trkpt><trkpt lat="45.50529594332504" lon="10.513302582163007"><ele>94.0</ele><time>2026-05-01T09:41:29.001Z</time></trkpt><trkpt lat="45.50541314690053" lon="10.513458313736185"><ele>94.0</ele><time>2026-05-01T09:41:30.002Z</time></trkpt><trkpt lat="45.5055317964991" lon="10.513651857311656"><ele>94.33333333333333</ele><time>2026-05-01T09:41:31.002Z</time></trkpt><trkpt lat="45.50563963714687" lon="10.513843321390672"><ele>94.66666666666667</ele><time>2026-05-01T09:41:32.002Z</time></trkpt><trkpt lat="45.505737516032404" lon="10.514013209832774"><ele>95.0</ele><time>2026-05-01T09:41:33.002Z</time></trkpt><trkpt lat="45.5058306478379" lon="10.514173384928055"><ele>95.0</ele><time>2026-05-01T09:41:34.002Z</time></trkpt><trkpt lat="45.505928814749964" lon="10.514301707198905"><ele>95.0</ele><time>2026-05-01T09:41:35.002Z</time></trkpt><trkpt lat="45.50603213827684" lon="10.514434718979569"><ele>95.0</ele><time>2026-05-01T09:41:36.002Z</time></trkpt><trkpt lat="45.506121118997754" lon="10.51455914713732"><ele>95.0</ele><time>2026-05-01T09:41:37.002Z</time></trkpt><trkpt lat="45.50619820550184" lon="10.514675917098117"><ele>95.2</ele><time>2026-05-01T09:41:38.002Z</time></trkpt><trkpt lat="45.50627085634011" lon="10.5147813855735"><ele>95.4</ele><time>2026-05-01T09:41:39.002Z</time></trkpt><trkpt lat="45.506344717050666" lon="10.514864118032554"><ele>95.6</ele><time>2026-05-01T09:41:40.002Z</time></trkpt><trkpt lat="45.50642245332048" lon="10.51495923289647"><ele>95.8</ele><time>2026-05-01T09:41:41.002Z</time></trkpt><trkpt lat="45.506512181361714" lon="10.515054564582089"><ele>96.0</ele><time>2026-05-01T09:41:42.002Z</time></trkpt><trkpt lat="45.50659663511203" lon="10.515148544875247"><ele>96.0</ele><time>2026-05-01T09:41:43.002Z</time></trkpt><trkpt lat="45.506679742715725" lon="10.515238249945547"><ele>96.0</ele><time>2026-05-01T09:41:44.002Z</time></trkpt><trkpt lat="45.50676286461508" lon="10.515332074625302"><ele>96.0</ele><time>2026-05-01T09:41:45.002Z</time></trkpt><trkpt lat="45.50683456092016" lon="10.515415967155409"><ele>96.0</ele><time>2026-05-01T09:41:46.002Z</time></trkpt><trkpt lat="45.50690759447" lon="10.515496491993437"><ele>96.0</ele><time>2026-05-01T09:41:47.002Z</time></trkpt><trkpt lat="45.50698579712524" lon="10.515587873830176"><ele>96.4</ele><time>2026-05-01T09:41:48.002Z</time></trkpt><trkpt lat="45.50706528632866" lon="10.515675837682432"><ele>96.8</ele><time>2026-05-01T09:41:49.002Z</time></trkpt><trkpt lat="45.50714487831825" lon="10.515771746800397"><ele>97.2</ele><time>2026-05-01T09:41:50.002Z</time></trkpt><trkpt lat="45.50723283465182" lon="10.515862333763737"><ele>97.60000000000001</ele><time>2026-05-01T09:41:51.002Z</time></trkpt><trkpt lat="45.507316231012744" lon="10.515953145776791"><ele>98.0</ele><time>2026-05-01T09:41:52.002Z</time></trkpt><trkpt lat="45.50739968932814" lon="10.516037154241786"><ele>98.0</ele><time>2026-05-01T09:41:53.002Z</time></trkpt><trkpt lat="45.50747921388263" lon="10.516122137813191"><ele>98.0</ele><time>2026-05-01T09:41:54.002Z</time></trkpt><trkpt lat="45.50755954186308" lon="10.516207394555225"><ele>98.0</ele><time>2026-05-01T09:41:55.002Z</time></trkpt><trkpt lat="45.50765864695231" lon="10.516309029551962"><ele>98.0</ele><time>2026-05-01T09:41:56.002Z</time></trkpt><trkpt lat="45.50775797756491" lon="10.516426340804"><ele>98.5</ele><time>2026-05-01T09:41:57.002Z</time></trkpt><trkpt lat="45.507860862782486" lon="10.516556054378091"><ele>99.0</ele><time>2026-05-01T09:41:58.002Z</time></trkpt><trkpt lat="45.507954200089436" lon="10.516664898482523"><ele>99.5</ele><time>2026-05-01T09:41:59.002Z</time></trkpt><trkpt lat="45.50804554311107" lon="10.516762545150735"><ele>100.0</ele><time>2026-05-01T09:42:00.002Z</time></trkpt><trkpt lat="45.50812629597551" lon="10.516857811627567"><ele>100.0</ele><time>2026-05-01T09:42:01.002Z</time></trkpt><trkpt lat="45.50820549614351" lon="10.516950404661747"><ele>100.0</ele><time>2026-05-01T09:42:02.002Z</time></trkpt><trkpt lat="45.50828866482724" lon="10.517041367324415"><ele>100.0</ele><time>2026-05-01T09:42:03.002Z</time></trkpt><trkpt lat="45.50837515981937" lon="10.5171299043079"><ele>100.0</ele><time>2026-05-01T09:42:04.002Z</time></trkpt><trkpt lat="45.5084574660412" lon="10.517223326090928"><ele>100.0</ele><time>2026-05-01T09:42:05.002Z</time></trkpt><trkpt lat="45.50854301908728" lon="10.517312110207781"><ele>100.5</ele><time>2026-05-01T09:42:06.002Z</time></trkpt><trkpt lat="45.50862723996368" lon="10.517400657863929"><ele>101.0</ele><time>2026-05-01T09:42:07.002Z</time></trkpt><trkpt lat="45.50872685535084" lon="10.51748915760317"><ele>101.5</ele><time>2026-05-01T09:42:08.002Z</time></trkpt><trkpt lat="45.50884149447174" lon="10.517601298397828"><ele>102.0</ele><time>2026-05-01T09:42:09.002Z</time></trkpt><trkpt lat="45.50898144142981" lon="10.51777114555935"><ele>100.66666666666666</ele><time>2026-05-01T09:42:10.002Z</time></trkpt><trkpt lat="45.50912576808871" lon="10.517951814557192"><ele>99.33333333333333</ele><time>2026-05-01T09:42:11.002Z</time></trkpt><trkpt lat="45.509282051089265" lon="10.518126271267848"><ele>98.0</ele><time>2026-05-01T09:42:12.002Z</time></trkpt><trkpt lat="45.50943482435399" lon="10.518283927089948"><ele>98.0</ele><time>2026-05-01T09:42:13.002Z</time></trkpt><trkpt lat="45.50957316938779" lon="10.51843340114533"><ele>98.0</ele><time>2026-05-01T09:42:14.002Z</time></trkpt><trkpt lat="45.509707833076824" lon="10.5185674736658"><ele>98.0</ele><time>2026-05-01T09:42:15.002Z</time></trkpt><trkpt lat="45.509844007615236" lon="10.51872675423571"><ele>99.0</ele><time>2026-05-01T09:42:16.002Z</time></trkpt><trkpt lat="45.509979905369114" lon="10.51886660438838"><ele>100.0</ele><time>2026-05-01T09:42:17.003Z</time></trkpt><trkpt lat="45.51012627965853" lon="10.518996640742932"><ele>101.0</ele><time>2026-05-01T09:42:18.003Z</time></trkpt><trkpt lat="45.51026908395673" lon="10.519120704210314"><ele>102.33333333333333</ele><time>2026-05-01T09:42:19.003Z</time></trkpt><trkpt lat="45.51041138758536" lon="10.519234431290306"><ele>103.66666666666666</ele><time>2026-05-01T09:42:20.003Z</time></trkpt><trkpt lat="45.51055762119058" lon="10.519341198155654"><ele>105.0</ele><time>2026-05-01T09:42:21.003Z</time></trkpt><trkpt lat="45.51070245444801" lon="10.519434586536395"><ele>105.0</ele><time>2026-05-01T09:42:22.003Z</time></trkpt><trkpt lat="45.51084672693911" lon="10.519506889539077"><ele>105.0</ele><time>2026-05-01T09:42:23.003Z</time></trkpt><trkpt lat="45.510977052158225" lon="10.519580816420907"><ele>105.0</ele><time>2026-05-01T09:42:24.003Z</time></trkpt><trkpt lat="45.51110142766675" lon="10.519654590033904"><ele>105.0</ele><time>2026-05-01T09:42:25.003Z</time></trkpt><trkpt lat="45.51121907740667" lon="10.519718263232113"><ele>104.4</ele><time>2026-05-01T09:42:26.003Z</time></trkpt><trkpt lat="45.511328014709385" lon="10.519780796957816"><ele>103.8</ele><time>2026-05-01T09:42:27.003Z</time></trkpt><trkpt lat="45.51142703965417" lon="10.51983436839864"><ele>103.19999999999999</ele><time>2026-05-01T09:42:28.003Z</time></trkpt><trkpt lat="45.51151486709447" lon="10.519879765536395"><ele>102.6</ele><time>2026-05-01T09:42:29.003Z</time></trkpt><trkpt lat="45.51159500113498" lon="10.519933345193335"><ele>102.0</ele><time>2026-05-01T09:42:30.003Z</time></trkpt><trkpt lat="45.51167488538696" lon="10.519968052059278"><ele>102.0</ele><time>2026-05-01T09:42:31.001Z</time></trkpt><trkpt lat="45.51174116901319" lon="10.520013466267567"><ele>102.0</ele><time>2026-05-01T09:42:32.001Z</time></trkpt><trkpt lat="45.51181033118295" lon="10.52007820937233"><ele>102.0</ele><time>2026-05-01T09:42:33.001Z</time></trkpt><trkpt lat="45.51187767145488" lon="10.520181666093626"><ele>102.0</ele><time>2026-05-01T09:42:34.001Z</time></trkpt><trkpt lat="45.51194790020361" lon="10.520254922620666"><ele>102.0</ele><time>2026-05-01T09:42:35.001Z</time></trkpt><trkpt lat="45.51204041829948" lon="10.520283394002828"><ele>102.0</ele><time>2026-05-01T09:42:36.001Z</time></trkpt><trkpt lat="45.512135604795446" lon="10.520284761776962"><ele>102.6</ele><time>2026-05-01T09:42:37.001Z</time></trkpt><trkpt lat="45.51223094905656" lon="10.520299179124178"><ele>103.19999999999999</ele><time>2026-05-01T09:42:38.001Z</time></trkpt><trkpt lat="45.51232172587143" lon="10.520347892917187"><ele>103.8</ele><time>2026-05-01T09:42:39.001Z</time></trkpt><trkpt lat="45.51241644433276" lon="10.520412359919359"><ele>104.4</ele><time>2026-05-01T09:42:40.001Z</time></trkpt><trkpt lat="45.512506777983255" lon="10.520478833700711"><ele>105.0</ele><time>2026-05-01T09:42:41.001Z</time></trkpt><trkpt lat="45.512606276749395" lon="10.52053388406149"><ele>104.4</ele><time>2026-05-01T09:42:42.001Z</time></trkpt><trkpt lat="45.51270601701416" lon="10.520591799804107"><ele>103.8</ele><time>2026-05-01T09:42:43.001Z</time></trkpt><trkpt lat="45.512800279336595" lon="10.520650798989601"><ele>103.19999999999999</ele><time>2026-05-01T09:42:44.001Z</time></trkpt><trkpt lat="45.51290188748303" lon="10.52070265608823"><ele>102.6</ele><time>2026-05-01T09:42:45.001Z</time></trkpt><trkpt lat="45.512981285509355" lon="10.520747907526538"><ele>102.0</ele><time>2026-05-01T09:42:46.001Z</time></trkpt><trkpt lat="45.51304634102438" lon="10.52079286195114"><ele>102.0</ele><time>2026-05-01T09:42:47.001Z</time></trkpt><trkpt lat="45.51312514580259" lon="10.520825406768191"><ele>102.0</ele><time>2026-05-01T09:42:50.001Z</time></trkpt><trkpt lat="45.51320672538797" lon="10.520877534920583"><ele>102.0</ele><time>2026-05-01T09:42:53.001Z</time></trkpt><trkpt lat="45.51329972419044" lon="10.520935206297395"><ele>102.0</ele><time>2026-05-01T09:42:55.001Z</time></trkpt><trkpt lat="45.51339582724191" lon="10.520988660221164"><ele>102.0</ele><time>2026-05-01T09:42:57.001Z</time></trkpt><trkpt lat="45.51347981844861" lon="10.521036928980285"><ele>102.0</ele><time>2026-05-01T09:42:59.001Z</time></trkpt><trkpt lat="45.51356716059007" lon="10.52107961820243"><ele>102.0</ele><time>2026-05-01T09:43:01.001Z</time></trkpt><trkpt lat="45.51365819267974" lon="10.521120248757834"><ele>102.0</ele><time>2026-05-01T09:43:03.001Z</time></trkpt><trkpt lat="45.513718799343586" lon="10.521145900830252"><ele>102.0</ele><time>2026-05-01T09:43:04.001Z</time></trkpt><trkpt lat="45.513774192550585" lon="10.521206736211123"><ele>102.0</ele><time>2026-05-01T09:43:05.001Z</time></trkpt><trkpt lat="45.51384493790968" lon="10.52123796959359"><ele>102.0</ele><time>2026-05-01T09:43:06.001Z</time></trkpt><trkpt lat="45.51390782773449" lon="10.52126418525773"><ele>101.5</ele><time>2026-05-01T09:43:07.001Z</time></trkpt><trkpt lat="45.51401823469619" lon="10.52128377443264"><ele>101.0</ele><time>2026-05-01T09:43:09.001Z</time></trkpt><trkpt lat="45.51409477341727" lon="10.52131982910547"><ele>100.5</ele><time>2026-05-01T09:43:11.001Z</time></trkpt><trkpt lat="45.51416808369614" lon="10.521351392581064"><ele>100.0</ele><time>2026-05-01T09:43:16.001Z</time></trkpt><trkpt lat="45.51421675012738" lon="10.521436598878736"><ele>99.5</ele><time>2026-05-01T09:43:20.001Z</time></trkpt><trkpt lat="45.51427233129637" lon="10.521497177422841"><ele>99.0</ele><time>2026-05-01T09:43:24.001Z</time></trkpt><trkpt lat="45.51435680154814" lon="10.521540687443158"><ele>99.0</ele><time>2026-05-01T09:43:27.001Z</time></trkpt><trkpt lat="45.51446090857768" lon="10.521556757704204"><ele>99.0</ele><time>2026-05-01T09:43:29.001Z</time></trkpt><trkpt lat="45.514539151436324" lon="10.521596525200977"><ele>99.0</ele><time>2026-05-01T09:43:30.001Z</time></trkpt><trkpt lat="45.514630589155566" lon="10.521657542809049"><ele>99.0</ele><time>2026-05-01T09:43:31.001Z</time></trkpt><trkpt lat="45.514735727056674" lon="10.521727504566709"><ele>99.0</ele><time>2026-05-01T09:43:32.001Z</time></trkpt><trkpt lat="45.51484832627816" lon="10.521798417858587"><ele>99.0</ele><time>2026-05-01T09:43:33.001Z</time></trkpt><trkpt lat="45.51496082442054" lon="10.521871436161511"><ele>99.0</ele><time>2026-05-01T09:43:34.001Z</time></trkpt><trkpt lat="45.51507021801848" lon="10.52193449954403"><ele>99.0</ele><time>2026-05-01T09:43:35.001Z</time></trkpt><trkpt lat="45.51517458327033" lon="10.52203111025743"><ele>99.0</ele><time>2026-05-01T09:43:36.001Z</time></trkpt><trkpt lat="45.51528652661783" lon="10.522104565088727"><ele>100.25</ele><time>2026-05-01T09:43:37.001Z</time></trkpt><trkpt lat="45.51540441247473" lon="10.52217701338677"><ele>101.5</ele><time>2026-05-01T09:43:38.001Z</time></trkpt><trkpt lat="45.51552561185364" lon="10.522248860743803"><ele>102.75</ele><time>2026-05-01T09:43:39.001Z</time></trkpt><trkpt lat="45.5156199793821" lon="10.522304409164457"><ele>104.0</ele><time>2026-05-01T09:43:40.001Z</time></trkpt><trkpt lat="45.51571355654335" lon="10.522359492259469"><ele>104.0</ele><time>2026-05-01T09:43:41.001Z</time></trkpt><trkpt lat="45.51580165670398" lon="10.52241135156325"><ele>104.0</ele><time>2026-05-01T09:43:42.001Z</time></trkpt><trkpt lat="45.51589911922929" lon="10.522468721817269"><ele>104.0</ele><time>2026-05-01T09:43:43.001Z</time></trkpt><trkpt lat="45.5159873532541" lon="10.522520659757255"><ele>104.0</ele><time>2026-05-01T09:43:44.001Z</time></trkpt><trkpt lat="45.51608932465947" lon="10.522580684204353"><ele>104.0</ele><time>2026-05-01T09:43:45.001Z</time></trkpt><trkpt lat="45.516247546001686" lon="10.522673819490569"><ele>104.2</ele><time>2026-05-01T09:43:46.002Z</time></trkpt><trkpt lat="45.51633915580821" lon="10.522727745485152"><ele>104.4</ele><time>2026-05-01T09:43:47.002Z</time></trkpt><trkpt lat="45.51643772941777" lon="10.522748530338019"><ele>104.6</ele><time>2026-05-01T09:43:48.002Z</time></trkpt><trkpt lat="45.51652971318247" lon="10.522798913096336"><ele>104.8</ele><time>2026-05-01T09:43:49.002Z</time></trkpt><trkpt lat="45.51660908182466" lon="10.52284757432329"><ele>105.0</ele><time>2026-05-01T09:43:50.002Z</time></trkpt><trkpt lat="45.51668396255292" lon="10.522892075501808"><ele>105.16666666666667</ele><time>2026-05-01T09:43:51.002Z</time></trkpt><trkpt lat="45.51673732638047" lon="10.522961829997962"><ele>105.33333333333334</ele><time>2026-05-01T09:43:52.002Z</time></trkpt><trkpt lat="45.51679891232114" lon="10.52299804039998"><ele>105.5</ele><time>2026-05-01T09:43:53.002Z</time></trkpt><trkpt lat="45.51686673835133" lon="10.52303818255703"><ele>105.66666666666667</ele><time>2026-05-01T09:43:54.002Z</time></trkpt><trkpt lat="45.51695763326272" lon="10.523052508494818"><ele>105.83333333333334</ele><time>2026-05-01T09:43:56.002Z</time></trkpt><trkpt lat="45.517087300954266" lon="10.52311842178928"><ele>106.0</ele><time>2026-05-01T09:43:58.002Z</time></trkpt><trkpt lat="45.51715773211491" lon="10.523213125073914"><ele>106.0</ele><time>2026-05-01T09:43:59.002Z</time></trkpt><trkpt lat="45.51724515235192" lon="10.523268620157015"><ele>106.0</ele><time>2026-05-01T09:44:00.002Z</time></trkpt><trkpt lat="45.51733392457375" lon="10.523327844390769"><ele>106.0</ele><time>2026-05-01T09:44:01.002Z</time></trkpt><trkpt lat="45.5174387153917" lon="10.523400189991545"><ele>106.0</ele><time>2026-05-01T09:44:02.002Z</time></trkpt><trkpt lat="45.517543070717196" lon="10.52347419345775"><ele>106.0</ele><time>2026-05-01T09:44:03.002Z</time></trkpt><trkpt lat="45.51764689394571" lon="10.52354995166942"><ele>106.00000000000001</ele><time>2026-05-01T09:44:04.002Z</time></trkpt><trkpt lat="45.517743347930754" lon="10.523621505964394"><ele>106.0</ele><time>2026-05-01T09:44:05.002Z</time></trkpt><trkpt lat="45.51783118419252" lon="10.523687585827663"><ele>106.0</ele><time>2026-05-01T09:44:06.002Z</time></trkpt><trkpt lat="45.51790791039651" lon="10.52374725944251"><ele>106.0</ele><time>2026-05-01T09:44:07.002Z</time></trkpt><trkpt lat="45.51797279477043" lon="10.523798717341288"><ele>106.00000000000001</ele><time>2026-05-01T09:44:08.002Z</time></trkpt><trkpt lat="45.51803195792093" lon="10.523845965847812"><ele>106.0</ele><time>2026-05-01T09:44:09.002Z</time></trkpt><trkpt lat="45.518095737303966" lon="10.523898822637168"><ele>106.4</ele><time>2026-05-01T09:44:10.002Z</time></trkpt><trkpt lat="45.51818200180192" lon="10.523970883625385"><ele>106.8</ele><time>2026-05-01T09:44:11.002Z</time></trkpt><trkpt lat="45.5182846588427" lon="10.524031496228835"><ele>107.20000000000002</ele><time>2026-05-01T09:44:12.002Z</time></trkpt><trkpt lat="45.51837666671252" lon="10.524115699582682"><ele>107.60000000000001</ele><time>2026-05-01T09:44:13.002Z</time></trkpt><trkpt lat="45.518448920448" lon="10.524200196615052"><ele>108.0</ele><time>2026-05-01T09:44:14.002Z</time></trkpt><trkpt lat="45.51851921770937" lon="10.5242640983348"><ele>108.0</ele><time>2026-05-01T09:44:15.002Z</time></trkpt><trkpt lat="45.51859003161568" lon="10.524325812153943"><ele>108.00000000000001</ele><time>2026-05-01T09:44:16.002Z</time></trkpt><trkpt lat="45.51868457449114" lon="10.524413093194111"><ele>108.00000000000001</ele><time>2026-05-01T09:44:18.002Z</time></trkpt><trkpt lat="45.518769911067956" lon="10.524490478047426"><ele>108.0</ele><time>2026-05-01T09:44:20.002Z</time></trkpt><trkpt lat="45.5188377306738" lon="10.524542081062979"><ele>108.0</ele><time>2026-05-01T09:44:22.002Z</time></trkpt><trkpt lat="45.518906260283785" lon="10.52459290991504"><ele>108.4</ele><time>2026-05-01T09:44:24.002Z</time></trkpt><trkpt lat="45.51897398313667" lon="10.524657449015347"><ele>108.80000000000001</ele><time>2026-05-01T09:44:26.002Z</time></trkpt><trkpt lat="45.51907553072733" lon="10.524738893999348"><ele>109.2</ele><time>2026-05-01T09:44:28.002Z</time></trkpt><trkpt lat="45.51919250833652" lon="10.524841425927853"><ele>109.6</ele><time>2026-05-01T09:44:30.002Z</time></trkpt><trkpt lat="45.51925066651846" lon="10.524887901276292"><ele>110.0</ele><time>2026-05-01T09:44:31.002Z</time></trkpt><trkpt lat="45.519314052710705" lon="10.524933225060552"><ele>109.99999999999999</ele><time>2026-05-01T09:44:32.002Z</time></trkpt><trkpt lat="45.519369070742414" lon="10.52498183733043"><ele>110.0</ele><time>2026-05-01T09:44:33.002Z</time></trkpt><trkpt lat="45.5194291311956" lon="10.525030863155298"><ele>110.0</ele><time>2026-05-01T09:44:34.002Z</time></trkpt><trkpt lat="45.5194843178162" lon="10.52508364311863"><ele>110.0</ele><time>2026-05-01T09:44:35.002Z</time></trkpt><trkpt lat="45.519551246570664" lon="10.525134994821354"><ele>110.0</ele><time>2026-05-01T09:44:36.002Z</time></trkpt><trkpt lat="45.51962247433406" lon="10.52518951376423"><ele>109.99999999999999</ele><time>2026-05-01T09:44:37Z</time></trkpt><trkpt lat="45.51969408399825" lon="10.525247355774743"><ele>110.0</ele><time>2026-05-01T09:44:38Z</time></trkpt><trkpt lat="45.51976548657279" lon="10.525307074629499"><ele>109.83333333333333</ele><time>2026-05-01T09:44:39Z</time></trkpt><trkpt lat="45.5198262520203" lon="10.525355816963868"><ele>109.66666666666666</ele><time>2026-05-01T09:44:40Z</time></trkpt><trkpt lat="45.51993537932405" lon="10.525436837788005"><ele>109.5</ele><time>2026-05-01T09:44:42Z</time></trkpt><trkpt lat="45.51999939887674" lon="10.525483650727212"><ele>109.33333333333334</ele><time>2026-05-01T09:44:43Z</time></trkpt><trkpt lat="45.52005499587331" lon="10.525534310132542"><ele>109.16666666666667</ele><time>2026-05-01T09:44:44Z</time></trkpt><trkpt lat="45.520109947493474" lon="10.525581824827519"><ele>109.0</ele><time>2026-05-01T09:44:45Z</time></trkpt><trkpt lat="45.52016950329027" lon="10.52562846998614"><ele>109.00000000000001</ele><time>2026-05-01T09:44:46Z</time></trkpt><trkpt lat="45.52022784802298" lon="10.525675768922163"><ele>109.0</ele><time>2026-05-01T09:44:47Z</time></trkpt><trkpt lat="45.52028849997423" lon="10.52572645263855"><ele>109.0</ele><time>2026-05-01T09:44:48Z</time></trkpt><trkpt lat="45.52039455348171" lon="10.525816637437327"><ele>109.0</ele><time>2026-05-01T09:44:50Z</time></trkpt><trkpt lat="45.52048050081357" lon="10.5258865358874"><ele>109.00000000000001</ele><time>2026-05-01T09:44:52Z</time></trkpt><trkpt lat="45.520552655365265" lon="10.525950225554213"><ele>109.0</ele><time>2026-05-01T09:44:54Z</time></trkpt><trkpt lat="45.520632268499114" lon="10.52602139992294"><ele>109.2</ele><time>2026-05-01T09:44:56Z</time></trkpt><trkpt lat="45.520724461204345" lon="10.526096806163377"><ele>109.4</ele><time>2026-05-01T09:44:58Z</time></trkpt><trkpt lat="45.52081592926384" lon="10.526166077603362"><ele>109.6</ele><time>2026-05-01T09:45:00Z</time></trkpt><trkpt lat="45.52091659053214" lon="10.52624935319524"><ele>109.8</ele><time>2026-05-01T09:45:02Z</time></trkpt><trkpt lat="45.52097261809219" lon="10.526291520523019"><ele>110.0</ele><time>2026-05-01T09:45:03Z</time></trkpt><trkpt lat="45.521059885639815" lon="10.526385034994275"><ele>109.99999999999999</ele><time>2026-05-01T09:45:05Z</time></trkpt><trkpt lat="45.52116700701247" lon="10.526474283576752"><ele>110.0</ele><time>2026-05-01T09:45:07.001Z</time></trkpt><trkpt lat="45.52122865659983" lon="10.526525218410722"><ele>110.0</ele><time>2026-05-01T09:45:08.001Z</time></trkpt><trkpt lat="45.52129081729433" lon="10.526579404191963"><ele>110.0</ele><time>2026-05-01T09:45:09.001Z</time></trkpt><trkpt lat="45.52136674707634" lon="10.52664316041989"><ele>109.99999999999999</ele><time>2026-05-01T09:45:10.001Z</time></trkpt><trkpt lat="45.52144676281879" lon="10.526710756460757"><ele>110.0</ele><time>2026-05-01T09:45:11.001Z</time></trkpt><trkpt lat="45.521526555807135" lon="10.526779517094775"><ele>109.66666666666666</ele><time>2026-05-01T09:45:12.001Z</time></trkpt><trkpt lat="45.521598811419786" lon="10.526843505545346"><ele>109.33333333333333</ele><time>2026-05-01T09:45:13.001Z</time></trkpt><trkpt lat="45.521661320393314" lon="10.526899792898197"><ele>109.0</ele><time>2026-05-01T09:45:14.001Z</time></trkpt><trkpt lat="45.521725925163395" lon="10.526952045646619"><ele>108.66666666666666</ele><time>2026-05-01T09:45:15.001Z</time></trkpt><trkpt lat="45.52179526989421" lon="10.527011943896149"><ele>108.33333333333333</ele><time>2026-05-01T09:45:16.001Z</time></trkpt><trkpt lat="45.52186801992149" lon="10.527071339634944"><ele>108.0</ele><time>2026-05-01T09:45:17.001Z</time></trkpt><trkpt lat="45.52193988446382" lon="10.52713280005456"><ele>108.0</ele><time>2026-05-01T09:45:18.001Z</time></trkpt><trkpt lat="45.52202516832363" lon="10.52719574137157"><ele>108.00000000000001</ele><time>2026-05-01T09:45:19.001Z</time></trkpt><trkpt lat="45.5221392054412" lon="10.527276368282271"><ele>108.00000000000001</ele><time>2026-05-01T09:45:20.001Z</time></trkpt><trkpt lat="45.5222444645441" lon="10.527364035592148"><ele>108.0</ele><time>2026-05-01T09:45:21.001Z</time></trkpt><trkpt lat="45.522325005385056" lon="10.527439012354268"><ele>108.0</ele><time>2026-05-01T09:45:22.001Z</time></trkpt><trkpt lat="45.52240698382468" lon="10.52750122883898"><ele>109.83333333333333</ele><time>2026-05-01T09:45:23.001Z</time></trkpt><trkpt lat="45.522467999121226" lon="10.527570877253375"><ele>111.66666666666666</ele><time>2026-05-01T09:45:24.001Z</time></trkpt><trkpt lat="45.52253343657536" lon="10.527620726134717"><ele>113.5</ele><time>2026-05-01T09:45:25.001Z</time></trkpt><trkpt lat="45.522589336351615" lon="10.527668041346486"><ele>115.33333333333333</ele><time>2026-05-01T09:45:26.001Z</time></trkpt><trkpt lat="45.52268763358111" lon="10.527744428223322"><ele>117.16666666666666</ele><time>2026-05-01T09:45:28.001Z</time></trkpt><trkpt lat="45.5227776509532" lon="10.527812074387917"><ele>119.0</ele><time>2026-05-01T09:45:30.001Z</time></trkpt><trkpt lat="45.52287837918806" lon="10.527877593792516"><ele>118.99999999999999</ele><time>2026-05-01T09:45:32.001Z</time></trkpt><trkpt lat="45.522985895849715" lon="10.527947702182272"><ele>119.0</ele><time>2026-05-01T09:45:34.001Z</time></trkpt><trkpt lat="45.52304525427426" lon="10.527994483487864"><ele>119.0</ele><time>2026-05-01T09:45:35.001Z</time></trkpt><trkpt lat="45.523110965630295" lon="10.528029910603603"><ele>119.0</ele><time>2026-05-01T09:45:36.001Z</time></trkpt><trkpt lat="45.52316613372462" lon="10.528075845582476"><ele>118.99999999999999</ele><time>2026-05-01T09:45:37.001Z</time></trkpt><trkpt lat="45.52325186010718" lon="10.528120189124888"><ele>119.0</ele><time>2026-05-01T09:45:39.001Z</time></trkpt><trkpt lat="45.52332394865215" lon="10.528170347922561"><ele>118.99999999999999</ele><time>2026-05-01T09:45:41.001Z</time></trkpt><trkpt lat="45.52338425565798" lon="10.528223587647783"><ele>119.0</ele><time>2026-05-01T09:45:43.001Z</time></trkpt><trkpt lat="45.52343453272625" lon="10.52832452469337"><ele>119.0</ele><time>2026-05-01T09:45:45.001Z</time></trkpt><trkpt lat="45.523453929096874" lon="10.528435804902614"><ele>119.0</ele><time>2026-05-01T09:45:47.001Z</time></trkpt><trkpt lat="45.52351428276698" lon="10.5285455992335"><ele>118.99999999999999</ele><time>2026-05-01T09:45:49.001Z</time></trkpt><trkpt lat="45.52359996317674" lon="10.528582790632992"><ele>119.0</ele><time>2026-05-01T09:45:51.001Z</time></trkpt><trkpt lat="45.52368697154316" lon="10.528540466247978"><ele>119.83333333333333</ele><time>2026-05-01T09:45:53.001Z</time></trkpt><trkpt lat="45.52376290563379" lon="10.52846055266851"><ele>120.66666666666666</ele><time>2026-05-01T09:45:55.001Z</time></trkpt><trkpt lat="45.52387162978776" lon="10.528390871077193"><ele>121.5</ele><time>2026-05-01T09:45:57.001Z</time></trkpt><trkpt lat="45.523938581262556" lon="10.528376884592577"><ele>122.33333333333334</ele><time>2026-05-01T09:45:58.001Z</time></trkpt><trkpt lat="45.524008030942404" lon="10.528368066572355"><ele>123.16666666666667</ele><time>2026-05-01T09:45:59.001Z</time></trkpt><trkpt lat="45.52407806464359" lon="10.528381474682512"><ele>124.0</ele><time>2026-05-01T09:46:00.001Z</time></trkpt><trkpt lat="45.524149018764824" lon="10.528396028721607"><ele>124.0</ele><time>2026-05-01T09:46:01.001Z</time></trkpt><trkpt lat="45.52422334494452" lon="10.528421196211267"><ele>124.0</ele><time>2026-05-01T09:46:02.001Z</time></trkpt><trkpt lat="45.52431644219888" lon="10.528446993185039"><ele>124.0</ele><time>2026-05-01T09:46:03.001Z</time></trkpt><trkpt lat="45.52441121333007" lon="10.528484803370096"><ele>124.0</ele><time>2026-05-01T09:46:04.001Z</time></trkpt><trkpt lat="45.52450002497937" lon="10.528522436073168"><ele>124.0</ele><time>2026-05-01T09:46:05.001Z</time></trkpt><trkpt lat="45.52460138113653" lon="10.528557815548705"><ele>124.25</ele><time>2026-05-01T09:46:06.001Z</time></trkpt><trkpt lat="45.52471717233613" lon="10.528592226350574"><ele>124.5</ele><time>2026-05-01T09:46:07.002Z</time></trkpt><trkpt lat="45.524843379863995" lon="10.528629103545136"><ele>124.75</ele><time>2026-05-01T09:46:08.002Z</time></trkpt><trkpt lat="45.524964906237244" lon="10.528671042231812"><ele>125.0</ele><time>2026-05-01T09:46:09.002Z</time></trkpt><trkpt lat="45.52507731822874" lon="10.528706148615123"><ele>124.8</ele><time>2026-05-01T09:46:10.002Z</time></trkpt><trkpt lat="45.52517597411847" lon="10.528737349886962"><ele>124.6</ele><time>2026-05-01T09:46:11.002Z</time></trkpt><trkpt lat="45.52527502052401" lon="10.528773912355067"><ele>124.4</ele><time>2026-05-01T09:46:12.002Z</time></trkpt><trkpt lat="45.5253719326025" lon="10.528800866095711"><ele>124.2</ele><time>2026-05-01T09:46:13.002Z</time></trkpt><trkpt lat="45.52547299270281" lon="10.528824349345344"><ele>124.0</ele><time>2026-05-01T09:46:14.002Z</time></trkpt><trkpt lat="45.52557833867841" lon="10.528857068718922"><ele>124.6</ele><time>2026-05-01T09:46:15.002Z</time></trkpt><trkpt lat="45.525671398359144" lon="10.528889439514256"><ele>125.2</ele><time>2026-05-01T09:46:16.002Z</time></trkpt><trkpt lat="45.5257553163668" lon="10.528921489368122"><ele>125.79999999999998</ele><time>2026-05-01T09:46:17.002Z</time></trkpt><trkpt lat="45.52583904452265" lon="10.528951413685284"><ele>126.39999999999999</ele><time>2026-05-01T09:46:18.002Z</time></trkpt><trkpt lat="45.52590439485626" lon="10.528973813800881"><ele>127.0</ele><time>2026-05-01T09:46:19.002Z</time></trkpt><trkpt lat="45.52602114201243" lon="10.529012976294256"><ele>127.00000000000001</ele><time>2026-05-01T09:46:21.002Z</time></trkpt><trkpt lat="45.52609719475001" lon="10.529040072395153"><ele>127.0</ele><time>2026-05-01T09:46:22.002Z</time></trkpt><trkpt lat="45.52617473540346" lon="10.529066107262494"><ele>127.0</ele><time>2026-05-01T09:46:23.002Z</time></trkpt><trkpt lat="45.52626755530112" lon="10.529100359539465"><ele>127.0</ele><time>2026-05-01T09:46:24.002Z</time></trkpt><trkpt lat="45.526352068384185" lon="10.529129699283981"><ele>127.00000000000001</ele><time>2026-05-01T09:46:25.002Z</time></trkpt><trkpt lat="45.526444749552795" lon="10.529156671735972"><ele>127.0</ele><time>2026-05-01T09:46:26.002Z</time></trkpt><trkpt lat="45.52653402057659" lon="10.529181791393762"><ele>126.66666666666667</ele><time>2026-05-01T09:46:27.002Z</time></trkpt><trkpt lat="45.52662320446395" lon="10.529211230110993"><ele>126.33333333333334</ele><time>2026-05-01T09:46:28.002Z</time></trkpt><trkpt lat="45.526706097544384" lon="10.529230511229875"><ele>126.0</ele><time>2026-05-01T09:46:29.002Z</time></trkpt><trkpt lat="45.52678764717549" lon="10.52925153986738"><ele>125.66666666666666</ele><time>2026-05-01T09:46:30.002Z</time></trkpt><trkpt lat="45.526865239277555" lon="10.529274073205956"><ele>125.33333333333333</ele><time>2026-05-01T09:46:31.002Z</time></trkpt><trkpt lat="45.526940740456595" lon="10.52929356654541"><ele>125.0</ele><time>2026-05-01T09:46:32.002Z</time></trkpt><trkpt lat="45.52700656120374" lon="10.52931445863393"><ele>125.4</ele><time>2026-05-01T09:46:33.002Z</time></trkpt><trkpt lat="45.52712485410253" lon="10.529330237840162"><ele>125.8</ele><time>2026-05-01T09:46:35.002Z</time></trkpt><trkpt lat="45.52719421904834" lon="10.529338381182685"><ele>126.19999999999999</ele><time>2026-05-01T09:46:36.002Z</time></trkpt><trkpt lat="45.527270849816794" lon="10.529378860823385"><ele>126.6</ele><time>2026-05-01T09:46:37.002Z</time></trkpt><trkpt lat="45.527336956113864" lon="10.52942608004935"><ele>127.0</ele><time>2026-05-01T09:46:38.002Z</time></trkpt><trkpt lat="45.52744348532775" lon="10.529462293490957"><ele>127.0</ele><time>2026-05-01T09:46:40.002Z</time></trkpt><trkpt lat="45.52755083344054" lon="10.529453767939652"><ele>126.99999999999999</ele><time>2026-05-01T09:46:42.002Z</time></trkpt><trkpt lat="45.527611986139995" lon="10.529475335256654"><ele>126.99999999999999</ele><time>2026-05-01T09:46:43Z</time></trkpt><trkpt lat="45.52773305910669" lon="10.529584374781829"><ele>127.0</ele><time>2026-05-01T09:46:45Z</time></trkpt><trkpt lat="45.527823065887866" lon="10.529629017079584"><ele>127.0</ele><time>2026-05-01T09:46:46Z</time></trkpt><trkpt lat="45.52791232594327" lon="10.529646947504295"><ele>127.19999999999999</ele><time>2026-05-01T09:46:47Z</time></trkpt><trkpt lat="45.52797469929578" lon="10.529662451440695"><ele>127.39999999999999</ele><time>2026-05-01T09:46:48Z</time></trkpt><trkpt lat="45.528117295251214" lon="10.529731331264147"><ele>127.60000000000001</ele><time>2026-05-01T09:46:50Z</time></trkpt><trkpt lat="45.5282378773439" lon="10.529747281986007"><ele>127.80000000000001</ele><time>2026-05-01T09:46:51Z</time></trkpt><trkpt lat="45.52832386425607" lon="10.529807334138765"><ele>128.0</ele><time>2026-05-01T09:46:52Z</time></trkpt><trkpt lat="45.52841446142685" lon="10.529829896146536"><ele>128.0</ele><time>2026-05-01T09:46:53Z</time></trkpt><trkpt lat="45.528494802021505" lon="10.529851118201034"><ele>128.0</ele><time>2026-05-01T09:46:54Z</time></trkpt><trkpt lat="45.52856442944758" lon="10.52986851637711"><ele>128.0</ele><time>2026-05-01T09:46:55Z</time></trkpt><trkpt lat="45.52862973620665" lon="10.529890235186553"><ele>128.0</ele><time>2026-05-01T09:46:56Z</time></trkpt><trkpt lat="45.52874954501969" lon="10.529928219783615"><ele>128.0</ele><time>2026-05-01T09:46:58Z</time></trkpt><trkpt lat="45.52885215771361" lon="10.52997492345946"><ele>128.33333333333331</ele><time>2026-05-01T09:47:00Z</time></trkpt><trkpt lat="45.52894989405704" lon="10.530009157575536"><ele>128.66666666666666</ele><time>2026-05-01T09:47:02Z</time></trkpt><trkpt lat="45.52901611839008" lon="10.53002247014261"><ele>129.0</ele><time>2026-05-01T09:47:03Z</time></trkpt><trkpt lat="45.52909911818346" lon="10.530035628937805"><ele>129.33333333333334</ele><time>2026-05-01T09:47:04Z</time></trkpt><trkpt lat="45.52918853675451" lon="10.5300709277386"><ele>129.66666666666669</ele><time>2026-05-01T09:47:05Z</time></trkpt><trkpt lat="45.52927809391568" lon="10.53009871121207"><ele>130.0</ele><time>2026-05-01T09:47:06Z</time></trkpt><trkpt lat="45.52937622782083" lon="10.530138184553415"><ele>130.0</ele><time>2026-05-01T09:47:07Z</time></trkpt><trkpt lat="45.529478962734096" lon="10.530175863889205"><ele>130.0</ele><time>2026-05-01T09:47:08Z</time></trkpt><trkpt lat="45.529579614401115" lon="10.53020676384317"><ele>130.0</ele><time>2026-05-01T09:47:09Z</time></trkpt><trkpt lat="45.52966311607795" lon="10.530246941265325"><ele>130.0</ele><time>2026-05-01T09:47:10Z</time></trkpt><trkpt lat="45.529743630496434" lon="10.53026796370862"><ele>130.0</ele><time>2026-05-01T09:47:11Z</time></trkpt><trkpt lat="45.52982121159219" lon="10.530294305638197"><ele>129.83333333333334</ele><time>2026-05-01T09:47:12Z</time></trkpt><trkpt lat="45.529901231408274" lon="10.530316985517368"><ele>129.66666666666669</ele><time>2026-05-01T09:47:13Z</time></trkpt><trkpt lat="45.52997614749084" lon="10.530339707602185"><ele>129.5</ele><time>2026-05-01T09:47:14Z</time></trkpt><trkpt lat="45.53009084431945" lon="10.530379613980825"><ele>129.33333333333334</ele><time>2026-05-01T09:47:16Z</time></trkpt><trkpt lat="45.53015578946342" lon="10.530399457197838"><ele>129.16666666666666</ele><time>2026-05-01T09:47:17Z</time></trkpt><trkpt lat="45.53022234936503" lon="10.530415888445544"><ele>129.0</ele><time>2026-05-01T09:47:18Z</time></trkpt><trkpt lat="45.53033839057315" lon="10.530449017946976"><ele>128.8</ele><time>2026-05-01T09:47:20Z</time></trkpt><trkpt lat="45.53046818115182" lon="10.530499385232154"><ele>128.60000000000002</ele><time>2026-05-01T09:47:22.001Z</time></trkpt><trkpt lat="45.530531871109794" lon="10.530494456060117"><ele>128.4</ele><time>2026-05-01T09:47:23.001Z</time></trkpt><trkpt lat="45.5306144005817" lon="10.530550087951381"><ele>128.20000000000002</ele><time>2026-05-01T09:47:25.001Z</time></trkpt><trkpt lat="45.53069302016866" lon="10.530665830287152"><ele>128.0</ele><time>2026-05-01T09:47:27.001Z</time></trkpt><trkpt lat="45.5307472617558" lon="10.530740165656741"><ele>128.0</ele><time>2026-05-01T09:47:28.001Z</time></trkpt><trkpt lat="45.53081422619472" lon="10.530778655972021"><ele>128.0</ele><time>2026-05-01T09:47:29.001Z</time></trkpt><trkpt lat="45.530903851496106" lon="10.530770593404434"><ele>128.0</ele><time>2026-05-01T09:47:30.001Z</time></trkpt><trkpt lat="45.530995751671355" lon="10.53075041612805"><ele>128.0</ele><time>2026-05-01T09:47:31.001Z</time></trkpt><trkpt lat="45.531093910744495" lon="10.530735049887575"><ele>128.0</ele><time>2026-05-01T09:47:32.001Z</time></trkpt><trkpt lat="45.531209676975514" lon="10.53074259382128"><ele>128.5</ele><time>2026-05-01T09:47:33.001Z</time></trkpt><trkpt lat="45.53131402493003" lon="10.530803443192369"><ele>129.0</ele><time>2026-05-01T09:47:34.001Z</time></trkpt><trkpt lat="45.531427435572866" lon="10.530842517022261"><ele>129.5</ele><time>2026-05-01T09:47:35.001Z</time></trkpt><trkpt lat="45.53153668647258" lon="10.530879700193308"><ele>130.0</ele><time>2026-05-01T09:47:36.001Z</time></trkpt><trkpt lat="45.53164922263885" lon="10.530918001494888"><ele>130.0</ele><time>2026-05-01T09:47:37.001Z</time></trkpt><trkpt lat="45.53176981314417" lon="10.53095904405291"><ele>130.0</ele><time>2026-05-01T09:47:38.001Z</time></trkpt><trkpt lat="45.531894109053326" lon="10.531001347735145"><ele>130.0</ele><time>2026-05-01T09:47:39.001Z</time></trkpt><trkpt lat="45.5320247989569" lon="10.53104660072074"><ele>130.0</ele><time>2026-05-01T09:47:40.001Z</time></trkpt><trkpt lat="45.53215344336619" lon="10.531091249220932"><ele>130.0</ele><time>2026-05-01T09:47:41.001Z</time></trkpt><trkpt lat="45.53228629431112" lon="10.5311379522121"><ele>130.0</ele><time>2026-05-01T09:47:42.001Z</time></trkpt><trkpt lat="45.532418571675564" lon="10.53118304887236"><ele>130.0</ele><time>2026-05-01T09:47:43.001Z</time></trkpt><trkpt lat="45.532549841048585" lon="10.531227115043114"><ele>130.0</ele><time>2026-05-01T09:47:44.001Z</time></trkpt><trkpt lat="45.532681667386434" lon="10.531271368152934"><ele>128.75</ele><time>2026-05-01T09:47:45.001Z</time></trkpt><trkpt lat="45.5328082987929" lon="10.531314285653458"><ele>127.5</ele><time>2026-05-01T09:47:46.001Z</time></trkpt><trkpt lat="45.53293611646711" lon="10.531357842649923"><ele>126.25</ele><time>2026-05-01T09:47:47.001Z</time></trkpt><trkpt lat="45.53306617149379" lon="10.53140216209828"><ele>125.0</ele><time>2026-05-01T09:47:48.001Z</time></trkpt><trkpt lat="45.53319453551318" lon="10.531445905289164"><ele>124.75</ele><time>2026-05-01T09:47:49.001Z</time></trkpt><trkpt lat="45.53332226674677" lon="10.531489432842477"><ele>124.5</ele><time>2026-05-01T09:47:50.001Z</time></trkpt><trkpt lat="45.53345009167958" lon="10.531532992329536"><ele>124.25</ele><time>2026-05-01T09:47:51.001Z</time></trkpt><trkpt lat="45.5335794938579" lon="10.531576792544756"><ele>124.0</ele><time>2026-05-01T09:47:52.001Z</time></trkpt><trkpt lat="45.53370635213188" lon="10.53161908921603"><ele>124.0</ele><time>2026-05-01T09:47:53.001Z</time></trkpt><trkpt lat="45.53383203262734" lon="10.531660993177468"><ele>124.0</ele><time>2026-05-01T09:47:54.001Z</time></trkpt><trkpt lat="45.533954031966" lon="10.531701669791254"><ele>124.0</ele><time>2026-05-01T09:47:55.001Z</time></trkpt><trkpt lat="45.53407886628394" lon="10.531743291617287"><ele>124.0</ele><time>2026-05-01T09:47:56.001Z</time></trkpt><trkpt lat="45.534199120733554" lon="10.531783386441617"><ele>124.0</ele><time>2026-05-01T09:47:57.001Z</time></trkpt><trkpt lat="45.53430779906203" lon="10.531807872894891"><ele>124.0</ele><time>2026-05-01T09:47:58.001Z</time></trkpt><trkpt lat="45.5344165814261" lon="10.531847409353793"><ele>124.0</ele><time>2026-05-01T09:47:59.001Z</time></trkpt><trkpt lat="45.53453542791827" lon="10.531885404849682"><ele>124.0</ele><time>2026-05-01T09:48:00.001Z</time></trkpt><trkpt lat="45.534650983904115" lon="10.531922073634634"><ele>123.75</ele><time>2026-05-01T09:48:01.001Z</time></trkpt><trkpt lat="45.53477046091302" lon="10.531968361386413"><ele>123.5</ele><time>2026-05-01T09:48:02.001Z</time></trkpt><trkpt lat="45.534902128980235" lon="10.532010011433897"><ele>123.25</ele><time>2026-05-01T09:48:03.001Z</time></trkpt><trkpt lat="45.53503553942199" lon="10.532051827917503"><ele>123.0</ele><time>2026-05-01T09:48:04.001Z</time></trkpt><trkpt lat="45.53517588192561" lon="10.532101201886833"><ele>122.5</ele><time>2026-05-01T09:48:05.001Z</time></trkpt><trkpt lat="45.53531738889716" lon="10.532149266015294"><ele>122.0</ele><time>2026-05-01T09:48:06.001Z</time></trkpt><trkpt lat="45.535453370441765" lon="10.53219959770678"><ele>121.5</ele><time>2026-05-01T09:48:07.001Z</time></trkpt><trkpt lat="45.53558374602146" lon="10.532246741240662"><ele>121.0</ele><time>2026-05-01T09:48:08.001Z</time></trkpt><trkpt lat="45.53570726013441" lon="10.53228493863019"><ele>121.0</ele><time>2026-05-01T09:48:09.001Z</time></trkpt><trkpt lat="45.53582701516244" lon="10.532318345660336"><ele>121.0</ele><time>2026-05-01T09:48:10.001Z</time></trkpt><trkpt lat="45.53594813120611" lon="10.532367655680591"><ele>121.0</ele><time>2026-05-01T09:48:11.001Z</time></trkpt><trkpt lat="45.53607260695849" lon="10.532401226085327"><ele>121.0</ele><time>2026-05-01T09:48:12.001Z</time></trkpt><trkpt lat="45.53618151718873" lon="10.5324433965698"><ele>121.4</ele><time>2026-05-01T09:48:13.001Z</time></trkpt><trkpt lat="45.53629261057839" lon="10.532475282633602"><ele>121.8</ele><time>2026-05-01T09:48:14.001Z</time></trkpt><trkpt lat="45.536393859814304" lon="10.532510807514509"><ele>122.20000000000002</ele><time>2026-05-01T09:48:15.001Z</time></trkpt><trkpt lat="45.53649332959265" lon="10.532550097043913"><ele>122.60000000000001</ele><time>2026-05-01T09:48:16.001Z</time></trkpt><trkpt lat="45.536575786163894" lon="10.532586440905542"><ele>123.0</ele><time>2026-05-01T09:48:17.001Z</time></trkpt><trkpt lat="45.53664975934088" lon="10.532611113964661"><ele>123.0</ele><time>2026-05-01T09:48:18.001Z</time></trkpt><trkpt lat="45.53672572743958" lon="10.5326360734836"><ele>123.0</ele><time>2026-05-01T09:48:19.002Z</time></trkpt><trkpt lat="45.536805667295546" lon="10.532664914307622"><ele>123.0</ele><time>2026-05-01T09:48:20.002Z</time></trkpt><trkpt lat="45.53687961463982" lon="10.532700427128836"><ele>123.0</ele><time>2026-05-01T09:48:21.002Z</time></trkpt><trkpt lat="45.53694070217749" lon="10.532734484338665"><ele>123.0</ele><time>2026-05-01T09:48:22.002Z</time></trkpt><trkpt lat="45.53702224737396" lon="10.532801604177166"><ele>123.0</ele><time>2026-05-01T09:48:24.002Z</time></trkpt><trkpt lat="45.53709218383664" lon="10.53291738527932"><ele>122.80000000000001</ele><time>2026-05-01T09:48:26.002Z</time></trkpt><trkpt lat="45.53717200562781" lon="10.533035975015437"><ele>122.60000000000001</ele><time>2026-05-01T09:48:28.002Z</time></trkpt><trkpt lat="45.53728568241" lon="10.533046848446775"><ele>122.39999999999999</ele><time>2026-05-01T09:48:30.002Z</time></trkpt><trkpt lat="45.53738191539121" lon="10.532958047581605"><ele>122.19999999999999</ele><time>2026-05-01T09:48:32.002Z</time></trkpt><trkpt lat="45.53741874138785" lon="10.53287613950396"><ele>122.0</ele><time>2026-05-01T09:48:33.002Z</time></trkpt><trkpt lat="45.53745811281425" lon="10.532788866195906"><ele>122.0</ele><time>2026-05-01T09:48:34.002Z</time></trkpt><trkpt lat="45.53750013075196" lon="10.532694357128118"><ele>121.99999999999999</ele><time>2026-05-01T09:48:35.002Z</time></trkpt><trkpt lat="45.53755401683055" lon="10.532596863443054"><ele>121.99999999999999</ele><time>2026-05-01T09:48:36.002Z</time></trkpt><trkpt lat="45.537639012766704" lon="10.532524288567789"><ele>122.0</ele><time>2026-05-01T09:48:37.002Z</time></trkpt><trkpt lat="45.53771012024112" lon="10.532437535916191"><ele>122.0</ele><time>2026-05-01T09:48:38.002Z</time></trkpt><trkpt lat="45.53778075531036" lon="10.532342089618465"><ele>122.0</ele><time>2026-05-01T09:48:39.002Z</time></trkpt><trkpt lat="45.537863629123436" lon="10.53228147157582"><ele>121.99999999999999</ele><time>2026-05-01T09:48:40.002Z</time></trkpt><trkpt lat="45.53795326126606" lon="10.532224471572363"><ele>121.99999999999999</ele><time>2026-05-01T09:48:41.002Z</time></trkpt><trkpt lat="45.538041110779815" lon="10.53218418191312"><ele>122.0</ele><time>2026-05-01T09:48:42.002Z</time></trkpt><trkpt lat="45.53813020004636" lon="10.532146468116654"><ele>122.0</ele><time>2026-05-01T09:48:43.002Z</time></trkpt><trkpt lat="45.538226774187045" lon="10.532099610600813"><ele>121.75</ele><time>2026-05-01T09:48:44.002Z</time></trkpt><trkpt lat="45.53832234531666" lon="10.532044848725288"><ele>121.5</ele><time>2026-05-01T09:48:45.002Z</time></trkpt><trkpt lat="45.538424822957104" lon="10.531989718654883"><ele>121.25</ele><time>2026-05-01T09:48:46.002Z</time></trkpt><trkpt lat="45.53855022032945" lon="10.531922817739538"><ele>121.0</ele><time>2026-05-01T09:48:47.002Z</time></trkpt><trkpt lat="45.5387063701121" lon="10.531872460659644"><ele>121.25</ele><time>2026-05-01T09:48:48.002Z</time></trkpt><trkpt lat="45.538859302759775" lon="10.53180073211591"><ele>121.5</ele><time>2026-05-01T09:48:49Z</time></trkpt><trkpt lat="45.53900112429406" lon="10.531734214920638"><ele>121.75</ele><time>2026-05-01T09:48:50Z</time></trkpt><trkpt lat="45.539133741287245" lon="10.531674565702094"><ele>122.0</ele><time>2026-05-01T09:48:51Z</time></trkpt><trkpt lat="45.539263481973784" lon="10.531603464702929"><ele>122.0</ele><time>2026-05-01T09:48:52Z</time></trkpt><trkpt lat="45.53939867620858" lon="10.531544178494698"><ele>122.0</ele><time>2026-05-01T09:48:53Z</time></trkpt><trkpt lat="45.53953416744145" lon="10.531498025820792"><ele>122.0</ele><time>2026-05-01T09:48:54Z</time></trkpt><trkpt lat="45.53966091631663" lon="10.53146450334882"><ele>122.0</ele><time>2026-05-01T09:48:55Z</time></trkpt><trkpt lat="45.53980847587478" lon="10.531455696932978"><ele>122.0</ele><time>2026-05-01T09:48:56Z</time></trkpt><trkpt lat="45.539981504819444" lon="10.531431248608659"><ele>122.0</ele><time>2026-05-01T09:48:57Z</time></trkpt><trkpt lat="45.540159644277644" lon="10.531390007855752"><ele>122.0</ele><time>2026-05-01T09:48:58Z</time></trkpt><trkpt lat="45.540336263664095" lon="10.5313839367722"><ele>121.33333333333333</ele><time>2026-05-01T09:48:59Z</time></trkpt><trkpt lat="45.54050824353426" lon="10.531382408204834"><ele>120.66666666666666</ele><time>2026-05-01T09:49:00Z</time></trkpt><trkpt lat="45.54068374148463" lon="10.531384701118688"><ele>120.0</ele><time>2026-05-01T09:49:01Z</time></trkpt><trkpt lat="45.54085748954323" lon="10.531389707962363"><ele>120.0</ele><time>2026-05-01T09:49:02Z</time></trkpt><trkpt lat="45.54102552800827" lon="10.531393298016544"><ele>120.0</ele><time>2026-05-01T09:49:03Z</time></trkpt><trkpt lat="45.541181753837506" lon="10.531396626879426"><ele>120.0</ele><time>2026-05-01T09:49:04Z</time></trkpt><trkpt lat="45.541334864152915" lon="10.53139959986909"><ele>120.0</ele><time>2026-05-01T09:49:05Z</time></trkpt><trkpt lat="45.54147807253856" lon="10.531405739733556"><ele>120.0</ele><time>2026-05-01T09:49:06Z</time></trkpt><trkpt lat="45.54161619255759" lon="10.53140673119413"><ele>120.0</ele><time>2026-05-01T09:49:07Z</time></trkpt><trkpt lat="45.54174166846229" lon="10.531408907372585"><ele>120.0</ele><time>2026-05-01T09:49:08Z</time></trkpt><trkpt lat="45.5418568345019" lon="10.531407926293273"><ele>120.0</ele><time>2026-05-01T09:49:09Z</time></trkpt><trkpt lat="45.54196375614001" lon="10.53140892544108"><ele>120.0</ele><time>2026-05-01T09:49:10Z</time></trkpt><trkpt lat="45.54206764300664" lon="10.531413927349185"><ele>120.0</ele><time>2026-05-01T09:49:11Z</time></trkpt><trkpt lat="45.542151048042875" lon="10.53141921551214"><ele>120.0</ele><time>2026-05-01T09:49:12Z</time></trkpt><trkpt lat="45.54222237166504" lon="10.531441050958973"><ele>120.0</ele><time>2026-05-01T09:49:13Z</time></trkpt><trkpt lat="45.54228539754838" lon="10.531507536715825"><ele>120.0</ele><time>2026-05-01T09:49:14Z</time></trkpt><trkpt lat="45.54233550907754" lon="10.531594091649431"><ele>120.0</ele><time>2026-05-01T09:49:15Z</time></trkpt><trkpt lat="45.54238926255539" lon="10.531649138510097"><ele>120.0</ele><time>2026-05-01T09:49:16Z</time></trkpt><trkpt lat="45.542470426237784" lon="10.531668032147515"><ele>120.0</ele><time>2026-05-01T09:49:17Z</time></trkpt><trkpt lat="45.54254577955367" lon="10.531623875064147"><ele>120.0</ele><time>2026-05-01T09:49:18Z</time></trkpt><trkpt lat="45.54260445353263" lon="10.531551504004604"><ele>120.0</ele><time>2026-05-01T09:49:19Z</time></trkpt><trkpt lat="45.54266794624549" lon="10.53146999162403"><ele>120.0</ele><time>2026-05-01T09:49:20Z</time></trkpt><trkpt lat="45.54273067455409" lon="10.531422349413772"><ele>120.0</ele><time>2026-05-01T09:49:21Z</time></trkpt><trkpt lat="45.542805273604124" lon="10.53144152968701"><ele>120.0</ele><time>2026-05-01T09:49:22Z</time></trkpt><trkpt lat="45.54288561830427" lon="10.531419081001433"><ele>120.0</ele><time>2026-05-01T09:49:23Z</time></trkpt><trkpt lat="45.54296965564903" lon="10.531427407509192"><ele>120.0</ele><time>2026-05-01T09:49:24Z</time></trkpt><trkpt lat="45.54304994069882" lon="10.531430545487384"><ele>120.0</ele><time>2026-05-01T09:49:25Z</time></trkpt><trkpt lat="45.54311541988823" lon="10.53142929413437"><ele>120.0</ele><time>2026-05-01T09:49:26Z</time></trkpt><trkpt lat="45.5431899440212" lon="10.531428244854672"><ele>119.66666666666667</ele><time>2026-05-01T09:49:27Z</time></trkpt><trkpt lat="45.54326093549361" lon="10.531426921370016"><ele>119.33333333333334</ele><time>2026-05-01T09:49:28Z</time></trkpt><trkpt lat="45.54333849218913" lon="10.531425768549727"><ele>119.0</ele><time>2026-05-01T09:49:29Z</time></trkpt><trkpt lat="45.54342176086019" lon="10.531428297449656"><ele>118.66666666666667</ele><time>2026-05-01T09:49:30Z</time></trkpt><trkpt lat="45.543499671860424" lon="10.531428762931363"><ele>118.33333333333334</ele><time>2026-05-01T09:49:31Z</time></trkpt><trkpt lat="45.543567863087176" lon="10.531434096302378"><ele>118.0</ele><time>2026-05-01T09:49:32Z</time></trkpt><trkpt lat="45.54368245564545" lon="10.531434766991442"><ele>117.83333333333334</ele><time>2026-05-01T09:49:34.001Z</time></trkpt><trkpt lat="45.54375809278461" lon="10.531442845936938"><ele>117.66666666666667</ele><time>2026-05-01T09:49:36.001Z</time></trkpt><trkpt lat="45.543823593299535" lon="10.53144494228885"><ele>117.5</ele><time>2026-05-01T09:49:38.001Z</time></trkpt><trkpt lat="45.54393254271893" lon="10.531437751750643"><ele>117.33333333333334</ele><time>2026-05-01T09:49:40.001Z</time></trkpt><trkpt lat="45.54399925387949" lon="10.531440675339558"><ele>117.16666666666667</ele><time>2026-05-01T09:49:41.001Z</time></trkpt><trkpt lat="45.54406373119335" lon="10.531441079238515"><ele>117.0</ele><time>2026-05-01T09:49:42.001Z</time></trkpt><trkpt lat="45.54417446346409" lon="10.531452928637323"><ele>117.0</ele><time>2026-05-01T09:49:44.001Z</time></trkpt><trkpt lat="45.544290491194396" lon="10.531461607538686"><ele>117.0</ele><time>2026-05-01T09:49:46.001Z</time></trkpt><trkpt lat="45.544406152822894" lon="10.531470419576811"><ele>117.0</ele><time>2026-05-01T09:49:48.001Z</time></trkpt><trkpt lat="45.54451218390206" lon="10.531516696069032"><ele>117.0</ele><time>2026-05-01T09:49:50.001Z</time></trkpt><trkpt lat="45.54463679953955" lon="10.531559051640773"><ele>117.33333333333333</ele><time>2026-05-01T09:49:52.001Z</time></trkpt><trkpt lat="45.54470856812149" lon="10.531570258441068"><ele>117.66666666666666</ele><time>2026-05-01T09:49:53.001Z</time></trkpt><trkpt lat="45.54477065624616" lon="10.53161408224851"><ele>118.0</ele><time>2026-05-01T09:49:54.001Z</time></trkpt><trkpt lat="45.54483663572854" lon="10.531643960678272"><ele>118.33333333333333</ele><time>2026-05-01T09:49:55.001Z</time></trkpt><trkpt lat="45.54494911858039" lon="10.531719225408981"><ele>118.66666666666666</ele><time>2026-05-01T09:49:57.001Z</time></trkpt><trkpt lat="45.54501406384781" lon="10.531766312262244"><ele>119.0</ele><time>2026-05-01T09:49:58.001Z</time></trkpt><trkpt lat="45.545073837547356" lon="10.531812217379919"><ele>119.0</ele><time>2026-05-01T09:49:59.001Z</time></trkpt><trkpt lat="45.54513660386296" lon="10.531858639351167"><ele>119.0</ele><time>2026-05-01T09:50:00.001Z</time></trkpt><trkpt lat="45.54525399535537" lon="10.53194587217872"><ele>119.0</ele><time>2026-05-01T09:50:02.001Z</time></trkpt><trkpt lat="45.54533736146806" lon="10.532006804251887"><ele>119.0</ele><time>2026-05-01T09:50:03.001Z</time></trkpt><trkpt lat="45.54542985782055" lon="10.532075588056912"><ele>119.0</ele><time>2026-05-01T09:50:04.001Z</time></trkpt><trkpt lat="45.545523162827934" lon="10.532149480568004"><ele>119.2</ele><time>2026-05-01T09:50:05.001Z</time></trkpt><trkpt lat="45.545617314920584" lon="10.532225248456825"><ele>119.4</ele><time>2026-05-01T09:50:06.001Z</time></trkpt><trkpt lat="45.54571694688495" lon="10.532301483362291"><ele>119.6</ele><time>2026-05-01T09:50:07.001Z</time></trkpt><trkpt lat="45.54581383885772" lon="10.532374443466805"><ele>119.8</ele><time>2026-05-01T09:50:08.001Z</time></trkpt><trkpt lat="45.54590932714392" lon="10.532444065962332"><ele>120.0</ele><time>2026-05-01T09:50:09.001Z</time></trkpt><trkpt lat="45.545995627639655" lon="10.532511507967943"><ele>120.0</ele><time>2026-05-01T09:50:10.001Z</time></trkpt><trkpt lat="45.54607255632204" lon="10.532567574389128"><ele>120.0</ele><time>2026-05-01T09:50:11.001Z</time></trkpt><trkpt lat="45.546143476553816" lon="10.53262053421122"><ele>120.0</ele><time>2026-05-01T09:50:12.001Z</time></trkpt><trkpt lat="45.54620185298761" lon="10.532661074359204"><ele>120.0</ele><time>2026-05-01T09:50:13.001Z</time></trkpt><trkpt lat="45.546311014203326" lon="10.532745556865892"><ele>120.0</ele><time>2026-05-01T09:50:15.001Z</time></trkpt><trkpt lat="45.54642487452405" lon="10.532819046898945"><ele>119.66666666666667</ele><time>2026-05-01T09:50:17.001Z</time></trkpt><trkpt lat="45.54648896172975" lon="10.532865902834875"><ele>119.33333333333334</ele><time>2026-05-01T09:50:18.001Z</time></trkpt><trkpt lat="45.546546232932926" lon="10.53291031502347"><ele>119.0</ele><time>2026-05-01T09:50:19.001Z</time></trkpt><trkpt lat="45.546638059876805" lon="10.532977388809858"><ele>118.66666666666667</ele><time>2026-05-01T09:50:21.001Z</time></trkpt><trkpt lat="45.546718653989124" lon="10.533042836480549"><ele>118.33333333333334</ele><time>2026-05-01T09:50:23.001Z</time></trkpt><trkpt lat="45.54681901609868" lon="10.53311458127778"><ele>118.0</ele><time>2026-05-01T09:50:25.001Z</time></trkpt><trkpt lat="45.54690825785942" lon="10.533180083787558"><ele>118.0</ele><time>2026-05-01T09:50:27.001Z</time></trkpt><trkpt lat="45.5470083016673" lon="10.53324934195865"><ele>118.00000000000001</ele><time>2026-05-01T09:50:29.002Z</time></trkpt><trkpt lat="45.54706113340453" lon="10.533303400135223"><ele>118.00000000000001</ele><time>2026-05-01T09:50:30.002Z</time></trkpt><trkpt lat="45.5471590923903" lon="10.533373380133613"><ele>118.0</ele><time>2026-05-01T09:50:32.002Z</time></trkpt><trkpt lat="45.547238769745206" lon="10.533432332232186"><ele>118.0</ele><time>2026-05-01T09:50:34.002Z</time></trkpt><trkpt lat="45.54730539214368" lon="10.533500937446766"><ele>118.2</ele><time>2026-05-01T09:50:36.002Z</time></trkpt><trkpt lat="45.54735131930509" lon="10.533575325729938"><ele>118.4</ele><time>2026-05-01T09:50:47.002Z</time></trkpt><trkpt lat="45.54739029262037" lon="10.533700104343598"><ele>118.60000000000001</ele><time>2026-05-01T09:50:49.002Z</time></trkpt><trkpt lat="45.54746063623846" lon="10.533814028465875"><ele>118.80000000000001</ele><time>2026-05-01T09:50:51.002Z</time></trkpt><trkpt lat="45.547547436350506" lon="10.533861216119707"><ele>119.0</ele><time>2026-05-01T09:50:53.002Z</time></trkpt><trkpt lat="45.54766365670327" lon="10.53383174962475"><ele>118.99999999999999</ele><time>2026-05-01T09:50:55Z</time></trkpt><trkpt lat="45.547791082010804" lon="10.533799602175115"><ele>119.0</ele><time>2026-05-01T09:50:57Z</time></trkpt><trkpt lat="45.547856597168426" lon="10.53379803515598"><ele>119.0</ele><time>2026-05-01T09:50:58Z</time></trkpt><trkpt lat="45.54793040571449" lon="10.533808267375473"><ele>119.0</ele><time>2026-05-01T09:50:59Z</time></trkpt><trkpt lat="45.547999038031236" lon="10.533839401381659"><ele>118.99999999999999</ele><time>2026-05-01T09:51:00Z</time></trkpt><trkpt lat="45.54807698389077" lon="10.53388918030421"><ele>119.0</ele><time>2026-05-01T09:51:01Z</time></trkpt><trkpt lat="45.54816931394492" lon="10.533931207887823"><ele>119.2</ele><time>2026-05-01T09:51:02Z</time></trkpt><trkpt lat="45.54826764904882" lon="10.533963125820756"><ele>119.4</ele><time>2026-05-01T09:51:03Z</time></trkpt><trkpt lat="45.54837046569071" lon="10.533987871621004"><ele>119.6</ele><time>2026-05-01T09:51:04Z</time></trkpt><trkpt lat="45.548476694288205" lon="10.534000106468989"><ele>119.8</ele><time>2026-05-01T09:51:05Z</time></trkpt><trkpt lat="45.54858474207675" lon="10.534009392333061"><ele>120.0</ele><time>2026-05-01T09:51:06Z</time></trkpt><trkpt lat="45.54869803235013" lon="10.534017760257713"><ele>119.5</ele><time>2026-05-01T09:51:07Z</time></trkpt><trkpt lat="45.54881059049759" lon="10.534024650259653"><ele>119.0</ele><time>2026-05-01T09:51:08Z</time></trkpt><trkpt lat="45.54892422763183" lon="10.53402172675638"><ele>118.5</ele><time>2026-05-01T09:51:09Z</time></trkpt><trkpt lat="45.54904337088338" lon="10.534023881363646"><ele>118.0</ele><time>2026-05-01T09:51:10Z</time></trkpt><trkpt lat="45.54915926737849" lon="10.534010339192287"><ele>118.0</ele><time>2026-05-01T09:51:11Z</time></trkpt><trkpt lat="45.54927518068127" lon="10.53399465217229"><ele>118.0</ele><time>2026-05-01T09:51:12Z</time></trkpt><trkpt lat="45.549388553718316" lon="10.53397968814508"><ele>118.0</ele><time>2026-05-01T09:51:13Z</time></trkpt><trkpt lat="45.549496480167534" lon="10.53396311439418"><ele>118.0</ele><time>2026-05-01T09:51:14Z</time></trkpt><trkpt lat="45.54961008639312" lon="10.533948771735087"><ele>116.0</ele><time>2026-05-01T09:51:15Z</time></trkpt><trkpt lat="45.549727688865154" lon="10.53393424651065"><ele>114.0</ele><time>2026-05-01T09:51:16Z</time></trkpt><trkpt lat="45.549845078359006" lon="10.533922753678018"><ele>112.0</ele><time>2026-05-01T09:51:17Z</time></trkpt><trkpt lat="45.54996623403754" lon="10.533908044534085"><ele>110.0</ele><time>2026-05-01T09:51:18Z</time></trkpt><trkpt lat="45.55009234874524" lon="10.53389074724424"><ele>110.0</ele><time>2026-05-01T09:51:19Z</time></trkpt><trkpt lat="45.55021787981653" lon="10.533861576776141"><ele>110.0</ele><time>2026-05-01T09:51:20Z</time></trkpt><trkpt lat="45.55034326179535" lon="10.533870759220251"><ele>110.0</ele><time>2026-05-01T09:51:21Z</time></trkpt><trkpt lat="45.55046996004289" lon="10.533837325946436"><ele>110.0</ele><time>2026-05-01T09:51:22Z</time></trkpt><trkpt lat="45.55060456054318" lon="10.533828721621354"><ele>110.25</ele><time>2026-05-01T09:51:23Z</time></trkpt><trkpt lat="45.55073248162949" lon="10.533811184809252"><ele>110.5</ele><time>2026-05-01T09:51:24Z</time></trkpt><trkpt lat="45.55086383648446" lon="10.53381364354355"><ele>110.75</ele><time>2026-05-01T09:51:25Z</time></trkpt><trkpt lat="45.55100241039947" lon="10.533795507925571"><ele>111.0</ele><time>2026-05-01T09:51:26Z</time></trkpt><trkpt lat="45.55113384092209" lon="10.533769368245036"><ele>111.5</ele><time>2026-05-01T09:51:27Z</time></trkpt><trkpt lat="45.55125516608607" lon="10.533744338769646"><ele>112.0</ele><time>2026-05-01T09:51:28Z</time></trkpt><trkpt lat="45.55137667455513" lon="10.533730565886968"><ele>112.5</ele><time>2026-05-01T09:51:29Z</time></trkpt><trkpt lat="45.55151792171528" lon="10.53373156522133"><ele>113.0</ele><time>2026-05-01T09:51:30Z</time></trkpt><trkpt lat="45.55165003362546" lon="10.533701610833225"><ele>113.25</ele><time>2026-05-01T09:51:31Z</time></trkpt><trkpt lat="45.55178334185775" lon="10.533679052859227"><ele>113.5</ele><time>2026-05-01T09:51:32Z</time></trkpt><trkpt lat="45.55189456958545" lon="10.533657339986188"><ele>113.75</ele><time>2026-05-01T09:51:33Z</time></trkpt><trkpt lat="45.55201984529485" lon="10.533646977421768"><ele>114.0</ele><time>2026-05-01T09:51:34Z</time></trkpt><trkpt lat="45.55212932741358" lon="10.533633943281831"><ele>114.25</ele><time>2026-05-01T09:51:35Z</time></trkpt><trkpt lat="45.55223853325426" lon="10.533622299861927"><ele>114.5</ele><time>2026-05-01T09:51:36Z</time></trkpt><trkpt lat="45.552356419729286" lon="10.53360436023977"><ele>114.75</ele><time>2026-05-01T09:51:37Z</time></trkpt><trkpt lat="45.55247348171679" lon="10.53358378869831"><ele>115.0</ele><time>2026-05-01T09:51:38Z</time></trkpt><trkpt lat="45.552576140502666" lon="10.533563446675766"><ele>115.00000000000001</ele><time>2026-05-01T09:51:39Z</time></trkpt><trkpt lat="45.55267001656914" lon="10.533559316904048"><ele>115.0</ele><time>2026-05-01T09:51:40Z</time></trkpt><trkpt lat="45.552764951973934" lon="10.533543708522942"><ele>115.0</ele><time>2026-05-01T09:51:41.001Z</time></trkpt><trkpt lat="45.55284916405618" lon="10.533531401082223"><ele>115.0</ele><time>2026-05-01T09:51:42.001Z</time></trkpt><trkpt lat="45.552932282457796" lon="10.533521284855306"><ele>115.00000000000001</ele><time>2026-05-01T09:51:43.001Z</time></trkpt><trkpt lat="45.55300795929428" lon="10.533499280246714"><ele>115.0</ele><time>2026-05-01T09:51:44.001Z</time></trkpt><trkpt lat="45.55307791457957" lon="10.53347544358621"><ele>115.16666666666667</ele><time>2026-05-01T09:51:45.001Z</time></trkpt><trkpt lat="45.55314374420971" lon="10.53344889690834"><ele>115.33333333333334</ele><time>2026-05-01T09:51:46.001Z</time></trkpt><trkpt lat="45.55320623544272" lon="10.533421027558326"><ele>115.5</ele><time>2026-05-01T09:51:47.001Z</time></trkpt><trkpt lat="45.55327265077716" lon="10.53340053386657"><ele>115.66666666666666</ele><time>2026-05-01T09:51:48.001Z</time></trkpt><trkpt lat="45.55339687115766" lon="10.533440181585044"><ele>115.83333333333333</ele><time>2026-05-01T09:51:50.001Z</time></trkpt><trkpt lat="45.55346377795304" lon="10.533470193551608"><ele>116.0</ele><time>2026-05-01T09:51:51.001Z</time></trkpt><trkpt lat="45.55354223522186" lon="10.533485616320622"><ele>115.99999999999999</ele><time>2026-05-01T09:51:52.001Z</time></trkpt><trkpt lat="45.55361923479613" lon="10.533485895190305"><ele>116.0</ele><time>2026-05-01T09:51:53.001Z</time></trkpt><trkpt lat="45.553696677845764" lon="10.533458487908511"><ele>116.0</ele><time>2026-05-01T09:51:54.001Z</time></trkpt><trkpt lat="45.55376474571268" lon="10.533419464440959"><ele>116.0</ele><time>2026-05-01T09:51:55.001Z</time></trkpt><trkpt lat="45.55385121242549" lon="10.533389490390839"><ele>115.99999999999999</ele><time>2026-05-01T09:51:56.001Z</time></trkpt><trkpt lat="45.55394328608818" lon="10.53338269874421"><ele>116.0</ele><time>2026-05-01T09:51:57.001Z</time></trkpt><trkpt lat="45.5540446030545" lon="10.533379013347492"><ele>116.4</ele><time>2026-05-01T09:51:58.001Z</time></trkpt><trkpt lat="45.55414444789077" lon="10.533373848710157"><ele>116.8</ele><time>2026-05-01T09:51:59.001Z</time></trkpt><trkpt lat="45.55424791314374" lon="10.533360900730324"><ele>117.20000000000002</ele><time>2026-05-01T09:52:00.001Z</time></trkpt><trkpt lat="45.55434016730542" lon="10.533344811538553"><ele>117.60000000000001</ele><time>2026-05-01T09:52:01.001Z</time></trkpt><trkpt lat="45.55443405256138" lon="10.533334250139216"><ele>118.0</ele><time>2026-05-01T09:52:02.001Z</time></trkpt><trkpt lat="45.55453607809615" lon="10.533321808942128"><ele>118.25</ele><time>2026-05-01T09:52:03.001Z</time></trkpt><trkpt lat="45.554637376081104" lon="10.533309090232159"><ele>118.5</ele><time>2026-05-01T09:52:04.001Z</time></trkpt><trkpt lat="45.55475842751289" lon="10.533293687794266"><ele>118.75</ele><time>2026-05-01T09:52:05.001Z</time></trkpt><trkpt lat="45.554881518870715" lon="10.533279626885454"><ele>119.0</ele><time>2026-05-01T09:52:06.001Z</time></trkpt><trkpt lat="45.55500695114913" lon="10.533258097627597"><ele>119.0</ele><time>2026-05-01T09:52:07.001Z</time></trkpt><trkpt lat="45.555127298463404" lon="10.533240761929191"><ele>119.0</ele><time>2026-05-01T09:52:08.001Z</time></trkpt><trkpt lat="45.555242190092734" lon="10.533221822221238"><ele>119.0</ele><time>2026-05-01T09:52:09.001Z</time></trkpt><trkpt lat="45.55536359893486" lon="10.533207540674159"><ele>119.0</ele><time>2026-05-01T09:52:10.001Z</time></trkpt><trkpt lat="45.555483207073834" lon="10.533189772447994"><ele>118.99999999999999</ele><time>2026-05-01T09:52:11.001Z</time></trkpt><trkpt lat="45.55559940262741" lon="10.533177310519072"><ele>119.0</ele><time>2026-05-01T09:52:12.001Z</time></trkpt><trkpt lat="45.555693186380815" lon="10.533159117832223"><ele>119.0</ele><time>2026-05-01T09:52:13.001Z</time></trkpt><trkpt lat="45.55576348864262" lon="10.53315879446578"><ele>119.0</ele><time>2026-05-01T09:52:14.001Z</time></trkpt><trkpt lat="45.55584428551958" lon="10.53314768852366"><ele>118.99999999999999</ele><time>2026-05-01T09:52:16.001Z</time></trkpt><trkpt lat="45.55591135865478" lon="10.53313996827709"><ele>119.0</ele><time>2026-05-01T09:52:19.001Z</time></trkpt><trkpt lat="45.55601127978431" lon="10.533127008771887"><ele>118.99999999999999</ele><time>2026-05-01T09:52:21.001Z</time></trkpt><trkpt lat="45.55608676875887" lon="10.533118949393522"><ele>119.0</ele><time>2026-05-01T09:52:22.001Z</time></trkpt><trkpt lat="45.55616045173489" lon="10.53311186389005"><ele>119.0</ele><time>2026-05-01T09:52:23.001Z</time></trkpt><trkpt lat="45.556250767032076" lon="10.533101931724893"><ele>119.0</ele><time>2026-05-01T09:52:24.001Z</time></trkpt><trkpt lat="45.55634873408869" lon="10.533087172119446"><ele>118.99999999999999</ele><time>2026-05-01T09:52:25.001Z</time></trkpt><trkpt lat="45.55645374921931" lon="10.533073847659068"><ele>119.0</ele><time>2026-05-01T09:52:26.001Z</time></trkpt><trkpt lat="45.55656872679584" lon="10.5330573758"><ele>119.5</ele><time>2026-05-01T09:52:27.001Z</time></trkpt><trkpt lat="45.55668901723886" lon="10.533044646479249"><ele>120.0</ele><time>2026-05-01T09:52:28.001Z</time></trkpt><trkpt lat="45.55681742237996" lon="10.533025958081469"><ele>120.5</ele><time>2026-05-01T09:52:29.001Z</time></trkpt><trkpt lat="45.55695291552569" lon="10.533010272875808"><ele>121.0</ele><time>2026-05-01T09:52:30.001Z</time></trkpt><trkpt lat="45.55707920298841" lon="10.532996170593492"><ele>121.0</ele><time>2026-05-01T09:52:31.001Z</time></trkpt><trkpt lat="45.55719089107844" lon="10.53298586495985"><ele>121.0</ele><time>2026-05-01T09:52:32.001Z</time></trkpt><trkpt lat="45.557286046040154" lon="10.532976221573062"><ele>121.0</ele><time>2026-05-01T09:52:33.001Z</time></trkpt><trkpt lat="45.55737833996344" lon="10.532968327817716"><ele>121.0</ele><time>2026-05-01T09:52:34.002Z</time></trkpt><trkpt lat="45.55747555898545" lon="10.532958378854643"><ele>121.0</ele><time>2026-05-01T09:52:35.002Z</time></trkpt><trkpt lat="45.55760161114922" lon="10.532938035961267"><ele>121.0</ele><time>2026-05-01T09:52:36.002Z</time></trkpt><trkpt lat="45.557730111195774" lon="10.532916401547675"><ele>121.0</ele><time>2026-05-01T09:52:37.002Z</time></trkpt><trkpt lat="45.55787617217865" lon="10.532895298134205"><ele>121.0</ele><time>2026-05-01T09:52:38.002Z</time></trkpt><trkpt lat="45.5580288025874" lon="10.532871099352102"><ele>121.0</ele><time>2026-05-01T09:52:39.002Z</time></trkpt><trkpt lat="45.55818121770792" lon="10.532856644799368"><ele>121.33333333333334</ele><time>2026-05-01T09:52:40.002Z</time></trkpt><trkpt lat="45.5583394413835" lon="10.532840734226792"><ele>121.66666666666666</ele><time>2026-05-01T09:52:41.002Z</time></trkpt><trkpt lat="45.55849145187741" lon="10.532820424374302"><ele>122.0</ele><time>2026-05-01T09:52:42.002Z</time></trkpt><trkpt lat="45.5586406788374" lon="10.53280289988156"><ele>123.0</ele><time>2026-05-01T09:52:43.002Z</time></trkpt><trkpt lat="45.558783798676416" lon="10.532786534983506"><ele>124.0</ele><time>2026-05-01T09:52:44.002Z</time></trkpt><trkpt lat="45.558916719695645" lon="10.53276761230302"><ele>125.0</ele><time>2026-05-01T09:52:45.002Z</time></trkpt><trkpt lat="45.55904404583754" lon="10.532748793952766"><ele>126.0</ele><time>2026-05-01T09:52:46.002Z</time></trkpt><trkpt lat="45.55917089160793" lon="10.532727758588608"><ele>126.0</ele><time>2026-05-01T09:52:47.002Z</time></trkpt><trkpt lat="45.559289326892056" lon="10.532717715230232"><ele>126.0</ele><time>2026-05-01T09:52:48.002Z</time></trkpt><trkpt lat="45.55940277712077" lon="10.532709946276427"><ele>126.0</ele><time>2026-05-01T09:52:49.002Z</time></trkpt><trkpt lat="45.55951652148056" lon="10.532706427319477"><ele>126.0</ele><time>2026-05-01T09:52:50.002Z</time></trkpt><trkpt lat="45.559621184631126" lon="10.532707332373215"><ele>126.0</ele><time>2026-05-01T09:52:51.002Z</time></trkpt><trkpt lat="45.55971868586964" lon="10.532707707625338"><ele>126.0</ele><time>2026-05-01T09:52:52.002Z</time></trkpt><trkpt lat="45.55980588481616" lon="10.532720161390314"><ele>126.0</ele><time>2026-05-01T09:52:53.002Z</time></trkpt><trkpt lat="45.55988393421759" lon="10.532744297723905"><ele>126.0</ele><time>2026-05-01T09:52:54.002Z</time></trkpt><trkpt lat="45.55995234379871" lon="10.532779719132458"><ele>126.0</ele><time>2026-05-01T09:52:55.002Z</time></trkpt><trkpt lat="45.56002223015081" lon="10.532822201999382"><ele>126.0</ele><time>2026-05-01T09:52:56.002Z</time></trkpt><trkpt lat="45.56009338464057" lon="10.53285730833305"><ele>126.0</ele><time>2026-05-01T09:52:57.002Z</time></trkpt><trkpt lat="45.56017518990062" lon="10.532859063134454"><ele>126.0</ele><time>2026-05-01T09:52:58.002Z</time></trkpt><trkpt lat="45.56024248142408" lon="10.53282692391429"><ele>126.0</ele><time>2026-05-01T09:52:59.002Z</time></trkpt><trkpt lat="45.560299935001886" lon="10.532763580366693"><ele>126.0</ele><time>2026-05-01T09:53:00.002Z</time></trkpt><trkpt lat="45.56035563042269" lon="10.532682268448461"><ele>126.0</ele><time>2026-05-01T09:53:01Z</time></trkpt><trkpt lat="45.56042813003565" lon="10.532602573844988"><ele>126.0</ele><time>2026-05-01T09:53:02Z</time></trkpt><trkpt lat="45.56052405672086" lon="10.532548052130926"><ele>125.5</ele><time>2026-05-01T09:53:03Z</time></trkpt><trkpt lat="45.560630637606664" lon="10.532527102293502"><ele>125.0</ele><time>2026-05-01T09:53:04Z</time></trkpt><trkpt lat="45.56074412476295" lon="10.53251520761756"><ele>124.5</ele><time>2026-05-01T09:53:05Z</time></trkpt><trkpt lat="45.56087089060782" lon="10.532506990545023"><ele>124.0</ele><time>2026-05-01T09:53:06Z</time></trkpt><trkpt lat="45.56101294167928" lon="10.532494862730221"><ele>124.0</ele><time>2026-05-01T09:53:07Z</time></trkpt><trkpt lat="45.56116641857326" lon="10.532474842511231"><ele>124.0</ele><time>2026-05-01T09:53:08Z</time></trkpt><trkpt lat="45.56132308951585" lon="10.532454229344939"><ele>124.0</ele><time>2026-05-01T09:53:09Z</time></trkpt><trkpt lat="45.561490140541416" lon="10.532437564662917"><ele>124.33333333333334</ele><time>2026-05-01T09:53:10Z</time></trkpt><trkpt lat="45.56165481204567" lon="10.53241551477381"><ele>124.66666666666666</ele><time>2026-05-01T09:53:11Z</time></trkpt><trkpt lat="45.56181867862993" lon="10.532393534564346"><ele>125.0</ele><time>2026-05-01T09:53:12Z</time></trkpt><trkpt lat="45.561983726743044" lon="10.532375124339975"><ele>125.66666666666666</ele><time>2026-05-01T09:53:13Z</time></trkpt><trkpt lat="45.5621526099812" lon="10.532354995926015"><ele>126.33333333333334</ele><time>2026-05-01T09:53:14Z</time></trkpt><trkpt lat="45.56231651874854" lon="10.532333511099278"><ele>127.0</ele><time>2026-05-01T09:53:15Z</time></trkpt><trkpt lat="45.5624803128224" lon="10.532310097028292"><ele>127.0</ele><time>2026-05-01T09:53:16Z</time></trkpt><trkpt lat="45.56264519890671" lon="10.532291532360166"><ele>127.0</ele><time>2026-05-01T09:53:17Z</time></trkpt><trkpt lat="45.56279768100603" lon="10.53227125436505"><ele>127.0</ele><time>2026-05-01T09:53:18Z</time></trkpt><trkpt lat="45.562949064734035" lon="10.532249596160726"><ele>127.0</ele><time>2026-05-01T09:53:19Z</time></trkpt><trkpt lat="45.5630935525687" lon="10.532227989382008"><ele>127.0</ele><time>2026-05-01T09:53:20Z</time></trkpt><trkpt lat="45.563237306945425" lon="10.532210920227753"><ele>127.0</ele><time>2026-05-01T09:53:21Z</time></trkpt><trkpt lat="45.56337437579855" lon="10.532196726373895"><ele>127.0</ele><time>2026-05-01T09:53:22Z</time></trkpt><trkpt lat="45.56349818409677" lon="10.532184781552585"><ele>127.0</ele><time>2026-05-01T09:53:23Z</time></trkpt><trkpt lat="45.563618439776256" lon="10.532166935596388"><ele>126.99999999999999</ele><time>2026-05-01T09:53:24Z</time></trkpt><trkpt lat="45.5637252812822" lon="10.532152937969432"><ele>126.99999999999999</ele><time>2026-05-01T09:53:25Z</time></trkpt><trkpt lat="45.56383297901304" lon="10.532133201593354"><ele>127.0</ele><time>2026-05-01T09:53:26Z</time></trkpt><trkpt lat="45.5639379556711" lon="10.532119317022127"><ele>127.0</ele><time>2026-05-01T09:53:27Z</time></trkpt><trkpt lat="45.564032461582805" lon="10.532107204082681"><ele>127.6</ele><time>2026-05-01T09:53:28Z</time></trkpt><trkpt lat="45.56411949264812" lon="10.532103610914428"><ele>128.2</ele><time>2026-05-01T09:53:29Z</time></trkpt><trkpt lat="45.56420455044174" lon="10.532090486434937"><ele>128.8</ele><time>2026-05-01T09:53:30Z</time></trkpt><trkpt lat="45.564282593804016" lon="10.532073809057508"><ele>129.4</ele><time>2026-05-01T09:53:31Z</time></trkpt><trkpt lat="45.56440538244353" lon="10.532060416196412"><ele>130.0</ele><time>2026-05-01T09:53:33Z</time></trkpt><trkpt lat="45.56450977344451" lon="10.532053496664751"><ele>130.0</ele><time>2026-05-01T09:53:35Z</time></trkpt><trkpt lat="45.56457600804162" lon="10.53205973549165"><ele>130.0</ele><time>2026-05-01T09:53:39.001Z</time></trkpt><trkpt lat="45.5646414332034" lon="10.532081632482509"><ele>130.0</ele><time>2026-05-01T09:53:42.001Z</time></trkpt><trkpt lat="45.56472519071424" lon="10.532172362411687"><ele>130.0</ele><time>2026-05-01T09:53:44.001Z</time></trkpt><trkpt lat="45.56480936866629" lon="10.532264014958457"><ele>130.0</ele><time>2026-05-01T09:53:46.001Z</time></trkpt><trkpt lat="45.56488937691019" lon="10.53227570941488"><ele>130.0</ele><time>2026-05-01T09:53:48.001Z</time></trkpt><trkpt lat="45.56498922762741" lon="10.532188714736845"><ele>130.0</ele><time>2026-05-01T09:53:50.001Z</time></trkpt><trkpt lat="45.56502562757093" lon="10.532105331097293"><ele>130.0</ele><time>2026-05-01T09:53:51.001Z</time></trkpt><trkpt lat="45.56505264640956" lon="10.532012909317002"><ele>130.0</ele><time>2026-05-01T09:53:52.001Z</time></trkpt><trkpt lat="45.565105328883426" lon="10.531918923513237"><ele>130.0</ele><time>2026-05-01T09:53:53.001Z</time></trkpt><trkpt lat="45.56517372408891" lon="10.531862102102371"><ele>130.0</ele><time>2026-05-01T09:53:54.001Z</time></trkpt><trkpt lat="45.56525893425478" lon="10.531837471081044"><ele>130.0</ele><time>2026-05-01T09:53:56.001Z</time></trkpt><trkpt lat="45.56534251321712" lon="10.531802154439886"><ele>130.4</ele><time>2026-05-01T09:54:04.001Z</time></trkpt><trkpt lat="45.56546501100104" lon="10.53174507886455"><ele>130.8</ele><time>2026-05-01T09:54:06.001Z</time></trkpt><trkpt lat="45.56553843813865" lon="10.531706389430953"><ele>131.2</ele><time>2026-05-01T09:54:07.001Z</time></trkpt><trkpt lat="45.56561439863959" lon="10.531666837782069"><ele>131.6</ele><time>2026-05-01T09:54:08.001Z</time></trkpt><trkpt lat="45.56569841162642" lon="10.531613505366288"><ele>132.0</ele><time>2026-05-01T09:54:09.001Z</time></trkpt><trkpt lat="45.56579849457278" lon="10.531563023590309"><ele>132.0</ele><time>2026-05-01T09:54:10.001Z</time></trkpt><trkpt lat="45.5659021257448" lon="10.53151598477625"><ele>132.0</ele><time>2026-05-01T09:54:11.001Z</time></trkpt><trkpt lat="45.56601522389845" lon="10.531467955856256"><ele>132.0</ele><time>2026-05-01T09:54:12.001Z</time></trkpt><trkpt lat="45.566149315825825" lon="10.531398584301183"><ele>132.0</ele><time>2026-05-01T09:54:13.001Z</time></trkpt><trkpt lat="45.56626907307457" lon="10.531329785225775"><ele>132.0</ele><time>2026-05-01T09:54:14.001Z</time></trkpt><trkpt lat="45.56639318626695" lon="10.531263260572315"><ele>132.0</ele><time>2026-05-01T09:54:15.001Z</time></trkpt><trkpt lat="45.566509639676774" lon="10.531200713527014"><ele>132.0</ele><time>2026-05-01T09:54:16.001Z</time></trkpt><trkpt lat="45.56662994400924" lon="10.531131922641316"><ele>132.0</ele><time>2026-05-01T09:54:17.001Z</time></trkpt><trkpt lat="45.56674836668891" lon="10.531071921265038"><ele>132.0</ele><time>2026-05-01T09:54:18.001Z</time></trkpt><trkpt lat="45.56685859948458" lon="10.531019465034225"><ele>132.0</ele><time>2026-05-01T09:54:19.001Z</time></trkpt><trkpt lat="45.56697161127008" lon="10.530965244534691"><ele>132.0</ele><time>2026-05-01T09:54:20.001Z</time></trkpt><trkpt lat="45.56708198293211" lon="10.530905948698027"><ele>132.0</ele><time>2026-05-01T09:54:21.001Z</time></trkpt><trkpt lat="45.56718955890312" lon="10.53083893023049"><ele>132.0</ele><time>2026-05-01T09:54:22.001Z</time></trkpt><trkpt lat="45.56728783677235" lon="10.530777665399144"><ele>132.0</ele><time>2026-05-01T09:54:23.001Z</time></trkpt><trkpt lat="45.56739555898" lon="10.53071964399713"><ele>132.0</ele><time>2026-05-01T09:54:24.001Z</time></trkpt><trkpt lat="45.567493153736166" lon="10.53063985193994"><ele>132.0</ele><time>2026-05-01T09:54:25.001Z</time></trkpt><trkpt lat="45.56757914701606" lon="10.530541064688007"><ele>132.0</ele><time>2026-05-01T09:54:26.001Z</time></trkpt><trkpt lat="45.567643106994105" lon="10.530462526141058"><ele>132.0</ele><time>2026-05-01T09:54:27.001Z</time></trkpt><trkpt lat="45.567691367691694" lon="10.530402360740496"><ele>132.0</ele><time>2026-05-01T09:54:28.001Z</time></trkpt><trkpt lat="45.56775311806591" lon="10.530292885029974"><ele>132.0</ele><time>2026-05-01T09:54:30.001Z</time></trkpt><trkpt lat="45.56782742348394" lon="10.53025322627975"><ele>132.0</ele><time>2026-05-01T09:54:32.001Z</time></trkpt><trkpt lat="45.56789257747757" lon="10.530188814301185"><ele>132.0</ele><time>2026-05-01T09:54:34.002Z</time></trkpt><trkpt lat="45.567956755509506" lon="10.530141174331778"><ele>132.0</ele><time>2026-05-01T09:54:35.002Z</time></trkpt><trkpt lat="45.568020170439546" lon="10.53009976633919"><ele>131.79999999999998</ele><time>2026-05-01T09:54:36.002Z</time></trkpt><trkpt lat="45.56807807285221" lon="10.530042600537925"><ele>131.6</ele><time>2026-05-01T09:54:37.002Z</time></trkpt><trkpt lat="45.568139177725556" lon="10.529968610573768"><ele>131.39999999999998</ele><time>2026-05-01T09:54:38.002Z</time></trkpt><trkpt lat="45.568198012650306" lon="10.52990109419607"><ele>131.2</ele><time>2026-05-01T09:54:39.002Z</time></trkpt><trkpt lat="45.56824884931543" lon="10.529825730329671"><ele>131.0</ele><time>2026-05-01T09:54:40.002Z</time></trkpt><trkpt lat="45.56841296696069" lon="10.529879351879467"><ele>131.0</ele><time>2026-05-01T09:54:42.002Z</time></trkpt><trkpt lat="45.56850566996681" lon="10.529939242551857"><ele>131.0</ele><time>2026-05-01T09:54:43.002Z</time></trkpt><trkpt lat="45.56860772803846" lon="10.529987237451515"><ele>131.0</ele><time>2026-05-01T09:54:44.002Z</time></trkpt><trkpt lat="45.56871662197485" lon="10.53001353171039"><ele>131.0</ele><time>2026-05-01T09:54:45.002Z</time></trkpt><trkpt lat="45.568828372237924" lon="10.530019005290168"><ele>131.0</ele><time>2026-05-01T09:54:46.002Z</time></trkpt><trkpt lat="45.56894026843788" lon="10.529983467713809"><ele>131.25</ele><time>2026-05-01T09:54:47.002Z</time></trkpt><trkpt lat="45.569056991521656" lon="10.529921745666636"><ele>131.5</ele><time>2026-05-01T09:54:48.002Z</time></trkpt><trkpt lat="45.56918186716524" lon="10.52983404492114"><ele>131.75</ele><time>2026-05-01T09:54:49.002Z</time></trkpt><trkpt lat="45.56930905500881" lon="10.52976165340417"><ele>132.0</ele><time>2026-05-01T09:54:50.002Z</time></trkpt><trkpt lat="45.56942773584772" lon="10.529695706728225"><ele>132.25</ele><time>2026-05-01T09:54:51.002Z</time></trkpt><trkpt lat="45.56954976295509" lon="10.529627459502029"><ele>132.5</ele><time>2026-05-01T09:54:52.002Z</time></trkpt><trkpt lat="45.56967870188988" lon="10.529560104153273"><ele>132.75</ele><time>2026-05-01T09:54:53.002Z</time></trkpt><trkpt lat="45.569808920820456" lon="10.529495867797298"><ele>133.0</ele><time>2026-05-01T09:54:54.002Z</time></trkpt><trkpt lat="45.56994442215568" lon="10.529419595567433"><ele>133.25</ele><time>2026-05-01T09:54:55.002Z</time></trkpt><trkpt lat="45.57007452584495" lon="10.529349521924694"><ele>133.5</ele><time>2026-05-01T09:54:56.002Z</time></trkpt><trkpt lat="45.57019757119761" lon="10.529284287624654"><ele>133.75</ele><time>2026-05-01T09:54:57.002Z</time></trkpt><trkpt lat="45.57030812397774" lon="10.529226485633677"><ele>134.0</ele><time>2026-05-01T09:54:58.002Z</time></trkpt><trkpt lat="45.57041455072893" lon="10.52917518201545"><ele>134.25</ele><time>2026-05-01T09:54:59.002Z</time></trkpt><trkpt lat="45.57051970912972" lon="10.529119704703481"><ele>134.5</ele><time>2026-05-01T09:55:00.002Z</time></trkpt><trkpt lat="45.570634971417746" lon="10.52906314848628"><ele>134.75</ele><time>2026-05-01T09:55:01.002Z</time></trkpt><trkpt lat="45.570752955118" lon="10.528999814278636"><ele>135.0</ele><time>2026-05-01T09:55:02.002Z</time></trkpt><trkpt lat="45.57087174650871" lon="10.528936726151043"><ele>135.0</ele><time>2026-05-01T09:55:03.002Z</time></trkpt><trkpt lat="45.5709975973949" lon="10.528872793642774"><ele>135.0</ele><time>2026-05-01T09:55:04.002Z</time></trkpt><trkpt lat="45.57111508703891" lon="10.528799595392488"><ele>135.0</ele><time>2026-05-01T09:55:05.002Z</time></trkpt><trkpt lat="45.571235078298464" lon="10.52873011044556"><ele>135.0</ele><time>2026-05-01T09:55:06.002Z</time></trkpt><trkpt lat="45.57135820710353" lon="10.528664357785079"><ele>134.8</ele><time>2026-05-01T09:55:07.001Z</time></trkpt><trkpt lat="45.571485363509396" lon="10.528604217446526"><ele>134.6</ele><time>2026-05-01T09:55:08.001Z</time></trkpt><trkpt lat="45.57159671362828" lon="10.52854628835811"><ele>134.4</ele><time>2026-05-01T09:55:09.001Z</time></trkpt><trkpt lat="45.5716866183322" lon="10.528490206198734"><ele>134.2</ele><time>2026-05-01T09:55:10.001Z</time></trkpt><trkpt lat="45.57176960263308" lon="10.528440203323134"><ele>134.0</ele><time>2026-05-01T09:55:11.001Z</time></trkpt><trkpt lat="45.57184976711804" lon="10.528389649728284"><ele>134.0</ele><time>2026-05-01T09:55:12.001Z</time></trkpt><trkpt lat="45.57192863324874" lon="10.528342915590402"><ele>134.0</ele><time>2026-05-01T09:55:13.001Z</time></trkpt><trkpt lat="45.572004752370205" lon="10.528290608341669"><ele>134.0</ele><time>2026-05-01T09:55:15.001Z</time></trkpt><trkpt lat="45.57206952793902" lon="10.528253100274819"><ele>134.0</ele><time>2026-05-01T09:55:22.001Z</time></trkpt><trkpt lat="45.572137340674345" lon="10.52820505563137"><ele>134.0</ele><time>2026-05-01T09:55:23.001Z</time></trkpt><trkpt lat="45.57220967681018" lon="10.528154736862136"><ele>134.0</ele><time>2026-05-01T09:55:24.001Z</time></trkpt><trkpt lat="45.57230322717459" lon="10.528100155268115"><ele>134.0</ele><time>2026-05-01T09:55:25.001Z</time></trkpt><trkpt lat="45.57240510576885" lon="10.52802877043983"><ele>134.0</ele><time>2026-05-01T09:55:26.001Z</time></trkpt><trkpt lat="45.572522555052615" lon="10.527959625893024"><ele>134.0</ele><time>2026-05-01T09:55:27.001Z</time></trkpt><trkpt lat="45.57264885411443" lon="10.527873109499053"><ele>134.0</ele><time>2026-05-01T09:55:28.001Z</time></trkpt><trkpt lat="45.572778867737156" lon="10.527788380733357"><ele>134.33333333333331</ele><time>2026-05-01T09:55:29.001Z</time></trkpt><trkpt lat="45.572920620161774" lon="10.527687745425109"><ele>134.66666666666666</ele><time>2026-05-01T09:55:30.001Z</time></trkpt><trkpt lat="45.57307661343403" lon="10.527585674516684"><ele>135.0</ele><time>2026-05-01T09:55:31.001Z</time></trkpt><trkpt lat="45.573240349543305" lon="10.527480026344438"><ele>135.0</ele><time>2026-05-01T09:55:32.001Z</time></trkpt><trkpt lat="45.573416515378646" lon="10.527362266448074"><ele>135.0</ele><time>2026-05-01T09:55:33.001Z</time></trkpt><trkpt lat="45.57359439606568" lon="10.52724098245282"><ele>135.0</ele><time>2026-05-01T09:55:34.001Z</time></trkpt><trkpt lat="45.57376764541761" lon="10.527128172692375"><ele>135.33333333333334</ele><time>2026-05-01T09:55:35.001Z</time></trkpt><trkpt lat="45.57393808458457" lon="10.527008710763111"><ele>135.66666666666669</ele><time>2026-05-01T09:55:36.001Z</time></trkpt><trkpt lat="45.574098273452805" lon="10.526904220366571"><ele>136.0</ele><time>2026-05-01T09:55:37.001Z</time></trkpt><trkpt lat="45.57425052823213" lon="10.526804744696815"><ele>136.0</ele><time>2026-05-01T09:55:38.001Z</time></trkpt><trkpt lat="45.57438873138891" lon="10.526713493666916"><ele>136.0</ele><time>2026-05-01T09:55:39.001Z</time></trkpt><trkpt lat="45.57452416870471" lon="10.526627585501084"><ele>136.0</ele><time>2026-05-01T09:55:40.001Z</time></trkpt><trkpt lat="45.57464217889939" lon="10.526546652690639"><ele>136.0</ele><time>2026-05-01T09:55:41.001Z</time></trkpt><trkpt lat="45.57474231117004" lon="10.526481077407723"><ele>135.8</ele><time>2026-05-01T09:55:42.001Z</time></trkpt><trkpt lat="45.574838114273525" lon="10.526421225595065"><ele>135.6</ele><time>2026-05-01T09:55:43.001Z</time></trkpt><trkpt lat="45.57493405367257" lon="10.52636427976752"><ele>135.4</ele><time>2026-05-01T09:55:44.001Z</time></trkpt><trkpt lat="45.5750213427829" lon="10.526327105885454"><ele>135.2</ele><time>2026-05-01T09:55:45.001Z</time></trkpt><trkpt lat="45.5750980090652" lon="10.526328640532943"><ele>135.0</ele><time>2026-05-01T09:55:46.001Z</time></trkpt><trkpt lat="45.57516753458117" lon="10.526371205698952"><ele>135.0</ele><time>2026-05-01T09:55:47.001Z</time></trkpt><trkpt lat="45.57522965477881" lon="10.526440330573015"><ele>135.0</ele><time>2026-05-01T09:55:48.001Z</time></trkpt><trkpt lat="45.57534214488663" lon="10.52643503126253"><ele>135.0</ele><time>2026-05-01T09:55:50.001Z</time></trkpt><trkpt lat="45.57541452276262" lon="10.52630696960476"><ele>135.0</ele><time>2026-05-01T09:55:52.001Z</time></trkpt><trkpt lat="45.57546171984206" lon="10.52613481084081"><ele>135.0</ele><time>2026-05-01T09:55:54.001Z</time></trkpt><trkpt lat="45.57550433666682" lon="10.526043139199748"><ele>135.5</ele><time>2026-05-01T09:55:55.001Z</time></trkpt><trkpt lat="45.57555507988032" lon="10.525977792488735"><ele>136.0</ele><time>2026-05-01T09:55:56.001Z</time></trkpt><trkpt lat="45.57561231882533" lon="10.525931608470463"><ele>136.5</ele><time>2026-05-01T09:55:58.001Z</time></trkpt><trkpt lat="45.57569011802139" lon="10.525852074932164"><ele>137.0</ele><time>2026-05-01T09:56:01.001Z</time></trkpt><trkpt lat="45.57576137148509" lon="10.525795486549033"><ele>137.5</ele><time>2026-05-01T09:56:02.001Z</time></trkpt><trkpt lat="45.57584933550099" lon="10.525734562482079"><ele>138.0</ele><time>2026-05-01T09:56:03.001Z</time></trkpt><trkpt lat="45.57596422389162" lon="10.525662760545558"><ele>138.0</ele><time>2026-05-01T09:56:04.001Z</time></trkpt><trkpt lat="45.57608255425167" lon="10.525590446190622"><ele>138.0</ele><time>2026-05-01T09:56:05.001Z</time></trkpt><trkpt lat="45.57621591510424" lon="10.525506258768475"><ele>138.0</ele><time>2026-05-01T09:56:06.001Z</time></trkpt><trkpt lat="45.57635425090986" lon="10.525419214526416"><ele>138.0</ele><time>2026-05-01T09:56:07.001Z</time></trkpt><trkpt lat="45.576496275759254" lon="10.525326429507398"><ele>138.33333333333334</ele><time>2026-05-01T09:56:08.001Z</time></trkpt><trkpt lat="45.57664338743722" lon="10.525229482565091"><ele>138.66666666666669</ele><time>2026-05-01T09:56:09.001Z</time></trkpt><trkpt lat="45.57679944519291" lon="10.525123872435074"><ele>139.0</ele><time>2026-05-01T09:56:10.001Z</time></trkpt><trkpt lat="45.576958792996585" lon="10.525022275467293"><ele>139.33333333333334</ele><time>2026-05-01T09:56:11.001Z</time></trkpt><trkpt lat="45.57711942484191" lon="10.524911211826984"><ele>139.66666666666666</ele><time>2026-05-01T09:56:12.001Z</time></trkpt><trkpt lat="45.577288398247035" lon="10.524796359110422"><ele>140.0</ele><time>2026-05-01T09:56:13.001Z</time></trkpt><trkpt lat="45.57746121631241" lon="10.524682049683134"><ele>140.0</ele><time>2026-05-01T09:56:14.001Z</time></trkpt><trkpt lat="45.5776235525399" lon="10.524576964506936"><ele>140.0</ele><time>2026-05-01T09:56:15.001Z</time></trkpt><trkpt lat="45.57779675025206" lon="10.524462423804088"><ele>140.0</ele><time>2026-05-01T09:56:16.001Z</time></trkpt><trkpt lat="45.57797858171073" lon="10.524337032566134"><ele>139.33333333333331</ele><time>2026-05-01T09:56:17.001Z</time></trkpt><trkpt lat="45.578150515990444" lon="10.524232082255208"><ele>138.66666666666666</ele><time>2026-05-01T09:56:18.001Z</time></trkpt><trkpt lat="45.5783132817134" lon="10.524119845810496"><ele>138.0</ele><time>2026-05-01T09:56:19.001Z</time></trkpt><trkpt lat="45.57848090084931" lon="10.52400743864974"><ele>138.0</ele><time>2026-05-01T09:56:20.001Z</time></trkpt><trkpt lat="45.57866414956027" lon="10.523888230278782"><ele>138.0</ele><time>2026-05-01T09:56:21.001Z</time></trkpt><trkpt lat="45.57884460788489" lon="10.523768619905535"><ele>138.0</ele><time>2026-05-01T09:56:22.001Z</time></trkpt><trkpt lat="45.5790250986393" lon="10.523650882490296"><ele>138.33333333333334</ele><time>2026-05-01T09:56:23.001Z</time></trkpt><trkpt lat="45.5792040652509" lon="10.523524208992095"><ele>138.66666666666669</ele><time>2026-05-01T09:56:24.001Z</time></trkpt><trkpt lat="45.57938362459444" lon="10.52340229467593"><ele>139.0</ele><time>2026-05-01T09:56:25.001Z</time></trkpt><trkpt lat="45.5795607647525" lon="10.523293447094808"><ele>140.33333333333334</ele><time>2026-05-01T09:56:26.001Z</time></trkpt><trkpt lat="45.5797373162246" lon="10.523181689186567"><ele>141.66666666666666</ele><time>2026-05-01T09:56:27.001Z</time></trkpt><trkpt lat="45.57990872088216" lon="10.523068983089226"><ele>143.0</ele><time>2026-05-01T09:56:28.001Z</time></trkpt><trkpt lat="45.58007860566745" lon="10.522949108928572"><ele>142.66666666666666</ele><time>2026-05-01T09:56:29.001Z</time></trkpt><trkpt lat="45.58025364238996" lon="10.522823955301552"><ele>142.33333333333334</ele><time>2026-05-01T09:56:30.002Z</time></trkpt><trkpt lat="45.58043483354241" lon="10.522702169563454"><ele>142.0</ele><time>2026-05-01T09:56:31.002Z</time></trkpt><trkpt lat="45.580615537926484" lon="10.522582574589842"><ele>142.0</ele><time>2026-05-01T09:56:32.002Z</time></trkpt><trkpt lat="45.5807983152729" lon="10.522466434344198"><ele>142.0</ele><time>2026-05-01T09:56:33.002Z</time></trkpt><trkpt lat="45.5809768114794" lon="10.52234855148938"><ele>142.0</ele><time>2026-05-01T09:56:34.002Z</time></trkpt><trkpt lat="45.58115684069541" lon="10.522237915550916"><ele>142.33333333333334</ele><time>2026-05-01T09:56:35.002Z</time></trkpt><trkpt lat="45.581336715568334" lon="10.522127793050965"><ele>142.66666666666666</ele><time>2026-05-01T09:56:36.002Z</time></trkpt><trkpt lat="45.58151129519503" lon="10.522014966453316"><ele>143.0</ele><time>2026-05-01T09:56:37.002Z</time></trkpt><trkpt lat="45.5816771834882" lon="10.52189286406164"><ele>143.33333333333331</ele><time>2026-05-01T09:56:38.002Z</time></trkpt><trkpt lat="45.581841493508456" lon="10.521762139819936"><ele>143.66666666666666</ele><time>2026-05-01T09:56:39.002Z</time></trkpt><trkpt lat="45.582002243914616" lon="10.521614677138873"><ele>144.0</ele><time>2026-05-01T09:56:40.002Z</time></trkpt><trkpt lat="45.5821647286335" lon="10.52145792351733"><ele>144.0</ele><time>2026-05-01T09:56:41.002Z</time></trkpt><trkpt lat="45.582328084499174" lon="10.521297465114856"><ele>144.0</ele><time>2026-05-01T09:56:42.002Z</time></trkpt><trkpt lat="45.58248887662327" lon="10.521125435019949"><ele>144.0</ele><time>2026-05-01T09:56:43.002Z</time></trkpt><trkpt lat="45.58264336404313" lon="10.520945522022433"><ele>144.33333333333334</ele><time>2026-05-01T09:56:44.002Z</time></trkpt><trkpt lat="45.58279560930085" lon="10.520765138788217"><ele>144.66666666666669</ele><time>2026-05-01T09:56:45.002Z</time></trkpt><trkpt lat="45.58295373728956" lon="10.520584597543362"><ele>145.0</ele><time>2026-05-01T09:56:46.002Z</time></trkpt><trkpt lat="45.58311648223008" lon="10.52040680164624"><ele>145.33333333333334</ele><time>2026-05-01T09:56:47.002Z</time></trkpt><trkpt lat="45.58327954647554" lon="10.52023975626274"><ele>145.66666666666666</ele><time>2026-05-01T09:56:48.002Z</time></trkpt><trkpt lat="45.583449541209156" lon="10.520083865448449"><ele>146.0</ele><time>2026-05-01T09:56:49.002Z</time></trkpt><trkpt lat="45.58362137029881" lon="10.519937646663285"><ele>146.33333333333331</ele><time>2026-05-01T09:56:50.002Z</time></trkpt><trkpt lat="45.58378975396854" lon="10.519796869302008"><ele>146.66666666666666</ele><time>2026-05-01T09:56:51.002Z</time></trkpt><trkpt lat="45.583955242837014" lon="10.519659587517417"><ele>147.0</ele><time>2026-05-01T09:56:52.002Z</time></trkpt><trkpt lat="45.58411742459748" lon="10.519521399852751"><ele>148.0</ele><time>2026-05-01T09:56:53.002Z</time></trkpt><trkpt lat="45.58426587628034" lon="10.519389753200953"><ele>149.0</ele><time>2026-05-01T09:56:54.002Z</time></trkpt><trkpt lat="45.584417546004865" lon="10.519269009477116"><ele>150.0</ele><time>2026-05-01T09:56:55.002Z</time></trkpt><trkpt lat="45.5845505398727" lon="10.519155261791427"><ele>150.0</ele><time>2026-05-01T09:56:56.002Z</time></trkpt><trkpt lat="45.58468009043992" lon="10.519057098492418"><ele>150.0</ele><time>2026-05-01T09:56:57.002Z</time></trkpt><trkpt lat="45.58478829348847" lon="10.518961600040733"><ele>150.0</ele><time>2026-05-01T09:56:58.002Z</time></trkpt><trkpt lat="45.58487971993785" lon="10.518876342047134"><ele>150.0</ele><time>2026-05-01T09:56:59.002Z</time></trkpt><trkpt lat="45.58495102676994" lon="10.518818532466117"><ele>150.0</ele><time>2026-05-01T09:57:00.002Z</time></trkpt><trkpt lat="45.58505323569576" lon="10.518745556140415"><ele>150.0</ele><time>2026-05-01T09:57:02.002Z</time></trkpt><trkpt lat="45.585115589240054" lon="10.51865694276305"><ele>150.0</ele><time>2026-05-01T09:57:04.002Z</time></trkpt><trkpt lat="45.58523598875998" lon="10.518561771699561"><ele>150.0</ele><time>2026-05-01T09:57:06.002Z</time></trkpt><trkpt lat="45.58532172636637" lon="10.518528873558076"><ele>150.0</ele><time>2026-05-01T09:57:07.002Z</time></trkpt><trkpt lat="45.58539832297743" lon="10.518464651061683"><ele>150.66666666666666</ele><time>2026-05-01T09:57:08.002Z</time></trkpt><trkpt lat="45.58546759774256" lon="10.518406723685981"><ele>151.33333333333334</ele><time>2026-05-01T09:57:09.002Z</time></trkpt><trkpt lat="45.585523862971804" lon="10.518359674847929"><ele>152.0</ele><time>2026-05-01T09:57:10.002Z</time></trkpt><trkpt lat="45.58556956216259" lon="10.518296620660822"><ele>152.66666666666669</ele><time>2026-05-01T09:57:11.002Z</time></trkpt><trkpt lat="45.58565020775574" lon="10.518254025730151"><ele>153.33333333333334</ele><time>2026-05-01T09:57:13.001Z</time></trkpt><trkpt lat="45.585726530754954" lon="10.51819020466708"><ele>154.0</ele><time>2026-05-01T09:57:16.001Z</time></trkpt><trkpt lat="45.58582929673616" lon="10.518104272050843"><ele>154.0</ele><time>2026-05-01T09:57:18.001Z</time></trkpt><trkpt lat="45.58589847827022" lon="10.518046422661536"><ele>154.0</ele><time>2026-05-01T09:57:19.001Z</time></trkpt><trkpt lat="45.585973788441386" lon="10.51798360857525"><ele>154.0</ele><time>2026-05-01T09:57:20.001Z</time></trkpt><trkpt lat="45.58603275391598" lon="10.517911871477239"><ele>154.0</ele><time>2026-05-01T09:57:21.001Z</time></trkpt><trkpt lat="45.58610868213064" lon="10.517859527029639"><ele>154.0</ele><time>2026-05-01T09:57:22.001Z</time></trkpt><trkpt lat="45.58617344969434" lon="10.517791607136523"><ele>154.0</ele><time>2026-05-01T09:57:23.001Z</time></trkpt><trkpt lat="45.586238234215514" lon="10.517738524360851"><ele>154.5</ele><time>2026-05-01T09:57:24.001Z</time></trkpt><trkpt lat="45.58629678397935" lon="10.517688144689165"><ele>155.0</ele><time>2026-05-01T09:57:25.001Z</time></trkpt><trkpt lat="45.58636562591856" lon="10.517658626165952"><ele>155.5</ele><time>2026-05-01T09:57:26.001Z</time></trkpt><trkpt lat="45.58642596419539" lon="10.517608906057895"><ele>156.0</ele><time>2026-05-01T09:57:27.001Z</time></trkpt><trkpt lat="45.58651669708031" lon="10.51753953016795"><ele>156.5</ele><time>2026-05-01T09:57:29.001Z</time></trkpt><trkpt lat="45.58659205015523" lon="10.517490827377554"><ele>157.0</ele><time>2026-05-01T09:57:31.001Z</time></trkpt><trkpt lat="45.586670893604655" lon="10.517510752000204"><ele>157.0</ele><time>2026-05-01T09:57:36.001Z</time></trkpt><trkpt lat="45.58675918386529" lon="10.517591472246567"><ele>157.0</ele><time>2026-05-01T09:57:38.001Z</time></trkpt><trkpt lat="45.58686573797794" lon="10.517610885556255"><ele>157.0</ele><time>2026-05-01T09:57:40.001Z</time></trkpt><trkpt lat="45.58693731647756" lon="10.517548448637356"><ele>157.0</ele><time>2026-05-01T09:57:41.001Z</time></trkpt><trkpt lat="45.58698029277173" lon="10.517464033210038"><ele>157.0</ele><time>2026-05-01T09:57:42.001Z</time></trkpt><trkpt lat="45.587002113317446" lon="10.517374342428793"><ele>157.0</ele><time>2026-05-01T09:57:43.001Z</time></trkpt><trkpt lat="45.58700183567559" lon="10.517267964395085"><ele>156.6</ele><time>2026-05-01T09:57:44.001Z</time></trkpt><trkpt lat="45.58702615773111" lon="10.517162494255766"><ele>156.2</ele><time>2026-05-01T09:57:45.001Z</time></trkpt><trkpt lat="45.58707841485035" lon="10.517040410234008"><ele>155.8</ele><time>2026-05-01T09:57:46.001Z</time></trkpt><trkpt lat="45.58714407426666" lon="10.516920564561465"><ele>155.4</ele><time>2026-05-01T09:57:47.001Z</time></trkpt><trkpt lat="45.58722173357888" lon="10.516805311343083"><ele>155.0</ele><time>2026-05-01T09:57:48.001Z</time></trkpt><trkpt lat="45.58731895377679" lon="10.516698684815363"><ele>154.75</ele><time>2026-05-01T09:57:49.001Z</time></trkpt><trkpt lat="45.58738624407526" lon="10.516592347979474"><ele>154.5</ele><time>2026-05-01T09:57:50.001Z</time></trkpt><trkpt lat="45.58749677869686" lon="10.516476117419021"><ele>154.25</ele><time>2026-05-01T09:57:51.001Z</time></trkpt><trkpt lat="45.58761295115631" lon="10.516348206789424"><ele>154.0</ele><time>2026-05-01T09:57:52.001Z</time></trkpt><trkpt lat="45.587715565839694" lon="10.516229179288356"><ele>154.5</ele><time>2026-05-01T09:57:53.001Z</time></trkpt><trkpt lat="45.58781332073308" lon="10.516121418063275"><ele>155.0</ele><time>2026-05-01T09:57:54.001Z</time></trkpt><trkpt lat="45.58792378443187" lon="10.516014502282989"><ele>155.5</ele><time>2026-05-01T09:57:55.001Z</time></trkpt><trkpt lat="45.588030899417205" lon="10.5158965019994"><ele>156.0</ele><time>2026-05-01T09:57:56.001Z</time></trkpt><trkpt lat="45.588129345533666" lon="10.515782355432451"><ele>156.0</ele><time>2026-05-01T09:57:57.001Z</time></trkpt><trkpt lat="45.58822664991677" lon="10.515669563784625"><ele>156.0</ele><time>2026-05-01T09:57:58.001Z</time></trkpt><trkpt lat="45.58832575391118" lon="10.515558328313608"><ele>156.0</ele><time>2026-05-01T09:57:59.001Z</time></trkpt><trkpt lat="45.58842186071782" lon="10.515452585202263"><ele>156.0</ele><time>2026-05-01T09:58:00.001Z</time></trkpt><trkpt lat="45.5885194409304" lon="10.515344421836062"><ele>156.0</ele><time>2026-05-01T09:58:01.001Z</time></trkpt><trkpt lat="45.5886199410092" lon="10.515229153746178"><ele>156.0</ele><time>2026-05-01T09:58:02.001Z</time></trkpt><trkpt lat="45.588718138985676" lon="10.515119927495345"><ele>156.0</ele><time>2026-05-01T09:58:03.001Z</time></trkpt><trkpt lat="45.58881187475705" lon="10.51501712124314"><ele>156.0</ele><time>2026-05-01T09:58:04.001Z</time></trkpt><trkpt lat="45.58891159311073" lon="10.514913002633026"><ele>156.25</ele><time>2026-05-01T09:58:05.001Z</time></trkpt><trkpt lat="45.58900786528863" lon="10.514802461592387"><ele>156.5</ele><time>2026-05-01T09:58:06.001Z</time></trkpt><trkpt lat="45.58911142703925" lon="10.514687459889704"><ele>156.75</ele><time>2026-05-01T09:58:07.001Z</time></trkpt><trkpt lat="45.589215568242686" lon="10.514573098988375"><ele>157.0</ele><time>2026-05-01T09:58:08.001Z</time></trkpt><trkpt lat="45.58931770151458" lon="10.514458845382665"><ele>157.0</ele><time>2026-05-01T09:58:09.001Z</time></trkpt><trkpt lat="45.58940929291876" lon="10.514348063657891"><ele>157.0</ele><time>2026-05-01T09:58:10.001Z</time></trkpt><trkpt lat="45.58950458350047" lon="10.514242530952098"><ele>157.0</ele><time>2026-05-01T09:58:11.001Z</time></trkpt><trkpt lat="45.58959797488955" lon="10.5141328688372"><ele>157.0</ele><time>2026-05-01T09:58:12.001Z</time></trkpt><trkpt lat="45.58969410410168" lon="10.514024493687717"><ele>157.0</ele><time>2026-05-01T09:58:13.001Z</time></trkpt><trkpt lat="45.58979325526689" lon="10.513913815654787"><ele>157.0</ele><time>2026-05-01T09:58:14.001Z</time></trkpt><trkpt lat="45.589895941734845" lon="10.513804566122783"><ele>157.0</ele><time>2026-05-01T09:58:15.001Z</time></trkpt><trkpt lat="45.58999563046406" lon="10.513688764614377"><ele>157.0</ele><time>2026-05-01T09:58:16.001Z</time></trkpt><trkpt lat="45.590101961149045" lon="10.513581541613355"><ele>157.0</ele><time>2026-05-01T09:58:17.001Z</time></trkpt><trkpt lat="45.590203988879004" lon="10.51347528569396"><ele>157.0</ele><time>2026-05-01T09:58:18.001Z</time></trkpt><trkpt lat="45.59030029681319" lon="10.513364251298915"><ele>157.0</ele><time>2026-05-01T09:58:19.001Z</time></trkpt><trkpt lat="45.590385741643566" lon="10.513246948422811"><ele>157.0</ele><time>2026-05-01T09:58:20.001Z</time></trkpt><trkpt lat="45.59046506714266" lon="10.513119471346268"><ele>157.75</ele><time>2026-05-01T09:58:21.001Z</time></trkpt><trkpt lat="45.59053403817322" lon="10.512985091909883"><ele>158.5</ele><time>2026-05-01T09:58:22.001Z</time></trkpt><trkpt lat="45.59060454784767" lon="10.512838994564746"><ele>159.25</ele><time>2026-05-01T09:58:23.001Z</time></trkpt><trkpt lat="45.59067097513417" lon="10.512695672408219"><ele>160.0</ele><time>2026-05-01T09:58:24.001Z</time></trkpt><trkpt lat="45.590727304458305" lon="10.512540811448837"><ele>160.0</ele><time>2026-05-01T09:58:25.001Z</time></trkpt><trkpt lat="45.59077013211541" lon="10.512379188188598"><ele>160.0</ele><time>2026-05-01T09:58:26.001Z</time></trkpt><trkpt lat="45.59080140574538" lon="10.512212280187248"><ele>160.0</ele><time>2026-05-01T09:58:27.001Z</time></trkpt><trkpt lat="45.59083114497284" lon="10.512044452454068"><ele>160.0</ele><time>2026-05-01T09:58:28.001Z</time></trkpt><trkpt lat="45.59086303990746" lon="10.511880575460648"><ele>160.0</ele><time>2026-05-01T09:58:29.001Z</time></trkpt><trkpt lat="45.59089716314294" lon="10.511722494299427"><ele>160.0</ele><time>2026-05-01T09:58:30.001Z</time></trkpt><trkpt lat="45.590931936792906" lon="10.511565562315386"><ele>160.0</ele><time>2026-05-01T09:58:31.001Z</time></trkpt><trkpt lat="45.59096754907599" lon="10.511397425135137"><ele>160.0</ele><time>2026-05-01T09:58:32.001Z</time></trkpt><trkpt lat="45.59100011234136" lon="10.511232687597794"><ele>159.75</ele><time>2026-05-01T09:58:33.001Z</time></trkpt><trkpt lat="45.59103384486358" lon="10.511068435132117"><ele>159.5</ele><time>2026-05-01T09:58:34.001Z</time></trkpt><trkpt lat="45.59106940654176" lon="10.51090773803165"><ele>159.25</ele><time>2026-05-01T09:58:35.001Z</time></trkpt><trkpt lat="45.59110501610896" lon="10.510751479917896"><ele>159.0</ele><time>2026-05-01T09:58:36.001Z</time></trkpt><trkpt lat="45.59114005126158" lon="10.5106006819039"><ele>159.0</ele><time>2026-05-01T09:58:37.001Z</time></trkpt><trkpt lat="45.59117397984751" lon="10.510439927356284"><ele>159.0</ele><time>2026-05-01T09:58:38.001Z</time></trkpt><trkpt lat="45.59121394309343" lon="10.51027228067637"><ele>159.0</ele><time>2026-05-01T09:58:39.001Z</time></trkpt><trkpt lat="45.59124812507949" lon="10.510103506586113"><ele>159.0</ele><time>2026-05-01T09:58:40.001Z</time></trkpt><trkpt lat="45.59127927904917" lon="10.509939823479872"><ele>160.2</ele><time>2026-05-01T09:58:41.001Z</time></trkpt><trkpt lat="45.59131393519177" lon="10.50977991974085"><ele>161.4</ele><time>2026-05-01T09:58:42.001Z</time></trkpt><trkpt lat="45.59135320921885" lon="10.509615846698829"><ele>162.6</ele><time>2026-05-01T09:58:43.001Z</time></trkpt><trkpt lat="45.59138725854799" lon="10.50945929179143"><ele>163.8</ele><time>2026-05-01T09:58:44.002Z</time></trkpt><trkpt lat="45.59141641656537" lon="10.509328187587434"><ele>165.0</ele><time>2026-05-01T09:58:45.002Z</time></trkpt><trkpt lat="45.59144368140337" lon="10.509209638554646"><ele>165.0</ele><time>2026-05-01T09:58:46.002Z</time></trkpt><trkpt lat="45.59147005703633" lon="10.509098698966081"><ele>165.0</ele><time>2026-05-01T09:58:47.002Z</time></trkpt><trkpt lat="45.591490058092816" lon="10.509003791945307"><ele>165.0</ele><time>2026-05-01T09:58:48.002Z</time></trkpt><trkpt lat="45.59151798206209" lon="10.508877818712545"><ele>165.0</ele><time>2026-05-01T09:58:50.002Z</time></trkpt><trkpt lat="45.591542491601494" lon="10.508781060085557"><ele>165.0</ele><time>2026-05-01T09:58:53.002Z</time></trkpt><trkpt lat="45.59156866882531" lon="10.508662543518046"><ele>165.0</ele><time>2026-05-01T09:59:12.002Z</time></trkpt><trkpt lat="45.591590115963825" lon="10.508549974883268"><ele>164.8</ele><time>2026-05-01T09:59:14.002Z</time></trkpt><trkpt lat="45.591628488493825" lon="10.508408903792995"><ele>164.6</ele><time>2026-05-01T09:59:16.002Z</time></trkpt><trkpt lat="45.59165633865042" lon="10.508299021295738"><ele>164.39999999999998</ele><time>2026-05-01T09:59:17.002Z</time></trkpt><trkpt lat="45.59167699230111" lon="10.508194905279405"><ele>164.2</ele><time>2026-05-01T09:59:18.002Z</time></trkpt><trkpt lat="45.591706480163666" lon="10.50807758933529"><ele>164.0</ele><time>2026-05-01T09:59:19.001Z</time></trkpt><trkpt lat="45.59173969409681" lon="10.507936577342479"><ele>163.5</ele><time>2026-05-01T09:59:20.001Z</time></trkpt><trkpt lat="45.59177932018463" lon="10.507778996638388"><ele>163.0</ele><time>2026-05-01T09:59:21.001Z</time></trkpt><trkpt lat="45.591826309779925" lon="10.50760090178433"><ele>162.5</ele><time>2026-05-01T09:59:22.001Z</time></trkpt><trkpt lat="45.59190073402665" lon="10.5074135967056"><ele>162.0</ele><time>2026-05-01T09:59:23.001Z</time></trkpt><trkpt lat="45.59198253574155" lon="10.507179299955663"><ele>162.0</ele><time>2026-05-01T09:59:24.001Z</time></trkpt><trkpt lat="45.59207420357231" lon="10.506934566576192"><ele>162.0</ele><time>2026-05-01T09:59:25.001Z</time></trkpt><trkpt lat="45.59215217117605" lon="10.506706731708576"><ele>162.0</ele><time>2026-05-01T09:59:26.001Z</time></trkpt><trkpt lat="45.592247705909074" lon="10.506501808053622"><ele>162.0</ele><time>2026-05-01T09:59:27.001Z</time></trkpt><trkpt lat="45.59233927044965" lon="10.506314117391447"><ele>162.0</ele><time>2026-05-01T09:59:28.001Z</time></trkpt><trkpt lat="45.592428059900385" lon="10.506140829445965"><ele>162.0</ele><time>2026-05-01T09:59:29.001Z</time></trkpt><trkpt lat="45.59250955339326" lon="10.50598970029252"><ele>162.0</ele><time>2026-05-01T09:59:30.001Z</time></trkpt><trkpt lat="45.592583251755286" lon="10.505860922837178"><ele>162.5</ele><time>2026-05-01T09:59:31.001Z</time></trkpt><trkpt lat="45.59265844457446" lon="10.50573037401049"><ele>163.0</ele><time>2026-05-01T09:59:32.001Z</time></trkpt><trkpt lat="45.59273163498696" lon="10.505587206238657"><ele>163.5</ele><time>2026-05-01T09:59:33.001Z</time></trkpt><trkpt lat="45.592817260406036" lon="10.50541017871738"><ele>164.0</ele><time>2026-05-01T09:59:34.001Z</time></trkpt><trkpt lat="45.59290760413847" lon="10.505232755671756"><ele>165.0</ele><time>2026-05-01T09:59:35.001Z</time></trkpt><trkpt lat="45.59301227748242" lon="10.505057710776398"><ele>166.0</ele><time>2026-05-01T09:59:36.001Z</time></trkpt><trkpt lat="45.59313465319534" lon="10.504879178801854"><ele>167.0</ele><time>2026-05-01T09:59:37.001Z</time></trkpt><trkpt lat="45.59328171742519" lon="10.504707450806356"><ele>167.33333333333331</ele><time>2026-05-01T09:59:38.001Z</time></trkpt><trkpt lat="45.59343465497762" lon="10.504562441966494"><ele>167.66666666666666</ele><time>2026-05-01T09:59:39.001Z</time></trkpt><trkpt lat="45.59360107003697" lon="10.50443018359422"><ele>168.0</ele><time>2026-05-01T09:59:40.001Z</time></trkpt><trkpt lat="45.59376907577312" lon="10.50431541156178"><ele>168.0</ele><time>2026-05-01T09:59:41.001Z</time></trkpt><trkpt lat="45.59393792780579" lon="10.504223456467011"><ele>168.0</ele><time>2026-05-01T09:59:42.001Z</time></trkpt><trkpt lat="45.59410334837825" lon="10.50415852187533"><ele>168.0</ele><time>2026-05-01T09:59:43.001Z</time></trkpt><trkpt lat="45.594284515221425" lon="10.50413218887693"><ele>168.0</ele><time>2026-05-01T09:59:44.001Z</time></trkpt><trkpt lat="45.594473535674354" lon="10.504106718171531"><ele>168.0</ele><time>2026-05-01T09:59:45.001Z</time></trkpt><trkpt lat="45.59466501169165" lon="10.50409719950931"><ele>168.0</ele><time>2026-05-01T09:59:46.001Z</time></trkpt><trkpt lat="45.59486458366978" lon="10.50409544356178"><ele>168.33333333333334</ele><time>2026-05-01T09:59:47.001Z</time></trkpt><trkpt lat="45.595081741336024" lon="10.504074474865286"><ele>168.66666666666669</ele><time>2026-05-01T09:59:48.001Z</time></trkpt><trkpt lat="45.59530334789327" lon="10.504073128863451"><ele>169.0</ele><time>2026-05-01T09:59:49.001Z</time></trkpt><trkpt lat="45.59552623608861" lon="10.504069144299983"><ele>171.0</ele><time>2026-05-01T09:59:50.001Z</time></trkpt><trkpt lat="45.59575546294259" lon="10.504088107931661"><ele>173.0</ele><time>2026-05-01T09:59:51.001Z</time></trkpt><trkpt lat="45.59598418279831" lon="10.50406546831502"><ele>172.0</ele><time>2026-05-01T09:59:52.001Z</time></trkpt><trkpt lat="45.59621875638916" lon="10.5040673522446"><ele>171.0</ele><time>2026-05-01T09:59:53.001Z</time></trkpt><trkpt lat="45.59645944307822" lon="10.504071991912854"><ele>171.0</ele><time>2026-05-01T09:59:54.001Z</time></trkpt><trkpt lat="45.59670091399717" lon="10.50408096461431"><ele>171.0</ele><time>2026-05-01T09:59:55.001Z</time></trkpt><trkpt lat="45.59694511034892" lon="10.504088196944222"><ele>171.0</ele><time>2026-05-01T09:59:56.001Z</time></trkpt><trkpt lat="45.59718145597127" lon="10.504086958178002"><ele>171.0</ele><time>2026-05-01T09:59:57.001Z</time></trkpt><trkpt lat="45.59740926711758" lon="10.504081210094368"><ele>171.0</ele><time>2026-05-01T09:59:58.001Z</time></trkpt><trkpt lat="45.59762850979851" lon="10.504072454394844"><ele>171.0</ele><time>2026-05-01T09:59:59.001Z</time></trkpt><trkpt lat="45.597845447955066" lon="10.504053762198682"><ele>171.0</ele><time>2026-05-01T10:00:00.001Z</time></trkpt><trkpt lat="45.59805959263734" lon="10.504009139040862"><ele>172.66666666666666</ele><time>2026-05-01T10:00:01.001Z</time></trkpt><trkpt lat="45.59826722699065" lon="10.503927148383585"><ele>174.33333333333331</ele><time>2026-05-01T10:00:02.001Z</time></trkpt><trkpt lat="45.59847084601241" lon="10.503820819517417"><ele>176.0</ele><time>2026-05-01T10:00:03.001Z</time></trkpt><trkpt lat="45.59866972200008" lon="10.503703343473196"><ele>176.66666666666666</ele><time>2026-05-01T10:00:04.001Z</time></trkpt><trkpt lat="45.598854807989994" lon="10.503563173755587"><ele>177.33333333333334</ele><time>2026-05-01T10:00:05.001Z</time></trkpt><trkpt lat="45.59902568239577" lon="10.503408307796397"><ele>178.0</ele><time>2026-05-01T10:00:06.001Z</time></trkpt><trkpt lat="45.59917964291459" lon="10.503244572518106"><ele>178.0</ele><time>2026-05-01T10:00:07.001Z</time></trkpt><trkpt lat="45.59931294037139" lon="10.503077103615558"><ele>178.0</ele><time>2026-05-01T10:00:08.001Z</time></trkpt><trkpt lat="45.599452626961124" lon="10.502910462558543"><ele>178.0</ele><time>2026-05-01T10:00:09.001Z</time></trkpt><trkpt lat="45.599597820161065" lon="10.502768011287985"><ele>179.33333333333334</ele><time>2026-05-01T10:00:10.001Z</time></trkpt><trkpt lat="45.59974415982992" lon="10.50267246211335"><ele>180.66666666666666</ele><time>2026-05-01T10:00:11.001Z</time></trkpt><trkpt lat="45.59992909998333" lon="10.502623156157112"><ele>182.0</ele><time>2026-05-01T10:00:12.001Z</time></trkpt><trkpt lat="45.600113482449196" lon="10.502621022451468"><ele>182.0</ele><time>2026-05-01T10:00:13.001Z</time></trkpt><trkpt lat="45.60029168768553" lon="10.502667935476708"><ele>182.0</ele><time>2026-05-01T10:00:14.001Z</time></trkpt><trkpt lat="45.60046783285167" lon="10.502738883383437"><ele>182.0</ele><time>2026-05-01T10:00:15.001Z</time></trkpt><trkpt lat="45.60064391021693" lon="10.5027995094475"><ele>181.66666666666666</ele><time>2026-05-01T10:00:16.001Z</time></trkpt><trkpt lat="45.60082740372309" lon="10.502817959240984"><ele>181.33333333333334</ele><time>2026-05-01T10:00:17.001Z</time></trkpt><trkpt lat="45.60100801984097" lon="10.502786140662531"><ele>181.0</ele><time>2026-05-01T10:00:18.001Z</time></trkpt><trkpt lat="45.601179853258564" lon="10.502702537565254"><ele>180.33333333333334</ele><time>2026-05-01T10:00:19.001Z</time></trkpt><trkpt lat="45.60136088085122" lon="10.502581190758887"><ele>179.66666666666666</ele><time>2026-05-01T10:00:20.001Z</time></trkpt><trkpt lat="45.60153110694984" lon="10.502406193821843"><ele>179.0</ele><time>2026-05-01T10:00:21.001Z</time></trkpt><trkpt lat="45.60169080096971" lon="10.50219615823413"><ele>177.66666666666666</ele><time>2026-05-01T10:00:22.001Z</time></trkpt><trkpt lat="45.601856638537704" lon="10.50199232603907"><ele>176.33333333333334</ele><time>2026-05-01T10:00:23.001Z</time></trkpt><trkpt lat="45.60203562515585" lon="10.501792672690671"><ele>175.0</ele><time>2026-05-01T10:00:24.001Z</time></trkpt><trkpt lat="45.60222558831571" lon="10.501585625292789"><ele>175.0</ele><time>2026-05-01T10:00:25.001Z</time></trkpt><trkpt lat="45.6024089321559" lon="10.501384891691053"><ele>175.0</ele><time>2026-05-01T10:00:26.001Z</time></trkpt><trkpt lat="45.60257986042581" lon="10.501196847517647"><ele>175.0</ele><time>2026-05-01T10:00:27.001Z</time></trkpt><trkpt lat="45.60275118158851" lon="10.501002549383756"><ele>176.66666666666669</ele><time>2026-05-01T10:00:28.001Z</time></trkpt><trkpt lat="45.60292858383705" lon="10.500808198061545"><ele>178.33333333333334</ele><time>2026-05-01T10:00:29.001Z</time></trkpt><trkpt lat="45.60310387950254" lon="10.500615671897528"><ele>180.0</ele><time>2026-05-01T10:00:30.001Z</time></trkpt><trkpt lat="45.60326744497654" lon="10.50043796705992"><ele>181.66666666666666</ele><time>2026-05-01T10:00:31.001Z</time></trkpt><trkpt lat="45.60341713572452" lon="10.500274930748583"><ele>183.33333333333331</ele><time>2026-05-01T10:00:32.001Z</time></trkpt><trkpt lat="45.60356443405504" lon="10.500125092422216"><ele>185.0</ele><time>2026-05-01T10:00:33.001Z</time></trkpt><trkpt lat="45.60374852214282" lon="10.500053106852256"><ele>185.0</ele><time>2026-05-01T10:00:34.001Z</time></trkpt><trkpt lat="45.603928379175294" lon="10.500031917501856"><ele>185.0</ele><time>2026-05-01T10:00:35.001Z</time></trkpt><trkpt lat="45.6041302923621" lon="10.500013202317671"><ele>185.0</ele><time>2026-05-01T10:00:36.001Z</time></trkpt><trkpt lat="45.60431480817176" lon="10.500044313888706"><ele>184.66666666666666</ele><time>2026-05-01T10:00:37.001Z</time></trkpt><trkpt lat="45.60449823157913" lon="10.500068685788003"><ele>184.33333333333334</ele><time>2026-05-01T10:00:38.001Z</time></trkpt><trkpt lat="45.60468581065633" lon="10.50007659606199"><ele>184.0</ele><time>2026-05-01T10:00:39.001Z</time></trkpt><trkpt lat="45.60486326062171" lon="10.500072999808824"><ele>184.0</ele><time>2026-05-01T10:00:40.001Z</time></trkpt><trkpt lat="45.60503269461101" lon="10.500046964773079"><ele>184.0</ele><time>2026-05-01T10:00:41.001Z</time></trkpt><trkpt lat="45.605191223167196" lon="10.49997793173002"><ele>184.0</ele><time>2026-05-01T10:00:42.001Z</time></trkpt><trkpt lat="45.605353776973594" lon="10.499856721274424"><ele>183.66666666666669</ele><time>2026-05-01T10:00:43.001Z</time></trkpt><trkpt lat="45.60547263205089" lon="10.499680980268327"><ele>183.33333333333334</ele><time>2026-05-01T10:00:44.001Z</time></trkpt><trkpt lat="45.60557908432454" lon="10.499498756715663"><ele>183.0</ele><time>2026-05-01T10:00:45.001Z</time></trkpt><trkpt lat="45.60566233843443" lon="10.49924506583057"><ele>183.0</ele><time>2026-05-01T10:00:46.001Z</time></trkpt><trkpt lat="45.605741858863084" lon="10.499009352984935"><ele>183.0</ele><time>2026-05-01T10:00:47.001Z</time></trkpt><trkpt lat="45.60579961717819" lon="10.498753364316032"><ele>183.0</ele><time>2026-05-01T10:00:48.001Z</time></trkpt><trkpt lat="45.60587707460203" lon="10.498489996993575"><ele>187.0</ele><time>2026-05-01T10:00:49.001Z</time></trkpt><trkpt lat="45.605967005719144" lon="10.498228359849188"><ele>191.0</ele><time>2026-05-01T10:00:50.001Z</time></trkpt><trkpt lat="45.60604999135392" lon="10.49796926804689"><ele>195.0</ele><time>2026-05-01T10:00:51.001Z</time></trkpt><trkpt lat="45.606136455082265" lon="10.497729192526156"><ele>193.33333333333334</ele><time>2026-05-01T10:00:52.001Z</time></trkpt><trkpt lat="45.60621575523716" lon="10.497482873785614"><ele>191.66666666666669</ele><time>2026-05-01T10:00:53.001Z</time></trkpt><trkpt lat="45.60628998022967" lon="10.497247976836034"><ele>190.0</ele><time>2026-05-01T10:00:54.001Z</time></trkpt><trkpt lat="45.60636283282842" lon="10.49701755116713"><ele>190.0</ele><time>2026-05-01T10:00:55.001Z</time></trkpt><trkpt lat="45.6064373072602" lon="10.496779747916506"><ele>190.0</ele><time>2026-05-01T10:00:56.001Z</time></trkpt><trkpt lat="45.606513303929546" lon="10.496545912882812"><ele>190.0</ele><time>2026-05-01T10:00:57.001Z</time></trkpt><trkpt lat="45.60659812138826" lon="10.496306227341496"><ele>192.66666666666669</ele><time>2026-05-01T10:00:58.001Z</time></trkpt><trkpt lat="45.606667021188" lon="10.496055458696489"><ele>195.33333333333334</ele><time>2026-05-01T10:00:59.001Z</time></trkpt><trkpt lat="45.60671507958706" lon="10.495790623632608"><ele>198.0</ele><time>2026-05-01T10:01:00.001Z</time></trkpt><trkpt lat="45.60674131295042" lon="10.495514083534333"><ele>198.33333333333331</ele><time>2026-05-01T10:01:01.001Z</time></trkpt><trkpt lat="45.60674795323492" lon="10.495208287041702"><ele>198.66666666666666</ele><time>2026-05-01T10:01:02.001Z</time></trkpt><trkpt lat="45.60674322980862" lon="10.494885911456047"><ele>199.0</ele><time>2026-05-01T10:01:03.001Z</time></trkpt><trkpt lat="45.606726467400684" lon="10.494540905412073"><ele>199.5</ele><time>2026-05-01T10:01:04.001Z</time></trkpt><trkpt lat="45.6067038524448" lon="10.49420329742529"><ele>200.0</ele><time>2026-05-01T10:01:05.001Z</time></trkpt><trkpt lat="45.60665703522249" lon="10.49386396775984"><ele>198.0</ele><time>2026-05-01T10:01:06.001Z</time></trkpt><trkpt lat="45.606596247636" lon="10.493503477332192"><ele>196.0</ele><time>2026-05-01T10:01:07.001Z</time></trkpt><trkpt lat="45.60652353449784" lon="10.49314522453801"><ele>194.0</ele><time>2026-05-01T10:01:08.001Z</time></trkpt><trkpt lat="45.60645470039533" lon="10.492813668215854"><ele>192.0</ele><time>2026-05-01T10:01:09.001Z</time></trkpt><trkpt lat="45.60638507895897" lon="10.492498732265783"><ele>192.0</ele><time>2026-05-01T10:01:10.001Z</time></trkpt><trkpt lat="45.606323598863646" lon="10.492188209399627"><ele>192.0</ele><time>2026-05-01T10:01:11.001Z</time></trkpt><trkpt lat="45.606265032111274" lon="10.491902690374204"><ele>192.0</ele><time>2026-05-01T10:01:12.001Z</time></trkpt><trkpt lat="45.60621109469621" lon="10.491638856359113"><ele>199.0</ele><time>2026-05-01T10:01:13.001Z</time></trkpt><trkpt lat="45.606157716129985" lon="10.491382885620528"><ele>206.0</ele><time>2026-05-01T10:01:14.001Z</time></trkpt><trkpt lat="45.606111519256245" lon="10.49114508653529"><ele>213.0</ele><time>2026-05-01T10:01:15.002Z</time></trkpt><trkpt lat="45.60605307074786" lon="10.490883958530024"><ele>213.0</ele><time>2026-05-01T10:01:16.002Z</time></trkpt><trkpt lat="45.606002380391466" lon="10.490651643955625"><ele>213.0</ele><time>2026-05-01T10:01:17.002Z</time></trkpt><trkpt lat="45.60593715766222" lon="10.490389995159875"><ele>213.0</ele><time>2026-05-01T10:01:18.002Z</time></trkpt><trkpt lat="45.605885142709354" lon="10.490135349409096"><ele>211.0</ele><time>2026-05-01T10:01:19.002Z</time></trkpt><trkpt lat="45.60583669394883" lon="10.489894420534714"><ele>209.0</ele><time>2026-05-01T10:01:20.002Z</time></trkpt><trkpt lat="45.6057886328148" lon="10.489661414658464"><ele>207.0</ele><time>2026-05-01T10:01:21.002Z</time></trkpt><trkpt lat="45.6057428467132" lon="10.489426945509456"><ele>206.0</ele><time>2026-05-01T10:01:22.002Z</time></trkpt><trkpt lat="45.60569937933201" lon="10.48920034967069"><ele>205.0</ele><time>2026-05-01T10:01:23.002Z</time></trkpt><trkpt lat="45.60566012278066" lon="10.48897247104291"><ele>204.0</ele><time>2026-05-01T10:01:24.002Z</time></trkpt><trkpt lat="45.605626152090316" lon="10.48874220355784"><ele>203.33333333333331</ele><time>2026-05-01T10:01:25Z</time></trkpt><trkpt lat="45.60561471533247" lon="10.488503112860204"><ele>202.66666666666666</ele><time>2026-05-01T10:01:26Z</time></trkpt><trkpt lat="45.60561871819233" lon="10.488259649887995"><ele>202.0</ele><time>2026-05-01T10:01:27Z</time></trkpt><trkpt lat="45.6056339286888" lon="10.488018886727605"><ele>201.66666666666666</ele><time>2026-05-01T10:01:28Z</time></trkpt><trkpt lat="45.60566016596229" lon="10.487781853238841"><ele>201.33333333333331</ele><time>2026-05-01T10:01:29Z</time></trkpt><trkpt lat="45.605696903261375" lon="10.487546923261839"><ele>201.0</ele><time>2026-05-01T10:01:30Z</time></trkpt><trkpt lat="45.60573891137564" lon="10.4873161259043"><ele>203.33333333333331</ele><time>2026-05-01T10:01:31Z</time></trkpt><trkpt lat="45.60577206637168" lon="10.487090720395354"><ele>205.66666666666666</ele><time>2026-05-01T10:01:32Z</time></trkpt><trkpt lat="45.6058111080971" lon="10.486865041661108"><ele>208.0</ele><time>2026-05-01T10:01:33Z</time></trkpt><trkpt lat="45.605866572130594" lon="10.486642728839293"><ele>208.0</ele><time>2026-05-01T10:01:34Z</time></trkpt><trkpt lat="45.605928838949495" lon="10.486418775039887"><ele>208.0</ele><time>2026-05-01T10:01:35Z</time></trkpt><trkpt lat="45.60595096610124" lon="10.486157688226971"><ele>208.0</ele><time>2026-05-01T10:01:36Z</time></trkpt><trkpt lat="45.606063775129016" lon="10.485937120224019"><ele>210.66666666666666</ele><time>2026-05-01T10:01:37Z</time></trkpt><trkpt lat="45.60613428461181" lon="10.485696093875985"><ele>213.33333333333331</ele><time>2026-05-01T10:01:38Z</time></trkpt><trkpt lat="45.60620909437818" lon="10.485437779365618"><ele>216.0</ele><time>2026-05-01T10:01:39Z</time></trkpt><trkpt lat="45.60628349534983" lon="10.485178157035039"><ele>212.66666666666669</ele><time>2026-05-01T10:01:40Z</time></trkpt><trkpt lat="45.60634412774896" lon="10.484931639468668"><ele>209.33333333333334</ele><time>2026-05-01T10:01:41Z</time></trkpt><trkpt lat="45.606389056424895" lon="10.484702011126904"><ele>206.0</ele><time>2026-05-01T10:01:42Z</time></trkpt><trkpt lat="45.606431260997" lon="10.48448526570102"><ele>206.0</ele><time>2026-05-01T10:01:43Z</time></trkpt><trkpt lat="45.606475660162886" lon="10.484266938294352"><ele>206.0</ele><time>2026-05-01T10:01:44Z</time></trkpt><trkpt lat="45.60652686541414" lon="10.484050277130839"><ele>206.0</ele><time>2026-05-01T10:01:45Z</time></trkpt><trkpt lat="45.606584018617276" lon="10.483863376481851"><ele>207.5</ele><time>2026-05-01T10:01:46Z</time></trkpt><trkpt lat="45.60666087495543" lon="10.483701763487469"><ele>209.0</ele><time>2026-05-01T10:01:47Z</time></trkpt><trkpt lat="45.606771533013195" lon="10.483553970352638"><ele>210.5</ele><time>2026-05-01T10:01:48Z</time></trkpt><trkpt lat="45.606897436301615" lon="10.483428020312136"><ele>212.0</ele><time>2026-05-01T10:01:49Z</time></trkpt><trkpt lat="45.60702674099564" lon="10.483299743768798"><ele>212.0</ele><time>2026-05-01T10:01:50Z</time></trkpt><trkpt lat="45.60716353576686" lon="10.483179247067495"><ele>212.0</ele><time>2026-05-01T10:01:51Z</time></trkpt><trkpt lat="45.60730761117537" lon="10.483067342725333"><ele>212.0</ele><time>2026-05-01T10:01:52Z</time></trkpt><trkpt lat="45.60745059902313" lon="10.482944676795436"><ele>212.0</ele><time>2026-05-01T10:01:53Z</time></trkpt><trkpt lat="45.60760043045087" lon="10.482808948263509"><ele>212.0</ele><time>2026-05-01T10:01:54Z</time></trkpt><trkpt lat="45.607768033649286" lon="10.482655348033726"><ele>212.0</ele><time>2026-05-01T10:01:55Z</time></trkpt><trkpt lat="45.607947347441836" lon="10.48249640290312"><ele>212.0</ele><time>2026-05-01T10:01:56Z</time></trkpt><trkpt lat="45.608136113421544" lon="10.482329642591607"><ele>212.0</ele><time>2026-05-01T10:01:57Z</time></trkpt><trkpt lat="45.608298337618876" lon="10.48219253094121"><ele>212.0</ele><time>2026-05-01T10:01:58Z</time></trkpt><trkpt lat="45.60845368483441" lon="10.482054946435687"><ele>215.66666666666669</ele><time>2026-05-01T10:01:59Z</time></trkpt><trkpt lat="45.608591424036675" lon="10.481938805905054"><ele>219.33333333333331</ele><time>2026-05-01T10:02:00Z</time></trkpt><trkpt lat="45.608748058659536" lon="10.481891401375524"><ele>223.0</ele><time>2026-05-01T10:02:01Z</time></trkpt><trkpt lat="45.6089027986486" lon="10.48185691820853"><ele>223.66666666666666</ele><time>2026-05-01T10:02:02Z</time></trkpt><trkpt lat="45.60906476434589" lon="10.481886634871202"><ele>224.33333333333331</ele><time>2026-05-01T10:02:03Z</time></trkpt><trkpt lat="45.609217659075675" lon="10.481948381150652"><ele>225.0</ele><time>2026-05-01T10:02:04Z</time></trkpt><trkpt lat="45.60934755387123" lon="10.482044402909501"><ele>223.0</ele><time>2026-05-01T10:02:05Z</time></trkpt><trkpt lat="45.609469782232715" lon="10.482183100562645"><ele>221.0</ele><time>2026-05-01T10:02:06.001Z</time></trkpt><trkpt lat="45.60959665105258" lon="10.482305316911189"><ele>219.0</ele><time>2026-05-01T10:02:07.001Z</time></trkpt><trkpt lat="45.609719126028004" lon="10.482393417978736"><ele>217.0</ele><time>2026-05-01T10:02:08.001Z</time></trkpt><trkpt lat="45.60984999582101" lon="10.482446363001259"><ele>217.0</ele><time>2026-05-01T10:02:09.001Z</time></trkpt><trkpt lat="45.60997715975291" lon="10.482465823322137"><ele>217.0</ele><time>2026-05-01T10:02:10.001Z</time></trkpt><trkpt lat="45.61009259790697" lon="10.482460635478231"><ele>217.0</ele><time>2026-05-01T10:02:11.001Z</time></trkpt><trkpt lat="45.61019892600193" lon="10.482446247932076"><ele>217.0</ele><time>2026-05-01T10:02:12.001Z</time></trkpt><trkpt lat="45.61029323343852" lon="10.482422849179043"><ele>217.0</ele><time>2026-05-01T10:02:13.001Z</time></trkpt><trkpt lat="45.6103732488234" lon="10.482406511896942"><ele>217.66666666666666</ele><time>2026-05-01T10:02:14.001Z</time></trkpt><trkpt lat="45.61044515904904" lon="10.482400523673116"><ele>218.33333333333331</ele><time>2026-05-01T10:02:15.001Z</time></trkpt><trkpt lat="45.61051142491619" lon="10.482389354564253"><ele>219.0</ele><time>2026-05-01T10:02:16.001Z</time></trkpt><trkpt lat="45.61057554852291" lon="10.482375286180305"><ele>219.66666666666669</ele><time>2026-05-01T10:02:17.001Z</time></trkpt><trkpt lat="45.61068361258637" lon="10.482341806438704"><ele>220.33333333333334</ele><time>2026-05-01T10:02:19.001Z</time></trkpt><trkpt lat="45.61077956472118" lon="10.48231079001243"><ele>221.0</ele><time>2026-05-01T10:02:21.001Z</time></trkpt><trkpt lat="45.61088545778364" lon="10.482241090656824"><ele>221.00000000000003</ele><time>2026-05-01T10:02:23.001Z</time></trkpt><trkpt lat="45.610947418569616" lon="10.482180624237083"><ele>221.0</ele><time>2026-05-01T10:02:24.001Z</time></trkpt><trkpt lat="45.611011260257996" lon="10.482113422472239"><ele>221.0</ele><time>2026-05-01T10:02:25.001Z</time></trkpt><trkpt lat="45.61107644819895" lon="10.482028087049391"><ele>221.0</ele><time>2026-05-01T10:02:26.001Z</time></trkpt><trkpt lat="45.611132434844535" lon="10.481942152778096"><ele>221.00000000000003</ele><time>2026-05-01T10:02:27.001Z</time></trkpt><trkpt lat="45.61119091622765" lon="10.481876504703932"><ele>221.0</ele><time>2026-05-01T10:02:28.001Z</time></trkpt><trkpt lat="45.61124046605811" lon="10.481813088804758"><ele>221.83333333333334</ele><time>2026-05-01T10:02:29.001Z</time></trkpt><trkpt lat="45.61128992190677" lon="10.481740676431613"><ele>222.66666666666669</ele><time>2026-05-01T10:02:30.001Z</time></trkpt><trkpt lat="45.61135892374191" lon="10.481631379558008"><ele>223.5</ele><time>2026-05-01T10:02:32.001Z</time></trkpt><trkpt lat="45.61142740200696" lon="10.48165972567324"><ele>224.33333333333331</ele><time>2026-05-01T10:02:36.001Z</time></trkpt><trkpt lat="45.61151332418215" lon="10.48164392908009"><ele>225.16666666666666</ele><time>2026-05-01T10:02:42.001Z</time></trkpt><trkpt lat="45.61157691504766" lon="10.481516903474583"><ele>226.0</ele><time>2026-05-01T10:02:44.001Z</time></trkpt><trkpt lat="45.61161292154214" lon="10.481376946760516"><ele>225.99999999999997</ele><time>2026-05-01T10:02:46.001Z</time></trkpt><trkpt lat="45.611657760097934" lon="10.481257883550276"><ele>226.0</ele><time>2026-05-01T10:02:48.001Z</time></trkpt><trkpt lat="45.611699530639626" lon="10.481168101122023"><ele>226.0</ele><time>2026-05-01T10:02:50.001Z</time></trkpt><trkpt lat="45.61174251612539" lon="10.48108131985699"><ele>226.0</ele><time>2026-05-01T10:02:53.001Z</time></trkpt><trkpt lat="45.611811839138376" lon="10.48107465754751"><ele>225.99999999999997</ele><time>2026-05-01T10:04:45.001Z</time></trkpt><trkpt lat="45.611847373699675" lon="10.4811656568297"><ele>226.0</ele><time>2026-05-01T10:05:07.001Z</time></trkpt><trkpt lat="45.61199556552051" lon="10.481293390740118"><ele>225.25</ele><time>2026-05-01T10:05:22.001Z</time></trkpt><trkpt lat="45.6119440781473" lon="10.481200160589271"><ele>224.5</ele><time>2026-05-01T10:05:27.001Z</time></trkpt><trkpt lat="45.61177436852139" lon="10.481111281717123"><ele>223.75</ele><time>2026-05-01T10:05:28.001Z</time></trkpt><trkpt lat="45.61161483278048" lon="10.48103915278214"><ele>223.0</ele><time>2026-05-01T10:05:40.001Z</time></trkpt><trkpt lat="45.61171670613196" lon="10.481069572407135"><ele>223.0</ele><time>2026-05-01T10:05:45.001Z</time></trkpt><trkpt lat="45.61155706648332" lon="10.48107035459064"><ele>223.0</ele><time>2026-05-01T10:06:22.001Z</time></trkpt><trkpt lat="45.611634925177896" lon="10.480907497616547"><ele>223.0</ele><time>2026-05-01T10:06:39.001Z</time></trkpt><trkpt lat="45.61131100348082" lon="10.48056918785877"><ele>223.0</ele><time>2026-05-01T10:06:40.001Z</time></trkpt><trkpt lat="45.611421827076796" lon="10.480610885903516"><ele>223.0</ele><time>2026-05-01T10:06:47.001Z</time></trkpt><trkpt lat="45.611647643730166" lon="10.480953525250609"><ele>223.0</ele><time>2026-05-01T10:06:49.001Z</time></trkpt><trkpt lat="45.61174291640442" lon="10.481040516504677"><ele>223.0</ele><time>2026-05-01T10:08:01.001Z</time></trkpt><trkpt lat="45.611819581933105" lon="10.480950735276142"><ele>223.0</ele><time>2026-05-01T10:08:15.001Z</time></trkpt><trkpt lat="45.611834216109415" lon="10.481046062831586"><ele>223.0</ele><time>2026-05-01T10:09:01.001Z</time></trkpt><trkpt lat="45.61190124217375" lon="10.481127531824756"><ele>223.0</ele><time>2026-05-01T10:09:02.001Z</time></trkpt><trkpt lat="45.61177019071714" lon="10.481142961101455"><ele>223.0</ele><time>2026-05-01T10:09:06.001Z</time></trkpt><trkpt lat="45.61168142338045" lon="10.481092991998961"><ele>223.0</ele><time>2026-05-01T10:09:25.001Z</time></trkpt><trkpt lat="45.611863231003525" lon="10.481104979932397"><ele>223.0</ele><time>2026-05-01T10:09:40.001Z</time></trkpt><trkpt lat="45.61192424798926" lon="10.481148374288285"><ele>223.0</ele><time>2026-05-01T10:09:41.001Z</time></trkpt><trkpt lat="45.61171722889453" lon="10.480922011533517"><ele>222.99999999999997</ele><time>2026-05-01T10:10:00.001Z</time></trkpt><trkpt lat="45.61165478635534" lon="10.480874783018503"><ele>223.0</ele><time>2026-05-01T10:10:04.001Z</time></trkpt><trkpt lat="45.6116524955647" lon="10.480981481036839"><ele>223.0</ele><time>2026-05-01T10:10:13Z</time></trkpt><trkpt lat="45.611718111796314" lon="10.481096375564825"><ele>223.0</ele><time>2026-05-01T10:10:52.011Z</time></trkpt><trkpt lat="45.611627305560226" lon="10.48122138915545"><ele>222.99999999999997</ele><time>2026-05-01T10:10:55Z</time></trkpt><trkpt lat="45.61168307999566" lon="10.481165738219929"><ele>223.0</ele><time>2026-05-01T10:11:00Z</time></trkpt><trkpt lat="45.61174309131359" lon="10.481088623883505"><ele>222.99999999999997</ele><time>2026-05-01T10:12:02.001Z</time></trkpt><trkpt lat="45.61174263485731" lon="10.481181175263247"><ele>223.0</ele><time>2026-05-01T10:16:49Z</time></trkpt><trkpt lat="45.611672250880304" lon="10.481201950618992"><ele>223.0</ele><time>2026-05-01T10:16:53Z</time></trkpt><trkpt lat="45.61160109353715" lon="10.481284049973661"><ele>223.0</ele><time>2026-05-01T10:16:57Z</time></trkpt><trkpt lat="45.61157154723026" lon="10.481373105843673"><ele>222.99999999999997</ele><time>2026-05-01T10:16:58Z</time></trkpt><trkpt lat="45.61154386210067" lon="10.481507651226114"><ele>223.0</ele><time>2026-05-01T10:17:00Z</time></trkpt><trkpt lat="45.611518148453186" lon="10.48162085487485"><ele>223.49999999999997</ele><time>2026-05-01T10:17:02Z</time></trkpt><trkpt lat="45.611488838711225" lon="10.481738255452388"><ele>224.0</ele><time>2026-05-01T10:17:04Z</time></trkpt><trkpt lat="45.61146967068406" lon="10.481851320828248"><ele>224.5</ele><time>2026-05-01T10:17:06Z</time></trkpt><trkpt lat="45.61142082930467" lon="10.481914535743046"><ele>225.0</ele><time>2026-05-01T10:17:08Z</time></trkpt><trkpt lat="45.61139218816008" lon="10.482014517816564"><ele>225.49999999999997</ele><time>2026-05-01T10:17:14Z</time></trkpt><trkpt lat="45.61134273741013" lon="10.482187142782642"><ele>226.0</ele><time>2026-05-01T10:17:16Z</time></trkpt><trkpt lat="45.611322326557314" lon="10.482320918079736"><ele>226.16666666666666</ele><time>2026-05-01T10:17:17Z</time></trkpt><trkpt lat="45.611283313959355" lon="10.482426053232542"><ele>226.33333333333331</ele><time>2026-05-01T10:17:18Z</time></trkpt><trkpt lat="45.61126216194691" lon="10.482530243240516"><ele>226.5</ele><time>2026-05-01T10:17:19Z</time></trkpt><trkpt lat="45.61123393421248" lon="10.482626779844491"><ele>226.66666666666669</ele><time>2026-05-01T10:17:20Z</time></trkpt><trkpt lat="45.61121065301157" lon="10.482715873348111"><ele>226.83333333333334</ele><time>2026-05-01T10:17:21Z</time></trkpt><trkpt lat="45.611179111988776" lon="10.482811434843534"><ele>227.0</ele><time>2026-05-01T10:17:22Z</time></trkpt><trkpt lat="45.61116663176573" lon="10.482923390644197"><ele>226.16666666666669</ele><time>2026-05-01T10:17:23Z</time></trkpt><trkpt lat="45.61115884697044" lon="10.483041977368659"><ele>225.33333333333334</ele><time>2026-05-01T10:17:24Z</time></trkpt><trkpt lat="45.6111600452146" lon="10.483170173872983"><ele>224.5</ele><time>2026-05-01T10:17:25Z</time></trkpt><trkpt lat="45.61116069570825" lon="10.483279096070442"><ele>223.66666666666669</ele><time>2026-05-01T10:17:26Z</time></trkpt><trkpt lat="45.61116935480781" lon="10.483387773667044"><ele>222.83333333333334</ele><time>2026-05-01T10:17:27Z</time></trkpt><trkpt lat="45.61116974530373" lon="10.483504007110536"><ele>222.0</ele><time>2026-05-01T10:17:28Z</time></trkpt><trkpt lat="45.611192006816424" lon="10.483629821624122"><ele>222.0</ele><time>2026-05-01T10:17:29Z</time></trkpt><trkpt lat="45.61123491251351" lon="10.48374191842036"><ele>222.0</ele><time>2026-05-01T10:17:30Z</time></trkpt><trkpt lat="45.61126412627055" lon="10.483849747444362"><ele>222.0</ele><time>2026-05-01T10:17:31Z</time></trkpt><trkpt lat="45.611293209604376" lon="10.483935769259805"><ele>222.0</ele><time>2026-05-01T10:17:32Z</time></trkpt><trkpt lat="45.61132383592258" lon="10.484016590034374"><ele>222.0</ele><time>2026-05-01T10:17:33Z</time></trkpt><trkpt lat="45.61136114774737" lon="10.484133882575223"><ele>222.0</ele><time>2026-05-01T10:17:35Z</time></trkpt><trkpt lat="45.61141026308752" lon="10.484223958448096"><ele>219.8</ele><time>2026-05-01T10:17:38Z</time></trkpt><trkpt lat="45.61145754550437" lon="10.48429350249612"><ele>217.6</ele><time>2026-05-01T10:17:51Z</time></trkpt><trkpt lat="45.61154999746596" lon="10.484419324045621"><ele>215.4</ele><time>2026-05-01T10:17:53Z</time></trkpt><trkpt lat="45.61159806464549" lon="10.484536566559845"><ele>213.20000000000002</ele><time>2026-05-01T10:17:54Z</time></trkpt><trkpt lat="45.61167257444224" lon="10.484659954310688"><ele>211.0</ele><time>2026-05-01T10:17:55Z</time></trkpt><trkpt lat="45.61175160431816" lon="10.484795545359722"><ele>208.8</ele><time>2026-05-01T10:17:56Z</time></trkpt><trkpt lat="45.611830087633784" lon="10.48492506458383"><ele>206.60000000000002</ele><time>2026-05-01T10:17:57Z</time></trkpt><trkpt lat="45.611874590676315" lon="10.485054421901424"><ele>204.4</ele><time>2026-05-01T10:17:58Z</time></trkpt><trkpt lat="45.61193045028966" lon="10.485168782229342"><ele>202.2</ele><time>2026-05-01T10:17:59Z</time></trkpt><trkpt lat="45.61195539973145" lon="10.485292536302458"><ele>200.0</ele><time>2026-05-01T10:18:00Z</time></trkpt><trkpt lat="45.61196395462799" lon="10.485422694859832"><ele>199.00000000000003</ele><time>2026-05-01T10:18:01Z</time></trkpt><trkpt lat="45.61196747419854" lon="10.485552108790808"><ele>198.0</ele><time>2026-05-01T10:18:02Z</time></trkpt><trkpt lat="45.611972659308805" lon="10.485676089130708"><ele>197.0</ele><time>2026-05-01T10:18:03Z</time></trkpt><trkpt lat="45.611976240651174" lon="10.48578325227459"><ele>196.0</ele><time>2026-05-01T10:18:04Z</time></trkpt><trkpt lat="45.611982998699965" lon="10.485874032219028"><ele>195.00000000000003</ele><time>2026-05-01T10:18:05Z</time></trkpt><trkpt lat="45.611956124511586" lon="10.48602823356239"><ele>194.0</ele><time>2026-05-01T10:18:07Z</time></trkpt><trkpt lat="45.61197554872015" lon="10.486127911327733"><ele>196.2</ele><time>2026-05-01T10:18:08Z</time></trkpt><trkpt lat="45.61201126331855" lon="10.486264042814426"><ele>198.39999999999998</ele><time>2026-05-01T10:18:09Z</time></trkpt><trkpt lat="45.612042852649914" lon="10.486426697322184"><ele>200.6</ele><time>2026-05-01T10:18:10Z</time></trkpt><trkpt lat="45.61206802196177" lon="10.486578349680377"><ele>202.8</ele><time>2026-05-01T10:18:11Z</time></trkpt><trkpt lat="45.612082921353924" lon="10.48671164967967"><ele>205.0</ele><time>2026-05-01T10:18:12Z</time></trkpt><trkpt lat="45.612100732744445" lon="10.486845367034453"><ele>205.0</ele><time>2026-05-01T10:18:13Z</time></trkpt><trkpt lat="45.612113848232276" lon="10.486969868160203"><ele>205.0</ele><time>2026-05-01T10:18:14Z</time></trkpt><trkpt lat="45.61212409838673" lon="10.487104369862408"><ele>205.0</ele><time>2026-05-01T10:18:15Z</time></trkpt><trkpt lat="45.61214004900309" lon="10.48725825113907"><ele>205.0</ele><time>2026-05-01T10:18:16Z</time></trkpt><trkpt lat="45.61214732398477" lon="10.487406738455057"><ele>205.0</ele><time>2026-05-01T10:18:17Z</time></trkpt><trkpt lat="45.61215993856206" lon="10.487553923313143"><ele>204.49999999999997</ele><time>2026-05-01T10:18:18Z</time></trkpt><trkpt lat="45.612178530301044" lon="10.487689271517562"><ele>204.0</ele><time>2026-05-01T10:18:19Z</time></trkpt><trkpt lat="45.61219605455994" lon="10.487822113278183"><ele>203.5</ele><time>2026-05-01T10:18:20Z</time></trkpt><trkpt lat="45.612205736239424" lon="10.487939392235234"><ele>203.0</ele><time>2026-05-01T10:18:21Z</time></trkpt><trkpt lat="45.61221574557869" lon="10.488042217591163"><ele>202.49999999999997</ele><time>2026-05-01T10:18:22Z</time></trkpt><trkpt lat="45.612232401524125" lon="10.488171678478345"><ele>202.0</ele><time>2026-05-01T10:18:24Z</time></trkpt><trkpt lat="45.612247418227355" lon="10.488270001415922"><ele>201.83333333333331</ele><time>2026-05-01T10:18:26Z</time></trkpt><trkpt lat="45.61225550432726" lon="10.48838508692142"><ele>201.66666666666666</ele><time>2026-05-01T10:18:29Z</time></trkpt><trkpt lat="45.61228967585655" lon="10.488491831943318"><ele>201.5</ele><time>2026-05-01T10:18:32Z</time></trkpt><trkpt lat="45.61230075679457" lon="10.488587595825853"><ele>201.33333333333331</ele><time>2026-05-01T10:18:34Z</time></trkpt><trkpt lat="45.612348037898684" lon="10.488742698963213"><ele>201.16666666666666</ele><time>2026-05-01T10:18:35.999Z</time></trkpt><trkpt lat="45.61235789964322" lon="10.48883278858182"><ele>201.0</ele><time>2026-05-01T10:18:36.999Z</time></trkpt><trkpt lat="45.61236558138881" lon="10.488925899912424"><ele>200.66666666666666</ele><time>2026-05-01T10:18:37.999Z</time></trkpt><trkpt lat="45.61237616587968" lon="10.489032080776848"><ele>200.33333333333331</ele><time>2026-05-01T10:18:38.999Z</time></trkpt><trkpt lat="45.61237322260617" lon="10.48912795065509"><ele>200.0</ele><time>2026-05-01T10:18:39.999Z</time></trkpt><trkpt lat="45.61236241131458" lon="10.489269976823499"><ele>199.66666666666666</ele><time>2026-05-01T10:18:41.999Z</time></trkpt><trkpt lat="45.61236034180614" lon="10.489366467035293"><ele>199.33333333333331</ele><time>2026-05-01T10:18:43.999Z</time></trkpt><trkpt lat="45.612348361473664" lon="10.489456192471492"><ele>199.0</ele><time>2026-05-01T10:18:46.999Z</time></trkpt><trkpt lat="45.61232848560694" lon="10.48956649097142"><ele>198.83333333333331</ele><time>2026-05-01T10:18:49.999Z</time></trkpt><trkpt lat="45.612312812351384" lon="10.489672036861563"><ele>198.66666666666666</ele><time>2026-05-01T10:18:53.999Z</time></trkpt><trkpt lat="45.61229662522164" lon="10.48977525366624"><ele>198.5</ele><time>2026-05-01T10:18:58.999Z</time></trkpt><trkpt lat="45.61227051900842" lon="10.48988604802318"><ele>198.33333333333331</ele><time>2026-05-01T10:19:01.999Z</time></trkpt><trkpt lat="45.612247678973475" lon="10.489976037078195"><ele>198.16666666666666</ele><time>2026-05-01T10:19:03.999Z</time></trkpt><trkpt lat="45.612220873818046" lon="10.49007262861628"><ele>198.0</ele><time>2026-05-01T10:19:05.999Z</time></trkpt><trkpt lat="45.612189046497214" lon="10.490177873747152"><ele>198.0</ele><time>2026-05-01T10:19:07.999Z</time></trkpt><trkpt lat="45.61214091232701" lon="10.490300021743082"><ele>198.0</ele><time>2026-05-01T10:19:09.999Z</time></trkpt><trkpt lat="45.61208176050693" lon="10.49043353720636"><ele>198.0</ele><time>2026-05-01T10:19:11.999Z</time></trkpt><trkpt lat="45.612028630342074" lon="10.490574974530679"><ele>198.0</ele><time>2026-05-01T10:19:14Z</time></trkpt><trkpt lat="45.61196271927051" lon="10.490718814389108"><ele>198.0</ele><time>2026-05-01T10:19:16Z</time></trkpt><trkpt lat="45.61189648757612" lon="10.490863911346793"><ele>194.0</ele><time>2026-05-01T10:19:18Z</time></trkpt><trkpt lat="45.61185654838093" lon="10.490983989901162"><ele>190.0</ele><time>2026-05-01T10:19:20Z</time></trkpt><trkpt lat="45.6118153045422" lon="10.491062343674152"><ele>186.0</ele><time>2026-05-01T10:19:22Z</time></trkpt><trkpt lat="45.61175644193791" lon="10.49116190842108"><ele>182.0</ele><time>2026-05-01T10:19:25Z</time></trkpt><trkpt lat="45.61181621343897" lon="10.49128318020449"><ele>178.0</ele><time>2026-05-01T10:19:26Z</time></trkpt><trkpt lat="45.61181983453778" lon="10.491422305370445"><ele>178.0</ele><time>2026-05-01T10:19:27Z</time></trkpt><trkpt lat="45.61180502638338" lon="10.491599937011044"><ele>178.0</ele><time>2026-05-01T10:19:28Z</time></trkpt><trkpt lat="45.61179751533816" lon="10.491761928587653"><ele>178.0</ele><time>2026-05-01T10:19:29Z</time></trkpt><trkpt lat="45.61177993540077" lon="10.491927641224683"><ele>178.0</ele><time>2026-05-01T10:19:30Z</time></trkpt><trkpt lat="45.61175499480577" lon="10.492090416300659"><ele>178.0</ele><time>2026-05-01T10:19:31Z</time></trkpt><trkpt lat="45.61172933167983" lon="10.492243019382027"><ele>178.0</ele><time>2026-05-01T10:19:32Z</time></trkpt><trkpt lat="45.611703557638805" lon="10.492391522595485"><ele>178.0</ele><time>2026-05-01T10:19:33Z</time></trkpt><trkpt lat="45.611674353446155" lon="10.492548301645837"><ele>178.0</ele><time>2026-05-01T10:19:34Z</time></trkpt><trkpt lat="45.61164591725691" lon="10.492690522372522"><ele>178.0</ele><time>2026-05-01T10:19:35Z</time></trkpt><trkpt lat="45.61161681435066" lon="10.49282160164435"><ele>177.66666666666669</ele><time>2026-05-01T10:19:36Z</time></trkpt><trkpt lat="45.611591967930195" lon="10.492942398311603"><ele>177.33333333333334</ele><time>2026-05-01T10:19:37Z</time></trkpt><trkpt lat="45.61156249597339" lon="10.49305936195074"><ele>177.0</ele><time>2026-05-01T10:19:38Z</time></trkpt><trkpt lat="45.61153292266555" lon="10.493175604775704"><ele>176.66666666666666</ele><time>2026-05-01T10:19:39Z</time></trkpt><trkpt lat="45.61150623636544" lon="10.493289807803054"><ele>176.33333333333331</ele><time>2026-05-01T10:19:40Z</time></trkpt><trkpt lat="45.61147888142271" lon="10.493404761160946"><ele>176.0</ele><time>2026-05-01T10:19:41Z</time></trkpt><trkpt lat="45.611445195012365" lon="10.493536442649264"><ele>176.0</ele><time>2026-05-01T10:19:42Z</time></trkpt><trkpt lat="45.611411421134655" lon="10.493675528873355"><ele>176.0</ele><time>2026-05-01T10:19:43Z</time></trkpt><trkpt lat="45.61138485643852" lon="10.493799506011202"><ele>176.0</ele><time>2026-05-01T10:19:44Z</time></trkpt><trkpt lat="45.611356603540855" lon="10.493928201230911"><ele>176.0</ele><time>2026-05-01T10:19:45Z</time></trkpt><trkpt lat="45.61133771609326" lon="10.494036937472156"><ele>176.0</ele><time>2026-05-01T10:19:46Z</time></trkpt><trkpt lat="45.61131583011546" lon="10.494153422900999"><ele>175.83333333333331</ele><time>2026-05-01T10:19:47Z</time></trkpt><trkpt lat="45.61129742394119" lon="10.494260371909046"><ele>175.66666666666666</ele><time>2026-05-01T10:19:48Z</time></trkpt><trkpt lat="45.61128339256119" lon="10.49435844902667"><ele>175.5</ele><time>2026-05-01T10:19:49Z</time></trkpt><trkpt lat="45.61126422819885" lon="10.494460603703754"><ele>175.33333333333334</ele><time>2026-05-01T10:19:50Z</time></trkpt><trkpt lat="45.611233022330865" lon="10.494616270467592"><ele>175.16666666666669</ele><time>2026-05-01T10:19:52Z</time></trkpt><trkpt lat="45.611208472222586" lon="10.494751008978653"><ele>175.0</ele><time>2026-05-01T10:19:54Z</time></trkpt><trkpt lat="45.61118538050791" lon="10.494888432165094"><ele>174.6</ele><time>2026-05-01T10:19:56Z</time></trkpt><trkpt lat="45.61116672228152" lon="10.495023094324207"><ele>174.2</ele><time>2026-05-01T10:19:58Z</time></trkpt><trkpt lat="45.61114741143864" lon="10.495167932214269"><ele>173.8</ele><time>2026-05-01T10:20:00Z</time></trkpt><trkpt lat="45.611136954937905" lon="10.49528118053339"><ele>173.4</ele><time>2026-05-01T10:20:01Z</time></trkpt><trkpt lat="45.61111498076038" lon="10.495414772310024"><ele>173.0</ele><time>2026-05-01T10:20:02Z</time></trkpt><trkpt lat="45.611095926704245" lon="10.49553894319521"><ele>172.16666666666666</ele><time>2026-05-01T10:20:03Z</time></trkpt><trkpt lat="45.611078520948126" lon="10.495656091088753"><ele>171.33333333333331</ele><time>2026-05-01T10:20:04Z</time></trkpt><trkpt lat="45.61106222305148" lon="10.495773570603662"><ele>170.5</ele><time>2026-05-01T10:20:05Z</time></trkpt><trkpt lat="45.61104409035167" lon="10.495875677166165"><ele>169.66666666666666</ele><time>2026-05-01T10:20:06Z</time></trkpt><trkpt lat="45.61102369685589" lon="10.49598678363844"><ele>168.83333333333334</ele><time>2026-05-01T10:20:07Z</time></trkpt><trkpt lat="45.61100423961024" lon="10.496086637202417"><ele>168.0</ele><time>2026-05-01T10:20:08Z</time></trkpt><trkpt lat="45.6109844575109" lon="10.49622694110738"><ele>167.60000000000002</ele><time>2026-05-01T10:20:09Z</time></trkpt><trkpt lat="45.61095712164742" lon="10.496381515429638"><ele>167.20000000000002</ele><time>2026-05-01T10:20:10Z</time></trkpt><trkpt lat="45.610921232404955" lon="10.496514282983728"><ele>166.8</ele><time>2026-05-01T10:20:11Z</time></trkpt><trkpt lat="45.610879727803386" lon="10.496621228352076"><ele>166.4</ele><time>2026-05-01T10:20:12Z</time></trkpt><trkpt lat="45.61083619278844" lon="10.496739864239416"><ele>166.0</ele><time>2026-05-01T10:20:13Z</time></trkpt><trkpt lat="45.610789162099955" lon="10.496871196382822"><ele>166.0</ele><time>2026-05-01T10:20:14Z</time></trkpt><trkpt lat="45.61074173222652" lon="10.496991630524658"><ele>166.0</ele><time>2026-05-01T10:20:15Z</time></trkpt><trkpt lat="45.61069093642293" lon="10.49712172142521"><ele>166.0</ele><time>2026-05-01T10:20:16Z</time></trkpt><trkpt lat="45.61063350203869" lon="10.4972516895884"><ele>166.0</ele><time>2026-05-01T10:20:17Z</time></trkpt><trkpt lat="45.61058309651111" lon="10.49736649054303"><ele>166.0</ele><time>2026-05-01T10:20:18Z</time></trkpt><trkpt lat="45.61053373082926" lon="10.497481188548251"><ele>165.4</ele><time>2026-05-01T10:20:19Z</time></trkpt><trkpt lat="45.610484448076875" lon="10.4975914607783"><ele>164.8</ele><time>2026-05-01T10:20:20Z</time></trkpt><trkpt lat="45.61044382007263" lon="10.497688970598977"><ele>164.20000000000002</ele><time>2026-05-01T10:20:21Z</time></trkpt><trkpt lat="45.610465980813515" lon="10.49786534157542"><ele>163.60000000000002</ele><time>2026-05-01T10:20:23Z</time></trkpt><trkpt lat="45.61053089047129" lon="10.497953206155785"><ele>163.0</ele><time>2026-05-01T10:20:24Z</time></trkpt><trkpt lat="45.61062479521443" lon="10.49804221046971"><ele>162.4</ele><time>2026-05-01T10:20:25Z</time></trkpt><trkpt lat="45.61071639415417" lon="10.49812972966272"><ele>161.8</ele><time>2026-05-01T10:20:26Z</time></trkpt><trkpt lat="45.61080600728642" lon="10.498220438948488"><ele>161.2</ele><time>2026-05-01T10:20:27Z</time></trkpt><trkpt lat="45.610901982739556" lon="10.498313607588466"><ele>160.6</ele><time>2026-05-01T10:20:28Z</time></trkpt><trkpt lat="45.61099332384024" lon="10.498406309341386"><ele>160.0</ele><time>2026-05-01T10:20:29Z</time></trkpt><trkpt lat="45.61108043241698" lon="10.49849440610705"><ele>160.0</ele><time>2026-05-01T10:20:30Z</time></trkpt><trkpt lat="45.61116816142383" lon="10.498583396812636"><ele>160.0</ele><time>2026-05-01T10:20:31Z</time></trkpt><trkpt lat="45.61124981462144" lon="10.498670718579879"><ele>160.0</ele><time>2026-05-01T10:20:32Z</time></trkpt><trkpt lat="45.61132850655963" lon="10.498754098958912"><ele>160.0</ele><time>2026-05-01T10:20:33Z</time></trkpt><trkpt lat="45.61138750233931" lon="10.498841140344089"><ele>160.0</ele><time>2026-05-01T10:20:34Z</time></trkpt><trkpt lat="45.61142201940708" lon="10.498941547052134"><ele>160.0</ele><time>2026-05-01T10:20:35Z</time></trkpt><trkpt lat="45.611430847326034" lon="10.49907600990887"><ele>160.0</ele><time>2026-05-01T10:20:36Z</time></trkpt><trkpt lat="45.61141532309118" lon="10.499230510543638"><ele>160.0</ele><time>2026-05-01T10:20:37Z</time></trkpt><trkpt lat="45.61138241057387" lon="10.499378727629688"><ele>160.0</ele><time>2026-05-01T10:20:38Z</time></trkpt><trkpt lat="45.6113497847226" lon="10.49951253689622"><ele>160.0</ele><time>2026-05-01T10:20:39Z</time></trkpt><trkpt lat="45.61131241596594" lon="10.499619827148509"><ele>159.0</ele><time>2026-05-01T10:20:40Z</time></trkpt><trkpt lat="45.611263977661906" lon="10.499719139421039"><ele>158.0</ele><time>2026-05-01T10:20:41Z</time></trkpt><trkpt lat="45.61121734583922" lon="10.499827640298946"><ele>157.0</ele><time>2026-05-01T10:20:41.999Z</time></trkpt><trkpt lat="45.61116680311028" lon="10.499936773726219"><ele>156.0</ele><time>2026-05-01T10:20:42.999Z</time></trkpt><trkpt lat="45.61111778080419" lon="10.500041716807923"><ele>155.0</ele><time>2026-05-01T10:20:43.999Z</time></trkpt><trkpt lat="45.61106782755122" lon="10.500141541964616"><ele>154.0</ele><time>2026-05-01T10:20:44.999Z</time></trkpt><trkpt lat="45.61102545520297" lon="10.500230774136385"><ele>152.5</ele><time>2026-05-01T10:20:45.999Z</time></trkpt><trkpt lat="45.61099272337588" lon="10.500316655358363"><ele>151.0</ele><time>2026-05-01T10:20:46.999Z</time></trkpt><trkpt lat="45.61093823565711" lon="10.500427103538488"><ele>149.5</ele><time>2026-05-01T10:20:48.999Z</time></trkpt><trkpt lat="45.61087829529004" lon="10.500499045616358"><ele>148.0</ele><time>2026-05-01T10:20:51.999Z</time></trkpt><trkpt lat="45.61080850303786" lon="10.500475803831288"><ele>146.5</ele><time>2026-05-01T10:20:56.999Z</time></trkpt><trkpt lat="45.610744514687" lon="10.500482183728586"><ele>145.0</ele><time>2026-05-01T10:21:05.999Z</time></trkpt><trkpt lat="45.610647472346024" lon="10.500484676739468"><ele>144.0</ele><time>2026-05-01T10:21:14Z</time></trkpt><trkpt lat="45.61057457666326" lon="10.500483085729822"><ele>143.0</ele><time>2026-05-01T10:21:15Z</time></trkpt><trkpt lat="45.61048416639276" lon="10.500533871660226"><ele>142.0</ele><time>2026-05-01T10:21:17Z</time></trkpt><trkpt lat="45.61043845698381" lon="10.500696176228523"><ele>141.0</ele><time>2026-05-01T10:21:19Z</time></trkpt><trkpt lat="45.61045536290365" lon="10.500868617753023"><ele>140.0</ele><time>2026-05-01T10:21:21Z</time></trkpt><trkpt lat="45.61049170080514" lon="10.50096545602579"><ele>140.0</ele><time>2026-05-01T10:21:22Z</time></trkpt><trkpt lat="45.61056526679353" lon="10.501060729076782"><ele>140.0</ele><time>2026-05-01T10:21:24Z</time></trkpt><trkpt lat="45.6106211615944" lon="10.50113766311692"><ele>140.0</ele><time>2026-05-01T10:21:27Z</time></trkpt><trkpt lat="45.61066629129308" lon="10.501264326442026"><ele>140.0</ele><time>2026-05-01T10:21:30Z</time></trkpt><trkpt lat="45.61071225593214" lon="10.501396026278597"><ele>140.0</ele><time>2026-05-01T10:21:32Z</time></trkpt><trkpt lat="45.61073176741126" lon="10.501532969201184"><ele>139.2</ele><time>2026-05-01T10:21:34Z</time></trkpt><trkpt lat="45.61075577627911" lon="10.501679114811392"><ele>138.4</ele><time>2026-05-01T10:21:36Z</time></trkpt><trkpt lat="45.61076094743959" lon="10.501875780453492"><ele>137.6</ele><time>2026-05-01T10:21:38Z</time></trkpt><trkpt lat="45.61077014562529" lon="10.501985233377667"><ele>136.8</ele><time>2026-05-01T10:21:39Z</time></trkpt><trkpt lat="45.61077778261767" lon="10.502090875310566"><ele>136.0</ele><time>2026-05-01T10:21:40Z</time></trkpt><trkpt lat="45.61078135125447" lon="10.502181787016728"><ele>133.8</ele><time>2026-05-01T10:21:41Z</time></trkpt><trkpt lat="45.61077678892295" lon="10.5023558806231"><ele>131.6</ele><time>2026-05-01T10:21:43Z</time></trkpt><trkpt lat="45.61075874952125" lon="10.5025356273601"><ele>129.4</ele><time>2026-05-01T10:21:45Z</time></trkpt><trkpt lat="45.610748934476334" lon="10.502625206077322"><ele>127.2</ele><time>2026-05-01T10:21:46Z</time></trkpt><trkpt lat="45.61073632582531" lon="10.50273187165266"><ele>125.0</ele><time>2026-05-01T10:21:47Z</time></trkpt><trkpt lat="45.61071929584653" lon="10.502858560785569"><ele>123.4</ele><time>2026-05-01T10:21:48Z</time></trkpt><trkpt lat="45.61069805878245" lon="10.50300739300832"><ele>121.8</ele><time>2026-05-01T10:21:49Z</time></trkpt><trkpt lat="45.61067947602589" lon="10.503141989283861"><ele>120.19999999999999</ele><time>2026-05-01T10:21:50Z</time></trkpt><trkpt lat="45.610663512373286" lon="10.503258401487713"><ele>118.6</ele><time>2026-05-01T10:21:51Z</time></trkpt><trkpt lat="45.61064471745745" lon="10.503403286678825"><ele>117.0</ele><time>2026-05-01T10:21:53Z</time></trkpt><trkpt lat="45.61064377892535" lon="10.503523653990356"><ele>117.0</ele><time>2026-05-01T10:21:56Z</time></trkpt><trkpt lat="45.61062484549105" lon="10.503651519839224"><ele>117.00000000000001</ele><time>2026-05-01T10:21:58Z</time></trkpt><trkpt lat="45.61060828120113" lon="10.503744130512683"><ele>117.0</ele><time>2026-05-01T10:21:59Z</time></trkpt><trkpt lat="45.610596103015965" lon="10.503841412566471"><ele>117.0</ele><time>2026-05-01T10:22:00Z</time></trkpt><trkpt lat="45.610578085083056" lon="10.503951712826783"><ele>117.00000000000001</ele><time>2026-05-01T10:22:01Z</time></trkpt><trkpt lat="45.61056224178629" lon="10.504055123692089"><ele>117.0</ele><time>2026-05-01T10:22:02Z</time></trkpt><trkpt lat="45.61054975871547" lon="10.504143809045068"><ele>117.0</ele><time>2026-05-01T10:22:03Z</time></trkpt><trkpt lat="45.61053045539243" lon="10.504314189133622"><ele>119.19999999999999</ele><time>2026-05-01T10:22:05Z</time></trkpt><trkpt lat="45.610505822813494" lon="10.504484957591616"><ele>121.39999999999999</ele><time>2026-05-01T10:22:07Z</time></trkpt><trkpt lat="45.61048056052744" lon="10.504677264136333"><ele>123.60000000000001</ele><time>2026-05-01T10:22:09Z</time></trkpt><trkpt lat="45.61046549397257" lon="10.504796652310574"><ele>125.80000000000001</ele><time>2026-05-01T10:22:10Z</time></trkpt><trkpt lat="45.61044712067416" lon="10.504927770591477"><ele>128.0</ele><time>2026-05-01T10:22:11Z</time></trkpt><trkpt lat="45.61043275475133" lon="10.505051965684753"><ele>129.83333333333331</ele><time>2026-05-01T10:22:12Z</time></trkpt><trkpt lat="45.61042312682461" lon="10.505163247512975"><ele>131.66666666666666</ele><time>2026-05-01T10:22:13.001Z</time></trkpt><trkpt lat="45.61041394186296" lon="10.505273488873165"><ele>133.5</ele><time>2026-05-01T10:22:14.001Z</time></trkpt><trkpt lat="45.61039024276016" lon="10.50538735007478"><ele>135.33333333333334</ele><time>2026-05-01T10:22:15.001Z</time></trkpt><trkpt lat="45.6103873963823" lon="10.50550602299476"><ele>137.16666666666669</ele><time>2026-05-01T10:22:16.001Z</time></trkpt><trkpt lat="45.610387682529016" lon="10.505615270323919"><ele>139.0</ele><time>2026-05-01T10:22:17.001Z</time></trkpt><trkpt lat="45.61040708606521" lon="10.505714232794146"><ele>139.0</ele><time>2026-05-01T10:22:18.001Z</time></trkpt><trkpt lat="45.61041197709485" lon="10.505808444445393"><ele>139.0</ele><time>2026-05-01T10:22:19.001Z</time></trkpt><trkpt lat="45.610420020852175" lon="10.505905798852583"><ele>139.0</ele><time>2026-05-01T10:22:20.001Z</time></trkpt><trkpt lat="45.61042820752484" lon="10.506012216410596"><ele>139.0</ele><time>2026-05-01T10:22:21.001Z</time></trkpt><trkpt lat="45.61044096987772" lon="10.50611867038228"><ele>139.0</ele><time>2026-05-01T10:22:22.001Z</time></trkpt><trkpt lat="45.610460755189294" lon="10.506212383069776"><ele>139.0</ele><time>2026-05-01T10:22:23.001Z</time></trkpt><trkpt lat="45.61047766342037" lon="10.506313076985045"><ele>139.0</ele><time>2026-05-01T10:22:24.001Z</time></trkpt><trkpt lat="45.61050163850443" lon="10.506410222709809"><ele>137.0</ele><time>2026-05-01T10:22:25.001Z</time></trkpt><trkpt lat="45.610521578143384" lon="10.506503080861835"><ele>135.0</ele><time>2026-05-01T10:22:26.001Z</time></trkpt><trkpt lat="45.61055137795166" lon="10.506587381152274"><ele>133.0</ele><time>2026-05-01T10:22:27.001Z</time></trkpt><trkpt lat="45.610590646618896" lon="10.506732959112208"><ele>131.0</ele><time>2026-05-01T10:22:29.001Z</time></trkpt><trkpt lat="45.610651798994255" lon="10.50687742386478"><ele>129.0</ele><time>2026-05-01T10:22:31.001Z</time></trkpt><trkpt lat="45.61069673771913" lon="10.506982376758845"><ele>127.0</ele><time>2026-05-01T10:22:32.001Z</time></trkpt><trkpt lat="45.610730387139185" lon="10.507081734595038"><ele>124.66666666666667</ele><time>2026-05-01T10:22:33.001Z</time></trkpt><trkpt lat="45.610771190540916" lon="10.507194433887387"><ele>122.33333333333334</ele><time>2026-05-01T10:22:34.001Z</time></trkpt><trkpt lat="45.61081911791951" lon="10.507299674808145"><ele>120.0</ele><time>2026-05-01T10:22:35.001Z</time></trkpt><trkpt lat="45.610857413617474" lon="10.507403766729789"><ele>117.66666666666666</ele><time>2026-05-01T10:22:36.001Z</time></trkpt><trkpt lat="45.610890757710386" lon="10.507497633747517"><ele>115.33333333333333</ele><time>2026-05-01T10:22:37.001Z</time></trkpt><trkpt lat="45.61093117587389" lon="10.507609656011029"><ele>113.0</ele><time>2026-05-01T10:22:38.001Z</time></trkpt><trkpt lat="45.610966890846626" lon="10.507722954287365"><ele>113.0</ele><time>2026-05-01T10:22:39.001Z</time></trkpt><trkpt lat="45.61100250515576" lon="10.507829897619594"><ele>113.00000000000001</ele><time>2026-05-01T10:22:40.001Z</time></trkpt><trkpt lat="45.61104177468062" lon="10.507935751119511"><ele>113.00000000000001</ele><time>2026-05-01T10:22:41.001Z</time></trkpt><trkpt lat="45.61107614964371" lon="10.508052513497502"><ele>113.0</ele><time>2026-05-01T10:22:42.001Z</time></trkpt><trkpt lat="45.61112339214567" lon="10.508174582048662"><ele>113.0</ele><time>2026-05-01T10:22:43.001Z</time></trkpt><trkpt lat="45.611171844770766" lon="10.508303512464872"><ele>113.80000000000001</ele><time>2026-05-01T10:22:44.001Z</time></trkpt><trkpt lat="45.61122696297326" lon="10.508425378570095"><ele>114.60000000000001</ele><time>2026-05-01T10:22:45.001Z</time></trkpt><trkpt lat="45.61128259549295" lon="10.508545562522158"><ele>115.39999999999999</ele><time>2026-05-01T10:22:46.001Z</time></trkpt><trkpt lat="45.61135487772197" lon="10.508667600858374"><ele>116.19999999999999</ele><time>2026-05-01T10:22:47.001Z</time></trkpt><trkpt lat="45.611403259047904" lon="10.508778711693571"><ele>117.0</ele><time>2026-05-01T10:22:47.999Z</time></trkpt><trkpt lat="45.6114488342597" lon="10.50888197597961"><ele>117.0</ele><time>2026-05-01T10:22:48.999Z</time></trkpt><trkpt lat="45.61149580751169" lon="10.508993345645063"><ele>117.0</ele><time>2026-05-01T10:22:49.999Z</time></trkpt><trkpt lat="45.61154529092936" lon="10.509088153415238"><ele>117.0</ele><time>2026-05-01T10:22:50.999Z</time></trkpt><trkpt lat="45.61158963487686" lon="10.509188606030234"><ele>117.0</ele><time>2026-05-01T10:22:51.999Z</time></trkpt><trkpt lat="45.61163820255665" lon="10.50928691778676"><ele>117.0</ele><time>2026-05-01T10:22:52.999Z</time></trkpt><trkpt lat="45.61167832471516" lon="10.5093749912209"><ele>117.0</ele><time>2026-05-01T10:22:53.999Z</time></trkpt><trkpt lat="45.61170672708138" lon="10.509465442908073"><ele>116.16666666666667</ele><time>2026-05-01T10:22:54.999Z</time></trkpt><trkpt lat="45.611748569616765" lon="10.509614874378661"><ele>115.33333333333334</ele><time>2026-05-01T10:22:56.999Z</time></trkpt><trkpt lat="45.611778566172056" lon="10.509745025333704"><ele>114.5</ele><time>2026-05-01T10:22:58.999Z</time></trkpt><trkpt lat="45.611794051700535" lon="10.509858038698143"><ele>113.66666666666667</ele><time>2026-05-01T10:23:00.999Z</time></trkpt><trkpt lat="45.61179076035669" lon="10.509953214540547"><ele>112.83333333333334</ele><time>2026-05-01T10:23:02.999Z</time></trkpt><trkpt lat="45.611764792052035" lon="10.510038332725603"><ele>112.0</ele><time>2026-05-01T10:23:04.999Z</time></trkpt><trkpt lat="45.61172049364229" lon="10.51011936145085"><ele>112.0</ele><time>2026-05-01T10:23:07Z</time></trkpt><trkpt lat="45.61170595184858" lon="10.510223655970403"><ele>112.0</ele><time>2026-05-01T10:23:09Z</time></trkpt><trkpt lat="45.61175035917224" lon="10.510322342319625"><ele>112.0</ele><time>2026-05-01T10:23:12Z</time></trkpt><trkpt lat="45.61179603825341" lon="10.51039295749275"><ele>112.0</ele><time>2026-05-01T10:23:13Z</time></trkpt><trkpt lat="45.61183164556155" lon="10.510467403982368"><ele>112.0</ele><time>2026-05-01T10:23:14Z</time></trkpt><trkpt lat="45.61185776087565" lon="10.51055016311182"><ele>112.0</ele><time>2026-05-01T10:23:15Z</time></trkpt><trkpt lat="45.611877308199695" lon="10.510645949395496"><ele>112.0</ele><time>2026-05-01T10:23:16Z</time></trkpt><trkpt lat="45.61189003929506" lon="10.510744558094189"><ele>112.00000000000001</ele><time>2026-05-01T10:23:17Z</time></trkpt><trkpt lat="45.611892355638986" lon="10.510840350523571"><ele>112.0</ele><time>2026-05-01T10:23:18Z</time></trkpt><trkpt lat="45.611877403474814" lon="10.510953336210848"><ele>112.0</ele><time>2026-05-01T10:23:20Z</time></trkpt><trkpt lat="45.61187926571596" lon="10.511044146997941"><ele>112.0</ele><time>2026-05-01T10:23:24Z</time></trkpt><trkpt lat="45.61185832360813" lon="10.511163851239786"><ele>112.00000000000001</ele><time>2026-05-01T10:23:26Z</time></trkpt><trkpt lat="45.61187390204211" lon="10.511253553134692"><ele>112.0</ele><time>2026-05-01T10:23:27Z</time></trkpt><trkpt lat="45.61185672193178" lon="10.51143030374515"><ele>112.00000000000001</ele><time>2026-05-01T10:23:29Z</time></trkpt><trkpt lat="45.61183896983074" lon="10.511527308543759"><ele>112.0</ele><time>2026-05-01T10:23:30Z</time></trkpt><trkpt lat="45.61182218860632" lon="10.511630815677677"><ele>112.0</ele><time>2026-05-01T10:23:31Z</time></trkpt><trkpt lat="45.611802380132104" lon="10.511741965440223"><ele>112.0</ele><time>2026-05-01T10:23:32Z</time></trkpt><trkpt lat="45.61177998759969" lon="10.511846751516838"><ele>112.00000000000001</ele><time>2026-05-01T10:23:33Z</time></trkpt><trkpt lat="45.61172442295608" lon="10.511927217095478"><ele>112.0</ele><time>2026-05-01T10:23:34Z</time></trkpt><trkpt lat="45.61170042189546" lon="10.51202848090753"><ele>112.50000000000001</ele><time>2026-05-01T10:23:35Z</time></trkpt><trkpt lat="45.61171061562412" lon="10.512162034170379"><ele>113.0</ele><time>2026-05-01T10:23:36Z</time></trkpt><trkpt lat="45.611692116740954" lon="10.512291175195683"><ele>113.5</ele><time>2026-05-01T10:23:37Z</time></trkpt><trkpt lat="45.61167657535416" lon="10.51243646877735"><ele>114.0</ele><time>2026-05-01T10:23:38Z</time></trkpt><trkpt lat="45.61165156711142" lon="10.512551012993287"><ele>114.50000000000001</ele><time>2026-05-01T10:23:39Z</time></trkpt><trkpt lat="45.61161633978153" lon="10.512640815238402"><ele>115.0</ele><time>2026-05-01T10:23:40Z</time></trkpt><trkpt lat="45.611597558885634" lon="10.512749726844724"><ele>115.00000000000001</ele><time>2026-05-01T10:23:41Z</time></trkpt><trkpt lat="45.6115800491477" lon="10.512839772714782"><ele>115.0</ele><time>2026-05-01T10:23:42Z</time></trkpt><trkpt lat="45.61155243081752" lon="10.512951014891462"><ele>115.0</ele><time>2026-05-01T10:23:44Z</time></trkpt><trkpt lat="45.61151235816459" lon="10.513043015857406"><ele>115.0</ele><time>2026-05-01T10:23:48Z</time></trkpt><trkpt lat="45.61147583240352" lon="10.513191249107711"><ele>115.00000000000001</ele><time>2026-05-01T10:23:50Z</time></trkpt><trkpt lat="45.611449092692" lon="10.513302886962816"><ele>115.0</ele><time>2026-05-01T10:23:52Z</time></trkpt><trkpt lat="45.61142635266587" lon="10.51340737782864"><ele>115.2</ele><time>2026-05-01T10:23:55Z</time></trkpt><trkpt lat="45.61139367812629" lon="10.513561529179782"><ele>115.4</ele><time>2026-05-01T10:23:58.001Z</time></trkpt><trkpt lat="45.61137513035279" lon="10.513669252881495"><ele>115.6</ele><time>2026-05-01T10:23:59.001Z</time></trkpt><trkpt lat="45.611343759895306" lon="10.513804800548925"><ele>115.8</ele><time>2026-05-01T10:24:00.001Z</time></trkpt><trkpt lat="45.611316556277565" lon="10.513956749524166"><ele>116.0</ele><time>2026-05-01T10:24:01.001Z</time></trkpt><trkpt lat="45.6112774852195" lon="10.514114311276606"><ele>116.75</ele><time>2026-05-01T10:24:02.001Z</time></trkpt><trkpt lat="45.61120822054182" lon="10.514259350294312"><ele>117.5</ele><time>2026-05-01T10:24:03.001Z</time></trkpt><trkpt lat="45.61120347659683" lon="10.514441262793483"><ele>118.25</ele><time>2026-05-01T10:24:04.001Z</time></trkpt><trkpt lat="45.611162842977855" lon="10.51461298737424"><ele>119.0</ele><time>2026-05-01T10:24:05.001Z</time></trkpt><trkpt lat="45.61112490057457" lon="10.51478666164876"><ele>117.25</ele><time>2026-05-01T10:24:06.001Z</time></trkpt><trkpt lat="45.6110845548375" lon="10.514972989413536"><ele>115.5</ele><time>2026-05-01T10:24:07.001Z</time></trkpt><trkpt lat="45.61101101257042" lon="10.515156991503765"><ele>113.75</ele><time>2026-05-01T10:24:08.001Z</time></trkpt><trkpt lat="45.61098339426537" lon="10.515359122370446"><ele>112.0</ele><time>2026-05-01T10:24:09.001Z</time></trkpt><trkpt lat="45.6109384589701" lon="10.51555494927389"><ele>112.0</ele><time>2026-05-01T10:24:10.001Z</time></trkpt><trkpt lat="45.610895210292924" lon="10.515747441395678"><ele>112.0</ele><time>2026-05-01T10:24:11.001Z</time></trkpt><trkpt lat="45.610851049757436" lon="10.515944002791437"><ele>112.0</ele><time>2026-05-01T10:24:12.001Z</time></trkpt><trkpt lat="45.610806390854194" lon="10.516145143712624"><ele>112.0</ele><time>2026-05-01T10:24:13.001Z</time></trkpt><trkpt lat="45.61076176095167" lon="10.516350632147788"><ele>113.0</ele><time>2026-05-01T10:24:14.001Z</time></trkpt><trkpt lat="45.61070665057233" lon="10.51655223956395"><ele>114.0</ele><time>2026-05-01T10:24:15.001Z</time></trkpt><trkpt lat="45.610664403296084" lon="10.516746183159848"><ele>115.0</ele><time>2026-05-01T10:24:16.001Z</time></trkpt><trkpt lat="45.61062329559855" lon="10.516933817405018"><ele>116.0</ele><time>2026-05-01T10:24:17.001Z</time></trkpt><trkpt lat="45.61058783670291" lon="10.517094899906994"><ele>116.8</ele><time>2026-05-01T10:24:18.001Z</time></trkpt><trkpt lat="45.61055605556088" lon="10.51723927523937"><ele>117.6</ele><time>2026-05-01T10:24:19.001Z</time></trkpt><trkpt lat="45.610529650637474" lon="10.517359227463926"><ele>118.4</ele><time>2026-05-01T10:24:20.001Z</time></trkpt><trkpt lat="45.61050837642232" lon="10.517455871934429"><ele>119.2</ele><time>2026-05-01T10:24:21.001Z</time></trkpt><trkpt lat="45.61048462704625" lon="10.517604957802751"><ele>120.0</ele><time>2026-05-01T10:24:23.001Z</time></trkpt><trkpt lat="45.61045660940271" lon="10.517715339812897"><ele>120.0</ele><time>2026-05-01T10:24:25.001Z</time></trkpt><trkpt lat="45.61042959949699" lon="10.517876515835429"><ele>120.0</ele><time>2026-05-01T10:24:27.001Z</time></trkpt><trkpt lat="45.610406146347394" lon="10.517974496867433"><ele>120.0</ele><time>2026-05-01T10:24:28.001Z</time></trkpt><trkpt lat="45.61037801964105" lon="10.51809817809709"><ele>120.0</ele><time>2026-05-01T10:24:29.001Z</time></trkpt><trkpt lat="45.61035472786802" lon="10.518220938320258"><ele>120.0</ele><time>2026-05-01T10:24:30.001Z</time></trkpt><trkpt lat="45.61032732889552" lon="10.518357679013505"><ele>117.6</ele><time>2026-05-01T10:24:31.001Z</time></trkpt><trkpt lat="45.610281235521214" lon="10.518492913440285"><ele>115.2</ele><time>2026-05-01T10:24:32.001Z</time></trkpt><trkpt lat="45.61024671922195" lon="10.51863368658951"><ele>112.80000000000001</ele><time>2026-05-01T10:24:33.001Z</time></trkpt><trkpt lat="45.61020836558775" lon="10.518778122896432"><ele>110.4</ele><time>2026-05-01T10:24:34.001Z</time></trkpt><trkpt lat="45.61017607489433" lon="10.518927610802475"><ele>108.0</ele><time>2026-05-01T10:24:35.001Z</time></trkpt><trkpt lat="45.61014067399636" lon="10.519063748734338"><ele>108.0</ele><time>2026-05-01T10:24:36.001Z</time></trkpt><trkpt lat="45.6100937066542" lon="10.519180800568824"><ele>108.0</ele><time>2026-05-01T10:24:37.001Z</time></trkpt><trkpt lat="45.61005364037319" lon="10.519286585255578"><ele>108.0</ele><time>2026-05-01T10:24:38.001Z</time></trkpt><trkpt lat="45.61001888592058" lon="10.519387687363642"><ele>108.0</ele><time>2026-05-01T10:24:39.001Z</time></trkpt><trkpt lat="45.60998065580651" lon="10.519480382176912"><ele>108.0</ele><time>2026-05-01T10:24:40.001Z</time></trkpt><trkpt lat="45.6099298385011" lon="10.519596503460397"><ele>108.0</ele><time>2026-05-01T10:24:41.001Z</time></trkpt><trkpt lat="45.60988647840486" lon="10.519697210906465"><ele>108.60000000000001</ele><time>2026-05-01T10:24:42.001Z</time></trkpt><trkpt lat="45.6098384461934" lon="10.519808173506807"><ele>109.20000000000002</ele><time>2026-05-01T10:24:43.001Z</time></trkpt><trkpt lat="45.60977519717916" lon="10.519914921668486"><ele>109.8</ele><time>2026-05-01T10:24:44.001Z</time></trkpt><trkpt lat="45.609723599311685" lon="10.520014279681162"><ele>110.4</ele><time>2026-05-01T10:24:45.001Z</time></trkpt><trkpt lat="45.60967217004198" lon="10.520124941140379"><ele>111.0</ele><time>2026-05-01T10:24:46.001Z</time></trkpt><trkpt lat="45.60961664833586" lon="10.5202365879387"><ele>111.0</ele><time>2026-05-01T10:24:47.001Z</time></trkpt><trkpt lat="45.609545726528715" lon="10.520335376748802"><ele>111.0</ele><time>2026-05-01T10:24:48.001Z</time></trkpt><trkpt lat="45.60948208284604" lon="10.520437460851982"><ele>111.0</ele><time>2026-05-01T10:24:49.001Z</time></trkpt><trkpt lat="45.60941470736678" lon="10.520546702261647"><ele>111.0</ele><time>2026-05-01T10:24:50.001Z</time></trkpt><trkpt lat="45.60934562678479" lon="10.520650284053257"><ele>111.0</ele><time>2026-05-01T10:24:51.001Z</time></trkpt><trkpt lat="45.60925960022458" lon="10.520749720861742"><ele>111.4</ele><time>2026-05-01T10:24:52.001Z</time></trkpt><trkpt lat="45.60918340120237" lon="10.52086063777376"><ele>111.8</ele><time>2026-05-01T10:24:53.001Z</time></trkpt><trkpt lat="45.60910904289092" lon="10.520968875197793"><ele>112.20000000000002</ele><time>2026-05-01T10:24:54Z</time></trkpt><trkpt lat="45.609035230181455" lon="10.521076318463603"><ele>112.60000000000001</ele><time>2026-05-01T10:24:55Z</time></trkpt><trkpt lat="45.60895511205718" lon="10.521190901750792"><ele>113.0</ele><time>2026-05-01T10:24:56Z</time></trkpt><trkpt lat="45.608882723329735" lon="10.52129909191856"><ele>113.0</ele><time>2026-05-01T10:24:57Z</time></trkpt><trkpt lat="45.60881053714399" lon="10.521411458645833"><ele>113.00000000000001</ele><time>2026-05-01T10:24:58Z</time></trkpt><trkpt lat="45.608741280706404" lon="10.52152821813107"><ele>113.00000000000001</ele><time>2026-05-01T10:24:59Z</time></trkpt><trkpt lat="45.60866063549476" lon="10.521608205765135"><ele>113.0</ele><time>2026-05-01T10:25:00Z</time></trkpt><trkpt lat="45.60860376333705" lon="10.52169936214872"><ele>113.0</ele><time>2026-05-01T10:25:01Z</time></trkpt><trkpt lat="45.6085614033234" lon="10.521805112438123"><ele>111.33333333333333</ele><time>2026-05-01T10:25:02Z</time></trkpt><trkpt lat="45.6085366913195" lon="10.521920194544627"><ele>109.66666666666666</ele><time>2026-05-01T10:25:03Z</time></trkpt><trkpt lat="45.608512172114445" lon="10.522031186157353"><ele>108.0</ele><time>2026-05-01T10:25:04Z</time></trkpt><trkpt lat="45.608504037887194" lon="10.522157064044611"><ele>106.33333333333334</ele><time>2026-05-01T10:25:05Z</time></trkpt><trkpt lat="45.6085050351097" lon="10.522279327537625"><ele>104.66666666666667</ele><time>2026-05-01T10:25:06Z</time></trkpt><trkpt lat="45.60851438021985" lon="10.522417674913632"><ele>103.0</ele><time>2026-05-01T10:25:07Z</time></trkpt><trkpt lat="45.60852962708192" lon="10.52254677372746"><ele>103.00000000000001</ele><time>2026-05-01T10:25:08Z</time></trkpt><trkpt lat="45.608546238050714" lon="10.522649577054224"><ele>103.0</ele><time>2026-05-01T10:25:09Z</time></trkpt><trkpt lat="45.60858946777234" lon="10.522774134155203"><ele>103.0</ele><time>2026-05-01T10:25:11Z</time></trkpt><trkpt lat="45.60861365364829" lon="10.522875207333865"><ele>103.0</ele><time>2026-05-01T10:25:15Z</time></trkpt><trkpt lat="45.60866344577834" lon="10.523007002081613"><ele>103.00000000000001</ele><time>2026-05-01T10:25:18Z</time></trkpt><trkpt lat="45.608694073998656" lon="10.523125252768583"><ele>103.0</ele><time>2026-05-01T10:25:21Z</time></trkpt><trkpt lat="45.60870697501776" lon="10.523245994929903"><ele>107.50000000000001</ele><time>2026-05-01T10:25:24Z</time></trkpt><trkpt lat="45.60872624751983" lon="10.523364025020758"><ele>112.0</ele><time>2026-05-01T10:25:27Z</time></trkpt><trkpt lat="45.60873683464408" lon="10.523472918916632"><ele>116.5</ele><time>2026-05-01T10:25:31Z</time></trkpt><trkpt lat="45.60873935518896" lon="10.523577192736166"><ele>121.0</ele><time>2026-05-01T10:25:39Z</time></trkpt><trkpt lat="45.60873579082318" lon="10.523759283198144"><ele>125.50000000000001</ele><time>2026-05-01T10:25:42Z</time></trkpt><trkpt lat="45.608730581482554" lon="10.523883420042202"><ele>130.0</ele><time>2026-05-01T10:25:43Z</time></trkpt><trkpt lat="45.60872512494687" lon="10.52398811243102"><ele>130.5</ele><time>2026-05-01T10:25:44Z</time></trkpt><trkpt lat="45.608711015040456" lon="10.524145358528516"><ele>131.0</ele><time>2026-05-01T10:25:46.001Z</time></trkpt><trkpt lat="45.608703614093095" lon="10.524239294307105"><ele>131.5</ele><time>2026-05-01T10:25:48.001Z</time></trkpt><trkpt lat="45.60870689651897" lon="10.524346335352865"><ele>132.0</ele><time>2026-05-01T10:25:51.001Z</time></trkpt><trkpt lat="45.60870166909622" lon="10.524460074050197"><ele>132.5</ele><time>2026-05-01T10:25:54.001Z</time></trkpt><trkpt lat="45.608705110319704" lon="10.52455855284291"><ele>133.0</ele><time>2026-05-01T10:25:56.001Z</time></trkpt><trkpt lat="45.60871215954878" lon="10.524656607228396"><ele>133.33333333333334</ele><time>2026-05-01T10:25:57.001Z</time></trkpt><trkpt lat="45.608693315295184" lon="10.524750336504638"><ele>133.66666666666669</ele><time>2026-05-01T10:25:58.001Z</time></trkpt><trkpt lat="45.608680452325764" lon="10.524855397451434"><ele>134.0</ele><time>2026-05-01T10:25:59.001Z</time></trkpt><trkpt lat="45.60867204357271" lon="10.524952806624324"><ele>134.33333333333334</ele><time>2026-05-01T10:26:00.001Z</time></trkpt><trkpt lat="45.60866646763053" lon="10.525071762729631"><ele>134.66666666666666</ele><time>2026-05-01T10:26:01.001Z</time></trkpt><trkpt lat="45.608655342710826" lon="10.525191264633408"><ele>135.0</ele><time>2026-05-01T10:26:02.001Z</time></trkpt><trkpt lat="45.6086532386394" lon="10.52530925402021"><ele>128.2</ele><time>2026-05-01T10:26:03.001Z</time></trkpt><trkpt lat="45.60864762749711" lon="10.525433292325681"><ele>121.4</ele><time>2026-05-01T10:26:04.001Z</time></trkpt><trkpt lat="45.60864394477612" lon="10.52556659008992"><ele>114.6</ele><time>2026-05-01T10:26:05.001Z</time></trkpt><trkpt lat="45.60862667758408" lon="10.525698917345492"><ele>107.8</ele><time>2026-05-01T10:26:06.001Z</time></trkpt><trkpt lat="45.60862845316056" lon="10.525836822658848"><ele>101.0</ele><time>2026-05-01T10:26:07.001Z</time></trkpt><trkpt lat="45.6086173840433" lon="10.525980088461353"><ele>101.0</ele><time>2026-05-01T10:26:08.001Z</time></trkpt><trkpt lat="45.60861150617176" lon="10.526114156388998"><ele>101.0</ele><time>2026-05-01T10:26:09.001Z</time></trkpt><trkpt lat="45.608607347429874" lon="10.526244118897228"><ele>101.0</ele><time>2026-05-01T10:26:10.001Z</time></trkpt><trkpt lat="45.60860878776212" lon="10.52638778466315"><ele>101.0</ele><time>2026-05-01T10:26:11.001Z</time></trkpt><trkpt lat="45.6086166968222" lon="10.52654337467364"><ele>101.0</ele><time>2026-05-01T10:26:12.001Z</time></trkpt><trkpt lat="45.608625349357716" lon="10.526723885074837"><ele>101.0</ele><time>2026-05-01T10:26:13.001Z</time></trkpt><trkpt lat="45.6086311028287" lon="10.526889215891952"><ele>101.0</ele><time>2026-05-01T10:26:14.001Z</time></trkpt><trkpt lat="45.60864252579746" lon="10.5270305829515"><ele>101.0</ele><time>2026-05-01T10:26:15.001Z</time></trkpt><trkpt lat="45.60864882288626" lon="10.527150631639735"><ele>101.0</ele><time>2026-05-01T10:26:16.001Z</time></trkpt><trkpt lat="45.60866146218848" lon="10.527245846654449"><ele>101.0</ele><time>2026-05-01T10:26:17.001Z</time></trkpt><trkpt lat="45.608679424150495" lon="10.52745313821501"><ele>108.5</ele><time>2026-05-01T10:26:19.001Z</time></trkpt><trkpt lat="45.60870940835075" lon="10.527628073733485"><ele>116.0</ele><time>2026-05-01T10:26:20.001Z</time></trkpt><trkpt lat="45.60872429303134" lon="10.527815965765232"><ele>123.5</ele><time>2026-05-01T10:26:21.001Z</time></trkpt><trkpt lat="45.60874237372089" lon="10.527973180392712"><ele>131.0</ele><time>2026-05-01T10:26:22.001Z</time></trkpt><trkpt lat="45.60874709464264" lon="10.52810118310114"><ele>131.0</ele><time>2026-05-01T10:26:23.001Z</time></trkpt><trkpt lat="45.60875496773792" lon="10.528200693427529"><ele>131.0</ele><time>2026-05-01T10:26:24.001Z</time></trkpt><trkpt lat="45.608768596049075" lon="10.528351967090977"><ele>131.0</ele><time>2026-05-01T10:26:26.001Z</time></trkpt><trkpt lat="45.60879374162798" lon="10.528446778833707"><ele>131.0</ele><time>2026-05-01T10:26:28.001Z</time></trkpt><trkpt lat="45.60879030667906" lon="10.52857645972745"><ele>131.0</ele><time>2026-05-01T10:26:30.001Z</time></trkpt><trkpt lat="45.60880476973705" lon="10.528700113139276"><ele>131.0</ele><time>2026-05-01T10:26:32.001Z</time></trkpt><trkpt lat="45.60881713619804" lon="10.528809151502761"><ele>130.16666666666666</ele><time>2026-05-01T10:26:35.001Z</time></trkpt><trkpt lat="45.608838357439886" lon="10.528932857805604"><ele>129.33333333333331</ele><time>2026-05-01T10:26:38.001Z</time></trkpt><trkpt lat="45.608854456588496" lon="10.529065404724383"><ele>128.5</ele><time>2026-05-01T10:26:40.001Z</time></trkpt><trkpt lat="45.608866612111676" lon="10.529160151559708"><ele>127.66666666666666</ele><time>2026-05-01T10:26:42.001Z</time></trkpt><trkpt lat="45.60888268728552" lon="10.529248890076637"><ele>126.83333333333333</ele><time>2026-05-01T10:26:44.001Z</time></trkpt><trkpt lat="45.608904844803654" lon="10.529364467661106"><ele>126.0</ele><time>2026-05-01T10:26:47.001Z</time></trkpt><trkpt lat="45.60892254895217" lon="10.529471724026118"><ele>124.16666666666667</ele><time>2026-05-01T10:26:51.002Z</time></trkpt><trkpt lat="45.608959165396044" lon="10.52955908457461"><ele>122.33333333333334</ele><time>2026-05-01T10:26:52.002Z</time></trkpt><trkpt lat="45.6089761556311" lon="10.529657240988625"><ele>120.5</ele><time>2026-05-01T10:26:53.002Z</time></trkpt><trkpt lat="45.6090064074867" lon="10.529743174202599"><ele>118.66666666666667</ele><time>2026-05-01T10:26:54.002Z</time></trkpt><trkpt lat="45.60905821670333" lon="10.529888925154932"><ele>116.83333333333334</ele><time>2026-05-01T10:26:56.002Z</time></trkpt><trkpt lat="45.60910250817117" lon="10.530001727792078"><ele>115.0</ele><time>2026-05-01T10:26:58.002Z</time></trkpt><trkpt lat="45.609168762954006" lon="10.530173794998628"><ele>115.00000000000001</ele><time>2026-05-01T10:27:00Z</time></trkpt><trkpt lat="45.60921541314576" lon="10.530294829692115"><ele>115.0</ele><time>2026-05-01T10:27:01Z</time></trkpt><trkpt lat="45.609251446648486" lon="10.530428206786471"><ele>115.0</ele><time>2026-05-01T10:27:02Z</time></trkpt><trkpt lat="45.60929115698763" lon="10.530527919100903"><ele>115.0</ele><time>2026-05-01T10:27:03Z</time></trkpt><trkpt lat="45.609324223846514" lon="10.530625372035708"><ele>115.00000000000001</ele><time>2026-05-01T10:27:04Z</time></trkpt><trkpt lat="45.609362619093496" lon="10.53072401659459"><ele>115.0</ele><time>2026-05-01T10:27:05Z</time></trkpt><trkpt lat="45.609408814232076" lon="10.53083093201912"><ele>115.66666666666667</ele><time>2026-05-01T10:27:06Z</time></trkpt><trkpt lat="45.60945410315734" lon="10.5309335958001"><ele>116.33333333333334</ele><time>2026-05-01T10:27:07Z</time></trkpt><trkpt lat="45.60950460116817" lon="10.53103745392063"><ele>117.0</ele><time>2026-05-01T10:27:08Z</time></trkpt><trkpt lat="45.60954775780674" lon="10.531128847566828"><ele>117.66666666666666</ele><time>2026-05-01T10:27:09Z</time></trkpt><trkpt lat="45.60958840520614" lon="10.531211393854264"><ele>118.33333333333333</ele><time>2026-05-01T10:27:10Z</time></trkpt><trkpt lat="45.60965987598968" lon="10.531351469305427"><ele>119.0</ele><time>2026-05-01T10:27:12Z</time></trkpt><trkpt lat="45.60971391711502" lon="10.53147166708645"><ele>119.0</ele><time>2026-05-01T10:27:14Z</time></trkpt><trkpt lat="45.609757686975705" lon="10.531605566467686"><ele>119.0</ele><time>2026-05-01T10:27:16Z</time></trkpt><trkpt lat="45.60979758053341" lon="10.531756160018352"><ele>119.0</ele><time>2026-05-01T10:27:18Z</time></trkpt><trkpt lat="45.609813989117804" lon="10.531908115856531"><ele>119.0</ele><time>2026-05-01T10:27:20Z</time></trkpt><trkpt lat="45.60980331883249" lon="10.532057546300402"><ele>119.0</ele><time>2026-05-01T10:27:22Z</time></trkpt><trkpt lat="45.60976215176678" lon="10.532174515233926"><ele>119.6</ele><time>2026-05-01T10:27:24Z</time></trkpt><trkpt lat="45.60971302615737" lon="10.532293211823765"><ele>120.2</ele><time>2026-05-01T10:27:26Z</time></trkpt><trkpt lat="45.6096554331643" lon="10.532417878175526"><ele>120.79999999999998</ele><time>2026-05-01T10:27:28Z</time></trkpt><trkpt lat="45.60962104966849" lon="10.532542467351195"><ele>121.39999999999999</ele><time>2026-05-01T10:27:30Z</time></trkpt><trkpt lat="45.60958066741526" lon="10.53262776125073"><ele>122.0</ele><time>2026-05-01T10:27:32Z</time></trkpt><trkpt lat="45.60953946293637" lon="10.53278341868328"><ele>121.99999999999999</ele><time>2026-05-01T10:27:34Z</time></trkpt><trkpt lat="45.60950115564082" lon="10.53286322326578"><ele>122.0</ele><time>2026-05-01T10:27:35Z</time></trkpt><trkpt lat="45.609487723907954" lon="10.532972283931704"><ele>122.0</ele><time>2026-05-01T10:27:36Z</time></trkpt><trkpt lat="45.60947963923728" lon="10.533086014381578"><ele>122.0</ele><time>2026-05-01T10:27:37Z</time></trkpt><trkpt lat="45.60947966213155" lon="10.533205570156149"><ele>121.99999999999999</ele><time>2026-05-01T10:27:38.001Z</time></trkpt><trkpt lat="45.60949576245366" lon="10.53331587461845"><ele>122.0</ele><time>2026-05-01T10:27:39.001Z</time></trkpt><trkpt lat="45.60949931929127" lon="10.53342229334258"><ele>122.7142857142857</ele><time>2026-05-01T10:27:40.001Z</time></trkpt><trkpt lat="45.6095164328728" lon="10.533540218122408"><ele>123.42857142857142</ele><time>2026-05-01T10:27:41.001Z</time></trkpt><trkpt lat="45.609527718352155" lon="10.533656600248296"><ele>124.14285714285714</ele><time>2026-05-01T10:27:42.001Z</time></trkpt><trkpt lat="45.60954142986161" lon="10.533765690809107"><ele>124.85714285714285</ele><time>2026-05-01T10:27:43.001Z</time></trkpt><trkpt lat="45.609553171665425" lon="10.533869676817103"><ele>125.57142857142856</ele><time>2026-05-01T10:27:44.001Z</time></trkpt><trkpt lat="45.609567802980315" lon="10.533965424358486"><ele>126.28571428571429</ele><time>2026-05-01T10:27:45.001Z</time></trkpt><trkpt lat="45.609583532487996" lon="10.53405293055429"><ele>127.0</ele><time>2026-05-01T10:27:46.001Z</time></trkpt><trkpt lat="45.609605299664025" lon="10.534149171806334"><ele>125.16666666666667</ele><time>2026-05-01T10:27:47.001Z</time></trkpt><trkpt lat="45.609668211907724" lon="10.53424521416826"><ele>123.33333333333334</ele><time>2026-05-01T10:27:48.001Z</time></trkpt><trkpt lat="45.60973403013691" lon="10.53433223161168"><ele>121.5</ele><time>2026-05-01T10:27:49.001Z</time></trkpt><trkpt lat="45.6097892431745" lon="10.534414039489954"><ele>119.66666666666666</ele><time>2026-05-01T10:27:50.001Z</time></trkpt><trkpt lat="45.609840146343906" lon="10.534483242566102"><ele>117.83333333333333</ele><time>2026-05-01T10:27:51.001Z</time></trkpt><trkpt lat="45.60989002999674" lon="10.534547740700571"><ele>116.0</ele><time>2026-05-01T10:27:52.001Z</time></trkpt><trkpt lat="45.60996638942532" lon="10.534657183341741"><ele>112.99999999999999</ele><time>2026-05-01T10:27:54.001Z</time></trkpt><trkpt lat="45.610049002425924" lon="10.534760400223975"><ele>110.0</ele><time>2026-05-01T10:27:56.001Z</time></trkpt><trkpt lat="45.61008695948345" lon="10.53484989994882"><ele>107.0</ele><time>2026-05-01T10:27:57.001Z</time></trkpt><trkpt lat="45.610124666338756" lon="10.534945284532082"><ele>104.0</ele><time>2026-05-01T10:27:58.001Z</time></trkpt><trkpt lat="45.61015945789535" lon="10.535049092130146"><ele>100.99999999999999</ele><time>2026-05-01T10:27:59.001Z</time></trkpt><trkpt lat="45.61018961284034" lon="10.535144485633811"><ele>98.0</ele><time>2026-05-01T10:28:00.001Z</time></trkpt><trkpt lat="45.61021163669409" lon="10.53524036922747"><ele>97.99999999999999</ele><time>2026-05-01T10:28:01.001Z</time></trkpt><trkpt lat="45.610233861018614" lon="10.535327837112684"><ele>98.0</ele><time>2026-05-01T10:28:02.001Z</time></trkpt><trkpt lat="45.61029169910712" lon="10.535488016723278"><ele>98.0</ele><time>2026-05-01T10:28:04.001Z</time></trkpt><trkpt lat="45.610325742804186" lon="10.535585421364043"><ele>98.0</ele><time>2026-05-01T10:28:05.001Z</time></trkpt><trkpt lat="45.61036650113162" lon="10.535682645100927"><ele>97.99999999999999</ele><time>2026-05-01T10:28:06.001Z</time></trkpt><trkpt lat="45.61041791699822" lon="10.535768557956573"><ele>98.0</ele><time>2026-05-01T10:28:07.001Z</time></trkpt><trkpt lat="45.61045059508511" lon="10.535846351438"><ele>98.66666666666666</ele><time>2026-05-01T10:28:08.001Z</time></trkpt><trkpt lat="45.61051700251833" lon="10.535963149716832"><ele>99.33333333333333</ele><time>2026-05-01T10:28:10.001Z</time></trkpt><trkpt lat="45.61056496706548" lon="10.536056458177248"><ele>100.0</ele><time>2026-05-01T10:28:12.001Z</time></trkpt><trkpt lat="45.61063320661636" lon="10.536181598206726"><ele>100.66666666666666</ele><time>2026-05-01T10:28:14.001Z</time></trkpt><trkpt lat="45.61067141482952" lon="10.53626037761409"><ele>101.33333333333333</ele><time>2026-05-01T10:28:15.001Z</time></trkpt><trkpt lat="45.610707453727095" lon="10.536336188156596"><ele>102.0</ele><time>2026-05-01T10:28:16.001Z</time></trkpt><trkpt lat="45.61074093723027" lon="10.53641268962068"><ele>102.0</ele><time>2026-05-01T10:28:17.001Z</time></trkpt><trkpt lat="45.610765233065614" lon="10.536509190329522"><ele>102.0</ele><time>2026-05-01T10:28:18.001Z</time></trkpt><trkpt lat="45.61078654481429" lon="10.536615722854915"><ele>102.0</ele><time>2026-05-01T10:28:19.001Z</time></trkpt><trkpt lat="45.6107950096872" lon="10.5367265943431"><ele>102.0</ele><time>2026-05-01T10:28:20.001Z</time></trkpt><trkpt lat="45.61078508472058" lon="10.536824662603888"><ele>102.0</ele><time>2026-05-01T10:28:21.001Z</time></trkpt><trkpt lat="45.61077070153771" lon="10.536918105855646"><ele>102.0</ele><time>2026-05-01T10:28:22.001Z</time></trkpt><trkpt lat="45.61073869651695" lon="10.53707879375263"><ele>100.19999999999999</ele><time>2026-05-01T10:28:24.001Z</time></trkpt><trkpt lat="45.610739833874014" lon="10.537269617699822"><ele>98.4</ele><time>2026-05-01T10:28:26.001Z</time></trkpt><trkpt lat="45.61076062668417" lon="10.537375930318952"><ele>96.6</ele><time>2026-05-01T10:28:27.001Z</time></trkpt><trkpt lat="45.610779622831046" lon="10.537487642194376"><ele>94.80000000000001</ele><time>2026-05-01T10:28:28.001Z</time></trkpt><trkpt lat="45.610807087022394" lon="10.537611986331385"><ele>93.0</ele><time>2026-05-01T10:28:30.001Z</time></trkpt><trkpt lat="45.6108456387668" lon="10.537742897861342"><ele>91.2</ele><time>2026-05-01T10:28:33.001Z</time></trkpt><trkpt lat="45.610879836164116" lon="10.537918957560901"><ele>89.4</ele><time>2026-05-01T10:28:35.001Z</time></trkpt><trkpt lat="45.61090794918082" lon="10.538020284852504"><ele>87.60000000000001</ele><time>2026-05-01T10:28:36.001Z</time></trkpt><trkpt lat="45.610957457919746" lon="10.5381177463079"><ele>85.80000000000001</ele><time>2026-05-01T10:28:37.001Z</time></trkpt><trkpt lat="45.610984201136674" lon="10.53822961765928"><ele>84.0</ele><time>2026-05-01T10:28:38.001Z</time></trkpt><trkpt lat="45.61102039394382" lon="10.538333744824714"><ele>84.0</ele><time>2026-05-01T10:28:39.001Z</time></trkpt><trkpt lat="45.6110496805966" lon="10.538421706806357"><ele>84.0</ele><time>2026-05-01T10:28:40.001Z</time></trkpt><trkpt lat="45.611101134626594" lon="10.538564565341584"><ele>84.0</ele><time>2026-05-01T10:28:42.001Z</time></trkpt><trkpt lat="45.611136961843066" lon="10.538659312640052"><ele>84.0</ele><time>2026-05-01T10:28:44.001Z</time></trkpt><trkpt lat="45.611171382316066" lon="10.538741223080649"><ele>84.0</ele><time>2026-05-01T10:28:47.002Z</time></trkpt><trkpt lat="45.611209246531224" lon="10.538835124192435"><ele>84.0</ele><time>2026-05-01T10:28:50.002Z</time></trkpt><trkpt lat="45.6112667784811" lon="10.53895658448657"><ele>84.33333333333333</ele><time>2026-05-01T10:28:52.002Z</time></trkpt><trkpt lat="45.61131062939509" lon="10.539092932060857"><ele>84.66666666666667</ele><time>2026-05-01T10:28:54.002Z</time></trkpt><trkpt lat="45.61133422318744" lon="10.539179964064136"><ele>85.0</ele><time>2026-05-01T10:28:56.002Z</time></trkpt><trkpt lat="45.61136635036598" lon="10.53926760649656"><ele>85.33333333333334</ele><time>2026-05-01T10:29:05.002Z</time></trkpt><trkpt lat="45.61141957250419" lon="10.539416875991632"><ele>85.66666666666667</ele><time>2026-05-01T10:29:07Z</time></trkpt><trkpt lat="45.611465134734125" lon="10.53952191431844"><ele>86.0</ele><time>2026-05-01T10:29:08Z</time></trkpt><trkpt lat="45.61151679138329" lon="10.539654371647645"><ele>86.0</ele><time>2026-05-01T10:29:09Z</time></trkpt><trkpt lat="45.61156514316138" lon="10.539783062207691"><ele>86.0</ele><time>2026-05-01T10:29:10Z</time></trkpt><trkpt lat="45.61161083910908" lon="10.539918940009985"><ele>86.0</ele><time>2026-05-01T10:29:11Z</time></trkpt><trkpt lat="45.61165865817089" lon="10.540051404256806"><ele>86.0</ele><time>2026-05-01T10:29:12Z</time></trkpt><trkpt lat="45.61170287044192" lon="10.540169862069757"><ele>86.0</ele><time>2026-05-01T10:29:13Z</time></trkpt><trkpt lat="45.61175132410369" lon="10.540289507268453"><ele>84.5</ele><time>2026-05-01T10:29:14Z</time></trkpt><trkpt lat="45.61179074440818" lon="10.540388141296374"><ele>83.0</ele><time>2026-05-01T10:29:15Z</time></trkpt><trkpt lat="45.6118199714814" lon="10.54047533638675"><ele>81.5</ele><time>2026-05-01T10:29:16Z</time></trkpt><trkpt lat="45.61185635753389" lon="10.540567821450278"><ele>80.0</ele><time>2026-05-01T10:29:17Z</time></trkpt><trkpt lat="45.611904024424845" lon="10.540679211902967"><ele>78.5</ele><time>2026-05-01T10:29:18Z</time></trkpt><trkpt lat="45.61195024069724" lon="10.540802118437641"><ele>77.0</ele><time>2026-05-01T10:29:19Z</time></trkpt><trkpt lat="45.61199898028117" lon="10.54091988830098"><ele>78.6</ele><time>2026-05-01T10:29:20Z</time></trkpt><trkpt lat="45.61203712168058" lon="10.541038139864034"><ele>80.2</ele><time>2026-05-01T10:29:21Z</time></trkpt><trkpt lat="45.612077312143306" lon="10.541153316859571"><ele>81.8</ele><time>2026-05-01T10:29:22Z</time></trkpt><trkpt lat="45.61211834188464" lon="10.54127204508824"><ele>83.4</ele><time>2026-05-01T10:29:23Z</time></trkpt><trkpt lat="45.61216506197395" lon="10.541395154011862"><ele>85.0</ele><time>2026-05-01T10:29:24Z</time></trkpt><trkpt lat="45.61221326723144" lon="10.541522134802754"><ele>85.0</ele><time>2026-05-01T10:29:25Z</time></trkpt><trkpt lat="45.61225698705434" lon="10.54165148056062"><ele>85.0</ele><time>2026-05-01T10:29:26Z</time></trkpt><trkpt lat="45.61229792290005" lon="10.541778298950268"><ele>85.0</ele><time>2026-05-01T10:29:27Z</time></trkpt><trkpt lat="45.61233490927959" lon="10.541904161422469"><ele>85.0</ele><time>2026-05-01T10:29:28Z</time></trkpt><trkpt lat="45.61237646332252" lon="10.542014999655924"><ele>85.0</ele><time>2026-05-01T10:29:29Z</time></trkpt><trkpt lat="45.61241461656141" lon="10.542123514776392"><ele>84.0</ele><time>2026-05-01T10:29:30Z</time></trkpt><trkpt lat="45.61245734575526" lon="10.54222931558098"><ele>83.0</ele><time>2026-05-01T10:29:31Z</time></trkpt><trkpt lat="45.612494341376184" lon="10.542342127583169"><ele>82.0</ele><time>2026-05-01T10:29:32Z</time></trkpt><trkpt lat="45.612526373847125" lon="10.54246671537679"><ele>81.0</ele><time>2026-05-01T10:29:33Z</time></trkpt><trkpt lat="45.61255731520289" lon="10.54258212586229"><ele>80.0</ele><time>2026-05-01T10:29:34Z</time></trkpt><trkpt lat="45.612590341847" lon="10.542680322341676"><ele>79.0</ele><time>2026-05-01T10:29:35Z</time></trkpt><trkpt lat="45.612618425746994" lon="10.542765345503959"><ele>79.0</ele><time>2026-05-01T10:29:36Z</time></trkpt><trkpt lat="45.61262921110065" lon="10.54287301704969"><ele>79.0</ele><time>2026-05-01T10:29:37Z</time></trkpt><trkpt lat="45.61265147398128" lon="10.542978334950304"><ele>79.0</ele><time>2026-05-01T10:29:38Z</time></trkpt><trkpt lat="45.612671936534916" lon="10.543090980265335"><ele>79.0</ele><time>2026-05-01T10:29:39Z</time></trkpt><trkpt lat="45.61269035748205" lon="10.543219782778323"><ele>79.0</ele><time>2026-05-01T10:29:40Z</time></trkpt><trkpt lat="45.61271011014328" lon="10.543340154733272"><ele>79.0</ele><time>2026-05-01T10:29:41Z</time></trkpt><trkpt lat="45.61272832630069" lon="10.543456625216043"><ele>78.16666666666666</ele><time>2026-05-01T10:29:42Z</time></trkpt><trkpt lat="45.61274720024344" lon="10.543562265682832"><ele>77.33333333333333</ele><time>2026-05-01T10:29:43Z</time></trkpt><trkpt lat="45.61276639346953" lon="10.543664713364711"><ele>76.5</ele><time>2026-05-01T10:29:44Z</time></trkpt><trkpt lat="45.612793979907835" lon="10.54377327337734"><ele>75.66666666666667</ele><time>2026-05-01T10:29:45Z</time></trkpt><trkpt lat="45.612828585549956" lon="10.543881473591961"><ele>74.83333333333334</ele><time>2026-05-01T10:29:46Z</time></trkpt><trkpt lat="45.61285548160631" lon="10.54398809984109"><ele>74.0</ele><time>2026-05-01T10:29:47.001Z</time></trkpt><trkpt lat="45.612890627854554" lon="10.544107244492075"><ele>76.2</ele><time>2026-05-01T10:29:48.001Z</time></trkpt><trkpt lat="45.61294327276314" lon="10.544224642938374"><ele>78.4</ele><time>2026-05-01T10:29:49.001Z</time></trkpt><trkpt lat="45.612988856227425" lon="10.544330244503572"><ele>80.6</ele><time>2026-05-01T10:29:50.001Z</time></trkpt><trkpt lat="45.61303462407751" lon="10.544444155273286"><ele>82.8</ele><time>2026-05-01T10:29:51.001Z</time></trkpt><trkpt lat="45.61307903769803" lon="10.544562493208812"><ele>85.0</ele><time>2026-05-01T10:29:52.001Z</time></trkpt><trkpt lat="45.613122167608125" lon="10.54468348066532"><ele>85.0</ele><time>2026-05-01T10:29:53.001Z</time></trkpt><trkpt lat="45.61315849193138" lon="10.544799152370944"><ele>85.0</ele><time>2026-05-01T10:29:54.001Z</time></trkpt><trkpt lat="45.61319747198351" lon="10.544901805504546"><ele>85.0</ele><time>2026-05-01T10:29:55.001Z</time></trkpt><trkpt lat="45.613234109009994" lon="10.544999258266232"><ele>85.0</ele><time>2026-05-01T10:29:56.001Z</time></trkpt><trkpt lat="45.61327754439279" lon="10.545072216950029"><ele>85.0</ele><time>2026-05-01T10:29:57.001Z</time></trkpt><trkpt lat="45.6133006483318" lon="10.545166729416065"><ele>85.0</ele><time>2026-05-01T10:29:58.001Z</time></trkpt><trkpt lat="45.61333114109343" lon="10.545247363602842"><ele>85.0</ele><time>2026-05-01T10:29:59.001Z</time></trkpt><trkpt lat="45.61336343138406" lon="10.545335153779414"><ele>83.5</ele><time>2026-05-01T10:30:00.001Z</time></trkpt><trkpt lat="45.61338379607466" lon="10.545420644869333"><ele>82.0</ele><time>2026-05-01T10:30:01.001Z</time></trkpt><trkpt lat="45.61341043268951" lon="10.545523258909036"><ele>80.5</ele><time>2026-05-01T10:30:02.001Z</time></trkpt><trkpt lat="45.61342935235239" lon="10.545653726441538"><ele>79.0</ele><time>2026-05-01T10:30:03.001Z</time></trkpt><trkpt lat="45.61344986450885" lon="10.545766648591819"><ele>77.5</ele><time>2026-05-01T10:30:04.001Z</time></trkpt><trkpt lat="45.61347847418809" lon="10.545895808206417"><ele>76.0</ele><time>2026-05-01T10:30:05.001Z</time></trkpt><trkpt lat="45.61350461649533" lon="10.54601719099548"><ele>76.0</ele><time>2026-05-01T10:30:06.001Z</time></trkpt><trkpt lat="45.6135342678826" lon="10.546157021948874"><ele>76.0</ele><time>2026-05-01T10:30:07.001Z</time></trkpt><trkpt lat="45.61356836946317" lon="10.546294409871033"><ele>76.0</ele><time>2026-05-01T10:30:08.001Z</time></trkpt><trkpt lat="45.61359922615748" lon="10.546443150217044"><ele>76.0</ele><time>2026-05-01T10:30:09.001Z</time></trkpt><trkpt lat="45.61362800044872" lon="10.546598024833264"><ele>76.0</ele><time>2026-05-01T10:30:10.001Z</time></trkpt><trkpt lat="45.61365608645809" lon="10.546747611014627"><ele>76.6</ele><time>2026-05-01T10:30:11.001Z</time></trkpt><trkpt lat="45.613687879487685" lon="10.546891967863449"><ele>77.19999999999999</ele><time>2026-05-01T10:30:12.001Z</time></trkpt><trkpt lat="45.61372310229251" lon="10.547042445442838"><ele>77.80000000000001</ele><time>2026-05-01T10:30:13.001Z</time></trkpt><trkpt lat="45.6137405365947" lon="10.547185893378428"><ele>78.4</ele><time>2026-05-01T10:30:14.001Z</time></trkpt><trkpt lat="45.61376396822976" lon="10.547291525043136"><ele>79.0</ele><time>2026-05-01T10:30:15.001Z</time></trkpt><trkpt lat="45.613786316038286" lon="10.547447012968192"><ele>79.0</ele><time>2026-05-01T10:30:17.001Z</time></trkpt><trkpt lat="45.61381523611111" lon="10.547582221290552"><ele>79.0</ele><time>2026-05-01T10:30:19.001Z</time></trkpt><trkpt lat="45.61383321848957" lon="10.5476738610802"><ele>79.0</ele><time>2026-05-01T10:30:20.001Z</time></trkpt><trkpt lat="45.613847579371544" lon="10.547765825674771"><ele>79.0</ele><time>2026-05-01T10:30:21.001Z</time></trkpt><trkpt lat="45.61387756883347" lon="10.547890095545778"><ele>79.0</ele><time>2026-05-01T10:30:22.001Z</time></trkpt><trkpt lat="45.61388831415145" lon="10.54803366286487"><ele>79.0</ele><time>2026-05-01T10:30:23.001Z</time></trkpt><trkpt lat="45.61392484043167" lon="10.548187029501443"><ele>78.2</ele><time>2026-05-01T10:30:24.001Z</time></trkpt><trkpt lat="45.61395759755976" lon="10.548329138995031"><ele>77.4</ele><time>2026-05-01T10:30:25.001Z</time></trkpt><trkpt lat="45.613976867326016" lon="10.548453264884525"><ele>76.6</ele><time>2026-05-01T10:30:26.001Z</time></trkpt><trkpt lat="45.61399844710419" lon="10.548569392037972"><ele>75.8</ele><time>2026-05-01T10:30:27.001Z</time></trkpt><trkpt lat="45.6140185876907" lon="10.548675328859593"><ele>75.0</ele><time>2026-05-01T10:30:28.001Z</time></trkpt><trkpt lat="45.61403386455689" lon="10.548824444067115"><ele>74.6</ele><time>2026-05-01T10:30:30.001Z</time></trkpt><trkpt lat="45.614061287262544" lon="10.548961245453269"><ele>74.2</ele><time>2026-05-01T10:30:32.001Z</time></trkpt><trkpt lat="45.614089054334876" lon="10.549090833913768"><ele>73.8</ele><time>2026-05-01T10:30:35.001Z</time></trkpt><trkpt lat="45.61411903619037" lon="10.549222333760092"><ele>73.4</ele><time>2026-05-01T10:30:37.001Z</time></trkpt><trkpt lat="45.61414475705331" lon="10.54941445232308"><ele>73.0</ele><time>2026-05-01T10:30:39.001Z</time></trkpt><trkpt lat="45.61417488012736" lon="10.549510787777283"><ele>73.0</ele><time>2026-05-01T10:30:40.001Z</time></trkpt><trkpt lat="45.61419767494861" lon="10.549659746240263"><ele>73.0</ele><time>2026-05-01T10:30:42.001Z</time></trkpt><trkpt lat="45.614220452654905" lon="10.549767464495272"><ele>73.0</ele><time>2026-05-01T10:30:44.001Z</time></trkpt><trkpt lat="45.61425104255538" lon="10.549904773108151"><ele>73.0</ele><time>2026-05-01T10:30:46.001Z</time></trkpt><trkpt lat="45.61425729191648" lon="10.550025269798265"><ele>73.0</ele><time>2026-05-01T10:30:47.001Z</time></trkpt><trkpt lat="45.61428119067268" lon="10.550154967898996"><ele>73.0</ele><time>2026-05-01T10:30:48.001Z</time></trkpt><trkpt lat="45.61430452832152" lon="10.550281620707421"><ele>73.0</ele><time>2026-05-01T10:30:49.001Z</time></trkpt><trkpt lat="45.61432429626048" lon="10.550388898467144"><ele>73.0</ele><time>2026-05-01T10:30:50.001Z</time></trkpt><trkpt lat="45.614353097968056" lon="10.55052942452525"><ele>73.0</ele><time>2026-05-01T10:30:51.001Z</time></trkpt><trkpt lat="45.6143837694242" lon="10.550663825510487"><ele>73.0</ele><time>2026-05-01T10:30:52.001Z</time></trkpt><trkpt lat="45.61441760964569" lon="10.550794561561677"><ele>72.8</ele><time>2026-05-01T10:30:53.001Z</time></trkpt><trkpt lat="45.61445499896248" lon="10.550923774063248"><ele>72.6</ele><time>2026-05-01T10:30:54.001Z</time></trkpt><trkpt lat="45.61449219828973" lon="10.551035527482476"><ele>72.4</ele><time>2026-05-01T10:30:55.001Z</time></trkpt><trkpt lat="45.61454347201753" lon="10.551175135804852"><ele>72.2</ele><time>2026-05-01T10:30:56.002Z</time></trkpt><trkpt lat="45.61461738194369" lon="10.551360236926376"><ele>72.0</ele><time>2026-05-01T10:30:57.002Z</time></trkpt><trkpt lat="45.61469574516431" lon="10.551556023285622"><ele>72.8</ele><time>2026-05-01T10:30:58.002Z</time></trkpt><trkpt lat="45.61475702225819" lon="10.55170911766349"><ele>73.6</ele><time>2026-05-01T10:30:59.002Z</time></trkpt><trkpt lat="45.61480699172788" lon="10.55183296832031"><ele>74.39999999999999</ele><time>2026-05-01T10:31:00.002Z</time></trkpt><trkpt lat="45.61486700544967" lon="10.5519585516338"><ele>75.2</ele><time>2026-05-01T10:31:02.002Z</time></trkpt><trkpt lat="45.61491149580495" lon="10.552084489311927"><ele>76.0</ele><time>2026-05-01T10:31:03.002Z</time></trkpt><trkpt lat="45.61495307202174" lon="10.552205281344332"><ele>76.0</ele><time>2026-05-01T10:31:04.002Z</time></trkpt><trkpt lat="45.61499406762634" lon="10.552308475465498"><ele>76.0</ele><time>2026-05-01T10:31:05.002Z</time></trkpt><trkpt lat="45.615031368053515" lon="10.552393247023094"><ele>76.0</ele><time>2026-05-01T10:31:06.002Z</time></trkpt><trkpt lat="45.61506957128134" lon="10.552469740258118"><ele>76.0</ele><time>2026-05-01T10:31:07.002Z</time></trkpt><trkpt lat="45.615117736809644" lon="10.55261287653916"><ele>76.0</ele><time>2026-05-01T10:31:09.002Z</time></trkpt><trkpt lat="45.6151718369702" lon="10.552738474804114"><ele>76.0</ele><time>2026-05-01T10:31:11.002Z</time></trkpt><trkpt lat="45.61522032005323" lon="10.552870393218715"><ele>75.6</ele><time>2026-05-01T10:31:13Z</time></trkpt><trkpt lat="45.61527500279757" lon="10.552980106140014"><ele>75.19999999999999</ele><time>2026-05-01T10:31:15Z</time></trkpt><trkpt lat="45.61531274459389" lon="10.553080772021296"><ele>74.80000000000001</ele><time>2026-05-01T10:31:17Z</time></trkpt><trkpt lat="45.6153604551104" lon="10.553215238533491"><ele>74.4</ele><time>2026-05-01T10:31:19Z</time></trkpt><trkpt lat="45.61541093113557" lon="10.553329872453551"><ele>74.0</ele><time>2026-05-01T10:31:21Z</time></trkpt><trkpt lat="45.61546806669491" lon="10.55345005608657"><ele>75.4</ele><time>2026-05-01T10:31:23Z</time></trkpt><trkpt lat="45.6155383566965" lon="10.553626220475014"><ele>76.80000000000001</ele><time>2026-05-01T10:31:25Z</time></trkpt><trkpt lat="45.61557581329244" lon="10.553707216568773"><ele>78.19999999999999</ele><time>2026-05-01T10:31:26Z</time></trkpt><trkpt lat="45.61564451711948" lon="10.553846201411094"><ele>79.6</ele><time>2026-05-01T10:31:28Z</time></trkpt><trkpt lat="45.61570006350806" lon="10.553962522903932"><ele>81.0</ele><time>2026-05-01T10:31:30Z</time></trkpt><trkpt lat="45.615730436929695" lon="10.554041452697513"><ele>81.0</ele><time>2026-05-01T10:31:31Z</time></trkpt><trkpt lat="45.6157755329598" lon="10.55413531891213"><ele>81.0</ele><time>2026-05-01T10:31:32Z</time></trkpt><trkpt lat="45.615826256027866" lon="10.554250918050531"><ele>81.0</ele><time>2026-05-01T10:31:33Z</time></trkpt><trkpt lat="45.61589320504984" lon="10.554386189217773"><ele>81.0</ele><time>2026-05-01T10:31:34Z</time></trkpt><trkpt lat="45.61598290846557" lon="10.554544139483344"><ele>81.0</ele><time>2026-05-01T10:31:35Z</time></trkpt><trkpt lat="45.61604661592783" lon="10.554693680536209"><ele>80.2</ele><time>2026-05-01T10:31:36Z</time></trkpt><trkpt lat="45.61611088486051" lon="10.554829946272797"><ele>79.39999999999999</ele><time>2026-05-01T10:31:37Z</time></trkpt><trkpt lat="45.61617393304485" lon="10.554961097306968"><ele>78.6</ele><time>2026-05-01T10:31:38Z</time></trkpt><trkpt lat="45.616233088546686" lon="10.555089835029563"><ele>77.8</ele><time>2026-05-01T10:31:39Z</time></trkpt><trkpt lat="45.616285325723965" lon="10.555203896379037"><ele>77.0</ele><time>2026-05-01T10:31:40Z</time></trkpt><trkpt lat="45.616328534692755" lon="10.555311076682905"><ele>77.0</ele><time>2026-05-01T10:31:41Z</time></trkpt><trkpt lat="45.616375791518564" lon="10.555413015120973"><ele>77.0</ele><time>2026-05-01T10:31:42Z</time></trkpt><trkpt lat="45.61642603472762" lon="10.555510780208246"><ele>77.0</ele><time>2026-05-01T10:31:43Z</time></trkpt><trkpt lat="45.61647603898112" lon="10.55559699290743"><ele>77.0</ele><time>2026-05-01T10:31:44Z</time></trkpt><trkpt lat="45.61652228178741" lon="10.555694086775793"><ele>77.0</ele><time>2026-05-01T10:31:45Z</time></trkpt><trkpt lat="45.61657336430099" lon="10.555790684105466"><ele>77.0</ele><time>2026-05-01T10:31:46Z</time></trkpt><trkpt lat="45.61661717648968" lon="10.5558852092702"><ele>77.0</ele><time>2026-05-01T10:31:47Z</time></trkpt><trkpt lat="45.61666600356848" lon="10.555970399732072"><ele>77.0</ele><time>2026-05-01T10:31:48Z</time></trkpt><trkpt lat="45.61670302878372" lon="10.556044759041157"><ele>77.0</ele><time>2026-05-01T10:31:49Z</time></trkpt><trkpt lat="45.61675964399729" lon="10.55613860165181"><ele>77.0</ele><time>2026-05-01T10:31:51.001Z</time></trkpt><trkpt lat="45.616799156184626" lon="10.55621658195159"><ele>77.0</ele><time>2026-05-01T10:31:52.001Z</time></trkpt><trkpt lat="45.61686211740075" lon="10.556335503753338"><ele>77.0</ele><time>2026-05-01T10:31:53.001Z</time></trkpt><trkpt lat="45.616925264660786" lon="10.556449332836975"><ele>77.5</ele><time>2026-05-01T10:31:54.001Z</time></trkpt><trkpt lat="45.61698011663951" lon="10.556549119393773"><ele>78.0</ele><time>2026-05-01T10:31:55.001Z</time></trkpt><trkpt lat="45.61702502372227" lon="10.55664546313702"><ele>78.5</ele><time>2026-05-01T10:31:56.001Z</time></trkpt><trkpt lat="45.617070933760786" lon="10.556731269814877"><ele>79.0</ele><time>2026-05-01T10:31:57.001Z</time></trkpt><trkpt lat="45.61711630116443" lon="10.556807025976834"><ele>79.5</ele><time>2026-05-01T10:31:58.001Z</time></trkpt><trkpt lat="45.61715431669721" lon="10.55689565850047"><ele>80.0</ele><time>2026-05-01T10:31:59.001Z</time></trkpt><trkpt lat="45.61719788586193" lon="10.556983352752924"><ele>79.8</ele><time>2026-05-01T10:32:00.001Z</time></trkpt><trkpt lat="45.61724984383302" lon="10.557086557334305"><ele>79.6</ele><time>2026-05-01T10:32:01.001Z</time></trkpt><trkpt lat="45.61732055888378" lon="10.557205707806403"><ele>79.4</ele><time>2026-05-01T10:32:02.001Z</time></trkpt><trkpt lat="45.6173838208631" lon="10.557335638193285"><ele>79.2</ele><time>2026-05-01T10:32:03.001Z</time></trkpt><trkpt lat="45.61746045913717" lon="10.557470195148316"><ele>79.0</ele><time>2026-05-01T10:32:04.001Z</time></trkpt><trkpt lat="45.61752012096155" lon="10.557592424531666"><ele>79.0</ele><time>2026-05-01T10:32:05.001Z</time></trkpt><trkpt lat="45.617594207738215" lon="10.557703411686864"><ele>79.0</ele><time>2026-05-01T10:32:06.001Z</time></trkpt><trkpt lat="45.617639297207994" lon="10.557803345271862"><ele>79.0</ele><time>2026-05-01T10:32:07.001Z</time></trkpt><trkpt lat="45.61767146003803" lon="10.557898599513985"><ele>79.0</ele><time>2026-05-01T10:32:08.001Z</time></trkpt><trkpt lat="45.61771239810716" lon="10.557991096906354"><ele>79.0</ele><time>2026-05-01T10:32:09.001Z</time></trkpt><trkpt lat="45.61775217580287" lon="10.558070035674808"><ele>79.0</ele><time>2026-05-01T10:32:10.001Z</time></trkpt><trkpt lat="45.61779036246377" lon="10.558149456806891"><ele>79.33333333333333</ele><time>2026-05-01T10:32:11.001Z</time></trkpt><trkpt lat="45.61783617979951" lon="10.5582235783875"><ele>79.66666666666666</ele><time>2026-05-01T10:32:12.001Z</time></trkpt><trkpt lat="45.61788752513092" lon="10.558318370238869"><ele>80.0</ele><time>2026-05-01T10:32:13.001Z</time></trkpt><trkpt lat="45.61791621149722" lon="10.558421200524808"><ele>80.33333333333333</ele><time>2026-05-01T10:32:14.001Z</time></trkpt><trkpt lat="45.617943658082446" lon="10.558506435907834"><ele>80.66666666666667</ele><time>2026-05-01T10:32:15.001Z</time></trkpt><trkpt lat="45.61797035899462" lon="10.558599375505779"><ele>81.0</ele><time>2026-05-01T10:32:16.001Z</time></trkpt><trkpt lat="45.618000267582126" lon="10.558714009830133"><ele>80.0</ele><time>2026-05-01T10:32:17.001Z</time></trkpt><trkpt lat="45.618055784589046" lon="10.558835862197133"><ele>79.0</ele><time>2026-05-01T10:32:18.001Z</time></trkpt><trkpt lat="45.61810194568205" lon="10.558993390231727"><ele>78.0</ele><time>2026-05-01T10:32:19.001Z</time></trkpt><trkpt lat="45.6181047834814" lon="10.559158183275338"><ele>77.0</ele><time>2026-05-01T10:32:20.001Z</time></trkpt><trkpt lat="45.61813464520158" lon="10.559305076850817"><ele>76.0</ele><time>2026-05-01T10:32:21.001Z</time></trkpt><trkpt lat="45.61816634398971" lon="10.559468286188482"><ele>75.5</ele><time>2026-05-01T10:32:22.001Z</time></trkpt><trkpt lat="45.61819660793567" lon="10.559629411027743"><ele>75.0</ele><time>2026-05-01T10:32:23.001Z</time></trkpt><trkpt lat="45.61823019821615" lon="10.559805992516837"><ele>74.5</ele><time>2026-05-01T10:32:24.001Z</time></trkpt><trkpt lat="45.61826462897149" lon="10.559981953062684"><ele>74.0</ele><time>2026-05-01T10:32:25.001Z</time></trkpt><trkpt lat="45.61831185136609" lon="10.56015654895394"><ele>74.0</ele><time>2026-05-01T10:32:26.001Z</time></trkpt><trkpt lat="45.618338066859366" lon="10.560333502875105"><ele>74.0</ele><time>2026-05-01T10:32:27.001Z</time></trkpt><trkpt lat="45.61837116808039" lon="10.560487694655686"><ele>74.0</ele><time>2026-05-01T10:32:28.001Z</time></trkpt><trkpt lat="45.61840149728174" lon="10.560634525850253"><ele>74.0</ele><time>2026-05-01T10:32:29.001Z</time></trkpt><trkpt lat="45.618426960161294" lon="10.560789708669873"><ele>73.8</ele><time>2026-05-01T10:32:30.001Z</time></trkpt><trkpt lat="45.61845232048639" lon="10.56094218982132"><ele>73.60000000000001</ele><time>2026-05-01T10:32:31.001Z</time></trkpt><trkpt lat="45.61848148976983" lon="10.561083296244082"><ele>73.4</ele><time>2026-05-01T10:32:32.001Z</time></trkpt><trkpt lat="45.618511339751294" lon="10.561241541762229"><ele>73.2</ele><time>2026-05-01T10:32:33.001Z</time></trkpt><trkpt lat="45.618548071579355" lon="10.561396091840097"><ele>73.0</ele><time>2026-05-01T10:32:34.001Z</time></trkpt><trkpt lat="45.6185754791101" lon="10.561542115477078"><ele>72.8</ele><time>2026-05-01T10:32:35.001Z</time></trkpt><trkpt lat="45.61860627375018" lon="10.561684193566704"><ele>72.6</ele><time>2026-05-01T10:32:36.001Z</time></trkpt><trkpt lat="45.61862832805894" lon="10.561809863710154"><ele>72.4</ele><time>2026-05-01T10:32:37.001Z</time></trkpt><trkpt lat="45.618652415831065" lon="10.56194045206779"><ele>72.2</ele><time>2026-05-01T10:32:38.001Z</time></trkpt><trkpt lat="45.618674525246" lon="10.562086397189171"><ele>72.0</ele><time>2026-05-01T10:32:39.001Z</time></trkpt><trkpt lat="45.61870873812173" lon="10.562243967438599"><ele>72.8</ele><time>2026-05-01T10:32:40.001Z</time></trkpt><trkpt lat="45.61873349810955" lon="10.562407380661943"><ele>73.6</ele><time>2026-05-01T10:32:41.001Z</time></trkpt><trkpt lat="45.61877605217458" lon="10.562544596040992"><ele>74.39999999999999</ele><time>2026-05-01T10:32:42.001Z</time></trkpt><trkpt lat="45.618786119959246" lon="10.56269762876901"><ele>75.2</ele><time>2026-05-01T10:32:43.001Z</time></trkpt><trkpt lat="45.618828340105516" lon="10.56282392172917"><ele>76.0</ele><time>2026-05-01T10:32:44.001Z</time></trkpt><trkpt lat="45.618846502306276" lon="10.562954003203219"><ele>76.0</ele><time>2026-05-01T10:32:45.001Z</time></trkpt><trkpt lat="45.61887740785551" lon="10.563053395224205"><ele>76.0</ele><time>2026-05-01T10:32:46.001Z</time></trkpt><trkpt lat="45.618906905256964" lon="10.563148878214676"><ele>76.0</ele><time>2026-05-01T10:32:47.001Z</time></trkpt><trkpt lat="45.61893441223174" lon="10.563243105413273"><ele>76.0</ele><time>2026-05-01T10:32:48.001Z</time></trkpt><trkpt lat="45.61896459421462" lon="10.563338617388657"><ele>76.0</ele><time>2026-05-01T10:32:49.001Z</time></trkpt><trkpt lat="45.618988013914944" lon="10.563442543700457"><ele>76.0</ele><time>2026-05-01T10:32:50.001Z</time></trkpt><trkpt lat="45.61901938663873" lon="10.563542628697776"><ele>76.0</ele><time>2026-05-01T10:32:51.001Z</time></trkpt><trkpt lat="45.61904651577964" lon="10.563641977791917"><ele>75.5</ele><time>2026-05-01T10:32:52.001Z</time></trkpt><trkpt lat="45.61907353904024" lon="10.563740519156156"><ele>75.0</ele><time>2026-05-01T10:32:53.001Z</time></trkpt><trkpt lat="45.61912127656784" lon="10.563845463526691"><ele>74.5</ele><time>2026-05-01T10:32:54.001Z</time></trkpt><trkpt lat="45.619145446661626" lon="10.564007687063574"><ele>74.0</ele><time>2026-05-01T10:32:56.001Z</time></trkpt><trkpt lat="45.619174677158675" lon="10.564110157549987"><ele>73.5</ele><time>2026-05-01T10:32:57.001Z</time></trkpt><trkpt lat="45.619210180658776" lon="10.564222686135237"><ele>73.0</ele><time>2026-05-01T10:32:58.001Z</time></trkpt><trkpt lat="45.61924700936955" lon="10.564349502000601"><ele>73.0</ele><time>2026-05-01T10:32:59.001Z</time></trkpt><trkpt lat="45.61928520645393" lon="10.564478754803112"><ele>73.0</ele><time>2026-05-01T10:33:00.001Z</time></trkpt><trkpt lat="45.619324776909565" lon="10.564616880581129"><ele>73.0</ele><time>2026-05-01T10:33:01.001Z</time></trkpt><trkpt lat="45.61937588941395" lon="10.564755791034475"><ele>73.0</ele><time>2026-05-01T10:33:02.001Z</time></trkpt><trkpt lat="45.61943334724525" lon="10.56486783666207"><ele>73.0</ele><time>2026-05-01T10:33:03.001Z</time></trkpt><trkpt lat="45.619502114060715" lon="10.564973607353389"><ele>73.4</ele><time>2026-05-01T10:33:04.002Z</time></trkpt><trkpt lat="45.61956991657962" lon="10.565076475539453"><ele>73.8</ele><time>2026-05-01T10:33:05.002Z</time></trkpt><trkpt lat="45.619632002493816" lon="10.565179579175126"><ele>74.2</ele><time>2026-05-01T10:33:06.002Z</time></trkpt><trkpt lat="45.619701571150735" lon="10.565274814478785"><ele>74.6</ele><time>2026-05-01T10:33:07.002Z</time></trkpt><trkpt lat="45.61977366042861" lon="10.56537205540494"><ele>75.0</ele><time>2026-05-01T10:33:08.002Z</time></trkpt><trkpt lat="45.61984827331156" lon="10.565481978345588"><ele>73.5</ele><time>2026-05-01T10:33:09.002Z</time></trkpt><trkpt lat="45.61991421445875" lon="10.565579640144177"><ele>72.0</ele><time>2026-05-01T10:33:10.002Z</time></trkpt><trkpt lat="45.620001438838415" lon="10.565684994405485"><ele>70.5</ele><time>2026-05-01T10:33:11.002Z</time></trkpt><trkpt lat="45.62007865569165" lon="10.565799232945903"><ele>69.0</ele><time>2026-05-01T10:33:12.002Z</time></trkpt><trkpt lat="45.62017677344784" lon="10.56593345985166"><ele>69.0</ele><time>2026-05-01T10:33:13.002Z</time></trkpt><trkpt lat="45.62028852053429" lon="10.566087242001364"><ele>69.0</ele><time>2026-05-01T10:33:14.002Z</time></trkpt><trkpt lat="45.62038443546776" lon="10.5662757140293"><ele>69.0</ele><time>2026-05-01T10:33:15.002Z</time></trkpt><trkpt lat="45.62049777530547" lon="10.566456931881342"><ele>68.33333333333333</ele><time>2026-05-01T10:33:16.002Z</time></trkpt><trkpt lat="45.62061386301948" lon="10.56664023105918"><ele>67.66666666666666</ele><time>2026-05-01T10:33:17.002Z</time></trkpt><trkpt lat="45.620744407706916" lon="10.566827814791095"><ele>67.0</ele><time>2026-05-01T10:33:18.001Z</time></trkpt><trkpt lat="45.6208860646503" lon="10.567047324007003"><ele>67.0</ele><time>2026-05-01T10:33:19.001Z</time></trkpt><trkpt lat="45.621007055887986" lon="10.567231152734179"><ele>67.0</ele><time>2026-05-01T10:33:20.001Z</time></trkpt><trkpt lat="45.6211280318557" lon="10.567404692490229"><ele>67.0</ele><time>2026-05-01T10:33:21.001Z</time></trkpt><trkpt lat="45.621244261927416" lon="10.567600491993723"><ele>70.0</ele><time>2026-05-01T10:33:22.001Z</time></trkpt><trkpt lat="45.621355867591625" lon="10.567811686118205"><ele>73.0</ele><time>2026-05-01T10:33:23.001Z</time></trkpt><trkpt lat="45.62145878802328" lon="10.568000800895"><ele>76.0</ele><time>2026-05-01T10:33:24.001Z</time></trkpt><trkpt lat="45.62154520147967" lon="10.568150941747113"><ele>76.0</ele><time>2026-05-01T10:33:25.001Z</time></trkpt><trkpt lat="45.62165282779584" lon="10.568277536839766"><ele>76.0</ele><time>2026-05-01T10:33:26Z</time></trkpt><trkpt lat="45.62173357124484" lon="10.568406627397094"><ele>76.0</ele><time>2026-05-01T10:33:27Z</time></trkpt><trkpt lat="45.62178297878524" lon="10.568526103184041"><ele>76.0</ele><time>2026-05-01T10:33:28Z</time></trkpt><trkpt lat="45.62184451466789" lon="10.568647707160094"><ele>74.25</ele><time>2026-05-01T10:33:29Z</time></trkpt><trkpt lat="45.62189759926991" lon="10.568764535180069"><ele>72.5</ele><time>2026-05-01T10:33:30Z</time></trkpt><trkpt lat="45.62196277002513" lon="10.56888560026629"><ele>70.75</ele><time>2026-05-01T10:33:31Z</time></trkpt><trkpt lat="45.622023924953155" lon="10.569023603684094"><ele>69.0</ele><time>2026-05-01T10:33:32Z</time></trkpt><trkpt lat="45.622091994262696" lon="10.569195887648279"><ele>70.5</ele><time>2026-05-01T10:33:33Z</time></trkpt><trkpt lat="45.62215964764876" lon="10.569373380600108"><ele>72.0</ele><time>2026-05-01T10:33:34Z</time></trkpt><trkpt lat="45.62222928026454" lon="10.569535730362709"><ele>73.5</ele><time>2026-05-01T10:33:35Z</time></trkpt><trkpt lat="45.622300340577866" lon="10.56970951713872"><ele>75.0</ele><time>2026-05-01T10:33:36Z</time></trkpt><trkpt lat="45.62238475756393" lon="10.569882749687059"><ele>75.0</ele><time>2026-05-01T10:33:37Z</time></trkpt><trkpt lat="45.622472792928015" lon="10.57004660717526"><ele>75.0</ele><time>2026-05-01T10:33:38Z</time></trkpt><trkpt lat="45.62255806061894" lon="10.570193044707429"><ele>75.0</ele><time>2026-05-01T10:33:39Z</time></trkpt><trkpt lat="45.62265685252566" lon="10.570343975005471"><ele>75.0</ele><time>2026-05-01T10:33:40Z</time></trkpt><trkpt lat="45.62277118512746" lon="10.570500042012977"><ele>76.5</ele><time>2026-05-01T10:33:41Z</time></trkpt><trkpt lat="45.62287625560215" lon="10.570643165253394"><ele>78.0</ele><time>2026-05-01T10:33:42Z</time></trkpt><trkpt lat="45.62297465423641" lon="10.570764530637245"><ele>79.5</ele><time>2026-05-01T10:33:43Z</time></trkpt><trkpt lat="45.62307376731573" lon="10.570871932399335"><ele>81.0</ele><time>2026-05-01T10:33:44Z</time></trkpt><trkpt lat="45.62317667667286" lon="10.57096806197506"><ele>81.0</ele><time>2026-05-01T10:33:45Z</time></trkpt><trkpt lat="45.62326384704499" lon="10.571060908857804"><ele>81.0</ele><time>2026-05-01T10:33:46Z</time></trkpt><trkpt lat="45.62334881931876" lon="10.571169023393674"><ele>81.0</ele><time>2026-05-01T10:33:47Z</time></trkpt><trkpt lat="45.62343384481093" lon="10.571282155405868"><ele>81.0</ele><time>2026-05-01T10:33:48Z</time></trkpt><trkpt lat="45.623506179099316" lon="10.571407732837015"><ele>81.19999999999999</ele><time>2026-05-01T10:33:49.001Z</time></trkpt><trkpt lat="45.623577158454346" lon="10.571534348788628"><ele>81.39999999999999</ele><time>2026-05-01T10:33:50.001Z</time></trkpt><trkpt lat="45.62364197888801" lon="10.571674702356074"><ele>81.6</ele><time>2026-05-01T10:33:51.001Z</time></trkpt><trkpt lat="45.6236967644305" lon="10.571803131960635"><ele>81.8</ele><time>2026-05-01T10:33:52.001Z</time></trkpt><trkpt lat="45.62374356670243" lon="10.571929683405475"><ele>82.0</ele><time>2026-05-01T10:33:53.001Z</time></trkpt><trkpt lat="45.62379320476531" lon="10.572082509571773"><ele>82.0</ele><time>2026-05-01T10:33:54.001Z</time></trkpt><trkpt lat="45.623860316735154" lon="10.572227818701558"><ele>82.0</ele><time>2026-05-01T10:33:55.001Z</time></trkpt><trkpt lat="45.62390343800739" lon="10.572375916002363"><ele>82.0</ele><time>2026-05-01T10:33:56.001Z</time></trkpt><trkpt lat="45.62393904063769" lon="10.572517044646148"><ele>82.0</ele><time>2026-05-01T10:33:57.001Z</time></trkpt><trkpt lat="45.62398956644224" lon="10.572658337955703"><ele>82.0</ele><time>2026-05-01T10:33:58.001Z</time></trkpt><trkpt lat="45.624036493927704" lon="10.572790451256251"><ele>82.0</ele><time>2026-05-01T10:33:59.001Z</time></trkpt><trkpt lat="45.624082544919794" lon="10.572927954966127"><ele>82.0</ele><time>2026-05-01T10:34:00.001Z</time></trkpt><trkpt lat="45.62412956334248" lon="10.573075796833287"><ele>82.0</ele><time>2026-05-01T10:34:01.001Z</time></trkpt><trkpt lat="45.62418056651964" lon="10.573212715313103"><ele>82.0</ele><time>2026-05-01T10:34:02.001Z</time></trkpt><trkpt lat="45.62423922919356" lon="10.573337030455866"><ele>82.0</ele><time>2026-05-01T10:34:03.001Z</time></trkpt><trkpt lat="45.62429879841346" lon="10.573453958773671"><ele>82.0</ele><time>2026-05-01T10:34:04.001Z</time></trkpt><trkpt lat="45.624383846584045" lon="10.57357394056052"><ele>82.0</ele><time>2026-05-01T10:34:05.001Z</time></trkpt><trkpt lat="45.624488346147345" lon="10.57370801034086"><ele>82.0</ele><time>2026-05-01T10:34:06.001Z</time></trkpt><trkpt lat="45.62458917320319" lon="10.573856160941583"><ele>82.0</ele><time>2026-05-01T10:34:07.001Z</time></trkpt><trkpt lat="45.624695266063874" lon="10.574006504971456"><ele>82.0</ele><time>2026-05-01T10:34:08.001Z</time></trkpt><trkpt lat="45.62481586134923" lon="10.574147547518633"><ele>82.0</ele><time>2026-05-01T10:34:09.001Z</time></trkpt><trkpt lat="45.62493657538204" lon="10.57429810181975"><ele>82.0</ele><time>2026-05-01T10:34:10.001Z</time></trkpt><trkpt lat="45.625063399921785" lon="10.574470440008001"><ele>82.0</ele><time>2026-05-01T10:34:11.001Z</time></trkpt><trkpt lat="45.62516904146913" lon="10.574637713897948"><ele>82.0</ele><time>2026-05-01T10:34:12.001Z</time></trkpt><trkpt lat="45.6252656685425" lon="10.57486470991447"><ele>83.66666666666666</ele><time>2026-05-01T10:34:13.001Z</time></trkpt><trkpt lat="45.62534255596663" lon="10.57506423823922"><ele>85.33333333333333</ele><time>2026-05-01T10:34:14.001Z</time></trkpt><trkpt lat="45.625422014563995" lon="10.575283229516076"><ele>87.0</ele><time>2026-05-01T10:34:15.001Z</time></trkpt><trkpt lat="45.62549314137908" lon="10.575482559024355"><ele>87.0</ele><time>2026-05-01T10:34:16.001Z</time></trkpt><trkpt lat="45.62554735819594" lon="10.57569669339693"><ele>87.0</ele><time>2026-05-01T10:34:17.001Z</time></trkpt><trkpt lat="45.625594758331296" lon="10.575908277408365"><ele>87.0</ele><time>2026-05-01T10:34:18.001Z</time></trkpt><trkpt lat="45.62565554545975" lon="10.576107840592249"><ele>85.0</ele><time>2026-05-01T10:34:19.001Z</time></trkpt><trkpt lat="45.62570942563774" lon="10.576313693914743"><ele>83.0</ele><time>2026-05-01T10:34:20.001Z</time></trkpt><trkpt lat="45.62575677755598" lon="10.576518191087333"><ele>81.0</ele><time>2026-05-01T10:34:21.001Z</time></trkpt><trkpt lat="45.62580411577547" lon="10.576718186506492"><ele>81.0</ele><time>2026-05-01T10:34:22.001Z</time></trkpt><trkpt lat="45.62585102082894" lon="10.576922617106089"><ele>81.0</ele><time>2026-05-01T10:34:23.001Z</time></trkpt><trkpt lat="45.62589354932118" lon="10.577118924250675"><ele>81.0</ele><time>2026-05-01T10:34:24.001Z</time></trkpt><trkpt lat="45.6259275853222" lon="10.577327816907049"><ele>81.0</ele><time>2026-05-01T10:34:25.001Z</time></trkpt><trkpt lat="45.625954907275094" lon="10.577531522749107"><ele>80.25</ele><time>2026-05-01T10:34:26.001Z</time></trkpt><trkpt lat="45.62597179414979" lon="10.577741800941165"><ele>79.5</ele><time>2026-05-01T10:34:27.001Z</time></trkpt><trkpt lat="45.62599721083285" lon="10.577957784463639"><ele>78.75</ele><time>2026-05-01T10:34:28.001Z</time></trkpt><trkpt lat="45.62602334130377" lon="10.578163366733941"><ele>78.0</ele><time>2026-05-01T10:34:29.001Z</time></trkpt><trkpt lat="45.62605350218822" lon="10.578372731170145"><ele>76.66666666666667</ele><time>2026-05-01T10:34:30.001Z</time></trkpt><trkpt lat="45.62607805167382" lon="10.5785870297464"><ele>75.33333333333334</ele><time>2026-05-01T10:34:31.001Z</time></trkpt><trkpt lat="45.62610040561151" lon="10.578802727487956"><ele>74.0</ele><time>2026-05-01T10:34:32.001Z</time></trkpt><trkpt lat="45.62612017321818" lon="10.579017965989198"><ele>73.33333333333334</ele><time>2026-05-01T10:34:33.001Z</time></trkpt><trkpt lat="45.626132871557544" lon="10.579233935044893"><ele>72.66666666666667</ele><time>2026-05-01T10:34:34.001Z</time></trkpt><trkpt lat="45.62615156521125" lon="10.57945470157801"><ele>72.0</ele><time>2026-05-01T10:34:35.001Z</time></trkpt><trkpt lat="45.62616163592237" lon="10.579677374396674"><ele>75.25</ele><time>2026-05-01T10:34:36.001Z</time></trkpt><trkpt lat="45.62617404336189" lon="10.57989616532405"><ele>78.5</ele><time>2026-05-01T10:34:37.001Z</time></trkpt><trkpt lat="45.6261677962883" lon="10.580103360668224"><ele>81.75</ele><time>2026-05-01T10:34:38.001Z</time></trkpt><trkpt lat="45.62616922307754" lon="10.580309787335164"><ele>85.0</ele><time>2026-05-01T10:34:39.001Z</time></trkpt><trkpt lat="45.626166670101554" lon="10.580517806465982"><ele>85.0</ele><time>2026-05-01T10:34:40.001Z</time></trkpt><trkpt lat="45.62615562069947" lon="10.580729865564118"><ele>85.0</ele><time>2026-05-01T10:34:41.001Z</time></trkpt><trkpt lat="45.626156394079565" lon="10.580940591877415"><ele>85.0</ele><time>2026-05-01T10:34:42.001Z</time></trkpt><trkpt lat="45.626173722251494" lon="10.581148311004158"><ele>85.0</ele><time>2026-05-01T10:34:43.001Z</time></trkpt><trkpt lat="45.626160777197235" lon="10.581356210851188"><ele>85.0</ele><time>2026-05-01T10:34:44.001Z</time></trkpt><trkpt lat="45.626163813238925" lon="10.58156477846379"><ele>85.0</ele><time>2026-05-01T10:34:45.001Z</time></trkpt><trkpt lat="45.62616597397838" lon="10.581767101459102"><ele>85.0</ele><time>2026-05-01T10:34:46.001Z</time></trkpt><trkpt lat="45.62616667075217" lon="10.581978028542764"><ele>85.0</ele><time>2026-05-01T10:34:47.001Z</time></trkpt><trkpt lat="45.62618390875334" lon="10.582175550187996"><ele>85.0</ele><time>2026-05-01T10:34:48.001Z</time></trkpt><trkpt lat="45.62618424035556" lon="10.582385821399091"><ele>85.0</ele><time>2026-05-01T10:34:49.001Z</time></trkpt><trkpt lat="45.62618638824041" lon="10.58260521024531"><ele>85.0</ele><time>2026-05-01T10:34:50.001Z</time></trkpt><trkpt lat="45.62617700838118" lon="10.582827225203092"><ele>85.5</ele><time>2026-05-01T10:34:51.001Z</time></trkpt><trkpt lat="45.62615822697878" lon="10.58304524325837"><ele>86.0</ele><time>2026-05-01T10:34:52.001Z</time></trkpt><trkpt lat="45.626131977043215" lon="10.583254680015077"><ele>86.5</ele><time>2026-05-01T10:34:53.001Z</time></trkpt><trkpt lat="45.62610414110276" lon="10.5834526936304"><ele>87.0</ele><time>2026-05-01T10:34:54.001Z</time></trkpt><trkpt lat="45.626080090045654" lon="10.583626224030352"><ele>83.75</ele><time>2026-05-01T10:34:55.001Z</time></trkpt><trkpt lat="45.62605893932755" lon="10.58379133386754"><ele>80.5</ele><time>2026-05-01T10:34:56.001Z</time></trkpt><trkpt lat="45.62603838184544" lon="10.583955056677548"><ele>77.25</ele><time>2026-05-01T10:34:57.001Z</time></trkpt><trkpt lat="45.62600145514204" lon="10.584115146127491"><ele>74.0</ele><time>2026-05-01T10:34:58.001Z</time></trkpt><trkpt lat="45.62601211442773" lon="10.584288263678445"><ele>74.0</ele><time>2026-05-01T10:34:59.001Z</time></trkpt><trkpt lat="45.6260242670923" lon="10.584457486017461"><ele>74.0</ele><time>2026-05-01T10:35:00.001Z</time></trkpt><trkpt lat="45.62605089897199" lon="10.584614697325978"><ele>74.0</ele><time>2026-05-01T10:35:01.001Z</time></trkpt><trkpt lat="45.62608955831277" lon="10.58475881683587"><ele>74.0</ele><time>2026-05-01T10:35:02.001Z</time></trkpt><trkpt lat="45.62613992191826" lon="10.584885013274862"><ele>74.0</ele><time>2026-05-01T10:35:03.001Z</time></trkpt><trkpt lat="45.626207267826594" lon="10.585011857999126"><ele>74.8</ele><time>2026-05-01T10:35:04.001Z</time></trkpt><trkpt lat="45.62627200150351" lon="10.585130923942916"><ele>75.60000000000001</ele><time>2026-05-01T10:35:05.001Z</time></trkpt><trkpt lat="45.62630605747067" lon="10.585248436375243"><ele>76.4</ele><time>2026-05-01T10:35:06.001Z</time></trkpt><trkpt lat="45.62635632130566" lon="10.58533013348401"><ele>77.2</ele><time>2026-05-01T10:35:07.001Z</time></trkpt><trkpt lat="45.62641043681191" lon="10.58539706331249"><ele>78.0</ele><time>2026-05-01T10:35:08.001Z</time></trkpt><trkpt lat="45.62652759142632" lon="10.58551001054485"><ele>78.0</ele><time>2026-05-01T10:35:10.001Z</time></trkpt><trkpt lat="45.62661267306437" lon="10.585582012644462"><ele>78.0</ele><time>2026-05-01T10:35:11.001Z</time></trkpt><trkpt lat="45.62669784713634" lon="10.585653580454242"><ele>78.0</ele><time>2026-05-01T10:35:12.001Z</time></trkpt><trkpt lat="45.6267785732455" lon="10.585733508778125"><ele>78.0</ele><time>2026-05-01T10:35:13.001Z</time></trkpt><trkpt lat="45.62684129105878" lon="10.585803212910406"><ele>78.0</ele><time>2026-05-01T10:35:14.002Z</time></trkpt><trkpt lat="45.62690524436315" lon="10.585864436101772"><ele>78.0</ele><time>2026-05-01T10:35:15.002Z</time></trkpt><trkpt lat="45.6269490435474" lon="10.585929149835431"><ele>78.0</ele><time>2026-05-01T10:35:16.002Z</time></trkpt><trkpt lat="45.62705015982395" lon="10.58602140984438"><ele>78.0</ele><time>2026-05-01T10:35:18.002Z</time></trkpt><trkpt lat="45.62711157216552" lon="10.586060582087729"><ele>78.0</ele><time>2026-05-01T10:35:19.002Z</time></trkpt><trkpt lat="45.62717067479312" lon="10.586120298264934"><ele>78.0</ele><time>2026-05-01T10:35:20.002Z</time></trkpt><trkpt lat="45.627245024712266" lon="10.586185725629695"><ele>78.0</ele><time>2026-05-01T10:35:21.002Z</time></trkpt><trkpt lat="45.62731104878297" lon="10.58624141044414"><ele>77.66666666666667</ele><time>2026-05-01T10:35:22.002Z</time></trkpt><trkpt lat="45.627366327997215" lon="10.586291814286762"><ele>77.33333333333333</ele><time>2026-05-01T10:35:23.002Z</time></trkpt><trkpt lat="45.62742707499787" lon="10.58634780656063"><ele>77.0</ele><time>2026-05-01T10:35:24Z</time></trkpt><trkpt lat="45.62749899360808" lon="10.5864120351001"><ele>76.66666666666666</ele><time>2026-05-01T10:35:25Z</time></trkpt><trkpt lat="45.627575623929516" lon="10.586507251211525"><ele>76.33333333333333</ele><time>2026-05-01T10:35:26Z</time></trkpt><trkpt lat="45.627678013639795" lon="10.586585930777467"><ele>76.0</ele><time>2026-05-01T10:35:27Z</time></trkpt><trkpt lat="45.627787204589836" lon="10.5866205894257"><ele>75.83333333333333</ele><time>2026-05-01T10:35:28Z</time></trkpt><trkpt lat="45.6278789291841" lon="10.5866429952966"><ele>75.66666666666666</ele><time>2026-05-01T10:35:29Z</time></trkpt><trkpt lat="45.62796760384647" lon="10.586653961343394"><ele>75.5</ele><time>2026-05-01T10:35:30Z</time></trkpt><trkpt lat="45.62805381128276" lon="10.586671080350628"><ele>75.33333333333333</ele><time>2026-05-01T10:35:31Z</time></trkpt><trkpt lat="45.62813048095261" lon="10.586671916429832"><ele>75.16666666666667</ele><time>2026-05-01T10:35:32Z</time></trkpt><trkpt lat="45.62820134183815" lon="10.586668522995682"><ele>75.0</ele><time>2026-05-01T10:35:33Z</time></trkpt><trkpt lat="45.62828020054789" lon="10.58664239021709"><ele>75.0</ele><time>2026-05-01T10:35:34Z</time></trkpt><trkpt lat="45.628373792720446" lon="10.58664662889776"><ele>75.0</ele><time>2026-05-01T10:35:35Z</time></trkpt><trkpt lat="45.62846321267313" lon="10.58663745957999"><ele>75.0</ele><time>2026-05-01T10:35:36Z</time></trkpt><trkpt lat="45.62855173345762" lon="10.586642345800426"><ele>75.0</ele><time>2026-05-01T10:35:37Z</time></trkpt><trkpt lat="45.62863750435022" lon="10.586633955873346"><ele>75.0</ele><time>2026-05-01T10:35:38Z</time></trkpt><trkpt lat="45.628733732350774" lon="10.586642096960961"><ele>75.33333333333333</ele><time>2026-05-01T10:35:39Z</time></trkpt><trkpt lat="45.628839734265405" lon="10.586630213447243"><ele>75.66666666666667</ele><time>2026-05-01T10:35:40Z</time></trkpt><trkpt lat="45.62892252708812" lon="10.586621893686395"><ele>76.0</ele><time>2026-05-01T10:35:41Z</time></trkpt><trkpt lat="45.62901024169273" lon="10.586615229626606"><ele>76.33333333333334</ele><time>2026-05-01T10:35:42Z</time></trkpt><trkpt lat="45.62909401980442" lon="10.586615838615627"><ele>76.66666666666667</ele><time>2026-05-01T10:35:43Z</time></trkpt><trkpt lat="45.62917266734189" lon="10.58661974675065"><ele>77.0</ele><time>2026-05-01T10:35:44Z</time></trkpt><trkpt lat="45.62924780439128" lon="10.586631302506737"><ele>77.0</ele><time>2026-05-01T10:35:45Z</time></trkpt><trkpt lat="45.62932377306521" lon="10.58665491373432"><ele>77.0</ele><time>2026-05-01T10:35:46Z</time></trkpt><trkpt lat="45.62940084323568" lon="10.586677511097465"><ele>77.0</ele><time>2026-05-01T10:35:47Z</time></trkpt><trkpt lat="45.629465528693906" lon="10.586697566272026"><ele>77.0</ele><time>2026-05-01T10:35:48Z</time></trkpt><trkpt lat="45.629575052472546" lon="10.586745350821092"><ele>77.0</ele><time>2026-05-01T10:35:50Z</time></trkpt><trkpt lat="45.629680454085744" lon="10.586822600629775"><ele>77.5</ele><time>2026-05-01T10:35:52Z</time></trkpt><trkpt lat="45.629734903121644" lon="10.586867792826553"><ele>78.0</ele><time>2026-05-01T10:35:53Z</time></trkpt><trkpt lat="45.629795824449054" lon="10.58692685861205"><ele>78.5</ele><time>2026-05-01T10:35:54Z</time></trkpt><trkpt lat="45.62985259504409" lon="10.586986914004305"><ele>79.0</ele><time>2026-05-01T10:35:55Z</time></trkpt><trkpt lat="45.6299128502604" lon="10.587050460150415"><ele>79.5</ele><time>2026-05-01T10:35:56Z</time></trkpt><trkpt lat="45.62998606360365" lon="10.587134729093695"><ele>80.0</ele><time>2026-05-01T10:35:57Z</time></trkpt><trkpt lat="45.630068518486326" lon="10.587223033052176"><ele>80.0</ele><time>2026-05-01T10:35:58Z</time></trkpt><trkpt lat="45.63014644006182" lon="10.587328417613792"><ele>80.0</ele><time>2026-05-01T10:35:59Z</time></trkpt><trkpt lat="45.6302283811782" lon="10.587428490669769"><ele>80.0</ele><time>2026-05-01T10:36:00Z</time></trkpt><trkpt lat="45.630302351271375" lon="10.587534214272885"><ele>80.0</ele><time>2026-05-01T10:36:01Z</time></trkpt><trkpt lat="45.63037132136419" lon="10.587637991749286"><ele>80.0</ele><time>2026-05-01T10:36:02Z</time></trkpt><trkpt lat="45.630434443123335" lon="10.587733925947555"><ele>79.2</ele><time>2026-05-01T10:36:03Z</time></trkpt><trkpt lat="45.63049609574254" lon="10.587826117324399"><ele>78.4</ele><time>2026-05-01T10:36:04Z</time></trkpt><trkpt lat="45.6305575394642" lon="10.587911704234969"><ele>77.6</ele><time>2026-05-01T10:36:05Z</time></trkpt><trkpt lat="45.63061710767595" lon="10.587996844284346"><ele>76.8</ele><time>2026-05-01T10:36:06.001Z</time></trkpt><trkpt lat="45.6306845658421" lon="10.588085939487897"><ele>76.0</ele><time>2026-05-01T10:36:07.001Z</time></trkpt><trkpt lat="45.630746669339686" lon="10.58819651392703"><ele>76.0</ele><time>2026-05-01T10:36:08.001Z</time></trkpt><trkpt lat="45.63082046207809" lon="10.588303515824144"><ele>76.0</ele><time>2026-05-01T10:36:09.001Z</time></trkpt><trkpt lat="45.63089075428826" lon="10.58840544166974"><ele>76.0</ele><time>2026-05-01T10:36:10.001Z</time></trkpt><trkpt lat="45.630961365405625" lon="10.5885078298805"><ele>76.0</ele><time>2026-05-01T10:36:11.001Z</time></trkpt><trkpt lat="45.63103255455811" lon="10.588611056275285"><ele>76.0</ele><time>2026-05-01T10:36:12.001Z</time></trkpt><trkpt lat="45.63110775116865" lon="10.588719908287489"><ele>78.5</ele><time>2026-05-01T10:36:13.001Z</time></trkpt><trkpt lat="45.63120016575724" lon="10.588840522289132"><ele>81.0</ele><time>2026-05-01T10:36:14.001Z</time></trkpt><trkpt lat="45.63128661603633" lon="10.588983673279857"><ele>83.5</ele><time>2026-05-01T10:36:15.001Z</time></trkpt><trkpt lat="45.631374937287205" lon="10.589134872071234"><ele>86.0</ele><time>2026-05-01T10:36:16.001Z</time></trkpt><trkpt lat="45.63145754178761" lon="10.589279977624875"><ele>86.0</ele><time>2026-05-01T10:36:17.001Z</time></trkpt><trkpt lat="45.631539368458135" lon="10.589426965885128"><ele>86.0</ele><time>2026-05-01T10:36:18.001Z</time></trkpt><trkpt lat="45.63162754475556" lon="10.58956579979742"><ele>86.0</ele><time>2026-05-01T10:36:19.001Z</time></trkpt><trkpt lat="45.631717413814904" lon="10.589710574381366"><ele>86.0</ele><time>2026-05-01T10:36:20.001Z</time></trkpt><trkpt lat="45.631786689062004" lon="10.589872043286478"><ele>87.25</ele><time>2026-05-01T10:36:21.001Z</time></trkpt><trkpt lat="45.631864918310676" lon="10.590014204104536"><ele>88.5</ele><time>2026-05-01T10:36:22.001Z</time></trkpt><trkpt lat="45.63194397585283" lon="10.590159468975179"><ele>89.75</ele><time>2026-05-01T10:36:23.001Z</time></trkpt><trkpt lat="45.632019460682706" lon="10.59031812436611"><ele>91.0</ele><time>2026-05-01T10:36:24.001Z</time></trkpt><trkpt lat="45.632091881849696" lon="10.590477938404444"><ele>91.0</ele><time>2026-05-01T10:36:25.001Z</time></trkpt><trkpt lat="45.632159564184214" lon="10.590635502313841"><ele>91.0</ele><time>2026-05-01T10:36:26.001Z</time></trkpt><trkpt lat="45.63222150453" lon="10.590787494376073"><ele>91.0</ele><time>2026-05-01T10:36:27.001Z</time></trkpt><trkpt lat="45.632286214712316" lon="10.590924674697684"><ele>91.0</ele><time>2026-05-01T10:36:28.001Z</time></trkpt><trkpt lat="45.6323465171815" lon="10.59106736948043"><ele>87.39999999999999</ele><time>2026-05-01T10:36:29.001Z</time></trkpt><trkpt lat="45.63241075655423" lon="10.591217253308121"><ele>83.8</ele><time>2026-05-01T10:36:30.001Z</time></trkpt><trkpt lat="45.632456192478486" lon="10.591363499309642"><ele>80.19999999999999</ele><time>2026-05-01T10:36:31.001Z</time></trkpt><trkpt lat="45.63252638891782" lon="10.591482558573125"><ele>76.6</ele><time>2026-05-01T10:36:32.001Z</time></trkpt><trkpt lat="45.63259698132076" lon="10.591579984830789"><ele>73.0</ele><time>2026-05-01T10:36:33.001Z</time></trkpt><trkpt lat="45.63265754045699" lon="10.591684469647175"><ele>73.0</ele><time>2026-05-01T10:36:34.001Z</time></trkpt><trkpt lat="45.632728900516675" lon="10.591754042210686"><ele>73.0</ele><time>2026-05-01T10:36:35.001Z</time></trkpt><trkpt lat="45.63280393064693" lon="10.591818157463363"><ele>73.0</ele><time>2026-05-01T10:36:36.001Z</time></trkpt><trkpt lat="45.63287705798986" lon="10.591880776670921"><ele>73.0</ele><time>2026-05-01T10:36:37.001Z</time></trkpt><trkpt lat="45.63295073771025" lon="10.591953571360154"><ele>73.0</ele><time>2026-05-01T10:36:38.001Z</time></trkpt><trkpt lat="45.63302429599412" lon="10.592036471536886"><ele>73.0</ele><time>2026-05-01T10:36:39.001Z</time></trkpt><trkpt lat="45.63309596119845" lon="10.592120914589975"><ele>73.4</ele><time>2026-05-01T10:36:40.001Z</time></trkpt><trkpt lat="45.633153591322156" lon="10.592205963961302"><ele>73.8</ele><time>2026-05-01T10:36:41.001Z</time></trkpt><trkpt lat="45.633232680978416" lon="10.592329125253354"><ele>74.2</ele><time>2026-05-01T10:36:43.001Z</time></trkpt><trkpt lat="45.6332910063734" lon="10.592425933733658"><ele>74.6</ele><time>2026-05-01T10:36:46.001Z</time></trkpt><trkpt lat="45.63333977956514" lon="10.592510802567672"><ele>75.0</ele><time>2026-05-01T10:36:47.001Z</time></trkpt><trkpt lat="45.63340341140493" lon="10.592610090029979"><ele>75.0</ele><time>2026-05-01T10:36:48.001Z</time></trkpt><trkpt lat="45.633449894029425" lon="10.592706534757681"><ele>75.0</ele><time>2026-05-01T10:36:49.001Z</time></trkpt><trkpt lat="45.63349523656151" lon="10.59279844092333"><ele>75.0</ele><time>2026-05-01T10:36:50.001Z</time></trkpt><trkpt lat="45.63354789495486" lon="10.592888084641796"><ele>75.0</ele><time>2026-05-01T10:36:51.001Z</time></trkpt><trkpt lat="45.63359013571007" lon="10.592966032511386"><ele>75.0</ele><time>2026-05-01T10:36:52.001Z</time></trkpt><trkpt lat="45.6336359499651" lon="10.593055943825695"><ele>75.0</ele><time>2026-05-01T10:36:53.001Z</time></trkpt><trkpt lat="45.63368667023095" lon="10.593136278474148"><ele>75.33333333333333</ele><time>2026-05-01T10:36:54.001Z</time></trkpt><trkpt lat="45.633724144622825" lon="10.593224783505576"><ele>75.66666666666667</ele><time>2026-05-01T10:36:55.001Z</time></trkpt><trkpt lat="45.633767425470275" lon="10.593303765662894"><ele>76.0</ele><time>2026-05-01T10:36:56.001Z</time></trkpt><trkpt lat="45.633823067753106" lon="10.593401109645063"><ele>76.33333333333334</ele><time>2026-05-01T10:36:57.001Z</time></trkpt><trkpt lat="45.63388174856801" lon="10.593511971894083"><ele>76.66666666666667</ele><time>2026-05-01T10:36:58.001Z</time></trkpt><trkpt lat="45.633934146735164" lon="10.593652341082855"><ele>77.0</ele><time>2026-05-01T10:36:59.001Z</time></trkpt><trkpt lat="45.63400078094827" lon="10.593787167723248"><ele>77.0</ele><time>2026-05-01T10:37:00.001Z</time></trkpt><trkpt lat="45.634055483323834" lon="10.593909831645552"><ele>77.0</ele><time>2026-05-01T10:37:01.001Z</time></trkpt><trkpt lat="45.634113948437594" lon="10.594026225310873"><ele>77.0</ele><time>2026-05-01T10:37:02.001Z</time></trkpt><trkpt lat="45.63417777321472" lon="10.594136093323183"><ele>77.0</ele><time>2026-05-01T10:37:03.001Z</time></trkpt><trkpt lat="45.63424291357101" lon="10.594254471951247"><ele>77.0</ele><time>2026-05-01T10:37:04.001Z</time></trkpt><trkpt lat="45.63430541964597" lon="10.594366367735926"><ele>77.0</ele><time>2026-05-01T10:37:05.001Z</time></trkpt><trkpt lat="45.63436204471211" lon="10.594468724541553"><ele>77.0</ele><time>2026-05-01T10:37:06.001Z</time></trkpt><trkpt lat="45.63441265671675" lon="10.594581896226877"><ele>77.0</ele><time>2026-05-01T10:37:07.001Z</time></trkpt><trkpt lat="45.6344642653495" lon="10.594689297950058"><ele>77.0</ele><time>2026-05-01T10:37:08.001Z</time></trkpt><trkpt lat="45.634516479500114" lon="10.59478796242008"><ele>77.0</ele><time>2026-05-01T10:37:09.001Z</time></trkpt><trkpt lat="45.63456537004392" lon="10.594880964331507"><ele>77.0</ele><time>2026-05-01T10:37:10.001Z</time></trkpt><trkpt lat="45.63460772698827" lon="10.59496674287087"><ele>77.16666666666667</ele><time>2026-05-01T10:37:11.001Z</time></trkpt><trkpt lat="45.63465081819312" lon="10.59505619721094"><ele>77.33333333333334</ele><time>2026-05-01T10:37:12.001Z</time></trkpt><trkpt lat="45.634686248268714" lon="10.595140779473377"><ele>77.5</ele><time>2026-05-01T10:37:13.001Z</time></trkpt><trkpt lat="45.6347188478412" lon="10.595221017837654"><ele>77.66666666666667</ele><time>2026-05-01T10:37:14.001Z</time></trkpt><trkpt lat="45.63476838175954" lon="10.595361621314055"><ele>77.83333333333333</ele><time>2026-05-01T10:37:16.001Z</time></trkpt><trkpt lat="45.634805097623556" lon="10.595490860971294"><ele>78.0</ele><time>2026-05-01T10:37:18.001Z</time></trkpt><trkpt lat="45.63485204095955" lon="10.595606531885704"><ele>78.0</ele><time>2026-05-01T10:37:20.001Z</time></trkpt><trkpt lat="45.63490541490488" lon="10.595690762279421"><ele>78.0</ele><time>2026-05-01T10:37:22.001Z</time></trkpt><trkpt lat="45.63494311409986" lon="10.595785944246348"><ele>78.0</ele><time>2026-05-01T10:37:25.001Z</time></trkpt><trkpt lat="45.63492174840481" lon="10.595963212239994"><ele>78.0</ele><time>2026-05-01T10:37:39Z</time></trkpt><trkpt lat="45.6349732866835" lon="10.596112345059039"><ele>78.0</ele><time>2026-05-01T10:37:41Z</time></trkpt><trkpt lat="45.63501811462317" lon="10.596196548451463"><ele>77.0</ele><time>2026-05-01T10:37:42Z</time></trkpt><trkpt lat="45.63511458989869" lon="10.596280733925225"><ele>76.0</ele><time>2026-05-01T10:37:43Z</time></trkpt><trkpt lat="45.635161169828116" lon="10.596341726899137"><ele>75.0</ele><time>2026-05-01T10:37:44Z</time></trkpt><trkpt lat="45.63524006694892" lon="10.596385288131469"><ele>74.0</ele><time>2026-05-01T10:37:46Z</time></trkpt><trkpt lat="45.63531192445809" lon="10.596427082791983"><ele>73.0</ele><time>2026-05-01T10:37:48Z</time></trkpt><trkpt lat="45.63539084111388" lon="10.596523066794187"><ele>72.0</ele><time>2026-05-01T10:37:50Z</time></trkpt><trkpt lat="45.635442829153256" lon="10.596648511810162"><ele>73.4</ele><time>2026-05-01T10:37:52Z</time></trkpt><trkpt lat="45.63546271763734" lon="10.596761091361753"><ele>74.80000000000001</ele><time>2026-05-01T10:37:53Z</time></trkpt><trkpt lat="45.635474174817915" lon="10.59693586569198"><ele>76.2</ele><time>2026-05-01T10:37:54Z</time></trkpt><trkpt lat="45.63551845965887" lon="10.597054144566972"><ele>77.60000000000001</ele><time>2026-05-01T10:37:55Z</time></trkpt><trkpt lat="45.63558044755725" lon="10.597159845366312"><ele>79.0</ele><time>2026-05-01T10:37:56Z</time></trkpt><trkpt lat="45.63562327145795" lon="10.597273763173966"><ele>79.0</ele><time>2026-05-01T10:37:57Z</time></trkpt><trkpt lat="45.63566018640128" lon="10.597379708662395"><ele>79.0</ele><time>2026-05-01T10:37:58Z</time></trkpt><trkpt lat="45.63568302210148" lon="10.597498112278819"><ele>79.0</ele><time>2026-05-01T10:37:59Z</time></trkpt><trkpt lat="45.63569695646946" lon="10.597638251054596"><ele>79.0</ele><time>2026-05-01T10:38:00Z</time></trkpt><trkpt lat="45.635711280425284" lon="10.59777591243825"><ele>79.0</ele><time>2026-05-01T10:38:01Z</time></trkpt><trkpt lat="45.635679107625684" lon="10.597897007402395"><ele>78.28571428571429</ele><time>2026-05-01T10:38:02Z</time></trkpt><trkpt lat="45.63568630759949" lon="10.598001020232951"><ele>77.57142857142857</ele><time>2026-05-01T10:38:03Z</time></trkpt><trkpt lat="45.63569125238788" lon="10.5981069089227"><ele>76.85714285714286</ele><time>2026-05-01T10:38:04Z</time></trkpt><trkpt lat="45.63569384690419" lon="10.598204209213163"><ele>76.14285714285714</ele><time>2026-05-01T10:38:05Z</time></trkpt><trkpt lat="45.63569596590659" lon="10.598305438189461"><ele>75.42857142857143</ele><time>2026-05-01T10:38:06Z</time></trkpt><trkpt lat="45.635729691625855" lon="10.598405279762353"><ele>74.71428571428572</ele><time>2026-05-01T10:38:07Z</time></trkpt><trkpt lat="45.6357314115881" lon="10.598504824377754"><ele>74.0</ele><time>2026-05-01T10:38:08Z</time></trkpt><trkpt lat="45.63573474238955" lon="10.598607387284888"><ele>73.60000000000001</ele><time>2026-05-01T10:38:09Z</time></trkpt><trkpt lat="45.63568222175606" lon="10.598763687069892"><ele>73.2</ele><time>2026-05-01T10:38:11Z</time></trkpt><trkpt lat="45.63565968244719" lon="10.598883106313831"><ele>72.80000000000001</ele><time>2026-05-01T10:38:13Z</time></trkpt><trkpt lat="45.63563097169919" lon="10.598989044021081"><ele>72.4</ele><time>2026-05-01T10:38:16.001Z</time></trkpt><trkpt lat="45.635599632861314" lon="10.599084312746418"><ele>72.0</ele><time>2026-05-01T10:38:19.001Z</time></trkpt><trkpt lat="45.63555078600614" lon="10.59920570504775"><ele>72.0</ele><time>2026-05-01T10:38:21.001Z</time></trkpt><trkpt lat="45.635504904610706" lon="10.599291539930427"><ele>72.0</ele><time>2026-05-01T10:38:22.001Z</time></trkpt><trkpt lat="45.635442996809054" lon="10.599406087085278"><ele>72.0</ele><time>2026-05-01T10:38:23.001Z</time></trkpt><trkpt lat="45.63539434198187" lon="10.599509830987454"><ele>72.0</ele><time>2026-05-01T10:38:24.001Z</time></trkpt><trkpt lat="45.63535549034818" lon="10.5995846778981"><ele>72.0</ele><time>2026-05-01T10:38:25.001Z</time></trkpt><trkpt lat="45.63531949389102" lon="10.599659046235878"><ele>72.0</ele><time>2026-05-01T10:38:26.001Z</time></trkpt><trkpt lat="45.63526633660974" lon="10.599736452055575"><ele>72.16666666666667</ele><time>2026-05-01T10:38:28.001Z</time></trkpt><trkpt lat="45.63522142902471" lon="10.59983280084086"><ele>72.33333333333333</ele><time>2026-05-01T10:38:32.001Z</time></trkpt><trkpt lat="45.63516449600236" lon="10.599975385760771"><ele>72.5</ele><time>2026-05-01T10:38:34.001Z</time></trkpt><trkpt lat="45.635130138939786" lon="10.600068890925279"><ele>72.66666666666666</ele><time>2026-05-01T10:38:35.001Z</time></trkpt><trkpt lat="45.6350968123075" lon="10.600162917002383"><ele>72.83333333333333</ele><time>2026-05-01T10:38:36.001Z</time></trkpt><trkpt lat="45.63506026427004" lon="10.600268940056765"><ele>73.0</ele><time>2026-05-01T10:38:37.001Z</time></trkpt><trkpt lat="45.63501493180507" lon="10.60039957737848"><ele>72.4</ele><time>2026-05-01T10:38:38.001Z</time></trkpt><trkpt lat="45.63497155489878" lon="10.600527106813464"><ele>71.8</ele><time>2026-05-01T10:38:39.001Z</time></trkpt><trkpt lat="45.63493111565121" lon="10.600664098208663"><ele>71.2</ele><time>2026-05-01T10:38:40.001Z</time></trkpt><trkpt lat="45.634898170727666" lon="10.600805303633974"><ele>70.6</ele><time>2026-05-01T10:38:41.001Z</time></trkpt><trkpt lat="45.63487938413184" lon="10.600935983364396"><ele>70.0</ele><time>2026-05-01T10:38:42.001Z</time></trkpt><trkpt lat="45.63487233732938" lon="10.6010407687715"><ele>70.0</ele><time>2026-05-01T10:38:43.001Z</time></trkpt><trkpt lat="45.634872155140485" lon="10.60114045546188"><ele>70.0</ele><time>2026-05-01T10:38:44.001Z</time></trkpt><trkpt lat="45.63487964762237" lon="10.601235833280965"><ele>70.0</ele><time>2026-05-01T10:38:45.001Z</time></trkpt><trkpt lat="45.63489110039702" lon="10.601326590269247"><ele>70.0</ele><time>2026-05-01T10:38:46.001Z</time></trkpt><trkpt lat="45.63492957136447" lon="10.601512048669811"><ele>70.0</ele><time>2026-05-01T10:38:48.001Z</time></trkpt><trkpt lat="45.63497376715463" lon="10.601590118269193"><ele>70.0</ele><time>2026-05-01T10:38:49.001Z</time></trkpt><trkpt lat="45.63503497907744" lon="10.601747447818946"><ele>69.83333333333333</ele><time>2026-05-01T10:38:51.001Z</time></trkpt><trkpt lat="45.63506470716732" lon="10.601833688324556"><ele>69.66666666666666</ele><time>2026-05-01T10:38:52.001Z</time></trkpt><trkpt lat="45.635108673026735" lon="10.601906318850904"><ele>69.5</ele><time>2026-05-01T10:38:53.001Z</time></trkpt><trkpt lat="45.635147518125336" lon="10.601978739219604"><ele>69.33333333333333</ele><time>2026-05-01T10:38:54.001Z</time></trkpt><trkpt lat="45.63521360443581" lon="10.602112458696814"><ele>69.16666666666667</ele><time>2026-05-01T10:38:56.001Z</time></trkpt><trkpt lat="45.63525176257119" lon="10.602194662866292"><ele>69.0</ele><time>2026-05-01T10:38:57.001Z</time></trkpt><trkpt lat="45.635296910897964" lon="10.60228222775303"><ele>69.16666666666667</ele><time>2026-05-01T10:38:58.001Z</time></trkpt><trkpt lat="45.63534006566883" lon="10.602362921679418"><ele>69.33333333333333</ele><time>2026-05-01T10:38:59.001Z</time></trkpt><trkpt lat="45.63538009376351" lon="10.602442483118"><ele>69.5</ele><time>2026-05-01T10:39:00.001Z</time></trkpt><trkpt lat="45.63542007904767" lon="10.602517078784713"><ele>69.66666666666666</ele><time>2026-05-01T10:39:01.001Z</time></trkpt><trkpt lat="45.63549584291292" lon="10.602651235384155"><ele>69.83333333333333</ele><time>2026-05-01T10:39:03.001Z</time></trkpt><trkpt lat="45.63553521283359" lon="10.602734214680822"><ele>70.0</ele><time>2026-05-01T10:39:04.001Z</time></trkpt><trkpt lat="45.63560863015265" lon="10.602886727195973"><ele>70.0</ele><time>2026-05-01T10:39:06.001Z</time></trkpt><trkpt lat="45.635658109910786" lon="10.602984359565058"><ele>70.0</ele><time>2026-05-01T10:39:07.001Z</time></trkpt><trkpt lat="45.63571413035861" lon="10.603085931997946"><ele>70.0</ele><time>2026-05-01T10:39:08.001Z</time></trkpt><trkpt lat="45.63577094474905" lon="10.603195802095048"><ele>70.0</ele><time>2026-05-01T10:39:09.001Z</time></trkpt><trkpt lat="45.6358331746192" lon="10.603306165133763"><ele>70.0</ele><time>2026-05-01T10:39:10.001Z</time></trkpt><trkpt lat="45.63589119775473" lon="10.603419463454934"><ele>70.0</ele><time>2026-05-01T10:39:11.001Z</time></trkpt><trkpt lat="45.635951274954444" lon="10.60353512974681"><ele>70.0</ele><time>2026-05-01T10:39:12.001Z</time></trkpt><trkpt lat="45.636009223210316" lon="10.603652638453399"><ele>70.0</ele><time>2026-05-01T10:39:13.001Z</time></trkpt><trkpt lat="45.63606930798399" lon="10.603769198346601"><ele>70.0</ele><time>2026-05-01T10:39:14.001Z</time></trkpt><trkpt lat="45.636120666475584" lon="10.603868519461356"><ele>70.0</ele><time>2026-05-01T10:39:15.001Z</time></trkpt><trkpt lat="45.636172741081815" lon="10.603968000133094"><ele>70.42857142857143</ele><time>2026-05-01T10:39:16.001Z</time></trkpt><trkpt lat="45.63621506385867" lon="10.604052503003077"><ele>70.85714285714286</ele><time>2026-05-01T10:39:17.001Z</time></trkpt><trkpt lat="45.63625531205751" lon="10.6041300528179"><ele>71.28571428571428</ele><time>2026-05-01T10:39:18.001Z</time></trkpt><trkpt lat="45.63630223405586" lon="10.604219671038182"><ele>71.71428571428572</ele><time>2026-05-01T10:39:19.001Z</time></trkpt><trkpt lat="45.63634507923066" lon="10.604305939270718"><ele>72.14285714285714</ele><time>2026-05-01T10:39:20.001Z</time></trkpt><trkpt lat="45.6363873353721" lon="10.604395973711666"><ele>72.57142857142857</ele><time>2026-05-01T10:39:21.001Z</time></trkpt><trkpt lat="45.63643232343197" lon="10.604481254474162"><ele>73.0</ele><time>2026-05-01T10:39:22.001Z</time></trkpt><trkpt lat="45.636477047884235" lon="10.604569322442567"><ele>73.0</ele><time>2026-05-01T10:39:23.001Z</time></trkpt><trkpt lat="45.63653220462781" lon="10.604667236330913"><ele>73.0</ele><time>2026-05-01T10:39:24.001Z</time></trkpt><trkpt lat="45.63658233241426" lon="10.60476259991183"><ele>73.0</ele><time>2026-05-01T10:39:25.001Z</time></trkpt><trkpt lat="45.63662056603331" lon="10.604838315560826"><ele>73.0</ele><time>2026-05-01T10:39:26.001Z</time></trkpt><trkpt lat="45.636663491253636" lon="10.60497247495303"><ele>73.0</ele><time>2026-05-01T10:39:28.001Z</time></trkpt><trkpt lat="45.63667505978212" lon="10.605065683845385"><ele>73.0</ele><time>2026-05-01T10:39:29.001Z</time></trkpt><trkpt lat="45.63668540872769" lon="10.60517078685446"><ele>73.0</ele><time>2026-05-01T10:39:30.001Z</time></trkpt><trkpt lat="45.63672364239264" lon="10.605270540566792"><ele>73.0</ele><time>2026-05-01T10:39:31.001Z</time></trkpt><trkpt lat="45.636774393225416" lon="10.605329225717808"><ele>73.0</ele><time>2026-05-01T10:39:32.001Z</time></trkpt><trkpt lat="45.636848630607595" lon="10.605372586942854"><ele>73.0</ele><time>2026-05-01T10:39:33.001Z</time></trkpt><trkpt lat="45.63693839939288" lon="10.605450813570242"><ele>73.0</ele><time>2026-05-01T10:39:34.001Z</time></trkpt><trkpt lat="45.63703048743243" lon="10.605597107049313"><ele>73.5</ele><time>2026-05-01T10:39:35.001Z</time></trkpt><trkpt lat="45.63711194452979" lon="10.605770141400049"><ele>74.0</ele><time>2026-05-01T10:39:36Z</time></trkpt><trkpt lat="45.63718276848088" lon="10.605921555315653"><ele>74.5</ele><time>2026-05-01T10:39:37Z</time></trkpt><trkpt lat="45.63725340985071" lon="10.606054211245132"><ele>75.0</ele><time>2026-05-01T10:39:38Z</time></trkpt><trkpt lat="45.637296943528376" lon="10.606149322165164"><ele>75.4</ele><time>2026-05-01T10:39:39Z</time></trkpt><trkpt lat="45.637324038318226" lon="10.606264133443606"><ele>75.8</ele><time>2026-05-01T10:39:41Z</time></trkpt><trkpt lat="45.63738728748738" lon="10.606310848652036"><ele>76.2</ele><time>2026-05-01T10:42:09.999Z</time></trkpt><trkpt lat="45.63745664866925" lon="10.606360939949978"><ele>76.6</ele><time>2026-05-01T10:42:21Z</time></trkpt><trkpt lat="45.63756165321508" lon="10.606492178594522"><ele>77.0</ele><time>2026-05-01T10:42:23Z</time></trkpt><trkpt lat="45.637641509826096" lon="10.606605712408063"><ele>77.0</ele><time>2026-05-01T10:42:24Z</time></trkpt><trkpt lat="45.63772593705901" lon="10.606725528715254"><ele>77.0</ele><time>2026-05-01T10:42:25Z</time></trkpt><trkpt lat="45.63780347954704" lon="10.606838918908004"><ele>77.0</ele><time>2026-05-01T10:42:26Z</time></trkpt><trkpt lat="45.637881379315466" lon="10.606949040121705"><ele>77.0</ele><time>2026-05-01T10:42:27Z</time></trkpt><trkpt lat="45.63796252429845" lon="10.607049742899266"><ele>77.0</ele><time>2026-05-01T10:42:28Z</time></trkpt><trkpt lat="45.638033599680014" lon="10.607134320241887"><ele>77.4</ele><time>2026-05-01T10:42:29Z</time></trkpt><trkpt lat="45.63810955453876" lon="10.607198208365354"><ele>77.80000000000001</ele><time>2026-05-01T10:42:30Z</time></trkpt><trkpt lat="45.638195921360044" lon="10.607256022626622"><ele>78.2</ele><time>2026-05-01T10:42:31Z</time></trkpt><trkpt lat="45.63828499526147" lon="10.607315026656407"><ele>78.60000000000001</ele><time>2026-05-01T10:42:32Z</time></trkpt><trkpt lat="45.63837672573263" lon="10.607366986313462"><ele>79.0</ele><time>2026-05-01T10:42:33Z</time></trkpt><trkpt lat="45.638456143097514" lon="10.60741069462737"><ele>79.0</ele><time>2026-05-01T10:42:34Z</time></trkpt><trkpt lat="45.63853981124488" lon="10.607442231646568"><ele>79.0</ele><time>2026-05-01T10:42:35Z</time></trkpt><trkpt lat="45.638612145138545" lon="10.607474811454129"><ele>79.0</ele><time>2026-05-01T10:42:36Z</time></trkpt><trkpt lat="45.63867769778358" lon="10.607516958888553"><ele>79.0</ele><time>2026-05-01T10:42:37Z</time></trkpt><trkpt lat="45.638733775403324" lon="10.607574371234438"><ele>79.0</ele><time>2026-05-01T10:42:38Z</time></trkpt><trkpt lat="45.638827146269456" lon="10.607666896333244"><ele>79.0</ele><time>2026-05-01T10:42:40Z</time></trkpt><trkpt lat="45.6389057981804" lon="10.607689621756528"><ele>79.6</ele><time>2026-05-01T10:42:42Z</time></trkpt><trkpt lat="45.63898535280306" lon="10.607724060704594"><ele>80.2</ele><time>2026-05-01T10:47:09.001Z</time></trkpt><trkpt lat="45.6390775129984" lon="10.607723277235781"><ele>80.8</ele><time>2026-05-01T10:47:14.001Z</time></trkpt><trkpt lat="45.63915129554031" lon="10.607742408011537"><ele>81.39999999999999</ele><time>2026-05-01T10:47:15.001Z</time></trkpt><trkpt lat="45.63924121992553" lon="10.607770408712039"><ele>82.0</ele><time>2026-05-01T10:47:16.001Z</time></trkpt><trkpt lat="45.63937393922399" lon="10.607818525856791"><ele>82.5</ele><time>2026-05-01T10:47:17.001Z</time></trkpt><trkpt lat="45.639508235223076" lon="10.607879324422889"><ele>83.0</ele><time>2026-05-01T10:47:18.001Z</time></trkpt><trkpt lat="45.639624761523145" lon="10.607936028406396"><ele>83.5</ele><time>2026-05-01T10:47:19.001Z</time></trkpt><trkpt lat="45.63972948865901" lon="10.60798762442575"><ele>84.0</ele><time>2026-05-01T10:47:20.001Z</time></trkpt><trkpt lat="45.63982951380709" lon="10.608035082593355"><ele>84.0</ele><time>2026-05-01T10:47:21.001Z</time></trkpt><trkpt lat="45.63992440333077" lon="10.60808350369543"><ele>84.0</ele><time>2026-05-01T10:47:22.001Z</time></trkpt><trkpt lat="45.640018123598786" lon="10.60813442362578"><ele>84.0</ele><time>2026-05-01T10:47:23.001Z</time></trkpt><trkpt lat="45.640103048985935" lon="10.608184461712467"><ele>84.0</ele><time>2026-05-01T10:47:24.001Z</time></trkpt><trkpt lat="45.640176797431366" lon="10.608235701141925"><ele>84.0</ele><time>2026-05-01T10:47:25.001Z</time></trkpt><trkpt lat="45.64024956441505" lon="10.608291027755238"><ele>83.33333333333333</ele><time>2026-05-01T10:47:26.002Z</time></trkpt><trkpt lat="45.64030923540771" lon="10.608345924647097"><ele>82.66666666666667</ele><time>2026-05-01T10:47:27.002Z</time></trkpt><trkpt lat="45.6403654025163" lon="10.608394558416249"><ele>82.0</ele><time>2026-05-01T10:47:28.002Z</time></trkpt><trkpt lat="45.64043095264168" lon="10.608445748380229"><ele>81.33333333333334</ele><time>2026-05-01T10:47:30.002Z</time></trkpt><trkpt lat="45.640502574682536" lon="10.608501606709"><ele>80.66666666666667</ele><time>2026-05-01T10:47:33.002Z</time></trkpt><trkpt lat="45.6405724286023" lon="10.608608756502822"><ele>80.0</ele><time>2026-05-01T10:47:36.002Z</time></trkpt><trkpt lat="45.64063885637621" lon="10.608745206231385"><ele>80.0</ele><time>2026-05-01T10:47:38.002Z</time></trkpt><trkpt lat="45.64067974997664" lon="10.608819835655044"><ele>80.0</ele><time>2026-05-01T10:47:39.002Z</time></trkpt><trkpt lat="45.6407255664517" lon="10.608900503743405"><ele>80.0</ele><time>2026-05-01T10:47:40.002Z</time></trkpt><trkpt lat="45.640817699213976" lon="10.609046298543324"><ele>80.0</ele><time>2026-05-01T10:47:42.002Z</time></trkpt><trkpt lat="45.64085783095214" lon="10.609148431860751"><ele>80.0</ele><time>2026-05-01T10:47:43.002Z</time></trkpt><trkpt lat="45.640891329131904" lon="10.609264800216506"><ele>80.0</ele><time>2026-05-01T10:47:44.002Z</time></trkpt><trkpt lat="45.64092807713554" lon="10.609381379163972"><ele>80.0</ele><time>2026-05-01T10:47:45.002Z</time></trkpt><trkpt lat="45.64096298366146" lon="10.609484781424399"><ele>80.0</ele><time>2026-05-01T10:47:46.002Z</time></trkpt><trkpt lat="45.64099594628282" lon="10.60959431137035"><ele>80.0</ele><time>2026-05-01T10:47:47.002Z</time></trkpt><trkpt lat="45.641022684138484" lon="10.60969169807091"><ele>80.0</ele><time>2026-05-01T10:47:48.002Z</time></trkpt><trkpt lat="45.64105488421437" lon="10.609797477673917"><ele>80.0</ele><time>2026-05-01T10:47:49.002Z</time></trkpt><trkpt lat="45.641090612918326" lon="10.60990409217585"><ele>80.0</ele><time>2026-05-01T10:47:50.002Z</time></trkpt><trkpt lat="45.641126519220236" lon="10.610010595930433"><ele>81.33333333333334</ele><time>2026-05-01T10:47:51.002Z</time></trkpt><trkpt lat="45.64115856935916" lon="10.610111615952516"><ele>82.66666666666667</ele><time>2026-05-01T10:47:52.002Z</time></trkpt><trkpt lat="45.64118501555669" lon="10.610193862737615"><ele>84.0</ele><time>2026-05-01T10:47:53.002Z</time></trkpt><trkpt lat="45.641239822508304" lon="10.610339958308304"><ele>85.33333333333333</ele><time>2026-05-01T10:47:55.002Z</time></trkpt><trkpt lat="45.641270626805635" lon="10.610438722439799"><ele>86.66666666666666</ele><time>2026-05-01T10:47:56.002Z</time></trkpt><trkpt lat="45.641311596201305" lon="10.610566272534669"><ele>88.0</ele><time>2026-05-01T10:47:57.002Z</time></trkpt><trkpt lat="45.641351897780055" lon="10.610700328793296"><ele>88.0</ele><time>2026-05-01T10:47:58.002Z</time></trkpt><trkpt lat="45.64139497372258" lon="10.610836276320383"><ele>88.0</ele><time>2026-05-01T10:47:59.002Z</time></trkpt><trkpt lat="45.64143879199842" lon="10.610991347160764"><ele>88.0</ele><time>2026-05-01T10:48:00.001Z</time></trkpt><trkpt lat="45.6414948416482" lon="10.611152969867232"><ele>88.0</ele><time>2026-05-01T10:48:01.001Z</time></trkpt><trkpt lat="45.64155220391656" lon="10.61132132809623"><ele>87.0</ele><time>2026-05-01T10:48:02.001Z</time></trkpt><trkpt lat="45.641601563438385" lon="10.611476025669807"><ele>86.0</ele><time>2026-05-01T10:48:03.001Z</time></trkpt><trkpt lat="45.641651220526384" lon="10.611630809727961"><ele>85.0</ele><time>2026-05-01T10:48:04.001Z</time></trkpt><trkpt lat="45.64169888673041" lon="10.611780510118082"><ele>84.0</ele><time>2026-05-01T10:48:05.001Z</time></trkpt><trkpt lat="45.64175105313852" lon="10.611934789069442"><ele>83.4</ele><time>2026-05-01T10:48:06.001Z</time></trkpt><trkpt lat="45.641801400072445" lon="10.612086364984005"><ele>82.80000000000001</ele><time>2026-05-01T10:48:07.001Z</time></trkpt><trkpt lat="45.641852582863066" lon="10.61223547833519"><ele>82.19999999999999</ele><time>2026-05-01T10:48:08.001Z</time></trkpt><trkpt lat="45.641897614725266" lon="10.612376397051301"><ele>81.6</ele><time>2026-05-01T10:48:09.001Z</time></trkpt><trkpt lat="45.64194112500007" lon="10.612505790190012"><ele>81.0</ele><time>2026-05-01T10:48:10.001Z</time></trkpt><trkpt lat="45.64198339291079" lon="10.612635239998626"><ele>81.16666666666667</ele><time>2026-05-01T10:48:11.001Z</time></trkpt><trkpt lat="45.64201653639929" lon="10.612745189088505"><ele>81.33333333333333</ele><time>2026-05-01T10:48:12.001Z</time></trkpt><trkpt lat="45.64205827788366" lon="10.612872099668948"><ele>81.5</ele><time>2026-05-01T10:48:14.001Z</time></trkpt><trkpt lat="45.64209116121257" lon="10.612973950027783"><ele>81.66666666666666</ele><time>2026-05-01T10:48:18.001Z</time></trkpt><trkpt lat="45.64213210783271" lon="10.613097651963871"><ele>81.83333333333333</ele><time>2026-05-01T10:48:20.001Z</time></trkpt><trkpt lat="45.64216277068899" lon="10.613215526265325"><ele>82.0</ele><time>2026-05-01T10:48:22.001Z</time></trkpt><trkpt lat="45.64214465168492" lon="10.613379301063711"><ele>82.0</ele><time>2026-05-01T10:48:24.001Z</time></trkpt><trkpt lat="45.64210207054304" lon="10.613518907485997"><ele>82.0</ele><time>2026-05-01T10:48:26.001Z</time></trkpt><trkpt lat="45.6420721486177" lon="10.613636105586549"><ele>82.0</ele><time>2026-05-01T10:48:28.001Z</time></trkpt><trkpt lat="45.64215586532196" lon="10.61371194125425"><ele>82.0</ele><time>2026-05-01T10:48:29.001Z</time></trkpt><trkpt lat="45.64222548632854" lon="10.61374439131625"><ele>82.0</ele><time>2026-05-01T10:48:30.001Z</time></trkpt><trkpt lat="45.64229517127212" lon="10.613773518234522"><ele>82.0</ele><time>2026-05-01T10:48:31.001Z</time></trkpt><trkpt lat="45.642358198095714" lon="10.613825820597897"><ele>81.6</ele><time>2026-05-01T10:48:32.001Z</time></trkpt><trkpt lat="45.642406826565654" lon="10.613902425156821"><ele>81.19999999999999</ele><time>2026-05-01T10:48:33.001Z</time></trkpt><trkpt lat="45.64243844620376" lon="10.61402147117054"><ele>80.8</ele><time>2026-05-01T10:48:34.001Z</time></trkpt><trkpt lat="45.64250530712386" lon="10.614138791129458"><ele>80.4</ele><time>2026-05-01T10:48:35.001Z</time></trkpt><trkpt lat="45.64256913641928" lon="10.614284468530352"><ele>80.0</ele><time>2026-05-01T10:48:36.001Z</time></trkpt><trkpt lat="45.642647345472234" lon="10.614447398701397"><ele>80.0</ele><time>2026-05-01T10:48:37.001Z</time></trkpt><trkpt lat="45.64273030892342" lon="10.614599213092347"><ele>80.0</ele><time>2026-05-01T10:48:38.001Z</time></trkpt><trkpt lat="45.64283714508706" lon="10.614733438662476"><ele>80.0</ele><time>2026-05-01T10:48:39.001Z</time></trkpt><trkpt lat="45.64294338898086" lon="10.614910721606135"><ele>80.0</ele><time>2026-05-01T10:48:40.001Z</time></trkpt><trkpt lat="45.64307009456959" lon="10.6150910631564"><ele>80.33333333333334</ele><time>2026-05-01T10:48:41.001Z</time></trkpt><trkpt lat="45.64319145584756" lon="10.61524590458172"><ele>80.66666666666667</ele><time>2026-05-01T10:48:42.001Z</time></trkpt><trkpt lat="45.64329460723232" lon="10.615397213578111"><ele>81.0</ele><time>2026-05-01T10:48:43.001Z</time></trkpt><trkpt lat="45.643393831759546" lon="10.615538213505987"><ele>81.25</ele><time>2026-05-01T10:48:44.001Z</time></trkpt><trkpt lat="45.64348834045292" lon="10.615674132163909"><ele>81.5</ele><time>2026-05-01T10:48:45.001Z</time></trkpt><trkpt lat="45.64358232821856" lon="10.61580735003481"><ele>81.75</ele><time>2026-05-01T10:48:46.001Z</time></trkpt><trkpt lat="45.643668421723916" lon="10.615928124096266"><ele>82.0</ele><time>2026-05-01T10:48:47.001Z</time></trkpt><trkpt lat="45.64375244868242" lon="10.616047586917396"><ele>81.75</ele><time>2026-05-01T10:48:48.001Z</time></trkpt><trkpt lat="45.643836692521084" lon="10.616170672521172"><ele>81.5</ele><time>2026-05-01T10:48:49.001Z</time></trkpt><trkpt lat="45.64392155179577" lon="10.616289081294731"><ele>81.25</ele><time>2026-05-01T10:48:50.001Z</time></trkpt><trkpt lat="45.64400995715725" lon="10.616409691512349"><ele>81.0</ele><time>2026-05-01T10:48:51.001Z</time></trkpt><trkpt lat="45.64410106398625" lon="10.616533276016886"><ele>81.0</ele><time>2026-05-01T10:48:52.001Z</time></trkpt><trkpt lat="45.64420291201145" lon="10.616659175698668"><ele>81.0</ele><time>2026-05-01T10:48:53.001Z</time></trkpt><trkpt lat="45.64430585659064" lon="10.616766637022991"><ele>81.0</ele><time>2026-05-01T10:48:54.001Z</time></trkpt><trkpt lat="45.64440730030165" lon="10.616863271951855"><ele>81.0</ele><time>2026-05-01T10:48:55.001Z</time></trkpt><trkpt lat="45.644512637630626" lon="10.616945768111057"><ele>80.0</ele><time>2026-05-01T10:48:56.001Z</time></trkpt><trkpt lat="45.644628651927164" lon="10.61701772509009"><ele>79.0</ele><time>2026-05-01T10:48:57.001Z</time></trkpt><trkpt lat="45.644750727232804" lon="10.617066862482599"><ele>78.0</ele><time>2026-05-01T10:48:58.001Z</time></trkpt><trkpt lat="45.644887827493775" lon="10.617106333397942"><ele>77.0</ele><time>2026-05-01T10:48:59.001Z</time></trkpt><trkpt lat="45.64504884659588" lon="10.617148362236136"><ele>77.0</ele><time>2026-05-01T10:49:00.001Z</time></trkpt><trkpt lat="45.64522988500328" lon="10.617198830649798"><ele>77.0</ele><time>2026-05-01T10:49:01.001Z</time></trkpt><trkpt lat="45.645413800359485" lon="10.617270984916857"><ele>77.0</ele><time>2026-05-01T10:49:02.001Z</time></trkpt><trkpt lat="45.64557160356621" lon="10.617341039517374"><ele>80.5</ele><time>2026-05-01T10:49:03.001Z</time></trkpt><trkpt lat="45.645716981935" lon="10.61740206525184"><ele>84.0</ele><time>2026-05-01T10:49:04.001Z</time></trkpt><trkpt lat="45.64585084395122" lon="10.617459411046784"><ele>87.5</ele><time>2026-05-01T10:49:05.001Z</time></trkpt><trkpt lat="45.64597143238657" lon="10.617593528976286"><ele>91.0</ele><time>2026-05-01T10:49:06.001Z</time></trkpt><trkpt lat="45.646049842764185" lon="10.617736321815098"><ele>88.2</ele><time>2026-05-01T10:49:07.001Z</time></trkpt><trkpt lat="45.64611549122334" lon="10.617881299315991"><ele>85.39999999999999</ele><time>2026-05-01T10:49:08.001Z</time></trkpt><trkpt lat="45.64617887049575" lon="10.618005604024907"><ele>82.6</ele><time>2026-05-01T10:49:09.001Z</time></trkpt><trkpt lat="45.64623022325024" lon="10.61811393293043"><ele>79.8</ele><time>2026-05-01T10:49:10.001Z</time></trkpt><trkpt lat="45.646284178442166" lon="10.618219876258712"><ele>77.0</ele><time>2026-05-01T10:49:11.001Z</time></trkpt><trkpt lat="45.6463427261032" lon="10.618332919678384"><ele>78.0</ele><time>2026-05-01T10:49:12.001Z</time></trkpt><trkpt lat="45.64641418456574" lon="10.618443596804676"><ele>79.0</ele><time>2026-05-01T10:49:13.001Z</time></trkpt><trkpt lat="45.64648998630297" lon="10.618565183361124"><ele>80.0</ele><time>2026-05-01T10:49:14.001Z</time></trkpt><trkpt lat="45.646561950450895" lon="10.618684378696305"><ele>81.0</ele><time>2026-05-01T10:49:15.001Z</time></trkpt><trkpt lat="45.646637891225765" lon="10.618805150713415"><ele>82.0</ele><time>2026-05-01T10:49:16.001Z</time></trkpt><trkpt lat="45.64671487737514" lon="10.618930062866209"><ele>82.0</ele><time>2026-05-01T10:49:17.001Z</time></trkpt><trkpt lat="45.646793293968706" lon="10.619062708616852"><ele>82.0</ele><time>2026-05-01T10:49:18.001Z</time></trkpt><trkpt lat="45.64687032781603" lon="10.619211884210246"><ele>82.0</ele><time>2026-05-01T10:49:19.001Z</time></trkpt><trkpt lat="45.646954258882666" lon="10.619390465135073"><ele>82.0</ele><time>2026-05-01T10:49:20.001Z</time></trkpt><trkpt lat="45.64703471743415" lon="10.619614755871758"><ele>89.0</ele><time>2026-05-01T10:49:21.001Z</time></trkpt><trkpt lat="45.647124052725594" lon="10.619790475098249"><ele>96.0</ele><time>2026-05-01T10:49:22.001Z</time></trkpt><trkpt lat="45.647198023406936" lon="10.619955338056306"><ele>103.0</ele><time>2026-05-01T10:49:23.001Z</time></trkpt><trkpt lat="45.64725844822166" lon="10.620120966475033"><ele>110.0</ele><time>2026-05-01T10:49:24.001Z</time></trkpt><trkpt lat="45.64732299076209" lon="10.62026465709366"><ele>102.75</ele><time>2026-05-01T10:49:25.001Z</time></trkpt><trkpt lat="45.64740541923395" lon="10.620401300875521"><ele>95.5</ele><time>2026-05-01T10:49:26.001Z</time></trkpt><trkpt lat="45.64746546505757" lon="10.620574800269345"><ele>88.25</ele><time>2026-05-01T10:49:27.001Z</time></trkpt><trkpt lat="45.64754826839598" lon="10.620754635183024"><ele>81.0</ele><time>2026-05-01T10:49:28.001Z</time></trkpt><trkpt lat="45.64764350277122" lon="10.620961108933008"><ele>77.0</ele><time>2026-05-01T10:49:29.001Z</time></trkpt><trkpt lat="45.64773784520126" lon="10.62116586199779"><ele>73.0</ele><time>2026-05-01T10:49:30.001Z</time></trkpt><trkpt lat="45.647832675939156" lon="10.621330973378038"><ele>69.0</ele><time>2026-05-01T10:49:31.001Z</time></trkpt><trkpt lat="45.64790324802198" lon="10.621499901409347"><ele>71.33333333333333</ele><time>2026-05-01T10:49:32.001Z</time></trkpt><trkpt lat="45.64798532638655" lon="10.621665807546746"><ele>73.66666666666666</ele><time>2026-05-01T10:49:33.001Z</time></trkpt><trkpt lat="45.64808355997347" lon="10.621886487147318"><ele>76.0</ele><time>2026-05-01T10:49:34.001Z</time></trkpt><trkpt lat="45.648230866450575" lon="10.622118651669034"><ele>76.0</ele><time>2026-05-01T10:49:35.001Z</time></trkpt><trkpt lat="45.648413753784325" lon="10.622356094828882"><ele>76.0</ele><time>2026-05-01T10:49:36.001Z</time></trkpt><trkpt lat="45.64860736815939" lon="10.62261967270875"><ele>82.5</ele><time>2026-05-01T10:49:37.001Z</time></trkpt><trkpt lat="45.64880478669721" lon="10.622904182591665"><ele>89.0</ele><time>2026-05-01T10:49:38.001Z</time></trkpt><trkpt lat="45.64896924000048" lon="10.623228605479767"><ele>89.0</ele><time>2026-05-01T10:49:39.001Z</time></trkpt><trkpt lat="45.64912823178701" lon="10.623579257193436"><ele>89.0</ele><time>2026-05-01T10:49:40.001Z</time></trkpt><trkpt lat="45.64927406832938" lon="10.623944251417349"><ele>86.5</ele><time>2026-05-01T10:49:41.001Z</time></trkpt><trkpt lat="45.64942142932707" lon="10.624255756406974"><ele>84.0</ele><time>2026-05-01T10:49:42.001Z</time></trkpt><trkpt lat="45.64956798409888" lon="10.624543308780154"><ele>84.0</ele><time>2026-05-01T10:49:43.001Z</time></trkpt><trkpt lat="45.64972034245784" lon="10.624808007378048"><ele>84.0</ele><time>2026-05-01T10:49:44.001Z</time></trkpt><trkpt lat="45.64988415351941" lon="10.625057367770205"><ele>84.0</ele><time>2026-05-01T10:49:45.002Z</time></trkpt><trkpt lat="45.65006794455417" lon="10.625298715646366"><ele>84.0</ele><time>2026-05-01T10:49:46.002Z</time></trkpt><trkpt lat="45.65023535957026" lon="10.625550060250712"><ele>88.5</ele><time>2026-05-01T10:49:47.002Z</time></trkpt><trkpt lat="45.65041984657697" lon="10.625777357293346"><ele>93.0</ele><time>2026-05-01T10:49:48.002Z</time></trkpt><trkpt lat="45.65056966868958" lon="10.626028440579333"><ele>88.0</ele><time>2026-05-01T10:49:49.002Z</time></trkpt><trkpt lat="45.650707984458776" lon="10.626294292142827"><ele>83.0</ele><time>2026-05-01T10:49:50.002Z</time></trkpt><trkpt lat="45.650832447626534" lon="10.626550693360215"><ele>83.0</ele><time>2026-05-01T10:49:51.002Z</time></trkpt><trkpt lat="45.65095424121907" lon="10.626791660550603"><ele>83.0</ele><time>2026-05-01T10:49:52.002Z</time></trkpt><trkpt lat="45.65107585513068" lon="10.62703903923338"><ele>83.0</ele><time>2026-05-01T10:49:53.002Z</time></trkpt><trkpt lat="45.6512074790599" lon="10.627275277056606"><ele>80.66666666666667</ele><time>2026-05-01T10:49:54.002Z</time></trkpt><trkpt lat="45.65136047484233" lon="10.627490138163889"><ele>78.33333333333333</ele><time>2026-05-01T10:49:55.002Z</time></trkpt><trkpt lat="45.651541069283084" lon="10.627703555916924"><ele>76.0</ele><time>2026-05-01T10:49:56.002Z</time></trkpt><trkpt lat="45.65172566084322" lon="10.627886541826166"><ele>76.0</ele><time>2026-05-01T10:49:57.002Z</time></trkpt><trkpt lat="45.651912779771315" lon="10.628076364664533"><ele>76.0</ele><time>2026-05-01T10:49:58.002Z</time></trkpt><trkpt lat="45.65207975099682" lon="10.62825113725134"><ele>76.0</ele><time>2026-05-01T10:49:59.002Z</time></trkpt><trkpt lat="45.6522356822402" lon="10.628406291324335"><ele>75.0</ele><time>2026-05-01T10:50:00.002Z</time></trkpt><trkpt lat="45.65240983790144" lon="10.6285407070518"><ele>74.0</ele><time>2026-05-01T10:50:01.002Z</time></trkpt><trkpt lat="45.65257957412901" lon="10.628630700605067"><ele>73.0</ele><time>2026-05-01T10:50:02.002Z</time></trkpt><trkpt lat="45.65272078375733" lon="10.628741020690361"><ele>83.33333333333333</ele><time>2026-05-01T10:50:03.002Z</time></trkpt><trkpt lat="45.652838123539354" lon="10.628872312238425"><ele>93.66666666666666</ele><time>2026-05-01T10:50:04.002Z</time></trkpt><trkpt lat="45.652965975057775" lon="10.629070557193394"><ele>104.0</ele><time>2026-05-01T10:50:05.002Z</time></trkpt><trkpt lat="45.653109404824015" lon="10.629311445290067"><ele>95.5</ele><time>2026-05-01T10:50:06Z</time></trkpt><trkpt lat="45.65324826128923" lon="10.629567492019989"><ele>87.0</ele><time>2026-05-01T10:50:07Z</time></trkpt><trkpt lat="45.65338361351134" lon="10.62982294296632"><ele>87.0</ele><time>2026-05-01T10:50:08Z</time></trkpt><trkpt lat="45.65352614458958" lon="10.630094198320766"><ele>87.0</ele><time>2026-05-01T10:50:09Z</time></trkpt><trkpt lat="45.65366640317308" lon="10.630360180789625"><ele>92.5</ele><time>2026-05-01T10:50:10Z</time></trkpt><trkpt lat="45.65380372541383" lon="10.630639373492588"><ele>98.0</ele><time>2026-05-01T10:50:11Z</time></trkpt><trkpt lat="45.65392108741745" lon="10.630901145981216"><ele>93.0</ele><time>2026-05-01T10:50:12Z</time></trkpt><trkpt lat="45.65402726681759" lon="10.631158672677328"><ele>88.0</ele><time>2026-05-01T10:50:13Z</time></trkpt><trkpt lat="45.654128978701344" lon="10.631409857370688"><ele>83.0</ele><time>2026-05-01T10:50:14Z</time></trkpt><trkpt lat="45.65423681535647" lon="10.631679254262531"><ele>83.0</ele><time>2026-05-01T10:50:15Z</time></trkpt><trkpt lat="45.65434161158475" lon="10.631943498742903"><ele>83.0</ele><time>2026-05-01T10:50:16Z</time></trkpt><trkpt lat="45.65443822551646" lon="10.632200742553641"><ele>83.0</ele><time>2026-05-01T10:50:17Z</time></trkpt><trkpt lat="45.654524788407215" lon="10.632464848540797"><ele>84.0</ele><time>2026-05-01T10:50:18Z</time></trkpt><trkpt lat="45.65463417893551" lon="10.632733300513665"><ele>85.0</ele><time>2026-05-01T10:50:19Z</time></trkpt><trkpt lat="45.65479016125745" lon="10.632968084916063"><ele>86.0</ele><time>2026-05-01T10:50:20Z</time></trkpt><trkpt lat="45.654929695588955" lon="10.633205579789488"><ele>86.0</ele><time>2026-05-01T10:50:21Z</time></trkpt><trkpt lat="45.655072322366564" lon="10.63343064408282"><ele>86.0</ele><time>2026-05-01T10:50:22Z</time></trkpt><trkpt lat="45.655217793179105" lon="10.63365631128474"><ele>86.0</ele><time>2026-05-01T10:50:23Z</time></trkpt><trkpt lat="45.6553686988071" lon="10.633879391089502"><ele>83.33333333333334</ele><time>2026-05-01T10:50:24Z</time></trkpt><trkpt lat="45.655524240449665" lon="10.634095831508462"><ele>80.66666666666667</ele><time>2026-05-01T10:50:25Z</time></trkpt><trkpt lat="45.655659938109416" lon="10.63436253046272"><ele>78.0</ele><time>2026-05-01T10:50:26Z</time></trkpt><trkpt lat="45.65577724610296" lon="10.634613576641412"><ele>78.0</ele><time>2026-05-01T10:50:27Z</time></trkpt><trkpt lat="45.655903147292385" lon="10.634845142601828"><ele>78.0</ele><time>2026-05-01T10:50:28Z</time></trkpt><trkpt lat="45.65603998155363" lon="10.635087456288355"><ele>78.0</ele><time>2026-05-01T10:50:29Z</time></trkpt><trkpt lat="45.656172389439114" lon="10.63532193151286"><ele>83.0</ele><time>2026-05-01T10:50:30Z</time></trkpt><trkpt lat="45.65629853340904" lon="10.635528886232942"><ele>88.0</ele><time>2026-05-01T10:50:31Z</time></trkpt><trkpt lat="45.65656305020173" lon="10.635558524816949"><ele>88.0</ele><time>2026-05-01T10:50:32Z</time></trkpt><trkpt lat="45.65671846933732" lon="10.63570803202702"><ele>88.0</ele><time>2026-05-01T10:50:33Z</time></trkpt><trkpt lat="45.65689525026217" lon="10.635846472941193"><ele>88.0</ele><time>2026-05-01T10:50:34Z</time></trkpt><trkpt lat="45.657082796411196" lon="10.63597123219516"><ele>84.66666666666666</ele><time>2026-05-01T10:50:35Z</time></trkpt><trkpt lat="45.657245399328914" lon="10.636137487847524"><ele>81.33333333333333</ele><time>2026-05-01T10:50:36Z</time></trkpt><trkpt lat="45.657373303729734" lon="10.636338724144972"><ele>78.0</ele><time>2026-05-01T10:50:37Z</time></trkpt><trkpt lat="45.65750478234348" lon="10.63655044930649"><ele>78.0</ele><time>2026-05-01T10:50:38Z</time></trkpt><trkpt lat="45.65762621719643" lon="10.636759780928537"><ele>78.0</ele><time>2026-05-01T10:50:39Z</time></trkpt><trkpt lat="45.65776735929066" lon="10.636971595431897"><ele>78.0</ele><time>2026-05-01T10:50:40Z</time></trkpt><trkpt lat="45.65792555065018" lon="10.63719515802312"><ele>81.33333333333333</ele><time>2026-05-01T10:50:41Z</time></trkpt><trkpt lat="45.6580691024872" lon="10.63738582589946"><ele>84.66666666666666</ele><time>2026-05-01T10:50:42Z</time></trkpt><trkpt lat="45.65816084481223" lon="10.637460142733882"><ele>88.0</ele><time>2026-05-01T10:50:43Z</time></trkpt><trkpt lat="45.65829627622436" lon="10.63759902934476"><ele>88.0</ele><time>2026-05-01T10:50:44Z</time></trkpt><trkpt lat="45.6584317190106" lon="10.637738996064234"><ele>88.0</ele><time>2026-05-01T10:50:45Z</time></trkpt><trkpt lat="45.65855508403558" lon="10.637903356219992"><ele>88.0</ele><time>2026-05-01T10:50:46Z</time></trkpt><trkpt lat="45.65866786006874" lon="10.638093782758713"><ele>89.66666666666666</ele><time>2026-05-01T10:50:47Z</time></trkpt><trkpt lat="45.6587652889785" lon="10.638267869521977"><ele>91.33333333333333</ele><time>2026-05-01T10:50:48Z</time></trkpt><trkpt lat="45.65888712277731" lon="10.638410254284876"><ele>93.0</ele><time>2026-05-01T10:50:49Z</time></trkpt><trkpt lat="45.659020360745124" lon="10.638535200986496"><ele>89.66666666666667</ele><time>2026-05-01T10:50:50Z</time></trkpt><trkpt lat="45.65914843662246" lon="10.638679527329073"><ele>86.33333333333334</ele><time>2026-05-01T10:50:51Z</time></trkpt><trkpt lat="45.65926538791685" lon="10.638814917045973"><ele>83.0</ele><time>2026-05-01T10:50:52Z</time></trkpt><trkpt lat="45.659375816344486" lon="10.638959079633795"><ele>84.66666666666667</ele><time>2026-05-01T10:50:53.001Z</time></trkpt><trkpt lat="45.65946511842028" lon="10.639140061393764"><ele>86.33333333333333</ele><time>2026-05-01T10:50:54.001Z</time></trkpt><trkpt lat="45.65951757579803" lon="10.639360548943475"><ele>88.0</ele><time>2026-05-01T10:50:55.001Z</time></trkpt><trkpt lat="45.65956382607485" lon="10.639578474108863"><ele>88.0</ele><time>2026-05-01T10:50:56.001Z</time></trkpt><trkpt lat="45.65966425294988" lon="10.639761262484651"><ele>88.0</ele><time>2026-05-01T10:50:57.001Z</time></trkpt><trkpt lat="45.659784566575894" lon="10.639940222266755"><ele>88.0</ele><time>2026-05-01T10:50:58.001Z</time></trkpt><trkpt lat="45.6599052019119" lon="10.640129750511162"><ele>82.66666666666666</ele><time>2026-05-01T10:50:59.001Z</time></trkpt><trkpt lat="45.66002135837567" lon="10.640328974506502"><ele>77.33333333333333</ele><time>2026-05-01T10:51:00.001Z</time></trkpt><trkpt lat="45.66013838463514" lon="10.640525824554208"><ele>72.0</ele><time>2026-05-01T10:51:01.001Z</time></trkpt><trkpt lat="45.66026175454759" lon="10.640727032937633"><ele>75.66666666666667</ele><time>2026-05-01T10:51:02.001Z</time></trkpt><trkpt lat="45.66038270037694" lon="10.640922559571102"><ele>79.33333333333334</ele><time>2026-05-01T10:51:03.001Z</time></trkpt><trkpt lat="45.6605098928489" lon="10.64111694543559"><ele>83.0</ele><time>2026-05-01T10:51:04.001Z</time></trkpt><trkpt lat="45.66063734772416" lon="10.641301760332144"><ele>83.0</ele><time>2026-05-01T10:51:05.001Z</time></trkpt><trkpt lat="45.66076757706432" lon="10.641468047417481"><ele>83.0</ele><time>2026-05-01T10:51:06.001Z</time></trkpt><trkpt lat="45.6608895363366" lon="10.641630564525059"><ele>83.0</ele><time>2026-05-01T10:51:07.001Z</time></trkpt><trkpt lat="45.660994697242195" lon="10.641792289104124"><ele>85.33333333333334</ele><time>2026-05-01T10:51:08.001Z</time></trkpt><trkpt lat="45.66108937228953" lon="10.641969648950205"><ele>87.66666666666667</ele><time>2026-05-01T10:51:09.001Z</time></trkpt><trkpt lat="45.66118476490144" lon="10.642139874205611"><ele>90.0</ele><time>2026-05-01T10:51:10.001Z</time></trkpt><trkpt lat="45.66129072177913" lon="10.64229126490957"><ele>90.0</ele><time>2026-05-01T10:51:11.001Z</time></trkpt><trkpt lat="45.66140924664808" lon="10.642425431716807"><ele>90.0</ele><time>2026-05-01T10:51:12.001Z</time></trkpt><trkpt lat="45.66153540508547" lon="10.642561573948523"><ele>90.0</ele><time>2026-05-01T10:51:13.001Z</time></trkpt><trkpt lat="45.66165985635182" lon="10.64270146156364"><ele>92.33333333333334</ele><time>2026-05-01T10:51:14.001Z</time></trkpt><trkpt lat="45.66178597435434" lon="10.642840686535898"><ele>94.66666666666667</ele><time>2026-05-01T10:51:15.001Z</time></trkpt><trkpt lat="45.661914738438846" lon="10.642980065365599"><ele>97.0</ele><time>2026-05-01T10:51:16.001Z</time></trkpt><trkpt lat="45.66204181509581" lon="10.643118708552185"><ele>97.0</ele><time>2026-05-01T10:51:17.001Z</time></trkpt><trkpt lat="45.66216666408335" lon="10.643262964090452"><ele>97.0</ele><time>2026-05-01T10:51:18.001Z</time></trkpt><trkpt lat="45.66229920754671" lon="10.64340709712159"><ele>97.0</ele><time>2026-05-01T10:51:19.001Z</time></trkpt><trkpt lat="45.66243445832689" lon="10.64355653470388"><ele>100.66666666666667</ele><time>2026-05-01T10:51:20.001Z</time></trkpt><trkpt lat="45.66257465169763" lon="10.643712457414091"><ele>104.33333333333334</ele><time>2026-05-01T10:51:21.001Z</time></trkpt><trkpt lat="45.66271516037659" lon="10.643874266333377"><ele>108.0</ele><time>2026-05-01T10:51:22.001Z</time></trkpt><trkpt lat="45.66285574593991" lon="10.644047019064965"><ele>108.0</ele><time>2026-05-01T10:51:23.001Z</time></trkpt><trkpt lat="45.66299339373509" lon="10.644221774510601"><ele>108.0</ele><time>2026-05-01T10:51:24.001Z</time></trkpt><trkpt lat="45.66313171786566" lon="10.64439664108997"><ele>108.0</ele><time>2026-05-01T10:51:25.001Z</time></trkpt><trkpt lat="45.66326729017467" lon="10.644556210799502"><ele>107.0</ele><time>2026-05-01T10:51:26.001Z</time></trkpt><trkpt lat="45.663400565816964" lon="10.644706814839115"><ele>106.0</ele><time>2026-05-01T10:51:27.001Z</time></trkpt><trkpt lat="45.66354303020213" lon="10.644844204890134"><ele>105.0</ele><time>2026-05-01T10:51:28.001Z</time></trkpt><trkpt lat="45.66368609745637" lon="10.644957912899175"><ele>105.0</ele><time>2026-05-01T10:51:29.001Z</time></trkpt><trkpt lat="45.66384609374113" lon="10.645059141249854"><ele>105.0</ele><time>2026-05-01T10:51:30.001Z</time></trkpt><trkpt lat="45.66400392677447" lon="10.645152907146626"><ele>105.0</ele><time>2026-05-01T10:51:31.001Z</time></trkpt><trkpt lat="45.664158970919644" lon="10.645224646417"><ele>105.0</ele><time>2026-05-01T10:51:32.001Z</time></trkpt><trkpt lat="45.66430297493851" lon="10.64527275231427"><ele>105.0</ele><time>2026-05-01T10:51:33.001Z</time></trkpt><trkpt lat="45.664454287878044" lon="10.645346394110785"><ele>105.0</ele><time>2026-05-01T10:51:34.001Z</time></trkpt><trkpt lat="45.66458935109208" lon="10.64547903012873"><ele>102.33333333333334</ele><time>2026-05-01T10:51:35.001Z</time></trkpt><trkpt lat="45.66471428587708" lon="10.645636362364225"><ele>99.66666666666667</ele><time>2026-05-01T10:51:36.001Z</time></trkpt><trkpt lat="45.66481596041977" lon="10.645830315116488"><ele>97.0</ele><time>2026-05-01T10:51:37.001Z</time></trkpt><trkpt lat="45.66492022807029" lon="10.646005849392493"><ele>90.66666666666667</ele><time>2026-05-01T10:51:38.001Z</time></trkpt><trkpt lat="45.66502564571447" lon="10.646175733406626"><ele>84.33333333333334</ele><time>2026-05-01T10:51:39.001Z</time></trkpt><trkpt lat="45.66511207093752" lon="10.646361305135944"><ele>78.0</ele><time>2026-05-01T10:51:40.001Z</time></trkpt><trkpt lat="45.6651994765584" lon="10.646543996831443"><ele>80.0</ele><time>2026-05-01T10:51:41.001Z</time></trkpt><trkpt lat="45.665293817816604" lon="10.646724471524985"><ele>82.0</ele><time>2026-05-01T10:51:42.001Z</time></trkpt><trkpt lat="45.66541195479748" lon="10.646881989302226"><ele>84.0</ele><time>2026-05-01T10:51:43.001Z</time></trkpt><trkpt lat="45.66554593835537" lon="10.647022591996242"><ele>84.0</ele><time>2026-05-01T10:51:44.001Z</time></trkpt><trkpt lat="45.665679816426916" lon="10.647175654016724"><ele>84.0</ele><time>2026-05-01T10:51:45.001Z</time></trkpt><trkpt lat="45.665855417935" lon="10.64732332812823"><ele>84.0</ele><time>2026-05-01T10:51:46.001Z</time></trkpt><trkpt lat="45.66605698909645" lon="10.64748392727624"><ele>83.5</ele><time>2026-05-01T10:51:47.001Z</time></trkpt><trkpt lat="45.666283158583624" lon="10.647668745008133"><ele>83.0</ele><time>2026-05-01T10:51:48.001Z</time></trkpt><trkpt lat="45.66652492644346" lon="10.647848669598515"><ele>83.0</ele><time>2026-05-01T10:51:49.001Z</time></trkpt><trkpt lat="45.66675779765455" lon="10.647967385057846"><ele>83.0</ele><time>2026-05-01T10:51:50.001Z</time></trkpt><trkpt lat="45.66695363921023" lon="10.648125644640066"><ele>81.33333333333334</ele><time>2026-05-01T10:51:51.001Z</time></trkpt><trkpt lat="45.66710743833539" lon="10.648313191941643"><ele>79.66666666666667</ele><time>2026-05-01T10:51:52.001Z</time></trkpt><trkpt lat="45.66725631433964" lon="10.64850321249952"><ele>78.0</ele><time>2026-05-01T10:51:53.001Z</time></trkpt><trkpt lat="45.66740337820589" lon="10.648664360601042"><ele>78.0</ele><time>2026-05-01T10:51:54.001Z</time></trkpt><trkpt lat="45.66753672493436" lon="10.64884003499283"><ele>78.0</ele><time>2026-05-01T10:51:55.001Z</time></trkpt><trkpt lat="45.66765316019994" lon="10.648991534863038"><ele>78.0</ele><time>2026-05-01T10:51:56.001Z</time></trkpt><trkpt lat="45.66776941948473" lon="10.649141476806177"><ele>76.5</ele><time>2026-05-01T10:51:57.001Z</time></trkpt><trkpt lat="45.66788281150466" lon="10.649266095965682"><ele>75.0</ele><time>2026-05-01T10:51:58.001Z</time></trkpt><trkpt lat="45.668013175779734" lon="10.649351595800146"><ele>73.5</ele><time>2026-05-01T10:51:59.001Z</time></trkpt><trkpt lat="45.66815209520187" lon="10.649440723100723"><ele>72.0</ele><time>2026-05-01T10:52:00.001Z</time></trkpt><trkpt lat="45.66830167706058" lon="10.649498368467375"><ele>72.0</ele><time>2026-05-01T10:52:01.001Z</time></trkpt><trkpt lat="45.66846312616149" lon="10.649595636926218"><ele>72.0</ele><time>2026-05-01T10:52:02.001Z</time></trkpt><trkpt lat="45.66866220637753" lon="10.649703352165398"><ele>72.0</ele><time>2026-05-01T10:52:03.001Z</time></trkpt><trkpt lat="45.6688697835875" lon="10.649792559718072"><ele>74.0</ele><time>2026-05-01T10:52:04.001Z</time></trkpt><trkpt lat="45.66904659837356" lon="10.649899685225808"><ele>76.0</ele><time>2026-05-01T10:52:05.001Z</time></trkpt><trkpt lat="45.669220336119594" lon="10.649990429925905"><ele>78.0</ele><time>2026-05-01T10:52:06.001Z</time></trkpt><trkpt lat="45.66938572060171" lon="10.650076214842995"><ele>78.33333333333333</ele><time>2026-05-01T10:52:07.001Z</time></trkpt><trkpt lat="45.66953805817038" lon="10.650159995796882"><ele>78.66666666666666</ele><time>2026-05-01T10:52:08.001Z</time></trkpt><trkpt lat="45.66968953950927" lon="10.650242387361141"><ele>79.0</ele><time>2026-05-01T10:52:09.001Z</time></trkpt><trkpt lat="45.66983810985827" lon="10.650334715661959"><ele>79.0</ele><time>2026-05-01T10:52:10.001Z</time></trkpt><trkpt lat="45.66996929869019" lon="10.650427202707833"><ele>79.0</ele><time>2026-05-01T10:52:11.001Z</time></trkpt><trkpt lat="45.6700827804534" lon="10.650537179160585"><ele>79.0</ele><time>2026-05-01T10:52:12Z</time></trkpt><trkpt lat="45.67018984102992" lon="10.6506614625124"><ele>79.0</ele><time>2026-05-01T10:52:13Z</time></trkpt><trkpt lat="45.670290574389945" lon="10.650789450840703"><ele>78.4</ele><time>2026-05-01T10:52:14Z</time></trkpt><trkpt lat="45.67037850992555" lon="10.650910733627333"><ele>77.80000000000001</ele><time>2026-05-01T10:52:15Z</time></trkpt><trkpt lat="45.67045986026994" lon="10.651010339829577"><ele>77.19999999999999</ele><time>2026-05-01T10:52:16Z</time></trkpt><trkpt lat="45.67053892481993" lon="10.651104444340149"><ele>76.6</ele><time>2026-05-01T10:52:17Z</time></trkpt><trkpt lat="45.670596227504355" lon="10.651172024687547"><ele>76.0</ele><time>2026-05-01T10:52:18Z</time></trkpt><trkpt lat="45.67065100771115" lon="10.651232119503051"><ele>76.0</ele><time>2026-05-01T10:52:19Z</time></trkpt><trkpt lat="45.6707079426665" lon="10.651281581081626"><ele>76.0</ele><time>2026-05-01T10:52:20Z</time></trkpt><trkpt lat="45.67077785857369" lon="10.65132860832396"><ele>76.0</ele><time>2026-05-01T10:52:21Z</time></trkpt><trkpt lat="45.67085905804365" lon="10.651366286614827"><ele>76.0</ele><time>2026-05-01T10:52:22Z</time></trkpt><trkpt lat="45.67095753551458" lon="10.651414907199205"><ele>76.0</ele><time>2026-05-01T10:52:23Z</time></trkpt><trkpt lat="45.67107253269725" lon="10.651461761310905"><ele>76.25</ele><time>2026-05-01T10:52:24Z</time></trkpt><trkpt lat="45.671193449114526" lon="10.651509493896596"><ele>76.5</ele><time>2026-05-01T10:52:25Z</time></trkpt><trkpt lat="45.67133672416388" lon="10.651553867703774"><ele>76.75</ele><time>2026-05-01T10:52:26Z</time></trkpt><trkpt lat="45.67150817946673" lon="10.651593167734974"><ele>77.0</ele><time>2026-05-01T10:52:27Z</time></trkpt><trkpt lat="45.67166552860252" lon="10.651591664826787"><ele>77.0</ele><time>2026-05-01T10:52:28Z</time></trkpt><trkpt lat="45.6718030178987" lon="10.6515713354474"><ele>77.0</ele><time>2026-05-01T10:52:29Z</time></trkpt><trkpt lat="45.671935811435446" lon="10.651545914450773"><ele>77.0</ele><time>2026-05-01T10:52:30Z</time></trkpt><trkpt lat="45.67207219309923" lon="10.651510761985248"><ele>77.0</ele><time>2026-05-01T10:52:31Z</time></trkpt><trkpt lat="45.672207020864604" lon="10.651453928852847"><ele>76.4</ele><time>2026-05-01T10:52:32Z</time></trkpt><trkpt lat="45.67231930860881" lon="10.6513895036399"><ele>75.80000000000001</ele><time>2026-05-01T10:52:33Z</time></trkpt><trkpt lat="45.672405654791255" lon="10.651340930216527"><ele>75.2</ele><time>2026-05-01T10:52:34Z</time></trkpt><trkpt lat="45.67248536189673" lon="10.651299360258731"><ele>74.60000000000001</ele><time>2026-05-01T10:52:36Z</time></trkpt><trkpt lat="45.67259619337695" lon="10.651227107508577"><ele>74.0</ele><time>2026-05-01T10:52:38Z</time></trkpt><trkpt lat="45.67268298080597" lon="10.651167574911675"><ele>73.5</ele><time>2026-05-01T10:52:39Z</time></trkpt><trkpt lat="45.67279555383409" lon="10.651129165805493"><ele>73.0</ele><time>2026-05-01T10:52:40Z</time></trkpt><trkpt lat="45.672906521444524" lon="10.651048829175606"><ele>72.5</ele><time>2026-05-01T10:52:41Z</time></trkpt><trkpt lat="45.6730654385816" lon="10.650987549364064"><ele>72.0</ele><time>2026-05-01T10:52:42Z</time></trkpt><trkpt lat="45.673240778056325" lon="10.650893828929247"><ele>73.0</ele><time>2026-05-01T10:52:43Z</time></trkpt><trkpt lat="45.6733947091173" lon="10.650777203526046"><ele>74.0</ele><time>2026-05-01T10:52:44Z</time></trkpt><trkpt lat="45.67354167417964" lon="10.650699924682055"><ele>75.0</ele><time>2026-05-01T10:52:45Z</time></trkpt><trkpt lat="45.67368423085616" lon="10.650631665689954"><ele>75.0</ele><time>2026-05-01T10:52:46Z</time></trkpt><trkpt lat="45.673815081511265" lon="10.650571986893462"><ele>75.0</ele><time>2026-05-01T10:52:47Z</time></trkpt><trkpt lat="45.67393794895541" lon="10.65050913012098"><ele>75.0</ele><time>2026-05-01T10:52:48Z</time></trkpt><trkpt lat="45.67404766182467" lon="10.650460300013929"><ele>75.0</ele><time>2026-05-01T10:52:49Z</time></trkpt><trkpt lat="45.67412979607333" lon="10.650427241430105"><ele>75.0</ele><time>2026-05-01T10:52:50Z</time></trkpt><trkpt lat="45.67419469213606" lon="10.650400647091107"><ele>75.0</ele><time>2026-05-01T10:52:51Z</time></trkpt><trkpt lat="45.67427409804414" lon="10.650392637105869"><ele>75.0</ele><time>2026-05-01T10:52:53Z</time></trkpt><trkpt lat="45.67438049244317" lon="10.650433388461106"><ele>75.0</ele><time>2026-05-01T10:52:55Z</time></trkpt><trkpt lat="45.67445281331135" lon="10.650445542480284"><ele>75.0</ele><time>2026-05-01T10:52:56Z</time></trkpt><trkpt lat="45.674545676136624" lon="10.650441919115138"><ele>75.0</ele><time>2026-05-01T10:52:57Z</time></trkpt><trkpt lat="45.67463362984082" lon="10.650440531256827"><ele>75.6</ele><time>2026-05-01T10:52:58Z</time></trkpt><trkpt lat="45.67471521296796" lon="10.650452401327938"><ele>76.2</ele><time>2026-05-01T10:52:59Z</time></trkpt><trkpt lat="45.67480210087255" lon="10.650514937447806"><ele>76.8</ele><time>2026-05-01T10:53:00Z</time></trkpt><trkpt lat="45.67491557499493" lon="10.650583283753907"><ele>77.4</ele><time>2026-05-01T10:53:01Z</time></trkpt><trkpt lat="45.67504358555849" lon="10.650670954524372"><ele>78.0</ele><time>2026-05-01T10:53:02Z</time></trkpt><trkpt lat="45.675155751708125" lon="10.650816592754671"><ele>78.0</ele><time>2026-05-01T10:53:03Z</time></trkpt><trkpt lat="45.67525046739774" lon="10.65093491992"><ele>78.0</ele><time>2026-05-01T10:53:04Z</time></trkpt><trkpt lat="45.67534421329757" lon="10.65105387811906"><ele>78.0</ele><time>2026-05-01T10:53:05Z</time></trkpt><trkpt lat="45.675430811471124" lon="10.651160570650616"><ele>78.0</ele><time>2026-05-01T10:53:06Z</time></trkpt><trkpt lat="45.67552740328925" lon="10.651255923969787"><ele>77.5</ele><time>2026-05-01T10:53:07Z</time></trkpt><trkpt lat="45.67561824913841" lon="10.651367948646303"><ele>77.0</ele><time>2026-05-01T10:53:08Z</time></trkpt><trkpt lat="45.67571228958591" lon="10.65150564723513"><ele>76.5</ele><time>2026-05-01T10:53:09Z</time></trkpt><trkpt lat="45.675828627603515" lon="10.651637086635139"><ele>76.0</ele><time>2026-05-01T10:53:10Z</time></trkpt><trkpt lat="45.675942514172476" lon="10.651777445501104"><ele>76.0</ele><time>2026-05-01T10:53:11Z</time></trkpt><trkpt lat="45.67605626550344" lon="10.651923901926974"><ele>76.0</ele><time>2026-05-01T10:53:12.001Z</time></trkpt><trkpt lat="45.6761645338564" lon="10.652058296732454"><ele>76.0</ele><time>2026-05-01T10:53:13.001Z</time></trkpt><trkpt lat="45.67627419161742" lon="10.652191303144885"><ele>76.0</ele><time>2026-05-01T10:53:14.001Z</time></trkpt><trkpt lat="45.676383349067706" lon="10.652329523960528"><ele>75.5</ele><time>2026-05-01T10:53:15.001Z</time></trkpt><trkpt lat="45.6764823922432" lon="10.652456545658945"><ele>75.0</ele><time>2026-05-01T10:53:16.001Z</time></trkpt><trkpt lat="45.676588961394515" lon="10.652577450476587"><ele>74.5</ele><time>2026-05-01T10:53:17.001Z</time></trkpt><trkpt lat="45.67670616883483" lon="10.652678279002766"><ele>74.0</ele><time>2026-05-01T10:53:18.001Z</time></trkpt><trkpt lat="45.67682694907322" lon="10.652774888498804"><ele>73.0</ele><time>2026-05-01T10:53:19.001Z</time></trkpt><trkpt lat="45.67695043491686" lon="10.652875029000354"><ele>72.0</ele><time>2026-05-01T10:53:20.001Z</time></trkpt><trkpt lat="45.67707517749196" lon="10.652971276411575"><ele>71.0</ele><time>2026-05-01T10:53:21.001Z</time></trkpt><trkpt lat="45.67719680188407" lon="10.65306094537074"><ele>70.0</ele><time>2026-05-01T10:53:22.001Z</time></trkpt><trkpt lat="45.6773063883792" lon="10.653150912867245"><ele>70.0</ele><time>2026-05-01T10:53:23.001Z</time></trkpt><trkpt lat="45.67740576720083" lon="10.653224088106164"><ele>70.0</ele><time>2026-05-01T10:53:24.001Z</time></trkpt><trkpt lat="45.67750962510159" lon="10.653289034218133"><ele>70.0</ele><time>2026-05-01T10:53:25.001Z</time></trkpt><trkpt lat="45.677616271235834" lon="10.653360427868082"><ele>70.0</ele><time>2026-05-01T10:53:26.001Z</time></trkpt><trkpt lat="45.67773492554766" lon="10.653431068766565"><ele>70.5</ele><time>2026-05-01T10:53:27.001Z</time></trkpt><trkpt lat="45.67784625787039" lon="10.653527437563094"><ele>71.0</ele><time>2026-05-01T10:53:28.001Z</time></trkpt><trkpt lat="45.677962135722865" lon="10.653581983751364"><ele>71.5</ele><time>2026-05-01T10:53:29.001Z</time></trkpt><trkpt lat="45.678091723309045" lon="10.653637794250994"><ele>72.0</ele><time>2026-05-01T10:53:30.001Z</time></trkpt><trkpt lat="45.67821894390743" lon="10.653687370464077"><ele>70.75</ele><time>2026-05-01T10:53:31.001Z</time></trkpt><trkpt lat="45.67834497552508" lon="10.653727070906573"><ele>69.5</ele><time>2026-05-01T10:53:32.001Z</time></trkpt><trkpt lat="45.67847827364459" lon="10.65375500738855"><ele>68.25</ele><time>2026-05-01T10:53:33.001Z</time></trkpt><trkpt lat="45.67859878010022" lon="10.653761289130092"><ele>67.0</ele><time>2026-05-01T10:53:34.001Z</time></trkpt><trkpt lat="45.67869992628273" lon="10.653787558567187"><ele>67.0</ele><time>2026-05-01T10:53:35.001Z</time></trkpt><trkpt lat="45.678815617223606" lon="10.653830046214857"><ele>67.0</ele><time>2026-05-01T10:53:36.001Z</time></trkpt><trkpt lat="45.67894176845383" lon="10.653858120910058"><ele>67.0</ele><time>2026-05-01T10:53:37.001Z</time></trkpt><trkpt lat="45.67906744998301" lon="10.653884381542534"><ele>67.0</ele><time>2026-05-01T10:53:38.001Z</time></trkpt><trkpt lat="45.67919678446004" lon="10.653906657077922"><ele>67.0</ele><time>2026-05-01T10:53:39.001Z</time></trkpt><trkpt lat="45.67932594355615" lon="10.65393743408407"><ele>67.0</ele><time>2026-05-01T10:53:40.001Z</time></trkpt><trkpt lat="45.67945426283454" lon="10.653962636583083"><ele>67.0</ele><time>2026-05-01T10:53:41.001Z</time></trkpt><trkpt lat="45.679582738801265" lon="10.653988658680655"><ele>67.0</ele><time>2026-05-01T10:53:42.001Z</time></trkpt><trkpt lat="45.67970877120003" lon="10.654016857310237"><ele>67.75</ele><time>2026-05-01T10:53:43.001Z</time></trkpt><trkpt lat="45.67983248114413" lon="10.654052863776489"><ele>68.5</ele><time>2026-05-01T10:53:44.001Z</time></trkpt><trkpt lat="45.679955444482864" lon="10.65408460344524"><ele>69.25</ele><time>2026-05-01T10:53:45.001Z</time></trkpt><trkpt lat="45.68008009323702" lon="10.654117480896975"><ele>70.0</ele><time>2026-05-01T10:53:46.001Z</time></trkpt><trkpt lat="45.68021150457988" lon="10.654148996344494"><ele>71.25</ele><time>2026-05-01T10:53:47.001Z</time></trkpt><trkpt lat="45.680345996056495" lon="10.654175733529275"><ele>72.5</ele><time>2026-05-01T10:53:48.001Z</time></trkpt><trkpt lat="45.68048034194443" lon="10.654206212041535"><ele>73.75</ele><time>2026-05-01T10:53:49.001Z</time></trkpt><trkpt lat="45.68061812405002" lon="10.654236680540818"><ele>75.0</ele><time>2026-05-01T10:53:50.001Z</time></trkpt><trkpt lat="45.68075366228731" lon="10.654267028612388"><ele>75.0</ele><time>2026-05-01T10:53:51.001Z</time></trkpt><trkpt lat="45.680884031012006" lon="10.654300393470855"><ele>75.0</ele><time>2026-05-01T10:53:52.001Z</time></trkpt><trkpt lat="45.68100988526041" lon="10.654340188028069"><ele>75.0</ele><time>2026-05-01T10:53:53.001Z</time></trkpt><trkpt lat="45.681134140977704" lon="10.654389252709967"><ele>75.0</ele><time>2026-05-01T10:53:54.001Z</time></trkpt><trkpt lat="45.68124965341264" lon="10.654454051782377"><ele>74.75</ele><time>2026-05-01T10:53:55.001Z</time></trkpt><trkpt lat="45.68136441514358" lon="10.654527733178309"><ele>74.5</ele><time>2026-05-01T10:53:56.001Z</time></trkpt><trkpt lat="45.68147211816526" lon="10.654603860770791"><ele>74.25</ele><time>2026-05-01T10:53:57.001Z</time></trkpt><trkpt lat="45.681575334604084" lon="10.654688772643091"><ele>74.0</ele><time>2026-05-01T10:53:58.001Z</time></trkpt><trkpt lat="45.68168548712211" lon="10.654799420350377"><ele>74.0</ele><time>2026-05-01T10:53:59.001Z</time></trkpt><trkpt lat="45.68179835757341" lon="10.654903496927284"><ele>74.0</ele><time>2026-05-01T10:54:00.001Z</time></trkpt><trkpt lat="45.68190395564214" lon="10.655035616474278"><ele>74.0</ele><time>2026-05-01T10:54:01.001Z</time></trkpt><trkpt lat="45.68199321439725" lon="10.655154146857607"><ele>74.0</ele><time>2026-05-01T10:54:02.001Z</time></trkpt><trkpt lat="45.68207858177823" lon="10.655278234352009"><ele>75.25</ele><time>2026-05-01T10:54:03.001Z</time></trkpt><trkpt lat="45.682162568808074" lon="10.655398068939862"><ele>76.5</ele><time>2026-05-01T10:54:04.001Z</time></trkpt><trkpt lat="45.68225734020448" lon="10.655514896571542"><ele>77.75</ele><time>2026-05-01T10:54:05.001Z</time></trkpt><trkpt lat="45.68234785403864" lon="10.655642788512207"><ele>79.0</ele><time>2026-05-01T10:54:06.001Z</time></trkpt><trkpt lat="45.682446160130716" lon="10.655780326225479"><ele>79.0</ele><time>2026-05-01T10:54:07.001Z</time></trkpt><trkpt lat="45.682544756701034" lon="10.655919548079408"><ele>79.0</ele><time>2026-05-01T10:54:08.001Z</time></trkpt><trkpt lat="45.68263576790192" lon="10.656054923388552"><ele>79.0</ele><time>2026-05-01T10:54:09.001Z</time></trkpt><trkpt lat="45.68272756160165" lon="10.656178106884768"><ele>79.0</ele><time>2026-05-01T10:54:10.001Z</time></trkpt><trkpt lat="45.68282258629868" lon="10.656319069310605"><ele>80.0</ele><time>2026-05-01T10:54:11.001Z</time></trkpt><trkpt lat="45.68292328965092" lon="10.656462510128284"><ele>81.0</ele><time>2026-05-01T10:54:12.001Z</time></trkpt><trkpt lat="45.68303205254527" lon="10.656618298450402"><ele>82.0</ele><time>2026-05-01T10:54:13.001Z</time></trkpt><trkpt lat="45.68312717330262" lon="10.656758972768413"><ele>83.0</ele><time>2026-05-01T10:54:14.001Z</time></trkpt><trkpt lat="45.68322132992503" lon="10.656898891435683"><ele>83.80000000000001</ele><time>2026-05-01T10:54:15.001Z</time></trkpt><trkpt lat="45.683310082137105" lon="10.657023126991596"><ele>84.6</ele><time>2026-05-01T10:54:16.001Z</time></trkpt><trkpt lat="45.68339105195362" lon="10.657136373792378"><ele>85.4</ele><time>2026-05-01T10:54:17.001Z</time></trkpt><trkpt lat="45.68346230636677" lon="10.657244963732056"><ele>86.19999999999999</ele><time>2026-05-01T10:54:18Z</time></trkpt><trkpt lat="45.68353223299293" lon="10.657351534869147"><ele>87.0</ele><time>2026-05-01T10:54:19Z</time></trkpt><trkpt lat="45.68361651675482" lon="10.657470551772517"><ele>87.0</ele><time>2026-05-01T10:54:20Z</time></trkpt><trkpt lat="45.68370855561076" lon="10.657577406595003"><ele>87.0</ele><time>2026-05-01T10:54:21Z</time></trkpt><trkpt lat="45.683799422277446" lon="10.657679126965999"><ele>87.0</ele><time>2026-05-01T10:54:22Z</time></trkpt><trkpt lat="45.6839115422101" lon="10.657787375783567"><ele>87.0</ele><time>2026-05-01T10:54:23Z</time></trkpt><trkpt lat="45.68402727410623" lon="10.657890732512843"><ele>87.5</ele><time>2026-05-01T10:54:24Z</time></trkpt><trkpt lat="45.684145928454164" lon="10.657996401490129"><ele>88.0</ele><time>2026-05-01T10:54:25Z</time></trkpt><trkpt lat="45.68426377353055" lon="10.658109210956857"><ele>88.5</ele><time>2026-05-01T10:54:26Z</time></trkpt><trkpt lat="45.68437763041131" lon="10.658216111419861"><ele>89.0</ele><time>2026-05-01T10:54:27Z</time></trkpt><trkpt lat="45.68449440379517" lon="10.658316592742374"><ele>89.0</ele><time>2026-05-01T10:54:28Z</time></trkpt><trkpt lat="45.68462120826301" lon="10.658426763277852"><ele>89.0</ele><time>2026-05-01T10:54:29Z</time></trkpt><trkpt lat="45.68475688398402" lon="10.658542983510701"><ele>89.0</ele><time>2026-05-01T10:54:30Z</time></trkpt><trkpt lat="45.68489777115767" lon="10.65866969928825"><ele>88.33333333333334</ele><time>2026-05-01T10:54:31Z</time></trkpt><trkpt lat="45.68503689615059" lon="10.658804913071501"><ele>87.66666666666667</ele><time>2026-05-01T10:54:32Z</time></trkpt><trkpt lat="45.68516895558977" lon="10.658941175633654"><ele>87.0</ele><time>2026-05-01T10:54:33Z</time></trkpt><trkpt lat="45.685284838104366" lon="10.659064019163232"><ele>87.0</ele><time>2026-05-01T10:54:34Z</time></trkpt><trkpt lat="45.68539931264635" lon="10.659171908719625"><ele>87.0</ele><time>2026-05-01T10:54:35Z</time></trkpt><trkpt lat="45.68551334297164" lon="10.659277213880086"><ele>87.0</ele><time>2026-05-01T10:54:36Z</time></trkpt><trkpt lat="45.68561923450089" lon="10.659379099900855"><ele>87.0</ele><time>2026-05-01T10:54:37Z</time></trkpt><trkpt lat="45.68571784704843" lon="10.659475128603546"><ele>86.39999999999999</ele><time>2026-05-01T10:54:38Z</time></trkpt><trkpt lat="45.6858118859394" lon="10.659561892719687"><ele>85.8</ele><time>2026-05-01T10:54:39Z</time></trkpt><trkpt lat="45.68589513087137" lon="10.65964009989031"><ele>85.2</ele><time>2026-05-01T10:54:40Z</time></trkpt><trkpt lat="45.68597244338999" lon="10.659709119330188"><ele>84.6</ele><time>2026-05-01T10:54:41Z</time></trkpt><trkpt lat="45.68605352300665" lon="10.659778284376436"><ele>84.0</ele><time>2026-05-01T10:54:42Z</time></trkpt><trkpt lat="45.68615142307401" lon="10.659857761627002"><ele>84.0</ele><time>2026-05-01T10:54:43Z</time></trkpt><trkpt lat="45.68626169506043" lon="10.6599368872095"><ele>84.0</ele><time>2026-05-01T10:54:44Z</time></trkpt><trkpt lat="45.68635800807528" lon="10.660011274535481"><ele>84.0</ele><time>2026-05-01T10:54:45Z</time></trkpt><trkpt lat="45.686456139355656" lon="10.66006997637081"><ele>84.0</ele><time>2026-05-01T10:54:46Z</time></trkpt><trkpt lat="45.68657684628845" lon="10.660146158911079"><ele>84.0</ele><time>2026-05-01T10:54:47Z</time></trkpt><trkpt lat="45.686729897595434" lon="10.660245609812208"><ele>84.0</ele><time>2026-05-01T10:54:48Z</time></trkpt><trkpt lat="45.68691561778757" lon="10.660365070802863"><ele>84.0</ele><time>2026-05-01T10:54:49Z</time></trkpt><trkpt lat="45.6871235819846" lon="10.660507429296006"><ele>82.0</ele><time>2026-05-01T10:54:50Z</time></trkpt><trkpt lat="45.687340674777474" lon="10.660655572407086"><ele>80.0</ele><time>2026-05-01T10:54:51Z</time></trkpt><trkpt lat="45.68754190597308" lon="10.660789714781936"><ele>80.0</ele><time>2026-05-01T10:54:52Z</time></trkpt><trkpt lat="45.68771184280238" lon="10.660908393556149"><ele>80.0</ele><time>2026-05-01T10:54:53Z</time></trkpt><trkpt lat="45.687861819911014" lon="10.661058866119212"><ele>80.0</ele><time>2026-05-01T10:54:54Z</time></trkpt><trkpt lat="45.687994764776924" lon="10.661194591520312"><ele>82.66666666666667</ele><time>2026-05-01T10:54:55Z</time></trkpt><trkpt lat="45.68813111307979" lon="10.661329734909636"><ele>85.33333333333333</ele><time>2026-05-01T10:54:56Z</time></trkpt><trkpt lat="45.688245460905215" lon="10.661497268153513"><ele>88.0</ele><time>2026-05-01T10:54:57Z</time></trkpt><trkpt lat="45.6883591932034" lon="10.661672122757775"><ele>88.0</ele><time>2026-05-01T10:54:58Z</time></trkpt><trkpt lat="45.688483289012076" lon="10.661855429650117"><ele>88.0</ele><time>2026-05-01T10:54:59Z</time></trkpt><trkpt lat="45.68859168858124" lon="10.662045235311764"><ele>88.0</ele><time>2026-05-01T10:55:00Z</time></trkpt><trkpt lat="45.688697538338985" lon="10.662230213172238"><ele>87.66666666666666</ele><time>2026-05-01T10:55:01Z</time></trkpt><trkpt lat="45.68881007192823" lon="10.66241542750773"><ele>87.33333333333333</ele><time>2026-05-01T10:55:02Z</time></trkpt><trkpt lat="45.688911651025734" lon="10.66260880724247"><ele>87.0</ele><time>2026-05-01T10:55:03Z</time></trkpt><trkpt lat="45.68901139122141" lon="10.66280925989492"><ele>87.0</ele><time>2026-05-01T10:55:04Z</time></trkpt><trkpt lat="45.68911043196897" lon="10.663008437242352"><ele>87.0</ele><time>2026-05-01T10:55:05Z</time></trkpt><trkpt lat="45.68920611959724" lon="10.663194612549093"><ele>87.0</ele><time>2026-05-01T10:55:06Z</time></trkpt><trkpt lat="45.68928771736757" lon="10.663364401518514"><ele>87.0</ele><time>2026-05-01T10:55:07Z</time></trkpt><trkpt lat="45.689367074324636" lon="10.66353657054079"><ele>87.0</ele><time>2026-05-01T10:55:08Z</time></trkpt><trkpt lat="45.68945211508181" lon="10.663696707580641"><ele>87.0</ele><time>2026-05-01T10:55:09Z</time></trkpt><trkpt lat="45.68954787186754" lon="10.663846972287262"><ele>87.0</ele><time>2026-05-01T10:55:10Z</time></trkpt><trkpt lat="45.68966171388452" lon="10.66397917679711"><ele>90.0</ele><time>2026-05-01T10:55:11Z</time></trkpt><trkpt lat="45.68979049040878" lon="10.664084541670166"><ele>93.0</ele><time>2026-05-01T10:55:12Z</time></trkpt><trkpt lat="45.689911248749226" lon="10.664151520030344"><ele>96.0</ele><time>2026-05-01T10:55:13Z</time></trkpt><trkpt lat="45.69002143907664" lon="10.664184191367841"><ele>99.0</ele><time>2026-05-01T10:55:14Z</time></trkpt><trkpt lat="45.69011849927428" lon="10.664196767671031"><ele>99.0</ele><time>2026-05-01T10:55:15Z</time></trkpt><trkpt lat="45.690197197460186" lon="10.664218774816678"><ele>99.0</ele><time>2026-05-01T10:55:16Z</time></trkpt><trkpt lat="45.69026204313385" lon="10.664241987155773"><ele>99.0</ele><time>2026-05-01T10:55:17Z</time></trkpt><trkpt lat="45.690362106726354" lon="10.664281638397856"><ele>99.0</ele><time>2026-05-01T10:55:19Z</time></trkpt><trkpt lat="45.69042360887025" lon="10.664308815598673"><ele>99.0</ele><time>2026-05-01T10:55:21Z</time></trkpt><trkpt lat="45.6905144659228" lon="10.664361178706816"><ele>99.0</ele><time>2026-05-01T10:55:39.001Z</time></trkpt><trkpt lat="45.690588885339174" lon="10.664399255435955"><ele>99.25</ele><time>2026-05-01T10:55:40.001Z</time></trkpt><trkpt lat="45.69066554699483" lon="10.664475087252002"><ele>99.5</ele><time>2026-05-01T10:55:41.001Z</time></trkpt><trkpt lat="45.69074523208152" lon="10.664586323022037"><ele>99.75</ele><time>2026-05-01T10:55:42.001Z</time></trkpt><trkpt lat="45.69082328910451" lon="10.66469611667385"><ele>100.0</ele><time>2026-05-01T10:55:43.001Z</time></trkpt><trkpt lat="45.690916264529285" lon="10.664844800546597"><ele>100.0</ele><time>2026-05-01T10:55:44.001Z</time></trkpt><trkpt lat="45.69100609111047" lon="10.66500732731762"><ele>100.0</ele><time>2026-05-01T10:55:45.001Z</time></trkpt><trkpt lat="45.69111472952556" lon="10.665181998211311"><ele>100.0</ele><time>2026-05-01T10:55:46.001Z</time></trkpt><trkpt lat="45.69121799814623" lon="10.665361258646342"><ele>102.66666666666667</ele><time>2026-05-01T10:55:47.001Z</time></trkpt><trkpt lat="45.691326160119814" lon="10.665537881909083"><ele>105.33333333333334</ele><time>2026-05-01T10:55:48.001Z</time></trkpt><trkpt lat="45.69143535348045" lon="10.665716245235119"><ele>108.0</ele><time>2026-05-01T10:55:49.001Z</time></trkpt><trkpt lat="45.69155100921992" lon="10.66590002335619"><ele>108.0</ele><time>2026-05-01T10:55:50.001Z</time></trkpt><trkpt lat="45.691667884080616" lon="10.666090517591956"><ele>108.0</ele><time>2026-05-01T10:55:51.001Z</time></trkpt><trkpt lat="45.691786484816284" lon="10.666278325190522"><ele>108.0</ele><time>2026-05-01T10:55:52.001Z</time></trkpt><trkpt lat="45.691901143652196" lon="10.66646598829983"><ele>109.66666666666666</ele><time>2026-05-01T10:55:53.001Z</time></trkpt><trkpt lat="45.692010294623344" lon="10.666648383416472"><ele>111.33333333333333</ele><time>2026-05-01T10:55:54.001Z</time></trkpt><trkpt lat="45.69210499009627" lon="10.666809170261818"><ele>113.0</ele><time>2026-05-01T10:55:55.001Z</time></trkpt><trkpt lat="45.692200394458446" lon="10.666948346460135"><ele>109.66666666666666</ele><time>2026-05-01T10:55:56.001Z</time></trkpt><trkpt lat="45.69230654691311" lon="10.667061483525003"><ele>106.33333333333334</ele><time>2026-05-01T10:55:57.001Z</time></trkpt><trkpt lat="45.69244295744569" lon="10.667141217647151"><ele>103.0</ele><time>2026-05-01T10:55:58.001Z</time></trkpt><trkpt lat="45.69261134952339" lon="10.667179472760761"><ele>105.0</ele><time>2026-05-01T10:55:59.001Z</time></trkpt><trkpt lat="45.692811303700836" lon="10.667199656481275"><ele>107.0</ele><time>2026-05-01T10:56:00.001Z</time></trkpt><trkpt lat="45.693010549293234" lon="10.667215654260486"><ele>109.0</ele><time>2026-05-01T10:56:01.001Z</time></trkpt><trkpt lat="45.69317367489842" lon="10.667234307790123"><ele>109.0</ele><time>2026-05-01T10:56:02.001Z</time></trkpt><trkpt lat="45.69331241779413" lon="10.667272229273845"><ele>109.0</ele><time>2026-05-01T10:56:03.001Z</time></trkpt><trkpt lat="45.69344718135929" lon="10.667306379111555"><ele>109.0</ele><time>2026-05-01T10:56:04.001Z</time></trkpt><trkpt lat="45.693574803397084" lon="10.667394703903067"><ele>109.0</ele><time>2026-05-01T10:56:05.001Z</time></trkpt><trkpt lat="45.69368295319274" lon="10.667542912853238"><ele>108.0</ele><time>2026-05-01T10:56:06.001Z</time></trkpt><trkpt lat="45.69380359245993" lon="10.667682351302304"><ele>107.0</ele><time>2026-05-01T10:56:07.001Z</time></trkpt><trkpt lat="45.693903221642884" lon="10.6678568156025"><ele>106.0</ele><time>2026-05-01T10:56:08.001Z</time></trkpt><trkpt lat="45.69404447124589" lon="10.667996180264598"><ele>106.0</ele><time>2026-05-01T10:56:09.001Z</time></trkpt><trkpt lat="45.69423109934339" lon="10.668104402058475"><ele>106.0</ele><time>2026-05-01T10:56:10.001Z</time></trkpt><trkpt lat="45.69443003455307" lon="10.668177021820767"><ele>106.0</ele><time>2026-05-01T10:56:11.001Z</time></trkpt><trkpt lat="45.69460513492688" lon="10.668227748181113"><ele>107.5</ele><time>2026-05-01T10:56:12.001Z</time></trkpt><trkpt lat="45.6947504841507" lon="10.668304108441802"><ele>109.0</ele><time>2026-05-01T10:56:13.001Z</time></trkpt><trkpt lat="45.694869330390965" lon="10.668411155351949"><ele>110.5</ele><time>2026-05-01T10:56:14.001Z</time></trkpt><trkpt lat="45.69495940107952" lon="10.668571006093135"><ele>112.0</ele><time>2026-05-01T10:56:15.001Z</time></trkpt><trkpt lat="45.69504502533106" lon="10.66876055858013"><ele>112.0</ele><time>2026-05-01T10:56:16.001Z</time></trkpt><trkpt lat="45.69515677840021" lon="10.669011112688839"><ele>112.0</ele><time>2026-05-01T10:56:17.001Z</time></trkpt><trkpt lat="45.69526318403905" lon="10.669282575259011"><ele>112.0</ele><time>2026-05-01T10:56:18.001Z</time></trkpt><trkpt lat="45.69538892205451" lon="10.669558722271839"><ele>121.5</ele><time>2026-05-01T10:56:19.001Z</time></trkpt><trkpt lat="45.69551749050909" lon="10.669850457172135"><ele>131.0</ele><time>2026-05-01T10:56:20.001Z</time></trkpt><trkpt lat="45.69564191608201" lon="10.670141795732134"><ele>128.33333333333331</ele><time>2026-05-01T10:56:21.001Z</time></trkpt><trkpt lat="45.695746433040334" lon="10.670404038095473"><ele>125.66666666666666</ele><time>2026-05-01T10:56:22.001Z</time></trkpt><trkpt lat="45.69583281197054" lon="10.670649780026093"><ele>123.0</ele><time>2026-05-01T10:56:23.001Z</time></trkpt><trkpt lat="45.69588678600406" lon="10.670895348378522"><ele>119.66666666666666</ele><time>2026-05-01T10:56:24Z</time></trkpt><trkpt lat="45.69596676739114" lon="10.671118531245279"><ele>116.33333333333333</ele><time>2026-05-01T10:56:25Z</time></trkpt><trkpt lat="45.69600034353853" lon="10.671346639262653"><ele>113.0</ele><time>2026-05-01T10:56:26Z</time></trkpt><trkpt lat="45.696177993592975" lon="10.671471527994605"><ele>115.33333333333333</ele><time>2026-05-01T10:56:27Z</time></trkpt><trkpt lat="45.69632200457504" lon="10.671619981205174"><ele>117.66666666666666</ele><time>2026-05-01T10:56:28Z</time></trkpt><trkpt lat="45.69646474580884" lon="10.671790845446742"><ele>120.0</ele><time>2026-05-01T10:56:29Z</time></trkpt><trkpt lat="45.69659322834387" lon="10.671948455332434"><ele>120.0</ele><time>2026-05-01T10:56:30Z</time></trkpt><trkpt lat="45.69671173401125" lon="10.672111800598884"><ele>120.0</ele><time>2026-05-01T10:56:31Z</time></trkpt><trkpt lat="45.69682874653347" lon="10.672256424197258"><ele>120.0</ele><time>2026-05-01T10:56:32Z</time></trkpt><trkpt lat="45.696941873475105" lon="10.672394786958751"><ele>122.75</ele><time>2026-05-01T10:56:33Z</time></trkpt><trkpt lat="45.69705074424854" lon="10.67253843885969"><ele>125.5</ele><time>2026-05-01T10:56:34Z</time></trkpt><trkpt lat="45.69715847285274" lon="10.672684602578752"><ele>128.25</ele><time>2026-05-01T10:56:35Z</time></trkpt><trkpt lat="45.69724850510252" lon="10.67284872821367"><ele>131.0</ele><time>2026-05-01T10:56:36Z</time></trkpt><trkpt lat="45.69733488260343" lon="10.673027940448474"><ele>131.0</ele><time>2026-05-01T10:56:37Z</time></trkpt><trkpt lat="45.697419325528266" lon="10.673209689506615"><ele>131.0</ele><time>2026-05-01T10:56:38Z</time></trkpt><trkpt lat="45.69750771439392" lon="10.673390640457407"><ele>131.0</ele><time>2026-05-01T10:56:39Z</time></trkpt><trkpt lat="45.69759846661699" lon="10.673572540136588"><ele>127.66666666666666</ele><time>2026-05-01T10:56:40Z</time></trkpt><trkpt lat="45.69770025565717" lon="10.673756988846323"><ele>124.33333333333334</ele><time>2026-05-01T10:56:41Z</time></trkpt><trkpt lat="45.69781313466494" lon="10.673928212046512"><ele>121.0</ele><time>2026-05-01T10:56:42Z</time></trkpt><trkpt lat="45.69793531915144" lon="10.674095954623276"><ele>124.66666666666667</ele><time>2026-05-01T10:56:43Z</time></trkpt><trkpt lat="45.69805262330603" lon="10.674271309335213"><ele>128.33333333333334</ele><time>2026-05-01T10:56:44Z</time></trkpt><trkpt lat="45.69817317285332" lon="10.67445292640677"><ele>132.0</ele><time>2026-05-01T10:56:45Z</time></trkpt><trkpt lat="45.69828834698484" lon="10.67462770117493"><ele>132.0</ele><time>2026-05-01T10:56:46Z</time></trkpt><trkpt lat="45.69840683577689" lon="10.674798878010682"><ele>132.0</ele><time>2026-05-01T10:56:47Z</time></trkpt><trkpt lat="45.69853504838889" lon="10.67498287185135"><ele>132.0</ele><time>2026-05-01T10:56:48Z</time></trkpt><trkpt lat="45.6986677288009" lon="10.675168302018289"><ele>135.66666666666666</ele><time>2026-05-01T10:56:49Z</time></trkpt><trkpt lat="45.69879465268387" lon="10.675353844690422"><ele>139.33333333333331</ele><time>2026-05-01T10:56:50Z</time></trkpt><trkpt lat="45.69891470624169" lon="10.675520103983155"><ele>143.0</ele><time>2026-05-01T10:56:51Z</time></trkpt><trkpt lat="45.69903116319511" lon="10.675694310030476"><ele>143.0</ele><time>2026-05-01T10:56:52Z</time></trkpt><trkpt lat="45.699149416232586" lon="10.675874207244604"><ele>143.0</ele><time>2026-05-01T10:56:53Z</time></trkpt><trkpt lat="45.69925872116476" lon="10.676053939796914"><ele>143.0</ele><time>2026-05-01T10:56:54Z</time></trkpt><trkpt lat="45.6993526319802" lon="10.676240230423518"><ele>148.0</ele><time>2026-05-01T10:56:55Z</time></trkpt><trkpt lat="45.69943830379133" lon="10.676445989405352"><ele>153.0</ele><time>2026-05-01T10:56:56Z</time></trkpt><trkpt lat="45.69952932959746" lon="10.676644216464835"><ele>158.0</ele><time>2026-05-01T10:56:57Z</time></trkpt><trkpt lat="45.699622082349784" lon="10.676839139757773"><ele>152.66666666666666</ele><time>2026-05-01T10:56:58Z</time></trkpt><trkpt lat="45.69972616159629" lon="10.677022136438673"><ele>147.33333333333334</ele><time>2026-05-01T10:56:59Z</time></trkpt><trkpt lat="45.69985234245536" lon="10.677193348488958"><ele>142.0</ele><time>2026-05-01T10:57:00Z</time></trkpt><trkpt lat="45.6999848736546" lon="10.677360191958572"><ele>142.0</ele><time>2026-05-01T10:57:01Z</time></trkpt><trkpt lat="45.7001300884438" lon="10.677526654732828"><ele>142.0</ele><time>2026-05-01T10:57:02Z</time></trkpt><trkpt lat="45.700278701661624" lon="10.677673963617606"><ele>142.0</ele><time>2026-05-01T10:57:03Z</time></trkpt><trkpt lat="45.70042442882061" lon="10.67781159213286"><ele>144.66666666666669</ele><time>2026-05-01T10:57:04Z</time></trkpt><trkpt lat="45.70057234090374" lon="10.677961029258343"><ele>147.33333333333334</ele><time>2026-05-01T10:57:05Z</time></trkpt><trkpt lat="45.70072397954806" lon="10.678104495027025"><ele>150.0</ele><time>2026-05-01T10:57:06Z</time></trkpt><trkpt lat="45.70086945739399" lon="10.678251395058268"><ele>150.0</ele><time>2026-05-01T10:57:07Z</time></trkpt><trkpt lat="45.70101912383545" lon="10.678391224616858"><ele>150.0</ele><time>2026-05-01T10:57:08Z</time></trkpt><trkpt lat="45.70116767227876" lon="10.678533442449936"><ele>150.0</ele><time>2026-05-01T10:57:09Z</time></trkpt><trkpt lat="45.70131099745758" lon="10.678674738207647"><ele>155.33333333333334</ele><time>2026-05-01T10:57:10Z</time></trkpt><trkpt lat="45.70145362671406" lon="10.678831502288558"><ele>160.66666666666669</ele><time>2026-05-01T10:57:11Z</time></trkpt><trkpt lat="45.70158225159548" lon="10.679006731486915"><ele>166.0</ele><time>2026-05-01T10:57:12Z</time></trkpt><trkpt lat="45.70168523653402" lon="10.679218590864341"><ele>166.0</ele><time>2026-05-01T10:57:13Z</time></trkpt><trkpt lat="45.70180338228303" lon="10.679415829137609"><ele>166.0</ele><time>2026-05-01T10:57:14Z</time></trkpt><trkpt lat="45.701909110065664" lon="10.67963577178678"><ele>166.0</ele><time>2026-05-01T10:57:15Z</time></trkpt><trkpt lat="45.7020050545502" lon="10.679843411908449"><ele>162.0</ele><time>2026-05-01T10:57:16Z</time></trkpt><trkpt lat="45.7021093966983" lon="10.680041140996968"><ele>158.0</ele><time>2026-05-01T10:57:17Z</time></trkpt><trkpt lat="45.70221904690681" lon="10.68020937036848"><ele>154.0</ele><time>2026-05-01T10:57:18Z</time></trkpt><trkpt lat="45.7023488221402" lon="10.68034509591131"><ele>154.0</ele><time>2026-05-01T10:57:19Z</time></trkpt><trkpt lat="45.70248663375483" lon="10.68043416107743"><ele>154.0</ele><time>2026-05-01T10:57:20.001Z</time></trkpt><trkpt lat="45.70262393784161" lon="10.680494293144152"><ele>154.0</ele><time>2026-05-01T10:57:21.001Z</time></trkpt><trkpt lat="45.70274552328042" lon="10.680604226644826"><ele>154.0</ele><time>2026-05-01T10:57:22.001Z</time></trkpt><trkpt lat="45.70284837324514" lon="10.680771305678597"><ele>156.66666666666669</ele><time>2026-05-01T10:57:23.001Z</time></trkpt><trkpt lat="45.702934763726894" lon="10.680967808578064"><ele>159.33333333333334</ele><time>2026-05-01T10:57:24.001Z</time></trkpt><trkpt lat="45.70302853018985" lon="10.681171736239195"><ele>162.0</ele><time>2026-05-01T10:57:25.001Z</time></trkpt><trkpt lat="45.7031251350571" lon="10.681384332763779"><ele>162.0</ele><time>2026-05-01T10:57:26.001Z</time></trkpt><trkpt lat="45.70319502908216" lon="10.68161284628546"><ele>162.0</ele><time>2026-05-01T10:57:27.001Z</time></trkpt><trkpt lat="45.70326315228246" lon="10.68184172467794"><ele>162.0</ele><time>2026-05-01T10:57:28.001Z</time></trkpt><trkpt lat="45.703330615463614" lon="10.682069576820675"><ele>160.33333333333334</ele><time>2026-05-01T10:57:29.001Z</time></trkpt><trkpt lat="45.703400506510945" lon="10.682302439651924"><ele>158.66666666666669</ele><time>2026-05-01T10:57:30.001Z</time></trkpt><trkpt lat="45.7034822726179" lon="10.682516898471844"><ele>157.0</ele><time>2026-05-01T10:57:31.001Z</time></trkpt><trkpt lat="45.70354907950418" lon="10.682751007201137"><ele>199.66666666666669</ele><time>2026-05-01T10:57:32.001Z</time></trkpt><trkpt lat="45.703614714996675" lon="10.682987650745696"><ele>242.33333333333334</ele><time>2026-05-01T10:57:33.017Z</time></trkpt><trkpt lat="45.70368358001696" lon="10.683222619952623"><ele>285.0</ele><time>2026-05-01T10:57:34.018Z</time></trkpt><trkpt lat="45.70374866823692" lon="10.683459742514554"><ele>251.5</ele><time>2026-05-01T10:57:35.015Z</time></trkpt><trkpt lat="45.70381253609857" lon="10.683686444193087"><ele>218.0</ele><time>2026-05-01T10:57:36.02Z</time></trkpt><trkpt lat="45.70487695044929" lon="10.685422363709579"><ele>213.0</ele><time>2026-05-01T10:57:39.61Z</time></trkpt><trkpt lat="45.705188798472285" lon="10.685889027577648"><ele>241.0</ele><time>2026-05-01T10:57:40.615Z</time></trkpt><trkpt lat="45.70546356148114" lon="10.68639310841868"><ele>269.0</ele><time>2026-05-01T10:57:41.61Z</time></trkpt><trkpt lat="45.70573831715225" lon="10.686902134315854"><ele>257.5</ele><time>2026-05-01T10:57:42.611Z</time></trkpt><trkpt lat="45.7060106847814" lon="10.687410371065273"><ele>246.0</ele><time>2026-05-01T10:57:43.607Z</time></trkpt><trkpt lat="45.70624997760765" lon="10.68795741267933"><ele>246.0</ele><time>2026-05-01T10:57:44.612Z</time></trkpt><trkpt lat="45.70649857492811" lon="10.688488899216214"><ele>246.0</ele><time>2026-05-01T10:57:45.61Z</time></trkpt><trkpt lat="45.70678456006887" lon="10.688985705799519"><ele>237.0</ele><time>2026-05-01T10:57:46.611Z</time></trkpt><trkpt lat="45.70706740556487" lon="10.689482233172193"><ele>228.0</ele><time>2026-05-01T10:57:47.608Z</time></trkpt><trkpt lat="45.7071871" lon="10.6896973"><ele>214.0</ele><time>2026-05-01T10:57:48.612Z</time></trkpt><trkpt lat="45.708340178286385" lon="10.692067081118646"><ele>214.0</ele><time>2026-05-01T10:58:32.001Z</time></trkpt><trkpt lat="45.70840467012327" lon="10.692214439419418"><ele>214.0</ele><time>2026-05-01T10:58:33.001Z</time></trkpt><trkpt lat="45.708336114391244" lon="10.692486470359084"><ele>214.0</ele><time>2026-05-01T10:58:34.001Z</time></trkpt><trkpt lat="45.70836151705073" lon="10.692623221300467"><ele>214.0</ele><time>2026-05-01T10:58:35.001Z</time></trkpt><trkpt lat="45.708386118897145" lon="10.692773361169543"><ele>214.0</ele><time>2026-05-01T10:58:36.02Z</time></trkpt><trkpt lat="45.708407788081594" lon="10.692920950731217"><ele>213.99999999999997</ele><time>2026-05-01T10:58:37.019Z</time></trkpt><trkpt lat="45.70842893594746" lon="10.69304739156612"><ele>213.99999999999997</ele><time>2026-05-01T10:58:38.018Z</time></trkpt><trkpt lat="45.708457831338805" lon="10.69318783898268"><ele>214.0</ele><time>2026-05-01T10:58:39.019Z</time></trkpt><trkpt lat="45.70848364878727" lon="10.693338644613585"><ele>214.0</ele><time>2026-05-01T10:58:40.02Z</time></trkpt><trkpt lat="45.708551622569615" lon="10.693525958561716"><ele>225.79999999999998</ele><time>2026-05-01T10:58:41.001Z</time></trkpt><trkpt lat="45.70858276848981" lon="10.693673322087609"><ele>237.59999999999997</ele><time>2026-05-01T10:58:42.001Z</time></trkpt><trkpt lat="45.7086073375263" lon="10.69378300275244"><ele>249.4</ele><time>2026-05-01T10:58:43Z</time></trkpt><trkpt lat="45.70864942063245" lon="10.693931949540707"><ele>261.2</ele><time>2026-05-01T10:58:44Z</time></trkpt><trkpt lat="45.70870575908437" lon="10.694037874735168"><ele>273.0</ele><time>2026-05-01T10:58:45Z</time></trkpt><trkpt lat="45.708763442454924" lon="10.694147435375179"><ele>273.0</ele><time>2026-05-01T10:58:46Z</time></trkpt><trkpt lat="45.70878619494311" lon="10.694294760547741"><ele>273.0</ele><time>2026-05-01T10:58:47Z</time></trkpt><trkpt lat="45.70884321277049" lon="10.69442581820727"><ele>273.0</ele><time>2026-05-01T10:58:48.017Z</time></trkpt><trkpt lat="45.70890137921566" lon="10.694552357340196"><ele>273.0</ele><time>2026-05-01T10:58:49.021Z</time></trkpt><trkpt lat="45.70896043070255" lon="10.694678073862027"><ele>273.0</ele><time>2026-05-01T10:58:50.025Z</time></trkpt><trkpt lat="45.70901557736214" lon="10.69480432752329"><ele>291.0</ele><time>2026-05-01T10:58:51.024Z</time></trkpt><trkpt lat="45.71048427536271" lon="10.696882102457833"><ele>298.0</ele><time>2026-05-01T10:58:55.615Z</time></trkpt><trkpt lat="45.71082444480248" lon="10.697300422578147"><ele>305.0</ele><time>2026-05-01T10:58:56.613Z</time></trkpt><trkpt lat="45.7110844" lon="10.6976201"><ele>151.0</ele><time>2026-05-01T10:58:57.613Z</time></trkpt><trkpt lat="45.712547306945275" lon="10.700322417552304"><ele>151.0</ele><time>2026-05-01T10:59:33.001Z</time></trkpt><trkpt lat="45.712614420276445" lon="10.70047577737841"><ele>151.0</ele><time>2026-05-01T10:59:34.001Z</time></trkpt><trkpt lat="45.71251052124667" lon="10.700382079314814"><ele>151.0</ele><time>2026-05-01T10:59:35.001Z</time></trkpt><trkpt lat="45.71261488327488" lon="10.70042808506594"><ele>151.0</ele><time>2026-05-01T10:59:36.001Z</time></trkpt><trkpt lat="45.71269784588041" lon="10.700490320753342"><ele>158.0</ele><time>2026-05-01T10:59:37.001Z</time></trkpt><trkpt lat="45.71279440914375" lon="10.70056364228523"><ele>165.0</ele><time>2026-05-01T10:59:38.001Z</time></trkpt><trkpt lat="45.712892217506514" lon="10.700624283857916"><ele>172.0</ele><time>2026-05-01T10:59:39.001Z</time></trkpt><trkpt lat="45.713003690462294" lon="10.70068810754671"><ele>179.0</ele><time>2026-05-01T10:59:40.001Z</time></trkpt><trkpt lat="45.713131279715526" lon="10.700764545549124"><ele>179.0</ele><time>2026-05-01T10:59:41.001Z</time></trkpt><trkpt lat="45.71325803036588" lon="10.700842874823287"><ele>179.0</ele><time>2026-05-01T10:59:42.001Z</time></trkpt><trkpt lat="45.71339338652229" lon="10.70092214019149"><ele>179.0</ele><time>2026-05-01T10:59:43.001Z</time></trkpt><trkpt lat="45.713521911292204" lon="10.701001726384726"><ele>179.0</ele><time>2026-05-01T10:59:44.001Z</time></trkpt><trkpt lat="45.713644264227334" lon="10.701073324190869"><ele>176.0</ele><time>2026-05-01T10:59:45.001Z</time></trkpt><trkpt lat="45.713763434463274" lon="10.701145784191166"><ele>173.0</ele><time>2026-05-01T10:59:46.001Z</time></trkpt><trkpt lat="45.71388125939285" lon="10.701212884365345"><ele>170.0</ele><time>2026-05-01T10:59:47.001Z</time></trkpt><trkpt lat="45.713995421922206" lon="10.701291250810264"><ele>167.0</ele><time>2026-05-01T10:59:48.001Z</time></trkpt><trkpt lat="45.71410249992399" lon="10.70136677391982"><ele>167.0</ele><time>2026-05-01T10:59:49.001Z</time></trkpt><trkpt lat="45.71420529116966" lon="10.701469973050816"><ele>167.0</ele><time>2026-05-01T10:59:50.001Z</time></trkpt><trkpt lat="45.71429516807422" lon="10.70158584451712"><ele>167.0</ele><time>2026-05-01T10:59:51.001Z</time></trkpt><trkpt lat="45.71438214605107" lon="10.701710950039622"><ele>167.0</ele><time>2026-05-01T10:59:52.001Z</time></trkpt><trkpt lat="45.71446344505704" lon="10.701829626021343"><ele>166.25</ele><time>2026-05-01T10:59:53.001Z</time></trkpt><trkpt lat="45.71454804189774" lon="10.701941602365913"><ele>165.5</ele><time>2026-05-01T10:59:54.001Z</time></trkpt><trkpt lat="45.71462962280464" lon="10.702046719008258"><ele>164.75</ele><time>2026-05-01T10:59:55.001Z</time></trkpt><trkpt lat="45.714714312842915" lon="10.702151070444588"><ele>164.0</ele><time>2026-05-01T10:59:56.001Z</time></trkpt><trkpt lat="45.71480660653024" lon="10.702268070007966"><ele>164.0</ele><time>2026-05-01T10:59:57.001Z</time></trkpt><trkpt lat="45.71489999721962" lon="10.702383227049403"><ele>164.0</ele><time>2026-05-01T10:59:58.001Z</time></trkpt><trkpt lat="45.71499179810106" lon="10.7024881686936"><ele>164.0</ele><time>2026-05-01T10:59:59.001Z</time></trkpt><trkpt lat="45.71508578685649" lon="10.702589611681889"><ele>164.0</ele><time>2026-05-01T11:00:00.001Z</time></trkpt><trkpt lat="45.71517603569116" lon="10.702682318787968"><ele>163.79999999999998</ele><time>2026-05-01T11:00:01.001Z</time></trkpt><trkpt lat="45.71526349909991" lon="10.702775168999866"><ele>163.6</ele><time>2026-05-01T11:00:02.001Z</time></trkpt><trkpt lat="45.71534923512596" lon="10.702860654517856"><ele>163.4</ele><time>2026-05-01T11:00:03.001Z</time></trkpt><trkpt lat="45.71543798506974" lon="10.702947816534538"><ele>163.2</ele><time>2026-05-01T11:00:04.001Z</time></trkpt><trkpt lat="45.715527986325334" lon="10.703041183246965"><ele>163.0</ele><time>2026-05-01T11:00:05.001Z</time></trkpt><trkpt lat="45.71561705186637" lon="10.703128292908485"><ele>163.0</ele><time>2026-05-01T11:00:06.001Z</time></trkpt><trkpt lat="45.7157111186688" lon="10.703219327758786"><ele>163.0</ele><time>2026-05-01T11:00:07.001Z</time></trkpt><trkpt lat="45.715801735400085" lon="10.703312597260272"><ele>163.0</ele><time>2026-05-01T11:00:08.001Z</time></trkpt><trkpt lat="45.71589519573325" lon="10.703413288370772"><ele>163.0</ele><time>2026-05-01T11:00:09.001Z</time></trkpt><trkpt lat="45.715991861041445" lon="10.703508720464473"><ele>162.75</ele><time>2026-05-01T11:00:10.001Z</time></trkpt><trkpt lat="45.716088514393356" lon="10.703611941576202"><ele>162.5</ele><time>2026-05-01T11:00:11.001Z</time></trkpt><trkpt lat="45.716191847169966" lon="10.70371510187007"><ele>162.25</ele><time>2026-05-01T11:00:12.001Z</time></trkpt><trkpt lat="45.71628903548301" lon="10.70381893015479"><ele>162.0</ele><time>2026-05-01T11:00:13.001Z</time></trkpt><trkpt lat="45.71638602708919" lon="10.703929625026227"><ele>162.0</ele><time>2026-05-01T11:00:14.001Z</time></trkpt><trkpt lat="45.71648955873609" lon="10.704046851739577"><ele>162.0</ele><time>2026-05-01T11:00:15.001Z</time></trkpt><trkpt lat="45.71659784528075" lon="10.70417555074327"><ele>162.0</ele><time>2026-05-01T11:00:16.001Z</time></trkpt><trkpt lat="45.716682686100455" lon="10.704326865479851"><ele>162.0</ele><time>2026-05-01T11:00:17.001Z</time></trkpt><trkpt lat="45.716767005979015" lon="10.704471766257768"><ele>163.75</ele><time>2026-05-01T11:00:18.001Z</time></trkpt><trkpt lat="45.716843373934765" lon="10.704609189174352"><ele>165.5</ele><time>2026-05-01T11:00:19.001Z</time></trkpt><trkpt lat="45.71692916124322" lon="10.704730188642113"><ele>167.25</ele><time>2026-05-01T11:00:20.001Z</time></trkpt><trkpt lat="45.717021683936835" lon="10.704860360287098"><ele>169.0</ele><time>2026-05-01T11:00:21.001Z</time></trkpt><trkpt lat="45.71711204324421" lon="10.704994212230527"><ele>169.0</ele><time>2026-05-01T11:00:22.001Z</time></trkpt><trkpt lat="45.71720458257703" lon="10.705140282938343"><ele>169.0</ele><time>2026-05-01T11:00:23.001Z</time></trkpt><trkpt lat="45.71729924704621" lon="10.70528882357813"><ele>169.0</ele><time>2026-05-01T11:00:24.001Z</time></trkpt><trkpt lat="45.71738917230302" lon="10.705433258902302"><ele>169.0</ele><time>2026-05-01T11:00:25.001Z</time></trkpt><trkpt lat="45.717479182570145" lon="10.705568222182109"><ele>167.25</ele><time>2026-05-01T11:00:26.001Z</time></trkpt><trkpt lat="45.717574406586074" lon="10.705703254088444"><ele>165.5</ele><time>2026-05-01T11:00:27.001Z</time></trkpt><trkpt lat="45.71767397073744" lon="10.705835568740877"><ele>163.75</ele><time>2026-05-01T11:00:28.001Z</time></trkpt><trkpt lat="45.71778286431022" lon="10.705962449262005"><ele>162.0</ele><time>2026-05-01T11:00:29.001Z</time></trkpt><trkpt lat="45.71789588340827" lon="10.706086102048534"><ele>162.0</ele><time>2026-05-01T11:00:30.001Z</time></trkpt><trkpt lat="45.71801554185722" lon="10.706205762487212"><ele>162.0</ele><time>2026-05-01T11:00:31.001Z</time></trkpt><trkpt lat="45.71814350635069" lon="10.706327042746619"><ele>162.0</ele><time>2026-05-01T11:00:32.001Z</time></trkpt><trkpt lat="45.718279220998774" lon="10.706450820126518"><ele>162.0</ele><time>2026-05-01T11:00:33.001Z</time></trkpt><trkpt lat="45.71841525636309" lon="10.706576758879152"><ele>162.0</ele><time>2026-05-01T11:00:34.001Z</time></trkpt><trkpt lat="45.718538806265975" lon="10.706721753903583"><ele>162.0</ele><time>2026-05-01T11:00:35.001Z</time></trkpt><trkpt lat="45.718678885160216" lon="10.706837294555164"><ele>166.66666666666666</ele><time>2026-05-01T11:00:36.001Z</time></trkpt><trkpt lat="45.71882700172813" lon="10.70695650676025"><ele>171.33333333333331</ele><time>2026-05-01T11:00:37.001Z</time></trkpt><trkpt lat="45.71898970063382" lon="10.707067935754488"><ele>176.0</ele><time>2026-05-01T11:00:38.001Z</time></trkpt><trkpt lat="45.71914587117594" lon="10.707210477780247"><ele>176.0</ele><time>2026-05-01T11:00:39.001Z</time></trkpt><trkpt lat="45.71929663572875" lon="10.707369768078728"><ele>176.0</ele><time>2026-05-01T11:00:40.013Z</time></trkpt><trkpt lat="45.71945701024443" lon="10.707528871349053"><ele>176.0</ele><time>2026-05-01T11:00:41.025Z</time></trkpt><trkpt lat="45.71961468746444" lon="10.707677565668273"><ele>192.5</ele><time>2026-05-01T11:00:42.016Z</time></trkpt><trkpt lat="45.71977907744395" lon="10.7078220365416"><ele>209.0</ele><time>2026-05-01T11:00:43.025Z</time></trkpt><trkpt lat="45.728088361253704" lon="10.718191294009534"><ele>170.0</ele><time>2026-05-01T11:02:01.002Z</time></trkpt><trkpt lat="45.72810193285522" lon="10.718388045909132"><ele>131.0</ele><time>2026-05-01T11:02:02.002Z</time></trkpt><trkpt lat="45.72794642755005" lon="10.71863984898058"><ele>92.0</ele><time>2026-05-01T11:02:03.002Z</time></trkpt><trkpt lat="45.72793925884393" lon="10.718823433446062"><ele>92.0</ele><time>2026-05-01T11:02:04.002Z</time></trkpt><trkpt lat="45.727926578517675" lon="10.718998781339954"><ele>92.0</ele><time>2026-05-01T11:02:05.002Z</time></trkpt><trkpt lat="45.72792224148957" lon="10.71916583246238"><ele>92.0</ele><time>2026-05-01T11:02:06.002Z</time></trkpt><trkpt lat="45.72792881473297" lon="10.719344050048464"><ele>92.0</ele><time>2026-05-01T11:02:07Z</time></trkpt><trkpt lat="45.72795011197763" lon="10.719514335091008"><ele>88.75</ele><time>2026-05-01T11:02:08Z</time></trkpt><trkpt lat="45.72798654033602" lon="10.719687373905314"><ele>85.5</ele><time>2026-05-01T11:02:09Z</time></trkpt><trkpt lat="45.728048712391704" lon="10.719847505599034"><ele>82.25</ele><time>2026-05-01T11:02:10Z</time></trkpt><trkpt lat="45.728142570627675" lon="10.719987265012602"><ele>79.0</ele><time>2026-05-01T11:02:11Z</time></trkpt><trkpt lat="45.72825682787021" lon="10.720122682854996"><ele>79.0</ele><time>2026-05-01T11:02:12Z</time></trkpt><trkpt lat="45.7283770427338" lon="10.720225000009066"><ele>79.0</ele><time>2026-05-01T11:02:13Z</time></trkpt><trkpt lat="45.72850896237439" lon="10.720289787863205"><ele>79.0</ele><time>2026-05-01T11:02:14Z</time></trkpt><trkpt lat="45.72864153852254" lon="10.720323659435826"><ele>79.0</ele><time>2026-05-01T11:02:15Z</time></trkpt><trkpt lat="45.72877079781301" lon="10.720340964313907"><ele>83.75</ele><time>2026-05-01T11:02:16Z</time></trkpt><trkpt lat="45.7288814116981" lon="10.720412982483996"><ele>88.5</ele><time>2026-05-01T11:02:17Z</time></trkpt><trkpt lat="45.729003494748895" lon="10.720490627792028"><ele>93.25</ele><time>2026-05-01T11:02:18Z</time></trkpt><trkpt lat="45.72911895288544" lon="10.72058484378878"><ele>98.0</ele><time>2026-05-01T11:02:19Z</time></trkpt><trkpt lat="45.72922055303239" lon="10.720691111255366"><ele>98.0</ele><time>2026-05-01T11:02:20Z</time></trkpt><trkpt lat="45.72931621326615" lon="10.72081181833505"><ele>98.0</ele><time>2026-05-01T11:02:21Z</time></trkpt><trkpt lat="45.729406200779096" lon="10.720945075707046"><ele>98.0</ele><time>2026-05-01T11:02:22.017Z</time></trkpt><trkpt lat="45.72947331888997" lon="10.721074629823933"><ele>98.0</ele><time>2026-05-01T11:02:23.015Z</time></trkpt><trkpt lat="45.729542837399336" lon="10.721209972394682"><ele>92.0</ele><time>2026-05-01T11:02:24.017Z</time></trkpt><trkpt lat="45.72960984231185" lon="10.721342387962668"><ele>86.0</ele><time>2026-05-01T11:02:25.02Z</time></trkpt><trkpt lat="45.72968192039469" lon="10.72148439503013"><ele>80.0</ele><time>2026-05-01T11:02:26Z</time></trkpt><trkpt lat="45.72980322689197" lon="10.721724334368313"><ele>74.0</ele><time>2026-05-01T11:02:27Z</time></trkpt><trkpt lat="45.729897128144394" lon="10.72191006721776"><ele>74.0</ele><time>2026-05-01T11:02:28Z</time></trkpt><trkpt lat="45.7299889870219" lon="10.72209176035178"><ele>74.0</ele><time>2026-05-01T11:02:29Z</time></trkpt><trkpt lat="45.73009189876431" lon="10.722295315444445"><ele>74.0</ele><time>2026-05-01T11:02:30Z</time></trkpt><trkpt lat="45.73019877628953" lon="10.722507660223267"><ele>75.66666666666667</ele><time>2026-05-01T11:02:31Z</time></trkpt><trkpt lat="45.730303075585475" lon="10.722715441989779"><ele>77.33333333333333</ele><time>2026-05-01T11:02:32Z</time></trkpt><trkpt lat="45.73039686854733" lon="10.72290380796655"><ele>79.0</ele><time>2026-05-01T11:02:33Z</time></trkpt><trkpt lat="45.73050173327177" lon="10.723084916890361"><ele>79.0</ele><time>2026-05-01T11:02:34Z</time></trkpt><trkpt lat="45.73060196224515" lon="10.723285719975541"><ele>79.0</ele><time>2026-05-01T11:02:35Z</time></trkpt><trkpt lat="45.730699015835604" lon="10.72350333542557"><ele>79.0</ele><time>2026-05-01T11:02:36Z</time></trkpt><trkpt lat="45.73078692449015" lon="10.723743207288141"><ele>78.66666666666666</ele><time>2026-05-01T11:02:37Z</time></trkpt><trkpt lat="45.730878413168895" lon="10.723964192040974"><ele>78.33333333333333</ele><time>2026-05-01T11:02:38Z</time></trkpt><trkpt lat="45.730962778171836" lon="10.724178877222924"><ele>78.0</ele><time>2026-05-01T11:02:39Z</time></trkpt><trkpt lat="45.73104215276303" lon="10.724404088407969"><ele>88.0</ele><time>2026-05-01T11:02:40Z</time></trkpt><trkpt lat="45.7311173534592" lon="10.724624231390804"><ele>98.0</ele><time>2026-05-01T11:02:41Z</time></trkpt><trkpt lat="45.73120191714261" lon="10.724839043350755"><ele>108.0</ele><time>2026-05-01T11:02:42Z</time></trkpt><trkpt lat="45.73127637752768" lon="10.725083620502307"><ele>103.66666666666667</ele><time>2026-05-01T11:02:43Z</time></trkpt><trkpt lat="45.73135130547453" lon="10.725304153310738"><ele>99.33333333333334</ele><time>2026-05-01T11:02:44Z</time></trkpt><trkpt lat="45.73142714168303" lon="10.72551020192617"><ele>95.0</ele><time>2026-05-01T11:02:45Z</time></trkpt><trkpt lat="45.73151530939734" lon="10.725705643192857"><ele>95.0</ele><time>2026-05-01T11:02:46Z</time></trkpt><trkpt lat="45.73161381251734" lon="10.725893194926432"><ele>95.0</ele><time>2026-05-01T11:02:47Z</time></trkpt><trkpt lat="45.7317003206011" lon="10.726101423232839"><ele>95.0</ele><time>2026-05-01T11:02:48Z</time></trkpt><trkpt lat="45.731812585934094" lon="10.72629196572173"><ele>95.66666666666667</ele><time>2026-05-01T11:02:49Z</time></trkpt><trkpt lat="45.7319163190863" lon="10.726495157499446"><ele>96.33333333333334</ele><time>2026-05-01T11:02:50.001Z</time></trkpt><trkpt lat="45.732023617035004" lon="10.72669819609906"><ele>97.0</ele><time>2026-05-01T11:02:51.001Z</time></trkpt><trkpt lat="45.73211748100724" lon="10.726925782238395"><ele>97.0</ele><time>2026-05-01T11:02:52.001Z</time></trkpt><trkpt lat="45.73222011666385" lon="10.72713272267979"><ele>97.0</ele><time>2026-05-01T11:02:53.001Z</time></trkpt><trkpt lat="45.732327747931194" lon="10.727349735822804"><ele>97.0</ele><time>2026-05-01T11:02:54.001Z</time></trkpt><trkpt lat="45.73243060756609" lon="10.727555014237145"><ele>91.0</ele><time>2026-05-01T11:02:55.001Z</time></trkpt><trkpt lat="45.73254650982837" lon="10.727731830091505"><ele>85.0</ele><time>2026-05-01T11:02:56.001Z</time></trkpt><trkpt lat="45.73264798122639" lon="10.727926379335958"><ele>79.0</ele><time>2026-05-01T11:02:57.001Z</time></trkpt><trkpt lat="45.732765951324204" lon="10.728077292501045"><ele>83.0</ele><time>2026-05-01T11:02:58.001Z</time></trkpt><trkpt lat="45.73287511049692" lon="10.72825431063297"><ele>87.0</ele><time>2026-05-01T11:02:59.001Z</time></trkpt><trkpt lat="45.73300009725319" lon="10.728409042941609"><ele>91.0</ele><time>2026-05-01T11:03:00.001Z</time></trkpt><trkpt lat="45.733085059623875" lon="10.728571263399623"><ele>91.0</ele><time>2026-05-01T11:03:01.001Z</time></trkpt><trkpt lat="45.73317409145891" lon="10.728723035951596"><ele>91.0</ele><time>2026-05-01T11:03:02.001Z</time></trkpt><trkpt lat="45.73326200752164" lon="10.72889697146901"><ele>91.0</ele><time>2026-05-01T11:03:03.001Z</time></trkpt><trkpt lat="45.733342558884736" lon="10.729074786740743"><ele>91.0</ele><time>2026-05-01T11:03:04.001Z</time></trkpt><trkpt lat="45.73341092526224" lon="10.729263566275476"><ele>89.0</ele><time>2026-05-01T11:03:05.001Z</time></trkpt><trkpt lat="45.733474356727996" lon="10.729465163688335"><ele>87.0</ele><time>2026-05-01T11:03:06.001Z</time></trkpt><trkpt lat="45.73353562808241" lon="10.72965464450896"><ele>85.0</ele><time>2026-05-01T11:03:07.001Z</time></trkpt><trkpt lat="45.733596735747646" lon="10.729823039361317"><ele>83.0</ele><time>2026-05-01T11:03:08.001Z</time></trkpt><trkpt lat="45.733688718016005" lon="10.729977807879191"><ele>83.66666666666667</ele><time>2026-05-01T11:03:09.001Z</time></trkpt><trkpt lat="45.73377850953478" lon="10.730140985435657"><ele>84.33333333333333</ele><time>2026-05-01T11:03:10.001Z</time></trkpt><trkpt lat="45.73388751120546" lon="10.730306348292302"><ele>85.0</ele><time>2026-05-01T11:03:11.001Z</time></trkpt><trkpt lat="45.73400181654259" lon="10.730462284107004"><ele>85.0</ele><time>2026-05-01T11:03:12.001Z</time></trkpt><trkpt lat="45.73411381350556" lon="10.730621517189414"><ele>85.0</ele><time>2026-05-01T11:03:13.001Z</time></trkpt><trkpt lat="45.73420640447873" lon="10.730799055862997"><ele>85.0</ele><time>2026-05-01T11:03:14.001Z</time></trkpt><trkpt lat="45.73430797105079" lon="10.730935450803315"><ele>88.25</ele><time>2026-05-01T11:03:15.001Z</time></trkpt><trkpt lat="45.734408145671416" lon="10.731067899102783"><ele>91.5</ele><time>2026-05-01T11:03:16.001Z</time></trkpt><trkpt lat="45.734509791921816" lon="10.731203766036959"><ele>94.75</ele><time>2026-05-01T11:03:17.001Z</time></trkpt><trkpt lat="45.73461528950754" lon="10.731351177300715"><ele>98.0</ele><time>2026-05-01T11:03:18.001Z</time></trkpt><trkpt lat="45.73471676733375" lon="10.73150000334836"><ele>98.0</ele><time>2026-05-01T11:03:19.001Z</time></trkpt><trkpt lat="45.734821174133124" lon="10.731648411906805"><ele>98.0</ele><time>2026-05-01T11:03:20.001Z</time></trkpt><trkpt lat="45.73492095549788" lon="10.731799590208924"><ele>98.0</ele><time>2026-05-01T11:03:21.001Z</time></trkpt><trkpt lat="45.735023629671616" lon="10.731952096142734"><ele>98.0</ele><time>2026-05-01T11:03:22.015Z</time></trkpt><trkpt lat="45.735123819475035" lon="10.732101074662163"><ele>104.0</ele><time>2026-05-01T11:03:23.014Z</time></trkpt><trkpt lat="45.73522859202594" lon="10.732258386512662"><ele>110.0</ele><time>2026-05-01T11:03:24.027Z</time></trkpt><trkpt lat="45.73534261836275" lon="10.732430423853883"><ele>116.0</ele><time>2026-05-01T11:03:25.018Z</time></trkpt><trkpt lat="45.73549062949208" lon="10.732601378123027"><ele>111.75</ele><time>2026-05-01T11:03:27.001Z</time></trkpt><trkpt lat="45.73554899893585" lon="10.732765504469038"><ele>107.5</ele><time>2026-05-01T11:03:28.001Z</time></trkpt><trkpt lat="45.735588717160226" lon="10.732918081048123"><ele>103.25</ele><time>2026-05-01T11:03:29.001Z</time></trkpt><trkpt lat="45.73561497826316" lon="10.73311826839824"><ele>99.0</ele><time>2026-05-01T11:03:30.001Z</time></trkpt><trkpt lat="45.73562514432911" lon="10.733295916062778"><ele>99.0</ele><time>2026-05-01T11:03:31.001Z</time></trkpt><trkpt lat="45.73563745066281" lon="10.73345404202745"><ele>99.0</ele><time>2026-05-01T11:03:32.001Z</time></trkpt><trkpt lat="45.735655412676465" lon="10.733621164224996"><ele>99.0</ele><time>2026-05-01T11:03:33.001Z</time></trkpt><trkpt lat="45.73567156308652" lon="10.733802137392276"><ele>99.0</ele><time>2026-05-01T11:03:34.001Z</time></trkpt><trkpt lat="45.73570446032595" lon="10.733982330362942"><ele>96.75</ele><time>2026-05-01T11:03:35.001Z</time></trkpt><trkpt lat="45.735750823684675" lon="10.734152887772037"><ele>94.5</ele><time>2026-05-01T11:03:36.001Z</time></trkpt><trkpt lat="45.735811223001924" lon="10.734319002765986"><ele>92.25</ele><time>2026-05-01T11:03:37.001Z</time></trkpt><trkpt lat="45.73588443393489" lon="10.734497361554334"><ele>90.0</ele><time>2026-05-01T11:03:38.001Z</time></trkpt><trkpt lat="45.73597195339354" lon="10.734648614228908"><ele>93.75</ele><time>2026-05-01T11:03:39.001Z</time></trkpt><trkpt lat="45.73606344685405" lon="10.734777260650098"><ele>97.5</ele><time>2026-05-01T11:03:40.001Z</time></trkpt><trkpt lat="45.7361632298646" lon="10.734905149595281"><ele>101.25</ele><time>2026-05-01T11:03:41.001Z</time></trkpt><trkpt lat="45.736274078436914" lon="10.735017935621418"><ele>105.0</ele><time>2026-05-01T11:03:42.001Z</time></trkpt><trkpt lat="45.736384070192614" lon="10.73510863818322"><ele>105.0</ele><time>2026-05-01T11:03:43.001Z</time></trkpt><trkpt lat="45.73650319432286" lon="10.7351853459588"><ele>105.0</ele><time>2026-05-01T11:03:44.001Z</time></trkpt><trkpt lat="45.73662047510907" lon="10.735282724522845"><ele>105.0</ele><time>2026-05-01T11:03:45.001Z</time></trkpt><trkpt lat="45.73673420305349" lon="10.735349282497157"><ele>105.0</ele><time>2026-05-01T11:03:46.001Z</time></trkpt><trkpt lat="45.7368208449238" lon="10.735406928147064"><ele>101.0</ele><time>2026-05-01T11:03:47.001Z</time></trkpt><trkpt lat="45.736915635486326" lon="10.735472220045336"><ele>97.0</ele><time>2026-05-01T11:03:48.001Z</time></trkpt><trkpt lat="45.737007067706045" lon="10.735554397766967"><ele>93.0</ele><time>2026-05-01T11:03:49.001Z</time></trkpt><trkpt lat="45.73711772516777" lon="10.735622903110318"><ele>89.0</ele><time>2026-05-01T11:03:50.001Z</time></trkpt><trkpt lat="45.7372434402305" lon="10.735667776887915"><ele>89.0</ele><time>2026-05-01T11:03:51.001Z</time></trkpt><trkpt lat="45.7373783556654" lon="10.735691794348135"><ele>89.0</ele><time>2026-05-01T11:03:52.001Z</time></trkpt><trkpt lat="45.737515214955636" lon="10.735709444191622"><ele>89.0</ele><time>2026-05-01T11:03:53.001Z</time></trkpt><trkpt lat="45.737669466529276" lon="10.735709219608156"><ele>89.0</ele><time>2026-05-01T11:03:54.001Z</time></trkpt><trkpt lat="45.73782973678664" lon="10.73570873705819"><ele>96.33333333333334</ele><time>2026-05-01T11:03:55.001Z</time></trkpt><trkpt lat="45.737999314326004" lon="10.735722183353802"><ele>103.66666666666667</ele><time>2026-05-01T11:03:56.001Z</time></trkpt><trkpt lat="45.73816357413884" lon="10.735742795690408"><ele>111.0</ele><time>2026-05-01T11:03:57.001Z</time></trkpt><trkpt lat="45.73832073756033" lon="10.735768061471974"><ele>111.0</ele><time>2026-05-01T11:03:58.001Z</time></trkpt><trkpt lat="45.73848001827683" lon="10.735805637082372"><ele>111.0</ele><time>2026-05-01T11:03:59.001Z</time></trkpt><trkpt lat="45.73864609313397" lon="10.735854495884599"><ele>111.0</ele><time>2026-05-01T11:04:00.031Z</time></trkpt><trkpt lat="45.73880394071833" lon="10.73591308423404"><ele>113.0</ele><time>2026-05-01T11:04:01.019Z</time></trkpt><trkpt lat="45.7389604869155" lon="10.735985064497534"><ele>115.0</ele><time>2026-05-01T11:04:02.026Z</time></trkpt><trkpt lat="45.73911221073558" lon="10.736058269896827"><ele>117.0</ele><time>2026-05-01T11:04:03.018Z</time></trkpt><trkpt lat="45.76200937856525" lon="10.753761408860566"><ele>117.0</ele><time>2026-05-01T11:06:36.003Z</time></trkpt><trkpt lat="45.762101034676434" lon="10.75401957147825"><ele>117.0</ele><time>2026-05-01T11:06:37.003Z</time></trkpt><trkpt lat="45.762203321485686" lon="10.75415366710077"><ele>117.0</ele><time>2026-05-01T11:06:38.003Z</time></trkpt><trkpt lat="45.76231524306625" lon="10.754315843381345"><ele>117.0</ele><time>2026-05-01T11:06:39.003Z</time></trkpt><trkpt lat="45.762405229078134" lon="10.754456756443979"><ele>117.0</ele><time>2026-05-01T11:06:40.003Z</time></trkpt><trkpt lat="45.76249545532221" lon="10.754601593470953"><ele>117.0</ele><time>2026-05-01T11:06:41.003Z</time></trkpt><trkpt lat="45.762552476619035" lon="10.754743391943693"><ele>117.0</ele><time>2026-05-01T11:06:42.003Z</time></trkpt><trkpt lat="45.76261428066942" lon="10.754890303693905"><ele>180.75</ele><time>2026-05-01T11:06:43.002Z</time></trkpt><trkpt lat="45.762678028332424" lon="10.755025968312363"><ele>244.5</ele><time>2026-05-01T11:06:44.002Z</time></trkpt><trkpt lat="45.76272561639058" lon="10.755181729144375"><ele>308.25</ele><time>2026-05-01T11:06:45.002Z</time></trkpt><trkpt lat="45.762764928771695" lon="10.755372287106516"><ele>372.0</ele><time>2026-05-01T11:06:46.002Z</time></trkpt><trkpt lat="45.762827381243774" lon="10.755507638067249"><ele>374.25</ele><time>2026-05-01T11:06:47.002Z</time></trkpt><trkpt lat="45.762883332213896" lon="10.755665166466652"><ele>376.5</ele><time>2026-05-01T11:06:48.001Z</time></trkpt><trkpt lat="45.76294625832236" lon="10.755823246653922"><ele>378.75</ele><time>2026-05-01T11:06:49.001Z</time></trkpt><trkpt lat="45.763020766732026" lon="10.75597926216523"><ele>381.0</ele><time>2026-05-01T11:06:50.001Z</time></trkpt><trkpt lat="45.76311013816381" lon="10.756139563609262"><ele>381.0</ele><time>2026-05-01T11:06:51.001Z</time></trkpt><trkpt lat="45.763207148146634" lon="10.756299336789876"><ele>381.0</ele><time>2026-05-01T11:06:52.001Z</time></trkpt><trkpt lat="45.76330558536728" lon="10.756457531816663"><ele>381.0</ele><time>2026-05-01T11:06:53.001Z</time></trkpt><trkpt lat="45.763404935312025" lon="10.756605017948399"><ele>381.0</ele><time>2026-05-01T11:06:54.001Z</time></trkpt><trkpt lat="45.763519680121455" lon="10.756769923669331"><ele>388.0</ele><time>2026-05-01T11:06:55.001Z</time></trkpt><trkpt lat="45.76364863343894" lon="10.756944552511856"><ele>395.0</ele><time>2026-05-01T11:06:56.001Z</time></trkpt><trkpt lat="45.763759677523495" lon="10.757092213911616"><ele>402.0</ele><time>2026-05-01T11:06:57.001Z</time></trkpt><trkpt lat="45.763855619631684" lon="10.75724439281245"><ele>402.0</ele><time>2026-05-01T11:06:58.001Z</time></trkpt><trkpt lat="45.76394642057688" lon="10.757396685659238"><ele>402.0</ele><time>2026-05-01T11:06:59.001Z</time></trkpt><trkpt lat="45.764025417725954" lon="10.757540026221365"><ele>402.0</ele><time>2026-05-01T11:07:00.001Z</time></trkpt><trkpt lat="45.76408924439216" lon="10.757700149060893"><ele>402.0</ele><time>2026-05-01T11:07:01.001Z</time></trkpt><trkpt lat="45.764154802112245" lon="10.757847409286528"><ele>401.5</ele><time>2026-05-01T11:07:02.001Z</time></trkpt><trkpt lat="45.764233672853656" lon="10.757999094105594"><ele>401.0</ele><time>2026-05-01T11:07:03.001Z</time></trkpt><trkpt lat="45.764335439365794" lon="10.758147796194635"><ele>400.5</ele><time>2026-05-01T11:07:04.001Z</time></trkpt><trkpt lat="45.76445097826577" lon="10.758284990824855"><ele>400.0</ele><time>2026-05-01T11:07:05.001Z</time></trkpt><trkpt lat="45.76456554204666" lon="10.758396540839165"><ele>399.25</ele><time>2026-05-01T11:07:06.001Z</time></trkpt><trkpt lat="45.76466960263908" lon="10.758495713501206"><ele>398.5</ele><time>2026-05-01T11:07:07.001Z</time></trkpt><trkpt lat="45.76476712579614" lon="10.758593665237758"><ele>397.75</ele><time>2026-05-01T11:07:08.001Z</time></trkpt><trkpt lat="45.764864713287686" lon="10.75867082974136"><ele>397.0</ele><time>2026-05-01T11:07:09.001Z</time></trkpt><trkpt lat="45.76497537700676" lon="10.75873681593605"><ele>397.0</ele><time>2026-05-01T11:07:10.001Z</time></trkpt><trkpt lat="45.76509199056266" lon="10.758784232128056"><ele>397.0</ele><time>2026-05-01T11:07:11.001Z</time></trkpt><trkpt lat="45.76520749624059" lon="10.758823024356893"><ele>397.0</ele><time>2026-05-01T11:07:12.001Z</time></trkpt><trkpt lat="45.765308529768724" lon="10.758847089881478"><ele>397.0</ele><time>2026-05-01T11:07:13.001Z</time></trkpt><trkpt lat="45.76540660892956" lon="10.758895556396746"><ele>397.0</ele><time>2026-05-01T11:07:14.001Z</time></trkpt><trkpt lat="45.76549264418347" lon="10.758976680924436"><ele>398.20000000000005</ele><time>2026-05-01T11:07:15.001Z</time></trkpt><trkpt lat="45.76557726011147" lon="10.759076806328299"><ele>399.4</ele><time>2026-05-01T11:07:16.001Z</time></trkpt><trkpt lat="45.76565104684758" lon="10.75918495643575"><ele>400.6</ele><time>2026-05-01T11:07:17.001Z</time></trkpt><trkpt lat="45.76572442285617" lon="10.759283341692294"><ele>401.79999999999995</ele><time>2026-05-01T11:07:18.001Z</time></trkpt><trkpt lat="45.765814263951086" lon="10.759376725179987"><ele>403.0</ele><time>2026-05-01T11:07:19.001Z</time></trkpt><trkpt lat="45.76591456581083" lon="10.759461879387835"><ele>403.0</ele><time>2026-05-01T11:07:20.001Z</time></trkpt><trkpt lat="45.766018652764444" lon="10.75952346007143"><ele>403.0</ele><time>2026-05-01T11:07:21.001Z</time></trkpt><trkpt lat="45.76612127700419" lon="10.7595863836883"><ele>403.0</ele><time>2026-05-01T11:07:22.001Z</time></trkpt><trkpt lat="45.76620827324757" lon="10.75969724851696"><ele>403.0</ele><time>2026-05-01T11:07:23.001Z</time></trkpt><trkpt lat="45.76629419126091" lon="10.759820358868032"><ele>404.0</ele><time>2026-05-01T11:07:24.001Z</time></trkpt><trkpt lat="45.76637731412605" lon="10.759951966917336"><ele>405.0</ele><time>2026-05-01T11:07:25.001Z</time></trkpt><trkpt lat="45.76647369665821" lon="10.760064077085381"><ele>406.0</ele><time>2026-05-01T11:07:26.001Z</time></trkpt><trkpt lat="45.7665847745168" lon="10.760151849472377"><ele>407.0</ele><time>2026-05-01T11:07:27.001Z</time></trkpt><trkpt lat="45.766702319065715" lon="10.760229807591916"><ele>407.0</ele><time>2026-05-01T11:07:28.001Z</time></trkpt><trkpt lat="45.766804018340046" lon="10.7603053640792"><ele>407.0</ele><time>2026-05-01T11:07:29.001Z</time></trkpt><trkpt lat="45.76690655803995" lon="10.760408185332121"><ele>407.0</ele><time>2026-05-01T11:07:30.001Z</time></trkpt><trkpt lat="45.767005482752495" lon="10.760508150614912"><ele>407.0</ele><time>2026-05-01T11:07:31.001Z</time></trkpt><trkpt lat="45.767095753126156" lon="10.760601072826969"><ele>413.49999999999994</ele><time>2026-05-01T11:07:32.001Z</time></trkpt><trkpt lat="45.76716274383334" lon="10.760693951953769"><ele>420.0</ele><time>2026-05-01T11:07:33.001Z</time></trkpt><trkpt lat="45.76722115013977" lon="10.76074935426179"><ele>426.5</ele><time>2026-05-01T11:07:34.001Z</time></trkpt><trkpt lat="45.76730817431656" lon="10.760819301934177"><ele>433.0</ele><time>2026-05-01T11:07:36.001Z</time></trkpt><trkpt lat="45.76737349984347" lon="10.760868072506925"><ele>439.49999999999994</ele><time>2026-05-01T11:07:38.001Z</time></trkpt><trkpt lat="45.767429663722574" lon="10.76090909149093"><ele>446.0</ele><time>2026-05-01T11:07:46.001Z</time></trkpt><trkpt lat="45.76748937755057" lon="10.76094884625019"><ele>445.99999999999994</ele><time>2026-05-01T11:07:54.001Z</time></trkpt><trkpt lat="45.767551371870624" lon="10.76101821336209"><ele>446.0</ele><time>2026-05-01T11:07:58.001Z</time></trkpt><trkpt lat="45.76759877424043" lon="10.761079945202454"><ele>446.0</ele><time>2026-05-01T11:08:00.001Z</time></trkpt><trkpt lat="45.76764708331072" lon="10.761149388158804"><ele>446.0</ele><time>2026-05-01T11:08:02.001Z</time></trkpt><trkpt lat="45.767716679771105" lon="10.761241480485468"><ele>445.99999999999994</ele><time>2026-05-01T11:08:04.001Z</time></trkpt><trkpt lat="45.76779167579452" lon="10.761386983398042"><ele>446.0</ele><time>2026-05-01T11:08:06.001Z</time></trkpt><trkpt lat="45.76784468505702" lon="10.761475451338185"><ele>446.0</ele><time>2026-05-01T11:08:07.001Z</time></trkpt><trkpt lat="45.767900957060604" lon="10.761569817085842"><ele>446.0</ele><time>2026-05-01T11:08:08.001Z</time></trkpt><trkpt lat="45.767977945383336" lon="10.761666554341286"><ele>446.0</ele><time>2026-05-01T11:08:09.001Z</time></trkpt><trkpt lat="45.76806539337167" lon="10.761747304388125"><ele>446.0</ele><time>2026-05-01T11:08:10.001Z</time></trkpt><trkpt lat="45.7681407048753" lon="10.761818325514412"><ele>446.0</ele><time>2026-05-01T11:08:11.001Z</time></trkpt><trkpt lat="45.76822351397623" lon="10.76189459418061"><ele>445.99999999999994</ele><time>2026-05-01T11:08:12.001Z</time></trkpt><trkpt lat="45.768293527316985" lon="10.761965383595605"><ele>446.0</ele><time>2026-05-01T11:08:13.001Z</time></trkpt><trkpt lat="45.76835808720639" lon="10.762041594946337"><ele>446.0</ele><time>2026-05-01T11:08:14.001Z</time></trkpt><trkpt lat="45.768411751215865" lon="10.76210272367349"><ele>446.0</ele><time>2026-05-01T11:08:15.001Z</time></trkpt><trkpt lat="45.768474665692665" lon="10.762220382352956"><ele>445.99999999999994</ele><time>2026-05-01T11:08:17.001Z</time></trkpt><trkpt lat="45.768501826867855" lon="10.762137827270386"><ele>446.0</ele><time>2026-05-01T11:08:21.001Z</time></trkpt><trkpt lat="45.768655047809574" lon="10.761965409514506"><ele>446.0</ele><time>2026-05-01T11:08:23.001Z</time></trkpt><trkpt lat="45.76831617946568" lon="10.76167979763309"><ele>446.0</ele><time>2026-05-01T11:08:24.017Z</time></trkpt><trkpt lat="45.76822582764024" lon="10.76165336112157"><ele>446.0</ele><time>2026-05-01T11:08:25.016Z</time></trkpt><trkpt lat="45.76815257548145" lon="10.76161770280742"><ele>446.0</ele><time>2026-05-01T11:08:26.029Z</time></trkpt><trkpt lat="45.768092472479196" lon="10.761571483245"><ele>446.0</ele><time>2026-05-01T11:08:27.016Z</time></trkpt><trkpt lat="45.76803472173188" lon="10.761516007986062"><ele>446.0</ele><time>2026-05-01T11:08:28.023Z</time></trkpt><trkpt lat="45.76795751609694" lon="10.761454573671006"><ele>446.0</ele><time>2026-05-01T11:08:29.026Z</time></trkpt><trkpt lat="45.768186467733706" lon="10.761636755851244"><ele>446.0</ele><time>2026-05-01T11:08:33.001Z</time></trkpt><trkpt lat="45.768091380193134" lon="10.761538511648105"><ele>446.0</ele><time>2026-05-01T11:13:24Z</time></trkpt><trkpt lat="45.76799701410825" lon="10.761431690268166"><ele>446.0</ele><time>2026-05-01T11:13:26Z</time></trkpt><trkpt lat="45.76794151713088" lon="10.761346724485453"><ele>446.0</ele><time>2026-05-01T11:13:27Z</time></trkpt><trkpt lat="45.76784465290836" lon="10.76120087762824"><ele>446.0</ele><time>2026-05-01T11:13:28Z</time></trkpt><trkpt lat="45.76772482060074" lon="10.76102101664118"><ele>446.0</ele><time>2026-05-01T11:13:29Z</time></trkpt><trkpt lat="45.76762375360672" lon="10.760878654772219"><ele>446.0</ele><time>2026-05-01T11:13:30Z</time></trkpt><trkpt lat="45.76751815902606" lon="10.760803016422651"><ele>446.0</ele><time>2026-05-01T11:13:31Z</time></trkpt><trkpt lat="45.76744149622467" lon="10.760742362547548"><ele>446.0</ele><time>2026-05-01T11:13:32Z</time></trkpt><trkpt lat="45.7673568661976" lon="10.760780967430454"><ele>446.0</ele><time>2026-05-01T11:14:19Z</time></trkpt><trkpt lat="45.767296886815686" lon="10.760735633221117"><ele>446.0</ele><time>2026-05-01T11:14:20Z</time></trkpt><trkpt lat="45.76720681305595" lon="10.760629742752226"><ele>446.0</ele><time>2026-05-01T11:14:22Z</time></trkpt><trkpt lat="45.767136176453654" lon="10.760551552530213"><ele>446.0</ele><time>2026-05-01T11:14:23Z</time></trkpt><trkpt lat="45.767030488468336" lon="10.760426907827997"><ele>446.0</ele><time>2026-05-01T11:14:24Z</time></trkpt><trkpt lat="45.76690853390089" lon="10.760279484299248"><ele>446.0</ele><time>2026-05-01T11:14:25Z</time></trkpt><trkpt lat="45.7668160554195" lon="10.760177493911742"><ele>446.0</ele><time>2026-05-01T11:14:26Z</time></trkpt><trkpt lat="45.76674252173788" lon="10.760099367954735"><ele>446.0</ele><time>2026-05-01T11:14:27Z</time></trkpt><trkpt lat="45.76667377508757" lon="10.760062123873096"><ele>446.0</ele><time>2026-05-01T11:14:28Z</time></trkpt><trkpt lat="45.766598605909294" lon="10.759999396217008"><ele>446.49999999999994</ele><time>2026-05-01T11:14:29Z</time></trkpt><trkpt lat="45.76653691517798" lon="10.759961929599763"><ele>447.0</ele><time>2026-05-01T11:14:30Z</time></trkpt><trkpt lat="45.76649072134824" lon="10.75988381114323"><ele>447.5</ele><time>2026-05-01T11:14:31Z</time></trkpt><trkpt lat="45.76643814124359" lon="10.759792944675139"><ele>448.0</ele><time>2026-05-01T11:14:32Z</time></trkpt><trkpt lat="45.76637549223004" lon="10.75968516657626"><ele>448.49999999999994</ele><time>2026-05-01T11:14:33Z</time></trkpt><trkpt lat="45.766308370854944" lon="10.759574588563565"><ele>449.0</ele><time>2026-05-01T11:14:34Z</time></trkpt><trkpt lat="45.76624242159922" lon="10.759466928466615"><ele>449.0</ele><time>2026-05-01T11:14:35Z</time></trkpt><trkpt lat="45.7661645297518" lon="10.75937186292448"><ele>449.0</ele><time>2026-05-01T11:14:36Z</time></trkpt><trkpt lat="45.76607059081788" lon="10.759298914566722"><ele>449.0</ele><time>2026-05-01T11:14:37Z</time></trkpt><trkpt lat="45.76597365258572" lon="10.759246562135132"><ele>449.0</ele><time>2026-05-01T11:14:38Z</time></trkpt><trkpt lat="45.76587579106241" lon="10.759176499996565"><ele>449.0</ele><time>2026-05-01T11:14:39Z</time></trkpt><trkpt lat="45.76578181412291" lon="10.759113582279374"><ele>446.0</ele><time>2026-05-01T11:14:40Z</time></trkpt><trkpt lat="45.765709932024876" lon="10.759058620885993"><ele>443.0</ele><time>2026-05-01T11:14:41Z</time></trkpt><trkpt lat="45.76567062556515" lon="10.758977499418288"><ele>440.0</ele><time>2026-05-01T11:14:42Z</time></trkpt><trkpt lat="45.76559813652194" lon="10.758955417627133"><ele>437.0</ele><time>2026-05-01T11:14:43Z</time></trkpt><trkpt lat="45.76554817004597" lon="10.75880113475143"><ele>434.0</ele><time>2026-05-01T11:14:44Z</time></trkpt><trkpt lat="45.7654822152048" lon="10.758649878133909"><ele>434.0</ele><time>2026-05-01T11:14:45Z</time></trkpt><trkpt lat="45.765436500394" lon="10.758540366205942"><ele>434.0</ele><time>2026-05-01T11:14:46Z</time></trkpt><trkpt lat="45.76542341540362" lon="10.758442217450177"><ele>434.0</ele><time>2026-05-01T11:14:47Z</time></trkpt><trkpt lat="45.76529294139304" lon="10.758363490296265"><ele>434.0</ele><time>2026-05-01T11:14:49Z</time></trkpt><trkpt lat="45.76519933282747" lon="10.758386061618532"><ele>434.0</ele><time>2026-05-01T11:14:50Z</time></trkpt><trkpt lat="45.76511043131996" lon="10.758377529051224"><ele>432.6</ele><time>2026-05-01T11:14:51Z</time></trkpt><trkpt lat="45.76502513140259" lon="10.758338007692373"><ele>431.2</ele><time>2026-05-01T11:14:52Z</time></trkpt><trkpt lat="45.764947955236224" lon="10.758270005163018"><ele>429.80000000000007</ele><time>2026-05-01T11:14:53Z</time></trkpt><trkpt lat="45.76486916914255" lon="10.758179427965656"><ele>428.40000000000003</ele><time>2026-05-01T11:14:54Z</time></trkpt><trkpt lat="45.764787843500855" lon="10.758083239254445"><ele>427.0</ele><time>2026-05-01T11:14:55Z</time></trkpt><trkpt lat="45.764711154233396" lon="10.757992179788795"><ele>427.0</ele><time>2026-05-01T11:14:56Z</time></trkpt><trkpt lat="45.764630254890946" lon="10.757896121351136"><ele>427.00000000000006</ele><time>2026-05-01T11:14:57.001Z</time></trkpt><trkpt lat="45.76453699981708" lon="10.757778897335845"><ele>427.00000000000006</ele><time>2026-05-01T11:14:58.001Z</time></trkpt><trkpt lat="45.76446754217139" lon="10.757679267849543"><ele>427.0</ele><time>2026-05-01T11:14:59.001Z</time></trkpt><trkpt lat="45.76440659842813" lon="10.757561539162339"><ele>427.0</ele><time>2026-05-01T11:15:00.001Z</time></trkpt><trkpt lat="45.764344070482444" lon="10.757432250483486"><ele>422.0</ele><time>2026-05-01T11:15:01.001Z</time></trkpt><trkpt lat="45.764274552870496" lon="10.757308410404761"><ele>417.00000000000006</ele><time>2026-05-01T11:15:02.001Z</time></trkpt><trkpt lat="45.76420660116309" lon="10.75719180215375"><ele>412.0</ele><time>2026-05-01T11:15:03.001Z</time></trkpt><trkpt lat="45.76415857616518" lon="10.757105882054438"><ele>407.0</ele><time>2026-05-01T11:15:04.001Z</time></trkpt><trkpt lat="45.76408647679968" lon="10.757040284903129"><ele>402.0</ele><time>2026-05-01T11:15:05.001Z</time></trkpt><trkpt lat="45.76402512047019" lon="10.756980618357499"><ele>402.0</ele><time>2026-05-01T11:15:06.001Z</time></trkpt><trkpt lat="45.76395166626137" lon="10.756949976087158"><ele>402.0</ele><time>2026-05-01T11:15:07Z</time></trkpt><trkpt lat="45.76389048533641" lon="10.756923882962049"><ele>402.0</ele><time>2026-05-01T11:15:08Z</time></trkpt><trkpt lat="45.763876726802536" lon="10.756781300829049"><ele>402.0</ele><time>2026-05-01T11:15:10Z</time></trkpt><trkpt lat="45.76395678404025" lon="10.756674924877347"><ele>402.0</ele><time>2026-05-01T11:15:12Z</time></trkpt><trkpt lat="45.76402664026049" lon="10.756779904962471"><ele>402.0</ele><time>2026-05-01T11:15:14Z</time></trkpt><trkpt lat="45.76411173620982" lon="10.756900867431371"><ele>402.0</ele><time>2026-05-01T11:15:15Z</time></trkpt><trkpt lat="45.7642097682152" lon="10.757040147003382"><ele>402.0</ele><time>2026-05-01T11:15:16Z</time></trkpt><trkpt lat="45.76430192488412" lon="10.75717107914793"><ele>402.0</ele><time>2026-05-01T11:15:17Z</time></trkpt><trkpt lat="45.76439231715755" lon="10.757299504535187"><ele>408.25</ele><time>2026-05-01T11:15:18Z</time></trkpt><trkpt lat="45.764500421331604" lon="10.757453094220494"><ele>414.5</ele><time>2026-05-01T11:15:19Z</time></trkpt><trkpt lat="45.764599241888014" lon="10.75756836852683"><ele>420.75</ele><time>2026-05-01T11:15:20Z</time></trkpt><trkpt lat="45.76468238355406" lon="10.757693178724585"><ele>427.0</ele><time>2026-05-01T11:15:21Z</time></trkpt><trkpt lat="45.7647678525079" lon="10.7578084393175"><ele>427.0</ele><time>2026-05-01T11:15:22Z</time></trkpt><trkpt lat="45.76484551700688" lon="10.75792036596748"><ele>427.00000000000006</ele><time>2026-05-01T11:15:23Z</time></trkpt><trkpt lat="45.764943889783844" lon="10.758016507626389"><ele>427.00000000000006</ele><time>2026-05-01T11:15:24Z</time></trkpt><trkpt lat="45.76503154028702" lon="10.758064017473583"><ele>427.0</ele><time>2026-05-01T11:15:25Z</time></trkpt><trkpt lat="45.76512375645188" lon="10.758079568888823"><ele>427.0</ele><time>2026-05-01T11:15:26Z</time></trkpt><trkpt lat="45.76523004869855" lon="10.758081342911497"><ele>441.33333333333337</ele><time>2026-05-01T11:15:27Z</time></trkpt><trkpt lat="45.765370653930596" lon="10.758050494214412"><ele>455.66666666666663</ele><time>2026-05-01T11:15:28Z</time></trkpt><trkpt lat="45.7655444614886" lon="10.758017990158256"><ele>470.0</ele><time>2026-05-01T11:15:29Z</time></trkpt><trkpt lat="45.76571015950876" lon="10.758004004602844"><ele>470.0</ele><time>2026-05-01T11:15:30Z</time></trkpt><trkpt lat="45.76587984143638" lon="10.758009342627508"><ele>470.0</ele><time>2026-05-01T11:15:31Z</time></trkpt><trkpt lat="45.7660547850332" lon="10.75802802560412"><ele>470.0</ele><time>2026-05-01T11:15:32.018Z</time></trkpt><trkpt lat="45.766238387950146" lon="10.758071177987613"><ele>479.0</ele><time>2026-05-01T11:15:33.013Z</time></trkpt><trkpt lat="45.766652482535214" lon="10.758166097580817"><ele>488.0</ele><time>2026-05-01T11:15:35.016Z</time></trkpt><trkpt lat="45.76690456834686" lon="10.758220053054401"><ele>488.0</ele><time>2026-05-01T11:15:36.012Z</time></trkpt><trkpt lat="45.77058511324764" lon="10.76270112768818"><ele>488.0</ele><time>2026-05-01T11:16:06Z</time></trkpt><trkpt lat="45.77073017537748" lon="10.762858840497344"><ele>488.0</ele><time>2026-05-01T11:16:07Z</time></trkpt><trkpt lat="45.77069388059045" lon="10.763184583254766"><ele>488.0</ele><time>2026-05-01T11:16:08Z</time></trkpt><trkpt lat="45.77076197584088" lon="10.763302178160103"><ele>488.0</ele><time>2026-05-01T11:16:11Z</time></trkpt><trkpt lat="45.77081804492374" lon="10.763391047433855"><ele>487.99999999999994</ele><time>2026-05-01T11:16:12Z</time></trkpt><trkpt lat="45.77083606524307" lon="10.76347894552397"><ele>487.99999999999994</ele><time>2026-05-01T11:16:13Z</time></trkpt><trkpt lat="45.77086566577567" lon="10.763623963067992"><ele>488.0</ele><time>2026-05-01T11:16:14Z</time></trkpt><trkpt lat="45.77088946763826" lon="10.7637642894199"><ele>488.0</ele><time>2026-05-01T11:16:15Z</time></trkpt><trkpt lat="45.77093588575709" lon="10.763999062149809"><ele>488.0</ele><time>2026-05-01T11:16:16Z</time></trkpt><trkpt lat="45.77100154297236" lon="10.764159794290954"><ele>488.0</ele><time>2026-05-01T11:16:17Z</time></trkpt><trkpt lat="45.77101064680089" lon="10.76429572382506"><ele>488.0</ele><time>2026-05-01T11:16:18Z</time></trkpt><trkpt lat="45.77103395183345" lon="10.764570076001235"><ele>488.0</ele><time>2026-05-01T11:16:19Z</time></trkpt><trkpt lat="45.77114295897582" lon="10.764790141738413"><ele>488.0</ele><time>2026-05-01T11:16:21Z</time></trkpt><trkpt lat="45.771201213368435" lon="10.764884192058567"><ele>488.0</ele><time>2026-05-01T11:16:22Z</time></trkpt><trkpt lat="45.77130728796841" lon="10.765003470418947"><ele>488.0</ele><time>2026-05-01T11:16:23Z</time></trkpt><trkpt lat="45.77143078229312" lon="10.765043420428942"><ele>488.0</ele><time>2026-05-01T11:16:24Z</time></trkpt><trkpt lat="45.77152827046562" lon="10.765134314443696"><ele>446.4</ele><time>2026-05-01T11:16:25Z</time></trkpt><trkpt lat="45.771629653083835" lon="10.765221562077244"><ele>404.79999999999995</ele><time>2026-05-01T11:16:26Z</time></trkpt><trkpt lat="45.77172368094288" lon="10.765284909745338"><ele>363.2</ele><time>2026-05-01T11:16:27Z</time></trkpt><trkpt lat="45.771821120039554" lon="10.76529366017485"><ele>321.6</ele><time>2026-05-01T11:16:28Z</time></trkpt><trkpt lat="45.77193898278795" lon="10.76530920783743"><ele>280.0</ele><time>2026-05-01T11:16:29Z</time></trkpt><trkpt lat="45.77202143551154" lon="10.765362172890095"><ele>280.0</ele><time>2026-05-01T11:16:30Z</time></trkpt><trkpt lat="45.77209914820098" lon="10.765444860582729"><ele>280.0</ele><time>2026-05-01T11:16:31Z</time></trkpt><trkpt lat="45.77219606087884" lon="10.76554308902127"><ele>280.0</ele><time>2026-05-01T11:16:32Z</time></trkpt><trkpt lat="45.77227437576536" lon="10.765625211607684"><ele>280.0</ele><time>2026-05-01T11:16:33Z</time></trkpt><trkpt lat="45.77237849355269" lon="10.765801508265655"><ele>280.0</ele><time>2026-05-01T11:16:34Z</time></trkpt><trkpt lat="45.772445870230705" lon="10.76585759194208"><ele>280.0</ele><time>2026-05-01T11:16:36Z</time></trkpt><trkpt lat="45.77254807434594" lon="10.765857444760377"><ele>280.0</ele><time>2026-05-01T11:16:37Z</time></trkpt><trkpt lat="45.772636534241954" lon="10.765859500969277"><ele>280.0</ele><time>2026-05-01T11:16:38Z</time></trkpt><trkpt lat="45.772723438908685" lon="10.765882347296127"><ele>280.0</ele><time>2026-05-01T11:16:39Z</time></trkpt><trkpt lat="45.77280104311494" lon="10.765918963573895"><ele>280.0</ele><time>2026-05-01T11:16:40Z</time></trkpt><trkpt lat="45.77286625182417" lon="10.765968480114175"><ele>281.0</ele><time>2026-05-01T11:16:41.011Z</time></trkpt><trkpt lat="45.77292797349455" lon="10.766018895471728"><ele>282.0</ele><time>2026-05-01T11:16:42.013Z</time></trkpt><trkpt lat="45.77298998398033" lon="10.766074607427342"><ele>283.0</ele><time>2026-05-01T11:16:43.012Z</time></trkpt><trkpt lat="45.773061957675935" lon="10.76613742857862"><ele>284.0</ele><time>2026-05-01T11:16:44.018Z</time></trkpt><trkpt lat="45.773128333198734" lon="10.766195363476536"><ele>285.0</ele><time>2026-05-01T11:16:45.001Z</time></trkpt><trkpt lat="45.773352119890866" lon="10.766392725406224"><ele>285.75</ele><time>2026-05-01T11:16:46.001Z</time></trkpt><trkpt lat="45.773464631641296" lon="10.766454254754036"><ele>286.5</ele><time>2026-05-01T11:16:47.001Z</time></trkpt><trkpt lat="45.77357310704053" lon="10.766471929667446"><ele>287.25</ele><time>2026-05-01T11:16:48.001Z</time></trkpt><trkpt lat="45.77366849825023" lon="10.766462030556621"><ele>288.0</ele><time>2026-05-01T11:16:49.011Z</time></trkpt><trkpt lat="45.77403447595031" lon="10.766330156485331"><ele>288.0</ele><time>2026-05-01T11:16:54.001Z</time></trkpt><trkpt lat="45.774111878950855" lon="10.766304604001153"><ele>288.0</ele><time>2026-05-01T11:16:55.001Z</time></trkpt><trkpt lat="45.77418383056307" lon="10.766289229108429"><ele>288.0</ele><time>2026-05-01T11:16:56.001Z</time></trkpt><trkpt lat="45.77421945804615" lon="10.766058950191589"><ele>288.0</ele><time>2026-05-01T11:16:58.001Z</time></trkpt><trkpt lat="45.77422036225522" lon="10.76596705411682"><ele>288.0</ele><time>2026-05-01T11:16:59.001Z</time></trkpt><trkpt lat="45.77420810387517" lon="10.76575910791871"><ele>288.6</ele><time>2026-05-01T11:17:00.001Z</time></trkpt><trkpt lat="45.77419556619147" lon="10.765626892356801"><ele>289.20000000000005</ele><time>2026-05-01T11:17:01.001Z</time></trkpt><trkpt lat="45.77417492844724" lon="10.765493933622336"><ele>289.8</ele><time>2026-05-01T11:17:02.001Z</time></trkpt><trkpt lat="45.7741449533945" lon="10.76537227130137"><ele>290.40000000000003</ele><time>2026-05-01T11:17:03.001Z</time></trkpt><trkpt lat="45.77411793686553" lon="10.765240406491852"><ele>291.0</ele><time>2026-05-01T11:17:04.001Z</time></trkpt><trkpt lat="45.77407875830887" lon="10.765094435893175"><ele>291.0</ele><time>2026-05-01T11:17:05.001Z</time></trkpt><trkpt lat="45.774053034461545" lon="10.76495187523203"><ele>291.0</ele><time>2026-05-01T11:17:06.001Z</time></trkpt><trkpt lat="45.77402594609299" lon="10.76482338954437"><ele>291.0</ele><time>2026-05-01T11:17:07.001Z</time></trkpt><trkpt lat="45.774018884734915" lon="10.764696423464896"><ele>291.0</ele><time>2026-05-01T11:17:08.001Z</time></trkpt><trkpt lat="45.774009616746696" lon="10.764580729993455"><ele>291.0</ele><time>2026-05-01T11:17:09.001Z</time></trkpt><trkpt lat="45.77397069183141" lon="10.764416570712392"><ele>291.0</ele><time>2026-05-01T11:17:11.001Z</time></trkpt><trkpt lat="45.773739844276875" lon="10.764553632651007"><ele>291.0</ele><time>2026-05-01T11:17:14Z</time></trkpt><trkpt lat="45.77375969376285" lon="10.764683712749465"><ele>291.0</ele><time>2026-05-01T11:17:15Z</time></trkpt><trkpt lat="45.77375165967591" lon="10.764807764374204"><ele>291.0</ele><time>2026-05-01T11:17:16Z</time></trkpt><trkpt lat="45.773743220617234" lon="10.765010500011833"><ele>291.0</ele><time>2026-05-01T11:17:17Z</time></trkpt><trkpt lat="45.77374497998697" lon="10.765175553004749"><ele>291.0</ele><time>2026-05-01T11:17:18Z</time></trkpt><trkpt lat="45.773783340292525" lon="10.765284861456964"><ele>291.0</ele><time>2026-05-01T11:17:19Z</time></trkpt><trkpt lat="45.77383853801285" lon="10.765385070840832"><ele>291.0</ele><time>2026-05-01T11:17:21Z</time></trkpt><trkpt lat="45.7738908639708" lon="10.765466613709066"><ele>291.0</ele><time>2026-05-01T11:17:23Z</time></trkpt><trkpt lat="45.77390658692492" lon="10.765592074041624"><ele>290.5</ele><time>2026-05-01T11:17:25Z</time></trkpt><trkpt lat="45.77392355318201" lon="10.765716057211788"><ele>290.0</ele><time>2026-05-01T11:17:27Z</time></trkpt><trkpt lat="45.77394385423415" lon="10.765836365030664"><ele>289.5</ele><time>2026-05-01T11:17:29Z</time></trkpt><trkpt lat="45.77391379043482" lon="10.765927812850444"><ele>289.0</ele><time>2026-05-01T11:17:31Z</time></trkpt><trkpt lat="45.77388666008489" lon="10.766021613215731"><ele>288.5</ele><time>2026-05-01T11:17:33Z</time></trkpt><trkpt lat="45.773863817874535" lon="10.76610938062477"><ele>288.0</ele><time>2026-05-01T11:17:36Z</time></trkpt><trkpt lat="45.77384048257879" lon="10.766240859146798"><ele>288.0</ele><time>2026-05-01T11:17:39Z</time></trkpt><trkpt lat="45.77382464094029" lon="10.766350166138746"><ele>288.0</ele><time>2026-05-01T11:17:42Z</time></trkpt><trkpt lat="45.77379920140645" lon="10.766244383873985"><ele>288.0</ele><time>2026-05-01T11:24:39Z</time></trkpt><trkpt lat="45.77380283644688" lon="10.766104672087113"><ele>288.0</ele><time>2026-05-01T11:24:41Z</time></trkpt><trkpt lat="45.77384586111561" lon="10.76597450791832"><ele>288.0</ele><time>2026-05-01T11:24:42Z</time></trkpt><trkpt lat="45.77388213341936" lon="10.765824183586536"><ele>290.2</ele><time>2026-05-01T11:24:43Z</time></trkpt><trkpt lat="45.773894335897616" lon="10.765702823839504"><ele>292.4</ele><time>2026-05-01T11:24:44Z</time></trkpt><trkpt lat="45.77387119914661" lon="10.765593210523221"><ele>294.59999999999997</ele><time>2026-05-01T11:24:45Z</time></trkpt><trkpt lat="45.77384670455846" lon="10.765455778052827"><ele>296.8</ele><time>2026-05-01T11:24:47Z</time></trkpt><trkpt lat="45.77377274692431" lon="10.765313245948988"><ele>299.0</ele><time>2026-05-01T11:24:49Z</time></trkpt><trkpt lat="45.773702540785315" lon="10.765225111812718"><ele>297.0</ele><time>2026-05-01T11:24:50Z</time></trkpt><trkpt lat="45.77366780886084" lon="10.765099927095749"><ele>295.0</ele><time>2026-05-01T11:24:51Z</time></trkpt><trkpt lat="45.77367962930071" lon="10.764933257162422"><ele>293.0</ele><time>2026-05-01T11:24:52Z</time></trkpt><trkpt lat="45.77368771435875" lon="10.764717556769636"><ele>291.0</ele><time>2026-05-01T11:24:53Z</time></trkpt><trkpt lat="45.77370646679646" lon="10.764444508704454"><ele>293.0</ele><time>2026-05-01T11:24:54Z</time></trkpt><trkpt lat="45.773745563473" lon="10.764199426890539"><ele>295.0</ele><time>2026-05-01T11:24:55Z</time></trkpt><trkpt lat="45.77377392332214" lon="10.764013258330642"><ele>297.0</ele><time>2026-05-01T11:24:56Z</time></trkpt><trkpt lat="45.773792513651735" lon="10.76383087684543"><ele>299.0</ele><time>2026-05-01T11:24:57Z</time></trkpt><trkpt lat="45.773859810883" lon="10.763688009270876"><ele>299.0</ele><time>2026-05-01T11:24:58Z</time></trkpt><trkpt lat="45.773928086355404" lon="10.76353906619019"><ele>299.0</ele><time>2026-05-01T11:24:59.001Z</time></trkpt><trkpt lat="45.77394555721936" lon="10.763383823189224"><ele>299.0</ele><time>2026-05-01T11:25:00.001Z</time></trkpt><trkpt lat="45.77396911424745" lon="10.763220011563977"><ele>299.0</ele><time>2026-05-01T11:25:01.001Z</time></trkpt><trkpt lat="45.77401739646882" lon="10.763098944764959"><ele>299.0</ele><time>2026-05-01T11:25:02.001Z</time></trkpt><trkpt lat="45.77406449843304" lon="10.763006550478325"><ele>302.5</ele><time>2026-05-01T11:25:03.001Z</time></trkpt><trkpt lat="45.77417257988401" lon="10.762945439713857"><ele>306.0</ele><time>2026-05-01T11:25:05.001Z</time></trkpt><trkpt lat="45.774269288956155" lon="10.76289822394863"><ele>309.5</ele><time>2026-05-01T11:25:06.001Z</time></trkpt><trkpt lat="45.77441795785081" lon="10.762852105996922"><ele>313.0</ele><time>2026-05-01T11:25:07.001Z</time></trkpt><trkpt lat="45.77451836880577" lon="10.762825986923852"><ele>316.0</ele><time>2026-05-01T11:25:08.001Z</time></trkpt><trkpt lat="45.7746182619381" lon="10.762789390611001"><ele>319.0</ele><time>2026-05-01T11:25:09.001Z</time></trkpt><trkpt lat="45.77469245911037" lon="10.762761878233652"><ele>322.0</ele><time>2026-05-01T11:25:10.001Z</time></trkpt><trkpt lat="45.77478118634691" lon="10.762747994980872"><ele>325.0</ele><time>2026-05-01T11:25:11.001Z</time></trkpt><trkpt lat="45.774878671204455" lon="10.762788933906506"><ele>328.0</ele><time>2026-05-01T11:25:12.001Z</time></trkpt><trkpt lat="45.77496979552303" lon="10.762751945312278"><ele>328.0</ele><time>2026-05-01T11:25:13.001Z</time></trkpt><trkpt lat="45.77508243344159" lon="10.762706224064933"><ele>328.0</ele><time>2026-05-01T11:25:14.001Z</time></trkpt><trkpt lat="45.77521896282815" lon="10.762659390733825"><ele>328.0</ele><time>2026-05-01T11:25:15.015Z</time></trkpt><trkpt lat="45.77536032472862" lon="10.762608198836862"><ele>328.0</ele><time>2026-05-01T11:25:16.014Z</time></trkpt><trkpt lat="45.775512220653134" lon="10.762534214768836"><ele>334.5</ele><time>2026-05-01T11:25:17.021Z</time></trkpt><trkpt lat="45.77566378247782" lon="10.76245256985502"><ele>341.0</ele><time>2026-05-01T11:25:18.017Z</time></trkpt><trkpt lat="45.77565687658985" lon="10.761923179324246"><ele>340.0</ele><time>2026-05-01T11:25:19.015Z</time></trkpt><trkpt lat="45.775780789918095" lon="10.76185187171256"><ele>339.0</ele><time>2026-05-01T11:25:20.023Z</time></trkpt><trkpt lat="45.77588888820799" lon="10.761191211650857"><ele>325.0</ele><time>2026-05-01T11:25:36.001Z</time></trkpt><trkpt lat="45.77617059550978" lon="10.761023203675192"><ele>311.0</ele><time>2026-05-01T11:25:38.001Z</time></trkpt><trkpt lat="45.77639639580751" lon="10.760998542149526"><ele>311.0</ele><time>2026-05-01T11:25:39.001Z</time></trkpt><trkpt lat="45.77641813788762" lon="10.760874898898946"><ele>311.0</ele><time>2026-05-01T11:25:40.001Z</time></trkpt><trkpt lat="45.77643844414289" lon="10.760762253271087"><ele>311.0</ele><time>2026-05-01T11:25:41.999Z</time></trkpt><trkpt lat="45.7764735185995" lon="10.760677439833625"><ele>311.0</ele><time>2026-05-01T11:25:43.999Z</time></trkpt><trkpt lat="45.776539091907836" lon="10.760570200578202"><ele>311.0</ele><time>2026-05-01T11:25:45.999Z</time></trkpt><trkpt lat="45.77658798331368" lon="10.760483672924522"><ele>311.0</ele><time>2026-05-01T11:25:47.999Z</time></trkpt><trkpt lat="45.7766551992386" lon="10.760449461819645"><ele>311.0</ele><time>2026-05-01T11:25:50.999Z</time></trkpt><trkpt lat="45.77670500003301" lon="10.760386478385056"><ele>311.0</ele><time>2026-05-01T11:26:01.999Z</time></trkpt><trkpt lat="45.776748130883774" lon="10.760300241044005"><ele>311.0</ele><time>2026-05-01T11:26:06Z</time></trkpt><trkpt lat="45.77681179915657" lon="10.760212948055006"><ele>311.0</ele><time>2026-05-01T11:26:08Z</time></trkpt><trkpt lat="45.776901302037416" lon="10.7600984569939"><ele>311.0</ele><time>2026-05-01T11:26:10Z</time></trkpt><trkpt lat="45.77695332727356" lon="10.760032266735644"><ele>311.0</ele><time>2026-05-01T11:26:11Z</time></trkpt><trkpt lat="45.777005121416835" lon="10.759977785716126"><ele>311.0</ele><time>2026-05-01T11:26:12Z</time></trkpt><trkpt lat="45.77710383026693" lon="10.759924654545"><ele>311.0</ele><time>2026-05-01T11:26:14Z</time></trkpt><trkpt lat="45.7771698168069" lon="10.760008915212323"><ele>311.0</ele><time>2026-05-01T11:26:16Z</time></trkpt><trkpt lat="45.77714383190971" lon="10.760163305320498"><ele>311.0</ele><time>2026-05-01T11:26:18Z</time></trkpt><trkpt lat="45.777096636260346" lon="10.760238796576898"><ele>311.0</ele><time>2026-05-01T11:26:19Z</time></trkpt><trkpt lat="45.777038535918685" lon="10.760332946193499"><ele>311.0</ele><time>2026-05-01T11:26:20Z</time></trkpt><trkpt lat="45.77697096918857" lon="10.760421118443297"><ele>311.0</ele><time>2026-05-01T11:26:21Z</time></trkpt><trkpt lat="45.776916158621674" lon="10.7604682486871"><ele>311.0</ele><time>2026-05-01T11:26:22Z</time></trkpt><trkpt lat="45.77683640822455" lon="10.760529078530151"><ele>311.0</ele><time>2026-05-01T11:26:23Z</time></trkpt><trkpt lat="45.77676055992626" lon="10.760581896227151"><ele>311.0</ele><time>2026-05-01T11:26:24Z</time></trkpt><trkpt lat="45.77668639690264" lon="10.760638593519944"><ele>311.0</ele><time>2026-05-01T11:26:25Z</time></trkpt><trkpt lat="45.77662830078069" lon="10.760694711036653"><ele>311.0</ele><time>2026-05-01T11:26:26Z</time></trkpt><trkpt lat="45.77657961835776" lon="10.760780877605931"><ele>311.0</ele><time>2026-05-01T11:26:27Z</time></trkpt><trkpt lat="45.77649978937571" lon="10.760900593443928"><ele>311.0</ele><time>2026-05-01T11:26:29Z</time></trkpt><trkpt lat="45.77642665153346" lon="10.760882399091162"><ele>311.0</ele><time>2026-05-01T11:26:31Z</time></trkpt><trkpt lat="45.776333197140566" lon="10.760851063236736"><ele>311.0</ele><time>2026-05-01T11:26:33Z</time></trkpt><trkpt lat="45.7762558543053" lon="10.760742847300142"><ele>311.0</ele><time>2026-05-01T11:26:35Z</time></trkpt><trkpt lat="45.77626267152021" lon="10.760621764627233"><ele>311.0</ele><time>2026-05-01T11:26:36Z</time></trkpt><trkpt lat="45.7762918131746" lon="10.76049056459085"><ele>311.0</ele><time>2026-05-01T11:26:37Z</time></trkpt><trkpt lat="45.776329660364716" lon="10.760293835782988"><ele>311.0</ele><time>2026-05-01T11:26:38Z</time></trkpt><trkpt lat="45.776360621958396" lon="10.7601573093584"><ele>311.0</ele><time>2026-05-01T11:26:39Z</time></trkpt><trkpt lat="45.77641411472923" lon="10.760080004590435"><ele>312.8</ele><time>2026-05-01T11:26:40Z</time></trkpt><trkpt lat="45.77650123119646" lon="10.760025147716728"><ele>314.6</ele><time>2026-05-01T11:26:41Z</time></trkpt><trkpt lat="45.77658107514396" lon="10.759977757206455"><ele>316.4</ele><time>2026-05-01T11:26:42Z</time></trkpt><trkpt lat="45.776675474793336" lon="10.759943384420044"><ele>318.2</ele><time>2026-05-01T11:26:43Z</time></trkpt><trkpt lat="45.7767469373388" lon="10.759874819422576"><ele>320.0</ele><time>2026-05-01T11:26:44Z</time></trkpt><trkpt lat="45.77682203722084" lon="10.759773453472915"><ele>317.75</ele><time>2026-05-01T11:26:45Z</time></trkpt><trkpt lat="45.776894962665594" lon="10.759626177444531"><ele>315.5</ele><time>2026-05-01T11:26:46Z</time></trkpt><trkpt lat="45.77698094719429" lon="10.759481348765872"><ele>313.25</ele><time>2026-05-01T11:26:47Z</time></trkpt><trkpt lat="45.77707215611445" lon="10.75937725261746"><ele>311.0</ele><time>2026-05-01T11:26:48Z</time></trkpt><trkpt lat="45.77713949910979" lon="10.75925055354163"><ele>310.6</ele><time>2026-05-01T11:26:49Z</time></trkpt><trkpt lat="45.7772030813836" lon="10.75911940909851"><ele>310.20000000000005</ele><time>2026-05-01T11:26:50Z</time></trkpt><trkpt lat="45.777264281615516" lon="10.758997243175132"><ele>309.79999999999995</ele><time>2026-05-01T11:26:51Z</time></trkpt><trkpt lat="45.777346832975255" lon="10.758885994849667"><ele>309.4</ele><time>2026-05-01T11:26:52Z</time></trkpt><trkpt lat="45.77742343999622" lon="10.758781497355184"><ele>309.0</ele><time>2026-05-01T11:26:53Z</time></trkpt><trkpt lat="45.777511767365176" lon="10.758702670482618"><ele>309.0</ele><time>2026-05-01T11:26:54Z</time></trkpt><trkpt lat="45.77759003782801" lon="10.758597579595367"><ele>309.0</ele><time>2026-05-01T11:26:55Z</time></trkpt><trkpt lat="45.777641337861134" lon="10.758498020197912"><ele>309.0</ele><time>2026-05-01T11:26:56Z</time></trkpt><trkpt lat="45.77771530010383" lon="10.758429449738076"><ele>309.0</ele><time>2026-05-01T11:26:57Z</time></trkpt><trkpt lat="45.77777923674729" lon="10.758361765238355"><ele>309.0</ele><time>2026-05-01T11:26:58Z</time></trkpt><trkpt lat="45.77784996934934" lon="10.7583345247452"><ele>309.0</ele><time>2026-05-01T11:26:59Z</time></trkpt><trkpt lat="45.77792535773814" lon="10.75835588860459"><ele>309.8333333333333</ele><time>2026-05-01T11:27:00Z</time></trkpt><trkpt lat="45.77799836092876" lon="10.75842220085739"><ele>310.6666666666667</ele><time>2026-05-01T11:27:01Z</time></trkpt><trkpt lat="45.77804716867557" lon="10.758527360335894"><ele>311.5</ele><time>2026-05-01T11:27:02Z</time></trkpt><trkpt lat="45.77806482069998" lon="10.758646861281575"><ele>312.33333333333337</ele><time>2026-05-01T11:27:03Z</time></trkpt><trkpt lat="45.77804572307658" lon="10.758772775458706"><ele>313.1666666666667</ele><time>2026-05-01T11:27:04Z</time></trkpt><trkpt lat="45.777999892717276" lon="10.758891400438353"><ele>314.0</ele><time>2026-05-01T11:27:05Z</time></trkpt><trkpt lat="45.77795108958765" lon="10.758996813676912"><ele>314.0</ele><time>2026-05-01T11:27:06Z</time></trkpt><trkpt lat="45.77795580387708" lon="10.759103789982069"><ele>314.0</ele><time>2026-05-01T11:27:07Z</time></trkpt><trkpt lat="45.77798943668313" lon="10.759217872578468"><ele>314.0</ele><time>2026-05-01T11:27:08Z</time></trkpt><trkpt lat="45.77804333176223" lon="10.759305713239952"><ele>314.0</ele><time>2026-05-01T11:27:09Z</time></trkpt><trkpt lat="45.77809529071424" lon="10.759398430842406"><ele>314.0</ele><time>2026-05-01T11:27:10Z</time></trkpt><trkpt lat="45.778132914470746" lon="10.75951450287159"><ele>314.0</ele><time>2026-05-01T11:27:11Z</time></trkpt><trkpt lat="45.778168275175254" lon="10.759614937195877"><ele>316.5</ele><time>2026-05-01T11:27:12Z</time></trkpt><trkpt lat="45.77822448187389" lon="10.759692657431051"><ele>319.0</ele><time>2026-05-01T11:27:13Z</time></trkpt><trkpt lat="45.77828312167043" lon="10.759738243013963"><ele>321.5</ele><time>2026-05-01T11:27:14Z</time></trkpt><trkpt lat="45.77835106999466" lon="10.759737747086179"><ele>324.0</ele><time>2026-05-01T11:27:15Z</time></trkpt><trkpt lat="45.778413602106475" lon="10.759692886882549"><ele>326.5</ele><time>2026-05-01T11:27:16Z</time></trkpt><trkpt lat="45.77849638758809" lon="10.759643115105964"><ele>329.0</ele><time>2026-05-01T11:27:17Z</time></trkpt><trkpt lat="45.7785860843924" lon="10.75960367707388"><ele>331.6</ele><time>2026-05-01T11:27:18Z</time></trkpt><trkpt lat="45.77868059681103" lon="10.759548699283714"><ele>334.2</ele><time>2026-05-01T11:27:19Z</time></trkpt><trkpt lat="45.778789614749435" lon="10.759474342645113"><ele>336.8</ele><time>2026-05-01T11:27:20Z</time></trkpt><trkpt lat="45.77890037559371" lon="10.759451756480873"><ele>339.40000000000003</ele><time>2026-05-01T11:27:21Z</time></trkpt><trkpt lat="45.77897857501197" lon="10.759415967851679"><ele>342.0</ele><time>2026-05-01T11:27:22.001Z</time></trkpt><trkpt lat="45.779040316702414" lon="10.759383298516738"><ele>342.0</ele><time>2026-05-01T11:27:23.001Z</time></trkpt><trkpt lat="45.77910579842464" lon="10.759365280524841"><ele>342.0</ele><time>2026-05-01T11:27:24.001Z</time></trkpt><trkpt lat="45.7791811015517" lon="10.759362877273068"><ele>342.0</ele><time>2026-05-01T11:27:25.001Z</time></trkpt><trkpt lat="45.77925769460501" lon="10.759396473245591"><ele>342.0</ele><time>2026-05-01T11:27:26.001Z</time></trkpt><trkpt lat="45.77933205518197" lon="10.759432153639704"><ele>342.0</ele><time>2026-05-01T11:27:27.001Z</time></trkpt><trkpt lat="45.77941903502634" lon="10.759462291658485"><ele>342.0</ele><time>2026-05-01T11:27:28.001Z</time></trkpt><trkpt lat="45.77951203693408" lon="10.759490760950799"><ele>340.0</ele><time>2026-05-01T11:27:29.001Z</time></trkpt><trkpt lat="45.779586299107876" lon="10.759518774726539"><ele>338.0</ele><time>2026-05-01T11:27:30.001Z</time></trkpt><trkpt lat="45.77969666571192" lon="10.759524776154919"><ele>336.0</ele><time>2026-05-01T11:27:32.001Z</time></trkpt><trkpt lat="45.77976737960365" lon="10.759406654770894"><ele>334.0</ele><time>2026-05-01T11:27:34.001Z</time></trkpt><trkpt lat="45.77978772674396" lon="10.759246948750828"><ele>332.0</ele><time>2026-05-01T11:27:36.001Z</time></trkpt><trkpt lat="45.77973574363074" lon="10.759090479771006"><ele>332.0</ele><time>2026-05-01T11:27:38.001Z</time></trkpt><trkpt lat="45.779680478514926" lon="10.759016270488456"><ele>332.0</ele><time>2026-05-01T11:27:39.001Z</time></trkpt><trkpt lat="45.77961439353643" lon="10.758955574240417"><ele>332.0</ele><time>2026-05-01T11:27:40.001Z</time></trkpt><trkpt lat="45.7795314220436" lon="10.758905727731248"><ele>332.0</ele><time>2026-05-01T11:27:41.001Z</time></trkpt><trkpt lat="45.77943995647728" lon="10.758858653747994"><ele>332.0</ele><time>2026-05-01T11:27:42.001Z</time></trkpt><trkpt lat="45.779363380282746" lon="10.758818669485514"><ele>332.0</ele><time>2026-05-01T11:27:43.001Z</time></trkpt><trkpt lat="45.77926746909557" lon="10.758777079626492"><ele>330.8</ele><time>2026-05-01T11:27:44.001Z</time></trkpt><trkpt lat="45.77916663304033" lon="10.758756561280752"><ele>329.6</ele><time>2026-05-01T11:27:45.001Z</time></trkpt><trkpt lat="45.77906086123575" lon="10.758753686161153"><ele>328.40000000000003</ele><time>2026-05-01T11:27:46.001Z</time></trkpt><trkpt lat="45.778954538578546" lon="10.758747036900973"><ele>327.20000000000005</ele><time>2026-05-01T11:27:47.001Z</time></trkpt><trkpt lat="45.77886319211187" lon="10.75874073736977"><ele>326.0</ele><time>2026-05-01T11:27:47.999Z</time></trkpt><trkpt lat="45.77877363269672" lon="10.758737881283144"><ele>326.0</ele><time>2026-05-01T11:27:48.999Z</time></trkpt><trkpt lat="45.778685602857706" lon="10.758691666624165"><ele>326.0</ele><time>2026-05-01T11:27:49.999Z</time></trkpt><trkpt lat="45.77861448357471" lon="10.758631979181125"><ele>326.0</ele><time>2026-05-01T11:27:50.999Z</time></trkpt><trkpt lat="45.77853614213675" lon="10.758588912309394"><ele>326.0</ele><time>2026-05-01T11:27:51.999Z</time></trkpt><trkpt lat="45.778487559991554" lon="10.758518511716662"><ele>326.0</ele><time>2026-05-01T11:27:52.999Z</time></trkpt><trkpt lat="45.7784672929665" lon="10.758332488512965"><ele>326.0</ele><time>2026-05-01T11:27:54.999Z</time></trkpt><trkpt lat="45.778498025620785" lon="10.758202883416677"><ele>326.0</ele><time>2026-05-01T11:27:56Z</time></trkpt><trkpt lat="45.77850524678241" lon="10.758091163713845"><ele>326.0</ele><time>2026-05-01T11:27:57Z</time></trkpt><trkpt lat="45.77850094011889" lon="10.75797323979527"><ele>326.0</ele><time>2026-05-01T11:27:58Z</time></trkpt><trkpt lat="45.778465668249666" lon="10.757870283053755"><ele>326.0</ele><time>2026-05-01T11:27:59Z</time></trkpt><trkpt lat="45.778400974224695" lon="10.757798283089738"><ele>326.0</ele><time>2026-05-01T11:28:00Z</time></trkpt><trkpt lat="45.778317327368995" lon="10.757724105233223"><ele>331.1666666666667</ele><time>2026-05-01T11:28:01Z</time></trkpt><trkpt lat="45.77823639002358" lon="10.757680023793876"><ele>336.33333333333337</ele><time>2026-05-01T11:28:02Z</time></trkpt><trkpt lat="45.778170394305945" lon="10.75761623673583"><ele>341.5</ele><time>2026-05-01T11:28:03Z</time></trkpt><trkpt lat="45.77811258888999" lon="10.75756904452777"><ele>346.6666666666667</ele><time>2026-05-01T11:28:04Z</time></trkpt><trkpt lat="45.77804403095969" lon="10.757430946122918"><ele>351.8333333333333</ele><time>2026-05-01T11:28:06Z</time></trkpt><trkpt lat="45.778061239375994" lon="10.757337366174905"><ele>357.0</ele><time>2026-05-01T11:28:07Z</time></trkpt><trkpt lat="45.778026358262046" lon="10.757176144832194"><ele>357.0</ele><time>2026-05-01T11:28:09Z</time></trkpt><trkpt lat="45.777964406755125" lon="10.757098726557905"><ele>357.0</ele><time>2026-05-01T11:28:10Z</time></trkpt><trkpt lat="45.77787097503009" lon="10.757080372841976"><ele>357.0</ele><time>2026-05-01T11:28:11Z</time></trkpt><trkpt lat="45.777805964557295" lon="10.75702300172609"><ele>357.0</ele><time>2026-05-01T11:28:12Z</time></trkpt><trkpt lat="45.77776156685145" lon="10.756916278380837"><ele>357.0</ele><time>2026-05-01T11:28:13Z</time></trkpt><trkpt lat="45.777694637472955" lon="10.75677660753646"><ele>357.0</ele><time>2026-05-01T11:28:15Z</time></trkpt><trkpt lat="45.77756367037248" lon="10.756749674358552"><ele>357.0</ele><time>2026-05-01T11:28:17Z</time></trkpt><trkpt lat="45.777502284731035" lon="10.75698130472732"><ele>357.0</ele><time>2026-05-01T11:28:19Z</time></trkpt><trkpt lat="45.77750299984352" lon="10.757094712322216"><ele>357.0</ele><time>2026-05-01T11:28:20Z</time></trkpt><trkpt lat="45.77751071779149" lon="10.757211689018655"><ele>357.0</ele><time>2026-05-01T11:28:21Z</time></trkpt><trkpt lat="45.777514249739" lon="10.757331752563447"><ele>357.0</ele><time>2026-05-01T11:28:22Z</time></trkpt><trkpt lat="45.777521393147524" lon="10.75746808405426"><ele>357.0</ele><time>2026-05-01T11:28:23Z</time></trkpt><trkpt lat="45.77750619867491" lon="10.75760713052724"><ele>357.0</ele><time>2026-05-01T11:28:24Z</time></trkpt><trkpt lat="45.77748198997474" lon="10.757746023556072"><ele>357.0</ele><time>2026-05-01T11:28:25Z</time></trkpt><trkpt lat="45.77744384716814" lon="10.757894608626462"><ele>352.0</ele><time>2026-05-01T11:28:26Z</time></trkpt><trkpt lat="45.777380232211925" lon="10.758044502577421"><ele>347.0</ele><time>2026-05-01T11:28:27Z</time></trkpt><trkpt lat="45.77730020648377" lon="10.758159833487579"><ele>342.0</ele><time>2026-05-01T11:28:28Z</time></trkpt><trkpt lat="45.77720702030722" lon="10.758246179623756"><ele>337.0</ele><time>2026-05-01T11:28:29Z</time></trkpt><trkpt lat="45.777109545234985" lon="10.758328972370922"><ele>337.0</ele><time>2026-05-01T11:28:30Z</time></trkpt><trkpt lat="45.77701507182777" lon="10.758427141612758"><ele>337.0</ele><time>2026-05-01T11:28:31Z</time></trkpt><trkpt lat="45.77690790799536" lon="10.758463321052618"><ele>337.0</ele><time>2026-05-01T11:28:32Z</time></trkpt><trkpt lat="45.77680124798065" lon="10.758524188079456"><ele>337.0</ele><time>2026-05-01T11:28:33Z</time></trkpt><trkpt lat="45.77670209064795" lon="10.758566451964429"><ele>337.0</ele><time>2026-05-01T11:28:34Z</time></trkpt><trkpt lat="45.77660348368441" lon="10.75861706886047"><ele>337.8</ele><time>2026-05-01T11:28:35Z</time></trkpt><trkpt lat="45.776507988857446" lon="10.75867585685507"><ele>338.6</ele><time>2026-05-01T11:28:36Z</time></trkpt><trkpt lat="45.77641162051246" lon="10.758710721785551"><ele>339.40000000000003</ele><time>2026-05-01T11:28:37Z</time></trkpt><trkpt lat="45.776304434740354" lon="10.758737784663024"><ele>340.20000000000005</ele><time>2026-05-01T11:28:38Z</time></trkpt><trkpt lat="45.77620993746524" lon="10.758761658383513"><ele>341.0</ele><time>2026-05-01T11:28:39Z</time></trkpt><trkpt lat="45.776121390738304" lon="10.758771325305641"><ele>341.0</ele><time>2026-05-01T11:28:40Z</time></trkpt><trkpt lat="45.776046363142115" lon="10.758784782636777"><ele>341.0</ele><time>2026-05-01T11:28:41Z</time></trkpt><trkpt lat="45.775980486691076" lon="10.758795940004383"><ele>341.0</ele><time>2026-05-01T11:28:42Z</time></trkpt><trkpt lat="45.77592122552395" lon="10.758840789526044"><ele>341.0</ele><time>2026-05-01T11:28:43Z</time></trkpt><trkpt lat="45.7758744240442" lon="10.75892277288386"><ele>341.0</ele><time>2026-05-01T11:28:44Z</time></trkpt><trkpt lat="45.77586508820091" lon="10.75903647729512"><ele>341.0</ele><time>2026-05-01T11:28:45Z</time></trkpt><trkpt lat="45.77587500805326" lon="10.759143185166444"><ele>341.0</ele><time>2026-05-01T11:28:46Z</time></trkpt><trkpt lat="45.775862218487056" lon="10.759273600052573"><ele>344.0</ele><time>2026-05-01T11:28:47Z</time></trkpt><trkpt lat="45.77581663105753" lon="10.759401269842545"><ele>347.0</ele><time>2026-05-01T11:28:48Z</time></trkpt><trkpt lat="45.775750970659324" lon="10.759514539033601"><ele>350.0</ele><time>2026-05-01T11:28:49Z</time></trkpt><trkpt lat="45.77569890224518" lon="10.759650681165573"><ele>353.0</ele><time>2026-05-01T11:28:50Z</time></trkpt><trkpt lat="45.77564800906568" lon="10.759788048624426"><ele>356.0</ele><time>2026-05-01T11:28:51Z</time></trkpt><trkpt lat="45.77558706482895" lon="10.75993166981256"><ele>356.0</ele><time>2026-05-01T11:28:52Z</time></trkpt><trkpt lat="45.775518751130406" lon="10.760060307048187"><ele>356.0</ele><time>2026-05-01T11:28:53Z</time></trkpt><trkpt lat="45.77544871856846" lon="10.760179927424023"><ele>356.0</ele><time>2026-05-01T11:28:54Z</time></trkpt><trkpt lat="45.77537746092725" lon="10.760304549470282"><ele>356.0</ele><time>2026-05-01T11:28:55Z</time></trkpt><trkpt lat="45.77530150391624" lon="10.760429349973442"><ele>353.6666666666667</ele><time>2026-05-01T11:28:56Z</time></trkpt><trkpt lat="45.77523285752076" lon="10.7605397601644"><ele>351.33333333333337</ele><time>2026-05-01T11:28:57.001Z</time></trkpt><trkpt lat="45.7751789753234" lon="10.760630636164324"><ele>349.0</ele><time>2026-05-01T11:28:58.001Z</time></trkpt><trkpt lat="45.77511681332767" lon="10.760733765845483"><ele>346.6666666666667</ele><time>2026-05-01T11:28:59.001Z</time></trkpt><trkpt lat="45.775060150666825" lon="10.760831696285724"><ele>344.3333333333333</ele><time>2026-05-01T11:29:00.001Z</time></trkpt><trkpt lat="45.77500163379338" lon="10.76090809842604"><ele>342.0</ele><time>2026-05-01T11:29:01.001Z</time></trkpt><trkpt lat="45.77493754585596" lon="10.760968351764676"><ele>344.40000000000003</ele><time>2026-05-01T11:29:02.001Z</time></trkpt><trkpt lat="45.774859173133095" lon="10.76100829788403"><ele>346.8</ele><time>2026-05-01T11:29:03.001Z</time></trkpt><trkpt lat="45.77476615578478" lon="10.761027004475277"><ele>349.2</ele><time>2026-05-01T11:29:04.001Z</time></trkpt><trkpt lat="45.77466257605521" lon="10.761046723293962"><ele>351.6</ele><time>2026-05-01T11:29:05.001Z</time></trkpt><trkpt lat="45.77456883021861" lon="10.761070989117886"><ele>354.0</ele><time>2026-05-01T11:29:06.001Z</time></trkpt><trkpt lat="45.77446954957038" lon="10.761119491323713"><ele>354.0</ele><time>2026-05-01T11:29:07.001Z</time></trkpt><trkpt lat="45.77436628223744" lon="10.761202529627491"><ele>354.0</ele><time>2026-05-01T11:29:08.001Z</time></trkpt><trkpt lat="45.77426019028943" lon="10.761273385814913"><ele>354.0</ele><time>2026-05-01T11:29:09.001Z</time></trkpt><trkpt lat="45.77413842529183" lon="10.761304006565043"><ele>354.0</ele><time>2026-05-01T11:29:10.001Z</time></trkpt><trkpt lat="45.774014000930954" lon="10.761330245973967"><ele>356.6</ele><time>2026-05-01T11:29:11.001Z</time></trkpt><trkpt lat="45.773897218760084" lon="10.76138138724993"><ele>359.2</ele><time>2026-05-01T11:29:12.001Z</time></trkpt><trkpt lat="45.77379647716175" lon="10.761443795892463"><ele>361.8</ele><time>2026-05-01T11:29:13.001Z</time></trkpt><trkpt lat="45.77370263071011" lon="10.76150641477164"><ele>364.40000000000003</ele><time>2026-05-01T11:29:14.001Z</time></trkpt><trkpt lat="45.77360857866944" lon="10.761559878907555"><ele>367.0</ele><time>2026-05-01T11:29:15.001Z</time></trkpt><trkpt lat="45.77352053781242" lon="10.761581981040248"><ele>369.20000000000005</ele><time>2026-05-01T11:29:16.001Z</time></trkpt><trkpt lat="45.77343162296981" lon="10.761555298629645"><ele>371.4</ele><time>2026-05-01T11:29:17.001Z</time></trkpt><trkpt lat="45.77335383621987" lon="10.761478546545446"><ele>373.6</ele><time>2026-05-01T11:29:18.001Z</time></trkpt><trkpt lat="45.773272748124846" lon="10.761415135651223"><ele>375.79999999999995</ele><time>2026-05-01T11:29:19.001Z</time></trkpt><trkpt lat="45.77317615208114" lon="10.761360477601489"><ele>378.0</ele><time>2026-05-01T11:29:20.001Z</time></trkpt><trkpt lat="45.77307930065931" lon="10.761264644133957"><ele>378.0</ele><time>2026-05-01T11:29:21.001Z</time></trkpt><trkpt lat="45.772992996025955" lon="10.761166997572781"><ele>378.0</ele><time>2026-05-01T11:29:22.001Z</time></trkpt><trkpt lat="45.77290954290238" lon="10.761059311605319"><ele>378.0</ele><time>2026-05-01T11:29:23.001Z</time></trkpt><trkpt lat="45.772830560814604" lon="10.760958519844282"><ele>378.0</ele><time>2026-05-01T11:29:24.001Z</time></trkpt><trkpt lat="45.772764552208685" lon="10.760856768325057"><ele>378.0</ele><time>2026-05-01T11:29:25.001Z</time></trkpt><trkpt lat="45.772700818312536" lon="10.760774951724569"><ele>380.6666666666667</ele><time>2026-05-01T11:29:26.001Z</time></trkpt><trkpt lat="45.77262960129897" lon="10.76072670102028"><ele>383.33333333333337</ele><time>2026-05-01T11:29:27.001Z</time></trkpt><trkpt lat="45.7725571006335" lon="10.760708847059938"><ele>386.0</ele><time>2026-05-01T11:29:28.001Z</time></trkpt><trkpt lat="45.77248929421277" lon="10.760749642512"><ele>388.6666666666667</ele><time>2026-05-01T11:29:29.001Z</time></trkpt><trkpt lat="45.77241386326923" lon="10.760796916472495"><ele>391.33333333333337</ele><time>2026-05-01T11:29:30.001Z</time></trkpt><trkpt lat="45.77234714546092" lon="10.760883214043655"><ele>394.0</ele><time>2026-05-01T11:29:31.001Z</time></trkpt><trkpt lat="45.77229833768786" lon="10.760985794280646"><ele>392.79999999999995</ele><time>2026-05-01T11:29:32.001Z</time></trkpt><trkpt lat="45.77226096395615" lon="10.761104592840901"><ele>391.59999999999997</ele><time>2026-05-01T11:29:33.001Z</time></trkpt><trkpt lat="45.77222262480606" lon="10.76122904898451"><ele>390.4</ele><time>2026-05-01T11:29:34.001Z</time></trkpt><trkpt lat="45.77218677366611" lon="10.761365307723441"><ele>389.2</ele><time>2026-05-01T11:29:35.001Z</time></trkpt><trkpt lat="45.77217187254793" lon="10.761503234374667"><ele>388.0</ele><time>2026-05-01T11:29:36.001Z</time></trkpt><trkpt lat="45.772175624497926" lon="10.761639515724124"><ele>388.0</ele><time>2026-05-01T11:29:37.001Z</time></trkpt><trkpt lat="45.77220485995043" lon="10.761757346434807"><ele>388.0</ele><time>2026-05-01T11:29:38.001Z</time></trkpt><trkpt lat="45.772242280081066" lon="10.761853972428712"><ele>388.0</ele><time>2026-05-01T11:29:39.001Z</time></trkpt><trkpt lat="45.77225170476012" lon="10.761944958383223"><ele>388.0</ele><time>2026-05-01T11:29:40.001Z</time></trkpt><trkpt lat="45.772187819619454" lon="10.76206173844686"><ele>388.0</ele><time>2026-05-01T11:29:42.001Z</time></trkpt><trkpt lat="45.7720446957699" lon="10.761946765731205"><ele>388.00000000000006</ele><time>2026-05-01T11:29:45.001Z</time></trkpt><trkpt lat="45.772028621578826" lon="10.761845729883081"><ele>388.0</ele><time>2026-05-01T11:29:46.001Z</time></trkpt><trkpt lat="45.77208172753389" lon="10.761731310148596"><ele>388.0</ele><time>2026-05-01T11:29:47.001Z</time></trkpt><trkpt lat="45.77208692856366" lon="10.761603190146152"><ele>388.0</ele><time>2026-05-01T11:29:48.001Z</time></trkpt><trkpt lat="45.77211195739148" lon="10.761489250026358"><ele>388.00000000000006</ele><time>2026-05-01T11:29:49.001Z</time></trkpt><trkpt lat="45.77212708745015" lon="10.761387260063005"><ele>388.0</ele><time>2026-05-01T11:29:50.001Z</time></trkpt><trkpt lat="45.772141076552295" lon="10.761296750128823"><ele>388.0</ele><time>2026-05-01T11:29:51.001Z</time></trkpt><trkpt lat="45.772153751136855" lon="10.76114013717017"><ele>388.0</ele><time>2026-05-01T11:29:53.001Z</time></trkpt><trkpt lat="45.77213176202972" lon="10.760966339145655"><ele>388.0</ele><time>2026-05-01T11:29:55Z</time></trkpt><trkpt lat="45.7721020517004" lon="10.760879450225438"><ele>388.0</ele><time>2026-05-01T11:29:56Z</time></trkpt><trkpt lat="45.77205307327163" lon="10.760735477464905"><ele>388.0</ele><time>2026-05-01T11:29:58Z</time></trkpt><trkpt lat="45.772013910169576" lon="10.760627493732143"><ele>389.00000000000006</ele><time>2026-05-01T11:30:00Z</time></trkpt><trkpt lat="45.77198660534503" lon="10.760518128354802"><ele>390.0</ele><time>2026-05-01T11:30:03Z</time></trkpt><trkpt lat="45.77197415776872" lon="10.760421344193764"><ele>391.0</ele><time>2026-05-01T11:30:06Z</time></trkpt><trkpt lat="45.77199317627917" lon="10.760316975424875"><ele>392.0</ele><time>2026-05-01T11:30:11Z</time></trkpt><trkpt lat="45.77197777877321" lon="10.760193546475545"><ele>393.00000000000006</ele><time>2026-05-01T11:30:14Z</time></trkpt><trkpt lat="45.77190647669989" lon="10.760136123252446"><ele>394.0</ele><time>2026-05-01T11:30:16Z</time></trkpt><trkpt lat="45.77182336519382" lon="10.760117112384705"><ele>396.79999999999995</ele><time>2026-05-01T11:30:18Z</time></trkpt><trkpt lat="45.771720911482205" lon="10.760157434965269"><ele>399.59999999999997</ele><time>2026-05-01T11:30:20Z</time></trkpt><trkpt lat="45.771657543528555" lon="10.76021964087198"><ele>402.4</ele><time>2026-05-01T11:30:22Z</time></trkpt><trkpt lat="45.77157132507808" lon="10.760231336641361"><ele>405.2</ele><time>2026-05-01T11:30:25Z</time></trkpt><trkpt lat="45.77154641627752" lon="10.760078009257153"><ele>408.0</ele><time>2026-05-01T11:30:27Z</time></trkpt><trkpt lat="45.771534231457935" lon="10.75992460012667"><ele>408.3333333333333</ele><time>2026-05-01T11:30:29Z</time></trkpt><trkpt lat="45.77154829478588" lon="10.759744438957782"><ele>408.66666666666663</ele><time>2026-05-01T11:30:31.001Z</time></trkpt><trkpt lat="45.771564329509324" lon="10.759641957400802"><ele>409.0</ele><time>2026-05-01T11:30:32.001Z</time></trkpt><trkpt lat="45.771575621249305" lon="10.759528454572695"><ele>409.3333333333333</ele><time>2026-05-01T11:30:33.001Z</time></trkpt><trkpt lat="45.77156889608171" lon="10.759423588392652"><ele>409.66666666666663</ele><time>2026-05-01T11:30:34.001Z</time></trkpt><trkpt lat="45.77154210244253" lon="10.759337185496246"><ele>410.0</ele><time>2026-05-01T11:30:35.001Z</time></trkpt><trkpt lat="45.771506608421355" lon="10.759252352134148"><ele>412.0</ele><time>2026-05-01T11:30:36.001Z</time></trkpt><trkpt lat="45.77143937077012" lon="10.759143222414263"><ele>414.0</ele><time>2026-05-01T11:30:38.001Z</time></trkpt><trkpt lat="45.771358315893245" lon="10.75902959439721"><ele>416.0</ele><time>2026-05-01T11:30:40.001Z</time></trkpt><trkpt lat="45.771296992014726" lon="10.75899123531936"><ele>418.0</ele><time>2026-05-01T11:30:41.001Z</time></trkpt><trkpt lat="45.77122096727738" lon="10.758965022603883"><ele>420.0</ele><time>2026-05-01T11:30:42.001Z</time></trkpt><trkpt lat="45.771129608539134" lon="10.758954026670121"><ele>420.0</ele><time>2026-05-01T11:30:43.001Z</time></trkpt><trkpt lat="45.77104715894888" lon="10.7589599573058"><ele>420.0</ele><time>2026-05-01T11:30:44.001Z</time></trkpt><trkpt lat="45.770967725928024" lon="10.758972196341785"><ele>420.0</ele><time>2026-05-01T11:30:45.001Z</time></trkpt><trkpt lat="45.77088818985547" lon="10.759017429630275"><ele>420.0</ele><time>2026-05-01T11:30:46.001Z</time></trkpt><trkpt lat="45.77082131590244" lon="10.759023630918822"><ele>420.0</ele><time>2026-05-01T11:30:47.001Z</time></trkpt><trkpt lat="45.77075090138719" lon="10.75902278994265"><ele>420.0</ele><time>2026-05-01T11:30:48.001Z</time></trkpt><trkpt lat="45.770674539899495" lon="10.759003004059077"><ele>420.8333333333333</ele><time>2026-05-01T11:30:49.001Z</time></trkpt><trkpt lat="45.77059552557109" lon="10.75896522092019"><ele>421.66666666666663</ele><time>2026-05-01T11:30:50.001Z</time></trkpt><trkpt lat="45.77051715999126" lon="10.758899220074717"><ele>422.5</ele><time>2026-05-01T11:30:51.001Z</time></trkpt><trkpt lat="45.77045054654465" lon="10.758818843638252"><ele>423.3333333333333</ele><time>2026-05-01T11:30:52.001Z</time></trkpt><trkpt lat="45.77038288356648" lon="10.758764812266442"><ele>424.16666666666663</ele><time>2026-05-01T11:30:53.001Z</time></trkpt><trkpt lat="45.77029156159808" lon="10.758683792575713"><ele>425.0</ele><time>2026-05-01T11:30:55.001Z</time></trkpt><trkpt lat="45.770217782827494" lon="10.758625115642495"><ele>424.3333333333333</ele><time>2026-05-01T11:30:57.001Z</time></trkpt><trkpt lat="45.770127631815406" lon="10.758541845123366"><ele>423.66666666666663</ele><time>2026-05-01T11:30:59.001Z</time></trkpt><trkpt lat="45.77005990191861" lon="10.758495007561315"><ele>423.0</ele><time>2026-05-01T11:31:00.001Z</time></trkpt><trkpt lat="45.76999329512188" lon="10.758437357681325"><ele>422.33333333333337</ele><time>2026-05-01T11:31:01.001Z</time></trkpt><trkpt lat="45.76992113443217" lon="10.758371528397824"><ele>421.6666666666667</ele><time>2026-05-01T11:31:02.001Z</time></trkpt><trkpt lat="45.76984285765351" lon="10.75830854263587"><ele>421.0</ele><time>2026-05-01T11:31:03.001Z</time></trkpt><trkpt lat="45.769766879392286" lon="10.758245049887076"><ele>425.0</ele><time>2026-05-01T11:31:04.001Z</time></trkpt><trkpt lat="45.769703520005656" lon="10.758159487978022"><ele>429.0</ele><time>2026-05-01T11:31:05.001Z</time></trkpt><trkpt lat="45.76963493668783" lon="10.758096266070401"><ele>433.0</ele><time>2026-05-01T11:31:06.001Z</time></trkpt><trkpt lat="45.76957976558509" lon="10.758029734330737"><ele>437.0</ele><time>2026-05-01T11:31:07.001Z</time></trkpt><trkpt lat="45.769474629398836" lon="10.75793064853009"><ele>441.0</ele><time>2026-05-01T11:31:09.001Z</time></trkpt><trkpt lat="45.769381962383896" lon="10.757861966634074"><ele>441.0</ele><time>2026-05-01T11:31:11.001Z</time></trkpt><trkpt lat="45.76932079812868" lon="10.75780982779692"><ele>441.0</ele><time>2026-05-01T11:31:12.001Z</time></trkpt><trkpt lat="45.76925938535862" lon="10.757764059214503"><ele>441.0</ele><time>2026-05-01T11:31:13.001Z</time></trkpt><trkpt lat="45.76916974749515" lon="10.757688680270887"><ele>441.0</ele><time>2026-05-01T11:31:15.001Z</time></trkpt><trkpt lat="45.76909602788583" lon="10.75761905879384"><ele>441.0</ele><time>2026-05-01T11:31:17.001Z</time></trkpt><trkpt lat="45.769045848378155" lon="10.757564442182183"><ele>441.0</ele><time>2026-05-01T11:31:19.001Z</time></trkpt><trkpt lat="45.76898767128478" lon="10.757505896852548"><ele>441.0</ele><time>2026-05-01T11:31:22.001Z</time></trkpt><trkpt lat="45.76890126729355" lon="10.757611370543058"><ele>441.0</ele><time>2026-05-01T11:31:25.001Z</time></trkpt><trkpt lat="45.768850410942555" lon="10.757746498735491"><ele>441.0</ele><time>2026-05-01T11:31:27.001Z</time></trkpt><trkpt lat="45.76882019106959" lon="10.757825959068432"><ele>441.0</ele><time>2026-05-01T11:31:28.001Z</time></trkpt><trkpt lat="45.76876376048783" lon="10.757966942727277"><ele>441.0</ele><time>2026-05-01T11:31:30.001Z</time></trkpt><trkpt lat="45.76868846019605" lon="10.758103653011341"><ele>441.0</ele><time>2026-05-01T11:31:32.001Z</time></trkpt><trkpt lat="45.76862763197984" lon="10.758238316069706"><ele>441.0</ele><time>2026-05-01T11:31:34.001Z</time></trkpt><trkpt lat="45.76856352914164" lon="10.758366338615922"><ele>441.0</ele><time>2026-05-01T11:31:36.001Z</time></trkpt><trkpt lat="45.76851564043308" lon="10.758470118594923"><ele>441.0</ele><time>2026-05-01T11:31:38.001Z</time></trkpt><trkpt lat="45.76851925788855" lon="10.75856730351718"><ele>441.0</ele><time>2026-05-01T11:31:40.001Z</time></trkpt><trkpt lat="45.76851652484311" lon="10.758674353663753"><ele>438.0</ele><time>2026-05-01T11:31:58.001Z</time></trkpt><trkpt lat="45.76872749396451" lon="10.758736170141283"><ele>435.0</ele><time>2026-05-01T11:32:09.001Z</time></trkpt><trkpt lat="45.76867726600272" lon="10.758808415724035"><ele>432.0</ele><time>2026-05-01T11:32:13.001Z</time></trkpt><trkpt lat="45.76863644328079" lon="10.758895428756626"><ele>429.0</ele><time>2026-05-01T11:32:28.001Z</time></trkpt><trkpt lat="45.768678273561534" lon="10.75880626811839"><ele>426.0</ele><time>2026-05-01T11:32:52.001Z</time></trkpt><trkpt lat="45.76864145318714" lon="10.758884750379314"><ele>425.99999999999994</ele><time>2026-05-01T11:33:06.001Z</time></trkpt><trkpt lat="45.76861061731942" lon="10.758967642807994"><ele>426.0</ele><time>2026-05-01T11:36:50Z</time></trkpt><trkpt lat="45.768667432420386" lon="10.75892538170368"><ele>426.0</ele><time>2026-05-01T11:37:31.001Z</time></trkpt><trkpt lat="45.76860570041881" lon="10.758962713379207"><ele>426.0</ele><time>2026-05-01T11:38:57Z</time></trkpt><trkpt lat="45.768536701524354" lon="10.75892751342372"><ele>426.0</ele><time>2026-05-01T11:39:11Z</time></trkpt><trkpt lat="45.768599669383256" lon="10.758916621512439"><ele>425.99999999999994</ele><time>2026-05-01T11:40:57Z</time></trkpt><trkpt lat="45.76858099845951" lon="10.75901615419842"><ele>426.0</ele><time>2026-05-01T11:41:50.001Z</time></trkpt><trkpt lat="45.768565502840175" lon="10.75890028517044"><ele>425.99999999999994</ele><time>2026-05-01T11:41:56.001Z</time></trkpt><trkpt lat="45.76863744172399" lon="10.75894333591292"><ele>426.0</ele><time>2026-05-01T11:42:05.001Z</time></trkpt><trkpt lat="45.768699596319756" lon="10.758991102297074"><ele>426.0</ele><time>2026-05-01T11:42:13.001Z</time></trkpt><trkpt lat="45.76863050956677" lon="10.75902820015676"><ele>426.0</ele><time>2026-05-01T11:46:14.001Z</time></trkpt><trkpt lat="45.76868255353731" lon="10.758959582093093"><ele>426.0</ele><time>2026-05-01T11:46:19.001Z</time></trkpt><trkpt lat="45.76872679260638" lon="10.758880116558762"><ele>425.99999999999994</ele><time>2026-05-01T11:49:39Z</time></trkpt><trkpt lat="45.76873085674933" lon="10.758780120104934"><ele>426.0</ele><time>2026-05-01T11:49:44Z</time></trkpt><trkpt lat="45.76866333030083" lon="10.758734254423764"><ele>426.0</ele><time>2026-05-01T11:49:47Z</time></trkpt><trkpt lat="45.76858750268605" lon="10.758683928447761"><ele>426.0</ele><time>2026-05-01T11:49:49Z</time></trkpt><trkpt lat="45.76852823328042" lon="10.758634962973531"><ele>426.0</ele><time>2026-05-01T11:49:51Z</time></trkpt><trkpt lat="45.76853325971853" lon="10.758537220775889"><ele>426.0</ele><time>2026-05-01T11:49:53Z</time></trkpt><trkpt lat="45.768581847265764" lon="10.758434323999731"><ele>426.0</ele><time>2026-05-01T11:49:55Z</time></trkpt><trkpt lat="45.76863272660184" lon="10.758321315620947"><ele>426.0</ele><time>2026-05-01T11:49:57Z</time></trkpt><trkpt lat="45.7686804865233" lon="10.758196441120036"><ele>427.3333333333333</ele><time>2026-05-01T11:49:59Z</time></trkpt><trkpt lat="45.76871254584735" lon="10.758112419831702"><ele>428.66666666666663</ele><time>2026-05-01T11:50:00Z</time></trkpt><trkpt lat="45.768750637463455" lon="10.758022749324663"><ele>430.0</ele><time>2026-05-01T11:50:01Z</time></trkpt><trkpt lat="45.76878883208131" lon="10.757936049513356"><ele>431.3333333333333</ele><time>2026-05-01T11:50:02Z</time></trkpt><trkpt lat="45.7688228831875" lon="10.757859153977707"><ele>432.66666666666663</ele><time>2026-05-01T11:50:03Z</time></trkpt><trkpt lat="45.768876673464305" lon="10.757720997794808"><ele>434.0</ele><time>2026-05-01T11:50:05Z</time></trkpt><trkpt lat="45.768919699863325" lon="10.757614054372404"><ele>434.0</ele><time>2026-05-01T11:50:07Z</time></trkpt><trkpt lat="45.76896536788903" lon="10.757545653507949"><ele>434.0</ele><time>2026-05-01T11:50:10Z</time></trkpt><trkpt lat="45.769084349824176" lon="10.757660518937554"><ele>434.0</ele><time>2026-05-01T11:50:12Z</time></trkpt><trkpt lat="45.76918521687733" lon="10.757754745214395"><ele>434.0</ele><time>2026-05-01T11:50:14Z</time></trkpt><trkpt lat="45.769249712501136" lon="10.75780877121429"><ele>434.0</ele><time>2026-05-01T11:50:15Z</time></trkpt><trkpt lat="45.769319450246726" lon="10.757857781295076"><ele>435.16666666666663</ele><time>2026-05-01T11:50:16Z</time></trkpt><trkpt lat="45.76939023346512" lon="10.757913778195032"><ele>436.3333333333333</ele><time>2026-05-01T11:50:17Z</time></trkpt><trkpt lat="45.76946689257414" lon="10.757974730275734"><ele>437.5</ele><time>2026-05-01T11:50:18Z</time></trkpt><trkpt lat="45.76953855739044" lon="10.75804572254233"><ele>438.66666666666663</ele><time>2026-05-01T11:50:19Z</time></trkpt><trkpt lat="45.769610916379015" lon="10.758126203036669"><ele>439.8333333333333</ele><time>2026-05-01T11:50:20Z</time></trkpt><trkpt lat="45.76967549645801" lon="10.758203433725592"><ele>441.0</ele><time>2026-05-01T11:50:21Z</time></trkpt><trkpt lat="45.76973719981052" lon="10.758270692302116"><ele>441.0</ele><time>2026-05-01T11:50:22Z</time></trkpt><trkpt lat="45.76980504865728" lon="10.758337599663909"><ele>441.0</ele><time>2026-05-01T11:50:23Z</time></trkpt><trkpt lat="45.769876327902814" lon="10.758398920282401"><ele>441.0</ele><time>2026-05-01T11:50:24Z</time></trkpt><trkpt lat="45.76994225284398" lon="10.758452460318878"><ele>441.0</ele><time>2026-05-01T11:50:25Z</time></trkpt><trkpt lat="45.77001964336507" lon="10.758509679495683"><ele>441.0</ele><time>2026-05-01T11:50:26Z</time></trkpt><trkpt lat="45.77008484429641" lon="10.75857200002284"><ele>441.0</ele><time>2026-05-01T11:50:27Z</time></trkpt><trkpt lat="45.77015895932677" lon="10.75862392240593"><ele>438.3333333333333</ele><time>2026-05-01T11:50:28Z</time></trkpt><trkpt lat="45.77022273694258" lon="10.758677379304782"><ele>435.66666666666663</ele><time>2026-05-01T11:50:29Z</time></trkpt><trkpt lat="45.77028532817747" lon="10.75872176272635"><ele>433.0</ele><time>2026-05-01T11:50:30Z</time></trkpt><trkpt lat="45.770344460654734" lon="10.758766261143643"><ele>430.3333333333333</ele><time>2026-05-01T11:50:31Z</time></trkpt><trkpt lat="45.77040659854827" lon="10.758816378833052"><ele>427.66666666666663</ele><time>2026-05-01T11:50:32Z</time></trkpt><trkpt lat="45.77051013775316" lon="10.758911010239412"><ele>425.0</ele><time>2026-05-01T11:50:34Z</time></trkpt><trkpt lat="45.770607278308916" lon="10.75899147831956"><ele>425.0</ele><time>2026-05-01T11:50:36Z</time></trkpt><trkpt lat="45.77070651999145" lon="10.75903954664292"><ele>425.0</ele><time>2026-05-01T11:50:38Z</time></trkpt><trkpt lat="45.77079690649168" lon="10.759050128919677"><ele>425.0</ele><time>2026-05-01T11:50:40Z</time></trkpt><trkpt lat="45.77090227209677" lon="10.759043328548268"><ele>425.0</ele><time>2026-05-01T11:50:42Z</time></trkpt><trkpt lat="45.77100364368944" lon="10.7590274635151"><ele>425.0</ele><time>2026-05-01T11:50:44Z</time></trkpt><trkpt lat="45.771105933038164" lon="10.759014125669362"><ele>424.0</ele><time>2026-05-01T11:50:46Z</time></trkpt><trkpt lat="45.77118958964195" lon="10.759013426784952"><ele>423.0</ele><time>2026-05-01T11:50:48Z</time></trkpt><trkpt lat="45.77128265730384" lon="10.759046440839933"><ele>422.0</ele><time>2026-05-01T11:50:50Z</time></trkpt><trkpt lat="45.7713718608384" lon="10.759136124739012"><ele>421.0</ele><time>2026-05-01T11:50:52Z</time></trkpt><trkpt lat="45.771450598506036" lon="10.75928100207383"><ele>420.0</ele><time>2026-05-01T11:50:53.999Z</time></trkpt><trkpt lat="45.7715111201255" lon="10.759431810470405"><ele>418.3333333333333</ele><time>2026-05-01T11:50:55.999Z</time></trkpt><trkpt lat="45.77151625906991" lon="10.759525652811776"><ele>416.66666666666663</ele><time>2026-05-01T11:50:56.999Z</time></trkpt><trkpt lat="45.77151198187868" lon="10.759617151500464"><ele>415.0</ele><time>2026-05-01T11:50:57.999Z</time></trkpt><trkpt lat="45.771502110362334" lon="10.759707749290794"><ele>413.3333333333333</ele><time>2026-05-01T11:50:58.999Z</time></trkpt><trkpt lat="45.771493407303126" lon="10.75988522048639"><ele>411.66666666666663</ele><time>2026-05-01T11:51:00.999Z</time></trkpt><trkpt lat="45.77150472616727" lon="10.760059507342438"><ele>410.0</ele><time>2026-05-01T11:51:02.999Z</time></trkpt><trkpt lat="45.771522603061456" lon="10.760208727193113"><ele>409.99999999999994</ele><time>2026-05-01T11:51:04.999Z</time></trkpt><trkpt lat="45.77158168179158" lon="10.760288944210282"><ele>410.0</ele><time>2026-05-01T11:51:06.999Z</time></trkpt><trkpt lat="45.77166749031464" lon="10.76027097346072"><ele>410.0</ele><time>2026-05-01T11:51:08.999Z</time></trkpt><trkpt lat="45.77173966203487" lon="10.760196791773474"><ele>410.0</ele><time>2026-05-01T11:51:10.999Z</time></trkpt><trkpt lat="45.77179669787566" lon="10.76012920799477"><ele>409.99999999999994</ele><time>2026-05-01T11:51:12.999Z</time></trkpt><trkpt lat="45.77185751057193" lon="10.760176248588838"><ele>410.0</ele><time>2026-05-01T11:51:14.999Z</time></trkpt><trkpt lat="45.7718892580299" lon="10.760281617387324"><ele>408.75</ele><time>2026-05-01T11:51:17Z</time></trkpt><trkpt lat="45.77202433729973" lon="10.760226479083407"><ele>407.5</ele><time>2026-05-01T11:51:21Z</time></trkpt><trkpt lat="45.772121501794686" lon="10.760173298925336"><ele>406.25</ele><time>2026-05-01T11:51:23Z</time></trkpt><trkpt lat="45.77225814051903" lon="10.760124365112462"><ele>405.0</ele><time>2026-05-01T11:51:25Z</time></trkpt><trkpt lat="45.77234911371273" lon="10.760092613873722"><ele>405.0</ele><time>2026-05-01T11:51:26Z</time></trkpt><trkpt lat="45.77243821241911" lon="10.760059860032369"><ele>405.0</ele><time>2026-05-01T11:51:27Z</time></trkpt><trkpt lat="45.772519242018916" lon="10.76002893610287"><ele>405.0</ele><time>2026-05-01T11:51:28Z</time></trkpt><trkpt lat="45.77260015405545" lon="10.759985068256636"><ele>405.0</ele><time>2026-05-01T11:51:29Z</time></trkpt><trkpt lat="45.77268307297677" lon="10.759949342449092"><ele>405.0</ele><time>2026-05-01T11:51:30Z</time></trkpt><trkpt lat="45.77276128005295" lon="10.759921936866759"><ele>405.0</ele><time>2026-05-01T11:51:31Z</time></trkpt><trkpt lat="45.77283737461178" lon="10.759907906679594"><ele>405.3333333333333</ele><time>2026-05-01T11:51:32Z</time></trkpt><trkpt lat="45.77292382165802" lon="10.759882180711339"><ele>405.66666666666663</ele><time>2026-05-01T11:51:33Z</time></trkpt><trkpt lat="45.77300231115857" lon="10.759850836200858"><ele>406.0</ele><time>2026-05-01T11:51:34Z</time></trkpt><trkpt lat="45.773093063035006" lon="10.759822293016128"><ele>406.3333333333333</ele><time>2026-05-01T11:51:35Z</time></trkpt><trkpt lat="45.77317066387242" lon="10.759772764985037"><ele>406.66666666666663</ele><time>2026-05-01T11:51:36Z</time></trkpt><trkpt lat="45.77324516370018" lon="10.759709601489336"><ele>407.0</ele><time>2026-05-01T11:51:37Z</time></trkpt><trkpt lat="45.773317313989004" lon="10.75963943862473"><ele>407.0</ele><time>2026-05-01T11:51:38Z</time></trkpt><trkpt lat="45.7733947487047" lon="10.759591848071814"><ele>407.0</ele><time>2026-05-01T11:51:39Z</time></trkpt><trkpt lat="45.77346563407135" lon="10.759516409947853"><ele>407.0</ele><time>2026-05-01T11:51:40Z</time></trkpt><trkpt lat="45.773539006181956" lon="10.759433471137577"><ele>407.0</ele><time>2026-05-01T11:51:41Z</time></trkpt><trkpt lat="45.77360167401439" lon="10.75933432763408"><ele>407.0</ele><time>2026-05-01T11:51:42Z</time></trkpt><trkpt lat="45.773677824785224" lon="10.759250410130075"><ele>405.40000000000003</ele><time>2026-05-01T11:51:43Z</time></trkpt><trkpt lat="45.773752224172284" lon="10.759158720631724"><ele>403.8</ele><time>2026-05-01T11:51:44Z</time></trkpt><trkpt lat="45.773817205174" lon="10.759073406661583"><ele>402.2</ele><time>2026-05-01T11:51:45Z</time></trkpt><trkpt lat="45.7738806394969" lon="10.758991039581362"><ele>400.6</ele><time>2026-05-01T11:51:46Z</time></trkpt><trkpt lat="45.77394428427353" lon="10.758901033555958"><ele>399.0</ele><time>2026-05-01T11:51:47Z</time></trkpt><trkpt lat="45.77401093175584" lon="10.75880263696226"><ele>399.0</ele><time>2026-05-01T11:51:48Z</time></trkpt><trkpt lat="45.77407589269648" lon="10.758688203960228"><ele>399.0</ele><time>2026-05-01T11:51:49Z</time></trkpt><trkpt lat="45.77413018820183" lon="10.758560207360942"><ele>399.0</ele><time>2026-05-01T11:51:50Z</time></trkpt><trkpt lat="45.77418047977833" lon="10.758426781648469"><ele>399.0</ele><time>2026-05-01T11:51:51Z</time></trkpt><trkpt lat="45.7742278728783" lon="10.758290670428272"><ele>399.0</ele><time>2026-05-01T11:51:52Z</time></trkpt><trkpt lat="45.77427647288441" lon="10.758159149104484"><ele>400.2</ele><time>2026-05-01T11:51:53Z</time></trkpt><trkpt lat="45.77433308103915" lon="10.758030225115462"><ele>401.4</ele><time>2026-05-01T11:51:54Z</time></trkpt><trkpt lat="45.77439822807662" lon="10.757906971617489"><ele>402.6</ele><time>2026-05-01T11:51:55Z</time></trkpt><trkpt lat="45.774468111479266" lon="10.75779676503188"><ele>403.8</ele><time>2026-05-01T11:51:56Z</time></trkpt><trkpt lat="45.77453868068173" lon="10.757689791736464"><ele>405.0</ele><time>2026-05-01T11:51:57Z</time></trkpt><trkpt lat="45.774608602949016" lon="10.757584827209378"><ele>405.0</ele><time>2026-05-01T11:51:58Z</time></trkpt><trkpt lat="45.77467487498442" lon="10.757480477181812"><ele>405.0</ele><time>2026-05-01T11:51:59Z</time></trkpt><trkpt lat="45.774739044357624" lon="10.757375560669525"><ele>405.0</ele><time>2026-05-01T11:52:00Z</time></trkpt><trkpt lat="45.77480462131341" lon="10.757270990508934"><ele>405.0</ele><time>2026-05-01T11:52:01Z</time></trkpt><trkpt lat="45.77486653496283" lon="10.757159188349634"><ele>405.0</ele><time>2026-05-01T11:52:02Z</time></trkpt><trkpt lat="45.774921183104716" lon="10.757035692887712"><ele>405.0</ele><time>2026-05-01T11:52:03Z</time></trkpt><trkpt lat="45.7749660730011" lon="10.756899933054598"><ele>405.0</ele><time>2026-05-01T11:52:04Z</time></trkpt><trkpt lat="45.77498765472518" lon="10.756754619835682"><ele>405.0</ele><time>2026-05-01T11:52:05Z</time></trkpt><trkpt lat="45.774995927117324" lon="10.756606852119825"><ele>405.0</ele><time>2026-05-01T11:52:06Z</time></trkpt><trkpt lat="45.774989055513004" lon="10.75646066662334"><ele>405.0</ele><time>2026-05-01T11:52:07Z</time></trkpt><trkpt lat="45.77497145403197" lon="10.75632039574682"><ele>407.0</ele><time>2026-05-01T11:52:08Z</time></trkpt><trkpt lat="45.77497595541557" lon="10.756187538498192"><ele>409.0</ele><time>2026-05-01T11:52:09Z</time></trkpt><trkpt lat="45.77498411161995" lon="10.756064734651986"><ele>411.0</ele><time>2026-05-01T11:52:10Z</time></trkpt><trkpt lat="45.775050216399144" lon="10.755979564082827"><ele>413.0</ele><time>2026-05-01T11:52:11Z</time></trkpt><trkpt lat="45.7751486672118" lon="10.755956288890529"><ele>415.0</ele><time>2026-05-01T11:52:12Z</time></trkpt><trkpt lat="45.77522091972745" lon="10.75588157748185"><ele>415.0</ele><time>2026-05-01T11:52:13Z</time></trkpt><trkpt lat="45.77528293495185" lon="10.755787771608459"><ele>415.0</ele><time>2026-05-01T11:52:14Z</time></trkpt><trkpt lat="45.775318219453105" lon="10.755659237727114"><ele>415.0</ele><time>2026-05-01T11:52:15Z</time></trkpt><trkpt lat="45.77536059588194" lon="10.755538842719682"><ele>415.0</ele><time>2026-05-01T11:52:16Z</time></trkpt><trkpt lat="45.77535219050954" lon="10.755384707318697"><ele>415.0</ele><time>2026-05-01T11:52:17Z</time></trkpt><trkpt lat="45.775333876987574" lon="10.755238768171006"><ele>417.6</ele><time>2026-05-01T11:52:18Z</time></trkpt><trkpt lat="45.77532723690691" lon="10.755099061928068"><ele>420.2</ele><time>2026-05-01T11:52:19Z</time></trkpt><trkpt lat="45.775378929030836" lon="10.755011267637533"><ele>422.79999999999995</ele><time>2026-05-01T11:52:20Z</time></trkpt><trkpt lat="45.77551718310924" lon="10.754962074791147"><ele>425.4</ele><time>2026-05-01T11:52:22Z</time></trkpt><trkpt lat="45.775621181103396" lon="10.755004428927167"><ele>428.0</ele><time>2026-05-01T11:52:23Z</time></trkpt><trkpt lat="45.77572472934442" lon="10.755048212246622"><ele>428.0</ele><time>2026-05-01T11:52:24Z</time></trkpt><trkpt lat="45.77582842188293" lon="10.755072634894297"><ele>427.99999999999994</ele><time>2026-05-01T11:52:25Z</time></trkpt><trkpt lat="45.77594642252338" lon="10.75506166223519"><ele>427.99999999999994</ele><time>2026-05-01T11:52:26Z</time></trkpt><trkpt lat="45.776047617978726" lon="10.755013714296597"><ele>428.0</ele><time>2026-05-01T11:52:27Z</time></trkpt><trkpt lat="45.77612814120343" lon="10.754926938578707"><ele>428.0</ele><time>2026-05-01T11:52:28Z</time></trkpt><trkpt lat="45.776197087268834" lon="10.754798919544063"><ele>427.2</ele><time>2026-05-01T11:52:29Z</time></trkpt><trkpt lat="45.77624706612417" lon="10.754645191236"><ele>426.4</ele><time>2026-05-01T11:52:30Z</time></trkpt><trkpt lat="45.77632682354613" lon="10.754531321891347"><ele>425.59999999999997</ele><time>2026-05-01T11:52:31Z</time></trkpt><trkpt lat="45.77639349450197" lon="10.754414742688967"><ele>424.79999999999995</ele><time>2026-05-01T11:52:32Z</time></trkpt><trkpt lat="45.77644626057079" lon="10.754300928462815"><ele>424.0</ele><time>2026-05-01T11:52:33Z</time></trkpt><trkpt lat="45.77649067229861" lon="10.754173445496622"><ele>424.0</ele><time>2026-05-01T11:52:34Z</time></trkpt><trkpt lat="45.77650088886283" lon="10.7540169460344"><ele>424.0</ele><time>2026-05-01T11:52:35Z</time></trkpt><trkpt lat="45.77646890785119" lon="10.753845736029056"><ele>424.0</ele><time>2026-05-01T11:52:36Z</time></trkpt><trkpt lat="45.776457269227365" lon="10.753664335736412"><ele>424.0</ele><time>2026-05-01T11:52:37Z</time></trkpt><trkpt lat="45.776460076696736" lon="10.75348106752696"><ele>425.25</ele><time>2026-05-01T11:52:38Z</time></trkpt><trkpt lat="45.77647745923092" lon="10.753299647138613"><ele>426.5</ele><time>2026-05-01T11:52:39Z</time></trkpt><trkpt lat="45.776520325253124" lon="10.753136846875245"><ele>427.75</ele><time>2026-05-01T11:52:40Z</time></trkpt><trkpt lat="45.776584907943125" lon="10.752988237888369"><ele>429.0</ele><time>2026-05-01T11:52:41Z</time></trkpt><trkpt lat="45.776648633270376" lon="10.75281699404161"><ele>432.5</ele><time>2026-05-01T11:52:42Z</time></trkpt><trkpt lat="45.776745252696635" lon="10.752674050580305"><ele>436.0</ele><time>2026-05-01T11:52:43Z</time></trkpt><trkpt lat="45.7768293725448" lon="10.752531200900059"><ele>439.5</ele><time>2026-05-01T11:52:44Z</time></trkpt><trkpt lat="45.77691488098987" lon="10.752416099716744"><ele>443.0</ele><time>2026-05-01T11:52:45Z</time></trkpt><trkpt lat="45.77700058141583" lon="10.75233733403376"><ele>443.66666666666663</ele><time>2026-05-01T11:52:46Z</time></trkpt><trkpt lat="45.777084493179366" lon="10.752279536912141"><ele>444.3333333333333</ele><time>2026-05-01T11:52:47Z</time></trkpt><trkpt lat="45.777166165359574" lon="10.752234568170646"><ele>445.0</ele><time>2026-05-01T11:52:48Z</time></trkpt><trkpt lat="45.77724443498129" lon="10.752282607897902"><ele>445.66666666666663</ele><time>2026-05-01T11:52:49Z</time></trkpt><trkpt lat="45.77732185348448" lon="10.752309528222805"><ele>446.3333333333333</ele><time>2026-05-01T11:52:50Z</time></trkpt><trkpt lat="45.77738259332386" lon="10.752393783987843"><ele>447.0</ele><time>2026-05-01T11:52:51Z</time></trkpt><trkpt lat="45.77739702292121" lon="10.752517084784309"><ele>447.0</ele><time>2026-05-01T11:52:52Z</time></trkpt><trkpt lat="45.77736416461009" lon="10.752650572535568"><ele>447.00000000000006</ele><time>2026-05-01T11:52:53Z</time></trkpt><trkpt lat="45.777369300487" lon="10.752777500417212"><ele>447.00000000000006</ele><time>2026-05-01T11:52:54Z</time></trkpt><trkpt lat="45.77739787086328" lon="10.752913174349095"><ele>447.0</ele><time>2026-05-01T11:52:55Z</time></trkpt><trkpt lat="45.77746032448875" lon="10.753058213885398"><ele>447.0</ele><time>2026-05-01T11:52:56Z</time></trkpt><trkpt lat="45.77753081297976" lon="10.75318775262064"><ele>446.25</ele><time>2026-05-01T11:52:57Z</time></trkpt><trkpt lat="45.77760905184424" lon="10.753307200248086"><ele>445.5</ele><time>2026-05-01T11:52:58Z</time></trkpt><trkpt lat="45.777699531016665" lon="10.753396566204835"><ele>444.75</ele><time>2026-05-01T11:52:59Z</time></trkpt><trkpt lat="45.777803535100496" lon="10.753436278236958"><ele>444.0</ele><time>2026-05-01T11:52:59.998Z</time></trkpt><trkpt lat="45.777927322523055" lon="10.753429614514852"><ele>444.0</ele><time>2026-05-01T11:53:00.998Z</time></trkpt><trkpt lat="45.77806508981746" lon="10.753403855233916"><ele>444.0</ele><time>2026-05-01T11:53:01.998Z</time></trkpt><trkpt lat="45.77820383583251" lon="10.753407999236991"><ele>444.0</ele><time>2026-05-01T11:53:02.998Z</time></trkpt><trkpt lat="45.77834202881015" lon="10.753402508942395"><ele>444.0</ele><time>2026-05-01T11:53:03.998Z</time></trkpt><trkpt lat="45.77847863648798" lon="10.753409530102983"><ele>445.0</ele><time>2026-05-01T11:53:04.998Z</time></trkpt><trkpt lat="45.77861243202742" lon="10.753415546131393"><ele>446.0</ele><time>2026-05-01T11:53:05.998Z</time></trkpt><trkpt lat="45.77873497878393" lon="10.753434578058503"><ele>447.0</ele><time>2026-05-01T11:53:06.998Z</time></trkpt><trkpt lat="45.77885741215328" lon="10.753463993218594"><ele>448.0</ele><time>2026-05-01T11:53:07.998Z</time></trkpt><trkpt lat="45.77898164308812" lon="10.753518335977597"><ele>447.25</ele><time>2026-05-01T11:53:08.998Z</time></trkpt><trkpt lat="45.77909842203026" lon="10.753594837996108"><ele>446.5</ele><time>2026-05-01T11:53:09.999Z</time></trkpt><trkpt lat="45.77922086704026" lon="10.753680812704948"><ele>445.75</ele><time>2026-05-01T11:53:10.999Z</time></trkpt><trkpt lat="45.77931708429169" lon="10.753799930255424"><ele>445.0</ele><time>2026-05-01T11:53:11.999Z</time></trkpt><trkpt lat="45.77940794493036" lon="10.753936667575319"><ele>445.0</ele><time>2026-05-01T11:53:12.999Z</time></trkpt><trkpt lat="45.77948110094482" lon="10.754088045517218"><ele>445.0</ele><time>2026-05-01T11:53:13.999Z</time></trkpt><trkpt lat="45.779549138746006" lon="10.754226419209946"><ele>445.0</ele><time>2026-05-01T11:53:14.999Z</time></trkpt><trkpt lat="45.77960944278929" lon="10.75434087897855"><ele>445.0</ele><time>2026-05-01T11:53:15.999Z</time></trkpt><trkpt lat="45.77967678705626" lon="10.754431785382367"><ele>445.0</ele><time>2026-05-01T11:53:16.999Z</time></trkpt><trkpt lat="45.779759594924684" lon="10.754482367504043"><ele>443.1666666666667</ele><time>2026-05-01T11:53:17.999Z</time></trkpt><trkpt lat="45.779854727208836" lon="10.754485183894438"><ele>441.33333333333337</ele><time>2026-05-01T11:53:18.999Z</time></trkpt><trkpt lat="45.7799483982241" lon="10.754477492956582"><ele>439.5</ele><time>2026-05-01T11:53:19.999Z</time></trkpt><trkpt lat="45.780024050991926" lon="10.75448598445022"><ele>437.66666666666663</ele><time>2026-05-01T11:53:20.999Z</time></trkpt><trkpt lat="45.78010672854939" lon="10.754503717906907"><ele>435.8333333333333</ele><time>2026-05-01T11:53:21.999Z</time></trkpt><trkpt lat="45.780203177208655" lon="10.75452978063947"><ele>434.0</ele><time>2026-05-01T11:53:22.999Z</time></trkpt><trkpt lat="45.78030613799013" lon="10.75454300875631"><ele>432.49999999999994</ele><time>2026-05-01T11:53:23.999Z</time></trkpt><trkpt lat="45.780407521683856" lon="10.754525135895049"><ele>431.0</ele><time>2026-05-01T11:53:24.999Z</time></trkpt><trkpt lat="45.78050340569783" lon="10.754486648335673"><ele>429.5</ele><time>2026-05-01T11:53:25.999Z</time></trkpt><trkpt lat="45.78058650635942" lon="10.754448051986909"><ele>428.0</ele><time>2026-05-01T11:53:26.999Z</time></trkpt><trkpt lat="45.780664378606005" lon="10.754412373295956"><ele>426.49999999999994</ele><time>2026-05-01T11:53:27.999Z</time></trkpt><trkpt lat="45.78073337951179" lon="10.754380864807228"><ele>425.0</ele><time>2026-05-01T11:53:28.999Z</time></trkpt><trkpt lat="45.780795102698626" lon="10.754350964159073"><ele>425.4</ele><time>2026-05-01T11:53:29.999Z</time></trkpt><trkpt lat="45.78090919824659" lon="10.754292675440023"><ele>425.8</ele><time>2026-05-01T11:53:31.999Z</time></trkpt><trkpt lat="45.78097325705916" lon="10.754245146495307"><ele>426.20000000000005</ele><time>2026-05-01T11:53:32.999Z</time></trkpt><trkpt lat="45.781039255435495" lon="10.754208513457185"><ele>426.6</ele><time>2026-05-01T11:53:33.999Z</time></trkpt><trkpt lat="45.78111014899324" lon="10.754140267269527"><ele>427.0</ele><time>2026-05-01T11:53:34.999Z</time></trkpt><trkpt lat="45.781197117256426" lon="10.754049387148127"><ele>427.0</ele><time>2026-05-01T11:53:35.999Z</time></trkpt><trkpt lat="45.78127573270321" lon="10.753961507324455"><ele>427.00000000000006</ele><time>2026-05-01T11:53:36.999Z</time></trkpt><trkpt lat="45.78134959804555" lon="10.753875692420888"><ele>427.00000000000006</ele><time>2026-05-01T11:53:37.999Z</time></trkpt><trkpt lat="45.78140919391907" lon="10.753803131822277"><ele>427.0</ele><time>2026-05-01T11:53:38.999Z</time></trkpt><trkpt lat="45.781472756972725" lon="10.753714474236643"><ele>427.0</ele><time>2026-05-01T11:53:39.999Z</time></trkpt><trkpt lat="45.78153896178879" lon="10.753594316907611"><ele>422.6</ele><time>2026-05-01T11:53:40.999Z</time></trkpt><trkpt lat="45.78161120378541" lon="10.753470924634344"><ele>418.20000000000005</ele><time>2026-05-01T11:53:41.999Z</time></trkpt><trkpt lat="45.78169217272986" lon="10.753357361735453"><ele>413.8</ele><time>2026-05-01T11:53:43Z</time></trkpt><trkpt lat="45.78175705936519" lon="10.753246224800774"><ele>409.4</ele><time>2026-05-01T11:53:44Z</time></trkpt><trkpt lat="45.78181366472723" lon="10.753123997229622"><ele>405.0</ele><time>2026-05-01T11:53:45Z</time></trkpt><trkpt lat="45.78186073677335" lon="10.752990111681912"><ele>405.0</ele><time>2026-05-01T11:53:46Z</time></trkpt><trkpt lat="45.781907823578365" lon="10.752856851241123"><ele>405.0</ele><time>2026-05-01T11:53:47Z</time></trkpt><trkpt lat="45.78194809880921" lon="10.752676952769932"><ele>405.0</ele><time>2026-05-01T11:53:48Z</time></trkpt><trkpt lat="45.781982914507005" lon="10.752446212431154"><ele>405.0</ele><time>2026-05-01T11:53:49Z</time></trkpt><trkpt lat="45.78203407027471" lon="10.752187315508191"><ele>412.75</ele><time>2026-05-01T11:53:50Z</time></trkpt><trkpt lat="45.7821006922665" lon="10.751980585947635"><ele>420.5</ele><time>2026-05-01T11:53:51Z</time></trkpt><trkpt lat="45.78213752694112" lon="10.751798668689084"><ele>428.25</ele><time>2026-05-01T11:53:52Z</time></trkpt><trkpt lat="45.78216974378278" lon="10.75165611874801"><ele>436.0</ele><time>2026-05-01T11:53:53Z</time></trkpt><trkpt lat="45.782226477264075" lon="10.751572230241354"><ele>441.4</ele><time>2026-05-01T11:53:54Z</time></trkpt><trkpt lat="45.78233457576024" lon="10.751590873572603"><ele>446.8</ele><time>2026-05-01T11:53:55Z</time></trkpt><trkpt lat="45.7824261405488" lon="10.751541959536263"><ele>452.19999999999993</ele><time>2026-05-01T11:53:56Z</time></trkpt><trkpt lat="45.78251797303439" lon="10.751517495115774"><ele>457.59999999999997</ele><time>2026-05-01T11:53:57Z</time></trkpt><trkpt lat="45.7825920016548" lon="10.751477961097532"><ele>463.0</ele><time>2026-05-01T11:53:58Z</time></trkpt><trkpt lat="45.782651106772136" lon="10.751420611285"><ele>456.59999999999997</ele><time>2026-05-01T11:53:59Z</time></trkpt><trkpt lat="45.782706564072456" lon="10.751299999451923"><ele>450.19999999999993</ele><time>2026-05-01T11:54:00Z</time></trkpt><trkpt lat="45.78273866183092" lon="10.751163993017425"><ele>443.8</ele><time>2026-05-01T11:54:01Z</time></trkpt><trkpt lat="45.78278136133675" lon="10.751041653930725"><ele>437.4</ele><time>2026-05-01T11:54:02Z</time></trkpt><trkpt lat="45.78280764154649" lon="10.75091130593288"><ele>431.0</ele><time>2026-05-01T11:54:03Z</time></trkpt><trkpt lat="45.782806652040485" lon="10.750779689136296"><ele>431.0</ele><time>2026-05-01T11:54:04Z</time></trkpt><trkpt lat="45.78276718639955" lon="10.750656725143147"><ele>431.0</ele><time>2026-05-01T11:54:05Z</time></trkpt><trkpt lat="45.782723064443374" lon="10.750532049401436"><ele>431.0</ele><time>2026-05-01T11:54:06Z</time></trkpt><trkpt lat="45.78267248847562" lon="10.750408235461883"><ele>431.0</ele><time>2026-05-01T11:54:07Z</time></trkpt><trkpt lat="45.782611583694404" lon="10.750262947907412"><ele>431.0</ele><time>2026-05-01T11:54:08Z</time></trkpt><trkpt lat="45.78257229610802" lon="10.7501047852306"><ele>444.0</ele><time>2026-05-01T11:54:09Z</time></trkpt><trkpt lat="45.78257841058498" lon="10.7499260413708"><ele>457.0</ele><time>2026-05-01T11:54:10Z</time></trkpt><trkpt lat="45.7825641119296" lon="10.749753393333219"><ele>470.0</ele><time>2026-05-01T11:54:11Z</time></trkpt><trkpt lat="45.782562287426884" lon="10.749586394145478"><ele>483.0</ele><time>2026-05-01T11:54:12Z</time></trkpt><trkpt lat="45.78253487238049" lon="10.749432251547114"><ele>481.25</ele><time>2026-05-01T11:54:13Z</time></trkpt><trkpt lat="45.78248347473413" lon="10.749281787760701"><ele>479.5</ele><time>2026-05-01T11:54:14Z</time></trkpt><trkpt lat="45.78241249684198" lon="10.74915283903099"><ele>477.75</ele><time>2026-05-01T11:54:15Z</time></trkpt><trkpt lat="45.78234454151508" lon="10.749016245953836"><ele>476.0</ele><time>2026-05-01T11:54:16Z</time></trkpt><trkpt lat="45.78229817427745" lon="10.748854701254366"><ele>476.0</ele><time>2026-05-01T11:54:17Z</time></trkpt><trkpt lat="45.782250828735194" lon="10.748715544791347"><ele>476.0</ele><time>2026-05-01T11:54:18Z</time></trkpt><trkpt lat="45.78225881069843" lon="10.748597088608614"><ele>476.0</ele><time>2026-05-01T11:54:19Z</time></trkpt><trkpt lat="45.78229204861455" lon="10.7484906659192"><ele>476.0</ele><time>2026-05-01T11:54:20Z</time></trkpt><trkpt lat="45.782363482047025" lon="10.748391326010339"><ele>476.0</ele><time>2026-05-01T11:54:21Z</time></trkpt><trkpt lat="45.78243073831402" lon="10.748301571581637"><ele>476.4</ele><time>2026-05-01T11:54:22Z</time></trkpt><trkpt lat="45.78246945624396" lon="10.74818054617576"><ele>476.8</ele><time>2026-05-01T11:54:23Z</time></trkpt><trkpt lat="45.782461122143324" lon="10.748061643845912"><ele>477.19999999999993</ele><time>2026-05-01T11:54:24Z</time></trkpt><trkpt lat="45.78240935601988" lon="10.747959496791069"><ele>477.59999999999997</ele><time>2026-05-01T11:54:25Z</time></trkpt><trkpt lat="45.78232125028143" lon="10.74787835970236"><ele>478.0</ele><time>2026-05-01T11:54:26Z</time></trkpt><trkpt lat="45.78224054348238" lon="10.747778375076996"><ele>478.59999999999997</ele><time>2026-05-01T11:54:27Z</time></trkpt><trkpt lat="45.78220380951079" lon="10.747624086001736"><ele>479.19999999999993</ele><time>2026-05-01T11:54:28Z</time></trkpt><trkpt lat="45.782219196985125" lon="10.747472128986052"><ele>479.8</ele><time>2026-05-01T11:54:29Z</time></trkpt><trkpt lat="45.78227317306203" lon="10.747332232566606"><ele>480.4</ele><time>2026-05-01T11:54:30Z</time></trkpt><trkpt lat="45.782346674689016" lon="10.747207585530235"><ele>481.0</ele><time>2026-05-01T11:54:31Z</time></trkpt><trkpt lat="45.782430567430225" lon="10.747081181564466"><ele>481.0</ele><time>2026-05-01T11:54:32Z</time></trkpt><trkpt lat="45.78251789295836" lon="10.746929872233375"><ele>481.0</ele><time>2026-05-01T11:54:33Z</time></trkpt><trkpt lat="45.78261130964893" lon="10.74679260172463"><ele>481.0</ele><time>2026-05-01T11:54:34Z</time></trkpt><trkpt lat="45.78270551961666" lon="10.746653121795779"><ele>481.0</ele><time>2026-05-01T11:54:35Z</time></trkpt><trkpt lat="45.782788433256904" lon="10.746528320550773"><ele>480.5</ele><time>2026-05-01T11:54:36Z</time></trkpt><trkpt lat="45.78289447039303" lon="10.746447333712146"><ele>480.0</ele><time>2026-05-01T11:54:37Z</time></trkpt><trkpt lat="45.78299494410011" lon="10.74637192977797"><ele>479.5</ele><time>2026-05-01T11:54:38Z</time></trkpt><trkpt lat="45.78309646744373" lon="10.746286838517094"><ele>479.0</ele><time>2026-05-01T11:54:39Z</time></trkpt><trkpt lat="45.78320910047872" lon="10.746266257966324"><ele>479.0</ele><time>2026-05-01T11:54:40Z</time></trkpt><trkpt lat="45.78331927922657" lon="10.746258271315568"><ele>479.0</ele><time>2026-05-01T11:54:41Z</time></trkpt><trkpt lat="45.78343651467315" lon="10.746246707769469"><ele>479.0</ele><time>2026-05-01T11:54:42Z</time></trkpt><trkpt lat="45.783534723409865" lon="10.746202093276683"><ele>479.0</ele><time>2026-05-01T11:54:43Z</time></trkpt><trkpt lat="45.783621940836724" lon="10.746104544670427"><ele>479.0</ele><time>2026-05-01T11:54:44Z</time></trkpt><trkpt lat="45.78369061012353" lon="10.745941108100263"><ele>477.4</ele><time>2026-05-01T11:54:45Z</time></trkpt><trkpt lat="45.78375811641592" lon="10.745784928699825"><ele>475.79999999999995</ele><time>2026-05-01T11:54:46Z</time></trkpt><trkpt lat="45.783819073512916" lon="10.745658053984567"><ele>474.20000000000005</ele><time>2026-05-01T11:54:47Z</time></trkpt><trkpt lat="45.783883433853255" lon="10.74554418697929"><ele>472.6</ele><time>2026-05-01T11:54:48Z</time></trkpt><trkpt lat="45.78392978858956" lon="10.745428158886089"><ele>471.0</ele><time>2026-05-01T11:54:49Z</time></trkpt><trkpt lat="45.78393247942342" lon="10.745286654548481"><ele>472.20000000000005</ele><time>2026-05-01T11:54:50Z</time></trkpt><trkpt lat="45.78390532495571" lon="10.74514158670224"><ele>473.40000000000003</ele><time>2026-05-01T11:54:51Z</time></trkpt><trkpt lat="45.78389485397783" lon="10.745003580246086"><ele>474.6</ele><time>2026-05-01T11:54:52Z</time></trkpt><trkpt lat="45.78386416010499" lon="10.744889870047295"><ele>475.8</ele><time>2026-05-01T11:54:53Z</time></trkpt><trkpt lat="45.78379998587462" lon="10.744822273525509"><ele>477.0</ele><time>2026-05-01T11:54:54Z</time></trkpt><trkpt lat="45.783702436694284" lon="10.744788475529617"><ele>477.0</ele><time>2026-05-01T11:54:55Z</time></trkpt><trkpt lat="45.78359205424668" lon="10.744739770527943"><ele>477.0</ele><time>2026-05-01T11:54:56Z</time></trkpt><trkpt lat="45.78348838863333" lon="10.744643871154775"><ele>477.0</ele><time>2026-05-01T11:54:57Z</time></trkpt><trkpt lat="45.78338420279964" lon="10.744525364375804"><ele>477.0</ele><time>2026-05-01T11:54:58Z</time></trkpt><trkpt lat="45.78328359979216" lon="10.74438935417349"><ele>482.20000000000005</ele><time>2026-05-01T11:54:59Z</time></trkpt><trkpt lat="45.78320964481536" lon="10.744266703468707"><ele>487.40000000000003</ele><time>2026-05-01T11:55:00Z</time></trkpt><trkpt lat="45.78313841715089" lon="10.744159551266778"><ele>492.59999999999997</ele><time>2026-05-01T11:55:01Z</time></trkpt><trkpt lat="45.78313388882309" lon="10.744035004504775"><ele>497.79999999999995</ele><time>2026-05-01T11:55:02Z</time></trkpt><trkpt lat="45.78317249771206" lon="10.743925749151037"><ele>503.0</ele><time>2026-05-01T11:55:03Z</time></trkpt><trkpt lat="45.78324702804902" lon="10.743845246123724"><ele>502.99999999999994</ele><time>2026-05-01T11:55:04Z</time></trkpt><trkpt lat="45.78333272505626" lon="10.743809728069406"><ele>503.0</ele><time>2026-05-01T11:55:05Z</time></trkpt><trkpt lat="45.78342379164166" lon="10.743805448475547"><ele>503.0</ele><time>2026-05-01T11:55:05.998Z</time></trkpt><trkpt lat="45.783510677691446" lon="10.743824638360268"><ele>503.0</ele><time>2026-05-01T11:55:06.998Z</time></trkpt><trkpt lat="45.78358927364566" lon="10.743804147152952"><ele>502.99999999999994</ele><time>2026-05-01T11:55:07.998Z</time></trkpt><trkpt lat="45.78363979235405" lon="10.743744309813833"><ele>503.0</ele><time>2026-05-01T11:55:08.998Z</time></trkpt><trkpt lat="45.78366133167748" lon="10.74364356490452"><ele>501.8333333333333</ele><time>2026-05-01T11:55:09.999Z</time></trkpt><trkpt lat="45.78367834254741" lon="10.74353243651676"><ele>500.66666666666663</ele><time>2026-05-01T11:55:10.999Z</time></trkpt><trkpt lat="45.78369283247889" lon="10.743425193381523"><ele>499.5</ele><time>2026-05-01T11:55:11.999Z</time></trkpt><trkpt lat="45.7836888163534" lon="10.743298800519572"><ele>498.33333333333337</ele><time>2026-05-01T11:55:12.999Z</time></trkpt><trkpt lat="45.7836760670352" lon="10.743172734022469"><ele>497.1666666666667</ele><time>2026-05-01T11:55:13.999Z</time></trkpt><trkpt lat="45.783663622385006" lon="10.743048963842622"><ele>496.0</ele><time>2026-05-01T11:55:14.999Z</time></trkpt><trkpt lat="45.783642379681645" lon="10.742929848452821"><ele>496.00000000000006</ele><time>2026-05-01T11:55:15.999Z</time></trkpt><trkpt lat="45.78361342235317" lon="10.742821288551667"><ele>496.0</ele><time>2026-05-01T11:55:16.999Z</time></trkpt><trkpt lat="45.783593785866955" lon="10.74270126421283"><ele>496.0</ele><time>2026-05-01T11:55:17.999Z</time></trkpt><trkpt lat="45.783583163799406" lon="10.74259912723073"><ele>496.0</ele><time>2026-05-01T11:55:18.999Z</time></trkpt><trkpt lat="45.783596684963065" lon="10.742487830789527"><ele>496.00000000000006</ele><time>2026-05-01T11:55:19.999Z</time></trkpt><trkpt lat="45.78362815698811" lon="10.74238262617057"><ele>496.0</ele><time>2026-05-01T11:55:20.999Z</time></trkpt><trkpt lat="45.783671780394144" lon="10.742295284218853"><ele>497.6666666666667</ele><time>2026-05-01T11:55:21.999Z</time></trkpt><trkpt lat="45.78372813709786" lon="10.742220446776253"><ele>499.33333333333337</ele><time>2026-05-01T11:55:22.999Z</time></trkpt><trkpt lat="45.78379522753496" lon="10.74216724325285"><ele>501.0</ele><time>2026-05-01T11:55:23.999Z</time></trkpt><trkpt lat="45.783865809215726" lon="10.742135547169575"><ele>502.66666666666663</ele><time>2026-05-01T11:55:24.999Z</time></trkpt><trkpt lat="45.78394357125959" lon="10.742122864855252"><ele>504.3333333333333</ele><time>2026-05-01T11:55:25.999Z</time></trkpt><trkpt lat="45.784022404808034" lon="10.742148828899708"><ele>506.0</ele><time>2026-05-01T11:55:26.999Z</time></trkpt><trkpt lat="45.78409509739504" lon="10.742190386461235"><ele>505.99999999999994</ele><time>2026-05-01T11:55:27.999Z</time></trkpt><trkpt lat="45.78415918953976" lon="10.742250340508953"><ele>506.0</ele><time>2026-05-01T11:55:28.999Z</time></trkpt><trkpt lat="45.784232544592506" lon="10.742313297531126"><ele>506.0</ele><time>2026-05-01T11:55:29.999Z</time></trkpt><trkpt lat="45.78430420055139" lon="10.742377029266793"><ele>506.0</ele><time>2026-05-01T11:55:30.999Z</time></trkpt><trkpt lat="45.78436908108401" lon="10.742435125201563"><ele>505.99999999999994</ele><time>2026-05-01T11:55:31.999Z</time></trkpt><trkpt lat="45.7844242283556" lon="10.742503553530122"><ele>506.0</ele><time>2026-05-01T11:55:32.999Z</time></trkpt><trkpt lat="45.784490381952516" lon="10.742555564997163"><ele>506.66666666666663</ele><time>2026-05-01T11:55:33.999Z</time></trkpt><trkpt lat="45.78455125077991" lon="10.742628621039188"><ele>507.3333333333333</ele><time>2026-05-01T11:55:34.999Z</time></trkpt><trkpt lat="45.784617616523384" lon="10.74272316251573"><ele>508.0</ele><time>2026-05-01T11:55:35.999Z</time></trkpt><trkpt lat="45.78468643527564" lon="10.742786960027585"><ele>508.66666666666663</ele><time>2026-05-01T11:55:36.999Z</time></trkpt><trkpt lat="45.78474854208298" lon="10.742843841837303"><ele>509.3333333333333</ele><time>2026-05-01T11:55:37.999Z</time></trkpt><trkpt lat="45.78480898726374" lon="10.742900646222408"><ele>510.0</ele><time>2026-05-01T11:55:38.999Z</time></trkpt><trkpt lat="45.784862636088455" lon="10.742956831234972"><ele>510.0</ele><time>2026-05-01T11:55:40Z</time></trkpt><trkpt lat="45.78491358332014" lon="10.743012854781615"><ele>510.00000000000006</ele><time>2026-05-01T11:55:41Z</time></trkpt><trkpt lat="45.78496771272474" lon="10.743073696608537"><ele>510.0</ele><time>2026-05-01T11:55:42.01Z</time></trkpt><trkpt lat="45.78502253111241" lon="10.743132619613608"><ele>510.0</ele><time>2026-05-01T11:55:43.01Z</time></trkpt><trkpt lat="45.78507795345741" lon="10.743192631675697"><ele>510.00000000000006</ele><time>2026-05-01T11:55:44.02Z</time></trkpt><trkpt lat="45.78517314824479" lon="10.743246535364872"><ele>510.0</ele><time>2026-05-01T11:55:46Z</time></trkpt><trkpt lat="45.785240916645925" lon="10.743208938286587"><ele>510.0</ele><time>2026-05-01T11:55:47Z</time></trkpt><trkpt lat="45.785348692764885" lon="10.743108095733021"><ele>510.3333333333333</ele><time>2026-05-01T11:55:49Z</time></trkpt><trkpt lat="45.78540004432602" lon="10.743038292969757"><ele>510.66666666666663</ele><time>2026-05-01T11:55:50Z</time></trkpt><trkpt lat="45.78544233731356" lon="10.742956502252607"><ele>511.0</ele><time>2026-05-01T11:55:51Z</time></trkpt><trkpt lat="45.78549212896089" lon="10.742850852676886"><ele>511.3333333333333</ele><time>2026-05-01T11:55:52Z</time></trkpt><trkpt lat="45.78556805299237" lon="10.742766533349979"><ele>511.66666666666663</ele><time>2026-05-01T11:55:53Z</time></trkpt><trkpt lat="45.78564114615773" lon="10.742686045332821"><ele>512.0</ele><time>2026-05-01T11:55:54Z</time></trkpt><trkpt lat="45.78570384786581" lon="10.742612694050829"><ele>512.0</ele><time>2026-05-01T11:55:55Z</time></trkpt><trkpt lat="45.78577452136768" lon="10.74252591098046"><ele>512.0</ele><time>2026-05-01T11:55:56Z</time></trkpt><trkpt lat="45.78583750385632" lon="10.74244850447234"><ele>512.0</ele><time>2026-05-01T11:55:57Z</time></trkpt><trkpt lat="45.78589150163255" lon="10.742383774519356"><ele>512.0</ele><time>2026-05-01T11:55:58Z</time></trkpt><trkpt lat="45.785990189058644" lon="10.742263138362727"><ele>512.0</ele><time>2026-05-01T11:56:00Z</time></trkpt><trkpt lat="45.78604191443134" lon="10.742157833515751"><ele>510.40000000000003</ele><time>2026-05-01T11:56:02Z</time></trkpt><trkpt lat="45.78608389743923" lon="10.742031442793484"><ele>508.80000000000007</ele><time>2026-05-01T11:56:03Z</time></trkpt><trkpt lat="45.786127698453306" lon="10.74190289700491"><ele>507.2</ele><time>2026-05-01T11:56:04Z</time></trkpt><trkpt lat="45.78620285291668" lon="10.741786430647"><ele>505.6</ele><time>2026-05-01T11:56:05Z</time></trkpt><trkpt lat="45.78625930214133" lon="10.741631028675663"><ele>504.0</ele><time>2026-05-01T11:56:06Z</time></trkpt><trkpt lat="45.78632435841878" lon="10.74146562097546"><ele>504.0</ele><time>2026-05-01T11:56:07Z</time></trkpt><trkpt lat="45.78639800960089" lon="10.741292725034132"><ele>504.0</ele><time>2026-05-01T11:56:08Z</time></trkpt><trkpt lat="45.78645406664679" lon="10.741118921260774"><ele>504.0</ele><time>2026-05-01T11:56:09Z</time></trkpt><trkpt lat="45.78650887324971" lon="10.740956611982858"><ele>504.0</ele><time>2026-05-01T11:56:10Z</time></trkpt><trkpt lat="45.78657820070099" lon="10.740807302871753"><ele>506.6</ele><time>2026-05-01T11:56:11Z</time></trkpt><trkpt lat="45.78666564170714" lon="10.74069286559599"><ele>509.2</ele><time>2026-05-01T11:56:12Z</time></trkpt><trkpt lat="45.78674075077624" lon="10.740590078069033"><ele>511.80000000000007</ele><time>2026-05-01T11:56:13Z</time></trkpt><trkpt lat="45.786796518374786" lon="10.740453206375138"><ele>514.4</ele><time>2026-05-01T11:56:14Z</time></trkpt><trkpt lat="45.786841458968965" lon="10.740313958083576"><ele>517.0</ele><time>2026-05-01T11:56:15Z</time></trkpt><trkpt lat="45.78689084789862" lon="10.740171844261349"><ele>518.5</ele><time>2026-05-01T11:56:16Z</time></trkpt><trkpt lat="45.78695954605137" lon="10.740030958591023"><ele>520.0</ele><time>2026-05-01T11:56:17Z</time></trkpt><trkpt lat="45.787054217038886" lon="10.73991410665585"><ele>521.5</ele><time>2026-05-01T11:56:18Z</time></trkpt><trkpt lat="45.78716491172534" lon="10.739826189106862"><ele>523.0</ele><time>2026-05-01T11:56:19Z</time></trkpt><trkpt lat="45.78727760238534" lon="10.739778186406946"><ele>523.0</ele><time>2026-05-01T11:56:20Z</time></trkpt><trkpt lat="45.787376474461986" lon="10.73977262272479"><ele>523.0</ele><time>2026-05-01T11:56:21Z</time></trkpt><trkpt lat="45.78746390967632" lon="10.739828595461951"><ele>523.0</ele><time>2026-05-01T11:56:22Z</time></trkpt><trkpt lat="45.78755735267144" lon="10.73990260701424"><ele>523.0</ele><time>2026-05-01T11:56:23Z</time></trkpt><trkpt lat="45.7876719299487" lon="10.739972689108926"><ele>523.0</ele><time>2026-05-01T11:56:24Z</time></trkpt><trkpt lat="45.78778612307791" lon="10.740062239213495"><ele>527.5</ele><time>2026-05-01T11:56:25Z</time></trkpt><trkpt lat="45.78790464573674" lon="10.740130821073986"><ele>532.0</ele><time>2026-05-01T11:56:26Z</time></trkpt><trkpt lat="45.78802578839517" lon="10.740198936688966"><ele>536.5</ele><time>2026-05-01T11:56:27Z</time></trkpt><trkpt lat="45.78813334872736" lon="10.740267317613062"><ele>541.0</ele><time>2026-05-01T11:56:28Z</time></trkpt><trkpt lat="45.78822814520327" lon="10.740324623966199"><ele>541.2</ele><time>2026-05-01T11:56:29Z</time></trkpt><trkpt lat="45.788296312952475" lon="10.74040242461541"><ele>541.4000000000001</ele><time>2026-05-01T11:56:30Z</time></trkpt><trkpt lat="45.78833248886319" lon="10.740510301004084"><ele>541.6</ele><time>2026-05-01T11:56:31Z</time></trkpt><trkpt lat="45.78832455330551" lon="10.74063597551912"><ele>541.8000000000001</ele><time>2026-05-01T11:56:32Z</time></trkpt><trkpt lat="45.788261267563605" lon="10.740748507752354"><ele>542.0</ele><time>2026-05-01T11:56:33Z</time></trkpt><trkpt lat="45.78824212749032" lon="10.740892720231475"><ele>542.0</ele><time>2026-05-01T11:56:34Z</time></trkpt><trkpt lat="45.788215951590836" lon="10.741026164045067"><ele>542.0</ele><time>2026-05-01T11:56:35Z</time></trkpt><trkpt lat="45.78820945006588" lon="10.741156185574596"><ele>542.0</ele><time>2026-05-01T11:56:36Z</time></trkpt><trkpt lat="45.7881945720051" lon="10.741281846004796"><ele>542.0</ele><time>2026-05-01T11:56:37Z</time></trkpt><trkpt lat="45.78818021309276" lon="10.741405873392042"><ele>542.0</ele><time>2026-05-01T11:56:38Z</time></trkpt><trkpt lat="45.788160067399076" lon="10.741527984056816"><ele>542.5</ele><time>2026-05-01T11:56:39Z</time></trkpt><trkpt lat="45.78813407753989" lon="10.74164558681047"><ele>543.0</ele><time>2026-05-01T11:56:40Z</time></trkpt><trkpt lat="45.78810567310142" lon="10.741741627250553"><ele>543.5</ele><time>2026-05-01T11:56:41Z</time></trkpt><trkpt lat="45.78806352658554" lon="10.741838616000331"><ele>544.0</ele><time>2026-05-01T11:56:42Z</time></trkpt><trkpt lat="45.78802431387654" lon="10.742010693645557"><ele>544.5</ele><time>2026-05-01T11:56:44.001Z</time></trkpt><trkpt lat="45.78801605655412" lon="10.742108806442992"><ele>545.0</ele><time>2026-05-01T11:56:45.001Z</time></trkpt><trkpt lat="45.78801546738336" lon="10.742209882826796"><ele>545.0</ele><time>2026-05-01T11:56:46.001Z</time></trkpt><trkpt lat="45.78801356121003" lon="10.742319478198967"><ele>545.0</ele><time>2026-05-01T11:56:47.001Z</time></trkpt><trkpt lat="45.788004297567944" lon="10.742433724708848"><ele>545.0</ele><time>2026-05-01T11:56:48.001Z</time></trkpt><trkpt lat="45.78799700728034" lon="10.742550880641733"><ele>545.0</ele><time>2026-05-01T11:56:49.001Z</time></trkpt><trkpt lat="45.78799451495313" lon="10.742672862624191"><ele>545.0</ele><time>2026-05-01T11:56:50.001Z</time></trkpt><trkpt lat="45.78799019084842" lon="10.742787504204143"><ele>545.0</ele><time>2026-05-01T11:56:51.001Z</time></trkpt><trkpt lat="45.78800497914569" lon="10.742893888344767"><ele>544.4</ele><time>2026-05-01T11:56:52.001Z</time></trkpt><trkpt lat="45.78805529961149" lon="10.742983999402567"><ele>543.8</ele><time>2026-05-01T11:56:53.001Z</time></trkpt><trkpt lat="45.788123668096375" lon="10.743051885421124"><ele>543.2</ele><time>2026-05-01T11:56:54.001Z</time></trkpt><trkpt lat="45.78820599007748" lon="10.743109604255027"><ele>542.6</ele><time>2026-05-01T11:56:55.001Z</time></trkpt><trkpt lat="45.788297741653004" lon="10.743147749110115"><ele>542.0</ele><time>2026-05-01T11:56:56.001Z</time></trkpt><trkpt lat="45.78839557144984" lon="10.743174667874982"><ele>542.0</ele><time>2026-05-01T11:56:57.001Z</time></trkpt><trkpt lat="45.78849414521308" lon="10.743200962536381"><ele>542.0</ele><time>2026-05-01T11:56:58.001Z</time></trkpt><trkpt lat="45.78859263967437" lon="10.743238756018002"><ele>542.0</ele><time>2026-05-01T11:56:59.001Z</time></trkpt><trkpt lat="45.78868911631061" lon="10.743282566125407"><ele>542.0</ele><time>2026-05-01T11:57:00.001Z</time></trkpt><trkpt lat="45.78878440332317" lon="10.743330796253943"><ele>542.0</ele><time>2026-05-01T11:57:01.001Z</time></trkpt><trkpt lat="45.788876406139664" lon="10.743387692030279"><ele>543.2</ele><time>2026-05-01T11:57:02.001Z</time></trkpt><trkpt lat="45.788961130985044" lon="10.743464325933877"><ele>544.4000000000001</ele><time>2026-05-01T11:57:03.001Z</time></trkpt><trkpt lat="45.7890177181601" lon="10.743583892021865"><ele>545.5999999999999</ele><time>2026-05-01T11:57:04.001Z</time></trkpt><trkpt lat="45.789059633953734" lon="10.743704156872122"><ele>546.8</ele><time>2026-05-01T11:57:05.001Z</time></trkpt><trkpt lat="45.78910252418842" lon="10.74383219337725"><ele>548.0</ele><time>2026-05-01T11:57:06.001Z</time></trkpt><trkpt lat="45.789152859742444" lon="10.743951586932317"><ele>548.0</ele><time>2026-05-01T11:57:07.001Z</time></trkpt><trkpt lat="45.789216755281146" lon="10.74406777495043"><ele>548.0</ele><time>2026-05-01T11:57:08.001Z</time></trkpt><trkpt lat="45.78928221560731" lon="10.74419251639389"><ele>548.0</ele><time>2026-05-01T11:57:09.001Z</time></trkpt><trkpt lat="45.78935205363368" lon="10.744331470368358"><ele>548.0</ele><time>2026-05-01T11:57:10.001Z</time></trkpt><trkpt lat="45.789415329619786" lon="10.74447145960216"><ele>548.0</ele><time>2026-05-01T11:57:11.001Z</time></trkpt><trkpt lat="45.78947546411131" lon="10.744610217115616"><ele>551.25</ele><time>2026-05-01T11:57:11.999Z</time></trkpt><trkpt lat="45.789528617801366" lon="10.744760761652266"><ele>554.5</ele><time>2026-05-01T11:57:12.999Z</time></trkpt><trkpt lat="45.78957182176969" lon="10.744931191650359"><ele>557.75</ele><time>2026-05-01T11:57:13.999Z</time></trkpt><trkpt lat="45.789606229586475" lon="10.745114840494987"><ele>561.0</ele><time>2026-05-01T11:57:14.999Z</time></trkpt><trkpt lat="45.78963466961789" lon="10.745301955179706"><ele>561.0</ele><time>2026-05-01T11:57:15.999Z</time></trkpt><trkpt lat="45.78966871009955" lon="10.745494457950851"><ele>561.0</ele><time>2026-05-01T11:57:16.999Z</time></trkpt><trkpt lat="45.78969496714735" lon="10.745690806787552"><ele>561.0</ele><time>2026-05-01T11:57:17.999Z</time></trkpt><trkpt lat="45.78971433875177" lon="10.745888891842757"><ele>561.0</ele><time>2026-05-01T11:57:18.999Z</time></trkpt><trkpt lat="45.78974714866518" lon="10.74607253126534"><ele>562.75</ele><time>2026-05-01T11:57:19.999Z</time></trkpt><trkpt lat="45.789771284722036" lon="10.746253288360279"><ele>564.5</ele><time>2026-05-01T11:57:20.999Z</time></trkpt><trkpt lat="45.78978879669789" lon="10.746425186760822"><ele>566.25</ele><time>2026-05-01T11:57:21.999Z</time></trkpt><trkpt lat="45.78979171317412" lon="10.746602170594748"><ele>568.0</ele><time>2026-05-01T11:57:22.999Z</time></trkpt><trkpt lat="45.789776834160556" lon="10.74677194230228"><ele>570.75</ele><time>2026-05-01T11:57:23.999Z</time></trkpt><trkpt lat="45.78974985815651" lon="10.746933730869678"><ele>573.5</ele><time>2026-05-01T11:57:24.999Z</time></trkpt><trkpt lat="45.78970119875871" lon="10.747097895533305"><ele>576.25</ele><time>2026-05-01T11:57:26Z</time></trkpt><trkpt lat="45.78964204066298" lon="10.747246193846355"><ele>579.0</ele><time>2026-05-01T11:57:27Z</time></trkpt><trkpt lat="45.789571699412605" lon="10.747391018272943"><ele>579.0</ele><time>2026-05-01T11:57:28Z</time></trkpt><trkpt lat="45.78950022027379" lon="10.747539445247336"><ele>579.0</ele><time>2026-05-01T11:57:29Z</time></trkpt><trkpt lat="45.78944060118401" lon="10.74768781942155"><ele>579.0</ele><time>2026-05-01T11:57:30Z</time></trkpt><trkpt lat="45.789383184599366" lon="10.74782149780977"><ele>579.0</ele><time>2026-05-01T11:57:31Z</time></trkpt><trkpt lat="45.7893278859707" lon="10.74794399543737"><ele>580.4</ele><time>2026-05-01T11:57:32Z</time></trkpt><trkpt lat="45.78929242524412" lon="10.748075172982404"><ele>581.8</ele><time>2026-05-01T11:57:33Z</time></trkpt><trkpt lat="45.789287099822" lon="10.74821666745985"><ele>583.2</ele><time>2026-05-01T11:57:34Z</time></trkpt><trkpt lat="45.78931680700423" lon="10.748357674552622"><ele>584.6</ele><time>2026-05-01T11:57:35Z</time></trkpt><trkpt lat="45.78935649910411" lon="10.748489801086292"><ele>586.0</ele><time>2026-05-01T11:57:36Z</time></trkpt><trkpt lat="45.789382263049625" lon="10.74860964801785"><ele>587.2857142857142</ele><time>2026-05-01T11:57:37Z</time></trkpt><trkpt lat="45.789390032541206" lon="10.748712439507715"><ele>588.5714285714286</ele><time>2026-05-01T11:57:38Z</time></trkpt><trkpt lat="45.78939842419317" lon="10.748803159987396"><ele>589.8571428571429</ele><time>2026-05-01T11:57:39Z</time></trkpt><trkpt lat="45.789353785827046" lon="10.748882692177546"><ele>591.1428571428571</ele><time>2026-05-01T11:57:40Z</time></trkpt><trkpt lat="45.7893316598659" lon="10.748968480054188"><ele>592.4285714285714</ele><time>2026-05-01T11:57:41Z</time></trkpt><trkpt lat="45.78931383912659" lon="10.74905587620433"><ele>593.7142857142857</ele><time>2026-05-01T11:57:42Z</time></trkpt><trkpt lat="45.78929501837806" lon="10.749150782014379"><ele>595.0</ele><time>2026-05-01T11:57:43Z</time></trkpt><trkpt lat="45.78927653316225" lon="10.749250138532686"><ele>590.4285714285714</ele><time>2026-05-01T11:57:44Z</time></trkpt><trkpt lat="45.78925779748298" lon="10.749344914288569"><ele>585.8571428571429</ele><time>2026-05-01T11:57:45Z</time></trkpt><trkpt lat="45.78923415068439" lon="10.749439647688675"><ele>581.2857142857142</ele><time>2026-05-01T11:57:46Z</time></trkpt><trkpt lat="45.78921190927364" lon="10.749532481993706"><ele>576.7142857142858</ele><time>2026-05-01T11:57:47Z</time></trkpt><trkpt lat="45.78919088075293" lon="10.749623599713912"><ele>572.1428571428571</ele><time>2026-05-01T11:57:48Z</time></trkpt><trkpt lat="45.7891703088158" lon="10.749709425047724"><ele>567.5714285714286</ele><time>2026-05-01T11:57:49Z</time></trkpt><trkpt lat="45.78914778599303" lon="10.749796261059634"><ele>563.0</ele><time>2026-05-01T11:57:50Z</time></trkpt><trkpt lat="45.78907726961462" lon="10.749949191444221"><ele>563.0</ele><time>2026-05-01T11:57:52Z</time></trkpt><trkpt lat="45.78903026719927" lon="10.750009666808026"><ele>563.0</ele><time>2026-05-01T11:57:53Z</time></trkpt><trkpt lat="45.78897980982782" lon="10.750072511686973"><ele>563.0</ele><time>2026-05-01T11:57:54Z</time></trkpt><trkpt lat="45.78893055547044" lon="10.750137409065692"><ele>563.0</ele><time>2026-05-01T11:57:55Z</time></trkpt><trkpt lat="45.788864756952854" lon="10.750272148617071"><ele>563.0</ele><time>2026-05-01T11:57:57Z</time></trkpt><trkpt lat="45.78887755459001" lon="10.750435872538885"><ele>563.0</ele><time>2026-05-01T11:57:59Z</time></trkpt><trkpt lat="45.788916191731865" lon="10.750509811378405"><ele>562.5714285714286</ele><time>2026-05-01T11:58:00Z</time></trkpt><trkpt lat="45.78895918997186" lon="10.750577985775205"><ele>562.1428571428571</ele><time>2026-05-01T11:58:01Z</time></trkpt><trkpt lat="45.78899639119402" lon="10.750659896614392"><ele>561.7142857142858</ele><time>2026-05-01T11:58:02Z</time></trkpt><trkpt lat="45.78900766532127" lon="10.750756457481277"><ele>561.2857142857142</ele><time>2026-05-01T11:58:03Z</time></trkpt><trkpt lat="45.789004049845566" lon="10.75085672165669"><ele>560.8571428571429</ele><time>2026-05-01T11:58:04Z</time></trkpt><trkpt lat="45.78898657594338" lon="10.750956191794904"><ele>560.4285714285714</ele><time>2026-05-01T11:58:05Z</time></trkpt><trkpt lat="45.78897640340714" lon="10.75106404931134"><ele>560.0</ele><time>2026-05-01T11:58:06Z</time></trkpt><trkpt lat="45.78898770772481" lon="10.751172243384742"><ele>558.0</ele><time>2026-05-01T11:58:07Z</time></trkpt><trkpt lat="45.789015680495815" lon="10.751286505132768"><ele>556.0</ele><time>2026-05-01T11:58:08Z</time></trkpt><trkpt lat="45.78904108360385" lon="10.751407281378887"><ele>554.0</ele><time>2026-05-01T11:58:09Z</time></trkpt><trkpt lat="45.78906530753719" lon="10.75152950228713"><ele>552.0</ele><time>2026-05-01T11:58:10Z</time></trkpt><trkpt lat="45.78910568493557" lon="10.75164132160239"><ele>550.0</ele><time>2026-05-01T11:58:11Z</time></trkpt><trkpt lat="45.78917548534625" lon="10.751722964829916"><ele>548.0</ele><time>2026-05-01T11:58:12Z</time></trkpt><trkpt lat="45.789266127730585" lon="10.751769550285779"><ele>552.4</ele><time>2026-05-01T11:58:13Z</time></trkpt><trkpt lat="45.78936237280524" lon="10.751808149314588"><ele>556.8</ele><time>2026-05-01T11:58:14Z</time></trkpt><trkpt lat="45.78944973482615" lon="10.751871811956978"><ele>561.2</ele><time>2026-05-01T11:58:15Z</time></trkpt><trkpt lat="45.78951862775626" lon="10.751970673065435"><ele>565.6</ele><time>2026-05-01T11:58:16.001Z</time></trkpt><trkpt lat="45.789567219425095" lon="10.75209284020015"><ele>570.0</ele><time>2026-05-01T11:58:17.001Z</time></trkpt><trkpt lat="45.78959857745078" lon="10.75222683228349"><ele>570.0</ele><time>2026-05-01T11:58:18.001Z</time></trkpt><trkpt lat="45.78961600051992" lon="10.752356827643316"><ele>570.0</ele><time>2026-05-01T11:58:19.001Z</time></trkpt><trkpt lat="45.78963453341633" lon="10.752483634297278"><ele>570.0</ele><time>2026-05-01T11:58:20.001Z</time></trkpt><trkpt lat="45.78966078302968" lon="10.752616142538672"><ele>570.0</ele><time>2026-05-01T11:58:21.001Z</time></trkpt><trkpt lat="45.789696287749756" lon="10.752753238757718"><ele>570.0</ele><time>2026-05-01T11:58:22.001Z</time></trkpt><trkpt lat="45.78974226537231" lon="10.752890646274778"><ele>567.6666666666666</ele><time>2026-05-01T11:58:23.001Z</time></trkpt><trkpt lat="45.78979080807624" lon="10.753021173956709"><ele>565.3333333333334</ele><time>2026-05-01T11:58:24.001Z</time></trkpt><trkpt lat="45.78983293715435" lon="10.753129291780139"><ele>563.0</ele><time>2026-05-01T11:58:25.001Z</time></trkpt><trkpt lat="45.78986940305033" lon="10.753238311255087"><ele>560.6666666666667</ele><time>2026-05-01T11:58:26.001Z</time></trkpt><trkpt lat="45.789906176155874" lon="10.753347397226197"><ele>558.3333333333334</ele><time>2026-05-01T11:58:27.001Z</time></trkpt><trkpt lat="45.78993417021881" lon="10.753450079852787"><ele>556.0</ele><time>2026-05-01T11:58:28.001Z</time></trkpt><trkpt lat="45.78995220972935" lon="10.75355999436513"><ele>555.8333333333334</ele><time>2026-05-01T11:58:29.001Z</time></trkpt><trkpt lat="45.78996058992501" lon="10.753668306367082"><ele>555.6666666666667</ele><time>2026-05-01T11:58:30.001Z</time></trkpt><trkpt lat="45.789953317791884" lon="10.75376068704305"><ele>555.5</ele><time>2026-05-01T11:58:31.001Z</time></trkpt><trkpt lat="45.78993413974608" lon="10.75384679103528"><ele>555.3333333333334</ele><time>2026-05-01T11:58:32.001Z</time></trkpt><trkpt lat="45.7898946077118" lon="10.753921924126239"><ele>555.1666666666666</ele><time>2026-05-01T11:58:33.001Z</time></trkpt><trkpt lat="45.78979130594379" lon="10.753961795618682"><ele>555.0</ele><time>2026-05-01T11:58:35.001Z</time></trkpt><trkpt lat="45.78967829024328" lon="10.753880157909714"><ele>555.0</ele><time>2026-05-01T11:58:37.001Z</time></trkpt><trkpt lat="45.78958614969086" lon="10.753805410279266"><ele>555.0</ele><time>2026-05-01T11:58:39.001Z</time></trkpt><trkpt lat="45.78950060337765" lon="10.753751646088036"><ele>555.0</ele><time>2026-05-01T11:58:41.001Z</time></trkpt><trkpt lat="45.78943377220153" lon="10.75370890428619"><ele>555.0</ele><time>2026-05-01T11:58:43.001Z</time></trkpt><trkpt lat="45.78949896823408" lon="10.753766185864215"><ele>555.0</ele><time>2026-05-01T11:58:47.001Z</time></trkpt><trkpt lat="45.78953660556501" lon="10.753841236270969"><ele>555.0</ele><time>2026-05-01T11:58:49.001Z</time></trkpt><trkpt lat="45.78961512177495" lon="10.753898155914428"><ele>555.0</ele><time>2026-05-01T11:58:52.001Z</time></trkpt><trkpt lat="45.78967300686828" lon="10.753939318611907"><ele>555.0</ele><time>2026-05-01T11:58:54.001Z</time></trkpt><trkpt lat="45.78975267906247" lon="10.754009387972978"><ele>555.0</ele><time>2026-05-01T11:58:57.001Z</time></trkpt><trkpt lat="45.78981071321754" lon="10.75405851692961"><ele>555.0</ele><time>2026-05-01T11:58:59.001Z</time></trkpt><trkpt lat="45.789888369252175" lon="10.754050793568538"><ele>555.0</ele><time>2026-05-01T12:00:18.001Z</time></trkpt><trkpt lat="45.78985521959896" lon="10.753959028903923"><ele>555.0</ele><time>2026-05-01T12:00:24.001Z</time></trkpt><trkpt lat="45.7897502503824" lon="10.753904778392668"><ele>555.0</ele><time>2026-05-01T12:00:25.001Z</time></trkpt><trkpt lat="45.789645304026884" lon="10.75383421018153"><ele>555.0</ele><time>2026-05-01T12:00:26.001Z</time></trkpt><trkpt lat="45.7895500315645" lon="10.753765529727897"><ele>555.0</ele><time>2026-05-01T12:00:27.001Z</time></trkpt><trkpt lat="45.78945513829501" lon="10.753694757003155"><ele>555.0</ele><time>2026-05-01T12:00:28.001Z</time></trkpt><trkpt lat="45.78936479221089" lon="10.753618004409455"><ele>555.0</ele><time>2026-05-01T12:00:29.001Z</time></trkpt><trkpt lat="45.78927213809892" lon="10.753528739902986"><ele>554.4</ele><time>2026-05-01T12:00:30.001Z</time></trkpt><trkpt lat="45.789192337987295" lon="10.753439550261557"><ele>553.8</ele><time>2026-05-01T12:00:31.001Z</time></trkpt><trkpt lat="45.78911481192148" lon="10.753354644370587"><ele>553.2</ele><time>2026-05-01T12:00:32.001Z</time></trkpt><trkpt lat="45.78903612259649" lon="10.753263718729917"><ele>552.6</ele><time>2026-05-01T12:00:33.001Z</time></trkpt><trkpt lat="45.788917493741536" lon="10.753169898284115"><ele>552.0</ele><time>2026-05-01T12:00:34.001Z</time></trkpt><trkpt lat="45.78878883475788" lon="10.753106263985629"><ele>552.0</ele><time>2026-05-01T12:00:35.001Z</time></trkpt><trkpt lat="45.78865545259757" lon="10.753087251862251"><ele>552.0</ele><time>2026-05-01T12:00:36.001Z</time></trkpt><trkpt lat="45.78852099722707" lon="10.753046394447916"><ele>552.0</ele><time>2026-05-01T12:00:37.001Z</time></trkpt><trkpt lat="45.7883898140206" lon="10.753006944192634"><ele>552.0</ele><time>2026-05-01T12:00:38.001Z</time></trkpt><trkpt lat="45.78825549388322" lon="10.752971161956348"><ele>555.75</ele><time>2026-05-01T12:00:39.001Z</time></trkpt><trkpt lat="45.78813300632838" lon="10.752936148652898"><ele>559.5</ele><time>2026-05-01T12:00:40.001Z</time></trkpt><trkpt lat="45.78800963980228" lon="10.75290147970305"><ele>563.25</ele><time>2026-05-01T12:00:41.001Z</time></trkpt><trkpt lat="45.78790061712591" lon="10.752875268324429"><ele>567.0</ele><time>2026-05-01T12:00:42.001Z</time></trkpt><trkpt lat="45.787796468840405" lon="10.752860203974997"><ele>567.0</ele><time>2026-05-01T12:00:43.001Z</time></trkpt><trkpt lat="45.787700618004386" lon="10.752848342854753"><ele>567.0</ele><time>2026-05-01T12:00:44.001Z</time></trkpt><trkpt lat="45.78759464426144" lon="10.752911504026264"><ele>567.0</ele><time>2026-05-01T12:00:45.001Z</time></trkpt><trkpt lat="45.78750025151299" lon="10.753026634923154"><ele>567.0</ele><time>2026-05-01T12:00:46.001Z</time></trkpt><trkpt lat="45.787415248686614" lon="10.753161764668794"><ele>567.0</ele><time>2026-05-01T12:00:47.001Z</time></trkpt><trkpt lat="45.78735580348981" lon="10.753296366870153"><ele>567.0</ele><time>2026-05-01T12:00:48.001Z</time></trkpt><trkpt lat="45.7873271507201" lon="10.753473754294212"><ele>567.0</ele><time>2026-05-01T12:00:49.001Z</time></trkpt><trkpt lat="45.78733040688435" lon="10.753620126739468"><ele>567.0</ele><time>2026-05-01T12:00:50.001Z</time></trkpt><trkpt lat="45.78731686152687" lon="10.753737347348867"><ele>567.0</ele><time>2026-05-01T12:00:51.001Z</time></trkpt><trkpt lat="45.78725469294114" lon="10.753845440246133"><ele>567.0</ele><time>2026-05-01T12:00:52.001Z</time></trkpt><trkpt lat="45.78715221357087" lon="10.753881988819924"><ele>567.0</ele><time>2026-05-01T12:00:53.001Z</time></trkpt><trkpt lat="45.78707510413524" lon="10.753969493562254"><ele>567.0</ele><time>2026-05-01T12:00:54.001Z</time></trkpt><trkpt lat="45.786995468241884" lon="10.754052258727276"><ele>567.0</ele><time>2026-05-01T12:00:55.001Z</time></trkpt><trkpt lat="45.78693327675142" lon="10.754171571776874"><ele>567.0</ele><time>2026-05-01T12:00:56.001Z</time></trkpt><trkpt lat="45.78688205488545" lon="10.754346945307473"><ele>565.3333333333334</ele><time>2026-05-01T12:00:57.001Z</time></trkpt><trkpt lat="45.78682104363946" lon="10.75453427457709"><ele>563.6666666666667</ele><time>2026-05-01T12:00:58.001Z</time></trkpt><trkpt lat="45.786734947438255" lon="10.75470893223604"><ele>562.0</ele><time>2026-05-01T12:00:59.001Z</time></trkpt><trkpt lat="45.78662463712481" lon="10.754882706498503"><ele>562.0</ele><time>2026-05-01T12:01:00.001Z</time></trkpt><trkpt lat="45.78644797978239" lon="10.755056499428031"><ele>562.0</ele><time>2026-05-01T12:01:01.001Z</time></trkpt><trkpt lat="45.786266854642115" lon="10.755279590111428"><ele>558.0</ele><time>2026-05-01T12:01:02.001Z</time></trkpt><trkpt lat="45.786111767915564" lon="10.755456882988359"><ele>554.0</ele><time>2026-05-01T12:01:03.001Z</time></trkpt><trkpt lat="45.785985431016194" lon="10.755561007524523"><ele>550.0</ele><time>2026-05-01T12:01:04.001Z</time></trkpt><trkpt lat="45.785817158748735" lon="10.755698627869686"><ele>550.0</ele><time>2026-05-01T12:01:05.001Z</time></trkpt><trkpt lat="45.78568646732817" lon="10.755869260340722"><ele>550.0</ele><time>2026-05-01T12:01:06.001Z</time></trkpt><trkpt lat="45.78557278301242" lon="10.756083012247633"><ele>550.0</ele><time>2026-05-01T12:01:07.001Z</time></trkpt><trkpt lat="45.78548329618564" lon="10.756325939213992"><ele>559.3333333333334</ele><time>2026-05-01T12:01:08.001Z</time></trkpt><trkpt lat="45.78543012600025" lon="10.756560315510095"><ele>568.6666666666666</ele><time>2026-05-01T12:01:09.001Z</time></trkpt><trkpt lat="45.78539912105711" lon="10.756797421881823"><ele>578.0</ele><time>2026-05-01T12:01:10.002Z</time></trkpt><trkpt lat="45.7853430696851" lon="10.757022960971595"><ele>571.75</ele><time>2026-05-01T12:01:11.002Z</time></trkpt><trkpt lat="45.78529225562013" lon="10.75723540522413"><ele>565.5</ele><time>2026-05-01T12:01:12.002Z</time></trkpt><trkpt lat="45.785218646963095" lon="10.757410613738354"><ele>559.25</ele><time>2026-05-01T12:01:13.002Z</time></trkpt><trkpt lat="45.78517657955677" lon="10.757587101445786"><ele>553.0</ele><time>2026-05-01T12:01:14.002Z</time></trkpt><trkpt lat="45.78513462352166" lon="10.757687912157255"><ele>556.0</ele><time>2026-05-01T12:01:15.002Z</time></trkpt><trkpt lat="45.7850556154242" lon="10.75773622509825"><ele>559.0</ele><time>2026-05-01T12:01:16.002Z</time></trkpt><trkpt lat="45.784967181091346" lon="10.75772762225303"><ele>562.0</ele><time>2026-05-01T12:01:17.002Z</time></trkpt><trkpt lat="45.7848778138728" lon="10.75779474121226"><ele>565.0</ele><time>2026-05-01T12:01:18.002Z</time></trkpt><trkpt lat="45.784800300408946" lon="10.757938336434957"><ele>568.0</ele><time>2026-05-01T12:01:19.002Z</time></trkpt><trkpt lat="45.784752260900056" lon="10.758079341925576"><ele>568.0</ele><time>2026-05-01T12:01:20.002Z</time></trkpt><trkpt lat="45.78474961957207" lon="10.758214913542941"><ele>568.0</ele><time>2026-05-01T12:01:21.002Z</time></trkpt><trkpt lat="45.78478671542568" lon="10.758369706300847"><ele>568.0</ele><time>2026-05-01T12:01:22.002Z</time></trkpt><trkpt lat="45.78485321164344" lon="10.758514420909146"><ele>568.0</ele><time>2026-05-01T12:01:23.002Z</time></trkpt><trkpt lat="45.78493564777748" lon="10.758648627664096"><ele>570.25</ele><time>2026-05-01T12:01:24Z</time></trkpt><trkpt lat="45.784989449273716" lon="10.75876102273086"><ele>572.5</ele><time>2026-05-01T12:01:25Z</time></trkpt><trkpt lat="45.784933824064844" lon="10.758920523681146"><ele>574.75</ele><time>2026-05-01T12:01:26Z</time></trkpt><trkpt lat="45.784869182774436" lon="10.75907258962529"><ele>577.0</ele><time>2026-05-01T12:01:27Z</time></trkpt><trkpt lat="45.784772241897734" lon="10.759215045535885"><ele>580.75</ele><time>2026-05-01T12:01:28Z</time></trkpt><trkpt lat="45.78468756414028" lon="10.759370316187619"><ele>584.5</ele><time>2026-05-01T12:01:29Z</time></trkpt><trkpt lat="45.784608083190484" lon="10.75951361508143"><ele>588.25</ele><time>2026-05-01T12:01:30Z</time></trkpt><trkpt lat="45.784533776524924" lon="10.759640835047021"><ele>592.0</ele><time>2026-05-01T12:01:31Z</time></trkpt><trkpt lat="45.78442333027845" lon="10.759762038967203"><ele>592.0</ele><time>2026-05-01T12:01:32Z</time></trkpt><trkpt lat="45.78437183298391" lon="10.759926381341751"><ele>592.0</ele><time>2026-05-01T12:01:33Z</time></trkpt><trkpt lat="45.78435456906501" lon="10.760115163156792"><ele>592.0</ele><time>2026-05-01T12:01:34Z</time></trkpt><trkpt lat="45.784345582407035" lon="10.760315957678564"><ele>592.0</ele><time>2026-05-01T12:01:35Z</time></trkpt><trkpt lat="45.78430679648704" lon="10.760496909338018"><ele>587.0</ele><time>2026-05-01T12:01:36Z</time></trkpt><trkpt lat="45.78424218982869" lon="10.760670270590932"><ele>582.0</ele><time>2026-05-01T12:01:37Z</time></trkpt><trkpt lat="45.78417388336917" lon="10.760813352387384"><ele>577.0</ele><time>2026-05-01T12:01:38Z</time></trkpt><trkpt lat="45.784108692884004" lon="10.760953279633586"><ele>572.0</ele><time>2026-05-01T12:01:39Z</time></trkpt><trkpt lat="45.78403731125318" lon="10.761082663814374"><ele>572.0</ele><time>2026-05-01T12:01:40Z</time></trkpt><trkpt lat="45.783964652269404" lon="10.761191214636444"><ele>572.0</ele><time>2026-05-01T12:01:41Z</time></trkpt><trkpt lat="45.78389589869605" lon="10.761272244647031"><ele>572.0</ele><time>2026-05-01T12:01:42Z</time></trkpt><trkpt lat="45.78382425762493" lon="10.76135859557932"><ele>572.0</ele><time>2026-05-01T12:01:43Z</time></trkpt><trkpt lat="45.783759867830874" lon="10.761457518619824"><ele>572.0</ele><time>2026-05-01T12:01:44Z</time></trkpt><trkpt lat="45.78371194470534" lon="10.761570745500748"><ele>572.0</ele><time>2026-05-01T12:01:45Z</time></trkpt><trkpt lat="45.78367739611502" lon="10.761680295615395"><ele>572.0</ele><time>2026-05-01T12:01:46Z</time></trkpt><trkpt lat="45.783647665858936" lon="10.761786496578765"><ele>572.0</ele><time>2026-05-01T12:01:47Z</time></trkpt><trkpt lat="45.783616038103595" lon="10.761910484462037"><ele>572.0</ele><time>2026-05-01T12:01:48Z</time></trkpt><trkpt lat="45.7835947023645" lon="10.76203681213304"><ele>572.0</ele><time>2026-05-01T12:01:49Z</time></trkpt><trkpt lat="45.7835587156513" lon="10.762156850774112"><ele>572.0</ele><time>2026-05-01T12:01:50Z</time></trkpt><trkpt lat="45.78352285937008" lon="10.762265219341552"><ele>570.5</ele><time>2026-05-01T12:01:51Z</time></trkpt><trkpt lat="45.78347530653709" lon="10.762370399839426"><ele>569.0</ele><time>2026-05-01T12:01:52Z</time></trkpt><trkpt lat="45.78343576378158" lon="10.762469554899848"><ele>567.5</ele><time>2026-05-01T12:01:53Z</time></trkpt><trkpt lat="45.783379815252594" lon="10.76255174796075"><ele>566.0</ele><time>2026-05-01T12:01:54Z</time></trkpt><trkpt lat="45.783319782007936" lon="10.762615252231837"><ele>564.5</ele><time>2026-05-01T12:01:55Z</time></trkpt><trkpt lat="45.78324500755275" lon="10.762661464602672"><ele>563.0</ele><time>2026-05-01T12:01:56Z</time></trkpt><trkpt lat="45.783177465715696" lon="10.762706750585195"><ele>563.0</ele><time>2026-05-01T12:01:57Z</time></trkpt><trkpt lat="45.78310538935847" lon="10.76275076503421"><ele>563.0</ele><time>2026-05-01T12:01:58Z</time></trkpt><trkpt lat="45.78304607790295" lon="10.762784779183496"><ele>563.0</ele><time>2026-05-01T12:01:59Z</time></trkpt><trkpt lat="45.78294537535399" lon="10.762827740762003"><ele>563.0</ele><time>2026-05-01T12:02:01Z</time></trkpt><trkpt lat="45.78288427734963" lon="10.762857727828148"><ele>563.0</ele><time>2026-05-01T12:02:05Z</time></trkpt><trkpt lat="45.78290846000989" lon="10.762948577560653"><ele>563.0</ele><time>2026-05-01T12:03:42Z</time></trkpt><trkpt lat="45.78296689385954" lon="10.762984329448342"><ele>563.0</ele><time>2026-05-01T12:03:54Z</time></trkpt><trkpt lat="45.782884191506454" lon="10.762954989589202"><ele>563.0</ele><time>2026-05-01T12:04:12.001Z</time></trkpt><trkpt lat="45.7829604740262" lon="10.762972398036068"><ele>563.0</ele><time>2026-05-01T12:04:46.001Z</time></trkpt><trkpt lat="45.78301878076264" lon="10.762928651523115"><ele>563.0</ele><time>2026-05-01T12:47:05Z</time></trkpt><trkpt lat="45.782888893730444" lon="10.762951150778953"><ele>563.0</ele><time>2026-05-01T12:51:04Z</time></trkpt><trkpt lat="45.782834682279166" lon="10.762883225677184"><ele>563.0</ele><time>2026-05-01T12:51:12Z</time></trkpt><trkpt lat="45.78291077087477" lon="10.762866071250185"><ele>563.0</ele><time>2026-05-01T12:52:29Z</time></trkpt><trkpt lat="45.7828688753173" lon="10.76294519718788"><ele>563.0</ele><time>2026-05-01T12:55:23Z</time></trkpt><trkpt lat="45.782813620410394" lon="10.762996909528797"><ele>563.0</ele><time>2026-05-01T12:55:27Z</time></trkpt><trkpt lat="45.78277928580352" lon="10.763135729430898"><ele>563.0</ele><time>2026-05-01T12:56:17Z</time></trkpt><trkpt lat="45.78272913041034" lon="10.763285885798481"><ele>563.0</ele><time>2026-05-01T12:56:19Z</time></trkpt><trkpt lat="45.78270196227255" lon="10.763379855080927"><ele>563.0</ele><time>2026-05-01T12:56:20Z</time></trkpt><trkpt lat="45.78267347582852" lon="10.763495817037311"><ele>563.0</ele><time>2026-05-01T12:56:21Z</time></trkpt><trkpt lat="45.78258689053493" lon="10.763556866485407"><ele>561.4</ele><time>2026-05-01T12:56:22Z</time></trkpt><trkpt lat="45.7826089615972" lon="10.763705139539972"><ele>559.8</ele><time>2026-05-01T12:56:23Z</time></trkpt><trkpt lat="45.78257699551836" lon="10.763811003642672"><ele>558.2</ele><time>2026-05-01T12:56:24Z</time></trkpt><trkpt lat="45.782543757485364" lon="10.763923623175405"><ele>556.6</ele><time>2026-05-01T12:56:25Z</time></trkpt><trkpt lat="45.78250854888386" lon="10.764043859092048"><ele>555.0</ele><time>2026-05-01T12:56:26Z</time></trkpt><trkpt lat="45.78242032004662" lon="10.764119187717363"><ele>555.0</ele><time>2026-05-01T12:56:27Z</time></trkpt><trkpt lat="45.782387904052094" lon="10.764227876632859"><ele>555.0</ele><time>2026-05-01T12:56:28Z</time></trkpt><trkpt lat="45.78235116193308" lon="10.764350236216403"><ele>555.0</ele><time>2026-05-01T12:56:29Z</time></trkpt><trkpt lat="45.782306309505195" lon="10.764473621068323"><ele>555.0</ele><time>2026-05-01T12:56:30Z</time></trkpt><trkpt lat="45.78225194015329" lon="10.764565398205926"><ele>555.0</ele><time>2026-05-01T12:56:31Z</time></trkpt><trkpt lat="45.78218402469345" lon="10.764634767157029"><ele>555.0</ele><time>2026-05-01T12:56:32Z</time></trkpt><trkpt lat="45.78209765647434" lon="10.764719983924644"><ele>556.25</ele><time>2026-05-01T12:56:33Z</time></trkpt><trkpt lat="45.782017960682936" lon="10.764826556243028"><ele>557.5</ele><time>2026-05-01T12:56:34Z</time></trkpt><trkpt lat="45.781966155869426" lon="10.76500993551167"><ele>558.75</ele><time>2026-05-01T12:56:35Z</time></trkpt><trkpt lat="45.781918361252366" lon="10.765144400478857"><ele>560.0</ele><time>2026-05-01T12:56:36Z</time></trkpt><trkpt lat="45.78187132551883" lon="10.76529436789594"><ele>554.6</ele><time>2026-05-01T12:56:37Z</time></trkpt><trkpt lat="45.78182605046809" lon="10.765444505509645"><ele>549.2</ele><time>2026-05-01T12:56:38Z</time></trkpt><trkpt lat="45.78178045632552" lon="10.765593625806153"><ele>543.8</ele><time>2026-05-01T12:56:39Z</time></trkpt><trkpt lat="45.7817493262372" lon="10.765743015523482"><ele>538.4</ele><time>2026-05-01T12:56:40Z</time></trkpt><trkpt lat="45.78167802527179" lon="10.765851070763377"><ele>533.0</ele><time>2026-05-01T12:56:41Z</time></trkpt><trkpt lat="45.78164461611597" lon="10.766000960013306"><ele>533.6</ele><time>2026-05-01T12:56:42Z</time></trkpt><trkpt lat="45.78160030079036" lon="10.766153583690697"><ele>534.1999999999999</ele><time>2026-05-01T12:56:43Z</time></trkpt><trkpt lat="45.78157235792403" lon="10.766301363199124"><ele>534.8</ele><time>2026-05-01T12:56:44Z</time></trkpt><trkpt lat="45.78154649053616" lon="10.766449746596892"><ele>535.4</ele><time>2026-05-01T12:56:45Z</time></trkpt><trkpt lat="45.78152330785188" lon="10.766587820809585"><ele>536.0</ele><time>2026-05-01T12:56:46Z</time></trkpt><trkpt lat="45.78148545087162" lon="10.766713120586635"><ele>536.0</ele><time>2026-05-01T12:56:47Z</time></trkpt><trkpt lat="45.78144502555608" lon="10.766826665923077"><ele>536.0</ele><time>2026-05-01T12:56:48Z</time></trkpt><trkpt lat="45.78140697615445" lon="10.766937553039451"><ele>536.0</ele><time>2026-05-01T12:56:49Z</time></trkpt><trkpt lat="45.78133866650302" lon="10.767026101596747"><ele>536.0</ele><time>2026-05-01T12:56:50Z</time></trkpt><trkpt lat="45.781295075283154" lon="10.767118504062186"><ele>536.0</ele><time>2026-05-01T12:56:51Z</time></trkpt><trkpt lat="45.781286816084766" lon="10.767228677215575"><ele>536.0</ele><time>2026-05-01T12:56:52Z</time></trkpt><trkpt lat="45.78131243237908" lon="10.767359563895662"><ele>534.6</ele><time>2026-05-01T12:56:53Z</time></trkpt><trkpt lat="45.78135935026741" lon="10.767479560964095"><ele>533.2</ele><time>2026-05-01T12:56:54Z</time></trkpt><trkpt lat="45.78143646175678" lon="10.767576738609288"><ele>531.8</ele><time>2026-05-01T12:56:55Z</time></trkpt><trkpt lat="45.781532923982624" lon="10.76765003742848"><ele>530.4</ele><time>2026-05-01T12:56:56Z</time></trkpt><trkpt lat="45.78164156411822" lon="10.76770201288859"><ele>529.0</ele><time>2026-05-01T12:56:57Z</time></trkpt><trkpt lat="45.78172656482014" lon="10.767789144471674"><ele>531.4</ele><time>2026-05-01T12:56:58Z</time></trkpt><trkpt lat="45.781799950183796" lon="10.767903041920949"><ele>533.8</ele><time>2026-05-01T12:56:59Z</time></trkpt><trkpt lat="45.78183048002795" lon="10.768049654330687"><ele>536.2</ele><time>2026-05-01T12:57:00Z</time></trkpt><trkpt lat="45.78182820833831" lon="10.768199931348647"><ele>538.6</ele><time>2026-05-01T12:57:01Z</time></trkpt><trkpt lat="45.78184889912764" lon="10.76835677103962"><ele>541.0</ele><time>2026-05-01T12:57:02Z</time></trkpt><trkpt lat="45.78183990252873" lon="10.768498163877695"><ele>535.2</ele><time>2026-05-01T12:57:03Z</time></trkpt><trkpt lat="45.78181468584779" lon="10.76863609617452"><ele>529.4000000000001</ele><time>2026-05-01T12:57:04Z</time></trkpt><trkpt lat="45.781769217739765" lon="10.768763134169026"><ele>523.6</ele><time>2026-05-01T12:57:05Z</time></trkpt><trkpt lat="45.78171492099857" lon="10.768878139488475"><ele>517.8000000000001</ele><time>2026-05-01T12:57:06Z</time></trkpt><trkpt lat="45.78167753899195" lon="10.76900659328454"><ele>512.0</ele><time>2026-05-01T12:57:07Z</time></trkpt><trkpt lat="45.78167500283334" lon="10.76913668266485"><ele>512.0</ele><time>2026-05-01T12:57:08Z</time></trkpt><trkpt lat="45.78171369226355" lon="10.769268576214255"><ele>512.0</ele><time>2026-05-01T12:57:09Z</time></trkpt><trkpt lat="45.7817539922708" lon="10.769397411052221"><ele>512.0</ele><time>2026-05-01T12:57:10Z</time></trkpt><trkpt lat="45.78180823554829" lon="10.769518115426038"><ele>512.0</ele><time>2026-05-01T12:57:11Z</time></trkpt><trkpt lat="45.781892307169905" lon="10.769620422632096"><ele>512.0</ele><time>2026-05-01T12:57:12Z</time></trkpt><trkpt lat="45.781969125933756" lon="10.769729327186315"><ele>508.8333333333333</ele><time>2026-05-01T12:57:13Z</time></trkpt><trkpt lat="45.78205461793513" lon="10.769798645232903"><ele>505.66666666666663</ele><time>2026-05-01T12:57:14Z</time></trkpt><trkpt lat="45.78210917524087" lon="10.76985760622757"><ele>502.5</ele><time>2026-05-01T12:57:15Z</time></trkpt><trkpt lat="45.78216769187397" lon="10.769893627632273"><ele>499.33333333333337</ele><time>2026-05-01T12:57:16Z</time></trkpt><trkpt lat="45.78223683265494" lon="10.769883790759588"><ele>496.1666666666667</ele><time>2026-05-01T12:57:17Z</time></trkpt><trkpt lat="45.78231119844678" lon="10.76982265821249"><ele>493.0</ele><time>2026-05-01T12:57:18Z</time></trkpt><trkpt lat="45.78237800959171" lon="10.769732490884834"><ele>493.0</ele><time>2026-05-01T12:57:19Z</time></trkpt><trkpt lat="45.782453911885916" lon="10.769655774948289"><ele>492.99999999999994</ele><time>2026-05-01T12:57:20Z</time></trkpt><trkpt lat="45.78253500073701" lon="10.769621133606215"><ele>492.99999999999994</ele><time>2026-05-01T12:57:21Z</time></trkpt><trkpt lat="45.78265559300607" lon="10.76961422995388"><ele>493.0</ele><time>2026-05-01T12:57:22Z</time></trkpt><trkpt lat="45.78276052984654" lon="10.76958990967202"><ele>493.0</ele><time>2026-05-01T12:57:23Z</time></trkpt><trkpt lat="45.78286277270847" lon="10.769586146371427"><ele>493.0</ele><time>2026-05-01T12:57:24Z</time></trkpt><trkpt lat="45.78298534222476" lon="10.76961733234192"><ele>493.0</ele><time>2026-05-01T12:57:25Z</time></trkpt><trkpt lat="45.78309460321948" lon="10.769676082528488"><ele>493.0</ele><time>2026-05-01T12:57:26Z</time></trkpt><trkpt lat="45.78320135996422" lon="10.769747740892356"><ele>493.0</ele><time>2026-05-01T12:57:27Z</time></trkpt><trkpt lat="45.783280365094285" lon="10.769875138246668"><ele>493.0</ele><time>2026-05-01T12:57:28Z</time></trkpt><trkpt lat="45.78335134321779" lon="10.770007959366426"><ele>492.99999999999994</ele><time>2026-05-01T12:57:29Z</time></trkpt><trkpt lat="45.78340747413265" lon="10.770146308567575"><ele>492.99999999999994</ele><time>2026-05-01T12:57:30Z</time></trkpt><trkpt lat="45.78345297615055" lon="10.77027336663244"><ele>493.0</ele><time>2026-05-01T12:57:31Z</time></trkpt><trkpt lat="45.783503362295974" lon="10.770383295110369"><ele>493.0</ele><time>2026-05-01T12:57:32Z</time></trkpt><trkpt lat="45.78357226327017" lon="10.77046848074304"><ele>490.2</ele><time>2026-05-01T12:57:33Z</time></trkpt><trkpt lat="45.78367549729137" lon="10.770535171274389"><ele>487.4</ele><time>2026-05-01T12:57:34Z</time></trkpt><trkpt lat="45.78376154820215" lon="10.770579624926862"><ele>484.59999999999997</ele><time>2026-05-01T12:57:35Z</time></trkpt><trkpt lat="45.783858809342405" lon="10.770611031733845"><ele>481.79999999999995</ele><time>2026-05-01T12:57:36Z</time></trkpt><trkpt lat="45.783964921935336" lon="10.770645806697509"><ele>479.0</ele><time>2026-05-01T12:57:37Z</time></trkpt><trkpt lat="45.78406726649779" lon="10.770681334244193"><ele>478.99999999999994</ele><time>2026-05-01T12:57:38Z</time></trkpt><trkpt lat="45.784151751201634" lon="10.770711633206687"><ele>479.0</ele><time>2026-05-01T12:57:39Z</time></trkpt><trkpt lat="45.78422232257628" lon="10.770738071796911"><ele>479.0</ele><time>2026-05-01T12:57:40Z</time></trkpt><trkpt lat="45.784310083952356" lon="10.770785405643863"><ele>479.0</ele><time>2026-05-01T12:57:41Z</time></trkpt><trkpt lat="45.784400297738884" lon="10.770772762647038"><ele>478.99999999999994</ele><time>2026-05-01T12:57:42Z</time></trkpt><trkpt lat="45.78449236922235" lon="10.770778389005462"><ele>479.0</ele><time>2026-05-01T12:57:43Z</time></trkpt><trkpt lat="45.78459030379642" lon="10.770775816951998"><ele>478.0</ele><time>2026-05-01T12:57:44Z</time></trkpt><trkpt lat="45.784692831375814" lon="10.770784106015087"><ele>477.0</ele><time>2026-05-01T12:57:45Z</time></trkpt><trkpt lat="45.7848094784486" lon="10.770831386478969"><ele>476.0</ele><time>2026-05-01T12:57:46Z</time></trkpt><trkpt lat="45.78491992533038" lon="10.770900298213862"><ele>475.0</ele><time>2026-05-01T12:57:47Z</time></trkpt><trkpt lat="45.78503062696215" lon="10.770984896506237"><ele>471.0</ele><time>2026-05-01T12:57:48Z</time></trkpt><trkpt lat="45.78511698513497" lon="10.771115358467195"><ele>467.0</ele><time>2026-05-01T12:57:49Z</time></trkpt><trkpt lat="45.78521631078742" lon="10.771189574398825"><ele>463.0</ele><time>2026-05-01T12:57:50Z</time></trkpt><trkpt lat="45.78532449007121" lon="10.771278938563892"><ele>459.0</ele><time>2026-05-01T12:57:51Z</time></trkpt><trkpt lat="45.785434885649316" lon="10.771323634407555"><ele>457.75</ele><time>2026-05-01T12:57:52Z</time></trkpt><trkpt lat="45.78557241445836" lon="10.771383776209305"><ele>456.5</ele><time>2026-05-01T12:57:53Z</time></trkpt><trkpt lat="45.7856850061762" lon="10.771470776701388"><ele>455.25</ele><time>2026-05-01T12:57:54Z</time></trkpt><trkpt lat="45.78580134140021" lon="10.771577661427985"><ele>454.0</ele><time>2026-05-01T12:57:55Z</time></trkpt><trkpt lat="45.78590364090325" lon="10.771667181373571"><ele>454.0</ele><time>2026-05-01T12:57:56Z</time></trkpt><trkpt lat="45.785998309592976" lon="10.771758167249237"><ele>454.0</ele><time>2026-05-01T12:57:57Z</time></trkpt><trkpt lat="45.786090129773775" lon="10.771868272760349"><ele>454.0</ele><time>2026-05-01T12:57:58Z</time></trkpt><trkpt lat="45.78616436461235" lon="10.771967496777153"><ele>454.0</ele><time>2026-05-01T12:57:59Z</time></trkpt><trkpt lat="45.78624192830314" lon="10.772069676032606"><ele>454.0</ele><time>2026-05-01T12:58:00Z</time></trkpt><trkpt lat="45.78631166102756" lon="10.772158921237287"><ele>452.6</ele><time>2026-05-01T12:58:01Z</time></trkpt><trkpt lat="45.786371322835436" lon="10.772229642342117"><ele>451.2</ele><time>2026-05-01T12:58:02Z</time></trkpt><trkpt lat="45.786402208562166" lon="10.772341219105051"><ele>449.80000000000007</ele><time>2026-05-01T12:58:03Z</time></trkpt><trkpt lat="45.78638170249784" lon="10.772489849536793"><ele>448.40000000000003</ele><time>2026-05-01T12:58:04Z</time></trkpt><trkpt lat="45.78638326762984" lon="10.772636304646847"><ele>447.0</ele><time>2026-05-01T12:58:04.999Z</time></trkpt><trkpt lat="45.78640812002874" lon="10.772770194287704"><ele>443.0</ele><time>2026-05-01T12:58:05.999Z</time></trkpt><trkpt lat="45.786444659854155" lon="10.772876271734086"><ele>439.00000000000006</ele><time>2026-05-01T12:58:06.999Z</time></trkpt><trkpt lat="45.78651659851061" lon="10.772976886116119"><ele>435.00000000000006</ele><time>2026-05-01T12:58:07.999Z</time></trkpt><trkpt lat="45.7865867751177" lon="10.773039859216123"><ele>431.0</ele><time>2026-05-01T12:58:08.999Z</time></trkpt><trkpt lat="45.78666567408899" lon="10.773068338327509"><ele>427.0</ele><time>2026-05-01T12:58:09.999Z</time></trkpt><trkpt lat="45.78677122915401" lon="10.773046054743771"><ele>426.0</ele><time>2026-05-01T12:58:10.999Z</time></trkpt><trkpt lat="45.7868737844988" lon="10.773044779757997"><ele>425.00000000000006</ele><time>2026-05-01T12:58:11.999Z</time></trkpt><trkpt lat="45.78698150888467" lon="10.773045334125126"><ele>424.0</ele><time>2026-05-01T12:58:12.999Z</time></trkpt><trkpt lat="45.7870894952782" lon="10.773040383432898"><ele>423.0</ele><time>2026-05-01T12:58:13.999Z</time></trkpt><trkpt lat="45.78718729835681" lon="10.773012280813525"><ele>422.0</ele><time>2026-05-01T12:58:14.999Z</time></trkpt><trkpt lat="45.78725958366748" lon="10.773006341960196"><ele>421.99999999999994</ele><time>2026-05-01T12:58:15.999Z</time></trkpt><trkpt lat="45.78733421261825" lon="10.773076843341943"><ele>422.0</ele><time>2026-05-01T12:58:16.999Z</time></trkpt><trkpt lat="45.78742042200842" lon="10.773119380392153"><ele>422.0</ele><time>2026-05-01T12:58:17.999Z</time></trkpt><trkpt lat="45.787498183897625" lon="10.773146408011343"><ele>422.0</ele><time>2026-05-01T12:58:18.999Z</time></trkpt><trkpt lat="45.78758727306444" lon="10.773141691660314"><ele>421.99999999999994</ele><time>2026-05-01T12:58:19.999Z</time></trkpt><trkpt lat="45.78768144481454" lon="10.77309759544513"><ele>422.0</ele><time>2026-05-01T12:58:20.999Z</time></trkpt><trkpt lat="45.78776511801746" lon="10.773035537359805"><ele>421.0</ele><time>2026-05-01T12:58:21.999Z</time></trkpt><trkpt lat="45.78786346630622" lon="10.772981056823504"><ele>420.0</ele><time>2026-05-01T12:58:22.999Z</time></trkpt><trkpt lat="45.78796699689126" lon="10.77299386032835"><ele>419.0</ele><time>2026-05-01T12:58:23.999Z</time></trkpt><trkpt lat="45.788065320059815" lon="10.77306102113912"><ele>418.0</ele><time>2026-05-01T12:58:24.999Z</time></trkpt><trkpt lat="45.7881690369048" lon="10.773121101489307"><ele>417.0</ele><time>2026-05-01T12:58:25.999Z</time></trkpt><trkpt lat="45.788276793621954" lon="10.77318369929293"><ele>417.0</ele><time>2026-05-01T12:58:26.999Z</time></trkpt><trkpt lat="45.78838614581486" lon="10.773246668676167"><ele>417.0</ele><time>2026-05-01T12:58:27.999Z</time></trkpt><trkpt lat="45.788490080670186" lon="10.773290348707635"><ele>417.0</ele><time>2026-05-01T12:58:28.999Z</time></trkpt><trkpt lat="45.78859695448118" lon="10.773333314124002"><ele>417.0</ele><time>2026-05-01T12:58:29.999Z</time></trkpt><trkpt lat="45.78870020147942" lon="10.773383649347979"><ele>417.0</ele><time>2026-05-01T12:58:30.999Z</time></trkpt><trkpt lat="45.78879629672846" lon="10.773428368523502"><ele>417.8333333333333</ele><time>2026-05-01T12:58:31.999Z</time></trkpt><trkpt lat="45.788876699854164" lon="10.773468941743552"><ele>418.66666666666663</ele><time>2026-05-01T12:58:32.999Z</time></trkpt><trkpt lat="45.78897036961886" lon="10.773507934651239"><ele>419.5</ele><time>2026-05-01T12:58:33.999Z</time></trkpt><trkpt lat="45.78906098115348" lon="10.773529196762365"><ele>420.3333333333333</ele><time>2026-05-01T12:58:34.999Z</time></trkpt><trkpt lat="45.78915186608073" lon="10.773537392667755"><ele>421.16666666666663</ele><time>2026-05-01T12:58:35.999Z</time></trkpt><trkpt lat="45.78923178109909" lon="10.773534394695059"><ele>422.0</ele><time>2026-05-01T12:58:36.999Z</time></trkpt><trkpt lat="45.789315497649184" lon="10.77353739853438"><ele>420.0</ele><time>2026-05-01T12:58:37.999Z</time></trkpt><trkpt lat="45.78941390303468" lon="10.773530428782411"><ele>418.0</ele><time>2026-05-01T12:58:38.999Z</time></trkpt><trkpt lat="45.78951651261597" lon="10.773504978902"><ele>416.0</ele><time>2026-05-01T12:58:39.999Z</time></trkpt><trkpt lat="45.789628023295826" lon="10.773461651964755"><ele>414.0</ele><time>2026-05-01T12:58:40.999Z</time></trkpt><trkpt lat="45.78974525340073" lon="10.773415778319569"><ele>412.0</ele><time>2026-05-01T12:58:41.999Z</time></trkpt><trkpt lat="45.789861005933275" lon="10.773402250508125"><ele>412.0</ele><time>2026-05-01T12:58:43Z</time></trkpt><trkpt lat="45.78995332783193" lon="10.7733918960067"><ele>412.0</ele><time>2026-05-01T12:58:44Z</time></trkpt><trkpt lat="45.79005494500685" lon="10.773386169359831"><ele>412.0</ele><time>2026-05-01T12:58:45Z</time></trkpt><trkpt lat="45.79015427408655" lon="10.773395607377731"><ele>412.0</ele><time>2026-05-01T12:58:46Z</time></trkpt><trkpt lat="45.79024667593507" lon="10.773390551958759"><ele>412.0</ele><time>2026-05-01T12:58:47Z</time></trkpt><trkpt lat="45.79032960501239" lon="10.77341085737635"><ele>409.6</ele><time>2026-05-01T12:58:48Z</time></trkpt><trkpt lat="45.79039684339221" lon="10.773433514019947"><ele>407.20000000000005</ele><time>2026-05-01T12:58:49Z</time></trkpt><trkpt lat="45.79048801481037" lon="10.773455119663168"><ele>404.8</ele><time>2026-05-01T12:58:51Z</time></trkpt><trkpt lat="45.7905607750014" lon="10.77350947535882"><ele>402.4</ele><time>2026-05-01T12:58:53Z</time></trkpt><trkpt lat="45.790543421443225" lon="10.77364211140793"><ele>400.0</ele><time>2026-05-01T12:58:56Z</time></trkpt><trkpt lat="45.79042298636146" lon="10.773710906975678"><ele>398.1666666666667</ele><time>2026-05-01T12:58:58Z</time></trkpt><trkpt lat="45.79036501424187" lon="10.773783091836174"><ele>396.33333333333337</ele><time>2026-05-01T12:58:59Z</time></trkpt><trkpt lat="45.790302071501735" lon="10.773845712658634"><ele>394.5</ele><time>2026-05-01T12:59:00Z</time></trkpt><trkpt lat="45.79023748968957" lon="10.773915024640333"><ele>392.66666666666663</ele><time>2026-05-01T12:59:01Z</time></trkpt><trkpt lat="45.79018387828411" lon="10.77396775807037"><ele>390.8333333333333</ele><time>2026-05-01T12:59:02Z</time></trkpt><trkpt lat="45.79013047887144" lon="10.77401832293601"><ele>389.0</ele><time>2026-05-01T12:59:03Z</time></trkpt><trkpt lat="45.790073916272256" lon="10.774114444815195"><ele>388.99999999999994</ele><time>2026-05-01T12:59:05Z</time></trkpt><trkpt lat="45.79010140368589" lon="10.774269207081081"><ele>389.0</ele><time>2026-05-01T12:59:07Z</time></trkpt><trkpt lat="45.790186476472314" lon="10.774266696333713"><ele>389.0</ele><time>2026-05-01T12:59:08Z</time></trkpt><trkpt lat="45.790261311109155" lon="10.774245366622782"><ele>389.0</ele><time>2026-05-01T12:59:09Z</time></trkpt><trkpt lat="45.79033218809741" lon="10.774237534849048"><ele>388.99999999999994</ele><time>2026-05-01T12:59:10Z</time></trkpt><trkpt lat="45.79041317552232" lon="10.774197771055938"><ele>389.0</ele><time>2026-05-01T12:59:11Z</time></trkpt><trkpt lat="45.790510446329954" lon="10.774120946638545"><ele>387.3333333333333</ele><time>2026-05-01T12:59:12Z</time></trkpt><trkpt lat="45.79060395765814" lon="10.77406491938032"><ele>385.66666666666663</ele><time>2026-05-01T12:59:13Z</time></trkpt><trkpt lat="45.79068666313279" lon="10.774019828144446"><ele>384.0</ele><time>2026-05-01T12:59:14Z</time></trkpt><trkpt lat="45.790745587198145" lon="10.773981299160912"><ele>382.3333333333333</ele><time>2026-05-01T12:59:15Z</time></trkpt><trkpt lat="45.79080642693277" lon="10.773944400197212"><ele>380.66666666666663</ele><time>2026-05-01T12:59:16Z</time></trkpt><trkpt lat="45.79087976842348" lon="10.77393444278738"><ele>379.0</ele><time>2026-05-01T12:59:17Z</time></trkpt><trkpt lat="45.790948709571964" lon="10.773945556377148"><ele>379.0</ele><time>2026-05-01T12:59:18Z</time></trkpt><trkpt lat="45.79100552378992" lon="10.773990941064586"><ele>379.0</ele><time>2026-05-01T12:59:19Z</time></trkpt><trkpt lat="45.79107214384297" lon="10.774041704008782"><ele>379.0</ele><time>2026-05-01T12:59:20Z</time></trkpt><trkpt lat="45.79112931996834" lon="10.77409279487435"><ele>379.0</ele><time>2026-05-01T12:59:21Z</time></trkpt><trkpt lat="45.791198493714994" lon="10.774165583502503"><ele>379.0</ele><time>2026-05-01T12:59:22Z</time></trkpt><trkpt lat="45.79125477093045" lon="10.774242446665985"><ele>379.0</ele><time>2026-05-01T12:59:23Z</time></trkpt><trkpt lat="45.79131129250525" lon="10.774335875069124"><ele>374.16666666666663</ele><time>2026-05-01T12:59:24Z</time></trkpt><trkpt lat="45.791367335534275" lon="10.774429735898645"><ele>369.3333333333333</ele><time>2026-05-01T12:59:25Z</time></trkpt><trkpt lat="45.791421356617086" lon="10.774518681554747"><ele>364.5</ele><time>2026-05-01T12:59:26Z</time></trkpt><trkpt lat="45.79149041628764" lon="10.774587951150354"><ele>359.6666666666667</ele><time>2026-05-01T12:59:27Z</time></trkpt><trkpt lat="45.791537198829246" lon="10.77468106419192"><ele>354.83333333333337</ele><time>2026-05-01T12:59:28Z</time></trkpt><trkpt lat="45.79159879281778" lon="10.774759650350537"><ele>350.0</ele><time>2026-05-01T12:59:29Z</time></trkpt><trkpt lat="45.79167344726639" lon="10.774832611543872"><ele>350.0</ele><time>2026-05-01T12:59:30Z</time></trkpt><trkpt lat="45.79177459834576" lon="10.774885549880452"><ele>350.0</ele><time>2026-05-01T12:59:31Z</time></trkpt><trkpt lat="45.79188468051654" lon="10.774876557087147"><ele>350.0</ele><time>2026-05-01T12:59:32Z</time></trkpt><trkpt lat="45.79200881023337" lon="10.774918460364969"><ele>350.0</ele><time>2026-05-01T12:59:33Z</time></trkpt><trkpt lat="45.79212699884664" lon="10.774978353434495"><ele>351.25</ele><time>2026-05-01T12:59:34Z</time></trkpt><trkpt lat="45.79224392280752" lon="10.775049177782707"><ele>352.5</ele><time>2026-05-01T12:59:35Z</time></trkpt><trkpt lat="45.792367599393195" lon="10.775134526398805"><ele>353.75</ele><time>2026-05-01T12:59:36Z</time></trkpt><trkpt lat="45.792480168415956" lon="10.775266576159419"><ele>355.0</ele><time>2026-05-01T12:59:37Z</time></trkpt><trkpt lat="45.79261008049063" lon="10.77534857951601"><ele>354.75</ele><time>2026-05-01T12:59:38Z</time></trkpt><trkpt lat="45.79273907572815" lon="10.77541033462095"><ele>354.5</ele><time>2026-05-01T12:59:39Z</time></trkpt><trkpt lat="45.79285756168151" lon="10.775501009610293"><ele>354.25</ele><time>2026-05-01T12:59:40Z</time></trkpt><trkpt lat="45.792954201286214" lon="10.775577034517326"><ele>354.0</ele><time>2026-05-01T12:59:41Z</time></trkpt><trkpt lat="45.79303440938969" lon="10.775639703522812"><ele>354.0</ele><time>2026-05-01T12:59:42Z</time></trkpt><trkpt lat="45.79309808368991" lon="10.775691762192006"><ele>354.0</ele><time>2026-05-01T12:59:43Z</time></trkpt><trkpt lat="45.79314764167617" lon="10.775761805600315"><ele>354.0</ele><time>2026-05-01T12:59:44Z</time></trkpt><trkpt lat="45.79318521982516" lon="10.775862072913903"><ele>354.0</ele><time>2026-05-01T12:59:45Z</time></trkpt><trkpt lat="45.793161446840635" lon="10.775999477566147"><ele>354.0</ele><time>2026-05-01T12:59:46Z</time></trkpt><trkpt lat="45.79314711247062" lon="10.776149282857043"><ele>354.0</ele><time>2026-05-01T12:59:47Z</time></trkpt><trkpt lat="45.79312129837888" lon="10.776299882768438"><ele>350.0</ele><time>2026-05-01T12:59:48Z</time></trkpt><trkpt lat="45.79307715313385" lon="10.776451966973577"><ele>346.0</ele><time>2026-05-01T12:59:49Z</time></trkpt><trkpt lat="45.79303506165818" lon="10.776603927921629"><ele>342.0</ele><time>2026-05-01T12:59:50Z</time></trkpt><trkpt lat="45.79302482648194" lon="10.77677412890469"><ele>338.0</ele><time>2026-05-01T12:59:51Z</time></trkpt><trkpt lat="45.79302499428923" lon="10.776927781705046"><ele>333.5</ele><time>2026-05-01T12:59:52Z</time></trkpt><trkpt lat="45.79302857753522" lon="10.77707962369047"><ele>329.0</ele><time>2026-05-01T12:59:53Z</time></trkpt><trkpt lat="45.79310240871423" lon="10.777221718770315"><ele>324.5</ele><time>2026-05-01T12:59:54Z</time></trkpt><trkpt lat="45.793178660452526" lon="10.777361453462488"><ele>320.0</ele><time>2026-05-01T12:59:55Z</time></trkpt><trkpt lat="45.79324269941208" lon="10.777513005511523"><ele>320.0</ele><time>2026-05-01T12:59:56Z</time></trkpt><trkpt lat="45.79331857131854" lon="10.777640501854803"><ele>320.0</ele><time>2026-05-01T12:59:57Z</time></trkpt><trkpt lat="45.793407409206374" lon="10.777767092768416"><ele>320.0</ele><time>2026-05-01T12:59:58Z</time></trkpt><trkpt lat="45.79349663964968" lon="10.777878292237002"><ele>320.0</ele><time>2026-05-01T12:59:59Z</time></trkpt><trkpt lat="45.79358110645043" lon="10.777964400644821"><ele>314.6</ele><time>2026-05-01T13:00:00Z</time></trkpt><trkpt lat="45.79366573790404" lon="10.778033598762192"><ele>309.2</ele><time>2026-05-01T13:00:01Z</time></trkpt><trkpt lat="45.79376284397615" lon="10.77806473599668"><ele>303.8</ele><time>2026-05-01T13:00:02Z</time></trkpt><trkpt lat="45.79385715538462" lon="10.778117515863567"><ele>298.4</ele><time>2026-05-01T13:00:03Z</time></trkpt><trkpt lat="45.79396268424387" lon="10.778063454672347"><ele>293.0</ele><time>2026-05-01T13:00:04Z</time></trkpt><trkpt lat="45.7940559148121" lon="10.77800911424987"><ele>293.0</ele><time>2026-05-01T13:00:05Z</time></trkpt><trkpt lat="45.79416005801706" lon="10.777991791389223"><ele>293.0</ele><time>2026-05-01T13:00:06Z</time></trkpt><trkpt lat="45.794267093746704" lon="10.777973832706163"><ele>293.0</ele><time>2026-05-01T13:00:07Z</time></trkpt><trkpt lat="45.79439830239245" lon="10.777957203794953"><ele>293.0</ele><time>2026-05-01T13:00:08Z</time></trkpt><trkpt lat="45.79452145095376" lon="10.777941917246473"><ele>293.2</ele><time>2026-05-01T13:00:09Z</time></trkpt><trkpt lat="45.79462858903823" lon="10.777928618077475"><ele>293.4</ele><time>2026-05-01T13:00:10Z</time></trkpt><trkpt lat="45.79472143751753" lon="10.777919489369882"><ele>293.59999999999997</ele><time>2026-05-01T13:00:10.998Z</time></trkpt><trkpt lat="45.7948043895767" lon="10.777913486694262"><ele>293.8</ele><time>2026-05-01T13:00:11.998Z</time></trkpt><trkpt lat="45.79489370189573" lon="10.777929229033742"><ele>294.0</ele><time>2026-05-01T13:00:12.998Z</time></trkpt><trkpt lat="45.7949751313339" lon="10.778011810995796"><ele>294.0</ele><time>2026-05-01T13:00:13.998Z</time></trkpt><trkpt lat="45.795058238978925" lon="10.778105029018018"><ele>294.0</ele><time>2026-05-01T13:00:14.999Z</time></trkpt><trkpt lat="45.795114842472714" lon="10.778198898267274"><ele>294.0</ele><time>2026-05-01T13:00:15.999Z</time></trkpt><trkpt lat="45.79513070809837" lon="10.77832898469101"><ele>294.0</ele><time>2026-05-01T13:00:16.999Z</time></trkpt><trkpt lat="45.795167925136326" lon="10.778486470164845"><ele>294.0</ele><time>2026-05-01T13:00:17.999Z</time></trkpt><trkpt lat="45.79521574229276" lon="10.77863887606268"><ele>291.75</ele><time>2026-05-01T13:00:18.999Z</time></trkpt><trkpt lat="45.795285151078694" lon="10.778810076134155"><ele>289.5</ele><time>2026-05-01T13:00:19.999Z</time></trkpt><trkpt lat="45.795364025203455" lon="10.77897242613839"><ele>287.25</ele><time>2026-05-01T13:00:20.999Z</time></trkpt><trkpt lat="45.79545446785378" lon="10.77911840785664"><ele>285.0</ele><time>2026-05-01T13:00:21.999Z</time></trkpt><trkpt lat="45.79556916755778" lon="10.779218998158527"><ele>285.0</ele><time>2026-05-01T13:00:22.999Z</time></trkpt><trkpt lat="45.79568912994311" lon="10.779302795578586"><ele>285.0</ele><time>2026-05-01T13:00:23.999Z</time></trkpt><trkpt lat="45.79579991578663" lon="10.77938903294517"><ele>285.0</ele><time>2026-05-01T13:00:24.999Z</time></trkpt><trkpt lat="45.79590848586568" lon="10.779438930480536"><ele>285.0</ele><time>2026-05-01T13:00:25.999Z</time></trkpt><trkpt lat="45.79602134136627" lon="10.779424214429719"><ele>284.0</ele><time>2026-05-01T13:00:26.999Z</time></trkpt><trkpt lat="45.7961228062765" lon="10.779462367202235"><ele>283.0</ele><time>2026-05-01T13:00:27.999Z</time></trkpt><trkpt lat="45.79620254406382" lon="10.779490530451342"><ele>282.0</ele><time>2026-05-01T13:00:28.999Z</time></trkpt><trkpt lat="45.7963011838495" lon="10.779567922132959"><ele>281.0</ele><time>2026-05-01T13:00:30.999Z</time></trkpt><trkpt lat="45.79633781926668" lon="10.779689976840366"><ele>280.0</ele><time>2026-05-01T13:00:31.999Z</time></trkpt><trkpt lat="45.79635494889304" lon="10.77981950135563"><ele>280.0</ele><time>2026-05-01T13:00:32.999Z</time></trkpt><trkpt lat="45.79633328636145" lon="10.779981190429064"><ele>280.0</ele><time>2026-05-01T13:00:33.999Z</time></trkpt><trkpt lat="45.79629160346232" lon="10.780127593403394"><ele>280.0</ele><time>2026-05-01T13:00:34.999Z</time></trkpt><trkpt lat="45.79625316217901" lon="10.780276393109274"><ele>280.0</ele><time>2026-05-01T13:00:35.999Z</time></trkpt><trkpt lat="45.796223390777804" lon="10.780425626067583"><ele>280.0</ele><time>2026-05-01T13:00:36.999Z</time></trkpt><trkpt lat="45.796222826583225" lon="10.780559991937418"><ele>276.0</ele><time>2026-05-01T13:00:37.999Z</time></trkpt><trkpt lat="45.796266325971445" lon="10.780716042682998"><ele>272.0</ele><time>2026-05-01T13:00:38.999Z</time></trkpt><trkpt lat="45.796325294173904" lon="10.780836248350461"><ele>268.0</ele><time>2026-05-01T13:00:39.999Z</time></trkpt><trkpt lat="45.796402770897735" lon="10.780925205570453"><ele>264.0</ele><time>2026-05-01T13:00:40.999Z</time></trkpt><trkpt lat="45.79649706555802" lon="10.781014659451643"><ele>260.0</ele><time>2026-05-01T13:00:41.999Z</time></trkpt><trkpt lat="45.79663175180176" lon="10.781029815597506"><ele>260.0</ele><time>2026-05-01T13:00:42.999Z</time></trkpt><trkpt lat="45.79674882464512" lon="10.781013452016598"><ele>260.0</ele><time>2026-05-01T13:00:43.999Z</time></trkpt><trkpt lat="45.796878244071" lon="10.781025565570111"><ele>260.0</ele><time>2026-05-01T13:00:44.999Z</time></trkpt><trkpt lat="45.79700952681441" lon="10.78102960054061"><ele>260.0</ele><time>2026-05-01T13:00:45.999Z</time></trkpt><trkpt lat="45.797145908783904" lon="10.781035978402885"><ele>255.0</ele><time>2026-05-01T13:00:46.999Z</time></trkpt><trkpt lat="45.797284597901154" lon="10.781044723509465"><ele>250.0</ele><time>2026-05-01T13:00:48Z</time></trkpt><trkpt lat="45.79742467757436" lon="10.781041408881308"><ele>245.0</ele><time>2026-05-01T13:00:49Z</time></trkpt><trkpt lat="45.79755233394555" lon="10.781018235274495"><ele>240.0</ele><time>2026-05-01T13:00:50Z</time></trkpt><trkpt lat="45.797678902628455" lon="10.780982833122627"><ele>240.0</ele><time>2026-05-01T13:00:51Z</time></trkpt><trkpt lat="45.797796035427986" lon="10.780925176475636"><ele>240.0</ele><time>2026-05-01T13:00:52Z</time></trkpt><trkpt lat="45.79791357280155" lon="10.780889616964082"><ele>240.0</ele><time>2026-05-01T13:00:53Z</time></trkpt><trkpt lat="45.79803608585285" lon="10.78089837810797"><ele>240.0</ele><time>2026-05-01T13:00:54Z</time></trkpt><trkpt lat="45.798167234197116" lon="10.780929306913944"><ele>240.0</ele><time>2026-05-01T13:00:55Z</time></trkpt><trkpt lat="45.798278424763105" lon="10.78095306768682"><ele>240.0</ele><time>2026-05-01T13:00:56Z</time></trkpt><trkpt lat="45.79838635314455" lon="10.780982357242097"><ele>240.0</ele><time>2026-05-01T13:00:57Z</time></trkpt><trkpt lat="45.79849884585919" lon="10.781023363539655"><ele>240.0</ele><time>2026-05-01T13:00:58Z</time></trkpt><trkpt lat="45.79859776696007" lon="10.781081977096978"><ele>240.0</ele><time>2026-05-01T13:00:59Z</time></trkpt><trkpt lat="45.798694908917646" lon="10.781148126038634"><ele>235.0</ele><time>2026-05-01T13:01:00Z</time></trkpt><trkpt lat="45.79878133203731" lon="10.781200588027977"><ele>230.0</ele><time>2026-05-01T13:01:01Z</time></trkpt><trkpt lat="45.79886433665979" lon="10.781259026545145"><ele>225.0</ele><time>2026-05-01T13:01:02Z</time></trkpt><trkpt lat="45.79895154584734" lon="10.781318353786595"><ele>220.0</ele><time>2026-05-01T13:01:03Z</time></trkpt><trkpt lat="45.799050324730594" lon="10.78135565080126"><ele>215.0</ele><time>2026-05-01T13:01:04Z</time></trkpt><trkpt lat="45.79915438799045" lon="10.781330816467559"><ele>215.0</ele><time>2026-05-01T13:01:05Z</time></trkpt><trkpt lat="45.799246561089944" lon="10.781291261010631"><ele>215.0</ele><time>2026-05-01T13:01:06Z</time></trkpt><trkpt lat="45.79933052279109" lon="10.781230169428722"><ele>215.0</ele><time>2026-05-01T13:01:07Z</time></trkpt><trkpt lat="45.799400054930985" lon="10.781120685423282"><ele>215.0</ele><time>2026-05-01T13:01:08Z</time></trkpt><trkpt lat="45.79945676960795" lon="10.780966560160294"><ele>215.0</ele><time>2026-05-01T13:01:09Z</time></trkpt><trkpt lat="45.799523310197564" lon="10.780810222601978"><ele>211.0</ele><time>2026-05-01T13:01:10Z</time></trkpt><trkpt lat="45.79959802682832" lon="10.780684736771066"><ele>207.0</ele><time>2026-05-01T13:01:11Z</time></trkpt><trkpt lat="45.799706646032455" lon="10.7805930768917"><ele>203.0</ele><time>2026-05-01T13:01:12Z</time></trkpt><trkpt lat="45.79977437116455" lon="10.7805449106542"><ele>199.0</ele><time>2026-05-01T13:01:13Z</time></trkpt><trkpt lat="45.79989389595879" lon="10.780471137333413"><ele>195.0</ele><time>2026-05-01T13:01:14Z</time></trkpt><trkpt lat="45.800022411434625" lon="10.780414450463002"><ele>195.0</ele><time>2026-05-01T13:01:15Z</time></trkpt><trkpt lat="45.80014812371887" lon="10.78037017210408"><ele>195.0</ele><time>2026-05-01T13:01:16Z</time></trkpt><trkpt lat="45.80028979987804" lon="10.780337771378784"><ele>195.0</ele><time>2026-05-01T13:01:17Z</time></trkpt><trkpt lat="45.80042562842431" lon="10.780308505559265"><ele>195.0</ele><time>2026-05-01T13:01:18Z</time></trkpt><trkpt lat="45.80054296236284" lon="10.780294882612564"><ele>191.0</ele><time>2026-05-01T13:01:19Z</time></trkpt><trkpt lat="45.800676434988304" lon="10.780299065906405"><ele>187.0</ele><time>2026-05-01T13:01:20Z</time></trkpt><trkpt lat="45.80081542608972" lon="10.780305573485977"><ele>183.0</ele><time>2026-05-01T13:01:21Z</time></trkpt><trkpt lat="45.80094435833523" lon="10.780314515786394"><ele>179.0</ele><time>2026-05-01T13:01:22Z</time></trkpt><trkpt lat="45.80107613067725" lon="10.78033258557606"><ele>178.75</ele><time>2026-05-01T13:01:23Z</time></trkpt><trkpt lat="45.8011952714316" lon="10.780356493648345"><ele>178.5</ele><time>2026-05-01T13:01:24Z</time></trkpt><trkpt lat="45.80131279147575" lon="10.780390223775933"><ele>178.25</ele><time>2026-05-01T13:01:25Z</time></trkpt><trkpt lat="45.80144830245609" lon="10.780392855779349"><ele>178.0</ele><time>2026-05-01T13:01:26Z</time></trkpt><trkpt lat="45.801576756911466" lon="10.780478990263225"><ele>178.0</ele><time>2026-05-01T13:01:27Z</time></trkpt><trkpt lat="45.8017136668747" lon="10.78058034469834"><ele>178.0</ele><time>2026-05-01T13:01:28Z</time></trkpt><trkpt lat="45.80184652980423" lon="10.780687035539302"><ele>178.0</ele><time>2026-05-01T13:01:29Z</time></trkpt><trkpt lat="45.801960421246875" lon="10.780814996195485"><ele>179.25</ele><time>2026-05-01T13:01:30Z</time></trkpt><trkpt lat="45.802084807714536" lon="10.780907828686377"><ele>180.5</ele><time>2026-05-01T13:01:31Z</time></trkpt><trkpt lat="45.802196002940065" lon="10.78100078405256"><ele>181.75</ele><time>2026-05-01T13:01:32Z</time></trkpt><trkpt lat="45.80230254250905" lon="10.781095841587184"><ele>183.0</ele><time>2026-05-01T13:01:33Z</time></trkpt><trkpt lat="45.80240276794319" lon="10.781183237594268"><ele>176.75</ele><time>2026-05-01T13:01:34Z</time></trkpt><trkpt lat="45.80249709998041" lon="10.781253572200661"><ele>170.5</ele><time>2026-05-01T13:01:35Z</time></trkpt><trkpt lat="45.80262418637273" lon="10.781288504907407"><ele>164.25</ele><time>2026-05-01T13:01:36Z</time></trkpt><trkpt lat="45.80276226023561" lon="10.781294983985479"><ele>158.0</ele><time>2026-05-01T13:01:37Z</time></trkpt><trkpt lat="45.802898985131904" lon="10.781268471790746"><ele>157.0</ele><time>2026-05-01T13:01:38Z</time></trkpt><trkpt lat="45.80302113941428" lon="10.781222204718322"><ele>156.0</ele><time>2026-05-01T13:01:39Z</time></trkpt><trkpt lat="45.80314032788033" lon="10.78119107862127"><ele>155.0</ele><time>2026-05-01T13:01:40Z</time></trkpt><trkpt lat="45.80324836665761" lon="10.78117686459054"><ele>154.0</ele><time>2026-05-01T13:01:41Z</time></trkpt><trkpt lat="45.80335115056955" lon="10.781191859038502"><ele>154.0</ele><time>2026-05-01T13:01:42Z</time></trkpt><trkpt lat="45.80343478101026" lon="10.78126705005988"><ele>154.0</ele><time>2026-05-01T13:01:43Z</time></trkpt><trkpt lat="45.80351928970919" lon="10.781358579463951"><ele>154.0</ele><time>2026-05-01T13:01:44Z</time></trkpt><trkpt lat="45.80359741481197" lon="10.781467021373668"><ele>154.0</ele><time>2026-05-01T13:01:45Z</time></trkpt><trkpt lat="45.80364059472596" lon="10.781578257634346"><ele>154.0</ele><time>2026-05-01T13:01:46Z</time></trkpt><trkpt lat="45.80366824074577" lon="10.781674981299776"><ele>156.66666666666669</ele><time>2026-05-01T13:01:47Z</time></trkpt><trkpt lat="45.80365236230008" lon="10.781781720535745"><ele>159.33333333333334</ele><time>2026-05-01T13:01:48Z</time></trkpt><trkpt lat="45.80360188690602" lon="10.781880419224635"><ele>162.0</ele><time>2026-05-01T13:01:49Z</time></trkpt><trkpt lat="45.80358099134951" lon="10.781980787558034"><ele>164.66666666666666</ele><time>2026-05-01T13:01:50Z</time></trkpt><trkpt lat="45.803588445684404" lon="10.782101041273258"><ele>167.33333333333331</ele><time>2026-05-01T13:01:51Z</time></trkpt><trkpt lat="45.80358862144847" lon="10.782218858434392"><ele>170.0</ele><time>2026-05-01T13:01:52Z</time></trkpt><trkpt lat="45.80358629821523" lon="10.782351541576995"><ele>170.8</ele><time>2026-05-01T13:01:53Z</time></trkpt><trkpt lat="45.803575270092836" lon="10.782498748975113"><ele>171.6</ele><time>2026-05-01T13:01:54Z</time></trkpt><trkpt lat="45.803574903349094" lon="10.782625652219862"><ele>172.39999999999998</ele><time>2026-05-01T13:01:55Z</time></trkpt><trkpt lat="45.8035686569934" lon="10.782744583726442"><ele>173.2</ele><time>2026-05-01T13:01:56Z</time></trkpt><trkpt lat="45.803567320658516" lon="10.782887985515412"><ele>174.0</ele><time>2026-05-01T13:01:57Z</time></trkpt><trkpt lat="45.80356928008915" lon="10.783053200760568"><ele>172.2</ele><time>2026-05-01T13:01:58Z</time></trkpt><trkpt lat="45.8035760608794" lon="10.783220937214317"><ele>170.39999999999998</ele><time>2026-05-01T13:01:59Z</time></trkpt><trkpt lat="45.803570360740416" lon="10.783374683354634"><ele>168.6</ele><time>2026-05-01T13:02:00Z</time></trkpt><trkpt lat="45.803569855569734" lon="10.783504034204146"><ele>166.8</ele><time>2026-05-01T13:02:01Z</time></trkpt><trkpt lat="45.80357957632217" lon="10.78362343249558"><ele>165.0</ele><time>2026-05-01T13:02:02Z</time></trkpt><trkpt lat="45.803613898007775" lon="10.78373286750173"><ele>162.6</ele><time>2026-05-01T13:02:03Z</time></trkpt><trkpt lat="45.803697647890125" lon="10.783807603256255"><ele>160.2</ele><time>2026-05-01T13:02:04Z</time></trkpt><trkpt lat="45.80378924418164" lon="10.783859245845274"><ele>157.8</ele><time>2026-05-01T13:02:05Z</time></trkpt><trkpt lat="45.80388605129225" lon="10.783930856998962"><ele>155.4</ele><time>2026-05-01T13:02:06Z</time></trkpt><trkpt lat="45.80396968750372" lon="10.784051133446082"><ele>153.0</ele><time>2026-05-01T13:02:07Z</time></trkpt><trkpt lat="45.80404144005917" lon="10.784174547720808"><ele>153.0</ele><time>2026-05-01T13:02:08Z</time></trkpt><trkpt lat="45.80410683083195" lon="10.784277924430707"><ele>153.0</ele><time>2026-05-01T13:02:09Z</time></trkpt><trkpt lat="45.8041800526573" lon="10.784361155197209"><ele>153.0</ele><time>2026-05-01T13:02:10Z</time></trkpt><trkpt lat="45.80427726001336" lon="10.78441404476084"><ele>153.0</ele><time>2026-05-01T13:02:11Z</time></trkpt><trkpt lat="45.804390082251565" lon="10.7844491677154"><ele>153.0</ele><time>2026-05-01T13:02:12Z</time></trkpt><trkpt lat="45.80451022717536" lon="10.784496600686618"><ele>148.25</ele><time>2026-05-01T13:02:13Z</time></trkpt><trkpt lat="45.804632636010645" lon="10.784552909745717"><ele>143.5</ele><time>2026-05-01T13:02:14Z</time></trkpt><trkpt lat="45.804750865128696" lon="10.784625056546028"><ele>138.75</ele><time>2026-05-01T13:02:15Z</time></trkpt><trkpt lat="45.80485173420225" lon="10.784741301784715"><ele>134.0</ele><time>2026-05-01T13:02:16Z</time></trkpt><trkpt lat="45.804979296417876" lon="10.78482749950541"><ele>134.0</ele><time>2026-05-01T13:02:16.999Z</time></trkpt><trkpt lat="45.80510456675679" lon="10.784906369266743"><ele>134.0</ele><time>2026-05-01T13:02:17.999Z</time></trkpt><trkpt lat="45.80525046640927" lon="10.784957368264948"><ele>134.0</ele><time>2026-05-01T13:02:18.999Z</time></trkpt><trkpt lat="45.80538912347895" lon="10.784987569684061"><ele>134.0</ele><time>2026-05-01T13:02:19.999Z</time></trkpt><trkpt lat="45.805517349829685" lon="10.785015674477101"><ele>132.75</ele><time>2026-05-01T13:02:20.999Z</time></trkpt><trkpt lat="45.80564378158419" lon="10.785085262466525"><ele>131.5</ele><time>2026-05-01T13:02:21.999Z</time></trkpt><trkpt lat="45.80574936963632" lon="10.785205383630087"><ele>130.25</ele><time>2026-05-01T13:02:22.999Z</time></trkpt><trkpt lat="45.805868688707314" lon="10.78528187792017"><ele>129.0</ele><time>2026-05-01T13:02:23.999Z</time></trkpt><trkpt lat="45.80597239262968" lon="10.785392011573213"><ele>125.5</ele><time>2026-05-01T13:02:24.999Z</time></trkpt><trkpt lat="45.80609084271686" lon="10.78546329014142"><ele>122.0</ele><time>2026-05-01T13:02:25.999Z</time></trkpt><trkpt lat="45.80620199619531" lon="10.785557163559591"><ele>118.5</ele><time>2026-05-01T13:02:26.999Z</time></trkpt><trkpt lat="45.80630769698347" lon="10.785647351580776"><ele>115.0</ele><time>2026-05-01T13:02:27.999Z</time></trkpt><trkpt lat="45.8064173159089" lon="10.785744047969729"><ele>115.0</ele><time>2026-05-01T13:02:28.999Z</time></trkpt><trkpt lat="45.80650635442192" lon="10.785883810453324"><ele>115.0</ele><time>2026-05-01T13:02:29.999Z</time></trkpt><trkpt lat="45.806603844870985" lon="10.786010222298327"><ele>115.0</ele><time>2026-05-01T13:02:30.999Z</time></trkpt><trkpt lat="45.80670597148113" lon="10.786111474403766"><ele>115.0</ele><time>2026-05-01T13:02:31.999Z</time></trkpt><trkpt lat="45.80679110434169" lon="10.786230317820795"><ele>112.25</ele><time>2026-05-01T13:02:32.999Z</time></trkpt><trkpt lat="45.80687932818023" lon="10.786349131083062"><ele>109.5</ele><time>2026-05-01T13:02:33.999Z</time></trkpt><trkpt lat="45.80696519420853" lon="10.786465571185213"><ele>106.75</ele><time>2026-05-01T13:02:34.999Z</time></trkpt><trkpt lat="45.807046385618264" lon="10.786584224316229"><ele>104.0</ele><time>2026-05-01T13:02:35.999Z</time></trkpt><trkpt lat="45.80712527304029" lon="10.786704411906666"><ele>104.0</ele><time>2026-05-01T13:02:36.999Z</time></trkpt><trkpt lat="45.807207255923046" lon="10.78681283674957"><ele>104.0</ele><time>2026-05-01T13:02:37.999Z</time></trkpt><trkpt lat="45.80729578546236" lon="10.78691593199882"><ele>104.0</ele><time>2026-05-01T13:02:38.999Z</time></trkpt><trkpt lat="45.80738625552005" lon="10.787011583760696"><ele>104.0</ele><time>2026-05-01T13:02:39.999Z</time></trkpt><trkpt lat="45.8074824487347" lon="10.787101369102963"><ele>102.6</ele><time>2026-05-01T13:02:40.999Z</time></trkpt><trkpt lat="45.80756673197778" lon="10.787193073240747"><ele>101.2</ele><time>2026-05-01T13:02:41.999Z</time></trkpt><trkpt lat="45.8076273770761" lon="10.78729717061048"><ele>99.8</ele><time>2026-05-01T13:02:42.999Z</time></trkpt><trkpt lat="45.80770404944123" lon="10.787364674113075"><ele>98.39999999999999</ele><time>2026-05-01T13:02:43.999Z</time></trkpt><trkpt lat="45.807765324502725" lon="10.787507872562406"><ele>97.0</ele><time>2026-05-01T13:02:46Z</time></trkpt><trkpt lat="45.80776721311436" lon="10.787632787848551"><ele>96.19999999999999</ele><time>2026-05-01T13:02:48Z</time></trkpt><trkpt lat="45.80773541749622" lon="10.787760917539583"><ele>95.4</ele><time>2026-05-01T13:02:52Z</time></trkpt><trkpt lat="45.80772001285866" lon="10.787880144360393"><ele>94.6</ele><time>2026-05-01T13:03:08Z</time></trkpt><trkpt lat="45.807676900820034" lon="10.78795587008379"><ele>93.80000000000001</ele><time>2026-05-01T13:03:15Z</time></trkpt><trkpt lat="45.80775420735502" lon="10.788081681569068"><ele>93.0</ele><time>2026-05-01T13:03:16Z</time></trkpt><trkpt lat="45.807834763174476" lon="10.78815765975711"><ele>93.0</ele><time>2026-05-01T13:03:17Z</time></trkpt><trkpt lat="45.80791040377554" lon="10.788249698320353"><ele>93.0</ele><time>2026-05-01T13:03:18Z</time></trkpt><trkpt lat="45.80799954703733" lon="10.788391317462017"><ele>93.0</ele><time>2026-05-01T13:03:19Z</time></trkpt><trkpt lat="45.80809421421282" lon="10.78857178157212"><ele>93.0</ele><time>2026-05-01T13:03:20Z</time></trkpt><trkpt lat="45.8081700890274" lon="10.788731137002387"><ele>92.4</ele><time>2026-05-01T13:03:21Z</time></trkpt><trkpt lat="45.808243878216096" lon="10.788871399472402"><ele>91.80000000000001</ele><time>2026-05-01T13:03:22Z</time></trkpt><trkpt lat="45.808307344767655" lon="10.789005289273101"><ele>91.2</ele><time>2026-05-01T13:03:23Z</time></trkpt><trkpt lat="45.80835507537238" lon="10.789122901396537"><ele>90.6</ele><time>2026-05-01T13:03:24Z</time></trkpt><trkpt lat="45.80840063177437" lon="10.78922811653979"><ele>90.0</ele><time>2026-05-01T13:03:25Z</time></trkpt><trkpt lat="45.808440377952486" lon="10.789310572615422"><ele>89.2</ele><time>2026-05-01T13:03:26Z</time></trkpt><trkpt lat="45.80848088606353" lon="10.789384883846255"><ele>88.4</ele><time>2026-05-01T13:03:27Z</time></trkpt><trkpt lat="45.80855280860535" lon="10.789530174357681"><ele>87.6</ele><time>2026-05-01T13:03:29Z</time></trkpt><trkpt lat="45.80863409137877" lon="10.789660698869243"><ele>86.8</ele><time>2026-05-01T13:03:31Z</time></trkpt><trkpt lat="45.808722061031915" lon="10.78979322269975"><ele>86.0</ele><time>2026-05-01T13:03:33Z</time></trkpt><trkpt lat="45.80877546190023" lon="10.789863349191776"><ele>86.8</ele><time>2026-05-01T13:03:34Z</time></trkpt><trkpt lat="45.80882310480932" lon="10.789925495572467"><ele>87.6</ele><time>2026-05-01T13:03:35Z</time></trkpt><trkpt lat="45.80889780039435" lon="10.790031715796317"><ele>88.4</ele><time>2026-05-01T13:03:37Z</time></trkpt><trkpt lat="45.80899893155649" lon="10.790135512412217"><ele>89.2</ele><time>2026-05-01T13:03:39Z</time></trkpt><trkpt lat="45.80909113022574" lon="10.790228559125325"><ele>90.0</ele><time>2026-05-01T13:03:41Z</time></trkpt><trkpt lat="45.809194515279366" lon="10.790323177364764"><ele>90.0</ele><time>2026-05-01T13:03:43Z</time></trkpt><trkpt lat="45.80925386939431" lon="10.79037398367567"><ele>90.0</ele><time>2026-05-01T13:03:44Z</time></trkpt><trkpt lat="45.80931826620923" lon="10.790421821131623"><ele>90.0</ele><time>2026-05-01T13:03:45Z</time></trkpt><trkpt lat="45.80938361957148" lon="10.790470965602447"><ele>90.0</ele><time>2026-05-01T13:03:46Z</time></trkpt><trkpt lat="45.80943982072038" lon="10.79051834543764"><ele>90.0</ele><time>2026-05-01T13:03:47Z</time></trkpt><trkpt lat="45.80954690103892" lon="10.790617719630257"><ele>90.0</ele><time>2026-05-01T13:03:49Z</time></trkpt><trkpt lat="45.8096155921277" lon="10.790674614003114"><ele>89.71428571428571</ele><time>2026-05-01T13:03:50Z</time></trkpt><trkpt lat="45.80968311546406" lon="10.79072381726429"><ele>89.42857142857143</ele><time>2026-05-01T13:03:51Z</time></trkpt><trkpt lat="45.80974537610157" lon="10.790769791439"><ele>89.14285714285714</ele><time>2026-05-01T13:03:52.001Z</time></trkpt><trkpt lat="45.80980182978734" lon="10.79081854413665"><ele>88.85714285714286</ele><time>2026-05-01T13:03:53.001Z</time></trkpt><trkpt lat="45.809859898178196" lon="10.790866682294256"><ele>88.57142857142857</ele><time>2026-05-01T13:03:54.001Z</time></trkpt><trkpt lat="45.809918153476545" lon="10.790915864473485"><ele>88.28571428571429</ele><time>2026-05-01T13:03:55.001Z</time></trkpt><trkpt lat="45.80999540883062" lon="10.79097904507762"><ele>88.0</ele><time>2026-05-01T13:03:57.001Z</time></trkpt><trkpt lat="45.81005130346783" lon="10.791026793123429"><ele>88.0</ele><time>2026-05-01T13:04:03.001Z</time></trkpt><trkpt lat="45.810111904986776" lon="10.791083229225526"><ele>88.0</ele><time>2026-05-01T13:04:06.001Z</time></trkpt><trkpt lat="45.81020931367438" lon="10.791160135538435"><ele>88.0</ele><time>2026-05-01T13:04:08.001Z</time></trkpt><trkpt lat="45.81027164534753" lon="10.791209344290447"><ele>88.0</ele><time>2026-05-01T13:04:09.001Z</time></trkpt><trkpt lat="45.81032756285501" lon="10.791258307615328"><ele>88.0</ele><time>2026-05-01T13:04:10.001Z</time></trkpt><trkpt lat="45.81039534500336" lon="10.791319085248054"><ele>88.0</ele><time>2026-05-01T13:04:11.001Z</time></trkpt><trkpt lat="45.81046201300492" lon="10.791385471338163"><ele>89.60000000000001</ele><time>2026-05-01T13:04:12.001Z</time></trkpt><trkpt lat="45.810534036801656" lon="10.791457908556435"><ele>91.2</ele><time>2026-05-01T13:04:13.001Z</time></trkpt><trkpt lat="45.81060522722632" lon="10.791528960338093"><ele>92.8</ele><time>2026-05-01T13:04:14.001Z</time></trkpt><trkpt lat="45.81066552013845" lon="10.791589734959988"><ele>94.4</ele><time>2026-05-01T13:04:15.001Z</time></trkpt><trkpt lat="45.810759677537106" lon="10.791681630157834"><ele>96.0</ele><time>2026-05-01T13:04:17.001Z</time></trkpt><trkpt lat="45.810835600013284" lon="10.791751559261478"><ele>96.0</ele><time>2026-05-01T13:04:19.001Z</time></trkpt><trkpt lat="45.81091286412327" lon="10.791823539556297"><ele>96.0</ele><time>2026-05-01T13:04:21.001Z</time></trkpt><trkpt lat="45.811000969639224" lon="10.791888864705369"><ele>96.0</ele><time>2026-05-01T13:04:22.999Z</time></trkpt><trkpt lat="45.8110637154201" lon="10.7919250565757"><ele>96.0</ele><time>2026-05-01T13:04:24.999Z</time></trkpt><trkpt lat="45.81115372942815" lon="10.791970126834425"><ele>96.0</ele><time>2026-05-01T13:04:26.999Z</time></trkpt><trkpt lat="45.81124392855009" lon="10.792006388896976"><ele>96.0</ele><time>2026-05-01T13:04:28.999Z</time></trkpt><trkpt lat="45.81130786537425" lon="10.792026705619458"><ele>96.0</ele><time>2026-05-01T13:04:30.999Z</time></trkpt><trkpt lat="45.81136710260119" lon="10.792057312944989"><ele>96.0</ele><time>2026-05-01T13:04:32.999Z</time></trkpt><trkpt lat="45.811463493436236" lon="10.792084680630975"><ele>96.0</ele><time>2026-05-01T13:04:36Z</time></trkpt><trkpt lat="45.81154480063423" lon="10.792107861755865"><ele>96.0</ele><time>2026-05-01T13:04:38Z</time></trkpt><trkpt lat="45.8116215623255" lon="10.792130622953385"><ele>96.0</ele><time>2026-05-01T13:04:40Z</time></trkpt><trkpt lat="45.811726183967835" lon="10.792148098886496"><ele>96.0</ele><time>2026-05-01T13:04:42Z</time></trkpt><trkpt lat="45.811840188452955" lon="10.792178225781527"><ele>95.99999999999999</ele><time>2026-05-01T13:04:44Z</time></trkpt><trkpt lat="45.811901016616396" lon="10.792203221056589"><ele>96.0</ele><time>2026-05-01T13:04:45Z</time></trkpt><trkpt lat="45.81200155647893" lon="10.792230669724763"><ele>96.0</ele><time>2026-05-01T13:04:47Z</time></trkpt><trkpt lat="45.812066673495565" lon="10.792244802791519"><ele>96.0</ele><time>2026-05-01T13:04:50Z</time></trkpt><trkpt lat="45.81213982977209" lon="10.792265724593394"><ele>96.0</ele><time>2026-05-01T13:05:04Z</time></trkpt><trkpt lat="45.81220494763235" lon="10.79227405969844"><ele>95.99999999999999</ele><time>2026-05-01T13:05:07Z</time></trkpt><trkpt lat="45.8122784240064" lon="10.792280498287814"><ele>96.0</ele><time>2026-05-01T13:05:12Z</time></trkpt><trkpt lat="45.81237741457293" lon="10.792285855055379"><ele>96.0</ele><time>2026-05-01T13:05:14Z</time></trkpt><trkpt lat="45.81245417501581" lon="10.792273300416044"><ele>96.0</ele><time>2026-05-01T13:05:15Z</time></trkpt><trkpt lat="45.812547323280896" lon="10.792271244309436"><ele>96.0</ele><time>2026-05-01T13:05:16Z</time></trkpt><trkpt lat="45.81263830542862" lon="10.79226692822667"><ele>96.0</ele><time>2026-05-01T13:05:17Z</time></trkpt><trkpt lat="45.81271296643865" lon="10.792259433145707"><ele>96.0</ele><time>2026-05-01T13:05:18Z</time></trkpt><trkpt lat="45.81279969424957" lon="10.792264610412634"><ele>96.0</ele><time>2026-05-01T13:05:20Z</time></trkpt><trkpt lat="45.812872847230345" lon="10.792264266894973"><ele>95.5</ele><time>2026-05-01T13:05:23Z</time></trkpt><trkpt lat="45.81294816165468" lon="10.792244917109173"><ele>95.0</ele><time>2026-05-01T13:05:31.001Z</time></trkpt><trkpt lat="45.81302004486464" lon="10.792217466944257"><ele>94.5</ele><time>2026-05-01T13:05:35.001Z</time></trkpt><trkpt lat="45.813093086476634" lon="10.792190094875403"><ele>94.0</ele><time>2026-05-01T13:05:45.001Z</time></trkpt><trkpt lat="45.813165567996165" lon="10.792156880473685"><ele>93.5</ele><time>2026-05-01T13:05:48.001Z</time></trkpt><trkpt lat="45.8132430225813" lon="10.792122660599043"><ele>93.0</ele><time>2026-05-01T13:05:51.001Z</time></trkpt><trkpt lat="45.813318587663616" lon="10.792097812338454"><ele>93.00000000000001</ele><time>2026-05-01T13:05:55.001Z</time></trkpt><trkpt lat="45.813394133663536" lon="10.79208261495292"><ele>93.0</ele><time>2026-05-01T13:05:59.001Z</time></trkpt><trkpt lat="45.81345516552011" lon="10.792025564095965"><ele>93.0</ele><time>2026-05-01T13:06:03.001Z</time></trkpt><trkpt lat="45.81352758171099" lon="10.792002586694725"><ele>93.0</ele><time>2026-05-01T13:06:06.001Z</time></trkpt><trkpt lat="45.81359921018942" lon="10.791959136705472"><ele>93.0</ele><time>2026-05-01T13:06:09.001Z</time></trkpt><trkpt lat="45.81366157326924" lon="10.791942216653307"><ele>93.00000000000001</ele><time>2026-05-01T13:06:12.001Z</time></trkpt><trkpt lat="45.81373380057658" lon="10.79190411674763"><ele>93.0</ele><time>2026-05-01T13:06:17.001Z</time></trkpt><trkpt lat="45.813825942169736" lon="10.791855514494014"><ele>94.2</ele><time>2026-05-01T13:06:20.001Z</time></trkpt><trkpt lat="45.81389795498767" lon="10.79181881056518"><ele>95.4</ele><time>2026-05-01T13:06:22.001Z</time></trkpt><trkpt lat="45.81397196648113" lon="10.791780739872788"><ele>96.60000000000001</ele><time>2026-05-01T13:06:24.001Z</time></trkpt><trkpt lat="45.81407087873917" lon="10.791729642718577"><ele>97.80000000000001</ele><time>2026-05-01T13:06:26.001Z</time></trkpt><trkpt lat="45.814180843744296" lon="10.791672881419158"><ele>99.0</ele><time>2026-05-01T13:06:28.001Z</time></trkpt><trkpt lat="45.81429056194515" lon="10.791616247504471"><ele>99.16666666666667</ele><time>2026-05-01T13:06:29.999Z</time></trkpt><trkpt lat="45.81435659129825" lon="10.79158492119546"><ele>99.33333333333334</ele><time>2026-05-01T13:06:30.999Z</time></trkpt><trkpt lat="45.81441857140804" lon="10.791556905566948"><ele>99.5</ele><time>2026-05-01T13:06:31.999Z</time></trkpt><trkpt lat="45.81451183727641" lon="10.791519935604386"><ele>99.66666666666667</ele><time>2026-05-01T13:06:33.999Z</time></trkpt><trkpt lat="45.81463922022751" lon="10.791484357670685"><ele>99.83333333333334</ele><time>2026-05-01T13:06:35.999Z</time></trkpt><trkpt lat="45.814714874014406" lon="10.791463948429016"><ele>100.0</ele><time>2026-05-01T13:06:36.999Z</time></trkpt><trkpt lat="45.81478469399792" lon="10.79145431285347"><ele>100.00000000000001</ele><time>2026-05-01T13:06:37.999Z</time></trkpt><trkpt lat="45.8148626864612" lon="10.791441372397022"><ele>100.0</ele><time>2026-05-01T13:06:38.999Z</time></trkpt><trkpt lat="45.81494027954403" lon="10.791420219904234"><ele>100.0</ele><time>2026-05-01T13:06:39.999Z</time></trkpt><trkpt lat="45.81501969855104" lon="10.791431944447188"><ele>100.0</ele><time>2026-05-01T13:06:40.999Z</time></trkpt><trkpt lat="45.815097476378604" lon="10.79143729511658"><ele>100.00000000000001</ele><time>2026-05-01T13:06:41.999Z</time></trkpt><trkpt lat="45.81516623706265" lon="10.791425915422225"><ele>100.0</ele><time>2026-05-01T13:06:42.999Z</time></trkpt><trkpt lat="45.81524570628234" lon="10.791428469002621"><ele>103.83333333333334</ele><time>2026-05-01T13:06:43.999Z</time></trkpt><trkpt lat="45.8153193061058" lon="10.791441339341869"><ele>107.66666666666667</ele><time>2026-05-01T13:06:44.999Z</time></trkpt><trkpt lat="45.815389066135204" lon="10.791444310966295"><ele>111.5</ele><time>2026-05-01T13:06:45.999Z</time></trkpt><trkpt lat="45.8154644995937" lon="10.791450869529964"><ele>115.33333333333334</ele><time>2026-05-01T13:06:46.999Z</time></trkpt><trkpt lat="45.815528589645034" lon="10.791462953180375"><ele>119.16666666666667</ele><time>2026-05-01T13:06:47.999Z</time></trkpt><trkpt lat="45.815641182681944" lon="10.791516247294336"><ele>123.0</ele><time>2026-05-01T13:06:49.999Z</time></trkpt><trkpt lat="45.815765195194956" lon="10.791578616279619"><ele>123.0</ele><time>2026-05-01T13:06:52.016Z</time></trkpt><trkpt lat="45.815825195862054" lon="10.791617393981417"><ele>123.0</ele><time>2026-05-01T13:06:53.02Z</time></trkpt><trkpt lat="45.81589092993426" lon="10.791663632826285"><ele>123.0</ele><time>2026-05-01T13:06:54.019Z</time></trkpt><trkpt lat="45.815956198128234" lon="10.79171244020243"><ele>123.0</ele><time>2026-05-01T13:06:55.021Z</time></trkpt><trkpt lat="45.81705090594088" lon="10.793319465602556"><ele>122.66666666666666</ele><time>2026-05-01T13:07:17Z</time></trkpt><trkpt lat="45.81708851088621" lon="10.793421583858256"><ele>122.33333333333333</ele><time>2026-05-01T13:07:18Z</time></trkpt><trkpt lat="45.81705141509893" lon="10.793698454197907"><ele>122.0</ele><time>2026-05-01T13:07:19Z</time></trkpt><trkpt lat="45.81722964605318" lon="10.79368957001643"><ele>122.0</ele><time>2026-05-01T13:07:20Z</time></trkpt><trkpt lat="45.817231022505105" lon="10.793795601454555"><ele>121.99999999999999</ele><time>2026-05-01T13:07:21Z</time></trkpt><trkpt lat="45.81724548064722" lon="10.793975437126363"><ele>121.99999999999999</ele><time>2026-05-01T13:07:23Z</time></trkpt><trkpt lat="45.81729953247297" lon="10.794166177530307"><ele>122.0</ele><time>2026-05-01T13:07:25Z</time></trkpt><trkpt lat="45.81733461206949" lon="10.794263055555586"><ele>122.0</ele><time>2026-05-01T13:07:26Z</time></trkpt><trkpt lat="45.81738054893148" lon="10.79433329553484"><ele>122.49999999999999</ele><time>2026-05-01T13:07:27Z</time></trkpt><trkpt lat="45.81742531532361" lon="10.79441582058767"><ele>123.0</ele><time>2026-05-01T13:07:28Z</time></trkpt><trkpt lat="45.817457888336804" lon="10.794532111397508"><ele>123.5</ele><time>2026-05-01T13:07:29Z</time></trkpt><trkpt lat="45.81752379308327" lon="10.794601919160765"><ele>124.0</ele><time>2026-05-01T13:07:30Z</time></trkpt><trkpt lat="45.8175665775715" lon="10.794718521939556"><ele>124.49999999999999</ele><time>2026-05-01T13:07:31Z</time></trkpt><trkpt lat="45.81763763022885" lon="10.794791134823992"><ele>125.0</ele><time>2026-05-01T13:07:32Z</time></trkpt><trkpt lat="45.81769984426046" lon="10.794866142503103"><ele>124.99999999999999</ele><time>2026-05-01T13:07:33Z</time></trkpt><trkpt lat="45.817739240324386" lon="10.794986495067715"><ele>125.0</ele><time>2026-05-01T13:07:34Z</time></trkpt><trkpt lat="45.81779112726853" lon="10.795071290981879"><ele>125.0</ele><time>2026-05-01T13:07:35Z</time></trkpt><trkpt lat="45.817842256879615" lon="10.79515052300405"><ele>125.0</ele><time>2026-05-01T13:07:36Z</time></trkpt><trkpt lat="45.81789086984743" lon="10.79522491799484"><ele>124.99999999999999</ele><time>2026-05-01T13:07:37Z</time></trkpt><trkpt lat="45.81795394660948" lon="10.795307303746366"><ele>125.0</ele><time>2026-05-01T13:07:38Z</time></trkpt><trkpt lat="45.81802712211151" lon="10.795423302890732"><ele>120.2</ele><time>2026-05-01T13:07:39Z</time></trkpt><trkpt lat="45.818095927804706" lon="10.79554218308508"><ele>115.4</ele><time>2026-05-01T13:07:40Z</time></trkpt><trkpt lat="45.81816517723516" lon="10.795651961199319"><ele>110.6</ele><time>2026-05-01T13:07:41Z</time></trkpt><trkpt lat="45.81823197265656" lon="10.795756597893902"><ele>105.8</ele><time>2026-05-01T13:07:42.001Z</time></trkpt><trkpt lat="45.81829942864465" lon="10.79584546358739"><ele>101.0</ele><time>2026-05-01T13:07:43.001Z</time></trkpt><trkpt lat="45.8183743635819" lon="10.795931269012929"><ele>99.0</ele><time>2026-05-01T13:07:44.001Z</time></trkpt><trkpt lat="45.81845498944921" lon="10.796015047413853"><ele>97.0</ele><time>2026-05-01T13:07:45.001Z</time></trkpt><trkpt lat="45.81854511308469" lon="10.7961050422702"><ele>95.0</ele><time>2026-05-01T13:07:46.001Z</time></trkpt><trkpt lat="45.81864294566739" lon="10.796177322606876"><ele>93.0</ele><time>2026-05-01T13:07:47.001Z</time></trkpt><trkpt lat="45.81874212007637" lon="10.796261367397522"><ele>91.0</ele><time>2026-05-01T13:07:48.001Z</time></trkpt><trkpt lat="45.818837053082135" lon="10.796346463815516"><ele>95.8</ele><time>2026-05-01T13:07:49.001Z</time></trkpt><trkpt lat="45.818925799825976" lon="10.796429690217558"><ele>100.6</ele><time>2026-05-01T13:07:50.001Z</time></trkpt><trkpt lat="45.819003235622816" lon="10.79650583689815"><ele>105.4</ele><time>2026-05-01T13:07:51.001Z</time></trkpt><trkpt lat="45.819081636474884" lon="10.796582725285848"><ele>110.2</ele><time>2026-05-01T13:07:52.001Z</time></trkpt><trkpt lat="45.819163565501135" lon="10.796668754860615"><ele>115.0</ele><time>2026-05-01T13:07:53.001Z</time></trkpt><trkpt lat="45.81923653701665" lon="10.79677415276085"><ele>112.2</ele><time>2026-05-01T13:07:54.001Z</time></trkpt><trkpt lat="45.81930579408968" lon="10.796888412738504"><ele>109.4</ele><time>2026-05-01T13:07:55.001Z</time></trkpt><trkpt lat="45.81935912134137" lon="10.796997695164825"><ele>106.6</ele><time>2026-05-01T13:07:56.001Z</time></trkpt><trkpt lat="45.819410786258445" lon="10.79711683157466"><ele>103.8</ele><time>2026-05-01T13:07:58.001Z</time></trkpt><trkpt lat="45.81945646762582" lon="10.797217760641255"><ele>101.0</ele><time>2026-05-01T13:08:01.001Z</time></trkpt><trkpt lat="45.819531131507375" lon="10.797368897525383"><ele>104.0</ele><time>2026-05-01T13:08:03.001Z</time></trkpt><trkpt lat="45.81957584367098" lon="10.797441153456578"><ele>107.0</ele><time>2026-05-01T13:08:04.001Z</time></trkpt><trkpt lat="45.819614685486" lon="10.797541168018796"><ele>110.0</ele><time>2026-05-01T13:08:05.001Z</time></trkpt><trkpt lat="45.81963308800132" lon="10.797670410960441"><ele>113.0</ele><time>2026-05-01T13:08:06.001Z</time></trkpt><trkpt lat="45.819749561032516" lon="10.7978113245727"><ele>116.0</ele><time>2026-05-01T13:08:08.001Z</time></trkpt><trkpt lat="45.819789931698935" lon="10.797916291654227"><ele>116.0</ele><time>2026-05-01T13:08:09.001Z</time></trkpt><trkpt lat="45.819831811670674" lon="10.798015551339592"><ele>116.0</ele><time>2026-05-01T13:08:10.001Z</time></trkpt><trkpt lat="45.819890387617825" lon="10.7981436145704"><ele>116.0</ele><time>2026-05-01T13:08:11.001Z</time></trkpt><trkpt lat="45.819944366336166" lon="10.798261720896242"><ele>116.0</ele><time>2026-05-01T13:08:12.001Z</time></trkpt><trkpt lat="45.81999438899322" lon="10.798386307579213"><ele>116.0</ele><time>2026-05-01T13:08:13.001Z</time></trkpt><trkpt lat="45.82004210939679" lon="10.79850394432392"><ele>111.25</ele><time>2026-05-01T13:08:14.009Z</time></trkpt><trkpt lat="45.82009030918642" lon="10.798618881145684"><ele>106.5</ele><time>2026-05-01T13:08:15.009Z</time></trkpt><trkpt lat="45.82013997286086" lon="10.798735998217888"><ele>101.75</ele><time>2026-05-01T13:08:16.011Z</time></trkpt><trkpt lat="45.82019425558268" lon="10.798858340275103"><ele>97.0</ele><time>2026-05-01T13:08:17.009Z</time></trkpt><trkpt lat="45.82092053726858" lon="10.79961293377988"><ele>105.25</ele><time>2026-05-01T13:08:23.001Z</time></trkpt><trkpt lat="45.82102105281443" lon="10.799727992637596"><ele>113.5</ele><time>2026-05-01T13:08:24.001Z</time></trkpt><trkpt lat="45.821054229361785" lon="10.799924943358253"><ele>121.75</ele><time>2026-05-01T13:08:25.001Z</time></trkpt><trkpt lat="45.82116237411591" lon="10.80003323865531"><ele>130.0</ele><time>2026-05-01T13:08:26.001Z</time></trkpt><trkpt lat="45.821241178871446" lon="10.800133772433128"><ele>126.6</ele><time>2026-05-01T13:08:27.001Z</time></trkpt><trkpt lat="45.821308819274286" lon="10.800236458260647"><ele>123.2</ele><time>2026-05-01T13:08:28.001Z</time></trkpt><trkpt lat="45.82138197832743" lon="10.800332007772099"><ele>119.80000000000001</ele><time>2026-05-01T13:08:29.001Z</time></trkpt><trkpt lat="45.821435406623145" lon="10.800495020956257"><ele>116.4</ele><time>2026-05-01T13:08:30.001Z</time></trkpt><trkpt lat="45.821488566784524" lon="10.800645248423002"><ele>113.0</ele><time>2026-05-01T13:08:31.001Z</time></trkpt><trkpt lat="45.8215417457543" lon="10.8008051846827"><ele>113.0</ele><time>2026-05-01T13:08:32.001Z</time></trkpt><trkpt lat="45.82158656356257" lon="10.800964438633386"><ele>113.0</ele><time>2026-05-01T13:08:33.001Z</time></trkpt><trkpt lat="45.82162573281423" lon="10.801136108738497"><ele>113.0</ele><time>2026-05-01T13:08:34.001Z</time></trkpt><trkpt lat="45.82164891966914" lon="10.801299612003524"><ele>113.0</ele><time>2026-05-01T13:08:34.999Z</time></trkpt><trkpt lat="45.82166118774039" lon="10.801477422109581"><ele>113.0</ele><time>2026-05-01T13:08:35.999Z</time></trkpt><trkpt lat="45.82166295370129" lon="10.801650189276451"><ele>113.0</ele><time>2026-05-01T13:08:36.999Z</time></trkpt><trkpt lat="45.82165375098525" lon="10.801829793168904"><ele>113.0</ele><time>2026-05-01T13:08:37.999Z</time></trkpt><trkpt lat="45.82166361102298" lon="10.802006254075772"><ele>113.0</ele><time>2026-05-01T13:08:38.999Z</time></trkpt><trkpt lat="45.821650743133205" lon="10.802179168057995"><ele>113.25</ele><time>2026-05-01T13:08:39.999Z</time></trkpt><trkpt lat="45.82164892779965" lon="10.802352084057194"><ele>113.5</ele><time>2026-05-01T13:08:40.999Z</time></trkpt><trkpt lat="45.821660648172575" lon="10.80251916606894"><ele>113.75</ele><time>2026-05-01T13:08:41.999Z</time></trkpt><trkpt lat="45.82165546545531" lon="10.802691839315603"><ele>114.0</ele><time>2026-05-01T13:08:42.999Z</time></trkpt><trkpt lat="45.821685702049805" lon="10.802862479159062"><ele>113.2</ele><time>2026-05-01T13:08:43.999Z</time></trkpt><trkpt lat="45.82172105177588" lon="10.80301049402167"><ele>112.4</ele><time>2026-05-01T13:08:44.999Z</time></trkpt><trkpt lat="45.82176528705457" lon="10.803150553016716"><ele>111.6</ele><time>2026-05-01T13:08:45.999Z</time></trkpt><trkpt lat="45.82181592754045" lon="10.803290558008715"><ele>110.8</ele><time>2026-05-01T13:08:46.999Z</time></trkpt><trkpt lat="45.82186909764405" lon="10.803434038565161"><ele>110.0</ele><time>2026-05-01T13:08:47.999Z</time></trkpt><trkpt lat="45.82192105602906" lon="10.803574249300116"><ele>115.4</ele><time>2026-05-01T13:08:48.999Z</time></trkpt><trkpt lat="45.821989344845804" lon="10.803707215387114"><ele>120.8</ele><time>2026-05-01T13:08:49.999Z</time></trkpt><trkpt lat="45.8220332853758" lon="10.803841342935588"><ele>126.19999999999999</ele><time>2026-05-01T13:08:50.999Z</time></trkpt><trkpt lat="45.82207454838418" lon="10.80397664045273"><ele>131.6</ele><time>2026-05-01T13:08:51.999Z</time></trkpt><trkpt lat="45.82212172659535" lon="10.804109580778944"><ele>137.0</ele><time>2026-05-01T13:08:52.999Z</time></trkpt><trkpt lat="45.8221631011033" lon="10.804226060890068"><ele>133.6</ele><time>2026-05-01T13:08:53.999Z</time></trkpt><trkpt lat="45.82221515456953" lon="10.804333553843659"><ele>130.2</ele><time>2026-05-01T13:08:54.999Z</time></trkpt><trkpt lat="45.822276139726824" lon="10.804441287216719"><ele>126.8</ele><time>2026-05-01T13:08:55.999Z</time></trkpt><trkpt lat="45.82234469260639" lon="10.804552814152165"><ele>123.4</ele><time>2026-05-01T13:08:56.999Z</time></trkpt><trkpt lat="45.82241594265824" lon="10.804669137966362"><ele>120.0</ele><time>2026-05-01T13:08:57.999Z</time></trkpt><trkpt lat="45.822481340815166" lon="10.804795466096975"><ele>120.0</ele><time>2026-05-01T13:08:58.999Z</time></trkpt><trkpt lat="45.82253915528451" lon="10.804923509725542"><ele>120.0</ele><time>2026-05-01T13:08:59.999Z</time></trkpt><trkpt lat="45.82259047248252" lon="10.805050879852656"><ele>120.0</ele><time>2026-05-01T13:09:00.999Z</time></trkpt><trkpt lat="45.82264221234861" lon="10.805176251386081"><ele>120.0</ele><time>2026-05-01T13:09:02Z</time></trkpt><trkpt lat="45.82268447464441" lon="10.805326218889563"><ele>120.0</ele><time>2026-05-01T13:09:03Z</time></trkpt><trkpt lat="45.82274072998933" lon="10.805493932534656"><ele>132.5</ele><time>2026-05-01T13:09:04Z</time></trkpt><trkpt lat="45.82278593624066" lon="10.805664748130512"><ele>145.0</ele><time>2026-05-01T13:09:05Z</time></trkpt><trkpt lat="45.82282046698506" lon="10.805821552325295"><ele>157.5</ele><time>2026-05-01T13:09:06Z</time></trkpt><trkpt lat="45.82285114084806" lon="10.805966766506454"><ele>170.0</ele><time>2026-05-01T13:09:07Z</time></trkpt><trkpt lat="45.82289580763565" lon="10.80612478421695"><ele>170.0</ele><time>2026-05-01T13:09:08Z</time></trkpt><trkpt lat="45.82292643241794" lon="10.806286831605973"><ele>170.0</ele><time>2026-05-01T13:09:09Z</time></trkpt><trkpt lat="45.822945964561164" lon="10.80644620761153"><ele>170.0</ele><time>2026-05-01T13:09:10.009Z</time></trkpt><trkpt lat="45.82297067848631" lon="10.806602780114124"><ele>170.0</ele><time>2026-05-01T13:09:11.009Z</time></trkpt><trkpt lat="45.822993456580996" lon="10.80675921359538"><ele>158.33333333333331</ele><time>2026-05-01T13:09:12.009Z</time></trkpt><trkpt lat="45.82302560528368" lon="10.806923039605445"><ele>146.66666666666666</ele><time>2026-05-01T13:09:13.01Z</time></trkpt><trkpt lat="45.823054242723366" lon="10.807083952541584"><ele>135.0</ele><time>2026-05-01T13:09:14.013Z</time></trkpt><trkpt lat="45.82323195798286" lon="10.807690350332186"><ele>127.8</ele><time>2026-05-01T13:09:17Z</time></trkpt><trkpt lat="45.82328112250179" lon="10.807837937940773"><ele>120.6</ele><time>2026-05-01T13:09:18Z</time></trkpt><trkpt lat="45.82331486823476" lon="10.80792707608052"><ele>113.4</ele><time>2026-05-01T13:09:19Z</time></trkpt><trkpt lat="45.82335372787739" lon="10.808017764496558"><ele>106.2</ele><time>2026-05-01T13:09:20Z</time></trkpt><trkpt lat="45.823417190837645" lon="10.80815088756038"><ele>99.0</ele><time>2026-05-01T13:09:21Z</time></trkpt><trkpt lat="45.82347919036633" lon="10.80827211620072"><ele>105.25</ele><time>2026-05-01T13:09:22Z</time></trkpt><trkpt lat="45.82355705813614" lon="10.808398283153439"><ele>111.5</ele><time>2026-05-01T13:09:23Z</time></trkpt><trkpt lat="45.82364144526593" lon="10.80850469786584"><ele>117.75</ele><time>2026-05-01T13:09:24Z</time></trkpt><trkpt lat="45.82376699297153" lon="10.8086662919986"><ele>124.0</ele><time>2026-05-01T13:09:25Z</time></trkpt><trkpt lat="45.82387328978437" lon="10.808786165482884"><ele>124.0</ele><time>2026-05-01T13:09:26Z</time></trkpt><trkpt lat="45.82396680837179" lon="10.808894791188495"><ele>124.0</ele><time>2026-05-01T13:09:27Z</time></trkpt><trkpt lat="45.8240400234283" lon="10.80899224030262"><ele>124.0</ele><time>2026-05-01T13:09:28Z</time></trkpt><trkpt lat="45.824111541702095" lon="10.809126058891996"><ele>124.0</ele><time>2026-05-01T13:09:29Z</time></trkpt><trkpt lat="45.82416188890977" lon="10.809241176469872"><ele>124.0</ele><time>2026-05-01T13:09:30Z</time></trkpt><trkpt lat="45.82420294403442" lon="10.809412895241053"><ele>120.0</ele><time>2026-05-01T13:09:31Z</time></trkpt><trkpt lat="45.82422420851668" lon="10.809582437376863"><ele>116.0</ele><time>2026-05-01T13:09:32Z</time></trkpt><trkpt lat="45.8242234571356" lon="10.8097408632678"><ele>112.0</ele><time>2026-05-01T13:09:33Z</time></trkpt><trkpt lat="45.82421106311379" lon="10.809899954313652"><ele>108.0</ele><time>2026-05-01T13:09:34Z</time></trkpt><trkpt lat="45.82419241319479" lon="10.810063143300738"><ele>107.75</ele><time>2026-05-01T13:09:35Z</time></trkpt><trkpt lat="45.82418962249346" lon="10.810246151269215"><ele>107.5</ele><time>2026-05-01T13:09:36Z</time></trkpt><trkpt lat="45.82419906085243" lon="10.810437452251158"><ele>107.25</ele><time>2026-05-01T13:09:37Z</time></trkpt><trkpt lat="45.82421148498503" lon="10.810627637028668"><ele>107.0</ele><time>2026-05-01T13:09:38Z</time></trkpt><trkpt lat="45.824244526893665" lon="10.810821026307787"><ele>105.66666666666666</ele><time>2026-05-01T13:09:39.001Z</time></trkpt><trkpt lat="45.82428897956099" lon="10.811041344741117"><ele>104.33333333333334</ele><time>2026-05-01T13:09:40.001Z</time></trkpt><trkpt lat="45.82432017640596" lon="10.811274293010628"><ele>103.0</ele><time>2026-05-01T13:09:41.001Z</time></trkpt><trkpt lat="45.824372694987055" lon="10.811507039619277"><ele>111.66666666666667</ele><time>2026-05-01T13:09:42.001Z</time></trkpt><trkpt lat="45.824435231012714" lon="10.811789073912092"><ele>120.33333333333334</ele><time>2026-05-01T13:09:43.001Z</time></trkpt><trkpt lat="45.82449512185274" lon="10.812054012708002"><ele>129.0</ele><time>2026-05-01T13:09:44.001Z</time></trkpt><trkpt lat="45.824548753569786" lon="10.81228848067183"><ele>129.0</ele><time>2026-05-01T13:09:45.001Z</time></trkpt><trkpt lat="45.824600671658956" lon="10.81251559722877"><ele>129.0</ele><time>2026-05-01T13:09:46.001Z</time></trkpt><trkpt lat="45.824668922696176" lon="10.812747928819896"><ele>129.0</ele><time>2026-05-01T13:09:47.001Z</time></trkpt><trkpt lat="45.824722805907555" lon="10.812958692076572"><ele>126.33333333333334</ele><time>2026-05-01T13:09:48.001Z</time></trkpt><trkpt lat="45.82480022559732" lon="10.813160956939084"><ele>123.66666666666667</ele><time>2026-05-01T13:09:49.001Z</time></trkpt><trkpt lat="45.82490078425006" lon="10.813332184250836"><ele>121.0</ele><time>2026-05-01T13:09:50.001Z</time></trkpt><trkpt lat="45.825008833930106" lon="10.813483412294374"><ele>122.75</ele><time>2026-05-01T13:09:51.001Z</time></trkpt><trkpt lat="45.82512396323302" lon="10.813613757340768"><ele>124.5</ele><time>2026-05-01T13:09:52.001Z</time></trkpt><trkpt lat="45.82524644749843" lon="10.813732932611476"><ele>126.25</ele><time>2026-05-01T13:09:53.001Z</time></trkpt><trkpt lat="45.82536812787463" lon="10.81386100945644"><ele>128.0</ele><time>2026-05-01T13:09:54.001Z</time></trkpt><trkpt lat="45.8254778361418" lon="10.813997506312663"><ele>128.0</ele><time>2026-05-01T13:09:55.001Z</time></trkpt><trkpt lat="45.82555854600766" lon="10.814171908273373"><ele>128.0</ele><time>2026-05-01T13:09:56.001Z</time></trkpt><trkpt lat="45.82565059244352" lon="10.814336873885345"><ele>128.0</ele><time>2026-05-01T13:09:57.001Z</time></trkpt><trkpt lat="45.82574152766999" lon="10.814499796863661"><ele>128.0</ele><time>2026-05-01T13:09:58.001Z</time></trkpt><trkpt lat="45.8258368247139" lon="10.814657306916878"><ele>124.75</ele><time>2026-05-01T13:09:59.001Z</time></trkpt><trkpt lat="45.825909675893676" lon="10.814837190116204"><ele>121.5</ele><time>2026-05-01T13:10:00.001Z</time></trkpt><trkpt lat="45.82597666271344" lon="10.815015499019804"><ele>118.25</ele><time>2026-05-01T13:10:01.001Z</time></trkpt><trkpt lat="45.82605765494746" lon="10.815192833104545"><ele>115.0</ele><time>2026-05-01T13:10:02.001Z</time></trkpt><trkpt lat="45.82616101200756" lon="10.815346807703554"><ele>115.0</ele><time>2026-05-01T13:10:03.001Z</time></trkpt><trkpt lat="45.826265276932155" lon="10.815490575510601"><ele>115.0</ele><time>2026-05-01T13:10:04.001Z</time></trkpt><trkpt lat="45.826385337124364" lon="10.815612628675552"><ele>115.0</ele><time>2026-05-01T13:10:05.001Z</time></trkpt><trkpt lat="45.82651219136728" lon="10.815723809719396"><ele>115.0</ele><time>2026-05-01T13:10:06.001Z</time></trkpt><trkpt lat="45.82664099075823" lon="10.8158296277603"><ele>115.0</ele><time>2026-05-01T13:10:07.001Z</time></trkpt><trkpt lat="45.826766643385255" lon="10.815932700180758"><ele>115.0</ele><time>2026-05-01T13:10:08.001Z</time></trkpt><trkpt lat="45.82687962997341" lon="10.81606818418984"><ele>115.0</ele><time>2026-05-01T13:10:09.001Z</time></trkpt><trkpt lat="45.827001445809636" lon="10.816185365864463"><ele>115.0</ele><time>2026-05-01T13:10:10.001Z</time></trkpt><trkpt lat="45.827130448881555" lon="10.816284709663812"><ele>113.5</ele><time>2026-05-01T13:10:11.001Z</time></trkpt><trkpt lat="45.82722453544589" lon="10.816444415484533"><ele>112.0</ele><time>2026-05-01T13:10:12.001Z</time></trkpt><trkpt lat="45.82731785188371" lon="10.816596533647834"><ele>110.5</ele><time>2026-05-01T13:10:13.001Z</time></trkpt><trkpt lat="45.82740564991491" lon="10.816761631532966"><ele>109.0</ele><time>2026-05-01T13:10:14.001Z</time></trkpt><trkpt lat="45.82749650360912" lon="10.816921308218317"><ele>109.0</ele><time>2026-05-01T13:10:15.001Z</time></trkpt><trkpt lat="45.82756738212813" lon="10.817102606182711"><ele>109.0</ele><time>2026-05-01T13:10:16.001Z</time></trkpt><trkpt lat="45.82762704698787" lon="10.817288963019886"><ele>109.0</ele><time>2026-05-01T13:10:17.001Z</time></trkpt><trkpt lat="45.82767186619602" lon="10.81749117544646"><ele>109.0</ele><time>2026-05-01T13:10:18.001Z</time></trkpt><trkpt lat="45.827704934080586" lon="10.817692928493647"><ele>117.25</ele><time>2026-05-01T13:10:19.001Z</time></trkpt><trkpt lat="45.827716410905495" lon="10.817890031288643"><ele>125.5</ele><time>2026-05-01T13:10:20.001Z</time></trkpt><trkpt lat="45.82772013415148" lon="10.818081932701366"><ele>133.75</ele><time>2026-05-01T13:10:21.001Z</time></trkpt><trkpt lat="45.82771426827519" lon="10.818274395431123"><ele>142.0</ele><time>2026-05-01T13:10:22.001Z</time></trkpt><trkpt lat="45.827708638732545" lon="10.818469287645204"><ele>140.5</ele><time>2026-05-01T13:10:23.001Z</time></trkpt><trkpt lat="45.827693328434364" lon="10.818666749815161"><ele>139.0</ele><time>2026-05-01T13:10:24.001Z</time></trkpt><trkpt lat="45.827694432449924" lon="10.818863586079642"><ele>137.5</ele><time>2026-05-01T13:10:25.001Z</time></trkpt><trkpt lat="45.82769322405476" lon="10.819055387536498"><ele>136.0</ele><time>2026-05-01T13:10:26.001Z</time></trkpt><trkpt lat="45.82770296713071" lon="10.819248873830198"><ele>133.25</ele><time>2026-05-01T13:10:27.002Z</time></trkpt><trkpt lat="45.827722309351444" lon="10.819437406236128"><ele>130.5</ele><time>2026-05-01T13:10:28.002Z</time></trkpt><trkpt lat="45.82774756483071" lon="10.819607285659774"><ele>127.75</ele><time>2026-05-01T13:10:29.002Z</time></trkpt><trkpt lat="45.82777662822687" lon="10.819762476433443"><ele>125.0</ele><time>2026-05-01T13:10:30.002Z</time></trkpt><trkpt lat="45.82781315255516" lon="10.819912773922088"><ele>125.0</ele><time>2026-05-01T13:10:31.002Z</time></trkpt><trkpt lat="45.82784678954205" lon="10.820060509341943"><ele>125.0</ele><time>2026-05-01T13:10:32.002Z</time></trkpt><trkpt lat="45.827898482740245" lon="10.820197323255833"><ele>125.0</ele><time>2026-05-01T13:10:33.002Z</time></trkpt><trkpt lat="45.827949757222676" lon="10.820320535024518"><ele>125.0</ele><time>2026-05-01T13:10:34.002Z</time></trkpt><trkpt lat="45.828001709486045" lon="10.820433969617346"><ele>125.0</ele><time>2026-05-01T13:10:35.002Z</time></trkpt><trkpt lat="45.828049434040594" lon="10.820544772115728"><ele>120.2</ele><time>2026-05-01T13:10:36.002Z</time></trkpt><trkpt lat="45.82811048348872" lon="10.820653753242045"><ele>115.4</ele><time>2026-05-01T13:10:37.002Z</time></trkpt><trkpt lat="45.82816526440859" lon="10.820760279216938"><ele>110.6</ele><time>2026-05-01T13:10:38.002Z</time></trkpt><trkpt lat="45.82822686808782" lon="10.820856541225954"><ele>105.8</ele><time>2026-05-01T13:10:39.002Z</time></trkpt><trkpt lat="45.828289004313994" lon="10.820942858416462"><ele>101.0</ele><time>2026-05-01T13:10:40.002Z</time></trkpt><trkpt lat="45.82835389185563" lon="10.821022799149464"><ele>103.19999999999999</ele><time>2026-05-01T13:10:40.999Z</time></trkpt><trkpt lat="45.8284316440857" lon="10.821103159081133"><ele>105.39999999999999</ele><time>2026-05-01T13:10:41.999Z</time></trkpt><trkpt lat="45.82851288430381" lon="10.821185683471468"><ele>107.6</ele><time>2026-05-01T13:10:42.999Z</time></trkpt><trkpt lat="45.828587219036145" lon="10.821259516510853"><ele>109.8</ele><time>2026-05-01T13:10:43.999Z</time></trkpt><trkpt lat="45.82865835465812" lon="10.82133301380259"><ele>112.0</ele><time>2026-05-01T13:10:44.999Z</time></trkpt><trkpt lat="45.82872458642118" lon="10.821405518950703"><ele>112.00000000000001</ele><time>2026-05-01T13:10:45.999Z</time></trkpt><trkpt lat="45.82878707502366" lon="10.821481750442256"><ele>112.0</ele><time>2026-05-01T13:10:46.999Z</time></trkpt><trkpt lat="45.82884872359657" lon="10.82155499253295"><ele>112.0</ele><time>2026-05-01T13:10:47.999Z</time></trkpt><trkpt lat="45.828911913713455" lon="10.821636834674674"><ele>112.0</ele><time>2026-05-01T13:10:48.999Z</time></trkpt><trkpt lat="45.82897806808734" lon="10.821735397879781"><ele>112.00000000000001</ele><time>2026-05-01T13:10:49.999Z</time></trkpt><trkpt lat="45.8290493511414" lon="10.821840743417802"><ele>112.0</ele><time>2026-05-01T13:10:50.999Z</time></trkpt><trkpt lat="45.82911537841174" lon="10.821944251436193"><ele>110.75</ele><time>2026-05-01T13:10:51.999Z</time></trkpt><trkpt lat="45.82918799821476" lon="10.822047208245616"><ele>109.5</ele><time>2026-05-01T13:10:52.999Z</time></trkpt><trkpt lat="45.829256316905564" lon="10.822148069332435"><ele>108.25</ele><time>2026-05-01T13:10:54.019Z</time></trkpt><trkpt lat="45.82932844317851" lon="10.822249275552666"><ele>107.0</ele><time>2026-05-01T13:10:55.013Z</time></trkpt><trkpt lat="45.829467503684185" lon="10.822451823160383"><ele>107.0</ele><time>2026-05-01T13:10:57Z</time></trkpt><trkpt lat="45.829561059713996" lon="10.822557215541153"><ele>107.0</ele><time>2026-05-01T13:10:58Z</time></trkpt><trkpt lat="45.82973951166931" lon="10.822523216666823"><ele>107.0</ele><time>2026-05-01T13:10:59Z</time></trkpt><trkpt lat="45.82984823023778" lon="10.822578286691803"><ele>107.0</ele><time>2026-05-01T13:11:00Z</time></trkpt><trkpt lat="45.829925753188434" lon="10.82261790378656"><ele>103.39999999999999</ele><time>2026-05-01T13:11:01Z</time></trkpt><trkpt lat="45.83003360721532" lon="10.82267333548617"><ele>99.79999999999998</ele><time>2026-05-01T13:11:02Z</time></trkpt><trkpt lat="45.830120907952136" lon="10.822718203858884"><ele>96.2</ele><time>2026-05-01T13:11:03Z</time></trkpt><trkpt lat="45.83020723364577" lon="10.82276257106846"><ele>92.6</ele><time>2026-05-01T13:11:04Z</time></trkpt><trkpt lat="45.83029231475677" lon="10.822809461094408"><ele>89.0</ele><time>2026-05-01T13:11:05Z</time></trkpt><trkpt lat="45.83038349913663" lon="10.822839215037412"><ele>89.0</ele><time>2026-05-01T13:11:06Z</time></trkpt><trkpt lat="45.83047324971413" lon="10.822881978194099"><ele>89.0</ele><time>2026-05-01T13:11:07Z</time></trkpt><trkpt lat="45.83057078912421" lon="10.822945553233508"><ele>89.0</ele><time>2026-05-01T13:11:08Z</time></trkpt><trkpt lat="45.83066867368114" lon="10.822990559173956"><ele>89.0</ele><time>2026-05-01T13:11:09Z</time></trkpt><trkpt lat="45.830762228627" lon="10.823039504610376"><ele>89.0</ele><time>2026-05-01T13:11:10Z</time></trkpt><trkpt lat="45.830854903092515" lon="10.823085956917915"><ele>89.0</ele><time>2026-05-01T13:11:11Z</time></trkpt><trkpt lat="45.83095164286729" lon="10.8231437457173"><ele>89.0</ele><time>2026-05-01T13:11:12Z</time></trkpt><trkpt lat="45.831048344980964" lon="10.823221419974963"><ele>89.0</ele><time>2026-05-01T13:11:13Z</time></trkpt><trkpt lat="45.83113701926804" lon="10.82333197372897"><ele>89.0</ele><time>2026-05-01T13:11:14Z</time></trkpt><trkpt lat="45.83122434390705" lon="10.823430891171645"><ele>89.0</ele><time>2026-05-01T13:11:15Z</time></trkpt><trkpt lat="45.83130956179474" lon="10.823534468073802"><ele>89.2</ele><time>2026-05-01T13:11:16Z</time></trkpt><trkpt lat="45.83138522502944" lon="10.823633555671226"><ele>89.4</ele><time>2026-05-01T13:11:17Z</time></trkpt><trkpt lat="45.831451491060406" lon="10.823761079351547"><ele>89.6</ele><time>2026-05-01T13:11:18Z</time></trkpt><trkpt lat="45.831521561672524" lon="10.823868638035822"><ele>89.8</ele><time>2026-05-01T13:11:19Z</time></trkpt><trkpt lat="45.831585830372155" lon="10.823972485113238"><ele>90.0</ele><time>2026-05-01T13:11:20Z</time></trkpt><trkpt lat="45.831653749724936" lon="10.824071139796446"><ele>90.0</ele><time>2026-05-01T13:11:21Z</time></trkpt><trkpt lat="45.83171881463553" lon="10.824164027839062"><ele>90.0</ele><time>2026-05-01T13:11:22Z</time></trkpt><trkpt lat="45.831779521895186" lon="10.824253180972672"><ele>90.0</ele><time>2026-05-01T13:11:23Z</time></trkpt><trkpt lat="45.831840363625886" lon="10.824332852774493"><ele>90.0</ele><time>2026-05-01T13:11:24Z</time></trkpt><trkpt lat="45.831886003930606" lon="10.824435046490414"><ele>90.0</ele><time>2026-05-01T13:11:25Z</time></trkpt><trkpt lat="45.83195617766204" lon="10.824520953426793"><ele>90.0</ele><time>2026-05-01T13:11:26Z</time></trkpt><trkpt lat="45.83203114513353" lon="10.824611978619318"><ele>89.83333333333333</ele><time>2026-05-01T13:11:27Z</time></trkpt><trkpt lat="45.832097221594914" lon="10.824686140954597"><ele>89.66666666666667</ele><time>2026-05-01T13:11:28Z</time></trkpt><trkpt lat="45.83216835222234" lon="10.824747357686755"><ele>89.5</ele><time>2026-05-01T13:11:29Z</time></trkpt><trkpt lat="45.832240675808244" lon="10.8247967540336"><ele>89.33333333333334</ele><time>2026-05-01T13:11:30Z</time></trkpt><trkpt lat="45.832310563959915" lon="10.824857847155625"><ele>89.16666666666667</ele><time>2026-05-01T13:11:31Z</time></trkpt><trkpt lat="45.83238039430149" lon="10.824891086133333"><ele>89.0</ele><time>2026-05-01T13:11:32.001Z</time></trkpt><trkpt lat="45.832457527651556" lon="10.824939543133237"><ele>89.0</ele><time>2026-05-01T13:11:33.001Z</time></trkpt><trkpt lat="45.832517984590034" lon="10.8249697963456"><ele>89.0</ele><time>2026-05-01T13:11:34.001Z</time></trkpt><trkpt lat="45.83258964822919" lon="10.8250078904115"><ele>89.0</ele><time>2026-05-01T13:11:35.001Z</time></trkpt><trkpt lat="45.83266727360253" lon="10.825048654427839"><ele>89.0</ele><time>2026-05-01T13:11:36.01Z</time></trkpt><trkpt lat="45.83273628865409" lon="10.825085533359987"><ele>89.0</ele><time>2026-05-01T13:11:37.011Z</time></trkpt><trkpt lat="45.83281169549327" lon="10.825126089269345"><ele>89.0</ele><time>2026-05-01T13:11:38.001Z</time></trkpt><trkpt lat="45.83291621552907" lon="10.825178379396748"><ele>85.0</ele><time>2026-05-01T13:11:39.001Z</time></trkpt><trkpt lat="45.832983481173635" lon="10.825211697276675"><ele>81.0</ele><time>2026-05-01T13:11:40.001Z</time></trkpt><trkpt lat="45.8330588253392" lon="10.825261637097672"><ele>77.0</ele><time>2026-05-01T13:11:41.001Z</time></trkpt><trkpt lat="45.833137878671636" lon="10.825292303097301"><ele>73.0</ele><time>2026-05-01T13:11:42.001Z</time></trkpt><trkpt lat="45.833211200040594" lon="10.825309654965023"><ele>69.0</ele><time>2026-05-01T13:11:43.001Z</time></trkpt><trkpt lat="45.83328222899253" lon="10.82532852565802"><ele>65.0</ele><time>2026-05-01T13:11:44.001Z</time></trkpt><trkpt lat="45.83336027774771" lon="10.82535092977475"><ele>65.00000000000001</ele><time>2026-05-01T13:11:45.001Z</time></trkpt><trkpt lat="45.83343174657818" lon="10.825379663683872"><ele>65.0</ele><time>2026-05-01T13:11:46.001Z</time></trkpt><trkpt lat="45.8334996981938" lon="10.825394109740643"><ele>65.0</ele><time>2026-05-01T13:11:47.001Z</time></trkpt><trkpt lat="45.83356552664854" lon="10.825428758895322"><ele>65.0</ele><time>2026-05-01T13:11:48.001Z</time></trkpt><trkpt lat="45.83363208132197" lon="10.82545025111248"><ele>65.0</ele><time>2026-05-01T13:11:49.001Z</time></trkpt><trkpt lat="45.83369597975677" lon="10.82546973627101"><ele>65.00000000000001</ele><time>2026-05-01T13:11:50.001Z</time></trkpt><trkpt lat="45.8337583330054" lon="10.825492127266495"><ele>65.0</ele><time>2026-05-01T13:11:51.001Z</time></trkpt><trkpt lat="45.8338257599144" lon="10.825494317369014"><ele>64.5</ele><time>2026-05-01T13:11:52.001Z</time></trkpt><trkpt lat="45.83389863844662" lon="10.825503149808963"><ele>64.0</ele><time>2026-05-01T13:11:53.001Z</time></trkpt><trkpt lat="45.83397244076463" lon="10.825503042660442"><ele>63.5</ele><time>2026-05-01T13:11:54.001Z</time></trkpt><trkpt lat="45.83406290079629" lon="10.825498578624396"><ele>63.0</ele><time>2026-05-01T13:11:55.001Z</time></trkpt><trkpt lat="45.834149076591885" lon="10.825529514145172"><ele>62.50000000000001</ele><time>2026-05-01T13:11:56.001Z</time></trkpt><trkpt lat="45.83426335503373" lon="10.8255246358724"><ele>62.0</ele><time>2026-05-01T13:11:57.001Z</time></trkpt><trkpt lat="45.83437679052091" lon="10.82550373503564"><ele>62.0</ele><time>2026-05-01T13:11:58.001Z</time></trkpt><trkpt lat="45.83449248111501" lon="10.825499592991548"><ele>62.0</ele><time>2026-05-01T13:11:59.001Z</time></trkpt><trkpt lat="45.83460982143069" lon="10.825494583703948"><ele>62.0</ele><time>2026-05-01T13:12:00.02Z</time></trkpt><trkpt lat="45.834723869001216" lon="10.825492752346847"><ele>62.0</ele><time>2026-05-01T13:12:01.012Z</time></trkpt><trkpt lat="45.83485090581587" lon="10.825483816000018"><ele>62.0</ele><time>2026-05-01T13:12:02.02Z</time></trkpt><trkpt lat="45.835008672551304" lon="10.825459020580793"><ele>62.0</ele><time>2026-05-01T13:12:03.011Z</time></trkpt><trkpt lat="45.83515155875996" lon="10.825436848430703"><ele>62.0</ele><time>2026-05-01T13:12:04.012Z</time></trkpt><trkpt lat="45.83528299390196" lon="10.825421599644049"><ele>62.0</ele><time>2026-05-01T13:12:05.012Z</time></trkpt><trkpt lat="45.83690037889571" lon="10.825288257052861"><ele>95.0</ele><time>2026-05-01T13:12:08.67Z</time></trkpt><trkpt lat="45.83874171094284" lon="10.825888293062013"><ele>62.0</ele><time>2026-05-01T13:12:11.672Z</time></trkpt><trkpt lat="45.83794761971019" lon="10.825728888586545"><ele>62.0</ele><time>2026-05-01T13:12:25.002Z</time></trkpt><trkpt lat="45.83808043117785" lon="10.825735885377188"><ele>62.0</ele><time>2026-05-01T13:12:26.002Z</time></trkpt><trkpt lat="45.838207396605625" lon="10.825820166491546"><ele>62.0</ele><time>2026-05-01T13:12:27.002Z</time></trkpt><trkpt lat="45.838345147547656" lon="10.825855747301857"><ele>62.0</ele><time>2026-05-01T13:12:28.002Z</time></trkpt><trkpt lat="45.838471497033765" lon="10.825873757590601"><ele>70.25</ele><time>2026-05-01T13:12:29.002Z</time></trkpt><trkpt lat="45.83859707169225" lon="10.825902001502715"><ele>78.5</ele><time>2026-05-01T13:12:30.002Z</time></trkpt><trkpt lat="45.83872227053806" lon="10.825915030697734"><ele>86.75</ele><time>2026-05-01T13:12:31.002Z</time></trkpt><trkpt lat="45.838849841068715" lon="10.825940897424752"><ele>95.0</ele><time>2026-05-01T13:12:32.002Z</time></trkpt><trkpt lat="45.83896818761547" lon="10.825970395269366"><ele>86.75</ele><time>2026-05-01T13:12:33.002Z</time></trkpt><trkpt lat="45.83908952378868" lon="10.826001491510995"><ele>78.5</ele><time>2026-05-01T13:12:34.009Z</time></trkpt><trkpt lat="45.839211699869594" lon="10.826031263529748"><ele>70.25</ele><time>2026-05-01T13:12:35.01Z</time></trkpt><trkpt lat="45.83933295160126" lon="10.826059507698957"><ele>62.0</ele><time>2026-05-01T13:12:36.002Z</time></trkpt><trkpt lat="45.83947842944242" lon="10.826081112082361"><ele>62.0</ele><time>2026-05-01T13:12:37.002Z</time></trkpt><trkpt lat="45.83958977709057" lon="10.8260841176002"><ele>62.0</ele><time>2026-05-01T13:12:38.002Z</time></trkpt><trkpt lat="45.839714715281" lon="10.826051457048225"><ele>62.0</ele><time>2026-05-01T13:12:39.002Z</time></trkpt><trkpt lat="45.839844204512126" lon="10.826046765981198"><ele>62.0</ele><time>2026-05-01T13:12:40.002Z</time></trkpt><trkpt lat="45.83995923665167" lon="10.826023132186018"><ele>62.0</ele><time>2026-05-01T13:12:41.002Z</time></trkpt><trkpt lat="45.840063830184384" lon="10.825998578037265"><ele>62.0</ele><time>2026-05-01T13:12:42.002Z</time></trkpt><trkpt lat="45.84016628994525" lon="10.826008460444495"><ele>62.0</ele><time>2026-05-01T13:12:43.002Z</time></trkpt><trkpt lat="45.84026377260822" lon="10.825974158161088"><ele>62.0</ele><time>2026-05-01T13:12:44.002Z</time></trkpt><trkpt lat="45.84037818085965" lon="10.825924585633688"><ele>62.0</ele><time>2026-05-01T13:12:45.002Z</time></trkpt><trkpt lat="45.84047185764278" lon="10.825861353826483"><ele>66.2</ele><time>2026-05-01T13:12:46.002Z</time></trkpt><trkpt lat="45.840554567574294" lon="10.825849585263173"><ele>70.4</ele><time>2026-05-01T13:12:47Z</time></trkpt><trkpt lat="45.84065180796455" lon="10.825823846020233"><ele>74.60000000000001</ele><time>2026-05-01T13:12:48Z</time></trkpt><trkpt lat="45.84075054384419" lon="10.825805262123335"><ele>78.80000000000001</ele><time>2026-05-01T13:12:49Z</time></trkpt><trkpt lat="45.840843855133436" lon="10.825793635647154"><ele>83.0</ele><time>2026-05-01T13:12:50Z</time></trkpt><trkpt lat="45.84094655553433" lon="10.82578242215092"><ele>84.80000000000001</ele><time>2026-05-01T13:12:51Z</time></trkpt><trkpt lat="45.841050449579505" lon="10.82579865104304"><ele>86.6</ele><time>2026-05-01T13:12:52Z</time></trkpt><trkpt lat="45.841154061862206" lon="10.825803130869152"><ele>88.4</ele><time>2026-05-01T13:12:53Z</time></trkpt><trkpt lat="45.84125870674228" lon="10.825813926746633"><ele>90.19999999999999</ele><time>2026-05-01T13:12:54Z</time></trkpt><trkpt lat="45.84135589144018" lon="10.825823619622488"><ele>92.0</ele><time>2026-05-01T13:12:55Z</time></trkpt><trkpt lat="45.84147241984556" lon="10.825853037141275"><ele>92.0</ele><time>2026-05-01T13:12:56Z</time></trkpt><trkpt lat="45.841568141309466" lon="10.825883919680114"><ele>92.0</ele><time>2026-05-01T13:12:57Z</time></trkpt><trkpt lat="45.8416600984009" lon="10.825910410548348"><ele>92.0</ele><time>2026-05-01T13:12:58Z</time></trkpt><trkpt lat="45.84174758111136" lon="10.825951777671959"><ele>92.0</ele><time>2026-05-01T13:12:59Z</time></trkpt><trkpt lat="45.84183998380106" lon="10.825986512056518"><ele>92.0</ele><time>2026-05-01T13:13:00Z</time></trkpt><trkpt lat="45.84192780162177" lon="10.826045802123986"><ele>88.0</ele><time>2026-05-01T13:13:01Z</time></trkpt><trkpt lat="45.842007496118526" lon="10.826127235512407"><ele>84.0</ele><time>2026-05-01T13:13:02Z</time></trkpt><trkpt lat="45.842106196059355" lon="10.826217900241229"><ele>80.0</ele><time>2026-05-01T13:13:03Z</time></trkpt><trkpt lat="45.84220471420773" lon="10.826292406562924"><ele>76.0</ele><time>2026-05-01T13:13:04Z</time></trkpt><trkpt lat="45.842293513818696" lon="10.826351185384981"><ele>72.0</ele><time>2026-05-01T13:13:05Z</time></trkpt><trkpt lat="45.84238491697852" lon="10.826410702437427"><ele>72.0</ele><time>2026-05-01T13:13:06Z</time></trkpt><trkpt lat="45.84248429017227" lon="10.826457022712328"><ele>72.0</ele><time>2026-05-01T13:13:07Z</time></trkpt><trkpt lat="45.84257910953496" lon="10.8265019664131"><ele>72.0</ele><time>2026-05-01T13:13:08Z</time></trkpt><trkpt lat="45.8426685835158" lon="10.826535334871206"><ele>72.0</ele><time>2026-05-01T13:13:09Z</time></trkpt><trkpt lat="45.84274982829527" lon="10.826573607469978"><ele>72.0</ele><time>2026-05-01T13:13:10Z</time></trkpt><trkpt lat="45.84284782374427" lon="10.82657641869799"><ele>71.0</ele><time>2026-05-01T13:13:11Z</time></trkpt><trkpt lat="45.84293440963527" lon="10.826606020503347"><ele>70.0</ele><time>2026-05-01T13:13:12Z</time></trkpt><trkpt lat="45.84302948648011" lon="10.826660368404953"><ele>69.0</ele><time>2026-05-01T13:13:13Z</time></trkpt><trkpt lat="45.843125511345384" lon="10.826718431214315"><ele>68.0</ele><time>2026-05-01T13:13:14Z</time></trkpt><trkpt lat="45.84322343793922" lon="10.826773763669493"><ele>67.0</ele><time>2026-05-01T13:13:15Z</time></trkpt><trkpt lat="45.84332065948091" lon="10.82681989130833"><ele>67.0</ele><time>2026-05-01T13:13:16Z</time></trkpt><trkpt lat="45.843425140327575" lon="10.826883157821632"><ele>67.0</ele><time>2026-05-01T13:13:17Z</time></trkpt><trkpt lat="45.84353678067676" lon="10.826955403085199"><ele>67.0</ele><time>2026-05-01T13:13:18Z</time></trkpt><trkpt lat="45.84364882159748" lon="10.827041571936965"><ele>67.0</ele><time>2026-05-01T13:13:19Z</time></trkpt><trkpt lat="45.843754825965995" lon="10.827148950693807"><ele>71.5</ele><time>2026-05-01T13:13:20Z</time></trkpt><trkpt lat="45.8438458261238" lon="10.827244271676665"><ele>76.0</ele><time>2026-05-01T13:13:21Z</time></trkpt><trkpt lat="45.84393206173671" lon="10.827359957067197"><ele>80.5</ele><time>2026-05-01T13:13:22Z</time></trkpt><trkpt lat="45.84401170802299" lon="10.827506837589507"><ele>85.0</ele><time>2026-05-01T13:13:23Z</time></trkpt><trkpt lat="45.844095858888245" lon="10.827634791516532"><ele>84.75</ele><time>2026-05-01T13:13:24.001Z</time></trkpt><trkpt lat="45.84417327684826" lon="10.827749441137263"><ele>84.5</ele><time>2026-05-01T13:13:25.001Z</time></trkpt><trkpt lat="45.84424216357011" lon="10.827876629760212"><ele>84.25</ele><time>2026-05-01T13:13:26.001Z</time></trkpt><trkpt lat="45.84433637724637" lon="10.827990628549985"><ele>84.0</ele><time>2026-05-01T13:13:27.001Z</time></trkpt><trkpt lat="45.8444272235043" lon="10.828100187055982"><ele>84.0</ele><time>2026-05-01T13:13:28.001Z</time></trkpt><trkpt lat="45.84451969909793" lon="10.82820290394639"><ele>84.0</ele><time>2026-05-01T13:13:29.001Z</time></trkpt><trkpt lat="45.844613596667465" lon="10.828290602876695"><ele>84.0</ele><time>2026-05-01T13:13:30.001Z</time></trkpt><trkpt lat="45.84471653408621" lon="10.828378746936279"><ele>84.0</ele><time>2026-05-01T13:13:31.001Z</time></trkpt><trkpt lat="45.84481247210296" lon="10.828441233710969"><ele>81.2</ele><time>2026-05-01T13:13:32.001Z</time></trkpt><trkpt lat="45.84490914295755" lon="10.828511874150333"><ele>78.4</ele><time>2026-05-01T13:13:33.001Z</time></trkpt><trkpt lat="45.84499964631502" lon="10.828615142614087"><ele>75.6</ele><time>2026-05-01T13:13:34.001Z</time></trkpt><trkpt lat="45.84508614668341" lon="10.828688356437729"><ele>72.8</ele><time>2026-05-01T13:13:35.001Z</time></trkpt><trkpt lat="45.84517040488512" lon="10.828763138834935"><ele>70.0</ele><time>2026-05-01T13:13:36.001Z</time></trkpt><trkpt lat="45.84525177699516" lon="10.828845679517855"><ele>71.4</ele><time>2026-05-01T13:13:37.001Z</time></trkpt><trkpt lat="45.84532684983603" lon="10.828935976364512"><ele>72.8</ele><time>2026-05-01T13:13:38.001Z</time></trkpt><trkpt lat="45.84540426856126" lon="10.829045293545121"><ele>74.2</ele><time>2026-05-01T13:13:39.001Z</time></trkpt><trkpt lat="45.845463989713004" lon="10.8291529450783"><ele>75.6</ele><time>2026-05-01T13:13:40.001Z</time></trkpt><trkpt lat="45.84552691501149" lon="10.829267226379857"><ele>77.0</ele><time>2026-05-01T13:13:41.001Z</time></trkpt><trkpt lat="45.84559082682394" lon="10.829384384564015"><ele>77.0</ele><time>2026-05-01T13:13:42.001Z</time></trkpt><trkpt lat="45.845651064675714" lon="10.829494443219176"><ele>77.0</ele><time>2026-05-01T13:13:43.001Z</time></trkpt><trkpt lat="45.845720716745824" lon="10.829618603021043"><ele>77.0</ele><time>2026-05-01T13:13:44.001Z</time></trkpt><trkpt lat="45.845783588055546" lon="10.82972961979611"><ele>77.0</ele><time>2026-05-01T13:13:45.001Z</time></trkpt><trkpt lat="45.84585743998326" lon="10.829854595893124"><ele>77.0</ele><time>2026-05-01T13:13:46.001Z</time></trkpt><trkpt lat="45.845952112062385" lon="10.829944806087996"><ele>74.0</ele><time>2026-05-01T13:13:47.001Z</time></trkpt><trkpt lat="45.84603617309135" lon="10.830046539886618"><ele>71.0</ele><time>2026-05-01T13:13:48.001Z</time></trkpt><trkpt lat="45.8461259694585" lon="10.83017828125992"><ele>68.0</ele><time>2026-05-01T13:13:49.001Z</time></trkpt><trkpt lat="45.84627506705056" lon="10.830219825232037"><ele>65.0</ele><time>2026-05-01T13:13:50.001Z</time></trkpt><trkpt lat="45.84637742791065" lon="10.830252482590812"><ele>65.0</ele><time>2026-05-01T13:13:51.001Z</time></trkpt><trkpt lat="45.846462324282435" lon="10.830277515998352"><ele>65.0</ele><time>2026-05-01T13:13:52.001Z</time></trkpt><trkpt lat="45.84654944994492" lon="10.830301393113622"><ele>65.0</ele><time>2026-05-01T13:13:53.001Z</time></trkpt><trkpt lat="45.846631228502666" lon="10.830324138691562"><ele>65.0</ele><time>2026-05-01T13:13:54.001Z</time></trkpt><trkpt lat="45.84670835648217" lon="10.830340168674622"><ele>65.0</ele><time>2026-05-01T13:13:55.001Z</time></trkpt><trkpt lat="45.84677928077617" lon="10.830381925280854"><ele>65.0</ele><time>2026-05-01T13:13:56.001Z</time></trkpt><trkpt lat="45.8468564021172" lon="10.83040371656904"><ele>65.2</ele><time>2026-05-01T13:13:57.001Z</time></trkpt><trkpt lat="45.84694346689979" lon="10.830427211895492"><ele>65.4</ele><time>2026-05-01T13:13:58.001Z</time></trkpt><trkpt lat="45.84703195535736" lon="10.830484547616681"><ele>65.6</ele><time>2026-05-01T13:13:59.001Z</time></trkpt><trkpt lat="45.847136416986714" lon="10.830509770909327"><ele>65.8</ele><time>2026-05-01T13:14:00.001Z</time></trkpt><trkpt lat="45.84724934109481" lon="10.830506236212527"><ele>66.0</ele><time>2026-05-01T13:14:01.001Z</time></trkpt><trkpt lat="45.847361283229596" lon="10.830502026154576"><ele>66.0</ele><time>2026-05-01T13:14:02.001Z</time></trkpt><trkpt lat="45.84748500303538" lon="10.83050404829417"><ele>66.0</ele><time>2026-05-01T13:14:03.001Z</time></trkpt><trkpt lat="45.847602212385326" lon="10.830538754334453"><ele>66.0</ele><time>2026-05-01T13:14:04.001Z</time></trkpt><trkpt lat="45.847703152903534" lon="10.830545588354557"><ele>66.0</ele><time>2026-05-01T13:14:05.001Z</time></trkpt><trkpt lat="45.84779733474397" lon="10.830552694344815"><ele>66.0</ele><time>2026-05-01T13:14:06.001Z</time></trkpt><trkpt lat="45.84788215092576" lon="10.830557663056084"><ele>67.6</ele><time>2026-05-01T13:14:07.001Z</time></trkpt><trkpt lat="45.84796516669748" lon="10.83055501010857"><ele>69.19999999999999</ele><time>2026-05-01T13:14:08.002Z</time></trkpt><trkpt lat="45.8480534785509" lon="10.830556668829871"><ele>70.80000000000001</ele><time>2026-05-01T13:14:09.002Z</time></trkpt><trkpt lat="45.84814245210437" lon="10.830590784802313"><ele>72.4</ele><time>2026-05-01T13:14:10.002Z</time></trkpt><trkpt lat="45.848245110026674" lon="10.830617731329845"><ele>74.0</ele><time>2026-05-01T13:14:11.002Z</time></trkpt><trkpt lat="45.848335700316014" lon="10.830655250144869"><ele>74.0</ele><time>2026-05-01T13:14:12.002Z</time></trkpt><trkpt lat="45.84842921376135" lon="10.8307199258508"><ele>74.0</ele><time>2026-05-01T13:14:13.002Z</time></trkpt><trkpt lat="45.848534325303795" lon="10.830771447726107"><ele>74.0</ele><time>2026-05-01T13:14:14.002Z</time></trkpt><trkpt lat="45.848626936239356" lon="10.830812059879063"><ele>74.0</ele><time>2026-05-01T13:14:15.002Z</time></trkpt><trkpt lat="45.84871726429249" lon="10.830858763682958"><ele>74.0</ele><time>2026-05-01T13:14:16.002Z</time></trkpt><trkpt lat="45.848813768071885" lon="10.830897349425504"><ele>74.0</ele><time>2026-05-01T13:14:17.002Z</time></trkpt><trkpt lat="45.84890919495349" lon="10.83093446430588"><ele>74.0</ele><time>2026-05-01T13:14:18.002Z</time></trkpt><trkpt lat="45.84900445548077" lon="10.830975714400875"><ele>74.0</ele><time>2026-05-01T13:14:19.002Z</time></trkpt><trkpt lat="45.849101465154675" lon="10.831022926924485"><ele>74.0</ele><time>2026-05-01T13:14:20.002Z</time></trkpt><trkpt lat="45.849196540819456" lon="10.83106325276084"><ele>74.0</ele><time>2026-05-01T13:14:21.002Z</time></trkpt><trkpt lat="45.84929554531607" lon="10.831117835191094"><ele>74.0</ele><time>2026-05-01T13:14:22.002Z</time></trkpt><trkpt lat="45.84938967712588" lon="10.831167249943963"><ele>74.0</ele><time>2026-05-01T13:14:23.002Z</time></trkpt><trkpt lat="45.84949040520644" lon="10.831229225309931"><ele>74.0</ele><time>2026-05-01T13:14:24.002Z</time></trkpt><trkpt lat="45.849588569876886" lon="10.831284777276911"><ele>74.0</ele><time>2026-05-01T13:14:25.002Z</time></trkpt><trkpt lat="45.84966124782528" lon="10.831411648749993"><ele>74.0</ele><time>2026-05-01T13:14:26.002Z</time></trkpt><trkpt lat="45.84974928648692" lon="10.831489503861194"><ele>74.0</ele><time>2026-05-01T13:14:27.002Z</time></trkpt><trkpt lat="45.84984837520533" lon="10.831568950152946"><ele>74.0</ele><time>2026-05-01T13:14:28.002Z</time></trkpt><trkpt lat="45.8499488770486" lon="10.831654639580103"><ele>74.0</ele><time>2026-05-01T13:14:29.002Z</time></trkpt><trkpt lat="45.850049615124775" lon="10.83174063077015"><ele>74.0</ele><time>2026-05-01T13:14:30.002Z</time></trkpt><trkpt lat="45.85015032022756" lon="10.831826696348804"><ele>74.66666666666667</ele><time>2026-05-01T13:14:31.002Z</time></trkpt><trkpt lat="45.85034120223868" lon="10.831904259510548"><ele>75.33333333333333</ele><time>2026-05-01T13:14:32.002Z</time></trkpt><trkpt lat="45.850498020346045" lon="10.83196402299952"><ele>76.0</ele><time>2026-05-01T13:14:33.002Z</time></trkpt><trkpt lat="45.85065480217148" lon="10.832024307776004"><ele>76.0</ele><time>2026-05-01T13:14:34.002Z</time></trkpt><trkpt lat="45.850800476860755" lon="10.832066419922855"><ele>76.0</ele><time>2026-05-01T13:14:35.002Z</time></trkpt><trkpt lat="45.851126116406746" lon="10.832109599037556"><ele>77.66666666666666</ele><time>2026-05-01T13:14:36.002Z</time></trkpt><trkpt lat="45.851306632149765" lon="10.832188912811793"><ele>79.33333333333333</ele><time>2026-05-01T13:14:37.002Z</time></trkpt><trkpt lat="45.85147942920206" lon="10.83223905258517"><ele>81.0</ele><time>2026-05-01T13:14:38.002Z</time></trkpt><trkpt lat="45.85165323702063" lon="10.832295098819028"><ele>87.66666666666666</ele><time>2026-05-01T13:14:39.002Z</time></trkpt><trkpt lat="45.85184286648332" lon="10.832302731987884"><ele>94.33333333333333</ele><time>2026-05-01T13:14:40.002Z</time></trkpt><trkpt lat="45.852046250194974" lon="10.832435690144436"><ele>101.0</ele><time>2026-05-01T13:14:41.002Z</time></trkpt><trkpt lat="45.85221493805872" lon="10.832539612965919"><ele>88.5</ele><time>2026-05-01T13:14:42.002Z</time></trkpt><trkpt lat="45.852419148995324" lon="10.832670914732303"><ele>76.0</ele><time>2026-05-01T13:14:43.013Z</time></trkpt><trkpt lat="45.85263876475649" lon="10.832808126434918"><ele>76.0</ele><time>2026-05-01T13:14:44.013Z</time></trkpt><trkpt lat="45.85284200852073" lon="10.832939303283041"><ele>76.0</ele><time>2026-05-01T13:14:45.012Z</time></trkpt><trkpt lat="45.853214952098135" lon="10.833045593215049"><ele>102.0</ele><time>2026-05-01T13:14:47.01Z</time></trkpt><trkpt lat="45.8537419518345" lon="10.83340257139649"><ele>93.5</ele><time>2026-05-01T13:14:51.002Z</time></trkpt><trkpt lat="45.85395340547636" lon="10.833551719613267"><ele>85.0</ele><time>2026-05-01T13:14:52.003Z</time></trkpt><trkpt lat="45.85419882413977" lon="10.833725296081695"><ele>84.33333333333333</ele><time>2026-05-01T13:14:53.003Z</time></trkpt><trkpt lat="45.85436819303459" lon="10.833842400375918"><ele>83.66666666666667</ele><time>2026-05-01T13:14:54.003Z</time></trkpt><trkpt lat="45.8545651242239" lon="10.833960784529394"><ele>83.0</ele><time>2026-05-01T13:14:55.003Z</time></trkpt><trkpt lat="45.85476032201349" lon="10.834035360869638"><ele>83.0</ele><time>2026-05-01T13:14:56Z</time></trkpt><trkpt lat="45.85494914097211" lon="10.834081530901239"><ele>83.0</ele><time>2026-05-01T13:14:57Z</time></trkpt><trkpt lat="45.8551270898665" lon="10.83409069950636"><ele>83.0</ele><time>2026-05-01T13:14:58Z</time></trkpt><trkpt lat="45.85527846786389" lon="10.834165695328615"><ele>79.0</ele><time>2026-05-01T13:14:59Z</time></trkpt><trkpt lat="45.85543646895406" lon="10.83417889587124"><ele>75.0</ele><time>2026-05-01T13:15:00Z</time></trkpt><trkpt lat="45.85561523809563" lon="10.834015264428288"><ele>71.0</ele><time>2026-05-01T13:15:01Z</time></trkpt><trkpt lat="45.855749428376726" lon="10.833945246269355"><ele>71.0</ele><time>2026-05-01T13:15:02Z</time></trkpt><trkpt lat="45.855893639646965" lon="10.833878797887474"><ele>71.0</ele><time>2026-05-01T13:15:03Z</time></trkpt><trkpt lat="45.855987318694204" lon="10.833816440234884"><ele>71.0</ele><time>2026-05-01T13:15:04Z</time></trkpt><trkpt lat="45.856068514795226" lon="10.833745963567901"><ele>71.0</ele><time>2026-05-01T13:15:05Z</time></trkpt><trkpt lat="45.856213012965526" lon="10.833719532266596"><ele>68.0</ele><time>2026-05-01T13:15:06Z</time></trkpt><trkpt lat="45.856340972021975" lon="10.833629523877109"><ele>65.0</ele><time>2026-05-01T13:15:07Z</time></trkpt><trkpt lat="45.85652897482347" lon="10.833460243036171"><ele>62.0</ele><time>2026-05-01T13:15:08Z</time></trkpt><trkpt lat="45.85674908843526" lon="10.833298997499378"><ele>62.0</ele><time>2026-05-01T13:15:09.011Z</time></trkpt><trkpt lat="45.8569560291341" lon="10.833185216740498"><ele>62.0</ele><time>2026-05-01T13:15:10.009Z</time></trkpt><trkpt lat="45.85717123364052" lon="10.833110776497357"><ele>62.0</ele><time>2026-05-01T13:15:11.01Z</time></trkpt><trkpt lat="45.85736894630457" lon="10.833065384343833"><ele>62.0</ele><time>2026-05-01T13:15:12.01Z</time></trkpt><trkpt lat="45.8575847587413" lon="10.833018800032269"><ele>62.0</ele><time>2026-05-01T13:15:13.016Z</time></trkpt><trkpt lat="45.85784924352136" lon="10.833070101051332"><ele>62.0</ele><time>2026-05-01T13:15:18Z</time></trkpt><trkpt lat="45.85792707487412" lon="10.833088594729258"><ele>62.0</ele><time>2026-05-01T13:15:19Z</time></trkpt><trkpt lat="45.85801550780396" lon="10.833027164965268"><ele>62.0</ele><time>2026-05-01T13:15:20Z</time></trkpt><trkpt lat="45.85811232186385" lon="10.832998699719166"><ele>62.0</ele><time>2026-05-01T13:15:21.01Z</time></trkpt><trkpt lat="45.85820830421593" lon="10.832961531274243"><ele>62.0</ele><time>2026-05-01T13:15:22.01Z</time></trkpt><trkpt lat="45.858301832666825" lon="10.832920576370913"><ele>62.0</ele><time>2026-05-01T13:15:23.012Z</time></trkpt><trkpt lat="45.858393119296665" lon="10.832878970758223"><ele>62.0</ele><time>2026-05-01T13:15:24.001Z</time></trkpt><trkpt lat="45.858542092360246" lon="10.832809522353898"><ele>62.0</ele><time>2026-05-01T13:15:25.001Z</time></trkpt><trkpt lat="45.85864458953052" lon="10.832761942102753"><ele>62.0</ele><time>2026-05-01T13:15:26.001Z</time></trkpt><trkpt lat="45.858742398131966" lon="10.832715802511887"><ele>62.0</ele><time>2026-05-01T13:15:27.001Z</time></trkpt><trkpt lat="45.858844940288975" lon="10.832675072539555"><ele>62.0</ele><time>2026-05-01T13:15:28.001Z</time></trkpt><trkpt lat="45.858967068634094" lon="10.83267511006525"><ele>62.0</ele><time>2026-05-01T13:15:29.001Z</time></trkpt><trkpt lat="45.85905381125564" lon="10.832704024170859"><ele>62.0</ele><time>2026-05-01T13:15:30.001Z</time></trkpt><trkpt lat="45.859160408603714" lon="10.83273327133621"><ele>62.0</ele><time>2026-05-01T13:15:31.001Z</time></trkpt><trkpt lat="45.85925201397211" lon="10.832738781581899"><ele>62.0</ele><time>2026-05-01T13:15:32.001Z</time></trkpt><trkpt lat="45.85934792253076" lon="10.83274684389135"><ele>62.0</ele><time>2026-05-01T13:15:33.001Z</time></trkpt><trkpt lat="45.85945853155045" lon="10.832775244002166"><ele>62.0</ele><time>2026-05-01T13:15:34.001Z</time></trkpt><trkpt lat="45.85954881046569" lon="10.832751627431666"><ele>62.0</ele><time>2026-05-01T13:15:35.001Z</time></trkpt><trkpt lat="45.85964548021677" lon="10.83272342888832"><ele>62.0</ele><time>2026-05-01T13:15:36.001Z</time></trkpt><trkpt lat="45.85974867917211" lon="10.832725474769912"><ele>62.0</ele><time>2026-05-01T13:15:37.001Z</time></trkpt><trkpt lat="45.85986286463602" lon="10.832705873163237"><ele>62.0</ele><time>2026-05-01T13:15:38.001Z</time></trkpt><trkpt lat="45.85997981729518" lon="10.832674888501602"><ele>62.0</ele><time>2026-05-01T13:15:39.001Z</time></trkpt><trkpt lat="45.86011570285734" lon="10.832670637687364"><ele>62.0</ele><time>2026-05-01T13:15:40.001Z</time></trkpt><trkpt lat="45.86023991162481" lon="10.83263515972983"><ele>62.0</ele><time>2026-05-01T13:15:41.001Z</time></trkpt><trkpt lat="45.86034993735887" lon="10.832612500005157"><ele>62.0</ele><time>2026-05-01T13:15:42.017Z</time></trkpt><trkpt lat="45.86045494638954" lon="10.83259555311738"><ele>62.0</ele><time>2026-05-01T13:15:43.011Z</time></trkpt><trkpt lat="45.860557886252344" lon="10.83258215397903"><ele>62.0</ele><time>2026-05-01T13:15:44.01Z</time></trkpt><trkpt lat="45.860660163456544" lon="10.832568688228347"><ele>62.0</ele><time>2026-05-01T13:15:45.009Z</time></trkpt><trkpt lat="45.86225593839434" lon="10.832994852373673"><ele>62.0</ele><time>2026-05-01T13:15:48.683Z</time></trkpt><trkpt lat="45.86283372450481" lon="10.833326431377106"><ele>62.0</ele><time>2026-05-01T13:15:49.672Z</time></trkpt><trkpt lat="45.86341876880843" lon="10.83366910831405"><ele>62.0</ele><time>2026-05-01T13:15:50.677Z</time></trkpt><trkpt lat="45.861459976199015" lon="10.832767220561752"><ele>62.0</ele><time>2026-05-01T13:15:52.001Z</time></trkpt><trkpt lat="45.861548556157494" lon="10.83280544691957"><ele>62.0</ele><time>2026-05-01T13:15:53.001Z</time></trkpt><trkpt lat="45.861660518191435" lon="10.832840735458742"><ele>62.0</ele><time>2026-05-01T13:15:54.001Z</time></trkpt><trkpt lat="45.86177825678802" lon="10.832873505958561"><ele>62.0</ele><time>2026-05-01T13:15:55.001Z</time></trkpt><trkpt lat="45.861896269733236" lon="10.832904122588578"><ele>62.0</ele><time>2026-05-01T13:15:56.016Z</time></trkpt><trkpt lat="45.86380425416244" lon="10.83384109619743"><ele>62.0</ele><time>2026-05-01T13:15:59.674Z</time></trkpt><trkpt lat="45.87033194224865" lon="10.835224172035778"><ele>62.0</ele><time>2026-05-01T13:17:05.003Z</time></trkpt><trkpt lat="45.87051456142376" lon="10.835383507252981"><ele>62.0</ele><time>2026-05-01T13:17:06.003Z</time></trkpt><trkpt lat="45.87063900201743" lon="10.835451192358022"><ele>62.0</ele><time>2026-05-01T13:17:07.003Z</time></trkpt><trkpt lat="45.87077980615786" lon="10.835526570569566"><ele>62.0</ele><time>2026-05-01T13:17:08.003Z</time></trkpt><trkpt lat="45.87091674841026" lon="10.835584773620104"><ele>62.0</ele><time>2026-05-01T13:17:09.012Z</time></trkpt><trkpt lat="45.871039104415786" lon="10.835606343258954"><ele>62.0</ele><time>2026-05-01T13:17:10.011Z</time></trkpt><trkpt lat="45.87115058530762" lon="10.835664245301846"><ele>62.0</ele><time>2026-05-01T13:17:11.01Z</time></trkpt><trkpt lat="45.871262222449445" lon="10.835722896018574"><ele>62.0</ele><time>2026-05-01T13:17:12.012Z</time></trkpt><trkpt lat="45.87329133427558" lon="10.835730363022579"><ele>62.0</ele><time>2026-05-01T13:17:15.678Z</time></trkpt><trkpt lat="45.87391969204668" lon="10.835793996557099"><ele>62.0</ele><time>2026-05-01T13:17:16.679Z</time></trkpt><trkpt lat="45.87454034488174" lon="10.83592562686421"><ele>64.5</ele><time>2026-05-01T13:17:17.675Z</time></trkpt><trkpt lat="45.8747122" lon="10.8359746"><ele>67.0</ele><time>2026-05-01T13:17:18.674Z</time></trkpt><trkpt lat="45.879848292140174" lon="10.837822509939631"><ele>67.0</ele><time>2026-05-01T13:18:13.004Z</time></trkpt><trkpt lat="45.87996742833416" lon="10.837852107558431"><ele>67.0</ele><time>2026-05-01T13:18:14.004Z</time></trkpt><trkpt lat="45.88007424531767" lon="10.837811389279995"><ele>67.0</ele><time>2026-05-01T13:18:15.004Z</time></trkpt><trkpt lat="45.88021106053195" lon="10.837852869575569"><ele>67.0</ele><time>2026-05-01T13:18:16.004Z</time></trkpt><trkpt lat="45.88033672270979" lon="10.837905400644278"><ele>67.4</ele><time>2026-05-01T13:18:17.004Z</time></trkpt><trkpt lat="45.880442213683224" lon="10.837941501336639"><ele>67.80000000000001</ele><time>2026-05-01T13:18:18.004Z</time></trkpt><trkpt lat="45.880541923455716" lon="10.837990295130664"><ele>68.2</ele><time>2026-05-01T13:18:19.001Z</time></trkpt><trkpt lat="45.88065735050097" lon="10.838003252179158"><ele>68.60000000000001</ele><time>2026-05-01T13:18:20.001Z</time></trkpt><trkpt lat="45.88077468112189" lon="10.838019862281982"><ele>69.0</ele><time>2026-05-01T13:18:21.001Z</time></trkpt><trkpt lat="45.880902681014966" lon="10.838008829541723"><ele>71.25</ele><time>2026-05-01T13:18:22.001Z</time></trkpt><trkpt lat="45.88103334306818" lon="10.838057154055761"><ele>73.5</ele><time>2026-05-01T13:18:23.001Z</time></trkpt><trkpt lat="45.88114989188019" lon="10.838079097612065"><ele>75.75</ele><time>2026-05-01T13:18:24.001Z</time></trkpt><trkpt lat="45.881262341627966" lon="10.838092330703136"><ele>78.0</ele><time>2026-05-01T13:18:25.001Z</time></trkpt><trkpt lat="45.88137591294003" lon="10.838103295844617"><ele>78.0</ele><time>2026-05-01T13:18:26.001Z</time></trkpt><trkpt lat="45.881490191375235" lon="10.838118076999816"><ele>78.0</ele><time>2026-05-01T13:18:27.001Z</time></trkpt><trkpt lat="45.88159946624691" lon="10.8381325096895"><ele>78.0</ele><time>2026-05-01T13:18:28.001Z</time></trkpt><trkpt lat="45.881705968980924" lon="10.838139508278061"><ele>78.0</ele><time>2026-05-01T13:18:29.001Z</time></trkpt><trkpt lat="45.88180490144286" lon="10.838143714977445"><ele>78.0</ele><time>2026-05-01T13:18:30.001Z</time></trkpt><trkpt lat="45.88189968056777" lon="10.83815503778636"><ele>77.0</ele><time>2026-05-01T13:18:31.001Z</time></trkpt><trkpt lat="45.8819866196227" lon="10.838164843793548"><ele>76.0</ele><time>2026-05-01T13:18:32.001Z</time></trkpt><trkpt lat="45.88207556116703" lon="10.838175210876422"><ele>75.0</ele><time>2026-05-01T13:18:33.001Z</time></trkpt><trkpt lat="45.88217090648677" lon="10.83817157847234"><ele>74.0</ele><time>2026-05-01T13:18:34.001Z</time></trkpt><trkpt lat="45.882271429392816" lon="10.838219018457023"><ele>73.0</ele><time>2026-05-01T13:18:35.001Z</time></trkpt><trkpt lat="45.88237542242217" lon="10.838246908752716"><ele>73.0</ele><time>2026-05-01T13:18:36.001Z</time></trkpt><trkpt lat="45.88246789215093" lon="10.838282792652505"><ele>73.0</ele><time>2026-05-01T13:18:37.001Z</time></trkpt><trkpt lat="45.882535104899816" lon="10.838306633179457"><ele>73.0</ele><time>2026-05-01T13:18:38.001Z</time></trkpt><trkpt lat="45.882657870942566" lon="10.838316428379432"><ele>73.0</ele><time>2026-05-01T13:18:40.001Z</time></trkpt><trkpt lat="45.8827206403539" lon="10.838355210618893"><ele>73.0</ele><time>2026-05-01T13:18:41.001Z</time></trkpt><trkpt lat="45.88278496325496" lon="10.838376881450003"><ele>73.0</ele><time>2026-05-01T13:18:42.001Z</time></trkpt><trkpt lat="45.88284967736571" lon="10.8383936813067"><ele>73.28571428571428</ele><time>2026-05-01T13:18:43.001Z</time></trkpt><trkpt lat="45.882915469326115" lon="10.838413483401604"><ele>73.57142857142857</ele><time>2026-05-01T13:18:44.001Z</time></trkpt><trkpt lat="45.88297850171942" lon="10.838440193615192"><ele>73.85714285714286</ele><time>2026-05-01T13:18:45.001Z</time></trkpt><trkpt lat="45.883048782026236" lon="10.838451388158608"><ele>74.14285714285714</ele><time>2026-05-01T13:18:46.001Z</time></trkpt><trkpt lat="45.88310778479672" lon="10.838490083740858"><ele>74.42857142857143</ele><time>2026-05-01T13:18:47.001Z</time></trkpt><trkpt lat="45.88318151285614" lon="10.838510331806782"><ele>74.71428571428571</ele><time>2026-05-01T13:18:48.001Z</time></trkpt><trkpt lat="45.88325438897034" lon="10.838527480981812"><ele>75.0</ele><time>2026-05-01T13:18:49.001Z</time></trkpt><trkpt lat="45.88333363204522" lon="10.838540136269893"><ele>74.14285714285714</ele><time>2026-05-01T13:18:50.001Z</time></trkpt><trkpt lat="45.8834038441638" lon="10.83857554601338"><ele>73.28571428571428</ele><time>2026-05-01T13:18:51.001Z</time></trkpt><trkpt lat="45.88347498993747" lon="10.838589336643018"><ele>72.42857142857143</ele><time>2026-05-01T13:18:52.001Z</time></trkpt><trkpt lat="45.883540921765466" lon="10.838612068509226"><ele>71.57142857142857</ele><time>2026-05-01T13:18:53.001Z</time></trkpt><trkpt lat="45.88361445142772" lon="10.838649585521791"><ele>70.71428571428572</ele><time>2026-05-01T13:18:54.001Z</time></trkpt><trkpt lat="45.88370047912436" lon="10.838645666252983"><ele>69.85714285714286</ele><time>2026-05-01T13:18:55.001Z</time></trkpt><trkpt lat="45.883769631319154" lon="10.838626438407122"><ele>69.0</ele><time>2026-05-01T13:18:56.001Z</time></trkpt><trkpt lat="45.88384859181701" lon="10.83858719123764"><ele>69.0</ele><time>2026-05-01T13:18:57.001Z</time></trkpt><trkpt lat="45.883918183246834" lon="10.838519603122043"><ele>69.0</ele><time>2026-05-01T13:18:58.001Z</time></trkpt><trkpt lat="45.88400745174038" lon="10.838504610962488"><ele>69.0</ele><time>2026-05-01T13:18:59.001Z</time></trkpt><trkpt lat="45.88409523482426" lon="10.83844162098363"><ele>69.0</ele><time>2026-05-01T13:19:00.001Z</time></trkpt><trkpt lat="45.88417461532344" lon="10.838376358347498"><ele>69.0</ele><time>2026-05-01T13:19:01.001Z</time></trkpt><trkpt lat="45.88424989800701" lon="10.838315258979467"><ele>70.5</ele><time>2026-05-01T13:19:02.001Z</time></trkpt><trkpt lat="45.88431936485951" lon="10.83823687009417"><ele>72.0</ele><time>2026-05-01T13:19:03.001Z</time></trkpt><trkpt lat="45.88440631631289" lon="10.838204805232541"><ele>73.5</ele><time>2026-05-01T13:19:04.001Z</time></trkpt><trkpt lat="45.884484393205774" lon="10.838161766179327"><ele>75.0</ele><time>2026-05-01T13:19:05.001Z</time></trkpt><trkpt lat="45.88455778920311" lon="10.83810673333872"><ele>76.5</ele><time>2026-05-01T13:19:06.001Z</time></trkpt><trkpt lat="45.88463412382926" lon="10.838048352676099"><ele>78.0</ele><time>2026-05-01T13:19:07.001Z</time></trkpt><trkpt lat="45.88471324882638" lon="10.838004570728755"><ele>78.0</ele><time>2026-05-01T13:19:08.001Z</time></trkpt><trkpt lat="45.88478191435106" lon="10.83798559857272"><ele>78.0</ele><time>2026-05-01T13:19:09.001Z</time></trkpt><trkpt lat="45.88484768499902" lon="10.837980355961434"><ele>78.0</ele><time>2026-05-01T13:19:10.001Z</time></trkpt><trkpt lat="45.88491753703062" lon="10.83794851137568"><ele>78.0</ele><time>2026-05-01T13:19:11.001Z</time></trkpt><trkpt lat="45.88503655589" lon="10.837934671501683"><ele>78.0</ele><time>2026-05-01T13:19:13.001Z</time></trkpt><trkpt lat="45.8851459590144" lon="10.837926818106737"><ele>78.0</ele><time>2026-05-01T13:19:15.001Z</time></trkpt><trkpt lat="45.88525644075961" lon="10.837920222895727"><ele>78.83333333333333</ele><time>2026-05-01T13:19:17.001Z</time></trkpt><trkpt lat="45.88532526916242" lon="10.83791933106966"><ele>79.66666666666667</ele><time>2026-05-01T13:19:18.001Z</time></trkpt><trkpt lat="45.88539816030819" lon="10.837904974171746"><ele>80.5</ele><time>2026-05-01T13:19:19.001Z</time></trkpt><trkpt lat="45.885462088448534" lon="10.837919878208698"><ele>81.33333333333334</ele><time>2026-05-01T13:19:20.001Z</time></trkpt><trkpt lat="45.885543111597116" lon="10.837915547900495"><ele>82.16666666666667</ele><time>2026-05-01T13:19:21.001Z</time></trkpt><trkpt lat="45.88562745752457" lon="10.837911040004633"><ele>83.0</ele><time>2026-05-01T13:19:22.001Z</time></trkpt><trkpt lat="45.88571258554247" lon="10.837906490312314"><ele>83.0</ele><time>2026-05-01T13:19:23.001Z</time></trkpt><trkpt lat="45.88578701824054" lon="10.837902649473847"><ele>83.0</ele><time>2026-05-01T13:19:24.001Z</time></trkpt><trkpt lat="45.88586343575501" lon="10.837899671378198"><ele>83.0</ele><time>2026-05-01T13:19:25.001Z</time></trkpt><trkpt lat="45.88594105104294" lon="10.837896646604074"><ele>83.0</ele><time>2026-05-01T13:19:26.001Z</time></trkpt><trkpt lat="45.88601626346786" lon="10.837893717574335"><ele>83.0</ele><time>2026-05-01T13:19:27.001Z</time></trkpt><trkpt lat="45.88609485247802" lon="10.837890654850026"><ele>83.0</ele><time>2026-05-01T13:19:28.001Z</time></trkpt><trkpt lat="45.8861714385984" lon="10.83788767016242"><ele>83.5</ele><time>2026-05-01T13:19:29.001Z</time></trkpt><trkpt lat="45.8862464276502" lon="10.837882398823565"><ele>84.0</ele><time>2026-05-01T13:19:30.001Z</time></trkpt><trkpt lat="45.88631535593794" lon="10.8378779455307"><ele>84.5</ele><time>2026-05-01T13:19:31.002Z</time></trkpt><trkpt lat="45.886424382979285" lon="10.837870901562901"><ele>85.0</ele><time>2026-05-01T13:19:33.002Z</time></trkpt><trkpt lat="45.886501597880375" lon="10.837865912899687"><ele>85.5</ele><time>2026-05-01T13:19:35.002Z</time></trkpt><trkpt lat="45.886581897540005" lon="10.83786291924506"><ele>86.0</ele><time>2026-05-01T13:19:38.002Z</time></trkpt><trkpt lat="45.886653392594965" lon="10.837860413902526"><ele>86.00000000000001</ele><time>2026-05-01T13:19:48.002Z</time></trkpt><trkpt lat="45.88672812184455" lon="10.837861568423332"><ele>86.0</ele><time>2026-05-01T13:19:51.002Z</time></trkpt><trkpt lat="45.886823978656764" lon="10.8378752377533"><ele>86.0</ele><time>2026-05-01T13:19:54.002Z</time></trkpt><trkpt lat="45.88689093772349" lon="10.837897815237366"><ele>86.0</ele><time>2026-05-01T13:19:57.002Z</time></trkpt><trkpt lat="45.88695798081337" lon="10.83791800507687"><ele>86.0</ele><time>2026-05-01T13:19:59.002Z</time></trkpt><trkpt lat="45.88702543696042" lon="10.837938319315041"><ele>86.00000000000001</ele><time>2026-05-01T13:20:05.002Z</time></trkpt><trkpt lat="45.88709540110775" lon="10.837952153048484"><ele>86.0</ele><time>2026-05-01T13:20:13.002Z</time></trkpt><trkpt lat="45.887166625640525" lon="10.837994898951766"><ele>86.0</ele><time>2026-05-01T13:20:17.002Z</time></trkpt><trkpt lat="45.887231170289816" lon="10.838038960515362"><ele>86.0</ele><time>2026-05-01T13:20:20.002Z</time></trkpt><trkpt lat="45.88730954125504" lon="10.838064181279108"><ele>86.0</ele><time>2026-05-01T13:20:24.002Z</time></trkpt><trkpt lat="45.88739106502886" lon="10.837999843823187"><ele>86.0</ele><time>2026-05-01T13:20:27.001Z</time></trkpt><trkpt lat="45.88743875295656" lon="10.83783271564572"><ele>86.0</ele><time>2026-05-01T13:20:29.001Z</time></trkpt><trkpt lat="45.88750688727527" lon="10.837675875230087"><ele>87.28571428571429</ele><time>2026-05-01T13:20:31.001Z</time></trkpt><trkpt lat="45.88756055746036" lon="10.837612225239262"><ele>88.57142857142857</ele><time>2026-05-01T13:20:32.001Z</time></trkpt><trkpt lat="45.88760947667254" lon="10.837542210388712"><ele>89.85714285714286</ele><time>2026-05-01T13:20:33.001Z</time></trkpt><trkpt lat="45.8876592863316" lon="10.83746824058839"><ele>91.14285714285714</ele><time>2026-05-01T13:20:34.001Z</time></trkpt><trkpt lat="45.88770796583461" lon="10.83739131029347"><ele>92.42857142857143</ele><time>2026-05-01T13:20:35.011Z</time></trkpt><trkpt lat="45.887756374590815" lon="10.837306794645661"><ele>93.71428571428572</ele><time>2026-05-01T13:20:36.01Z</time></trkpt><trkpt lat="45.887794478859114" lon="10.837194476777414"><ele>95.0</ele><time>2026-05-01T13:20:37.011Z</time></trkpt><trkpt lat="45.887834838300115" lon="10.83709825409976"><ele>99.5</ele><time>2026-05-01T13:20:38.011Z</time></trkpt><trkpt lat="45.88788347510783" lon="10.83699377368886"><ele>104.0</ele><time>2026-05-01T13:20:39.011Z</time></trkpt><trkpt lat="45.88809062198942" lon="10.836493196342191"><ele>108.16666666666666</ele><time>2026-05-01T13:20:43.678Z</time></trkpt><trkpt lat="45.88814319743533" lon="10.83639306691781"><ele>112.33333333333333</ele><time>2026-05-01T13:20:44.677Z</time></trkpt><trkpt lat="45.88818530520368" lon="10.836280980655774"><ele>116.5</ele><time>2026-05-01T13:20:45.681Z</time></trkpt><trkpt lat="45.88824392631401" lon="10.836188251179435"><ele>120.66666666666666</ele><time>2026-05-01T13:20:46.679Z</time></trkpt><trkpt lat="45.888316079208224" lon="10.836113674139428"><ele>124.83333333333333</ele><time>2026-05-01T13:20:47.681Z</time></trkpt><trkpt lat="45.88837861484644" lon="10.836027507871055"><ele>129.0</ele><time>2026-05-01T13:20:48.681Z</time></trkpt><trkpt lat="45.88844337583685" lon="10.835944516015793"><ele>132.33333333333334</ele><time>2026-05-01T13:20:49.681Z</time></trkpt><trkpt lat="45.888510328949025" lon="10.835864678878002"><ele>135.66666666666666</ele><time>2026-05-01T13:20:50.681Z</time></trkpt><trkpt lat="45.88857872737062" lon="10.835787349856309"><ele>139.0</ele><time>2026-05-01T13:20:51.678Z</time></trkpt><trkpt lat="45.88864040032448" lon="10.83569626722044"><ele>142.33333333333331</ele><time>2026-05-01T13:20:52.681Z</time></trkpt><trkpt lat="45.88871425240755" lon="10.835628740473577"><ele>145.66666666666666</ele><time>2026-05-01T13:20:53.681Z</time></trkpt><trkpt lat="45.88879037098655" lon="10.835566748679229"><ele>149.0</ele><time>2026-05-01T13:20:54.681Z</time></trkpt><trkpt lat="45.88887483363374" lon="10.835527566863437"><ele>149.0</ele><time>2026-05-01T13:20:55.677Z</time></trkpt><trkpt lat="45.88894506784374" lon="10.835449043944257"><ele>149.0</ele><time>2026-05-01T13:20:56.681Z</time></trkpt><trkpt lat="45.889024629875536" lon="10.835397861955862"><ele>149.0</ele><time>2026-05-01T13:20:57.677Z</time></trkpt><trkpt lat="45.88910666529073" lon="10.835352521262184"><ele>149.0</ele><time>2026-05-01T13:20:58.681Z</time></trkpt><trkpt lat="45.88918941784247" lon="10.835312705405475"><ele>149.0</ele><time>2026-05-01T13:20:59.678Z</time></trkpt><trkpt lat="45.8892775528269" lon="10.835296468851515"><ele>149.0</ele><time>2026-05-01T13:21:00.681Z</time></trkpt><trkpt lat="45.88936172802251" lon="10.835261729936457"><ele>147.6</ele><time>2026-05-01T13:21:01.681Z</time></trkpt><trkpt lat="45.88944254266781" lon="10.835211075625507"><ele>146.2</ele><time>2026-05-01T13:21:02.681Z</time></trkpt><trkpt lat="45.88961688344738" lon="10.835193332951674"><ele>144.79999999999998</ele><time>2026-05-01T13:21:04.681Z</time></trkpt><trkpt lat="45.88970313431804" lon="10.835182075174645"><ele>143.4</ele><time>2026-05-01T13:21:05.676Z</time></trkpt><trkpt lat="45.88978976302351" lon="10.835150009622868"><ele>142.0</ele><time>2026-05-01T13:21:06.68Z</time></trkpt><trkpt lat="45.890052328901504" lon="10.835152866845084"><ele>145.4</ele><time>2026-05-01T13:21:09.681Z</time></trkpt><trkpt lat="45.89013954154567" lon="10.83516447403267"><ele>148.79999999999998</ele><time>2026-05-01T13:21:10.681Z</time></trkpt><trkpt lat="45.890224513658275" lon="10.835201746033801"><ele>152.2</ele><time>2026-05-01T13:21:11.678Z</time></trkpt><trkpt lat="45.890399009205346" lon="10.835222086260316"><ele>155.6</ele><time>2026-05-01T13:21:13.681Z</time></trkpt><trkpt lat="45.89048367161387" lon="10.835252219023042"><ele>159.0</ele><time>2026-05-01T13:21:14.677Z</time></trkpt><trkpt lat="45.890562316636306" lon="10.835310293179438"><ele>159.0</ele><time>2026-05-01T13:21:15.677Z</time></trkpt><trkpt lat="45.890645242704835" lon="10.835351066998923"><ele>159.0</ele><time>2026-05-01T13:21:16.681Z</time></trkpt><trkpt lat="45.890726910827055" lon="10.835393377802356"><ele>159.0</ele><time>2026-05-01T13:21:17.68Z</time></trkpt><trkpt lat="45.89081449542114" lon="10.83541809523569"><ele>159.0</ele><time>2026-05-01T13:21:18.681Z</time></trkpt><trkpt lat="45.890893257135936" lon="10.835471796270832"><ele>159.0</ele><time>2026-05-01T13:21:19.677Z</time></trkpt><trkpt lat="45.89097100361476" lon="10.83553066791317"><ele>159.0</ele><time>2026-05-01T13:21:20.681Z</time></trkpt><trkpt lat="45.891047094011036" lon="10.835592012945462"><ele>169.33333333333334</ele><time>2026-05-01T13:21:21.678Z</time></trkpt><trkpt lat="45.891113298332556" lon="10.83567693240914"><ele>179.66666666666669</ele><time>2026-05-01T13:21:22.678Z</time></trkpt><trkpt lat="45.89119608726138" lon="10.835724370425837"><ele>190.0</ele><time>2026-05-01T13:21:23.68Z</time></trkpt><trkpt lat="45.89266909316546" lon="10.837204984541208"><ele>168.25</ele><time>2026-05-01T13:21:25.001Z</time></trkpt><trkpt lat="45.8928161043468" lon="10.837364903107787"><ele>146.5</ele><time>2026-05-01T13:21:26.001Z</time></trkpt><trkpt lat="45.89291000923883" lon="10.837459153457525"><ele>124.75</ele><time>2026-05-01T13:21:27.001Z</time></trkpt><trkpt lat="45.89302302164873" lon="10.837572619325604"><ele>103.0</ele><time>2026-05-01T13:21:28.019Z</time></trkpt><trkpt lat="45.89343784922779" lon="10.837920777888204"><ele>101.5</ele><time>2026-05-01T13:21:31.682Z</time></trkpt><trkpt lat="45.89354812960667" lon="10.838025812047592"><ele>100.0</ele><time>2026-05-01T13:21:32.682Z</time></trkpt><trkpt lat="45.89367587603592" lon="10.838076718031717"><ele>98.5</ele><time>2026-05-01T13:21:33.681Z</time></trkpt><trkpt lat="45.89379962026462" lon="10.838138117751706"><ele>97.0</ele><time>2026-05-01T13:21:34.681Z</time></trkpt><trkpt lat="45.89392100284545" lon="10.838213714807605"><ele>97.0</ele><time>2026-05-01T13:21:35.682Z</time></trkpt><trkpt lat="45.894084767485644" lon="10.838267138203978"><ele>97.0</ele><time>2026-05-01T13:21:40.001Z</time></trkpt><trkpt lat="45.89416454746713" lon="10.83828668170075"><ele>97.0</ele><time>2026-05-01T13:21:41.001Z</time></trkpt><trkpt lat="45.8942543834814" lon="10.83830746946852"><ele>97.0</ele><time>2026-05-01T13:21:42.001Z</time></trkpt><trkpt lat="45.8943665171558" lon="10.838330221294312"><ele>97.8</ele><time>2026-05-01T13:21:43.001Z</time></trkpt><trkpt lat="45.894505544113144" lon="10.838365709473432"><ele>98.6</ele><time>2026-05-01T13:21:45.001Z</time></trkpt><trkpt lat="45.89464054081676" lon="10.838375857348"><ele>99.39999999999999</ele><time>2026-05-01T13:21:47.001Z</time></trkpt><trkpt lat="45.8947120841032" lon="10.838388623661665"><ele>100.19999999999999</ele><time>2026-05-01T13:21:48.002Z</time></trkpt><trkpt lat="45.89478780983349" lon="10.838406304096427"><ele>101.0</ele><time>2026-05-01T13:21:49.002Z</time></trkpt><trkpt lat="45.894865957523294" lon="10.838421391292"><ele>100.99999999999999</ele><time>2026-05-01T13:21:50.002Z</time></trkpt><trkpt lat="45.89495521864506" lon="10.838442262088906"><ele>101.0</ele><time>2026-05-01T13:21:51.002Z</time></trkpt><trkpt lat="45.895050040512636" lon="10.838457303719451"><ele>101.0</ele><time>2026-05-01T13:21:52.002Z</time></trkpt><trkpt lat="45.89513614277234" lon="10.83846594502364"><ele>101.0</ele><time>2026-05-01T13:21:53.002Z</time></trkpt><trkpt lat="45.895218864358434" lon="10.838453828935842"><ele>100.99999999999999</ele><time>2026-05-01T13:21:54.002Z</time></trkpt><trkpt lat="45.895301883674804" lon="10.838447362597105"><ele>101.0</ele><time>2026-05-01T13:21:55.002Z</time></trkpt><trkpt lat="45.895378968635725" lon="10.838436648675309"><ele>101.33333333333333</ele><time>2026-05-01T13:21:56.002Z</time></trkpt><trkpt lat="45.89545977929473" lon="10.838417701030098"><ele>101.66666666666666</ele><time>2026-05-01T13:21:57.002Z</time></trkpt><trkpt lat="45.89553943971734" lon="10.838396001964185"><ele>102.0</ele><time>2026-05-01T13:21:58.002Z</time></trkpt><trkpt lat="45.89561811220075" lon="10.838371038313811"><ele>102.33333333333334</ele><time>2026-05-01T13:21:59.002Z</time></trkpt><trkpt lat="45.895705508892" lon="10.838340781356395"><ele>102.66666666666667</ele><time>2026-05-01T13:22:00.002Z</time></trkpt><trkpt lat="45.895775568997145" lon="10.83831226650349"><ele>103.0</ele><time>2026-05-01T13:22:01.002Z</time></trkpt><trkpt lat="45.895840954385974" lon="10.83828437823176"><ele>102.83333333333334</ele><time>2026-05-01T13:22:02.002Z</time></trkpt><trkpt lat="45.89594838214789" lon="10.83823927756919"><ele>102.66666666666667</ele><time>2026-05-01T13:22:04.002Z</time></trkpt><trkpt lat="45.896041159862136" lon="10.838199289449086"><ele>102.5</ele><time>2026-05-01T13:22:06.002Z</time></trkpt><trkpt lat="45.896119363824056" lon="10.838178101314002"><ele>102.33333333333334</ele><time>2026-05-01T13:22:09.002Z</time></trkpt><trkpt lat="45.89618557367673" lon="10.838164663407253"><ele>102.16666666666667</ele><time>2026-05-01T13:22:15.002Z</time></trkpt><trkpt lat="45.896258808723054" lon="10.83824490928669"><ele>102.0</ele><time>2026-05-01T13:22:20.002Z</time></trkpt><trkpt lat="45.896322737045715" lon="10.838337684454476"><ele>102.0</ele><time>2026-05-01T13:22:22.002Z</time></trkpt><trkpt lat="45.896400798657076" lon="10.838442536562338"><ele>102.0</ele><time>2026-05-01T13:22:24.002Z</time></trkpt><trkpt lat="45.89645802914545" lon="10.83856571772398"><ele>102.0</ele><time>2026-05-01T13:22:26.002Z</time></trkpt><trkpt lat="45.89645604647654" lon="10.838713704134154"><ele>102.0</ele><time>2026-05-01T13:22:28.002Z</time></trkpt><trkpt lat="45.89644543541578" lon="10.838864854113869"><ele>102.0</ele><time>2026-05-01T13:22:29.999Z</time></trkpt><trkpt lat="45.896441514924945" lon="10.839013671068118"><ele>101.19999999999999</ele><time>2026-05-01T13:22:32Z</time></trkpt><trkpt lat="45.89643178841241" lon="10.839169632091231"><ele>100.4</ele><time>2026-05-01T13:22:34Z</time></trkpt><trkpt lat="45.896420790219395" lon="10.839323663123004"><ele>99.6</ele><time>2026-05-01T13:22:36Z</time></trkpt><trkpt lat="45.89640803702709" lon="10.839465738788117"><ele>98.80000000000001</ele><time>2026-05-01T13:22:38Z</time></trkpt><trkpt lat="45.89638829645304" lon="10.839623742247698"><ele>98.0</ele><time>2026-05-01T13:22:40Z</time></trkpt><trkpt lat="45.89637220680019" lon="10.839718209026632"><ele>97.60000000000001</ele><time>2026-05-01T13:22:41Z</time></trkpt><trkpt lat="45.896351021875994" lon="10.839819160773258"><ele>97.2</ele><time>2026-05-01T13:22:42Z</time></trkpt><trkpt lat="45.89631690183315" lon="10.839956400603223"><ele>96.8</ele><time>2026-05-01T13:22:43Z</time></trkpt><trkpt lat="45.896269842639725" lon="10.840083211531166"><ele>96.4</ele><time>2026-05-01T13:22:44Z</time></trkpt><trkpt lat="45.89621305671319" lon="10.84021455826495"><ele>96.0</ele><time>2026-05-01T13:22:45Z</time></trkpt><trkpt lat="45.89614487271329" lon="10.84035345229646"><ele>95.75</ele><time>2026-05-01T13:22:46Z</time></trkpt><trkpt lat="45.89605589974182" lon="10.84047982871025"><ele>95.5</ele><time>2026-05-01T13:22:47Z</time></trkpt><trkpt lat="45.89595870415131" lon="10.840618001944508"><ele>95.25</ele><time>2026-05-01T13:22:48Z</time></trkpt><trkpt lat="45.89585964546552" lon="10.840753414339655"><ele>95.0</ele><time>2026-05-01T13:22:49Z</time></trkpt><trkpt lat="45.895766202399834" lon="10.84088196148575"><ele>94.25</ele><time>2026-05-01T13:22:50Z</time></trkpt><trkpt lat="45.895666156249085" lon="10.840998034172673"><ele>93.5</ele><time>2026-05-01T13:22:51Z</time></trkpt><trkpt lat="45.89557246221455" lon="10.841108226990286"><ele>92.75</ele><time>2026-05-01T13:22:52Z</time></trkpt><trkpt lat="45.89548785455876" lon="10.841214374204359"><ele>92.0</ele><time>2026-05-01T13:22:53Z</time></trkpt><trkpt lat="45.89540547274803" lon="10.841318022649162"><ele>92.0</ele><time>2026-05-01T13:22:54Z</time></trkpt><trkpt lat="45.895332595769354" lon="10.841418879953606"><ele>92.0</ele><time>2026-05-01T13:22:55Z</time></trkpt><trkpt lat="45.89525709830597" lon="10.841518880469971"><ele>92.0</ele><time>2026-05-01T13:22:56Z</time></trkpt><trkpt lat="45.89518617225377" lon="10.841621785155873"><ele>92.0</ele><time>2026-05-01T13:22:57Z</time></trkpt><trkpt lat="45.89511461318792" lon="10.841756539583407"><ele>92.0</ele><time>2026-05-01T13:22:58Z</time></trkpt><trkpt lat="45.8950486" lon="10.841900057730905"><ele>92.0</ele><time>2026-05-01T13:22:59Z</time></trkpt><trkpt lat="45.89498771530443" lon="10.842034730251592"><ele>92.0</ele><time>2026-05-01T13:23:00Z</time></trkpt><trkpt lat="45.89493160869737" lon="10.842177520145105"><ele>92.0</ele><time>2026-05-01T13:23:01Z</time></trkpt><trkpt lat="45.894884589747555" lon="10.842316563148763"><ele>92.0</ele><time>2026-05-01T13:23:02Z</time></trkpt><trkpt lat="45.89484732265557" lon="10.842450487628092"><ele>92.0</ele><time>2026-05-01T13:23:03Z</time></trkpt><trkpt lat="45.89480791370589" lon="10.8425777965573"><ele>91.83333333333334</ele><time>2026-05-01T13:23:04Z</time></trkpt><trkpt lat="45.89477034725847" lon="10.842688680600702"><ele>91.66666666666667</ele><time>2026-05-01T13:23:05Z</time></trkpt><trkpt lat="45.894740529953346" lon="10.842787684664414"><ele>91.5</ele><time>2026-05-01T13:23:06Z</time></trkpt><trkpt lat="45.8946897323246" lon="10.842938064831362"><ele>91.33333333333333</ele><time>2026-05-01T13:23:08Z</time></trkpt><trkpt lat="45.89465288250412" lon="10.843048453799408"><ele>91.16666666666666</ele><time>2026-05-01T13:23:10Z</time></trkpt><trkpt lat="45.89461471902753" lon="10.843123763141843"><ele>91.0</ele><time>2026-05-01T13:23:12Z</time></trkpt><trkpt lat="45.894525420354036" lon="10.843201530778316"><ele>91.0</ele><time>2026-05-01T13:23:15Z</time></trkpt><trkpt lat="45.894409094029186" lon="10.843213746912745"><ele>91.0</ele><time>2026-05-01T13:23:17Z</time></trkpt><trkpt lat="45.894306219620404" lon="10.843202354717704"><ele>91.0</ele><time>2026-05-01T13:23:19Z</time></trkpt><trkpt lat="45.894243263559616" lon="10.843199817932605"><ele>91.0</ele><time>2026-05-01T13:23:21.001Z</time></trkpt><trkpt lat="45.894197573240355" lon="10.843301580274206"><ele>91.0</ele><time>2026-05-01T13:23:23.001Z</time></trkpt><trkpt lat="45.894213013622014" lon="10.843443414710718"><ele>90.4</ele><time>2026-05-01T13:23:25.001Z</time></trkpt><trkpt lat="45.89423748265157" lon="10.843589089124338"><ele>89.8</ele><time>2026-05-01T13:23:27.001Z</time></trkpt><trkpt lat="45.89421379361667" lon="10.843784033615174"><ele>89.2</ele><time>2026-05-01T13:23:29.001Z</time></trkpt><trkpt lat="45.89419584735144" lon="10.843896465344757"><ele>88.60000000000001</ele><time>2026-05-01T13:23:30.001Z</time></trkpt><trkpt lat="45.8941722798568" lon="10.844010008706517"><ele>88.0</ele><time>2026-05-01T13:23:31.001Z</time></trkpt><trkpt lat="45.89414373914051" lon="10.844134880401787"><ele>88.0</ele><time>2026-05-01T13:23:32.001Z</time></trkpt><trkpt lat="45.89411318452285" lon="10.844268746306028"><ele>88.0</ele><time>2026-05-01T13:23:33.001Z</time></trkpt><trkpt lat="45.89407742172988" lon="10.844405545360933"><ele>88.0</ele><time>2026-05-01T13:23:34.001Z</time></trkpt><trkpt lat="45.89404723929951" lon="10.844547603985678"><ele>88.0</ele><time>2026-05-01T13:23:35.001Z</time></trkpt><trkpt lat="45.8940184315682" lon="10.844686812229558"><ele>88.0</ele><time>2026-05-01T13:23:36.001Z</time></trkpt><trkpt lat="45.8939826614382" lon="10.844806287975826"><ele>87.60000000000001</ele><time>2026-05-01T13:23:37.001Z</time></trkpt><trkpt lat="45.893942269297625" lon="10.844929474266092"><ele>87.2</ele><time>2026-05-01T13:23:38.001Z</time></trkpt><trkpt lat="45.893888011088436" lon="10.845039400682706"><ele>86.8</ele><time>2026-05-01T13:23:39.001Z</time></trkpt><trkpt lat="45.893819572154925" lon="10.845146559334529"><ele>86.4</ele><time>2026-05-01T13:23:40.001Z</time></trkpt><trkpt lat="45.89373160462156" lon="10.84524750026568"><ele>86.0</ele><time>2026-05-01T13:23:41.001Z</time></trkpt><trkpt lat="45.893637232438266" lon="10.84534816112634"><ele>85.75</ele><time>2026-05-01T13:23:42.001Z</time></trkpt><trkpt lat="45.89353839265828" lon="10.84545335313371"><ele>85.5</ele><time>2026-05-01T13:23:43.001Z</time></trkpt><trkpt lat="45.89344063876852" lon="10.845557537316678"><ele>85.25</ele><time>2026-05-01T13:23:44.001Z</time></trkpt><trkpt lat="45.89334942217707" lon="10.845662245011146"><ele>85.0</ele><time>2026-05-01T13:23:45.001Z</time></trkpt><trkpt lat="45.89325860759934" lon="10.845768286536897"><ele>84.6</ele><time>2026-05-01T13:23:46.001Z</time></trkpt><trkpt lat="45.893160275011034" lon="10.845867888960948"><ele>84.2</ele><time>2026-05-01T13:23:47.001Z</time></trkpt><trkpt lat="45.893057609169496" lon="10.84595515915895"><ele>83.80000000000001</ele><time>2026-05-01T13:23:48.001Z</time></trkpt><trkpt lat="45.89296242180657" lon="10.846028861266106"><ele>83.4</ele><time>2026-05-01T13:23:49.001Z</time></trkpt><trkpt lat="45.89287197577148" lon="10.846079778232472"><ele>83.0</ele><time>2026-05-01T13:23:50.001Z</time></trkpt><trkpt lat="45.892781471948254" lon="10.846135404342755"><ele>83.0</ele><time>2026-05-01T13:23:51.001Z</time></trkpt><trkpt lat="45.89270116682525" lon="10.846193536798681"><ele>83.0</ele><time>2026-05-01T13:23:52.001Z</time></trkpt><trkpt lat="45.89262507815061" lon="10.846248997099526"><ele>83.0</ele><time>2026-05-01T13:23:53.001Z</time></trkpt><trkpt lat="45.89255557957216" lon="10.846294441072011"><ele>83.0</ele><time>2026-05-01T13:23:54.001Z</time></trkpt><trkpt lat="45.892493881161755" lon="10.846331964520129"><ele>83.0</ele><time>2026-05-01T13:23:55.001Z</time></trkpt><trkpt lat="45.89240602158602" lon="10.846357325880925"><ele>83.0</ele><time>2026-05-01T13:23:57.001Z</time></trkpt><trkpt lat="45.89233478960507" lon="10.84635171310583"><ele>83.16666666666667</ele><time>2026-05-01T13:24:00.001Z</time></trkpt><trkpt lat="45.89224589137417" lon="10.846338070370898"><ele>83.33333333333334</ele><time>2026-05-01T13:24:04.001Z</time></trkpt><trkpt lat="45.8921218105076" lon="10.846329799618033"><ele>83.5</ele><time>2026-05-01T13:24:06.001Z</time></trkpt><trkpt lat="45.892056950521685" lon="10.846348297870465"><ele>83.66666666666667</ele><time>2026-05-01T13:24:07.001Z</time></trkpt><trkpt lat="45.891993112432196" lon="10.846367924068147"><ele>83.83333333333333</ele><time>2026-05-01T13:24:08.001Z</time></trkpt><trkpt lat="45.89192652568414" lon="10.846359102345481"><ele>84.0</ele><time>2026-05-01T13:24:09.001Z</time></trkpt><trkpt lat="45.891806237771284" lon="10.846286442748019"><ele>83.5</ele><time>2026-05-01T13:24:11.001Z</time></trkpt><trkpt lat="45.891748309849326" lon="10.846224848360665"><ele>83.0</ele><time>2026-05-01T13:24:12.001Z</time></trkpt><trkpt lat="45.89168749758773" lon="10.846157709453884"><ele>82.5</ele><time>2026-05-01T13:24:13.001Z</time></trkpt><trkpt lat="45.89162750803049" lon="10.846081655907511"><ele>82.0</ele><time>2026-05-01T13:24:14.001Z</time></trkpt><trkpt lat="45.89156090694013" lon="10.846002191493886"><ele>81.5</ele><time>2026-05-01T13:24:15.001Z</time></trkpt><trkpt lat="45.89150415738524" lon="10.845935414711715"><ele>81.0</ele><time>2026-05-01T13:24:16.001Z</time></trkpt><trkpt lat="45.89143546464591" lon="10.84586075239104"><ele>80.8</ele><time>2026-05-01T13:24:17.001Z</time></trkpt><trkpt lat="45.89136057988736" lon="10.845778705918276"><ele>80.6</ele><time>2026-05-01T13:24:18.002Z</time></trkpt><trkpt lat="45.89128722951739" lon="10.845691588286577"><ele>80.4</ele><time>2026-05-01T13:24:19.002Z</time></trkpt><trkpt lat="45.8912054929612" lon="10.845599599116511"><ele>80.2</ele><time>2026-05-01T13:24:20.002Z</time></trkpt><trkpt lat="45.891126746834786" lon="10.845507355626825"><ele>80.0</ele><time>2026-05-01T13:24:21.002Z</time></trkpt><trkpt lat="45.891047393863616" lon="10.845420442932033"><ele>80.0</ele><time>2026-05-01T13:24:22.002Z</time></trkpt><trkpt lat="45.890973904828336" lon="10.845342433282854"><ele>80.0</ele><time>2026-05-01T13:24:23.002Z</time></trkpt><trkpt lat="45.89090161259668" lon="10.845258667823721"><ele>80.0</ele><time>2026-05-01T13:24:24.002Z</time></trkpt><trkpt lat="45.890819456287744" lon="10.84516952547532"><ele>80.0</ele><time>2026-05-01T13:24:25.002Z</time></trkpt><trkpt lat="45.89073108175939" lon="10.845077061560106"><ele>80.0</ele><time>2026-05-01T13:24:26.002Z</time></trkpt><trkpt lat="45.8906510086204" lon="10.8449988248057"><ele>80.0</ele><time>2026-05-01T13:24:27.002Z</time></trkpt><trkpt lat="45.89057723522167" lon="10.844911227103358"><ele>80.0</ele><time>2026-05-01T13:24:28.002Z</time></trkpt><trkpt lat="45.890500558101614" lon="10.844821385874088"><ele>80.0</ele><time>2026-05-01T13:24:29.002Z</time></trkpt><trkpt lat="45.890428103651594" lon="10.844732084015705"><ele>80.0</ele><time>2026-05-01T13:24:30.002Z</time></trkpt><trkpt lat="45.890342377654164" lon="10.844648456706066"><ele>80.0</ele><time>2026-05-01T13:24:31.002Z</time></trkpt><trkpt lat="45.89026287182217" lon="10.844561049526236"><ele>80.0</ele><time>2026-05-01T13:24:32.002Z</time></trkpt><trkpt lat="45.89018753551487" lon="10.844479527690075"><ele>80.0</ele><time>2026-05-01T13:24:33.002Z</time></trkpt><trkpt lat="45.890103773297994" lon="10.844399707611966"><ele>80.0</ele><time>2026-05-01T13:24:34.002Z</time></trkpt><trkpt lat="45.890022448745015" lon="10.844318183124773"><ele>80.0</ele><time>2026-05-01T13:24:35.002Z</time></trkpt><trkpt lat="45.889943483866006" lon="10.84424093791558"><ele>80.0</ele><time>2026-05-01T13:24:36Z</time></trkpt><trkpt lat="45.88986761390046" lon="10.844168224161223"><ele>79.83333333333334</ele><time>2026-05-01T13:24:37Z</time></trkpt><trkpt lat="45.889801664713836" lon="10.844098242904185"><ele>79.66666666666667</ele><time>2026-05-01T13:24:38Z</time></trkpt><trkpt lat="45.88974739293746" lon="10.844041611618051"><ele>79.5</ele><time>2026-05-01T13:24:39Z</time></trkpt><trkpt lat="45.88966348229876" lon="10.843953854457249"><ele>79.33333333333333</ele><time>2026-05-01T13:24:41Z</time></trkpt><trkpt lat="45.889599582789145" lon="10.843893070381398"><ele>79.16666666666666</ele><time>2026-05-01T13:24:43Z</time></trkpt><trkpt lat="45.88954083320143" lon="10.843813809146093"><ele>79.0</ele><time>2026-05-01T13:24:47Z</time></trkpt><trkpt lat="45.88947257619231" lon="10.843729515204387"><ele>79.0</ele><time>2026-05-01T13:24:50Z</time></trkpt><trkpt lat="45.88941366163967" lon="10.843673854078006"><ele>79.0</ele><time>2026-05-01T13:24:52Z</time></trkpt><trkpt lat="45.88935168617508" lon="10.843647261209926"><ele>79.0</ele><time>2026-05-01T13:24:54Z</time></trkpt><trkpt lat="45.889269427944946" lon="10.843689533472741"><ele>79.0</ele><time>2026-05-01T13:24:57Z</time></trkpt><trkpt lat="45.88921920320266" lon="10.84375935275894"><ele>79.0</ele><time>2026-05-01T13:24:59Z</time></trkpt><trkpt lat="45.889179281906976" lon="10.843861821718292"><ele>79.0</ele><time>2026-05-01T13:25:01Z</time></trkpt><trkpt lat="45.88913785498158" lon="10.843976963189643"><ele>78.66666666666666</ele><time>2026-05-01T13:25:03Z</time></trkpt><trkpt lat="45.889086391400056" lon="10.844102271054107"><ele>78.33333333333333</ele><time>2026-05-01T13:25:05Z</time></trkpt><trkpt lat="45.88903681065612" lon="10.844213571132551"><ele>78.0</ele><time>2026-05-01T13:25:07.001Z</time></trkpt><trkpt lat="45.888998317027195" lon="10.844301845685775"><ele>77.66666666666667</ele><time>2026-05-01T13:25:09.001Z</time></trkpt><trkpt lat="45.88896702257485" lon="10.84439192488751"><ele>77.33333333333334</ele><time>2026-05-01T13:25:11.001Z</time></trkpt><trkpt lat="45.88893213047714" lon="10.844485285152228"><ele>77.0</ele><time>2026-05-01T13:25:13.001Z</time></trkpt><trkpt lat="45.88888401842852" lon="10.844569524636439"><ele>76.83333333333334</ele><time>2026-05-01T13:25:15.001Z</time></trkpt><trkpt lat="45.88881832419439" lon="10.844614096892743"><ele>76.66666666666667</ele><time>2026-05-01T13:25:17.001Z</time></trkpt><trkpt lat="45.888737780617966" lon="10.844582438777502"><ele>76.5</ele><time>2026-05-01T13:25:18.001Z</time></trkpt><trkpt lat="45.888617240954666" lon="10.844528939516142"><ele>76.33333333333333</ele><time>2026-05-01T13:25:20.001Z</time></trkpt><trkpt lat="45.88854189156348" lon="10.84449880043475"><ele>76.16666666666666</ele><time>2026-05-01T13:25:21.001Z</time></trkpt><trkpt lat="45.88846112065126" lon="10.844469213707976"><ele>76.0</ele><time>2026-05-01T13:25:22.001Z</time></trkpt><trkpt lat="45.88838047608972" lon="10.844439769470018"><ele>76.0</ele><time>2026-05-01T13:25:23.001Z</time></trkpt><trkpt lat="45.88830772687559" lon="10.844413925369244"><ele>76.0</ele><time>2026-05-01T13:25:24.001Z</time></trkpt><trkpt lat="45.888241123607145" lon="10.844390264605106"><ele>76.0</ele><time>2026-05-01T13:25:25.001Z</time></trkpt><trkpt lat="45.88812099795394" lon="10.844349853306413"><ele>76.0</ele><time>2026-05-01T13:25:27.001Z</time></trkpt><trkpt lat="45.888053784790635" lon="10.844327901975593"><ele>76.0</ele><time>2026-05-01T13:25:28.001Z</time></trkpt><trkpt lat="45.88799195393353" lon="10.844308019403293"><ele>76.0</ele><time>2026-05-01T13:25:29.001Z</time></trkpt><trkpt lat="45.88789909206881" lon="10.844261389266421"><ele>76.0</ele><time>2026-05-01T13:25:31.001Z</time></trkpt><trkpt lat="45.8878000889651" lon="10.844210460575942"><ele>76.0</ele><time>2026-05-01T13:25:33.001Z</time></trkpt><trkpt lat="45.887732232020106" lon="10.844205322256974"><ele>76.0</ele><time>2026-05-01T13:25:34.001Z</time></trkpt><trkpt lat="45.88766560072287" lon="10.84415605918805"><ele>76.0</ele><time>2026-05-01T13:25:35.001Z</time></trkpt><trkpt lat="45.88758986278347" lon="10.844148009352317"><ele>76.0</ele><time>2026-05-01T13:25:36.001Z</time></trkpt><trkpt lat="45.887487304108845" lon="10.844095475147109"><ele>76.0</ele><time>2026-05-01T13:25:38.001Z</time></trkpt><trkpt lat="45.88740145784397" lon="10.844051932953207"><ele>75.57142857142857</ele><time>2026-05-01T13:25:40.001Z</time></trkpt><trkpt lat="45.887329924524714" lon="10.844033774040415"><ele>75.14285714285715</ele><time>2026-05-01T13:25:43.001Z</time></trkpt><trkpt lat="45.8872703296596" lon="10.84399392091562"><ele>74.71428571428572</ele><time>2026-05-01T13:25:46.001Z</time></trkpt><trkpt lat="45.8871985444637" lon="10.843994403125947"><ele>74.28571428571428</ele><time>2026-05-01T13:25:48.001Z</time></trkpt><trkpt lat="45.88713296056129" lon="10.843965206692893"><ele>73.85714285714286</ele><time>2026-05-01T13:25:49.001Z</time></trkpt><trkpt lat="45.88705833241169" lon="10.843943740456895"><ele>73.42857142857143</ele><time>2026-05-01T13:25:50.001Z</time></trkpt><trkpt lat="45.88697614174707" lon="10.843912051867791"><ele>73.0</ele><time>2026-05-01T13:25:51.001Z</time></trkpt><trkpt lat="45.88689272742743" lon="10.843879257410546"><ele>73.0</ele><time>2026-05-01T13:25:52.001Z</time></trkpt><trkpt lat="45.88680721898413" lon="10.843844410299276"><ele>73.0</ele><time>2026-05-01T13:25:53.001Z</time></trkpt><trkpt lat="45.8867279856767" lon="10.843808541309423"><ele>73.0</ele><time>2026-05-01T13:25:54.001Z</time></trkpt><trkpt lat="45.88663215396484" lon="10.843775743874923"><ele>73.0</ele><time>2026-05-01T13:25:56.001Z</time></trkpt><trkpt lat="45.88657015585546" lon="10.843744957267765"><ele>73.0</ele><time>2026-05-01T13:25:58.001Z</time></trkpt><trkpt lat="45.886498613281574" lon="10.843701456100236"><ele>73.0</ele><time>2026-05-01T13:26:05.001Z</time></trkpt><trkpt lat="45.886433673480376" lon="10.843680122087083"><ele>72.83333333333333</ele><time>2026-05-01T13:26:08.001Z</time></trkpt><trkpt lat="45.88631705244525" lon="10.843655104593731"><ele>72.66666666666666</ele><time>2026-05-01T13:26:11.002Z</time></trkpt><trkpt lat="45.88625338670804" lon="10.843800545948982"><ele>72.5</ele><time>2026-05-01T13:26:13.002Z</time></trkpt><trkpt lat="45.88624630196115" lon="10.843895604215753"><ele>72.33333333333333</ele><time>2026-05-01T13:26:14.002Z</time></trkpt><trkpt lat="45.886244359780555" lon="10.843988346683766"><ele>72.16666666666667</ele><time>2026-05-01T13:26:15.002Z</time></trkpt><trkpt lat="45.88623501794404" lon="10.844086152984616"><ele>72.0</ele><time>2026-05-01T13:26:16.002Z</time></trkpt><trkpt lat="45.8862003761117" lon="10.844264018132625"><ele>71.4</ele><time>2026-05-01T13:26:18.002Z</time></trkpt><trkpt lat="45.886193140658776" lon="10.844424768441188"><ele>70.80000000000001</ele><time>2026-05-01T13:26:20.002Z</time></trkpt><trkpt lat="45.88617013634495" lon="10.844583893341554"><ele>70.2</ele><time>2026-05-01T13:26:22.002Z</time></trkpt><trkpt lat="45.88614685503275" lon="10.844731943371599"><ele>69.60000000000001</ele><time>2026-05-01T13:26:24.002Z</time></trkpt><trkpt lat="45.88612008714988" lon="10.844851406220666"><ele>69.0</ele><time>2026-05-01T13:26:26.002Z</time></trkpt><trkpt lat="45.88608260885534" lon="10.8449308866249"><ele>69.0</ele><time>2026-05-01T13:26:29.002Z</time></trkpt><trkpt lat="45.8860247197744" lon="10.845025272131624"><ele>69.0</ele><time>2026-05-01T13:26:32.002Z</time></trkpt><trkpt lat="45.885961086363814" lon="10.84504329186805"><ele>69.0</ele><time>2026-05-01T13:26:34.002Z</time></trkpt><trkpt lat="45.885897429419984" lon="10.845081941985715"><ele>69.0</ele><time>2026-05-01T13:26:42.001Z</time></trkpt><trkpt lat="45.88591137137061" lon="10.845245116050632"><ele>69.0</ele><time>2026-05-01T13:26:44.001Z</time></trkpt><trkpt lat="45.88590678992066" lon="10.84534924403389"><ele>69.0</ele><time>2026-05-01T13:26:46.001Z</time></trkpt><trkpt lat="45.88595646543027" lon="10.845461543014032"><ele>69.33333333333333</ele><time>2026-05-01T13:26:48.001Z</time></trkpt><trkpt lat="45.886046447307756" lon="10.845508595489932"><ele>69.66666666666667</ele><time>2026-05-01T13:26:50.001Z</time></trkpt><trkpt lat="45.88615111120287" lon="10.845545906713276"><ele>70.0</ele><time>2026-05-01T13:26:52.001Z</time></trkpt><trkpt lat="45.8862474399894" lon="10.845590520676263"><ele>70.33333333333334</ele><time>2026-05-01T13:26:54.001Z</time></trkpt><trkpt lat="45.8863094417345" lon="10.845620794692504"><ele>70.66666666666667</ele><time>2026-05-01T13:26:56.001Z</time></trkpt><trkpt lat="45.88638284243029" lon="10.845646044593542"><ele>71.0</ele><time>2026-05-01T13:26:59.001Z</time></trkpt><trkpt lat="45.88645502156588" lon="10.845670640598406"><ele>71.0</ele><time>2026-05-01T13:27:01.001Z</time></trkpt><trkpt lat="45.88654420162503" lon="10.845701865102995"><ele>71.0</ele><time>2026-05-01T13:27:04.001Z</time></trkpt><trkpt lat="45.88663330302896" lon="10.845731073572258"><ele>71.0</ele><time>2026-05-01T13:27:07.001Z</time></trkpt><trkpt lat="45.88671385245198" lon="10.845755622567518"><ele>71.0</ele><time>2026-05-01T13:27:10.001Z</time></trkpt><trkpt lat="45.88677801348426" lon="10.845761698290968"><ele>71.0</ele><time>2026-05-01T13:27:14.001Z</time></trkpt><trkpt lat="45.88683919244845" lon="10.845795463078902"><ele>71.0</ele><time>2026-05-01T13:27:27.001Z</time></trkpt><trkpt lat="45.886936087121676" lon="10.845807628624224"><ele>71.33333333333334</ele><time>2026-05-01T13:27:31.001Z</time></trkpt><trkpt lat="45.88702230587474" lon="10.845842271567884"><ele>71.66666666666667</ele><time>2026-05-01T13:27:34.001Z</time></trkpt><trkpt lat="45.887115999794545" lon="10.845877820762398"><ele>72.0</ele><time>2026-05-01T13:27:37.001Z</time></trkpt><trkpt lat="45.8871863957926" lon="10.845903870016716"><ele>72.33333333333333</ele><time>2026-05-01T13:27:39.001Z</time></trkpt><trkpt lat="45.88725934435337" lon="10.845929888516068"><ele>72.66666666666666</ele><time>2026-05-01T13:27:41.001Z</time></trkpt><trkpt lat="45.887333465387776" lon="10.84594865738349"><ele>73.0</ele><time>2026-05-01T13:27:45.001Z</time></trkpt><trkpt lat="45.88741502647168" lon="10.845953700107456"><ele>72.83333333333333</ele><time>2026-05-01T13:27:49.001Z</time></trkpt><trkpt lat="45.88750755396945" lon="10.84601076391839"><ele>72.66666666666666</ele><time>2026-05-01T13:27:51.001Z</time></trkpt><trkpt lat="45.88759516961204" lon="10.846043418580592"><ele>72.5</ele><time>2026-05-01T13:27:53.001Z</time></trkpt><trkpt lat="45.88759704533599" lon="10.846192261000388"><ele>72.33333333333333</ele><time>2026-05-01T13:27:56.001Z</time></trkpt><trkpt lat="45.88757682328366" lon="10.846288621745254"><ele>72.16666666666667</ele><time>2026-05-01T13:27:57.001Z</time></trkpt><trkpt lat="45.887557573995736" lon="10.846385383379562"><ele>72.0</ele><time>2026-05-01T13:27:58.001Z</time></trkpt><trkpt lat="45.88753794418562" lon="10.846484059509711"><ele>72.0</ele><time>2026-05-01T13:27:59.001Z</time></trkpt><trkpt lat="45.88751998859495" lon="10.846574321213623"><ele>72.0</ele><time>2026-05-01T13:28:00.001Z</time></trkpt><trkpt lat="45.88750415942171" lon="10.846663302107515"><ele>72.0</ele><time>2026-05-01T13:28:01.001Z</time></trkpt><trkpt lat="45.88748639198058" lon="10.84675651401356"><ele>72.0</ele><time>2026-05-01T13:28:02.001Z</time></trkpt><trkpt lat="45.88745665453504" lon="10.84691252311075"><ele>72.0</ele><time>2026-05-01T13:28:04.001Z</time></trkpt><trkpt lat="45.8874267423942" lon="10.847069448641012"><ele>72.0</ele><time>2026-05-01T13:28:06.001Z</time></trkpt><trkpt lat="45.88739809674738" lon="10.8472197298617"><ele>72.4</ele><time>2026-05-01T13:28:08.001Z</time></trkpt><trkpt lat="45.88736855186836" lon="10.847375791684588"><ele>72.80000000000001</ele><time>2026-05-01T13:28:10.001Z</time></trkpt><trkpt lat="45.88734894222407" lon="10.847498141665625"><ele>73.2</ele><time>2026-05-01T13:28:12.001Z</time></trkpt><trkpt lat="45.887327664664056" lon="10.847601844166975"><ele>73.60000000000001</ele><time>2026-05-01T13:28:14.002Z</time></trkpt><trkpt lat="45.887318002699864" lon="10.847712512464012"><ele>74.0</ele><time>2026-05-01T13:28:16.002Z</time></trkpt><trkpt lat="45.88744714690286" lon="10.847781018355015"><ele>74.16666666666667</ele><time>2026-05-01T13:28:19.002Z</time></trkpt><trkpt lat="45.88751105195594" lon="10.847785671706315"><ele>74.33333333333334</ele><time>2026-05-01T13:28:20.002Z</time></trkpt><trkpt lat="45.88758890562429" lon="10.847826170920296"><ele>74.5</ele><time>2026-05-01T13:28:21.002Z</time></trkpt><trkpt lat="45.88767808239797" lon="10.847864048777698"><ele>74.66666666666667</ele><time>2026-05-01T13:28:22.002Z</time></trkpt><trkpt lat="45.88776169739566" lon="10.847879999104011"><ele>74.83333333333333</ele><time>2026-05-01T13:28:23.002Z</time></trkpt><trkpt lat="45.887856429975606" lon="10.847911428420414"><ele>75.0</ele><time>2026-05-01T13:28:24.002Z</time></trkpt><trkpt lat="45.887929224243805" lon="10.847962181612735"><ele>75.0</ele><time>2026-05-01T13:28:25.002Z</time></trkpt><trkpt lat="45.88801424231068" lon="10.847989415718162"><ele>75.0</ele><time>2026-05-01T13:28:26.002Z</time></trkpt><trkpt lat="45.88808926195503" lon="10.848011527092483"><ele>75.0</ele><time>2026-05-01T13:28:27.002Z</time></trkpt><trkpt lat="45.888159404791544" lon="10.848032358865527"><ele>75.0</ele><time>2026-05-01T13:28:28.002Z</time></trkpt><trkpt lat="45.88827698420872" lon="10.848080098221"><ele>75.0</ele><time>2026-05-01T13:28:30.002Z</time></trkpt><trkpt lat="45.888368606956774" lon="10.848121144390998"><ele>75.2</ele><time>2026-05-01T13:28:32.002Z</time></trkpt><trkpt lat="45.888488999318994" lon="10.848170372217233"><ele>75.4</ele><time>2026-05-01T13:28:34.002Z</time></trkpt><trkpt lat="45.88858622831454" lon="10.848234368665185"><ele>75.6</ele><time>2026-05-01T13:28:36.002Z</time></trkpt><trkpt lat="45.88867368218643" lon="10.848224235223721"><ele>75.8</ele><time>2026-05-01T13:28:39.002Z</time></trkpt><trkpt lat="45.88873817440363" lon="10.848252265843458"><ele>76.0</ele><time>2026-05-01T13:28:42.002Z</time></trkpt><trkpt lat="45.888800317334976" lon="10.848277052103162"><ele>76.0</ele><time>2026-05-01T13:28:44.002Z</time></trkpt><trkpt lat="45.888879642684245" lon="10.848303459821684"><ele>76.0</ele><time>2026-05-01T13:28:46.002Z</time></trkpt><trkpt lat="45.88896805845975" lon="10.848299398426109"><ele>76.0</ele><time>2026-05-01T13:28:48.001Z</time></trkpt><trkpt lat="45.88903476892726" lon="10.848353083922628"><ele>76.0</ele><time>2026-05-01T13:28:49.001Z</time></trkpt><trkpt lat="45.88912291228557" lon="10.848364646261462"><ele>76.0</ele><time>2026-05-01T13:28:51.001Z</time></trkpt><trkpt lat="45.889225139175956" lon="10.84854788282796"><ele>75.42857142857143</ele><time>2026-05-01T13:28:54.001Z</time></trkpt><trkpt lat="45.889259186259615" lon="10.84862791576341"><ele>74.85714285714286</ele><time>2026-05-01T13:28:55.001Z</time></trkpt><trkpt lat="45.8892946527332" lon="10.848715380254971"><ele>74.28571428571429</ele><time>2026-05-01T13:28:56.001Z</time></trkpt><trkpt lat="45.8893360337701" lon="10.848793484605054"><ele>73.71428571428572</ele><time>2026-05-01T13:28:57.001Z</time></trkpt><trkpt lat="45.8893776651148" lon="10.848877548558288"><ele>73.14285714285714</ele><time>2026-05-01T13:28:58.001Z</time></trkpt><trkpt lat="45.889422613920544" lon="10.848967563779121"><ele>72.57142857142858</ele><time>2026-05-01T13:28:59.001Z</time></trkpt><trkpt lat="45.88946458394087" lon="10.849053163367607"><ele>72.0</ele><time>2026-05-01T13:29:00.001Z</time></trkpt><trkpt lat="45.889515732731454" lon="10.849144642712716"><ele>72.0</ele><time>2026-05-01T13:29:01.001Z</time></trkpt><trkpt lat="45.88957414349449" lon="10.849235740713084"><ele>72.0</ele><time>2026-05-01T13:29:02.001Z</time></trkpt><trkpt lat="45.88962793259165" lon="10.849307413978783"><ele>72.0</ele><time>2026-05-01T13:29:03.001Z</time></trkpt><trkpt lat="45.889686355926386" lon="10.849377372593656"><ele>72.0</ele><time>2026-05-01T13:29:04.001Z</time></trkpt><trkpt lat="45.88975464904318" lon="10.84945816188559"><ele>72.0</ele><time>2026-05-01T13:29:06.001Z</time></trkpt><trkpt lat="45.88982691449536" lon="10.849523915320493"><ele>72.0</ele><time>2026-05-01T13:29:08.001Z</time></trkpt><trkpt lat="45.889879866086574" lon="10.849577217689045"><ele>72.16666666666667</ele><time>2026-05-01T13:29:09.001Z</time></trkpt><trkpt lat="45.88994172450904" lon="10.849633667315876"><ele>72.33333333333333</ele><time>2026-05-01T13:29:10.001Z</time></trkpt><trkpt lat="45.89001440914945" lon="10.849702525019193"><ele>72.5</ele><time>2026-05-01T13:29:11.001Z</time></trkpt><trkpt lat="45.89009030406152" lon="10.84977385497532"><ele>72.66666666666666</ele><time>2026-05-01T13:29:12.001Z</time></trkpt><trkpt lat="45.89015521699476" lon="10.849834604601545"><ele>72.83333333333333</ele><time>2026-05-01T13:29:13.001Z</time></trkpt><trkpt lat="45.89021044841723" lon="10.849885179190137"><ele>73.0</ele><time>2026-05-01T13:29:14.001Z</time></trkpt><trkpt lat="45.890303114884524" lon="10.84997362259112"><ele>73.4</ele><time>2026-05-01T13:29:16.001Z</time></trkpt><trkpt lat="45.89041554406419" lon="10.85007863344987"><ele>73.8</ele><time>2026-05-01T13:29:18.001Z</time></trkpt><trkpt lat="45.89048502636146" lon="10.85014678279364"><ele>74.2</ele><time>2026-05-01T13:29:19.001Z</time></trkpt><trkpt lat="45.89056068599038" lon="10.850218719579292"><ele>74.6</ele><time>2026-05-01T13:29:20.001Z</time></trkpt><trkpt lat="45.890633643884264" lon="10.850288972174022"><ele>75.0</ele><time>2026-05-01T13:29:21.001Z</time></trkpt><trkpt lat="45.890697920867176" lon="10.850354002222849"><ele>74.99999999999999</ele><time>2026-05-01T13:29:22.001Z</time></trkpt><trkpt lat="45.89076081805634" lon="10.850409046327416"><ele>75.0</ele><time>2026-05-01T13:29:23.001Z</time></trkpt><trkpt lat="45.89082436301673" lon="10.850466035244185"><ele>75.0</ele><time>2026-05-01T13:29:24.001Z</time></trkpt><trkpt lat="45.89089048555145" lon="10.850527004795325"><ele>75.0</ele><time>2026-05-01T13:29:25.001Z</time></trkpt><trkpt lat="45.89094546117379" lon="10.850576381595188"><ele>75.0</ele><time>2026-05-01T13:29:26.001Z</time></trkpt><trkpt lat="45.89099899474133" lon="10.850632074427406"><ele>74.99999999999999</ele><time>2026-05-01T13:29:27.001Z</time></trkpt><trkpt lat="45.891056403877315" lon="10.850686647674626"><ele>75.0</ele><time>2026-05-01T13:29:28.001Z</time></trkpt><trkpt lat="45.89111527002135" lon="10.850741159309404"><ele>75.42857142857142</ele><time>2026-05-01T13:29:29.001Z</time></trkpt><trkpt lat="45.891178471187075" lon="10.850806597972072"><ele>75.85714285714286</ele><time>2026-05-01T13:29:30.001Z</time></trkpt><trkpt lat="45.891233881925515" lon="10.8508603970151"><ele>76.28571428571428</ele><time>2026-05-01T13:29:31.001Z</time></trkpt><trkpt lat="45.89129314149647" lon="10.850915106541915"><ele>76.71428571428571</ele><time>2026-05-01T13:29:32.001Z</time></trkpt><trkpt lat="45.8913551023721" lon="10.8509711031575"><ele>77.14285714285714</ele><time>2026-05-01T13:29:33.001Z</time></trkpt><trkpt lat="45.89141257509923" lon="10.8510296648051"><ele>77.57142857142857</ele><time>2026-05-01T13:29:34.001Z</time></trkpt><trkpt lat="45.89147583763446" lon="10.851095768901166"><ele>78.0</ele><time>2026-05-01T13:29:35.001Z</time></trkpt><trkpt lat="45.89154117866023" lon="10.851157249600497"><ele>78.16666666666667</ele><time>2026-05-01T13:29:36.001Z</time></trkpt><trkpt lat="45.89160397173641" lon="10.85121549297907"><ele>78.33333333333333</ele><time>2026-05-01T13:29:37.001Z</time></trkpt><trkpt lat="45.89166318007323" lon="10.851270666377676"><ele>78.5</ele><time>2026-05-01T13:29:38.001Z</time></trkpt><trkpt lat="45.89171978683603" lon="10.851323234350154"><ele>78.66666666666666</ele><time>2026-05-01T13:29:39.001Z</time></trkpt><trkpt lat="45.891801377269665" lon="10.851402544811636"><ele>78.83333333333333</ele><time>2026-05-01T13:29:41.001Z</time></trkpt><trkpt lat="45.89186825922495" lon="10.851467036260544"><ele>79.0</ele><time>2026-05-01T13:29:43.001Z</time></trkpt><trkpt lat="45.89192656737409" lon="10.851526306440794"><ele>79.33333333333333</ele><time>2026-05-01T13:29:45.001Z</time></trkpt><trkpt lat="45.89202277301518" lon="10.851621101351098"><ele>79.66666666666666</ele><time>2026-05-01T13:29:47.001Z</time></trkpt><trkpt lat="45.89208353943121" lon="10.851673132198323"><ele>80.0</ele><time>2026-05-01T13:29:48.001Z</time></trkpt><trkpt lat="45.892146960604165" lon="10.85173465875298"><ele>80.33333333333333</ele><time>2026-05-01T13:29:49.001Z</time></trkpt><trkpt lat="45.89220781489438" lon="10.85180502218851"><ele>80.66666666666667</ele><time>2026-05-01T13:29:50.001Z</time></trkpt><trkpt lat="45.892273798602" lon="10.851871901194395"><ele>81.0</ele><time>2026-05-01T13:29:51.001Z</time></trkpt><trkpt lat="45.89234526992262" lon="10.851946364326825"><ele>81.16666666666667</ele><time>2026-05-01T13:29:52.001Z</time></trkpt><trkpt lat="45.892401152838744" lon="10.852016720188818"><ele>81.33333333333333</ele><time>2026-05-01T13:29:53.001Z</time></trkpt><trkpt lat="45.89246710445207" lon="10.852095620229003"><ele>81.5</ele><time>2026-05-01T13:29:54.001Z</time></trkpt><trkpt lat="45.892530816888886" lon="10.852172803225322"><ele>81.66666666666666</ele><time>2026-05-01T13:29:55.001Z</time></trkpt><trkpt lat="45.8925847229597" lon="10.852239950155575"><ele>81.83333333333333</ele><time>2026-05-01T13:29:56.001Z</time></trkpt><trkpt lat="45.8926393225179" lon="10.852310368177381"><ele>82.0</ele><time>2026-05-01T13:29:57.001Z</time></trkpt><trkpt lat="45.89269352282021" lon="10.852375455991591"><ele>81.71428571428571</ele><time>2026-05-01T13:29:58.001Z</time></trkpt><trkpt lat="45.89275091666484" lon="10.852461264912472"><ele>81.42857142857143</ele><time>2026-05-01T13:29:59.001Z</time></trkpt><trkpt lat="45.89279326580693" lon="10.852536312051388"><ele>81.14285714285714</ele><time>2026-05-01T13:30:00.001Z</time></trkpt><trkpt lat="45.89285541337069" lon="10.852583496293931"><ele>80.85714285714286</ele><time>2026-05-01T13:30:01.001Z</time></trkpt><trkpt lat="45.892909237879536" lon="10.852642081878253"><ele>80.57142857142857</ele><time>2026-05-01T13:30:02.001Z</time></trkpt><trkpt lat="45.892960754006936" lon="10.8526985589208"><ele>80.28571428571428</ele><time>2026-05-01T13:30:03.001Z</time></trkpt><trkpt lat="45.89301594162854" lon="10.852755425084428"><ele>80.0</ele><time>2026-05-01T13:30:04.001Z</time></trkpt><trkpt lat="45.89307255487859" lon="10.852804310197785"><ele>79.83333333333334</ele><time>2026-05-01T13:30:05.001Z</time></trkpt><trkpt lat="45.89316616021664" lon="10.85288239972356"><ele>79.66666666666667</ele><time>2026-05-01T13:30:07.001Z</time></trkpt><trkpt lat="45.89322740450052" lon="10.852941808640072"><ele>79.5</ele><time>2026-05-01T13:30:09.001Z</time></trkpt><trkpt lat="45.89326740956548" lon="10.853019667923105"><ele>79.33333333333333</ele><time>2026-05-01T13:30:13.001Z</time></trkpt><trkpt lat="45.893291072708884" lon="10.853119037358015"><ele>79.16666666666666</ele><time>2026-05-01T13:30:22.001Z</time></trkpt><trkpt lat="45.89329300476903" lon="10.853236253389017"><ele>79.0</ele><time>2026-05-01T13:30:24.001Z</time></trkpt><trkpt lat="45.89321482009066" lon="10.853287247488383"><ele>79.0</ele><time>2026-05-01T13:30:25.001Z</time></trkpt><trkpt lat="45.893150873621565" lon="10.853343172787046"><ele>79.0</ele><time>2026-05-01T13:30:26.001Z</time></trkpt><trkpt lat="45.89307248706573" lon="10.85341431308019"><ele>79.0</ele><time>2026-05-01T13:30:27.001Z</time></trkpt><trkpt lat="45.893016611003915" lon="10.853540093233047"><ele>79.0</ele><time>2026-05-01T13:30:28.001Z</time></trkpt><trkpt lat="45.892950428642635" lon="10.853673595701764"><ele>79.0</ele><time>2026-05-01T13:30:29.001Z</time></trkpt><trkpt lat="45.892879401118435" lon="10.85380990140202"><ele>78.25</ele><time>2026-05-01T13:30:30.001Z</time></trkpt><trkpt lat="45.89281261153443" lon="10.853959225075615"><ele>77.5</ele><time>2026-05-01T13:30:31.001Z</time></trkpt><trkpt lat="45.892737032959694" lon="10.854101084692727"><ele>76.75</ele><time>2026-05-01T13:30:32.001Z</time></trkpt><trkpt lat="45.89267617859737" lon="10.854240315077881"><ele>76.0</ele><time>2026-05-01T13:30:33.001Z</time></trkpt><trkpt lat="45.892611368456805" lon="10.854366987075672"><ele>75.8</ele><time>2026-05-01T13:30:34.001Z</time></trkpt><trkpt lat="45.892551912868946" lon="10.854488055759898"><ele>75.6</ele><time>2026-05-01T13:30:35.001Z</time></trkpt><trkpt lat="45.89249895059682" lon="10.854601327625002"><ele>75.4</ele><time>2026-05-01T13:30:36.001Z</time></trkpt><trkpt lat="45.89245372868351" lon="10.854695678014723"><ele>75.2</ele><time>2026-05-01T13:30:37.001Z</time></trkpt><trkpt lat="45.89238638379708" lon="10.854853167933017"><ele>75.0</ele><time>2026-05-01T13:30:39.001Z</time></trkpt><trkpt lat="45.89233030852634" lon="10.854927679011162"><ele>75.0</ele><time>2026-05-01T13:30:40.001Z</time></trkpt><trkpt lat="45.892270866385395" lon="10.855079932639732"><ele>75.0</ele><time>2026-05-01T13:30:42.002Z</time></trkpt><trkpt lat="45.892228946160024" lon="10.855154920548955"><ele>75.0</ele><time>2026-05-01T13:30:43.002Z</time></trkpt><trkpt lat="45.892158095031625" lon="10.855239468270097"><ele>75.0</ele><time>2026-05-01T13:30:44.002Z</time></trkpt><trkpt lat="45.89209148650183" lon="10.855353609733779"><ele>75.0</ele><time>2026-05-01T13:30:45.002Z</time></trkpt><trkpt lat="45.892031778240394" lon="10.855455926479806"><ele>74.33333333333333</ele><time>2026-05-01T13:30:46.002Z</time></trkpt><trkpt lat="45.89197622401822" lon="10.855551124938698"><ele>73.66666666666667</ele><time>2026-05-01T13:30:47.002Z</time></trkpt><trkpt lat="45.8919189600077" lon="10.855649253401722"><ele>73.0</ele><time>2026-05-01T13:30:48.002Z</time></trkpt><trkpt lat="45.89186339721449" lon="10.855744466539232"><ele>72.33333333333334</ele><time>2026-05-01T13:30:49.002Z</time></trkpt><trkpt lat="45.891806336913675" lon="10.855842245929688"><ele>71.66666666666667</ele><time>2026-05-01T13:30:50.002Z</time></trkpt><trkpt lat="45.891752296282064" lon="10.855934850686475"><ele>71.0</ele><time>2026-05-01T13:30:51.002Z</time></trkpt><trkpt lat="45.89170361179942" lon="10.856018287534518"><ele>71.0</ele><time>2026-05-01T13:30:52.002Z</time></trkpt><trkpt lat="45.89164911402115" lon="10.856111715404515"><ele>71.0</ele><time>2026-05-01T13:30:53.002Z</time></trkpt><trkpt lat="45.8916052824989" lon="10.856186857713961"><ele>71.0</ele><time>2026-05-01T13:30:54Z</time></trkpt><trkpt lat="45.89155579750059" lon="10.856271692010935"><ele>71.0</ele><time>2026-05-01T13:30:55Z</time></trkpt><trkpt lat="45.89148709568513" lon="10.856389470376895"><ele>71.0</ele><time>2026-05-01T13:30:56Z</time></trkpt><trkpt lat="45.89138835862" lon="10.856558739799613"><ele>71.0</ele><time>2026-05-01T13:30:57Z</time></trkpt><trkpt lat="45.891300975063565" lon="10.856708545277275"><ele>71.0</ele><time>2026-05-01T13:30:58Z</time></trkpt><trkpt lat="45.89124104628912" lon="10.856811283789872"><ele>71.0</ele><time>2026-05-01T13:30:59Z</time></trkpt><trkpt lat="45.89119924496476" lon="10.856914909975142"><ele>71.0</ele><time>2026-05-01T13:31:00Z</time></trkpt><trkpt lat="45.89114516588302" lon="10.856983181775806"><ele>71.0</ele><time>2026-05-01T13:31:01Z</time></trkpt><trkpt lat="45.89107382464394" lon="10.857074130397542"><ele>71.16666666666667</ele><time>2026-05-01T13:31:03Z</time></trkpt><trkpt lat="45.891030002837944" lon="10.857140293048662"><ele>71.33333333333334</ele><time>2026-05-01T13:31:05Z</time></trkpt><trkpt lat="45.890916452060615" lon="10.85723263274871"><ele>71.5</ele><time>2026-05-01T13:31:07Z</time></trkpt><trkpt lat="45.89085223261332" lon="10.857277311637363"><ele>71.66666666666667</ele><time>2026-05-01T13:31:08Z</time></trkpt><trkpt lat="45.8907812950366" lon="10.857322850221038"><ele>71.83333333333333</ele><time>2026-05-01T13:31:09Z</time></trkpt><trkpt lat="45.89070151078767" lon="10.857366883129057"><ele>72.0</ele><time>2026-05-01T13:31:10Z</time></trkpt><trkpt lat="45.8906165715162" lon="10.857398334514803"><ele>71.6</ele><time>2026-05-01T13:31:11Z</time></trkpt><trkpt lat="45.890531822176925" lon="10.857434407122952"><ele>71.2</ele><time>2026-05-01T13:31:12Z</time></trkpt><trkpt lat="45.89044991948078" lon="10.85748847938171"><ele>70.8</ele><time>2026-05-01T13:31:13Z</time></trkpt><trkpt lat="45.890371828384815" lon="10.85755401996838"><ele>70.4</ele><time>2026-05-01T13:31:14Z</time></trkpt><trkpt lat="45.89029565611324" lon="10.857631808807627"><ele>70.0</ele><time>2026-05-01T13:31:15Z</time></trkpt><trkpt lat="45.89022493902004" lon="10.857732165317477"><ele>70.0</ele><time>2026-05-01T13:31:16Z</time></trkpt><trkpt lat="45.8901520411263" lon="10.857841969635514"><ele>70.0</ele><time>2026-05-01T13:31:17Z</time></trkpt><trkpt lat="45.89007501495214" lon="10.857960083739798"><ele>70.0</ele><time>2026-05-01T13:31:18Z</time></trkpt><trkpt lat="45.889989646488786" lon="10.858091424542677"><ele>70.0</ele><time>2026-05-01T13:31:19Z</time></trkpt><trkpt lat="45.88990759510267" lon="10.858219679301278"><ele>70.0</ele><time>2026-05-01T13:31:20Z</time></trkpt><trkpt lat="45.889833165154954" lon="10.858339678367955"><ele>70.0</ele><time>2026-05-01T13:31:21Z</time></trkpt><trkpt lat="45.88975128221993" lon="10.858465232845194"><ele>70.0</ele><time>2026-05-01T13:31:22Z</time></trkpt><trkpt lat="45.88968153451068" lon="10.85859552880798"><ele>70.0</ele><time>2026-05-01T13:31:23Z</time></trkpt><trkpt lat="45.88959856831717" lon="10.85869110345591"><ele>70.33333333333333</ele><time>2026-05-01T13:31:24Z</time></trkpt><trkpt lat="45.88952549693402" lon="10.85879608001196"><ele>70.66666666666666</ele><time>2026-05-01T13:31:25Z</time></trkpt><trkpt lat="45.889454450835686" lon="10.85889440269037"><ele>71.0</ele><time>2026-05-01T13:31:26Z</time></trkpt><trkpt lat="45.88939402339165" lon="10.858977780162704"><ele>71.33333333333333</ele><time>2026-05-01T13:31:27Z</time></trkpt><trkpt lat="45.889343879982185" lon="10.859073272378339"><ele>71.66666666666667</ele><time>2026-05-01T13:31:28Z</time></trkpt><trkpt lat="45.88928742287799" lon="10.859150569049136"><ele>72.0</ele><time>2026-05-01T13:31:29Z</time></trkpt><trkpt lat="45.88923476901865" lon="10.859220824373182"><ele>72.5</ele><time>2026-05-01T13:31:30Z</time></trkpt><trkpt lat="45.88918388827919" lon="10.859284861121496"><ele>73.0</ele><time>2026-05-01T13:31:31Z</time></trkpt><trkpt lat="45.88908148146235" lon="10.85937017024321"><ele>73.5</ele><time>2026-05-01T13:31:33.001Z</time></trkpt><trkpt lat="45.88893001700803" lon="10.85929573974385"><ele>74.0</ele><time>2026-05-01T13:31:35.001Z</time></trkpt><trkpt lat="45.888826384641426" lon="10.859252321870853"><ele>74.0</ele><time>2026-05-01T13:31:36.001Z</time></trkpt><trkpt lat="45.88871619957771" lon="10.859246922625715"><ele>74.0</ele><time>2026-05-01T13:31:37.001Z</time></trkpt><trkpt lat="45.88860507577987" lon="10.859239719755829"><ele>74.0</ele><time>2026-05-01T13:31:38.001Z</time></trkpt><trkpt lat="45.88848952000125" lon="10.859257549958532"><ele>74.0</ele><time>2026-05-01T13:31:39.001Z</time></trkpt><trkpt lat="45.88837716904037" lon="10.859252596913358"><ele>73.4</ele><time>2026-05-01T13:31:40.001Z</time></trkpt><trkpt lat="45.888268146161415" lon="10.859266681548918"><ele>72.80000000000001</ele><time>2026-05-01T13:31:41.001Z</time></trkpt><trkpt lat="45.88816987763769" lon="10.85926660623611"><ele>72.19999999999999</ele><time>2026-05-01T13:31:42.001Z</time></trkpt><trkpt lat="45.888062207380976" lon="10.859262073327749"><ele>71.6</ele><time>2026-05-01T13:31:43.001Z</time></trkpt><trkpt lat="45.88795643407492" lon="10.859202756925239"><ele>71.0</ele><time>2026-05-01T13:31:44.001Z</time></trkpt><trkpt lat="45.88785246587144" lon="10.859121077805984"><ele>71.0</ele><time>2026-05-01T13:31:45.001Z</time></trkpt><trkpt lat="45.88775945663333" lon="10.858995290978648"><ele>71.0</ele><time>2026-05-01T13:31:46.001Z</time></trkpt><trkpt lat="45.887647170043394" lon="10.8588886317582"><ele>71.0</ele><time>2026-05-01T13:31:47.001Z</time></trkpt><trkpt lat="45.88754755056117" lon="10.858761312838121"><ele>71.0</ele><time>2026-05-01T13:31:48.001Z</time></trkpt><trkpt lat="45.88742492318117" lon="10.858659909002803"><ele>71.0</ele><time>2026-05-01T13:31:49.001Z</time></trkpt><trkpt lat="45.88730358368124" lon="10.85854283929758"><ele>71.0</ele><time>2026-05-01T13:31:50.001Z</time></trkpt><trkpt lat="45.887187019942026" lon="10.858426296049657"><ele>71.0</ele><time>2026-05-01T13:31:51.001Z</time></trkpt><trkpt lat="45.88707670432072" lon="10.85832336961679"><ele>71.0</ele><time>2026-05-01T13:31:52.001Z</time></trkpt><trkpt lat="45.88697350774056" lon="10.858238606833366"><ele>71.0</ele><time>2026-05-01T13:31:53.001Z</time></trkpt><trkpt lat="45.88687689322394" lon="10.858147491147303"><ele>71.0</ele><time>2026-05-01T13:31:54.001Z</time></trkpt><trkpt lat="45.88678194950325" lon="10.858052950968627"><ele>71.0</ele><time>2026-05-01T13:31:55.001Z</time></trkpt><trkpt lat="45.886692033076" lon="10.857963812277555"><ele>71.0</ele><time>2026-05-01T13:31:56.001Z</time></trkpt><trkpt lat="45.88661369808944" lon="10.857852844452195"><ele>71.0</ele><time>2026-05-01T13:31:57.001Z</time></trkpt><trkpt lat="45.88651965679917" lon="10.857751114338303"><ele>71.0</ele><time>2026-05-01T13:31:58.001Z</time></trkpt><trkpt lat="45.88643290972678" lon="10.857657294164621"><ele>71.0</ele><time>2026-05-01T13:31:59.001Z</time></trkpt><trkpt lat="45.88634884365133" lon="10.857564619305135"><ele>71.0</ele><time>2026-05-01T13:32:00.001Z</time></trkpt><trkpt lat="45.88628025196493" lon="10.857487398314017"><ele>71.0</ele><time>2026-05-01T13:32:01.001Z</time></trkpt><trkpt lat="45.88621858249097" lon="10.85741107905508"><ele>70.83333333333334</ele><time>2026-05-01T13:32:02.001Z</time></trkpt><trkpt lat="45.88615708206475" lon="10.857336520407275"><ele>70.66666666666667</ele><time>2026-05-01T13:32:03.001Z</time></trkpt><trkpt lat="45.886094031446675" lon="10.857257107076606"><ele>70.5</ele><time>2026-05-01T13:32:04.001Z</time></trkpt><trkpt lat="45.886040683289785" lon="10.857187820034223"><ele>70.33333333333333</ele><time>2026-05-01T13:32:05.001Z</time></trkpt><trkpt lat="45.88599094060904" lon="10.8571172983975"><ele>70.16666666666666</ele><time>2026-05-01T13:32:06.001Z</time></trkpt><trkpt lat="45.88593189944329" lon="10.856993141486347"><ele>70.0</ele><time>2026-05-01T13:32:08.001Z</time></trkpt><trkpt lat="45.88597822852323" lon="10.856880200751702"><ele>70.0</ele><time>2026-05-01T13:32:09.001Z</time></trkpt><trkpt lat="45.88600579563893" lon="10.856770486274588"><ele>70.0</ele><time>2026-05-01T13:32:11.001Z</time></trkpt><trkpt lat="45.88602223447099" lon="10.856671529263487"><ele>70.0</ele><time>2026-05-01T13:32:15.001Z</time></trkpt><trkpt lat="45.886069910666436" lon="10.856551045023181"><ele>70.0</ele><time>2026-05-01T13:32:17.001Z</time></trkpt><trkpt lat="45.886032536117526" lon="10.856451476051438"><ele>70.0</ele><time>2026-05-01T13:32:19.001Z</time></trkpt><trkpt lat="45.88595233986234" lon="10.856450136985748"><ele>70.0</ele><time>2026-05-01T13:32:21.001Z</time></trkpt><trkpt lat="45.88584287715496" lon="10.856468088154163"><ele>70.0</ele><time>2026-05-01T13:32:27.001Z</time></trkpt><trkpt lat="45.88578054192906" lon="10.856399817340028"><ele>70.0</ele><time>2026-05-01T13:32:28.001Z</time></trkpt><trkpt lat="45.885685276625" lon="10.85632289362326"><ele>70.0</ele><time>2026-05-01T13:32:29.001Z</time></trkpt><trkpt lat="45.8855786070447" lon="10.856223082962321"><ele>70.0</ele><time>2026-05-01T13:32:30.001Z</time></trkpt><trkpt lat="45.885457772925626" lon="10.856113583457184"><ele>70.0</ele><time>2026-05-01T13:32:31.001Z</time></trkpt><trkpt lat="45.88532958872827" lon="10.855996733963414"><ele>70.0</ele><time>2026-05-01T13:32:32.001Z</time></trkpt><trkpt lat="45.88518515171402" lon="10.85590230134997"><ele>70.0</ele><time>2026-05-01T13:32:33.001Z</time></trkpt><trkpt lat="45.88506747302747" lon="10.855792039009865"><ele>69.25</ele><time>2026-05-01T13:32:34.001Z</time></trkpt><trkpt lat="45.88494153039759" lon="10.855709490253185"><ele>68.5</ele><time>2026-05-01T13:32:35.001Z</time></trkpt><trkpt lat="45.88480992525705" lon="10.85563706009806"><ele>67.75</ele><time>2026-05-01T13:32:36.001Z</time></trkpt><trkpt lat="45.88467363493488" lon="10.855585268585127"><ele>67.0</ele><time>2026-05-01T13:32:37.001Z</time></trkpt><trkpt lat="45.88454831510355" lon="10.855506978069029"><ele>67.0</ele><time>2026-05-01T13:32:38.001Z</time></trkpt><trkpt lat="45.884429103672396" lon="10.855422484420815"><ele>67.0</ele><time>2026-05-01T13:32:39.001Z</time></trkpt><trkpt lat="45.88430959805388" lon="10.855359285599173"><ele>67.0</ele><time>2026-05-01T13:32:40.001Z</time></trkpt><trkpt lat="45.884204010635436" lon="10.855292377928828"><ele>67.0</ele><time>2026-05-01T13:32:41.001Z</time></trkpt><trkpt lat="45.884093334841666" lon="10.855235865669062"><ele>67.0</ele><time>2026-05-01T13:32:42.001Z</time></trkpt><trkpt lat="45.88398236936277" lon="10.855184653307322"><ele>67.0</ele><time>2026-05-01T13:32:43.001Z</time></trkpt><trkpt lat="45.88386679587383" lon="10.855125198486588"><ele>67.0</ele><time>2026-05-01T13:32:44.001Z</time></trkpt><trkpt lat="45.88376151414634" lon="10.855065134534879"><ele>67.0</ele><time>2026-05-01T13:32:45.001Z</time></trkpt><trkpt lat="45.88366178421317" lon="10.855001921912773"><ele>67.0</ele><time>2026-05-01T13:32:46.001Z</time></trkpt><trkpt lat="45.88356538942532" lon="10.854956364197488"><ele>67.0</ele><time>2026-05-01T13:32:47.001Z</time></trkpt><trkpt lat="45.88347278842872" lon="10.854914319195439"><ele>67.0</ele><time>2026-05-01T13:32:48.001Z</time></trkpt><trkpt lat="45.88339063990527" lon="10.85487748195531"><ele>67.0</ele><time>2026-05-01T13:32:49.001Z</time></trkpt><trkpt lat="45.88331815867241" lon="10.854836274887555"><ele>67.0</ele><time>2026-05-01T13:32:50.001Z</time></trkpt><trkpt lat="45.88324713084118" lon="10.854803352844725"><ele>67.0</ele><time>2026-05-01T13:32:51.001Z</time></trkpt><trkpt lat="45.883160143155656" lon="10.854763155446191"><ele>67.4</ele><time>2026-05-01T13:32:53.001Z</time></trkpt><trkpt lat="45.883084442300905" lon="10.85472489983998"><ele>67.80000000000001</ele><time>2026-05-01T13:32:55.001Z</time></trkpt><trkpt lat="45.883003313613344" lon="10.854654030217972"><ele>68.2</ele><time>2026-05-01T13:32:57.001Z</time></trkpt><trkpt lat="45.88290288429457" lon="10.854592587275421"><ele>68.60000000000001</ele><time>2026-05-01T13:32:59.001Z</time></trkpt><trkpt lat="45.88281619796726" lon="10.854538879478486"><ele>69.0</ele><time>2026-05-01T13:33:01Z</time></trkpt><trkpt lat="45.88271711345766" lon="10.854480369171126"><ele>69.0</ele><time>2026-05-01T13:33:03Z</time></trkpt><trkpt lat="45.88262016048341" lon="10.854423487083116"><ele>69.0</ele><time>2026-05-01T13:33:05Z</time></trkpt><trkpt lat="45.88254723436123" lon="10.854378965714627"><ele>69.0</ele><time>2026-05-01T13:33:07Z</time></trkpt><trkpt lat="45.882473995388104" lon="10.854323062109648"><ele>69.0</ele><time>2026-05-01T13:33:12Z</time></trkpt><trkpt lat="45.882395366041244" lon="10.854245663862036"><ele>69.0</ele><time>2026-05-01T13:33:14Z</time></trkpt><trkpt lat="45.882357870791104" lon="10.854133155959433"><ele>69.0</ele><time>2026-05-01T13:33:16Z</time></trkpt><trkpt lat="45.88230914372102" lon="10.854025157556272"><ele>68.4</ele><time>2026-05-01T13:33:18Z</time></trkpt><trkpt lat="45.88223994070853" lon="10.85400016813202"><ele>67.80000000000001</ele><time>2026-05-01T13:33:20Z</time></trkpt><trkpt lat="45.882125641502014" lon="10.854067241619088"><ele>67.19999999999999</ele><time>2026-05-01T13:33:22Z</time></trkpt><trkpt lat="45.8820157143842" lon="10.854099699131059"><ele>66.6</ele><time>2026-05-01T13:33:24Z</time></trkpt><trkpt lat="45.881913139653776" lon="10.854197551806738"><ele>66.0</ele><time>2026-05-01T13:33:26Z</time></trkpt><trkpt lat="45.88183168640399" lon="10.854285391068867"><ele>66.16666666666667</ele><time>2026-05-01T13:33:28Z</time></trkpt><trkpt lat="45.881753508007705" lon="10.854370129116036"><ele>66.33333333333333</ele><time>2026-05-01T13:33:30Z</time></trkpt><trkpt lat="45.88168513286796" lon="10.854444240307942"><ele>66.5</ele><time>2026-05-01T13:33:32Z</time></trkpt><trkpt lat="45.88160890912589" lon="10.854520835655844"><ele>66.66666666666666</ele><time>2026-05-01T13:33:34Z</time></trkpt><trkpt lat="45.881553382644434" lon="10.854579301271364"><ele>66.83333333333333</ele><time>2026-05-01T13:33:36Z</time></trkpt><trkpt lat="45.881498687577924" lon="10.854636891395238"><ele>67.0</ele><time>2026-05-01T13:33:38Z</time></trkpt><trkpt lat="45.88142793118385" lon="10.854711392870142"><ele>67.0</ele><time>2026-05-01T13:33:40.001Z</time></trkpt><trkpt lat="45.88135824589646" lon="10.854784766664617"><ele>67.0</ele><time>2026-05-01T13:33:42.001Z</time></trkpt><trkpt lat="45.88127948829324" lon="10.854867693007144"><ele>67.0</ele><time>2026-05-01T13:33:44.001Z</time></trkpt><trkpt lat="45.881210781397115" lon="10.854940036567053"><ele>67.0</ele><time>2026-05-01T13:33:46.001Z</time></trkpt><trkpt lat="45.8811414516448" lon="10.855031741008188"><ele>67.0</ele><time>2026-05-01T13:33:48.001Z</time></trkpt><trkpt lat="45.88107587436868" lon="10.855082083484998"><ele>67.0</ele><time>2026-05-01T13:33:51.001Z</time></trkpt><trkpt lat="45.881013447816045" lon="10.855145773969099"><ele>66.83333333333333</ele><time>2026-05-01T13:33:52.001Z</time></trkpt><trkpt lat="45.88096103975369" lon="10.85519958214646"><ele>66.66666666666666</ele><time>2026-05-01T13:33:53.001Z</time></trkpt><trkpt lat="45.88090861801427" lon="10.855292958016614"><ele>66.5</ele><time>2026-05-01T13:33:55.001Z</time></trkpt><trkpt lat="45.8808264046053" lon="10.85538809282887"><ele>66.33333333333333</ele><time>2026-05-01T13:33:57.001Z</time></trkpt><trkpt lat="45.88074832631919" lon="10.855475808418817"><ele>66.16666666666667</ele><time>2026-05-01T13:33:59.001Z</time></trkpt><trkpt lat="45.88066909643986" lon="10.85550983907686"><ele>66.0</ele><time>2026-05-01T13:34:01.001Z</time></trkpt><trkpt lat="45.880614017774796" lon="10.855567959734012"><ele>66.5</ele><time>2026-05-01T13:34:03.001Z</time></trkpt><trkpt lat="45.8805597092687" lon="10.855625268215716"><ele>67.0</ele><time>2026-05-01T13:34:05.001Z</time></trkpt><trkpt lat="45.88048134256656" lon="10.85570889873719"><ele>67.5</ele><time>2026-05-01T13:34:08.001Z</time></trkpt><trkpt lat="45.88039439056349" lon="10.855798986653186"><ele>68.0</ele><time>2026-05-01T13:34:10.001Z</time></trkpt><trkpt lat="45.88035213784471" lon="10.855870755503268"><ele>68.5</ele><time>2026-05-01T13:34:11.001Z</time></trkpt><trkpt lat="45.880295302898105" lon="10.855922926211587"><ele>69.0</ele><time>2026-05-01T13:34:12.001Z</time></trkpt><trkpt lat="45.880231356973134" lon="10.855987023902435"><ele>69.0</ele><time>2026-05-01T13:34:13.001Z</time></trkpt><trkpt lat="45.880170547882734" lon="10.856055562225539"><ele>69.0</ele><time>2026-05-01T13:34:14.001Z</time></trkpt><trkpt lat="45.88011578156136" lon="10.856113005349115"><ele>69.0</ele><time>2026-05-01T13:34:17.001Z</time></trkpt><trkpt lat="45.88004707553809" lon="10.85618478661259"><ele>69.0</ele><time>2026-05-01T13:34:19.001Z</time></trkpt><trkpt lat="45.879986030601366" lon="10.856248129256393"><ele>69.0</ele><time>2026-05-01T13:34:20.001Z</time></trkpt><trkpt lat="45.879920232999645" lon="10.85632135873"><ele>69.0</ele><time>2026-05-01T13:34:21.001Z</time></trkpt><trkpt lat="45.87984401588118" lon="10.856404849008364"><ele>68.60000000000001</ele><time>2026-05-01T13:34:22.001Z</time></trkpt><trkpt lat="45.879758245326094" lon="10.85648530567987"><ele>68.2</ele><time>2026-05-01T13:34:23.001Z</time></trkpt><trkpt lat="45.879685225266094" lon="10.856542386701607"><ele>67.80000000000001</ele><time>2026-05-01T13:34:24.001Z</time></trkpt><trkpt lat="45.87961448580946" lon="10.856616863845973"><ele>67.4</ele><time>2026-05-01T13:34:25.001Z</time></trkpt><trkpt lat="45.87952828734796" lon="10.85670689997362"><ele>67.0</ele><time>2026-05-01T13:34:26.001Z</time></trkpt><trkpt lat="45.87946083300319" lon="10.856779939886081"><ele>67.2</ele><time>2026-05-01T13:34:27.001Z</time></trkpt><trkpt lat="45.879388397188826" lon="10.856854110401216"><ele>67.4</ele><time>2026-05-01T13:34:28.001Z</time></trkpt><trkpt lat="45.8793103975905" lon="10.85693054079977"><ele>67.6</ele><time>2026-05-01T13:34:29.001Z</time></trkpt><trkpt lat="45.879234261041695" lon="10.857000264733129"><ele>67.8</ele><time>2026-05-01T13:34:30.001Z</time></trkpt><trkpt lat="45.87914814336301" lon="10.857074522433631"><ele>68.0</ele><time>2026-05-01T13:34:31.001Z</time></trkpt><trkpt lat="45.879070937798964" lon="10.857136482699428"><ele>68.16666666666667</ele><time>2026-05-01T13:34:32.001Z</time></trkpt><trkpt lat="45.87900739823528" lon="10.857182701991189"><ele>68.33333333333334</ele><time>2026-05-01T13:34:33.001Z</time></trkpt><trkpt lat="45.878904413154956" lon="10.857248277328733"><ele>68.5</ele><time>2026-05-01T13:34:35.001Z</time></trkpt><trkpt lat="45.87883929733888" lon="10.857313223868045"><ele>68.66666666666667</ele><time>2026-05-01T13:34:38.001Z</time></trkpt><trkpt lat="45.87875615650797" lon="10.857351892971831"><ele>68.83333333333333</ele><time>2026-05-01T13:34:42.001Z</time></trkpt><trkpt lat="45.878694143069254" lon="10.85738155852977"><ele>69.0</ele><time>2026-05-01T13:34:43.001Z</time></trkpt><trkpt lat="45.87861541166934" lon="10.85741405031158"><ele>69.0</ele><time>2026-05-01T13:34:44.001Z</time></trkpt><trkpt lat="45.878512971342246" lon="10.857459349819262"><ele>69.0</ele><time>2026-05-01T13:34:45.001Z</time></trkpt><trkpt lat="45.87839607387221" lon="10.85747474520994"><ele>69.0</ele><time>2026-05-01T13:34:46.001Z</time></trkpt><trkpt lat="45.878278916013485" lon="10.857520579163703"><ele>69.0</ele><time>2026-05-01T13:34:47.001Z</time></trkpt><trkpt lat="45.87816862594394" lon="10.857606379385068"><ele>69.5</ele><time>2026-05-01T13:34:48.001Z</time></trkpt><trkpt lat="45.87804172380557" lon="10.857653614079279"><ele>70.0</ele><time>2026-05-01T13:34:49.001Z</time></trkpt><trkpt lat="45.87790829167049" lon="10.857707092417442"><ele>70.5</ele><time>2026-05-01T13:34:50.001Z</time></trkpt><trkpt lat="45.87777695598858" lon="10.85776348548247"><ele>71.0</ele><time>2026-05-01T13:34:51.001Z</time></trkpt><trkpt lat="45.87764690641273" lon="10.857820716788707"><ele>73.75</ele><time>2026-05-01T13:34:52.001Z</time></trkpt><trkpt lat="45.877518741229096" lon="10.857871827849666"><ele>76.5</ele><time>2026-05-01T13:34:53.001Z</time></trkpt><trkpt lat="45.87739238874306" lon="10.857919055216213"><ele>79.25</ele><time>2026-05-01T13:34:54.001Z</time></trkpt><trkpt lat="45.877270807052746" lon="10.857966534819223"><ele>82.0</ele><time>2026-05-01T13:34:55.001Z</time></trkpt><trkpt lat="45.877151967125556" lon="10.858015603687885"><ele>82.0</ele><time>2026-05-01T13:34:56.015Z</time></trkpt><trkpt lat="45.87704213535267" lon="10.85806153979729"><ele>82.0</ele><time>2026-05-01T13:34:57.014Z</time></trkpt><trkpt lat="45.876945530065484" lon="10.85810080387243"><ele>82.0</ele><time>2026-05-01T13:34:58.014Z</time></trkpt><trkpt lat="45.876854177509365" lon="10.858141835174223"><ele>82.0</ele><time>2026-05-01T13:34:59.015Z</time></trkpt><trkpt lat="45.87650011245142" lon="10.85846739134443"><ele>81.75</ele><time>2026-05-01T13:35:02.001Z</time></trkpt><trkpt lat="45.87643649988336" lon="10.858606942289258"><ele>81.5</ele><time>2026-05-01T13:35:03.001Z</time></trkpt><trkpt lat="45.87639673328999" lon="10.858746823326829"><ele>81.25</ele><time>2026-05-01T13:35:04.001Z</time></trkpt><trkpt lat="45.87636065424526" lon="10.858897659423208"><ele>81.0</ele><time>2026-05-01T13:35:05.001Z</time></trkpt><trkpt lat="45.87634601314564" lon="10.859071390911206"><ele>81.0</ele><time>2026-05-01T13:35:06.001Z</time></trkpt><trkpt lat="45.87634475583781" lon="10.859228242033835"><ele>81.0</ele><time>2026-05-01T13:35:07.001Z</time></trkpt><trkpt lat="45.876378870635676" lon="10.85943825842176"><ele>81.0</ele><time>2026-05-01T13:35:09.001Z</time></trkpt><trkpt lat="45.87640292743776" lon="10.859590155437536"><ele>81.0</ele><time>2026-05-01T13:35:10.001Z</time></trkpt><trkpt lat="45.876444620985644" lon="10.859745059492836"><ele>81.25</ele><time>2026-05-01T13:35:11.001Z</time></trkpt><trkpt lat="45.876485719061215" lon="10.859908900614686"><ele>81.5</ele><time>2026-05-01T13:35:12Z</time></trkpt><trkpt lat="45.87651215378874" lon="10.860080760861333"><ele>81.75</ele><time>2026-05-01T13:35:13Z</time></trkpt><trkpt lat="45.87654846200328" lon="10.860255875233637"><ele>82.0</ele><time>2026-05-01T13:35:14Z</time></trkpt><trkpt lat="45.87657663100811" lon="10.860400908947385"><ele>82.0</ele><time>2026-05-01T13:35:15Z</time></trkpt><trkpt lat="45.87660499359645" lon="10.860569104996925"><ele>82.0</ele><time>2026-05-01T13:35:16Z</time></trkpt><trkpt lat="45.87662726569189" lon="10.86075082479623"><ele>82.0</ele><time>2026-05-01T13:35:17Z</time></trkpt><trkpt lat="45.87664350755574" lon="10.860940343964135"><ele>82.0</ele><time>2026-05-01T13:35:18Z</time></trkpt><trkpt lat="45.87666090979866" lon="10.861147895023125"><ele>84.5</ele><time>2026-05-01T13:35:19Z</time></trkpt><trkpt lat="45.876684183580316" lon="10.861347360424316"><ele>87.0</ele><time>2026-05-01T13:35:20Z</time></trkpt><trkpt lat="45.876703092054306" lon="10.86155168011778"><ele>89.5</ele><time>2026-05-01T13:35:21Z</time></trkpt><trkpt lat="45.876723530383885" lon="10.861760992139846"><ele>92.0</ele><time>2026-05-01T13:35:22Z</time></trkpt><trkpt lat="45.876741159984924" lon="10.861972585141586"><ele>92.0</ele><time>2026-05-01T13:35:23Z</time></trkpt><trkpt lat="45.876752724521594" lon="10.862147682823238"><ele>92.0</ele><time>2026-05-01T13:35:24Z</time></trkpt><trkpt lat="45.87676542900834" lon="10.862335745467048"><ele>92.0</ele><time>2026-05-01T13:35:25Z</time></trkpt><trkpt lat="45.876785661724625" lon="10.862513316039479"><ele>92.0</ele><time>2026-05-01T13:35:26Z</time></trkpt><trkpt lat="45.876766783918406" lon="10.862687866859085"><ele>104.0</ele><time>2026-05-01T13:35:27Z</time></trkpt><trkpt lat="45.876804749592026" lon="10.86285631431871"><ele>116.0</ele><time>2026-05-01T13:35:28Z</time></trkpt><trkpt lat="45.8768386473395" lon="10.863015214078343"><ele>128.0</ele><time>2026-05-01T13:35:29Z</time></trkpt><trkpt lat="45.87687333015414" lon="10.863198777153082"><ele>140.0</ele><time>2026-05-01T13:35:30Z</time></trkpt><trkpt lat="45.87691642317184" lon="10.863360534609745"><ele>134.5</ele><time>2026-05-01T13:35:31Z</time></trkpt><trkpt lat="45.87695547868507" lon="10.863502325419928"><ele>129.0</ele><time>2026-05-01T13:35:32Z</time></trkpt><trkpt lat="45.8770068360613" lon="10.863684542693852"><ele>123.5</ele><time>2026-05-01T13:35:33Z</time></trkpt><trkpt lat="45.87706579392031" lon="10.863839589351407"><ele>118.0</ele><time>2026-05-01T13:35:34Z</time></trkpt><trkpt lat="45.87710970995949" lon="10.864028995930456"><ele>118.0</ele><time>2026-05-01T13:35:35Z</time></trkpt><trkpt lat="45.87715454350047" lon="10.864175907529534"><ele>118.0</ele><time>2026-05-01T13:35:36Z</time></trkpt><trkpt lat="45.87717663291835" lon="10.864343377650084"><ele>118.0</ele><time>2026-05-01T13:35:37Z</time></trkpt><trkpt lat="45.87720244368311" lon="10.864515119930179"><ele>118.0</ele><time>2026-05-01T13:35:38Z</time></trkpt><trkpt lat="45.8772368188448" lon="10.864685174416149"><ele>118.0</ele><time>2026-05-01T13:35:39Z</time></trkpt><trkpt lat="45.87727067199562" lon="10.864853851775639"><ele>118.0</ele><time>2026-05-01T13:35:40Z</time></trkpt><trkpt lat="45.87730145098121" lon="10.865024909255844"><ele>118.0</ele><time>2026-05-01T13:35:41Z</time></trkpt><trkpt lat="45.87732944280359" lon="10.86519799082445"><ele>118.0</ele><time>2026-05-01T13:35:42Z</time></trkpt><trkpt lat="45.87735683690924" lon="10.865369483188438"><ele>111.0</ele><time>2026-05-01T13:35:43Z</time></trkpt><trkpt lat="45.87738628225721" lon="10.865540070963112"><ele>104.0</ele><time>2026-05-01T13:35:44Z</time></trkpt><trkpt lat="45.877411180471405" lon="10.86570713034305"><ele>97.0</ele><time>2026-05-01T13:35:45Z</time></trkpt><trkpt lat="45.87739764638451" lon="10.865890506543684"><ele>90.0</ele><time>2026-05-01T13:35:46Z</time></trkpt><trkpt lat="45.87742133274112" lon="10.866060153731164"><ele>87.0</ele><time>2026-05-01T13:35:47Z</time></trkpt><trkpt lat="45.877445922060694" lon="10.866235714598082"><ele>84.0</ele><time>2026-05-01T13:35:48.001Z</time></trkpt><trkpt lat="45.87751056492163" lon="10.866505048389437"><ele>81.0</ele><time>2026-05-01T13:35:49.001Z</time></trkpt><trkpt lat="45.87754380938505" lon="10.86674386838118"><ele>80.75</ele><time>2026-05-01T13:35:50.001Z</time></trkpt><trkpt lat="45.87756254002131" lon="10.866925151782079"><ele>80.5</ele><time>2026-05-01T13:35:51.001Z</time></trkpt><trkpt lat="45.877575365346566" lon="10.867097976268903"><ele>80.25</ele><time>2026-05-01T13:35:52.001Z</time></trkpt><trkpt lat="45.87757011604136" lon="10.86723533084796"><ele>80.0</ele><time>2026-05-01T13:35:53.001Z</time></trkpt><trkpt lat="45.87753457548051" lon="10.867519979356427"><ele>77.4</ele><time>2026-05-01T13:35:54.001Z</time></trkpt><trkpt lat="45.87750856647824" lon="10.867623580492756"><ele>74.8</ele><time>2026-05-01T13:35:56.001Z</time></trkpt><trkpt lat="45.87747112181278" lon="10.867759083932325"><ele>72.2</ele><time>2026-05-01T13:36:05.001Z</time></trkpt><trkpt lat="45.87742344248833" lon="10.867897112708262"><ele>69.6</ele><time>2026-05-01T13:36:07.001Z</time></trkpt><trkpt lat="45.877386598888" lon="10.868010173270095"><ele>67.0</ele><time>2026-05-01T13:36:14.001Z</time></trkpt><trkpt lat="45.87734211907342" lon="10.868146290581262"><ele>67.0</ele><time>2026-05-01T13:36:16.001Z</time></trkpt><trkpt lat="45.877286794160526" lon="10.868315595978995"><ele>67.0</ele><time>2026-05-01T13:36:18.001Z</time></trkpt><trkpt lat="45.87725251210802" lon="10.868420504797465"><ele>67.0</ele><time>2026-05-01T13:36:19.001Z</time></trkpt><trkpt lat="45.87721779772651" lon="10.868531736938383"><ele>67.0</ele><time>2026-05-01T13:36:20.001Z</time></trkpt><trkpt lat="45.87718343263839" lon="10.868636988082564"><ele>67.0</ele><time>2026-05-01T13:36:21.001Z</time></trkpt><trkpt lat="45.87714658184178" lon="10.8687488558006"><ele>67.0</ele><time>2026-05-01T13:36:22.001Z</time></trkpt><trkpt lat="45.87711048879975" lon="10.868856582808625"><ele>67.0</ele><time>2026-05-01T13:36:23.001Z</time></trkpt><trkpt lat="45.87707349514644" lon="10.868966997729887"><ele>67.0</ele><time>2026-05-01T13:36:24.001Z</time></trkpt><trkpt lat="45.877039668329495" lon="10.869067960725735"><ele>67.0</ele><time>2026-05-01T13:36:25.001Z</time></trkpt><trkpt lat="45.87700698847944" lon="10.869165498819976"><ele>67.0</ele><time>2026-05-01T13:36:26.001Z</time></trkpt><trkpt lat="45.87697547014213" lon="10.869263542782205"><ele>67.0</ele><time>2026-05-01T13:36:27.001Z</time></trkpt><trkpt lat="45.87694125041594" lon="10.869371186447234"><ele>67.0</ele><time>2026-05-01T13:36:28.001Z</time></trkpt><trkpt lat="45.87691088652438" lon="10.869468771872388"><ele>67.0</ele><time>2026-05-01T13:36:29.001Z</time></trkpt><trkpt lat="45.876882790296335" lon="10.869554184183736"><ele>67.0</ele><time>2026-05-01T13:36:30.001Z</time></trkpt><trkpt lat="45.87685537131112" lon="10.869636651207598"><ele>67.0</ele><time>2026-05-01T13:36:31.001Z</time></trkpt><trkpt lat="45.87682172927919" lon="10.869725315834351"><ele>67.0</ele><time>2026-05-01T13:36:32.001Z</time></trkpt><trkpt lat="45.87678903525308" lon="10.869804744905627"><ele>67.0</ele><time>2026-05-01T13:36:33.001Z</time></trkpt><trkpt lat="45.8767524705883" lon="10.869884525831083"><ele>67.0</ele><time>2026-05-01T13:36:34.001Z</time></trkpt><trkpt lat="45.876696245597195" lon="10.86999900713644"><ele>66.83333333333333</ele><time>2026-05-01T13:36:36.001Z</time></trkpt><trkpt lat="45.87664760511308" lon="10.870093824663734"><ele>66.66666666666666</ele><time>2026-05-01T13:36:39.001Z</time></trkpt><trkpt lat="45.87660353050099" lon="10.870178124169199"><ele>66.5</ele><time>2026-05-01T13:36:48.001Z</time></trkpt><trkpt lat="45.8765619544758" lon="10.87026802087805"><ele>66.33333333333333</ele><time>2026-05-01T13:37:21Z</time></trkpt><trkpt lat="45.87652418764009" lon="10.870368052744558"><ele>66.16666666666667</ele><time>2026-05-01T13:37:31Z</time></trkpt><trkpt lat="45.87651644623674" lon="10.870461258671124"><ele>66.0</ele><time>2026-05-01T13:37:34Z</time></trkpt><trkpt lat="45.87643971100828" lon="10.870515828609948"><ele>65.85714285714286</ele><time>2026-05-01T13:37:37Z</time></trkpt><trkpt lat="45.87637746418064" lon="10.870554145271429"><ele>65.71428571428572</ele><time>2026-05-01T13:37:39Z</time></trkpt><trkpt lat="45.87633149818941" lon="10.870616979292356"><ele>65.57142857142858</ele><time>2026-05-01T13:37:41Z</time></trkpt><trkpt lat="45.8762792948717" lon="10.870680045472378"><ele>65.42857142857143</ele><time>2026-05-01T13:37:43Z</time></trkpt><trkpt lat="45.87625557454479" lon="10.870765887431501"><ele>65.28571428571429</ele><time>2026-05-01T13:37:45Z</time></trkpt><trkpt lat="45.876158490415435" lon="10.870834509321075"><ele>65.14285714285715</ele><time>2026-05-01T13:37:50Z</time></trkpt><trkpt lat="45.876103397339655" lon="10.870880003076206"><ele>65.0</ele><time>2026-05-01T13:37:52Z</time></trkpt><trkpt lat="45.87606809698728" lon="10.870983676915964"><ele>65.0</ele><time>2026-05-01T13:37:54Z</time></trkpt><trkpt lat="45.87601174510843" lon="10.871048253165412"><ele>65.0</ele><time>2026-05-01T13:37:56Z</time></trkpt><trkpt lat="45.87594335217229" lon="10.871133255842743"><ele>65.0</ele><time>2026-05-01T13:37:58Z</time></trkpt><trkpt lat="45.87589377027627" lon="10.871196148329165"><ele>65.0</ele><time>2026-05-01T13:38:00Z</time></trkpt><trkpt lat="45.87584618498143" lon="10.871282800465634"><ele>65.0</ele><time>2026-05-01T13:38:03.001Z</time></trkpt><trkpt lat="45.875782340396995" lon="10.871395685378557"><ele>65.0</ele><time>2026-05-01T13:38:05.001Z</time></trkpt><trkpt lat="45.87571757092261" lon="10.871431840177179"><ele>65.16666666666667</ele><time>2026-05-01T13:38:06.001Z</time></trkpt><trkpt lat="45.87566965993323" lon="10.871504694356249"><ele>65.33333333333334</ele><time>2026-05-01T13:38:07.001Z</time></trkpt><trkpt lat="45.87562616121497" lon="10.871587591343264"><ele>65.5</ele><time>2026-05-01T13:38:08.001Z</time></trkpt><trkpt lat="45.87557665413816" lon="10.871672506762952"><ele>65.66666666666667</ele><time>2026-05-01T13:38:09.001Z</time></trkpt><trkpt lat="45.87552635528631" lon="10.87175893755848"><ele>65.83333333333333</ele><time>2026-05-01T13:38:10.001Z</time></trkpt><trkpt lat="45.87547944434747" lon="10.871839747367067"><ele>66.0</ele><time>2026-05-01T13:38:11.001Z</time></trkpt><trkpt lat="45.875403506959444" lon="10.871971748946734"><ele>66.0</ele><time>2026-05-01T13:38:13.001Z</time></trkpt><trkpt lat="45.87534616287034" lon="10.872071431628218"><ele>66.0</ele><time>2026-05-01T13:38:15.001Z</time></trkpt><trkpt lat="45.875295132723984" lon="10.872160213950862"><ele>66.0</ele><time>2026-05-01T13:38:17.001Z</time></trkpt><trkpt lat="45.87524147468873" lon="10.872253544017518"><ele>66.0</ele><time>2026-05-01T13:38:19.001Z</time></trkpt><trkpt lat="45.875194858852296" lon="10.872334626571082"><ele>66.0</ele><time>2026-05-01T13:38:21.001Z</time></trkpt><trkpt lat="45.875141988642554" lon="10.87246166177961"><ele>66.0</ele><time>2026-05-01T13:38:24.001Z</time></trkpt><trkpt lat="45.87510156067004" lon="10.872533181900286"><ele>66.14285714285714</ele><time>2026-05-01T13:38:27.001Z</time></trkpt><trkpt lat="45.875056659685875" lon="10.872601640147236"><ele>66.28571428571429</ele><time>2026-05-01T13:38:29.001Z</time></trkpt><trkpt lat="45.87498411411393" lon="10.87263494133043"><ele>66.42857142857143</ele><time>2026-05-01T13:38:31.001Z</time></trkpt><trkpt lat="45.87495183101569" lon="10.87271648907949"><ele>66.57142857142857</ele><time>2026-05-01T13:38:34.001Z</time></trkpt><trkpt lat="45.874899188351655" lon="10.872774776403116"><ele>66.71428571428571</ele><time>2026-05-01T13:38:36.001Z</time></trkpt><trkpt lat="45.87484202567342" lon="10.872827724830067"><ele>66.85714285714286</ele><time>2026-05-01T13:38:38.001Z</time></trkpt><trkpt lat="45.874790818823556" lon="10.872887931661449"><ele>67.0</ele><time>2026-05-01T13:38:40.001Z</time></trkpt><trkpt lat="45.874742233697674" lon="10.872947407703355"><ele>67.0</ele><time>2026-05-01T13:38:42.001Z</time></trkpt><trkpt lat="45.87467556732992" lon="10.873018466391153"><ele>67.0</ele><time>2026-05-01T13:38:45.001Z</time></trkpt><trkpt lat="45.87461133482946" lon="10.87308470484041"><ele>67.0</ele><time>2026-05-01T13:38:49.001Z</time></trkpt><trkpt lat="45.87454981615609" lon="10.873109389029933"><ele>67.0</ele><time>2026-05-01T13:38:52.001Z</time></trkpt><trkpt lat="45.87449110784584" lon="10.873173775561174"><ele>67.0</ele><time>2026-05-01T13:38:55.001Z</time></trkpt><trkpt lat="45.8744316300589" lon="10.873237684317173"><ele>67.0</ele><time>2026-05-01T13:38:57.001Z</time></trkpt><trkpt lat="45.87433215801374" lon="10.873340394856493"><ele>67.0</ele><time>2026-05-01T13:38:59.001Z</time></trkpt><trkpt lat="45.874251355380515" lon="10.873416383824745"><ele>67.0</ele><time>2026-05-01T13:39:01.001Z</time></trkpt><trkpt lat="45.87418458120671" lon="10.873475665897432"><ele>67.0</ele><time>2026-05-01T13:39:03.001Z</time></trkpt><trkpt lat="45.87410598745149" lon="10.873540757277198"><ele>67.0</ele><time>2026-05-01T13:39:05.001Z</time></trkpt><trkpt lat="45.87402081147166" lon="10.873607116694497"><ele>67.0</ele><time>2026-05-01T13:39:07.001Z</time></trkpt><trkpt lat="45.87394266542616" lon="10.873660025108546"><ele>67.0</ele><time>2026-05-01T13:39:10.001Z</time></trkpt><trkpt lat="45.87385908692843" lon="10.873711718062793"><ele>67.0</ele><time>2026-05-01T13:39:12.001Z</time></trkpt><trkpt lat="45.873779845508416" lon="10.873757886283792"><ele>67.0</ele><time>2026-05-01T13:39:14.001Z</time></trkpt><trkpt lat="45.87371473983561" lon="10.873795820225968"><ele>67.0</ele><time>2026-05-01T13:39:16.001Z</time></trkpt><trkpt lat="45.87365416133904" lon="10.873831116456314"><ele>67.0</ele><time>2026-05-01T13:39:18.001Z</time></trkpt><trkpt lat="45.87358803565493" lon="10.873866673162286"><ele>67.0</ele><time>2026-05-01T13:39:22Z</time></trkpt><trkpt lat="45.87352251306899" lon="10.873903813685535"><ele>67.0</ele><time>2026-05-01T13:39:28Z</time></trkpt><trkpt lat="45.87345945372707" lon="10.873939557921707"><ele>67.0</ele><time>2026-05-01T13:39:32Z</time></trkpt><trkpt lat="45.8733823394178" lon="10.873983216971252"><ele>67.0</ele><time>2026-05-01T13:39:35Z</time></trkpt><trkpt lat="45.87331341076617" lon="10.874022081597595"><ele>67.0</ele><time>2026-05-01T13:39:38Z</time></trkpt><trkpt lat="45.873242047362055" lon="10.874059024692093"><ele>67.0</ele><time>2026-05-01T13:39:42Z</time></trkpt><trkpt lat="45.87318120681981" lon="10.874087070205972"><ele>67.0</ele><time>2026-05-01T13:39:43Z</time></trkpt><trkpt lat="45.87307399719799" lon="10.87417936249775"><ele>67.0</ele><time>2026-05-01T13:39:45Z</time></trkpt><trkpt lat="45.872971827475205" lon="10.87421514498942"><ele>67.0</ele><time>2026-05-01T13:39:47Z</time></trkpt><trkpt lat="45.87289655254457" lon="10.874260822160322"><ele>67.0</ele><time>2026-05-01T13:39:49Z</time></trkpt><trkpt lat="45.872828819664036" lon="10.874301988832297"><ele>67.0</ele><time>2026-05-01T13:39:50Z</time></trkpt><trkpt lat="45.872755107570455" lon="10.874346789556599"><ele>67.0</ele><time>2026-05-01T13:39:51Z</time></trkpt><trkpt lat="45.87268426894752" lon="10.874389842153057"><ele>67.0</ele><time>2026-05-01T13:39:52Z</time></trkpt><trkpt lat="45.87262303007769" lon="10.874450034334242"><ele>67.0</ele><time>2026-05-01T13:39:53Z</time></trkpt><trkpt lat="45.872530730912395" lon="10.874529889485487"><ele>67.0</ele><time>2026-05-01T13:39:55Z</time></trkpt><trkpt lat="45.87247078810629" lon="10.874612231342523"><ele>66.8</ele><time>2026-05-01T13:39:58Z</time></trkpt><trkpt lat="45.872400670678616" lon="10.874677477175297"><ele>66.6</ele><time>2026-05-01T13:40:01Z</time></trkpt><trkpt lat="45.87234308606047" lon="10.874730796964787"><ele>66.39999999999999</ele><time>2026-05-01T13:40:11Z</time></trkpt><trkpt lat="45.872265870533056" lon="10.874774074169604"><ele>66.2</ele><time>2026-05-01T13:40:14Z</time></trkpt><trkpt lat="45.87215249578065" lon="10.87481097680233"><ele>66.0</ele><time>2026-05-01T13:40:16Z</time></trkpt><trkpt lat="45.872073273894216" lon="10.87493349505338"><ele>66.0</ele><time>2026-05-01T13:40:18Z</time></trkpt><trkpt lat="45.871966327117555" lon="10.875015776787562"><ele>66.0</ele><time>2026-05-01T13:40:20Z</time></trkpt><trkpt lat="45.87186358824924" lon="10.875054091989025"><ele>66.0</ele><time>2026-05-01T13:40:22Z</time></trkpt><trkpt lat="45.871774791321116" lon="10.875087901515988"><ele>66.0</ele><time>2026-05-01T13:40:24Z</time></trkpt><trkpt lat="45.87168246975675" lon="10.875079758172234"><ele>66.0</ele><time>2026-05-01T13:40:26Z</time></trkpt><trkpt lat="45.87159678502721" lon="10.8751132146758"><ele>66.16666666666667</ele><time>2026-05-01T13:40:28Z</time></trkpt><trkpt lat="45.87152768162372" lon="10.87514019684991"><ele>66.33333333333333</ele><time>2026-05-01T13:40:31.001Z</time></trkpt><trkpt lat="45.871439113444275" lon="10.875198728780065"><ele>66.5</ele><time>2026-05-01T13:40:39.001Z</time></trkpt><trkpt lat="45.87134916274066" lon="10.875212846139732"><ele>66.66666666666666</ele><time>2026-05-01T13:40:41.001Z</time></trkpt><trkpt lat="45.87127777901467" lon="10.875270996101943"><ele>66.83333333333333</ele><time>2026-05-01T13:40:43.001Z</time></trkpt><trkpt lat="45.87121833153823" lon="10.875312789281281"><ele>67.0</ele><time>2026-05-01T13:40:47.001Z</time></trkpt><trkpt lat="45.87119970207045" lon="10.875442538990983"><ele>67.0</ele><time>2026-05-01T13:40:50.001Z</time></trkpt><trkpt lat="45.87115346166453" lon="10.875510728494728"><ele>67.0</ele><time>2026-05-01T13:40:51.001Z</time></trkpt><trkpt lat="45.87109525843816" lon="10.875598643428251"><ele>67.0</ele><time>2026-05-01T13:40:53.001Z</time></trkpt><trkpt lat="45.87103150266918" lon="10.875622640375026"><ele>67.0</ele><time>2026-05-01T13:40:55.001Z</time></trkpt><trkpt lat="45.870978119627345" lon="10.875703494230788"><ele>67.0</ele><time>2026-05-01T13:40:59.001Z</time></trkpt><trkpt lat="45.870935375666086" lon="10.875802934111142"><ele>67.0</ele><time>2026-05-01T13:41:01.001Z</time></trkpt><trkpt lat="45.87091940956606" lon="10.875904062152998"><ele>67.0</ele><time>2026-05-01T13:41:02.001Z</time></trkpt><trkpt lat="45.87085712007707" lon="10.875963354994752"><ele>67.33333333333333</ele><time>2026-05-01T13:41:03.001Z</time></trkpt><trkpt lat="45.870780309085575" lon="10.875997808730235"><ele>67.66666666666666</ele><time>2026-05-01T13:41:04.001Z</time></trkpt><trkpt lat="45.87069165814928" lon="10.87599930287547"><ele>68.0</ele><time>2026-05-01T13:41:05.001Z</time></trkpt><trkpt lat="45.87062685126217" lon="10.875985255044652"><ele>68.33333333333333</ele><time>2026-05-01T13:41:06.001Z</time></trkpt><trkpt lat="45.87054831132239" lon="10.875964536453553"><ele>68.66666666666667</ele><time>2026-05-01T13:41:08.001Z</time></trkpt><trkpt lat="45.87046783360543" lon="10.875955031528298"><ele>69.0</ele><time>2026-05-01T13:41:10.001Z</time></trkpt><trkpt lat="45.87038805486166" lon="10.875896715251434"><ele>69.0</ele><time>2026-05-01T13:41:12.001Z</time></trkpt><trkpt lat="45.87032262366008" lon="10.875885425986615"><ele>69.0</ele><time>2026-05-01T13:41:15.001Z</time></trkpt><trkpt lat="45.870244351388855" lon="10.875851786985537"><ele>69.0</ele><time>2026-05-01T13:41:19.001Z</time></trkpt><trkpt lat="45.870174666815146" lon="10.875828124375467"><ele>69.0</ele><time>2026-05-01T13:41:23.001Z</time></trkpt><trkpt lat="45.87006728876878" lon="10.875784432878666"><ele>69.0</ele><time>2026-05-01T13:41:26Z</time></trkpt><trkpt lat="45.870005304315974" lon="10.875764858154444"><ele>69.0</ele><time>2026-05-01T13:41:27Z</time></trkpt><trkpt lat="45.86989998896767" lon="10.875752886572236"><ele>69.33333333333333</ele><time>2026-05-01T13:41:29Z</time></trkpt><trkpt lat="45.86981807917807" lon="10.875783975895537"><ele>69.66666666666667</ele><time>2026-05-01T13:41:31Z</time></trkpt><trkpt lat="45.86974605417047" lon="10.875796254166763"><ele>70.0</ele><time>2026-05-01T13:41:33Z</time></trkpt><trkpt lat="45.869663393552635" lon="10.875815753046286"><ele>70.33333333333334</ele><time>2026-05-01T13:41:36Z</time></trkpt><trkpt lat="45.8695787574846" lon="10.875886938345412"><ele>70.66666666666667</ele><time>2026-05-01T13:41:38Z</time></trkpt><trkpt lat="45.86948753044667" lon="10.875941545333212"><ele>71.0</ele><time>2026-05-01T13:41:40Z</time></trkpt><trkpt lat="45.869424337187425" lon="10.875976007770463"><ele>70.66666666666667</ele><time>2026-05-01T13:41:42Z</time></trkpt><trkpt lat="45.86935740887884" lon="10.876028175373714"><ele>70.33333333333334</ele><time>2026-05-01T13:41:49Z</time></trkpt><trkpt lat="45.86927813591765" lon="10.876090463117018"><ele>70.0</ele><time>2026-05-01T13:41:52Z</time></trkpt><trkpt lat="45.869210890925004" lon="10.876143881727954"><ele>69.66666666666667</ele><time>2026-05-01T13:41:54Z</time></trkpt><trkpt lat="45.86914089972297" lon="10.876199482997274"><ele>69.33333333333333</ele><time>2026-05-01T13:41:56Z</time></trkpt><trkpt lat="45.86906485368986" lon="10.87625613973234"><ele>69.0</ele><time>2026-05-01T13:41:58Z</time></trkpt><trkpt lat="45.869005241016524" lon="10.876300494024393"><ele>69.0</ele><time>2026-05-01T13:42:00Z</time></trkpt><trkpt lat="45.86892752953202" lon="10.87635831445864"><ele>69.0</ele><time>2026-05-01T13:42:08Z</time></trkpt><trkpt lat="45.868868796955105" lon="10.876402014794545"><ele>69.0</ele><time>2026-05-01T13:42:10Z</time></trkpt><trkpt lat="45.8687913769571" lon="10.876460239465764"><ele>69.0</ele><time>2026-05-01T13:42:12Z</time></trkpt><trkpt lat="45.868714159642636" lon="10.876517793353187"><ele>69.0</ele><time>2026-05-01T13:42:14Z</time></trkpt><trkpt lat="45.86861394729701" lon="10.876592486507425"><ele>69.0</ele><time>2026-05-01T13:42:16Z</time></trkpt><trkpt lat="45.868517421178105" lon="10.876664432253886"><ele>68.60000000000001</ele><time>2026-05-01T13:42:18Z</time></trkpt><trkpt lat="45.86842670730192" lon="10.876732047559308"><ele>68.2</ele><time>2026-05-01T13:42:20Z</time></trkpt><trkpt lat="45.868312978684486" lon="10.876817803360645"><ele>67.80000000000001</ele><time>2026-05-01T13:42:22Z</time></trkpt><trkpt lat="45.86822005078192" lon="10.87688505485169"><ele>67.4</ele><time>2026-05-01T13:42:24Z</time></trkpt><trkpt lat="45.86813993344245" lon="10.87693949036902"><ele>67.0</ele><time>2026-05-01T13:42:26Z</time></trkpt><trkpt lat="45.868056443358164" lon="10.87699029091682"><ele>67.6</ele><time>2026-05-01T13:42:28Z</time></trkpt><trkpt lat="45.867985393009626" lon="10.877024402853642"><ele>68.2</ele><time>2026-05-01T13:42:29Z</time></trkpt><trkpt lat="45.8678970957482" lon="10.87705540748605"><ele>68.8</ele><time>2026-05-01T13:42:30Z</time></trkpt><trkpt lat="45.8677835501793" lon="10.877084716875418"><ele>69.4</ele><time>2026-05-01T13:42:31Z</time></trkpt><trkpt lat="45.8676716159263" lon="10.877096532349436"><ele>70.0</ele><time>2026-05-01T13:42:32Z</time></trkpt><trkpt lat="45.8675589729494" lon="10.877095146800986"><ele>70.0</ele><time>2026-05-01T13:42:33Z</time></trkpt><trkpt lat="45.867446394320325" lon="10.877084513179566"><ele>70.0</ele><time>2026-05-01T13:42:34Z</time></trkpt><trkpt lat="45.86733901386996" lon="10.877060268015576"><ele>70.0</ele><time>2026-05-01T13:42:35Z</time></trkpt><trkpt lat="45.867238416456786" lon="10.877031622757539"><ele>70.0</ele><time>2026-05-01T13:42:36Z</time></trkpt><trkpt lat="45.86713648168085" lon="10.87700884688282"><ele>70.0</ele><time>2026-05-01T13:42:37Z</time></trkpt><trkpt lat="45.86703474223651" lon="10.876958772510436"><ele>70.0</ele><time>2026-05-01T13:42:38.001Z</time></trkpt><trkpt lat="45.866940406574194" lon="10.87690357874799"><ele>70.0</ele><time>2026-05-01T13:42:39.001Z</time></trkpt><trkpt lat="45.86685829366858" lon="10.87684224411495"><ele>70.0</ele><time>2026-05-01T13:42:40.001Z</time></trkpt><trkpt lat="45.86678270750795" lon="10.876784800911521"><ele>70.0</ele><time>2026-05-01T13:42:41.001Z</time></trkpt><trkpt lat="45.86671265348942" lon="10.876735429405548"><ele>70.0</ele><time>2026-05-01T13:42:42.001Z</time></trkpt><trkpt lat="45.86664646159451" lon="10.876687693953835"><ele>70.0</ele><time>2026-05-01T13:42:43.001Z</time></trkpt><trkpt lat="45.86656648544223" lon="10.876624027276655"><ele>69.0</ele><time>2026-05-01T13:42:44.001Z</time></trkpt><trkpt lat="45.86647076335069" lon="10.876523949170371"><ele>68.0</ele><time>2026-05-01T13:42:45.001Z</time></trkpt><trkpt lat="45.866354669716216" lon="10.876452528373317"><ele>67.0</ele><time>2026-05-01T13:42:46.001Z</time></trkpt><trkpt lat="45.86624229599571" lon="10.87634005761307"><ele>66.0</ele><time>2026-05-01T13:42:47.001Z</time></trkpt><trkpt lat="45.86611803520768" lon="10.876238052071505"><ele>66.0</ele><time>2026-05-01T13:42:48.001Z</time></trkpt><trkpt lat="45.86599191247698" lon="10.876130355511288"><ele>66.0</ele><time>2026-05-01T13:42:49.001Z</time></trkpt><trkpt lat="45.86586681994954" lon="10.876029527543189"><ele>66.0</ele><time>2026-05-01T13:42:50.001Z</time></trkpt><trkpt lat="45.8657500907234" lon="10.87594043891827"><ele>66.0</ele><time>2026-05-01T13:42:51.001Z</time></trkpt><trkpt lat="45.86563060661064" lon="10.87584855143308"><ele>65.75</ele><time>2026-05-01T13:42:52.001Z</time></trkpt><trkpt lat="45.865512196285906" lon="10.875752883631144"><ele>65.5</ele><time>2026-05-01T13:42:53.001Z</time></trkpt><trkpt lat="45.86538950062541" lon="10.875651305022751"><ele>65.25</ele><time>2026-05-01T13:42:54.001Z</time></trkpt><trkpt lat="45.86526306133854" lon="10.875556829411526"><ele>65.0</ele><time>2026-05-01T13:42:55.001Z</time></trkpt><trkpt lat="45.865136388735515" lon="10.875471569008068"><ele>69.0</ele><time>2026-05-01T13:42:56.001Z</time></trkpt><trkpt lat="45.86500727235899" lon="10.87540151029118"><ele>73.0</ele><time>2026-05-01T13:42:57.001Z</time></trkpt><trkpt lat="45.86487317377528" lon="10.875328633174986"><ele>77.0</ele><time>2026-05-01T13:42:58.001Z</time></trkpt><trkpt lat="45.86473583412691" lon="10.875261567574896"><ele>81.0</ele><time>2026-05-01T13:42:59.001Z</time></trkpt><trkpt lat="45.8646040219673" lon="10.875213427649634"><ele>81.0</ele><time>2026-05-01T13:43:00.001Z</time></trkpt><trkpt lat="45.864474642961966" lon="10.875200330744233"><ele>81.0</ele><time>2026-05-01T13:43:01.001Z</time></trkpt><trkpt lat="45.864348378577766" lon="10.875208633026833"><ele>81.0</ele><time>2026-05-01T13:43:02.001Z</time></trkpt><trkpt lat="45.86422185521939" lon="10.875232093843056"><ele>81.0</ele><time>2026-05-01T13:43:03.001Z</time></trkpt><trkpt lat="45.86410668841383" lon="10.875282509375834"><ele>81.0</ele><time>2026-05-01T13:43:04.001Z</time></trkpt><trkpt lat="45.86399612994428" lon="10.875358182831873"><ele>81.0</ele><time>2026-05-01T13:43:05.001Z</time></trkpt><trkpt lat="45.863900891043095" lon="10.875463479735119"><ele>81.0</ele><time>2026-05-01T13:43:06.001Z</time></trkpt><trkpt lat="45.86381193963443" lon="10.875580020450204"><ele>81.0</ele><time>2026-05-01T13:43:07.001Z</time></trkpt><trkpt lat="45.86371310122359" lon="10.875696463314261"><ele>81.0</ele><time>2026-05-01T13:43:08.001Z</time></trkpt><trkpt lat="45.8636201546423" lon="10.875816342683272"><ele>81.0</ele><time>2026-05-01T13:43:09.001Z</time></trkpt><trkpt lat="45.86352836324907" lon="10.875951748880219"><ele>81.0</ele><time>2026-05-01T13:43:10.001Z</time></trkpt><trkpt lat="45.863441311063355" lon="10.87608208251814"><ele>81.0</ele><time>2026-05-01T13:43:11.001Z</time></trkpt><trkpt lat="45.86334446025507" lon="10.876197995223322"><ele>82.75</ele><time>2026-05-01T13:43:12.001Z</time></trkpt><trkpt lat="45.863240158001986" lon="10.876296050930351"><ele>84.5</ele><time>2026-05-01T13:43:13.001Z</time></trkpt><trkpt lat="45.86313458479143" lon="10.876393817875753"><ele>86.25</ele><time>2026-05-01T13:43:14.001Z</time></trkpt><trkpt lat="45.86301634854276" lon="10.87645375875381"><ele>88.0</ele><time>2026-05-01T13:43:15.001Z</time></trkpt><trkpt lat="45.862892586131984" lon="10.876516089962509"><ele>88.0</ele><time>2026-05-01T13:43:16.001Z</time></trkpt><trkpt lat="45.862780513648985" lon="10.876558932045128"><ele>88.0</ele><time>2026-05-01T13:43:17.001Z</time></trkpt><trkpt lat="45.862663913614504" lon="10.876610870539555"><ele>88.0</ele><time>2026-05-01T13:43:18.001Z</time></trkpt><trkpt lat="45.86256336955521" lon="10.876630900416318"><ele>88.0</ele><time>2026-05-01T13:43:19.001Z</time></trkpt><trkpt lat="45.86247921691191" lon="10.876638816749969"><ele>88.0</ele><time>2026-05-01T13:43:20.001Z</time></trkpt><trkpt lat="45.862365129954426" lon="10.876616805101834"><ele>85.0</ele><time>2026-05-01T13:43:22.001Z</time></trkpt><trkpt lat="45.862264470601865" lon="10.87660378196707"><ele>82.0</ele><time>2026-05-01T13:43:24.001Z</time></trkpt><trkpt lat="45.86216962559541" lon="10.876584012823264"><ele>79.0</ele><time>2026-05-01T13:43:26.001Z</time></trkpt><trkpt lat="45.8620878961993" lon="10.876571566099773"><ele>76.0</ele><time>2026-05-01T13:43:28.001Z</time></trkpt><trkpt lat="45.86197077394262" lon="10.876534593785177"><ele>73.0</ele><time>2026-05-01T13:43:30.001Z</time></trkpt><trkpt lat="45.86190072281202" lon="10.876499768566111"><ele>73.0</ele><time>2026-05-01T13:43:31.001Z</time></trkpt><trkpt lat="45.86182300493533" lon="10.87646376479155"><ele>73.0</ele><time>2026-05-01T13:43:32Z</time></trkpt><trkpt lat="45.86174060156685" lon="10.876417318660208"><ele>73.0</ele><time>2026-05-01T13:43:33Z</time></trkpt><trkpt lat="45.86165477095576" lon="10.876363025129105"><ele>73.0</ele><time>2026-05-01T13:43:34Z</time></trkpt><trkpt lat="45.86157073719172" lon="10.876298193718576"><ele>73.0</ele><time>2026-05-01T13:43:35Z</time></trkpt><trkpt lat="45.86148784037636" lon="10.876223007876032"><ele>71.6</ele><time>2026-05-01T13:43:36Z</time></trkpt><trkpt lat="45.861404552127716" lon="10.876139627299231"><ele>70.19999999999999</ele><time>2026-05-01T13:43:37Z</time></trkpt><trkpt lat="45.86131997546794" lon="10.87605388450048"><ele>68.8</ele><time>2026-05-01T13:43:38Z</time></trkpt><trkpt lat="45.861240609818175" lon="10.875969004779606"><ele>67.39999999999999</ele><time>2026-05-01T13:43:39Z</time></trkpt><trkpt lat="45.861163826289626" lon="10.875863063587774"><ele>66.0</ele><time>2026-05-01T13:43:40Z</time></trkpt><trkpt lat="45.86108988333868" lon="10.875747834926818"><ele>66.0</ele><time>2026-05-01T13:43:41Z</time></trkpt><trkpt lat="45.86101921084573" lon="10.875624618992687"><ele>66.0</ele><time>2026-05-01T13:43:42Z</time></trkpt><trkpt lat="45.86094878691821" lon="10.875502260385192"><ele>66.0</ele><time>2026-05-01T13:43:43Z</time></trkpt><trkpt lat="45.86087982547364" lon="10.875380981632114"><ele>66.0</ele><time>2026-05-01T13:43:44Z</time></trkpt><trkpt lat="45.86081241744857" lon="10.875261991467118"><ele>66.0</ele><time>2026-05-01T13:43:45Z</time></trkpt><trkpt lat="45.860740926840556" lon="10.875138759179558"><ele>67.75</ele><time>2026-05-01T13:43:46Z</time></trkpt><trkpt lat="45.860654807449464" lon="10.875008728603795"><ele>69.5</ele><time>2026-05-01T13:43:47Z</time></trkpt><trkpt lat="45.86055539279626" lon="10.874877035539122"><ele>71.25</ele><time>2026-05-01T13:43:48Z</time></trkpt><trkpt lat="45.86043808466627" lon="10.874745166881809"><ele>73.0</ele><time>2026-05-01T13:43:49Z</time></trkpt><trkpt lat="45.860270937981774" lon="10.87456281875204"><ele>73.0</ele><time>2026-05-01T13:43:50Z</time></trkpt><trkpt lat="45.86008237959398" lon="10.87437359950385"><ele>73.0</ele><time>2026-05-01T13:43:51Z</time></trkpt><trkpt lat="45.85990073108156" lon="10.874175286524991"><ele>73.0</ele><time>2026-05-01T13:43:52Z</time></trkpt><trkpt lat="45.859719160883586" lon="10.873928320516796"><ele>73.0</ele><time>2026-05-01T13:43:53Z</time></trkpt><trkpt lat="45.859534302282086" lon="10.873644817730169"><ele>76.5</ele><time>2026-05-01T13:43:54Z</time></trkpt><trkpt lat="45.859357283878325" lon="10.87333676630795"><ele>80.0</ele><time>2026-05-01T13:43:55Z</time></trkpt><trkpt lat="45.85916733366545" lon="10.87300726329958"><ele>80.0</ele><time>2026-05-01T13:43:56Z</time></trkpt><trkpt lat="45.8589547535752" lon="10.87270102870471"><ele>80.0</ele><time>2026-05-01T13:43:57Z</time></trkpt><trkpt lat="45.858753504394414" lon="10.872390036208404"><ele>72.0</ele><time>2026-05-01T13:43:58Z</time></trkpt><trkpt lat="45.8585554694265" lon="10.872136085370926"><ele>64.0</ele><time>2026-05-01T13:43:59Z</time></trkpt><trkpt lat="45.8583900674077" lon="10.871940997141287"><ele>65.0</ele><time>2026-05-01T13:44:00Z</time></trkpt><trkpt lat="45.858252387055146" lon="10.871770770947709"><ele>66.0</ele><time>2026-05-01T13:44:01Z</time></trkpt><trkpt lat="45.858118740891065" lon="10.871608434610787"><ele>67.0</ele><time>2026-05-01T13:44:02Z</time></trkpt><trkpt lat="45.85798819917408" lon="10.871482288091407"><ele>67.0</ele><time>2026-05-01T13:44:03Z</time></trkpt><trkpt lat="45.85785038238359" lon="10.871400362345168"><ele>67.0</ele><time>2026-05-01T13:44:04Z</time></trkpt><trkpt lat="45.85771603764206" lon="10.87132671368297"><ele>67.0</ele><time>2026-05-01T13:44:05Z</time></trkpt><trkpt lat="45.85759817273637" lon="10.871252982296978"><ele>67.0</ele><time>2026-05-01T13:44:06Z</time></trkpt><trkpt lat="45.857477510411236" lon="10.871182259648451"><ele>69.5</ele><time>2026-05-01T13:44:07Z</time></trkpt><trkpt lat="45.85735040691426" lon="10.871102590063302"><ele>72.0</ele><time>2026-05-01T13:44:08.014Z</time></trkpt><trkpt lat="45.85722372011321" lon="10.87102373310631"><ele>74.5</ele><time>2026-05-01T13:44:09.018Z</time></trkpt><trkpt lat="45.857100563278756" lon="10.870954017936368"><ele>77.0</ele><time>2026-05-01T13:44:10.017Z</time></trkpt><trkpt lat="45.857007684372455" lon="10.870858477153051"><ele>77.0</ele><time>2026-05-01T13:44:11.013Z</time></trkpt><trkpt lat="45.856904870549556" lon="10.870754293540518"><ele>77.0</ele><time>2026-05-01T13:44:12.018Z</time></trkpt><trkpt lat="45.856511767637066" lon="10.870316677496595"><ele>74.0</ele><time>2026-05-01T13:44:15Z</time></trkpt><trkpt lat="45.85639118811495" lon="10.87018304137886"><ele>71.0</ele><time>2026-05-01T13:44:16Z</time></trkpt><trkpt lat="45.856280799655174" lon="10.870059871407298"><ele>68.0</ele><time>2026-05-01T13:44:17Z</time></trkpt><trkpt lat="45.856168100799565" lon="10.869932956118141"><ele>65.0</ele><time>2026-05-01T13:44:18Z</time></trkpt><trkpt lat="45.856052216864725" lon="10.869802526373283"><ele>65.0</ele><time>2026-05-01T13:44:19Z</time></trkpt><trkpt lat="45.85595753492506" lon="10.869696346277195"><ele>65.0</ele><time>2026-05-01T13:44:20Z</time></trkpt><trkpt lat="45.85580765108523" lon="10.869530036046562"><ele>65.0</ele><time>2026-05-01T13:44:21Z</time></trkpt><trkpt lat="45.855700108755535" lon="10.869414945884522"><ele>65.0</ele><time>2026-05-01T13:44:22Z</time></trkpt><trkpt lat="45.8555876948276" lon="10.86929597283338"><ele>66.5</ele><time>2026-05-01T13:44:23Z</time></trkpt><trkpt lat="45.85546277605739" lon="10.869191087775883"><ele>68.0</ele><time>2026-05-01T13:44:24Z</time></trkpt><trkpt lat="45.855340054549316" lon="10.86907147892305"><ele>69.5</ele><time>2026-05-01T13:44:25Z</time></trkpt><trkpt lat="45.85521957281026" lon="10.868952944299298"><ele>71.0</ele><time>2026-05-01T13:44:26Z</time></trkpt><trkpt lat="45.85511681453238" lon="10.86882804786904"><ele>70.75</ele><time>2026-05-01T13:44:27Z</time></trkpt><trkpt lat="45.85500687258432" lon="10.868718712614868"><ele>70.5</ele><time>2026-05-01T13:44:28Z</time></trkpt><trkpt lat="45.85489624703357" lon="10.86860869772603"><ele>70.25</ele><time>2026-05-01T13:44:29Z</time></trkpt><trkpt lat="45.85478906220204" lon="10.86850231701099"><ele>70.0</ele><time>2026-05-01T13:44:30Z</time></trkpt><trkpt lat="45.854680803977175" lon="10.868395284756835"><ele>70.0</ele><time>2026-05-01T13:44:31Z</time></trkpt><trkpt lat="45.85457605959141" lon="10.86829172644816"><ele>70.0</ele><time>2026-05-01T13:44:32Z</time></trkpt><trkpt lat="45.85446630877854" lon="10.868183218656279"><ele>70.0</ele><time>2026-05-01T13:44:33Z</time></trkpt><trkpt lat="45.85435924552229" lon="10.868077367598211"><ele>70.0</ele><time>2026-05-01T13:44:34Z</time></trkpt><trkpt lat="45.85424140985855" lon="10.86799041599614"><ele>70.75</ele><time>2026-05-01T13:44:35Z</time></trkpt><trkpt lat="45.85413562114242" lon="10.867858614067815"><ele>71.5</ele><time>2026-05-01T13:44:36Z</time></trkpt><trkpt lat="45.85401916799831" lon="10.867742751920142"><ele>72.25</ele><time>2026-05-01T13:44:37Z</time></trkpt><trkpt lat="45.85389081666617" lon="10.86763430289405"><ele>73.0</ele><time>2026-05-01T13:44:38Z</time></trkpt><trkpt lat="45.85378047956674" lon="10.867530392406895"><ele>73.0</ele><time>2026-05-01T13:44:39Z</time></trkpt><trkpt lat="45.85368031899164" lon="10.867420607121833"><ele>73.0</ele><time>2026-05-01T13:44:40Z</time></trkpt><trkpt lat="45.85358114601353" lon="10.86732171692732"><ele>73.0</ele><time>2026-05-01T13:44:41Z</time></trkpt><trkpt lat="45.85348102440081" lon="10.8672108446829"><ele>73.0</ele><time>2026-05-01T13:44:42Z</time></trkpt><trkpt lat="45.85337013741971" lon="10.867105826639857"><ele>72.75</ele><time>2026-05-01T13:44:43.001Z</time></trkpt><trkpt lat="45.85324999443677" lon="10.866954220297227"><ele>72.5</ele><time>2026-05-01T13:44:44.001Z</time></trkpt><trkpt lat="45.85314374584398" lon="10.86681865435387"><ele>72.25</ele><time>2026-05-01T13:44:45.001Z</time></trkpt><trkpt lat="45.85305809791963" lon="10.86667574605814"><ele>72.0</ele><time>2026-05-01T13:44:46.001Z</time></trkpt><trkpt lat="45.85298416960712" lon="10.866528591572369"><ele>72.0</ele><time>2026-05-01T13:44:47.001Z</time></trkpt><trkpt lat="45.85290990051783" lon="10.8663720667536"><ele>72.0</ele><time>2026-05-01T13:44:48.001Z</time></trkpt><trkpt lat="45.852838080712964" lon="10.866233607726118"><ele>72.0</ele><time>2026-05-01T13:44:49.001Z</time></trkpt><trkpt lat="45.85276553620226" lon="10.866097032669481"><ele>72.0</ele><time>2026-05-01T13:44:50.001Z</time></trkpt><trkpt lat="45.85268945663044" lon="10.865965245606546"><ele>75.5</ele><time>2026-05-01T13:44:51.001Z</time></trkpt><trkpt lat="45.8526138254524" lon="10.865831178128655"><ele>79.0</ele><time>2026-05-01T13:44:52.001Z</time></trkpt><trkpt lat="45.85253421576839" lon="10.865690990014494"><ele>82.5</ele><time>2026-05-01T13:44:53.001Z</time></trkpt><trkpt lat="45.852451599333676" lon="10.865536135684103"><ele>86.0</ele><time>2026-05-01T13:44:54.001Z</time></trkpt><trkpt lat="45.85236966958658" lon="10.865391327110318"><ele>86.0</ele><time>2026-05-01T13:44:55.001Z</time></trkpt><trkpt lat="45.85228790865321" lon="10.865255077661985"><ele>86.0</ele><time>2026-05-01T13:44:56.001Z</time></trkpt><trkpt lat="45.852199572027175" lon="10.865119526655976"><ele>86.0</ele><time>2026-05-01T13:44:57.001Z</time></trkpt><trkpt lat="45.852102304406515" lon="10.864979050615013"><ele>86.0</ele><time>2026-05-01T13:44:58.001Z</time></trkpt><trkpt lat="45.85199554053161" lon="10.864847575426197"><ele>90.0</ele><time>2026-05-01T13:44:59.001Z</time></trkpt><trkpt lat="45.851867040404606" lon="10.86468630374064"><ele>94.0</ele><time>2026-05-01T13:45:00.001Z</time></trkpt><trkpt lat="45.851703187467244" lon="10.864492827567753"><ele>98.0</ele><time>2026-05-01T13:45:01.001Z</time></trkpt><trkpt lat="45.851515843481785" lon="10.864299450670227"><ele>87.0</ele><time>2026-05-01T13:45:02.001Z</time></trkpt><trkpt lat="45.85132129003879" lon="10.864108143206913"><ele>76.0</ele><time>2026-05-01T13:45:03.001Z</time></trkpt><trkpt lat="45.85111704915264" lon="10.863908172673586"><ele>73.0</ele><time>2026-05-01T13:45:04.001Z</time></trkpt><trkpt lat="45.85093555454139" lon="10.863730082908623"><ele>70.0</ele><time>2026-05-01T13:45:05.001Z</time></trkpt><trkpt lat="45.85077765874863" lon="10.863569015697372"><ele>67.0</ele><time>2026-05-01T13:45:06.001Z</time></trkpt><trkpt lat="45.850620644027124" lon="10.863424538803113"><ele>67.0</ele><time>2026-05-01T13:45:07.001Z</time></trkpt><trkpt lat="45.850479217255135" lon="10.863307548046128"><ele>67.0</ele><time>2026-05-01T13:45:08.001Z</time></trkpt><trkpt lat="45.85035098060185" lon="10.863218682279038"><ele>67.0</ele><time>2026-05-01T13:45:09.001Z</time></trkpt><trkpt lat="45.850224183711" lon="10.86317213298606"><ele>67.0</ele><time>2026-05-01T13:45:10.001Z</time></trkpt><trkpt lat="45.85009881028452" lon="10.86308645605226"><ele>73.0</ele><time>2026-05-01T13:45:11.001Z</time></trkpt><trkpt lat="45.849971407053694" lon="10.863064387977197"><ele>79.0</ele><time>2026-05-01T13:45:12.001Z</time></trkpt><trkpt lat="45.849852099376044" lon="10.863043626811606"><ele>85.0</ele><time>2026-05-01T13:45:13.001Z</time></trkpt><trkpt lat="45.84972030708654" lon="10.863043940930389"><ele>91.0</ele><time>2026-05-01T13:45:14.001Z</time></trkpt><trkpt lat="45.84958656490924" lon="10.863109425643408"><ele>91.0</ele><time>2026-05-01T13:45:15.001Z</time></trkpt><trkpt lat="45.8494049911549" lon="10.86316615869692"><ele>91.0</ele><time>2026-05-01T13:45:16.001Z</time></trkpt><trkpt lat="45.84920529056199" lon="10.863259133839009"><ele>91.0</ele><time>2026-05-01T13:45:17.001Z</time></trkpt><trkpt lat="45.84902405149152" lon="10.863342455756614"><ele>95.66666666666666</ele><time>2026-05-01T13:45:18.014Z</time></trkpt><trkpt lat="45.84886810139206" lon="10.863413025899055"><ele>100.33333333333333</ele><time>2026-05-01T13:45:19.014Z</time></trkpt><trkpt lat="45.8486787933599" lon="10.86349868868324"><ele>105.0</ele><time>2026-05-01T13:45:20.016Z</time></trkpt><trkpt lat="45.848429630002826" lon="10.863611443100616"><ele>122.0</ele><time>2026-05-01T13:45:21.015Z</time></trkpt><trkpt lat="45.84821556082279" lon="10.863706242069188"><ele>139.0</ele><time>2026-05-01T13:45:22.001Z</time></trkpt><trkpt lat="45.847965715611394" lon="10.86372292932764"><ele>139.0</ele><time>2026-05-01T13:45:23.001Z</time></trkpt><trkpt lat="45.84776222539272" lon="10.863704293524439"><ele>139.0</ele><time>2026-05-01T13:45:24.001Z</time></trkpt><trkpt lat="45.847589070163345" lon="10.863633332748451"><ele>139.0</ele><time>2026-05-01T13:45:25.001Z</time></trkpt><trkpt lat="45.84739971552869" lon="10.863554677533449"><ele>107.0</ele><time>2026-05-01T13:45:26.001Z</time></trkpt><trkpt lat="45.84704684345824" lon="10.863412192180583"><ele>75.0</ele><time>2026-05-01T13:45:27.001Z</time></trkpt><trkpt lat="45.846835858541276" lon="10.863328256305195"><ele>80.33333333333333</ele><time>2026-05-01T13:45:28.001Z</time></trkpt><trkpt lat="45.84664983629556" lon="10.863247033932295"><ele>85.66666666666666</ele><time>2026-05-01T13:45:29.001Z</time></trkpt><trkpt lat="45.846462127636435" lon="10.86317952042444"><ele>91.0</ele><time>2026-05-01T13:45:30.001Z</time></trkpt><trkpt lat="45.84631361983107" lon="10.863142513274214"><ele>91.0</ele><time>2026-05-01T13:45:31.001Z</time></trkpt><trkpt lat="45.846168332096106" lon="10.863131052289964"><ele>91.0</ele><time>2026-05-01T13:45:32.001Z</time></trkpt><trkpt lat="45.846001705044834" lon="10.86315814950328"><ele>91.0</ele><time>2026-05-01T13:45:33.001Z</time></trkpt><trkpt lat="45.8458291416476" lon="10.863188061201749"><ele>93.0</ele><time>2026-05-01T13:45:34.001Z</time></trkpt><trkpt lat="45.845658433133565" lon="10.863199480941569"><ele>95.0</ele><time>2026-05-01T13:45:35.018Z</time></trkpt><trkpt lat="45.84549005679215" lon="10.8632124658425"><ele>97.0</ele><time>2026-05-01T13:45:36.014Z</time></trkpt><trkpt lat="45.84533969640099" lon="10.863287097241871"><ele>97.0</ele><time>2026-05-01T13:45:37.015Z</time></trkpt><trkpt lat="45.84519613732551" lon="10.863333601931496"><ele>97.0</ele><time>2026-05-01T13:45:38.013Z</time></trkpt><trkpt lat="45.845045225945874" lon="10.863380229968932"><ele>97.0</ele><time>2026-05-01T13:45:39.02Z</time></trkpt><trkpt lat="45.84485854825084" lon="10.86354641745126"><ele>104.0</ele><time>2026-05-01T13:45:41.001Z</time></trkpt><trkpt lat="45.844708884207165" lon="10.863590889019953"><ele>111.0</ele><time>2026-05-01T13:45:42.001Z</time></trkpt><trkpt lat="45.844529545350184" lon="10.863611815329113"><ele>118.0</ele><time>2026-05-01T13:45:43.001Z</time></trkpt><trkpt lat="45.84434660426722" lon="10.863573867867242"><ele>115.0</ele><time>2026-05-01T13:45:44Z</time></trkpt><trkpt lat="45.84415244343817" lon="10.863465143887263"><ele>112.0</ele><time>2026-05-01T13:45:45Z</time></trkpt><trkpt lat="45.84396934768849" lon="10.863337204516236"><ele>109.0</ele><time>2026-05-01T13:45:46Z</time></trkpt><trkpt lat="45.843738744892775" lon="10.863189375536082"><ele>104.66666666666667</ele><time>2026-05-01T13:45:47Z</time></trkpt><trkpt lat="45.843558556406705" lon="10.863056039243872"><ele>100.33333333333334</ele><time>2026-05-01T13:45:48Z</time></trkpt><trkpt lat="45.843379525734626" lon="10.86294814396976"><ele>96.0</ele><time>2026-05-01T13:45:49Z</time></trkpt><trkpt lat="45.84317897432708" lon="10.862860516190175"><ele>96.0</ele><time>2026-05-01T13:45:50Z</time></trkpt><trkpt lat="45.842987171084154" lon="10.862765611479348"><ele>96.0</ele><time>2026-05-01T13:45:51Z</time></trkpt><trkpt lat="45.842789463576715" lon="10.86267513827448"><ele>96.0</ele><time>2026-05-01T13:45:52Z</time></trkpt><trkpt lat="45.84259554652083" lon="10.862569202655433"><ele>90.66666666666667</ele><time>2026-05-01T13:45:53Z</time></trkpt><trkpt lat="45.8423974820652" lon="10.86241885721563"><ele>85.33333333333334</ele><time>2026-05-01T13:45:54Z</time></trkpt><trkpt lat="45.842204260015244" lon="10.862270365744104"><ele>80.0</ele><time>2026-05-01T13:45:55Z</time></trkpt><trkpt lat="45.84201737298488" lon="10.862152287459958"><ele>80.0</ele><time>2026-05-01T13:45:56Z</time></trkpt><trkpt lat="45.841843550190596" lon="10.862021598327525"><ele>80.0</ele><time>2026-05-01T13:45:57Z</time></trkpt><trkpt lat="45.84167717912314" lon="10.861895281826062"><ele>80.0</ele><time>2026-05-01T13:45:58Z</time></trkpt><trkpt lat="45.84151472257302" lon="10.861773358265658"><ele>80.33333333333334</ele><time>2026-05-01T13:45:59Z</time></trkpt><trkpt lat="45.84134952159954" lon="10.861651200376373"><ele>80.66666666666667</ele><time>2026-05-01T13:46:00Z</time></trkpt><trkpt lat="45.8412040638709" lon="10.861517542872772"><ele>81.0</ele><time>2026-05-01T13:46:01Z</time></trkpt><trkpt lat="45.841062948508025" lon="10.861411507964059"><ele>85.0</ele><time>2026-05-01T13:46:02Z</time></trkpt><trkpt lat="45.84093452107373" lon="10.86131500691392"><ele>89.0</ele><time>2026-05-01T13:46:03Z</time></trkpt><trkpt lat="45.84080655522891" lon="10.861218388057924"><ele>93.0</ele><time>2026-05-01T13:46:04Z</time></trkpt><trkpt lat="45.84068002922173" lon="10.861121679965072"><ele>97.0</ele><time>2026-05-01T13:46:05Z</time></trkpt><trkpt lat="45.84056405514558" lon="10.861033037120606"><ele>97.0</ele><time>2026-05-01T13:46:06Z</time></trkpt><trkpt lat="45.84043802556522" lon="10.860949671022905"><ele>97.0</ele><time>2026-05-01T13:46:07Z</time></trkpt><trkpt lat="45.84030425913809" lon="10.860915677059298"><ele>97.0</ele><time>2026-05-01T13:46:08Z</time></trkpt><trkpt lat="45.84017808260763" lon="10.860885870360956"><ele>97.0</ele><time>2026-05-01T13:46:09Z</time></trkpt><trkpt lat="45.84003925130941" lon="10.860847190286796"><ele>91.33333333333334</ele><time>2026-05-01T13:46:10Z</time></trkpt><trkpt lat="45.839890069617844" lon="10.860837282564116"><ele>85.66666666666667</ele><time>2026-05-01T13:46:11Z</time></trkpt><trkpt lat="45.83973996485299" lon="10.860830878401895"><ele>80.0</ele><time>2026-05-01T13:46:12Z</time></trkpt><trkpt lat="45.83958404887996" lon="10.860812747003845"><ele>80.0</ele><time>2026-05-01T13:46:13Z</time></trkpt><trkpt lat="45.839426787197624" lon="10.860753541040456"><ele>80.0</ele><time>2026-05-01T13:46:14Z</time></trkpt><trkpt lat="45.8392849979078" lon="10.860750646580192"><ele>80.0</ele><time>2026-05-01T13:46:15Z</time></trkpt><trkpt lat="45.8391423831124" lon="10.860736627561081"><ele>80.0</ele><time>2026-05-01T13:46:16Z</time></trkpt><trkpt lat="45.83899975076493" lon="10.860722254237094"><ele>82.75</ele><time>2026-05-01T13:46:17Z</time></trkpt><trkpt lat="45.8388564280919" lon="10.860696097880345"><ele>85.5</ele><time>2026-05-01T13:46:18Z</time></trkpt><trkpt lat="45.83871469042804" lon="10.860670920898235"><ele>88.25</ele><time>2026-05-01T13:46:19Z</time></trkpt><trkpt lat="45.83856983399784" lon="10.860647128502203"><ele>91.0</ele><time>2026-05-01T13:46:20Z</time></trkpt><trkpt lat="45.83843318914617" lon="10.8605962792559"><ele>93.0</ele><time>2026-05-01T13:46:21Z</time></trkpt><trkpt lat="45.83828003336609" lon="10.86052482510521"><ele>95.0</ele><time>2026-05-01T13:46:22Z</time></trkpt><trkpt lat="45.838145359923445" lon="10.860453504277725"><ele>97.0</ele><time>2026-05-01T13:46:23Z</time></trkpt><trkpt lat="45.838011327049486" lon="10.860372963596562"><ele>97.0</ele><time>2026-05-01T13:46:24Z</time></trkpt><trkpt lat="45.837870715890496" lon="10.860287242291344"><ele>97.0</ele><time>2026-05-01T13:46:25Z</time></trkpt><trkpt lat="45.837732213028666" lon="10.860201786039296"><ele>97.0</ele><time>2026-05-01T13:46:26Z</time></trkpt><trkpt lat="45.83758298060045" lon="10.860109709639325"><ele>90.33333333333334</ele><time>2026-05-01T13:46:27Z</time></trkpt><trkpt lat="45.83742977001729" lon="10.860038759603693"><ele>83.66666666666667</ele><time>2026-05-01T13:46:28Z</time></trkpt><trkpt lat="45.83729530171049" lon="10.859931411428043"><ele>77.0</ele><time>2026-05-01T13:46:29Z</time></trkpt><trkpt lat="45.83715387369488" lon="10.859843715866898"><ele>77.0</ele><time>2026-05-01T13:46:30Z</time></trkpt><trkpt lat="45.837015319042116" lon="10.859757801979075"><ele>77.0</ele><time>2026-05-01T13:46:31Z</time></trkpt><trkpt lat="45.836878833759336" lon="10.859673171255738"><ele>77.0</ele><time>2026-05-01T13:46:32Z</time></trkpt><trkpt lat="45.83673786312011" lon="10.859587426610117"><ele>80.25</ele><time>2026-05-01T13:46:33Z</time></trkpt><trkpt lat="45.8365943281714" lon="10.859526864830876"><ele>83.5</ele><time>2026-05-01T13:46:34Z</time></trkpt><trkpt lat="45.83645702265438" lon="10.859443596739778"><ele>86.75</ele><time>2026-05-01T13:46:35Z</time></trkpt><trkpt lat="45.83632382149442" lon="10.859373581825677"><ele>90.0</ele><time>2026-05-01T13:46:36Z</time></trkpt><trkpt lat="45.836181368349564" lon="10.859333881384735"><ele>90.0</ele><time>2026-05-01T13:46:37Z</time></trkpt><trkpt lat="45.836032018611874" lon="10.859330947736291"><ele>90.0</ele><time>2026-05-01T13:46:38Z</time></trkpt><trkpt lat="45.83588811411983" lon="10.859347621726808"><ele>90.0</ele><time>2026-05-01T13:46:39Z</time></trkpt><trkpt lat="45.83573839895442" lon="10.859394094210032"><ele>90.0</ele><time>2026-05-01T13:46:40Z</time></trkpt><trkpt lat="45.83559611547275" lon="10.859453216216348"><ele>90.66666666666667</ele><time>2026-05-01T13:46:41Z</time></trkpt><trkpt lat="45.83545636730486" lon="10.85952883786456"><ele>91.33333333333334</ele><time>2026-05-01T13:46:42Z</time></trkpt><trkpt lat="45.83532511220497" lon="10.859621052058923"><ele>92.0</ele><time>2026-05-01T13:46:43Z</time></trkpt><trkpt lat="45.83518258941176" lon="10.8597115587816"><ele>90.33333333333334</ele><time>2026-05-01T13:46:44Z</time></trkpt><trkpt lat="45.83504354486968" lon="10.859796878529524"><ele>88.66666666666667</ele><time>2026-05-01T13:46:45Z</time></trkpt><trkpt lat="45.83489639086587" lon="10.85986423907637"><ele>87.0</ele><time>2026-05-01T13:46:46Z</time></trkpt><trkpt lat="45.83475977491017" lon="10.859951648008094"><ele>87.0</ele><time>2026-05-01T13:46:47Z</time></trkpt><trkpt lat="45.834622387344055" lon="10.860028664088894"><ele>87.0</ele><time>2026-05-01T13:46:48Z</time></trkpt><trkpt lat="45.83450876283017" lon="10.86009966465106"><ele>87.0</ele><time>2026-05-01T13:46:49Z</time></trkpt><trkpt lat="45.834391836543084" lon="10.860170533957673"><ele>87.0</ele><time>2026-05-01T13:46:50.001Z</time></trkpt><trkpt lat="45.8342773372597" lon="10.86023664200946"><ele>94.25</ele><time>2026-05-01T13:46:51.001Z</time></trkpt><trkpt lat="45.83415137370664" lon="10.860285044494043"><ele>101.5</ele><time>2026-05-01T13:46:52.001Z</time></trkpt><trkpt lat="45.83401520261828" lon="10.860303796715284"><ele>108.75</ele><time>2026-05-01T13:46:53.001Z</time></trkpt><trkpt lat="45.83388676364767" lon="10.860307661149022"><ele>116.0</ele><time>2026-05-01T13:46:54.001Z</time></trkpt><trkpt lat="45.83374291128449" lon="10.860281311595664"><ele>116.0</ele><time>2026-05-01T13:46:55.001Z</time></trkpt><trkpt lat="45.83359860971182" lon="10.860233937074849"><ele>116.0</ele><time>2026-05-01T13:46:56.001Z</time></trkpt><trkpt lat="45.83346511611016" lon="10.860164136154241"><ele>116.0</ele><time>2026-05-01T13:46:57.001Z</time></trkpt><trkpt lat="45.833332592204485" lon="10.860072666881333"><ele>116.0</ele><time>2026-05-01T13:46:58.001Z</time></trkpt><trkpt lat="45.833196655343095" lon="10.859979806659103"><ele>105.66666666666666</ele><time>2026-05-01T13:46:59.001Z</time></trkpt><trkpt lat="45.83305570272175" lon="10.859903424308163"><ele>95.33333333333333</ele><time>2026-05-01T13:47:00.001Z</time></trkpt><trkpt lat="45.832912327811066" lon="10.859858310364876"><ele>85.0</ele><time>2026-05-01T13:47:01.001Z</time></trkpt><trkpt lat="45.83275935872192" lon="10.85982181167323"><ele>90.66666666666666</ele><time>2026-05-01T13:47:02.001Z</time></trkpt><trkpt lat="45.832605166500585" lon="10.859789233847154"><ele>96.33333333333333</ele><time>2026-05-01T13:47:03.001Z</time></trkpt><trkpt lat="45.83244862077359" lon="10.859751709212055"><ele>102.0</ele><time>2026-05-01T13:47:04.001Z</time></trkpt><trkpt lat="45.832293808656594" lon="10.859719130092056"><ele>102.0</ele><time>2026-05-01T13:47:05.001Z</time></trkpt><trkpt lat="45.83213314497227" lon="10.859668254968588"><ele>102.0</ele><time>2026-05-01T13:47:06.001Z</time></trkpt><trkpt lat="45.83197648025731" lon="10.859613241838693"><ele>102.0</ele><time>2026-05-01T13:47:07.001Z</time></trkpt><trkpt lat="45.831827037780194" lon="10.859544118493819"><ele>108.0</ele><time>2026-05-01T13:47:08.001Z</time></trkpt><trkpt lat="45.83168431675811" lon="10.859450844513704"><ele>114.0</ele><time>2026-05-01T13:47:09.001Z</time></trkpt><trkpt lat="45.83154470401689" lon="10.859338532892538"><ele>120.0</ele><time>2026-05-01T13:47:10.001Z</time></trkpt><trkpt lat="45.83140911456185" lon="10.8592091766291"><ele>105.33333333333333</ele><time>2026-05-01T13:47:11.001Z</time></trkpt><trkpt lat="45.83127658954834" lon="10.859061475299102"><ele>90.66666666666666</ele><time>2026-05-01T13:47:12.001Z</time></trkpt><trkpt lat="45.83115218558413" lon="10.858904417940822"><ele>76.0</ele><time>2026-05-01T13:47:13.001Z</time></trkpt><trkpt lat="45.83100480578671" lon="10.858813700984085"><ele>86.0</ele><time>2026-05-01T13:47:14.001Z</time></trkpt><trkpt lat="45.83086297980465" lon="10.858718006963253"><ele>96.0</ele><time>2026-05-01T13:47:15.001Z</time></trkpt><trkpt lat="45.83071093613996" lon="10.858626216842415"><ele>106.0</ele><time>2026-05-01T13:47:16.001Z</time></trkpt><trkpt lat="45.83055952126902" lon="10.858528350860063"><ele>102.66666666666667</ele><time>2026-05-01T13:47:17.001Z</time></trkpt><trkpt lat="45.83040610138023" lon="10.858430001690891"><ele>99.33333333333334</ele><time>2026-05-01T13:47:18.001Z</time></trkpt><trkpt lat="45.8302522740505" lon="10.858337761087576"><ele>96.0</ele><time>2026-05-01T13:47:19.001Z</time></trkpt><trkpt lat="45.83009724834308" lon="10.858247870593388"><ele>96.0</ele><time>2026-05-01T13:47:20.001Z</time></trkpt><trkpt lat="45.82993903345174" lon="10.858155275747457"><ele>96.0</ele><time>2026-05-01T13:47:21.001Z</time></trkpt><trkpt lat="45.829782784404436" lon="10.858061174062975"><ele>96.0</ele><time>2026-05-01T13:47:22.001Z</time></trkpt><trkpt lat="45.82962687407291" lon="10.857972964293971"><ele>96.0</ele><time>2026-05-01T13:47:23.001Z</time></trkpt><trkpt lat="45.82946953884165" lon="10.857882045039636"><ele>96.0</ele><time>2026-05-01T13:47:24.001Z</time></trkpt><trkpt lat="45.82930175326238" lon="10.857788676004336"><ele>96.0</ele><time>2026-05-01T13:47:25.001Z</time></trkpt><trkpt lat="45.829129789870485" lon="10.857697523688351"><ele>89.33333333333333</ele><time>2026-05-01T13:47:26.001Z</time></trkpt><trkpt lat="45.82897778205144" lon="10.8576149852628"><ele>82.66666666666666</ele><time>2026-05-01T13:47:27.001Z</time></trkpt><trkpt lat="45.82883363035558" lon="10.85753727371295"><ele>76.0</ele><time>2026-05-01T13:47:28.001Z</time></trkpt><trkpt lat="45.82870624899713" lon="10.857438598980961"><ele>76.0</ele><time>2026-05-01T13:47:29.001Z</time></trkpt><trkpt lat="45.828565748108055" lon="10.85735953922353"><ele>76.0</ele><time>2026-05-01T13:47:30.001Z</time></trkpt><trkpt lat="45.82842559629069" lon="10.857289249497262"><ele>76.0</ele><time>2026-05-01T13:47:31.001Z</time></trkpt><trkpt lat="45.828287449696674" lon="10.857228096725075"><ele>76.0</ele><time>2026-05-01T13:47:32.001Z</time></trkpt><trkpt lat="45.828149430754586" lon="10.8571881406087"><ele>81.25</ele><time>2026-05-01T13:47:33.001Z</time></trkpt><trkpt lat="45.827999929812805" lon="10.857179089848898"><ele>86.5</ele><time>2026-05-01T13:47:34.001Z</time></trkpt><trkpt lat="45.827851412203856" lon="10.857207286578978"><ele>91.75</ele><time>2026-05-01T13:47:35.001Z</time></trkpt><trkpt lat="45.827709273249454" lon="10.857251726541072"><ele>97.0</ele><time>2026-05-01T13:47:36.001Z</time></trkpt><trkpt lat="45.827563331952035" lon="10.857310746654354"><ele>100.0</ele><time>2026-05-01T13:47:37.001Z</time></trkpt><trkpt lat="45.82742104613331" lon="10.857370278215186"><ele>103.0</ele><time>2026-05-01T13:47:38.001Z</time></trkpt><trkpt lat="45.82727624082755" lon="10.8574316526618"><ele>106.0</ele><time>2026-05-01T13:47:39.015Z</time></trkpt><trkpt lat="45.82713005419188" lon="10.85749700905729"><ele>106.0</ele><time>2026-05-01T13:47:40.013Z</time></trkpt><trkpt lat="45.8269824790659" lon="10.857563403886568"><ele>106.0</ele><time>2026-05-01T13:47:41.013Z</time></trkpt><trkpt lat="45.8268336398138" lon="10.857627559647474"><ele>106.0</ele><time>2026-05-01T13:47:42.016Z</time></trkpt><trkpt lat="45.826335287964795" lon="10.857731267829916"><ele>116.5</ele><time>2026-05-01T13:47:46.014Z</time></trkpt><trkpt lat="45.826181531250626" lon="10.857760129545941"><ele>127.0</ele><time>2026-05-01T13:47:47.014Z</time></trkpt><trkpt lat="45.82548377937144" lon="10.857757730614454"><ele>127.0</ele><time>2026-05-01T13:47:51.014Z</time></trkpt><trkpt lat="45.82529747117269" lon="10.857761941259746"><ele>127.0</ele><time>2026-05-01T13:47:52.019Z</time></trkpt><trkpt lat="45.825108141851395" lon="10.857769138479085"><ele>127.0</ele><time>2026-05-01T13:47:53.013Z</time></trkpt><trkpt lat="45.824773434783616" lon="10.857639494589314"><ele>124.75</ele><time>2026-05-01T13:47:55.001Z</time></trkpt><trkpt lat="45.824600866479905" lon="10.857625290607814"><ele>122.5</ele><time>2026-05-01T13:47:56.001Z</time></trkpt><trkpt lat="45.824525290927944" lon="10.857724391690828"><ele>120.25</ele><time>2026-05-01T13:47:57.001Z</time></trkpt><trkpt lat="45.82435634125038" lon="10.857703874268191"><ele>118.0</ele><time>2026-05-01T13:47:58.001Z</time></trkpt><trkpt lat="45.82418492972262" lon="10.857676997539714"><ele>118.0</ele><time>2026-05-01T13:47:59.001Z</time></trkpt><trkpt lat="45.824009824513716" lon="10.857643683308817"><ele>118.0</ele><time>2026-05-01T13:48:00.001Z</time></trkpt><trkpt lat="45.82384112930088" lon="10.857607958235848"><ele>118.0</ele><time>2026-05-01T13:48:01Z</time></trkpt><trkpt lat="45.82367221947833" lon="10.857566718050538"><ele>107.66666666666667</ele><time>2026-05-01T13:48:02Z</time></trkpt><trkpt lat="45.82350897157725" lon="10.857522766440482"><ele>97.33333333333334</ele><time>2026-05-01T13:48:03Z</time></trkpt><trkpt lat="45.82334362482876" lon="10.85746988527395"><ele>87.0</ele><time>2026-05-01T13:48:04Z</time></trkpt><trkpt lat="45.823159569557056" lon="10.857409060052117"><ele>87.0</ele><time>2026-05-01T13:48:05Z</time></trkpt><trkpt lat="45.82299199944839" lon="10.857353682703465"><ele>87.0</ele><time>2026-05-01T13:48:06Z</time></trkpt><trkpt lat="45.82266965961779" lon="10.85724638086613"><ele>91.0</ele><time>2026-05-01T13:48:07Z</time></trkpt><trkpt lat="45.82256052656967" lon="10.85720977576175"><ele>95.0</ele><time>2026-05-01T13:48:08Z</time></trkpt><trkpt lat="45.822401735957314" lon="10.85715651502107"><ele>99.0</ele><time>2026-05-01T13:48:09Z</time></trkpt><trkpt lat="45.822286624346475" lon="10.857117904716539"><ele>103.0</ele><time>2026-05-01T13:48:10Z</time></trkpt><trkpt lat="45.82214239763483" lon="10.857069528681588"><ele>103.0</ele><time>2026-05-01T13:48:11Z</time></trkpt><trkpt lat="45.821984985599606" lon="10.857016730037829"><ele>103.0</ele><time>2026-05-01T13:48:12Z</time></trkpt><trkpt lat="45.82182704793323" lon="10.85696375515512"><ele>103.0</ele><time>2026-05-01T13:48:13Z</time></trkpt><trkpt lat="45.821670627198" lon="10.85691128903519"><ele>106.0</ele><time>2026-05-01T13:48:14Z</time></trkpt><trkpt lat="45.8214978527682" lon="10.856853337567138"><ele>109.0</ele><time>2026-05-01T13:48:15Z</time></trkpt><trkpt lat="45.82133925438528" lon="10.856800140901836"><ele>112.0</ele><time>2026-05-01T13:48:16Z</time></trkpt><trkpt lat="45.82117311635248" lon="10.856744282841493"><ele>104.66666666666667</ele><time>2026-05-01T13:48:17Z</time></trkpt><trkpt lat="45.82098939736302" lon="10.856683598836304"><ele>97.33333333333334</ele><time>2026-05-01T13:48:18Z</time></trkpt><trkpt lat="45.82083445813322" lon="10.856632488545069"><ele>90.0</ele><time>2026-05-01T13:48:19Z</time></trkpt><trkpt lat="45.82067318128478" lon="10.856580404348"><ele>90.0</ele><time>2026-05-01T13:48:20Z</time></trkpt><trkpt lat="45.82052525038238" lon="10.856523239010492"><ele>90.0</ele><time>2026-05-01T13:48:21Z</time></trkpt><trkpt lat="45.82039546788358" lon="10.856467201156022"><ele>90.0</ele><time>2026-05-01T13:48:22Z</time></trkpt><trkpt lat="45.820224440004765" lon="10.856390149857612"><ele>93.5</ele><time>2026-05-01T13:48:23Z</time></trkpt><trkpt lat="45.82006094587876" lon="10.856315513156279"><ele>97.0</ele><time>2026-05-01T13:48:24Z</time></trkpt><trkpt lat="45.81993722789431" lon="10.85625752802731"><ele>100.5</ele><time>2026-05-01T13:48:25Z</time></trkpt><trkpt lat="45.81984989022136" lon="10.856216472631615"><ele>104.0</ele><time>2026-05-01T13:48:26Z</time></trkpt><trkpt lat="45.81971567962142" lon="10.856153384174497"><ele>104.0</ele><time>2026-05-01T13:48:27Z</time></trkpt><trkpt lat="45.81956441586516" lon="10.85608227967633"><ele>104.0</ele><time>2026-05-01T13:48:28Z</time></trkpt><trkpt lat="45.819418956316014" lon="10.856013903344259"><ele>104.0</ele><time>2026-05-01T13:48:29Z</time></trkpt><trkpt lat="45.81926955255519" lon="10.85594423890043"><ele>95.66666666666666</ele><time>2026-05-01T13:48:30Z</time></trkpt><trkpt lat="45.81912375711567" lon="10.855880978300027"><ele>87.33333333333333</ele><time>2026-05-01T13:48:31Z</time></trkpt><trkpt lat="45.81896619672429" lon="10.855820926208134"><ele>79.0</ele><time>2026-05-01T13:48:32Z</time></trkpt><trkpt lat="45.81876273017547" lon="10.855752113030004"><ele>79.0</ele><time>2026-05-01T13:48:33Z</time></trkpt><trkpt lat="45.818619659679726" lon="10.855705924603978"><ele>79.0</ele><time>2026-05-01T13:48:34Z</time></trkpt><trkpt lat="45.81848232068538" lon="10.855661586414993"><ele>79.0</ele><time>2026-05-01T13:48:35Z</time></trkpt><trkpt lat="45.818304859746945" lon="10.855604295471476"><ele>84.25</ele><time>2026-05-01T13:48:36Z</time></trkpt><trkpt lat="45.81817855135981" lon="10.855563518427667"><ele>89.5</ele><time>2026-05-01T13:48:37Z</time></trkpt><trkpt lat="45.818024985190554" lon="10.855513941612397"><ele>94.75</ele><time>2026-05-01T13:48:38Z</time></trkpt><trkpt lat="45.81787769613763" lon="10.855466391532156"><ele>100.0</ele><time>2026-05-01T13:48:39Z</time></trkpt><trkpt lat="45.81771908147506" lon="10.85541706930792"><ele>107.0</ele><time>2026-05-01T13:48:40Z</time></trkpt><trkpt lat="45.81751857593037" lon="10.855355540617873"><ele>114.0</ele><time>2026-05-01T13:48:41Z</time></trkpt><trkpt lat="45.81732653878364" lon="10.855230391531713"><ele>121.0</ele><time>2026-05-01T13:48:42Z</time></trkpt><trkpt lat="45.81715780213424" lon="10.855202765615568"><ele>115.0</ele><time>2026-05-01T13:48:43Z</time></trkpt><trkpt lat="45.81702755246168" lon="10.855086019333154"><ele>109.0</ele><time>2026-05-01T13:48:44Z</time></trkpt><trkpt lat="45.81689382246295" lon="10.855003196995536"><ele>103.0</ele><time>2026-05-01T13:48:45Z</time></trkpt><trkpt lat="45.816766492388936" lon="10.854944537375006"><ele>97.0</ele><time>2026-05-01T13:48:46Z</time></trkpt><trkpt lat="45.81663813951826" lon="10.854853457958736"><ele>97.0</ele><time>2026-05-01T13:48:47Z</time></trkpt><trkpt lat="45.81650252940593" lon="10.854756825804946"><ele>97.0</ele><time>2026-05-01T13:48:48Z</time></trkpt><trkpt lat="45.816352178035054" lon="10.854631017932235"><ele>97.0</ele><time>2026-05-01T13:48:49Z</time></trkpt><trkpt lat="45.81621317429801" lon="10.854516936185115"><ele>97.0</ele><time>2026-05-01T13:48:50Z</time></trkpt><trkpt lat="45.816066868824954" lon="10.854436636160331"><ele>97.0</ele><time>2026-05-01T13:48:51.013Z</time></trkpt><trkpt lat="45.81592180332689" lon="10.854362561246486"><ele>97.0</ele><time>2026-05-01T13:48:52.015Z</time></trkpt><trkpt lat="45.81577842209904" lon="10.854296310658743"><ele>90.33333333333334</ele><time>2026-05-01T13:48:53.015Z</time></trkpt><trkpt lat="45.815589153773445" lon="10.85417922986733"><ele>83.66666666666667</ele><time>2026-05-01T13:48:54.014Z</time></trkpt><trkpt lat="45.815425954251864" lon="10.854015854163592"><ele>77.0</ele><time>2026-05-01T13:48:55.016Z</time></trkpt><trkpt lat="45.81526760122895" lon="10.853894619063652"><ele>85.66666666666667</ele><time>2026-05-01T13:48:56Z</time></trkpt><trkpt lat="45.81511189792636" lon="10.853813371587957"><ele>94.33333333333334</ele><time>2026-05-01T13:48:57Z</time></trkpt><trkpt lat="45.814965131116146" lon="10.853668343299027"><ele>103.0</ele><time>2026-05-01T13:48:58Z</time></trkpt><trkpt lat="45.81479831421202" lon="10.85358848955373"><ele>103.0</ele><time>2026-05-01T13:48:59Z</time></trkpt><trkpt lat="45.81464073319477" lon="10.853562655167625"><ele>103.0</ele><time>2026-05-01T13:49:00Z</time></trkpt><trkpt lat="45.814480549168" lon="10.853460776553836"><ele>103.0</ele><time>2026-05-01T13:49:01Z</time></trkpt><trkpt lat="45.81431822811655" lon="10.853417840051856"><ele>102.33333333333334</ele><time>2026-05-01T13:49:02.001Z</time></trkpt><trkpt lat="45.81414810613389" lon="10.853336496880706"><ele>101.66666666666666</ele><time>2026-05-01T13:49:03.001Z</time></trkpt><trkpt lat="45.81397912341272" lon="10.853275268171217"><ele>101.0</ele><time>2026-05-01T13:49:04.019Z</time></trkpt><trkpt lat="45.813814529131704" lon="10.853214753174393"><ele>101.0</ele><time>2026-05-01T13:49:05.019Z</time></trkpt><trkpt lat="45.81364813821977" lon="10.853153238737015"><ele>101.0</ele><time>2026-05-01T13:49:06.019Z</time></trkpt><trkpt lat="45.81348250047681" lon="10.853091936660096"><ele>101.0</ele><time>2026-05-01T13:49:07.019Z</time></trkpt><trkpt lat="45.81331605238683" lon="10.853029994053031"><ele>71.0</ele><time>2026-05-01T13:49:08.02Z</time></trkpt><trkpt lat="45.81181749705766" lon="10.85249092430887"><ele>71.0</ele><time>2026-05-01T13:49:15.001Z</time></trkpt><trkpt lat="45.81163450992213" lon="10.852423670101947"><ele>71.0</ele><time>2026-05-01T13:49:16.001Z</time></trkpt><trkpt lat="45.811513831072716" lon="10.85247894518236"><ele>71.0</ele><time>2026-05-01T13:49:17.001Z</time></trkpt><trkpt lat="45.81136940495265" lon="10.85242646926663"><ele>71.0</ele><time>2026-05-01T13:49:18.001Z</time></trkpt><trkpt lat="45.811200421622786" lon="10.852365070581032"><ele>71.0</ele><time>2026-05-01T13:49:19.001Z</time></trkpt><trkpt lat="45.81103734442476" lon="10.852305716637135"><ele>71.0</ele><time>2026-05-01T13:49:20.001Z</time></trkpt><trkpt lat="45.81082976156962" lon="10.852254084560979"><ele>76.0</ele><time>2026-05-01T13:49:21.001Z</time></trkpt><trkpt lat="45.81067395690745" lon="10.852173406871781"><ele>81.0</ele><time>2026-05-01T13:49:22.001Z</time></trkpt><trkpt lat="45.81051452629019" lon="10.852138291489227"><ele>86.0</ele><time>2026-05-01T13:49:23.001Z</time></trkpt><trkpt lat="45.81036919778017" lon="10.852062219760093"><ele>86.0</ele><time>2026-05-01T13:49:24.001Z</time></trkpt><trkpt lat="45.81021969532481" lon="10.851992480827544"><ele>86.0</ele><time>2026-05-01T13:49:25.001Z</time></trkpt><trkpt lat="45.81008781168977" lon="10.851913398975706"><ele>86.0</ele><time>2026-05-01T13:49:26.001Z</time></trkpt><trkpt lat="45.80995996552555" lon="10.851824701430173"><ele>86.0</ele><time>2026-05-01T13:49:27.001Z</time></trkpt><trkpt lat="45.80983842031798" lon="10.851717478793478"><ele>83.5</ele><time>2026-05-01T13:49:28.001Z</time></trkpt><trkpt lat="45.80972421578437" lon="10.851596190442375"><ele>81.0</ele><time>2026-05-01T13:49:29.001Z</time></trkpt><trkpt lat="45.8096177974593" lon="10.851473585534752"><ele>78.5</ele><time>2026-05-01T13:49:30.001Z</time></trkpt><trkpt lat="45.80952347909484" lon="10.851338926976982"><ele>76.0</ele><time>2026-05-01T13:49:31.001Z</time></trkpt><trkpt lat="45.80943403547227" lon="10.851192370609937"><ele>76.0</ele><time>2026-05-01T13:49:32.001Z</time></trkpt><trkpt lat="45.80935143400483" lon="10.851038094685032"><ele>76.0</ele><time>2026-05-01T13:49:33.001Z</time></trkpt><trkpt lat="45.80928403448618" lon="10.850882552266894"><ele>76.0</ele><time>2026-05-01T13:49:34.001Z</time></trkpt><trkpt lat="45.80922488872664" lon="10.850710665181959"><ele>76.0</ele><time>2026-05-01T13:49:35.001Z</time></trkpt><trkpt lat="45.80916602936705" lon="10.85052669962228"><ele>76.0</ele><time>2026-05-01T13:49:36.001Z</time></trkpt><trkpt lat="45.80910535687797" lon="10.850330432321714"><ele>76.0</ele><time>2026-05-01T13:49:37.001Z</time></trkpt><trkpt lat="45.80904547834916" lon="10.850134562773261"><ele>76.0</ele><time>2026-05-01T13:49:38.001Z</time></trkpt><trkpt lat="45.80898260773651" lon="10.849929066976946"><ele>76.0</ele><time>2026-05-01T13:49:39.001Z</time></trkpt><trkpt lat="45.80892145809714" lon="10.849731212861515"><ele>76.0</ele><time>2026-05-01T13:49:40.001Z</time></trkpt><trkpt lat="45.80886043723994" lon="10.849536208917321"><ele>76.0</ele><time>2026-05-01T13:49:41.001Z</time></trkpt><trkpt lat="45.80879978134788" lon="10.849348433984089"><ele>76.0</ele><time>2026-05-01T13:49:42.001Z</time></trkpt><trkpt lat="45.80873888286947" lon="10.849165445044854"><ele>73.75</ele><time>2026-05-01T13:49:43.001Z</time></trkpt><trkpt lat="45.8086699466822" lon="10.848990043953062"><ele>71.5</ele><time>2026-05-01T13:49:44.001Z</time></trkpt><trkpt lat="45.8085889773715" lon="10.84882092342366"><ele>69.25</ele><time>2026-05-01T13:49:45.001Z</time></trkpt><trkpt lat="45.80849070817994" lon="10.848655794467312"><ele>67.0</ele><time>2026-05-01T13:49:46.001Z</time></trkpt><trkpt lat="45.80838477823572" lon="10.848506363630792"><ele>69.25</ele><time>2026-05-01T13:49:47.001Z</time></trkpt><trkpt lat="45.80827151444024" lon="10.848372812844529"><ele>71.5</ele><time>2026-05-01T13:49:48.001Z</time></trkpt><trkpt lat="45.80814464765138" lon="10.848271815427882"><ele>73.75</ele><time>2026-05-01T13:49:49.001Z</time></trkpt><trkpt lat="45.80801970575862" lon="10.848153650244086"><ele>76.0</ele><time>2026-05-01T13:49:50.001Z</time></trkpt><trkpt lat="45.80788444163351" lon="10.848043774668426"><ele>76.0</ele><time>2026-05-01T13:49:51.001Z</time></trkpt><trkpt lat="45.80775946891083" lon="10.84793869227918"><ele>76.0</ele><time>2026-05-01T13:49:52.001Z</time></trkpt><trkpt lat="45.807628137403825" lon="10.847841923202507"><ele>76.0</ele><time>2026-05-01T13:49:53.001Z</time></trkpt><trkpt lat="45.80750281860244" lon="10.847744231012767"><ele>76.0</ele><time>2026-05-01T13:49:54.001Z</time></trkpt><trkpt lat="45.807371395971465" lon="10.847639922901012"><ele>75.5</ele><time>2026-05-01T13:49:55.001Z</time></trkpt><trkpt lat="45.80724493071096" lon="10.847536401375207"><ele>75.0</ele><time>2026-05-01T13:49:56.001Z</time></trkpt><trkpt lat="45.80711554202668" lon="10.847431243643666"><ele>74.5</ele><time>2026-05-01T13:49:57.001Z</time></trkpt><trkpt lat="45.806983770199054" lon="10.847329551451125"><ele>74.0</ele><time>2026-05-01T13:49:58.001Z</time></trkpt><trkpt lat="45.80685180230916" lon="10.847217128527925"><ele>72.75</ele><time>2026-05-01T13:49:59.001Z</time></trkpt><trkpt lat="45.80672390994956" lon="10.847107707942401"><ele>71.5</ele><time>2026-05-01T13:50:00.001Z</time></trkpt><trkpt lat="45.80659486553025" lon="10.847000736732578"><ele>70.25</ele><time>2026-05-01T13:50:01.001Z</time></trkpt><trkpt lat="45.80646422814307" lon="10.846890986090983"><ele>69.0</ele><time>2026-05-01T13:50:02.001Z</time></trkpt><trkpt lat="45.80633331727665" lon="10.846778255871067"><ele>69.0</ele><time>2026-05-01T13:50:03.001Z</time></trkpt><trkpt lat="45.80620400978144" lon="10.846663674425285"><ele>69.0</ele><time>2026-05-01T13:50:04.001Z</time></trkpt><trkpt lat="45.80607543035899" lon="10.846541310842897"><ele>69.0</ele><time>2026-05-01T13:50:05.001Z</time></trkpt><trkpt lat="45.805952967912695" lon="10.846411324327967"><ele>68.75</ele><time>2026-05-01T13:50:06.001Z</time></trkpt><trkpt lat="45.8058401322761" lon="10.84627792792481"><ele>68.5</ele><time>2026-05-01T13:50:07Z</time></trkpt><trkpt lat="45.80572915093812" lon="10.846141424469504"><ele>68.25</ele><time>2026-05-01T13:50:08Z</time></trkpt><trkpt lat="45.805620264785546" lon="10.84600084856343"><ele>68.0</ele><time>2026-05-01T13:50:09Z</time></trkpt><trkpt lat="45.80551596206504" lon="10.84585445087078"><ele>68.0</ele><time>2026-05-01T13:50:10Z</time></trkpt><trkpt lat="45.80541836517236" lon="10.845701457424564"><ele>68.0</ele><time>2026-05-01T13:50:11Z</time></trkpt><trkpt lat="45.80532357815525" lon="10.845523586278063"><ele>68.0</ele><time>2026-05-01T13:50:12Z</time></trkpt><trkpt lat="45.805222443616984" lon="10.845311989018555"><ele>70.66666666666667</ele><time>2026-05-01T13:50:13Z</time></trkpt><trkpt lat="45.80511709603488" lon="10.84507285314916"><ele>73.33333333333333</ele><time>2026-05-01T13:50:14Z</time></trkpt><trkpt lat="45.80503290415626" lon="10.844846710309751"><ele>76.0</ele><time>2026-05-01T13:50:15Z</time></trkpt><trkpt lat="45.80493967033421" lon="10.844640852964357"><ele>76.0</ele><time>2026-05-01T13:50:16Z</time></trkpt><trkpt lat="45.80485061969898" lon="10.844446276022968"><ele>76.0</ele><time>2026-05-01T13:50:17Z</time></trkpt><trkpt lat="45.804769520461036" lon="10.844270136763484"><ele>76.0</ele><time>2026-05-01T13:50:18Z</time></trkpt><trkpt lat="45.80468971182713" lon="10.844101462130284"><ele>73.8</ele><time>2026-05-01T13:50:19Z</time></trkpt><trkpt lat="45.8046180998568" lon="10.843950574118574"><ele>71.6</ele><time>2026-05-01T13:50:20Z</time></trkpt><trkpt lat="45.804559162100894" lon="10.843830014342437"><ele>69.4</ele><time>2026-05-01T13:50:21Z</time></trkpt><trkpt lat="45.804507975467914" lon="10.843726619717918"><ele>67.2</ele><time>2026-05-01T13:50:22Z</time></trkpt><trkpt lat="45.80445677580576" lon="10.84362614177203"><ele>65.0</ele><time>2026-05-01T13:50:23Z</time></trkpt><trkpt lat="45.80440235255018" lon="10.843519338498396"><ele>64.6</ele><time>2026-05-01T13:50:24Z</time></trkpt><trkpt lat="45.80434335134648" lon="10.843408612611604"><ele>64.2</ele><time>2026-05-01T13:50:25Z</time></trkpt><trkpt lat="45.804288110221556" lon="10.84330579796118"><ele>63.8</ele><time>2026-05-01T13:50:26Z</time></trkpt><trkpt lat="45.80422672730422" lon="10.843193957523757"><ele>63.4</ele><time>2026-05-01T13:50:27Z</time></trkpt><trkpt lat="45.80416403735113" lon="10.843080290445409"><ele>63.0</ele><time>2026-05-01T13:50:28Z</time></trkpt><trkpt lat="45.80410145431076" lon="10.842970317270822"><ele>64.5</ele><time>2026-05-01T13:50:29Z</time></trkpt><trkpt lat="45.804011172652054" lon="10.842882030276321"><ele>66.0</ele><time>2026-05-01T13:50:30Z</time></trkpt><trkpt lat="45.80394459664499" lon="10.842759561458923"><ele>67.5</ele><time>2026-05-01T13:50:31Z</time></trkpt><trkpt lat="45.8038699350612" lon="10.842632071785244"><ele>69.0</ele><time>2026-05-01T13:50:32Z</time></trkpt><trkpt lat="45.803780131738996" lon="10.842494099812512"><ele>69.0</ele><time>2026-05-01T13:50:33Z</time></trkpt><trkpt lat="45.803671982257065" lon="10.842338216482318"><ele>69.0</ele><time>2026-05-01T13:50:34Z</time></trkpt><trkpt lat="45.80358203607707" lon="10.842113543321346"><ele>69.0</ele><time>2026-05-01T13:50:35Z</time></trkpt><trkpt lat="45.80345819991058" lon="10.841927635261547"><ele>69.33333333333333</ele><time>2026-05-01T13:50:36Z</time></trkpt><trkpt lat="45.80333168684805" lon="10.841746831548388"><ele>69.66666666666666</ele><time>2026-05-01T13:50:37Z</time></trkpt><trkpt lat="45.80319811463261" lon="10.841564816994612"><ele>70.0</ele><time>2026-05-01T13:50:38Z</time></trkpt><trkpt lat="45.803072034123474" lon="10.84139419606069"><ele>70.0</ele><time>2026-05-01T13:50:39Z</time></trkpt><trkpt lat="45.80294655195069" lon="10.841227749672115"><ele>70.0</ele><time>2026-05-01T13:50:40Z</time></trkpt><trkpt lat="45.80281916613922" lon="10.84106917846561"><ele>70.0</ele><time>2026-05-01T13:50:41Z</time></trkpt><trkpt lat="45.802690646042244" lon="10.840914364261272"><ele>71.66666666666666</ele><time>2026-05-01T13:50:42Z</time></trkpt><trkpt lat="45.80256038210665" lon="10.84075975937054"><ele>73.33333333333333</ele><time>2026-05-01T13:50:43Z</time></trkpt><trkpt lat="45.80243441587547" lon="10.840612372214382"><ele>75.0</ele><time>2026-05-01T13:50:44Z</time></trkpt><trkpt lat="45.80230315982574" lon="10.840466402032275"><ele>75.0</ele><time>2026-05-01T13:50:45Z</time></trkpt><trkpt lat="45.80217191215223" lon="10.840322385553481"><ele>75.0</ele><time>2026-05-01T13:50:46Z</time></trkpt><trkpt lat="45.80204370001946" lon="10.840182065276458"><ele>75.0</ele><time>2026-05-01T13:50:47Z</time></trkpt><trkpt lat="45.801927679726106" lon="10.84004308047011"><ele>76.5</ele><time>2026-05-01T13:50:48Z</time></trkpt><trkpt lat="45.80181984960482" lon="10.839901862029697"><ele>78.0</ele><time>2026-05-01T13:50:49Z</time></trkpt><trkpt lat="45.801721508255724" lon="10.839749925923055"><ele>79.5</ele><time>2026-05-01T13:50:50Z</time></trkpt><trkpt lat="45.801630920451665" lon="10.839600032237911"><ele>81.0</ele><time>2026-05-01T13:50:51Z</time></trkpt><trkpt lat="45.80153395578921" lon="10.839451648710037"><ele>78.0</ele><time>2026-05-01T13:50:52Z</time></trkpt><trkpt lat="45.801461827136016" lon="10.839289636142956"><ele>75.0</ele><time>2026-05-01T13:50:53Z</time></trkpt><trkpt lat="45.80139464787664" lon="10.839120880106051"><ele>72.0</ele><time>2026-05-01T13:50:54Z</time></trkpt><trkpt lat="45.80130411719315" lon="10.838967955143294"><ele>69.0</ele><time>2026-05-01T13:50:55Z</time></trkpt><trkpt lat="45.8012310384431" lon="10.838806117185127"><ele>69.0</ele><time>2026-05-01T13:50:56Z</time></trkpt><trkpt lat="45.80115685346786" lon="10.838649578477238"><ele>69.0</ele><time>2026-05-01T13:50:57Z</time></trkpt><trkpt lat="45.80108021167209" lon="10.838494625876756"><ele>69.0</ele><time>2026-05-01T13:50:58Z</time></trkpt><trkpt lat="45.801004425251335" lon="10.838340388028945"><ele>69.0</ele><time>2026-05-01T13:50:59Z</time></trkpt><trkpt lat="45.80092006693407" lon="10.838195438305378"><ele>70.5</ele><time>2026-05-01T13:51:00Z</time></trkpt><trkpt lat="45.80083724901112" lon="10.838064517834315"><ele>72.0</ele><time>2026-05-01T13:51:01Z</time></trkpt><trkpt lat="45.8007465106089" lon="10.837951559643832"><ele>73.5</ele><time>2026-05-01T13:51:02Z</time></trkpt><trkpt lat="45.800662529495014" lon="10.837815442323569"><ele>75.0</ele><time>2026-05-01T13:51:03Z</time></trkpt><trkpt lat="45.800552803007996" lon="10.837737423688266"><ele>75.0</ele><time>2026-05-01T13:51:04Z</time></trkpt><trkpt lat="45.800448541061364" lon="10.8376621142997"><ele>75.0</ele><time>2026-05-01T13:51:05.001Z</time></trkpt><trkpt lat="45.80035811988933" lon="10.837577791266263"><ele>75.0</ele><time>2026-05-01T13:51:06.001Z</time></trkpt><trkpt lat="45.80026336428779" lon="10.837528180377554"><ele>75.0</ele><time>2026-05-01T13:51:07.001Z</time></trkpt><trkpt lat="45.800174087203786" lon="10.837506555128195"><ele>75.0</ele><time>2026-05-01T13:51:08.001Z</time></trkpt><trkpt lat="45.80009554022996" lon="10.83747155168043"><ele>73.66666666666667</ele><time>2026-05-01T13:51:09.001Z</time></trkpt><trkpt lat="45.80002250096513" lon="10.837418510637821"><ele>72.33333333333333</ele><time>2026-05-01T13:51:10.001Z</time></trkpt><trkpt lat="45.79995501649136" lon="10.83741735134629"><ele>71.0</ele><time>2026-05-01T13:51:11.001Z</time></trkpt><trkpt lat="45.799837223074526" lon="10.837389431258071"><ele>69.66666666666666</ele><time>2026-05-01T13:51:13.001Z</time></trkpt><trkpt lat="45.79972346591583" lon="10.837374935594383"><ele>68.33333333333333</ele><time>2026-05-01T13:51:15.001Z</time></trkpt><trkpt lat="45.799660360190536" lon="10.837367594731582"><ele>67.0</ele><time>2026-05-01T13:51:16.001Z</time></trkpt><trkpt lat="45.799597545902195" lon="10.837361589998606"><ele>67.0</ele><time>2026-05-01T13:51:17.001Z</time></trkpt><trkpt lat="45.79946878976664" lon="10.837351667141432"><ele>67.0</ele><time>2026-05-01T13:51:19.001Z</time></trkpt><trkpt lat="45.79938634035388" lon="10.837369868049748"><ele>67.0</ele><time>2026-05-01T13:51:20.001Z</time></trkpt><trkpt lat="45.79929364658405" lon="10.837389531649007"><ele>67.0</ele><time>2026-05-01T13:51:21.001Z</time></trkpt><trkpt lat="45.799194348843265" lon="10.837410436411288"><ele>67.0</ele><time>2026-05-01T13:51:22.001Z</time></trkpt><trkpt lat="45.79908480255509" lon="10.8374334987813"><ele>68.0</ele><time>2026-05-01T13:51:23.001Z</time></trkpt><trkpt lat="45.79897948697685" lon="10.837496289327367"><ele>69.0</ele><time>2026-05-01T13:51:24.001Z</time></trkpt><trkpt lat="45.79886709181158" lon="10.83752089716939"><ele>70.0</ele><time>2026-05-01T13:51:25.001Z</time></trkpt><trkpt lat="45.7987517021676" lon="10.837540611664199"><ele>71.0</ele><time>2026-05-01T13:51:26.001Z</time></trkpt><trkpt lat="45.79863488323682" lon="10.837563214478847"><ele>71.0</ele><time>2026-05-01T13:51:27.001Z</time></trkpt><trkpt lat="45.79851328368311" lon="10.837563336382587"><ele>71.0</ele><time>2026-05-01T13:51:28.001Z</time></trkpt><trkpt lat="45.79839122052175" lon="10.83758872564241"><ele>71.0</ele><time>2026-05-01T13:51:29.001Z</time></trkpt><trkpt lat="45.79827851915903" lon="10.837607345481748"><ele>71.0</ele><time>2026-05-01T13:51:30.001Z</time></trkpt><trkpt lat="45.798164150549276" lon="10.837617063098286"><ele>70.25</ele><time>2026-05-01T13:51:31.001Z</time></trkpt><trkpt lat="45.79804136142005" lon="10.837614965300451"><ele>69.5</ele><time>2026-05-01T13:51:32.001Z</time></trkpt><trkpt lat="45.797911671007846" lon="10.837622464699079"><ele>68.75</ele><time>2026-05-01T13:51:33.001Z</time></trkpt><trkpt lat="45.79778730601443" lon="10.837590772099025"><ele>68.0</ele><time>2026-05-01T13:51:34.001Z</time></trkpt><trkpt lat="45.79766860755042" lon="10.837527277792503"><ele>70.75</ele><time>2026-05-01T13:51:35.001Z</time></trkpt><trkpt lat="45.797546326672496" lon="10.837494336444415"><ele>73.5</ele><time>2026-05-01T13:51:36.001Z</time></trkpt><trkpt lat="45.79742626138864" lon="10.837430672646489"><ele>76.25</ele><time>2026-05-01T13:51:37.001Z</time></trkpt><trkpt lat="45.79731519287511" lon="10.83735101013098"><ele>79.0</ele><time>2026-05-01T13:51:38.001Z</time></trkpt><trkpt lat="45.79721743376035" lon="10.83726607802462"><ele>79.0</ele><time>2026-05-01T13:51:39.001Z</time></trkpt><trkpt lat="45.79712310943077" lon="10.837174359507333"><ele>79.0</ele><time>2026-05-01T13:51:40.001Z</time></trkpt><trkpt lat="45.79702824966188" lon="10.837082164996069"><ele>79.0</ele><time>2026-05-01T13:51:41.001Z</time></trkpt><trkpt lat="45.79694579179187" lon="10.837006585517702"><ele>79.0</ele><time>2026-05-01T13:51:42.001Z</time></trkpt><trkpt lat="45.7968746654302" lon="10.836924910850565"><ele>79.0</ele><time>2026-05-01T13:51:43.001Z</time></trkpt><trkpt lat="45.79680225494929" lon="10.83684853064153"><ele>78.4</ele><time>2026-05-01T13:51:44.001Z</time></trkpt><trkpt lat="45.79672545162348" lon="10.836759403260476"><ele>77.80000000000001</ele><time>2026-05-01T13:51:45.001Z</time></trkpt><trkpt lat="45.79665251474089" lon="10.836676732083488"><ele>77.19999999999999</ele><time>2026-05-01T13:51:46.001Z</time></trkpt><trkpt lat="45.796574506561456" lon="10.836594438656826"><ele>76.6</ele><time>2026-05-01T13:51:47.001Z</time></trkpt><trkpt lat="45.796493089981624" lon="10.836511191409972"><ele>76.0</ele><time>2026-05-01T13:51:48.001Z</time></trkpt><trkpt lat="45.79640927461072" lon="10.836426300126229"><ele>76.0</ele><time>2026-05-01T13:51:49.001Z</time></trkpt><trkpt lat="45.796328895968415" lon="10.83634013891262"><ele>76.0</ele><time>2026-05-01T13:51:50.001Z</time></trkpt><trkpt lat="45.7962343834785" lon="10.836239485987674"><ele>76.0</ele><time>2026-05-01T13:51:51.001Z</time></trkpt><trkpt lat="45.79612872802269" lon="10.836130128474075"><ele>76.0</ele><time>2026-05-01T13:51:52.001Z</time></trkpt><trkpt lat="45.79601781711228" lon="10.836015712256462"><ele>75.33333333333333</ele><time>2026-05-01T13:51:53.001Z</time></trkpt><trkpt lat="45.795905833167595" lon="10.835891457926992"><ele>74.66666666666667</ele><time>2026-05-01T13:51:54.001Z</time></trkpt><trkpt lat="45.79578761570404" lon="10.835769056388063"><ele>74.0</ele><time>2026-05-01T13:51:55.001Z</time></trkpt><trkpt lat="45.79565877759425" lon="10.835627001230979"><ele>74.0</ele><time>2026-05-01T13:51:56.001Z</time></trkpt><trkpt lat="45.79552103737623" lon="10.835468452941345"><ele>74.0</ele><time>2026-05-01T13:51:57.001Z</time></trkpt><trkpt lat="45.795381991938115" lon="10.835319362809091"><ele>74.0</ele><time>2026-05-01T13:51:58.001Z</time></trkpt><trkpt lat="45.7952529358092" lon="10.835180220997712"><ele>74.5</ele><time>2026-05-01T13:51:59.001Z</time></trkpt><trkpt lat="45.79513330547854" lon="10.835053374723032"><ele>75.0</ele><time>2026-05-01T13:52:00.001Z</time></trkpt><trkpt lat="45.795014520206585" lon="10.834927247128617"><ele>75.5</ele><time>2026-05-01T13:52:01.001Z</time></trkpt><trkpt lat="45.79490447845515" lon="10.83482231415942"><ele>76.0</ele><time>2026-05-01T13:52:02.001Z</time></trkpt><trkpt lat="45.794787044704485" lon="10.834709095666494"><ele>76.0</ele><time>2026-05-01T13:52:03.001Z</time></trkpt><trkpt lat="45.79464616726202" lon="10.834583161371562"><ele>76.0</ele><time>2026-05-01T13:52:04.001Z</time></trkpt><trkpt lat="45.794499495219114" lon="10.834403336452633"><ele>76.0</ele><time>2026-05-01T13:52:05.001Z</time></trkpt><trkpt lat="45.79433064705252" lon="10.834229636217719"><ele>78.33333333333333</ele><time>2026-05-01T13:52:06.001Z</time></trkpt><trkpt lat="45.79417047433901" lon="10.834082908248783"><ele>80.66666666666667</ele><time>2026-05-01T13:52:07.001Z</time></trkpt><trkpt lat="45.79403158068392" lon="10.833929446616333"><ele>83.0</ele><time>2026-05-01T13:52:08.001Z</time></trkpt><trkpt lat="45.79388542475366" lon="10.833785406595279"><ele>83.0</ele><time>2026-05-01T13:52:09.001Z</time></trkpt><trkpt lat="45.7937704266733" lon="10.833637370327311"><ele>83.0</ele><time>2026-05-01T13:52:10.001Z</time></trkpt><trkpt lat="45.793654346965994" lon="10.83350986349405"><ele>83.0</ele><time>2026-05-01T13:52:11.001Z</time></trkpt><trkpt lat="45.79353350818243" lon="10.83337286164691"><ele>84.0</ele><time>2026-05-01T13:52:12.001Z</time></trkpt><trkpt lat="45.793416241799264" lon="10.833232354163538"><ele>85.0</ele><time>2026-05-01T13:52:13.001Z</time></trkpt><trkpt lat="45.79329747538938" lon="10.833114644474673"><ele>86.0</ele><time>2026-05-01T13:52:14.001Z</time></trkpt><trkpt lat="45.79319731808511" lon="10.83295690565275"><ele>87.0</ele><time>2026-05-01T13:52:15.001Z</time></trkpt><trkpt lat="45.7930952090683" lon="10.832823662576093"><ele>87.0</ele><time>2026-05-01T13:52:16.001Z</time></trkpt><trkpt lat="45.79298709720321" lon="10.832713310086499"><ele>87.0</ele><time>2026-05-01T13:52:17.001Z</time></trkpt><trkpt lat="45.792907236104554" lon="10.832570693693112"><ele>87.0</ele><time>2026-05-01T13:52:18.001Z</time></trkpt><trkpt lat="45.792819978703214" lon="10.832445760418135"><ele>87.0</ele><time>2026-05-01T13:52:19.001Z</time></trkpt><trkpt lat="45.79272973759703" lon="10.832313789501667"><ele>84.0</ele><time>2026-05-01T13:52:20.001Z</time></trkpt><trkpt lat="45.79264429906707" lon="10.832183527978211"><ele>81.0</ele><time>2026-05-01T13:52:21Z</time></trkpt><trkpt lat="45.79256138962779" lon="10.832048838563487"><ele>78.0</ele><time>2026-05-01T13:52:22Z</time></trkpt><trkpt lat="45.792479101897904" lon="10.831911638257091"><ele>75.0</ele><time>2026-05-01T13:52:23Z</time></trkpt><trkpt lat="45.792397106495166" lon="10.83176765538524"><ele>75.0</ele><time>2026-05-01T13:52:24Z</time></trkpt><trkpt lat="45.79231231036622" lon="10.831612923315147"><ele>75.0</ele><time>2026-05-01T13:52:25Z</time></trkpt><trkpt lat="45.79222777214969" lon="10.831451016138562"><ele>75.0</ele><time>2026-05-01T13:52:26Z</time></trkpt><trkpt lat="45.79212840441025" lon="10.831253036014104"><ele>75.0</ele><time>2026-05-01T13:52:27Z</time></trkpt><trkpt lat="45.79202635335369" lon="10.831048200451239"><ele>71.0</ele><time>2026-05-01T13:52:28Z</time></trkpt><trkpt lat="45.79191746875937" lon="10.830817079507362"><ele>67.0</ele><time>2026-05-01T13:52:29Z</time></trkpt><trkpt lat="45.79180130414012" lon="10.830553833719016"><ele>63.0</ele><time>2026-05-01T13:52:30Z</time></trkpt><trkpt lat="45.791683009851525" lon="10.830278344178286"><ele>66.33333333333333</ele><time>2026-05-01T13:52:31Z</time></trkpt><trkpt lat="45.79157839897185" lon="10.830034223567342"><ele>69.66666666666666</ele><time>2026-05-01T13:52:32Z</time></trkpt><trkpt lat="45.79146640389584" lon="10.829817119011148"><ele>73.0</ele><time>2026-05-01T13:52:33Z</time></trkpt><trkpt lat="45.79138436088445" lon="10.829592047231683"><ele>73.0</ele><time>2026-05-01T13:52:34Z</time></trkpt><trkpt lat="45.79129276095452" lon="10.829379704628122"><ele>73.0</ele><time>2026-05-01T13:52:35Z</time></trkpt><trkpt lat="45.79119374587456" lon="10.829158769221927"><ele>73.0</ele><time>2026-05-01T13:52:36Z</time></trkpt><trkpt lat="45.79110283131646" lon="10.828949570287346"><ele>73.66666666666666</ele><time>2026-05-01T13:52:37Z</time></trkpt><trkpt lat="45.791023269676515" lon="10.828745585732124"><ele>74.33333333333333</ele><time>2026-05-01T13:52:38Z</time></trkpt><trkpt lat="45.79096961876421" lon="10.828514830863986"><ele>75.0</ele><time>2026-05-01T13:52:39Z</time></trkpt><trkpt lat="45.790879421092846" lon="10.828294201879922"><ele>75.0</ele><time>2026-05-01T13:52:40Z</time></trkpt><trkpt lat="45.79084481332051" lon="10.828042199923765"><ele>75.0</ele><time>2026-05-01T13:52:41Z</time></trkpt><trkpt lat="45.790795143200334" lon="10.827790898144043"><ele>75.0</ele><time>2026-05-01T13:52:42Z</time></trkpt><trkpt lat="45.79072921256482" lon="10.827560650853554"><ele>72.0</ele><time>2026-05-01T13:52:43Z</time></trkpt><trkpt lat="45.79064686425441" lon="10.827330928603947"><ele>69.0</ele><time>2026-05-01T13:52:44Z</time></trkpt><trkpt lat="45.79055686610524" lon="10.827100376620661"><ele>66.0</ele><time>2026-05-01T13:52:45Z</time></trkpt><trkpt lat="45.7904668343641" lon="10.826887216739843"><ele>65.0</ele><time>2026-05-01T13:52:46Z</time></trkpt><trkpt lat="45.79037629785564" lon="10.826679122037111"><ele>64.0</ele><time>2026-05-01T13:52:47Z</time></trkpt><trkpt lat="45.7902838156786" lon="10.826477036908512"><ele>63.0</ele><time>2026-05-01T13:52:48Z</time></trkpt><trkpt lat="45.790183217867785" lon="10.826277960230186"><ele>63.66666666666667</ele><time>2026-05-01T13:52:49Z</time></trkpt><trkpt lat="45.79007102171389" lon="10.826083655661893"><ele>64.33333333333334</ele><time>2026-05-01T13:52:50Z</time></trkpt><trkpt lat="45.78996005926139" lon="10.825894900756575"><ele>65.0</ele><time>2026-05-01T13:52:51Z</time></trkpt><trkpt lat="45.789847068110454" lon="10.825703182507759"><ele>65.0</ele><time>2026-05-01T13:52:52Z</time></trkpt><trkpt lat="45.78974378575213" lon="10.825522754416605"><ele>65.0</ele><time>2026-05-01T13:52:53Z</time></trkpt><trkpt lat="45.78964432999104" lon="10.825348002568063"><ele>65.0</ele><time>2026-05-01T13:52:54Z</time></trkpt><trkpt lat="45.78956433891332" lon="10.825168040517482"><ele>64.5</ele><time>2026-05-01T13:52:55Z</time></trkpt><trkpt lat="45.78947261251279" lon="10.825004239350868"><ele>64.0</ele><time>2026-05-01T13:52:56Z</time></trkpt><trkpt lat="45.78937598690002" lon="10.824867635134572"><ele>63.5</ele><time>2026-05-01T13:52:57Z</time></trkpt><trkpt lat="45.78930112791652" lon="10.824719909321237"><ele>63.0</ele><time>2026-05-01T13:52:58Z</time></trkpt><trkpt lat="45.78922402091441" lon="10.824584007522954"><ele>63.5</ele><time>2026-05-01T13:52:59Z</time></trkpt><trkpt lat="45.78913802788094" lon="10.824437686591512"><ele>64.0</ele><time>2026-05-01T13:53:00Z</time></trkpt><trkpt lat="45.78906411741936" lon="10.824262008324174"><ele>64.5</ele><time>2026-05-01T13:53:01Z</time></trkpt><trkpt lat="45.788977265338175" lon="10.824098483832753"><ele>65.0</ele><time>2026-05-01T13:53:02Z</time></trkpt><trkpt lat="45.788887463954566" lon="10.823925252420928"><ele>65.0</ele><time>2026-05-01T13:53:03Z</time></trkpt><trkpt lat="45.78878832983699" lon="10.823771396777557"><ele>65.0</ele><time>2026-05-01T13:53:04Z</time></trkpt><trkpt lat="45.78870823728362" lon="10.823610330643628"><ele>65.0</ele><time>2026-05-01T13:53:05Z</time></trkpt><trkpt lat="45.788634782571286" lon="10.823442870239921"><ele>65.0</ele><time>2026-05-01T13:53:06Z</time></trkpt><trkpt lat="45.788554157138556" lon="10.823288604459702"><ele>66.0</ele><time>2026-05-01T13:53:07Z</time></trkpt><trkpt lat="45.78847532046206" lon="10.82313750869475"><ele>67.0</ele><time>2026-05-01T13:53:08Z</time></trkpt><trkpt lat="45.78839609923462" lon="10.822980295657713"><ele>68.0</ele><time>2026-05-01T13:53:09Z</time></trkpt><trkpt lat="45.78831210499713" lon="10.82285451924253"><ele>69.0</ele><time>2026-05-01T13:53:10Z</time></trkpt><trkpt lat="45.78822391901706" lon="10.822740485481102"><ele>69.0</ele><time>2026-05-01T13:53:11Z</time></trkpt><trkpt lat="45.78812941674494" lon="10.822631978427214"><ele>69.0</ele><time>2026-05-01T13:53:12Z</time></trkpt><trkpt lat="45.78801561162095" lon="10.82251476800428"><ele>69.0</ele><time>2026-05-01T13:53:13.001Z</time></trkpt><trkpt lat="45.78788839062529" lon="10.82240829925967"><ele>69.0</ele><time>2026-05-01T13:53:14.001Z</time></trkpt><trkpt lat="45.787752981664234" lon="10.822299232268817"><ele>69.33333333333333</ele><time>2026-05-01T13:53:15.001Z</time></trkpt><trkpt lat="45.78761808755215" lon="10.822189745013352"><ele>69.66666666666666</ele><time>2026-05-01T13:53:16.001Z</time></trkpt><trkpt lat="45.78748234177598" lon="10.822068704366954"><ele>70.0</ele><time>2026-05-01T13:53:17.001Z</time></trkpt><trkpt lat="45.787348741069714" lon="10.821954641999366"><ele>70.0</ele><time>2026-05-01T13:53:18.001Z</time></trkpt><trkpt lat="45.787215519764615" lon="10.821842913318905"><ele>70.0</ele><time>2026-05-01T13:53:19.001Z</time></trkpt><trkpt lat="45.787088560330695" lon="10.821711290199719"><ele>70.0</ele><time>2026-05-01T13:53:20.001Z</time></trkpt><trkpt lat="45.786951998187874" lon="10.821595448598089"><ele>69.33333333333333</ele><time>2026-05-01T13:53:21.001Z</time></trkpt><trkpt lat="45.78681371845002" lon="10.82147743589263"><ele>68.66666666666667</ele><time>2026-05-01T13:53:22.001Z</time></trkpt><trkpt lat="45.78667598256443" lon="10.821358190258481"><ele>68.0</ele><time>2026-05-01T13:53:23.001Z</time></trkpt><trkpt lat="45.78652973807313" lon="10.821244587021171"><ele>68.0</ele><time>2026-05-01T13:53:24.001Z</time></trkpt><trkpt lat="45.78638483630132" lon="10.821118608085992"><ele>68.0</ele><time>2026-05-01T13:53:25.001Z</time></trkpt><trkpt lat="45.78624060518573" lon="10.820972452898074"><ele>68.0</ele><time>2026-05-01T13:53:26.001Z</time></trkpt><trkpt lat="45.78611140342738" lon="10.820799661704187"><ele>71.33333333333334</ele><time>2026-05-01T13:53:27.001Z</time></trkpt><trkpt lat="45.78596385643179" lon="10.820650511354236"><ele>74.66666666666667</ele><time>2026-05-01T13:53:28.001Z</time></trkpt><trkpt lat="45.785827815949276" lon="10.820477766117635"><ele>78.0</ele><time>2026-05-01T13:53:29.001Z</time></trkpt><trkpt lat="45.785692961755885" lon="10.820306965584594"><ele>74.33333333333333</ele><time>2026-05-01T13:53:30.001Z</time></trkpt><trkpt lat="45.78556300446805" lon="10.820144633465235"><ele>70.66666666666666</ele><time>2026-05-01T13:53:31.001Z</time></trkpt><trkpt lat="45.78543006747391" lon="10.819988037480659"><ele>67.0</ele><time>2026-05-01T13:53:32.001Z</time></trkpt><trkpt lat="45.78529785777983" lon="10.819830244033856"><ele>70.33333333333333</ele><time>2026-05-01T13:53:33.001Z</time></trkpt><trkpt lat="45.785166067747944" lon="10.819667057376414"><ele>73.66666666666667</ele><time>2026-05-01T13:53:34.001Z</time></trkpt><trkpt lat="45.785032683311314" lon="10.819507581557223"><ele>77.0</ele><time>2026-05-01T13:53:35.001Z</time></trkpt><trkpt lat="45.784895918456165" lon="10.819349998356396"><ele>73.66666666666667</ele><time>2026-05-01T13:53:36.001Z</time></trkpt><trkpt lat="45.78475550426974" lon="10.819218386995495"><ele>70.33333333333333</ele><time>2026-05-01T13:53:37.001Z</time></trkpt><trkpt lat="45.78460098555141" lon="10.81911654136113"><ele>67.0</ele><time>2026-05-01T13:53:38.001Z</time></trkpt><trkpt lat="45.78444471347174" lon="10.819028842451127"><ele>70.0</ele><time>2026-05-01T13:53:39.001Z</time></trkpt><trkpt lat="45.78428950901535" lon="10.818953939958032"><ele>73.0</ele><time>2026-05-01T13:53:40.001Z</time></trkpt><trkpt lat="45.78414346190816" lon="10.818895489916228"><ele>76.0</ele><time>2026-05-01T13:53:41.001Z</time></trkpt><trkpt lat="45.783991906212336" lon="10.818833417249353"><ele>76.0</ele><time>2026-05-01T13:53:42.001Z</time></trkpt><trkpt lat="45.78384487122602" lon="10.818773873677351"><ele>76.0</ele><time>2026-05-01T13:53:43.001Z</time></trkpt><trkpt lat="45.78370760960245" lon="10.818725680534993"><ele>76.0</ele><time>2026-05-01T13:53:44.001Z</time></trkpt><trkpt lat="45.783559665408895" lon="10.81868762945116"><ele>76.0</ele><time>2026-05-01T13:53:45.001Z</time></trkpt><trkpt lat="45.783411924626385" lon="10.81864954811522"><ele>78.33333333333333</ele><time>2026-05-01T13:53:46.001Z</time></trkpt><trkpt lat="45.783269573762375" lon="10.818588742228144"><ele>80.66666666666667</ele><time>2026-05-01T13:53:47.001Z</time></trkpt><trkpt lat="45.78312826149108" lon="10.818528409190094"><ele>83.0</ele><time>2026-05-01T13:53:48.001Z</time></trkpt><trkpt lat="45.78297507624318" lon="10.818479004038666"><ele>80.0</ele><time>2026-05-01T13:53:49.001Z</time></trkpt><trkpt lat="45.78283048159622" lon="10.818402661870888"><ele>77.0</ele><time>2026-05-01T13:53:50.001Z</time></trkpt><trkpt lat="45.78268483054535" lon="10.818334815489765"><ele>74.0</ele><time>2026-05-01T13:53:51.001Z</time></trkpt><trkpt lat="45.782539839027734" lon="10.8182695996068"><ele>74.0</ele><time>2026-05-01T13:53:52.001Z</time></trkpt><trkpt lat="45.78240245991645" lon="10.818200813479558"><ele>74.0</ele><time>2026-05-01T13:53:53.001Z</time></trkpt><trkpt lat="45.78226356050433" lon="10.8181297068382"><ele>74.0</ele><time>2026-05-01T13:53:54.001Z</time></trkpt><trkpt lat="45.782121836905105" lon="10.818063060513941"><ele>74.0</ele><time>2026-05-01T13:53:55.001Z</time></trkpt><trkpt lat="45.78198155741858" lon="10.817996616965175"><ele>77.66666666666667</ele><time>2026-05-01T13:53:56.001Z</time></trkpt><trkpt lat="45.781840331541666" lon="10.817925293063913"><ele>81.33333333333333</ele><time>2026-05-01T13:53:57.001Z</time></trkpt><trkpt lat="45.78169928270945" lon="10.817858075209129"><ele>85.0</ele><time>2026-05-01T13:53:58.001Z</time></trkpt><trkpt lat="45.781555063363115" lon="10.817788376956697"><ele>85.0</ele><time>2026-05-01T13:53:59.001Z</time></trkpt><trkpt lat="45.781415389202145" lon="10.817728328940703"><ele>85.0</ele><time>2026-05-01T13:54:00.001Z</time></trkpt><trkpt lat="45.78127903125955" lon="10.81766276254206"><ele>85.0</ele><time>2026-05-01T13:54:01.001Z</time></trkpt><trkpt lat="45.78114635926779" lon="10.8176042565659"><ele>85.0</ele><time>2026-05-01T13:54:02.001Z</time></trkpt><trkpt lat="45.78101035754263" lon="10.81754544209116"><ele>82.25</ele><time>2026-05-01T13:54:03.001Z</time></trkpt><trkpt lat="45.780873473386045" lon="10.817473264045406"><ele>79.5</ele><time>2026-05-01T13:54:04.001Z</time></trkpt><trkpt lat="45.78073748709227" lon="10.817410328969487"><ele>76.75</ele><time>2026-05-01T13:54:05.001Z</time></trkpt><trkpt lat="45.78060343106886" lon="10.817338875446943"><ele>74.0</ele><time>2026-05-01T13:54:06.001Z</time></trkpt><trkpt lat="45.78046241170582" lon="10.817278425751066"><ele>74.0</ele><time>2026-05-01T13:54:07.001Z</time></trkpt><trkpt lat="45.780323809990826" lon="10.817219627264825"><ele>74.0</ele><time>2026-05-01T13:54:08.001Z</time></trkpt><trkpt lat="45.780183630427565" lon="10.817153646131567"><ele>74.0</ele><time>2026-05-01T13:54:09.001Z</time></trkpt><trkpt lat="45.78004914436913" lon="10.817095353548734"><ele>74.0</ele><time>2026-05-01T13:54:10.001Z</time></trkpt><trkpt lat="45.77991316850321" lon="10.81703069811213"><ele>71.75</ele><time>2026-05-01T13:54:11.001Z</time></trkpt><trkpt lat="45.77978048977786" lon="10.816967161416521"><ele>69.5</ele><time>2026-05-01T13:54:12.001Z</time></trkpt><trkpt lat="45.77964414093548" lon="10.816906949923018"><ele>67.25</ele><time>2026-05-01T13:54:13.001Z</time></trkpt><trkpt lat="45.779512951593574" lon="10.816843334550104"><ele>65.0</ele><time>2026-05-01T13:54:14.001Z</time></trkpt><trkpt lat="45.7793716037472" lon="10.816781581066934"><ele>67.0</ele><time>2026-05-01T13:54:15.001Z</time></trkpt><trkpt lat="45.779232082108955" lon="10.816718849583541"><ele>69.0</ele><time>2026-05-01T13:54:16.001Z</time></trkpt><trkpt lat="45.77909231889367" lon="10.816657438335426"><ele>71.0</ele><time>2026-05-01T13:54:17.001Z</time></trkpt><trkpt lat="45.77894856980218" lon="10.816597216303427"><ele>73.0</ele><time>2026-05-01T13:54:18.001Z</time></trkpt><trkpt lat="45.778810181552494" lon="10.816528507683055"><ele>73.0</ele><time>2026-05-01T13:54:19Z</time></trkpt><trkpt lat="45.77867294333633" lon="10.816454364169456"><ele>73.0</ele><time>2026-05-01T13:54:20Z</time></trkpt><trkpt lat="45.77853206535047" lon="10.816382126528085"><ele>73.0</ele><time>2026-05-01T13:54:21Z</time></trkpt><trkpt lat="45.77838674828941" lon="10.816315292339613"><ele>73.0</ele><time>2026-05-01T13:54:22Z</time></trkpt><trkpt lat="45.778251451483705" lon="10.816228227802764"><ele>75.0</ele><time>2026-05-01T13:54:23Z</time></trkpt><trkpt lat="45.77811031291884" lon="10.816147147253838"><ele>77.0</ele><time>2026-05-01T13:54:24Z</time></trkpt><trkpt lat="45.77797071117225" lon="10.816058423918458"><ele>79.0</ele><time>2026-05-01T13:54:25Z</time></trkpt><trkpt lat="45.77783536824283" lon="10.815977522932778"><ele>77.66666666666666</ele><time>2026-05-01T13:54:26Z</time></trkpt><trkpt lat="45.77770189786251" lon="10.81588914711277"><ele>76.33333333333333</ele><time>2026-05-01T13:54:27Z</time></trkpt><trkpt lat="45.77755416250383" lon="10.81580830456499"><ele>75.0</ele><time>2026-05-01T13:54:28Z</time></trkpt><trkpt lat="45.77741327233064" lon="10.815726955882718"><ele>75.0</ele><time>2026-05-01T13:54:29Z</time></trkpt><trkpt lat="45.77726249617509" lon="10.815647640819382"><ele>75.0</ele><time>2026-05-01T13:54:30Z</time></trkpt><trkpt lat="45.77710491833676" lon="10.815552378358065"><ele>75.0</ele><time>2026-05-01T13:54:31Z</time></trkpt><trkpt lat="45.77694734660187" lon="10.815465967259188"><ele>78.33333333333333</ele><time>2026-05-01T13:54:32Z</time></trkpt><trkpt lat="45.776794926607835" lon="10.81539227600129"><ele>81.66666666666666</ele><time>2026-05-01T13:54:33Z</time></trkpt><trkpt lat="45.7766461911711" lon="10.81532399771721"><ele>85.0</ele><time>2026-05-01T13:54:34Z</time></trkpt><trkpt lat="45.776495555787314" lon="10.815240577791839"><ele>85.0</ele><time>2026-05-01T13:54:35Z</time></trkpt><trkpt lat="45.77634796938503" lon="10.815190358267056"><ele>85.0</ele><time>2026-05-01T13:54:36Z</time></trkpt><trkpt lat="45.77620132906836" lon="10.815122422613381"><ele>85.0</ele><time>2026-05-01T13:54:37Z</time></trkpt><trkpt lat="45.776052921409594" lon="10.81505359748132"><ele>81.0</ele><time>2026-05-01T13:54:38Z</time></trkpt><trkpt lat="45.77590772216846" lon="10.814992413694442"><ele>77.0</ele><time>2026-05-01T13:54:39Z</time></trkpt><trkpt lat="45.775771864490366" lon="10.814894700318252"><ele>73.0</ele><time>2026-05-01T13:54:40Z</time></trkpt><trkpt lat="45.77563112588981" lon="10.814804520936967"><ele>73.0</ele><time>2026-05-01T13:54:41Z</time></trkpt><trkpt lat="45.775495363228366" lon="10.814704908345389"><ele>73.0</ele><time>2026-05-01T13:54:42Z</time></trkpt><trkpt lat="45.775361645696684" lon="10.814603910784763"><ele>73.0</ele><time>2026-05-01T13:54:43Z</time></trkpt><trkpt lat="45.77523200479596" lon="10.814505992336883"><ele>72.66666666666666</ele><time>2026-05-01T13:54:44Z</time></trkpt><trkpt lat="45.77509772432321" lon="10.814405405222054"><ele>72.33333333333333</ele><time>2026-05-01T13:54:45Z</time></trkpt><trkpt lat="45.77496152648722" lon="10.81430371713585"><ele>72.0</ele><time>2026-05-01T13:54:46Z</time></trkpt><trkpt lat="45.7748262516171" lon="10.81420339029824"><ele>72.0</ele><time>2026-05-01T13:54:47Z</time></trkpt><trkpt lat="45.774690162256206" lon="10.814103631264816"><ele>72.0</ele><time>2026-05-01T13:54:48Z</time></trkpt><trkpt lat="45.77454800758538" lon="10.814026452612227"><ele>72.0</ele><time>2026-05-01T13:54:49Z</time></trkpt><trkpt lat="45.77441514723866" lon="10.813911934995405"><ele>75.33333333333333</ele><time>2026-05-01T13:54:50Z</time></trkpt><trkpt lat="45.7742741865876" lon="10.813821173698972"><ele>78.66666666666666</ele><time>2026-05-01T13:54:51Z</time></trkpt><trkpt lat="45.774130308151655" lon="10.813742035736563"><ele>82.0</ele><time>2026-05-01T13:54:52Z</time></trkpt><trkpt lat="45.773983060662204" lon="10.8136856402808"><ele>82.0</ele><time>2026-05-01T13:54:53Z</time></trkpt><trkpt lat="45.77384525341673" lon="10.813607099443846"><ele>82.0</ele><time>2026-05-01T13:54:54Z</time></trkpt><trkpt lat="45.77370307236355" lon="10.813540457283063"><ele>82.0</ele><time>2026-05-01T13:54:55Z</time></trkpt><trkpt lat="45.773559359369614" lon="10.813473279105075"><ele>82.0</ele><time>2026-05-01T13:54:56Z</time></trkpt><trkpt lat="45.77341804214993" lon="10.813406277186905"><ele>80.75</ele><time>2026-05-01T13:54:57Z</time></trkpt><trkpt lat="45.773276426710915" lon="10.813337796652789"><ele>79.5</ele><time>2026-05-01T13:54:58Z</time></trkpt><trkpt lat="45.773140226094874" lon="10.813271636811855"><ele>78.25</ele><time>2026-05-01T13:54:59Z</time></trkpt><trkpt lat="45.77301037168505" lon="10.813203142069272"><ele>77.0</ele><time>2026-05-01T13:55:00Z</time></trkpt><trkpt lat="45.77288372353627" lon="10.813136633441149"><ele>77.0</ele><time>2026-05-01T13:55:01Z</time></trkpt><trkpt lat="45.7727582421645" lon="10.813086754376549"><ele>77.0</ele><time>2026-05-01T13:55:02Z</time></trkpt><trkpt lat="45.7726420674477" lon="10.813007420252786"><ele>77.0</ele><time>2026-05-01T13:55:03Z</time></trkpt><trkpt lat="45.772514364198166" lon="10.812967271238133"><ele>77.0</ele><time>2026-05-01T13:55:04Z</time></trkpt><trkpt lat="45.77238938505825" lon="10.812904238495527"><ele>77.8</ele><time>2026-05-01T13:55:05Z</time></trkpt><trkpt lat="45.77228554191334" lon="10.812839137006689"><ele>78.6</ele><time>2026-05-01T13:55:06Z</time></trkpt><trkpt lat="45.77219990504942" lon="10.812804602205984"><ele>79.39999999999999</ele><time>2026-05-01T13:55:07Z</time></trkpt><trkpt lat="45.77212711735792" lon="10.812769673843206"><ele>80.2</ele><time>2026-05-01T13:55:08Z</time></trkpt><trkpt lat="45.772062622494566" lon="10.812740239179343"><ele>81.0</ele><time>2026-05-01T13:55:09Z</time></trkpt><trkpt lat="45.77195169382526" lon="10.812680263834894"><ele>80.39999999999999</ele><time>2026-05-01T13:55:11Z</time></trkpt><trkpt lat="45.7718823874226" lon="10.812649821343522"><ele>79.8</ele><time>2026-05-01T13:55:12Z</time></trkpt><trkpt lat="45.771806679751236" lon="10.812613565446057"><ele>79.19999999999999</ele><time>2026-05-01T13:55:13Z</time></trkpt><trkpt lat="45.771720713311026" lon="10.812572883384133"><ele>78.6</ele><time>2026-05-01T13:55:14Z</time></trkpt><trkpt lat="45.771622128219526" lon="10.81252401530929"><ele>78.0</ele><time>2026-05-01T13:55:15Z</time></trkpt><trkpt lat="45.77150999164224" lon="10.812469009823634"><ele>78.0</ele><time>2026-05-01T13:55:16Z</time></trkpt><trkpt lat="45.77139395018729" lon="10.812409657058547"><ele>78.0</ele><time>2026-05-01T13:55:17Z</time></trkpt><trkpt lat="45.77127202687624" lon="10.812348191770715"><ele>78.0</ele><time>2026-05-01T13:55:18Z</time></trkpt><trkpt lat="45.771147950242295" lon="10.812288893893411"><ele>78.0</ele><time>2026-05-01T13:55:19Z</time></trkpt><trkpt lat="45.7710223521849" lon="10.812229779201312"><ele>81.25</ele><time>2026-05-01T13:55:20Z</time></trkpt><trkpt lat="45.770893588424045" lon="10.812172856828916"><ele>84.5</ele><time>2026-05-01T13:55:21Z</time></trkpt><trkpt lat="45.77076387193823" lon="10.812110521904339"><ele>87.75</ele><time>2026-05-01T13:55:22Z</time></trkpt><trkpt lat="45.77062800545993" lon="10.812064348473687"><ele>91.0</ele><time>2026-05-01T13:55:23Z</time></trkpt><trkpt lat="45.77048657031727" lon="10.81200836802924"><ele>91.0</ele><time>2026-05-01T13:55:24Z</time></trkpt><trkpt lat="45.77034747191677" lon="10.811961342112573"><ele>91.0</ele><time>2026-05-01T13:55:25Z</time></trkpt><trkpt lat="45.77022066521859" lon="10.81194820369263"><ele>91.0</ele><time>2026-05-01T13:55:26.001Z</time></trkpt><trkpt lat="45.77010414659412" lon="10.811935372695194"><ele>91.0</ele><time>2026-05-01T13:55:27.001Z</time></trkpt><trkpt lat="45.76998823723504" lon="10.811955887320044"><ele>90.8</ele><time>2026-05-01T13:55:28.001Z</time></trkpt><trkpt lat="45.76986919747138" lon="10.811970907751105"><ele>90.6</ele><time>2026-05-01T13:55:29.001Z</time></trkpt><trkpt lat="45.769757205833784" lon="10.811992671259901"><ele>90.4</ele><time>2026-05-01T13:55:30.001Z</time></trkpt><trkpt lat="45.7696558680996" lon="10.812009814587821"><ele>90.2</ele><time>2026-05-01T13:55:31.001Z</time></trkpt><trkpt lat="45.76958857193617" lon="10.81202161292715"><ele>90.0</ele><time>2026-05-01T13:55:32.001Z</time></trkpt><trkpt lat="45.76950941059661" lon="10.812042910040507"><ele>90.0</ele><time>2026-05-01T13:55:35.001Z</time></trkpt><trkpt lat="45.76943521911192" lon="10.812070744077179"><ele>90.0</ele><time>2026-05-01T13:55:39.001Z</time></trkpt><trkpt lat="45.769353097203975" lon="10.812077058299117"><ele>90.0</ele><time>2026-05-01T13:55:43.001Z</time></trkpt><trkpt lat="45.76927119977291" lon="10.812080415416187"><ele>90.0</ele><time>2026-05-01T13:55:46.001Z</time></trkpt><trkpt lat="45.76918389584396" lon="10.812075660499584"><ele>90.0</ele><time>2026-05-01T13:55:49.001Z</time></trkpt><trkpt lat="45.76908996039369" lon="10.812058424836243"><ele>90.0</ele><time>2026-05-01T13:55:52.001Z</time></trkpt><trkpt lat="45.76901755765627" lon="10.812018420687377"><ele>89.33333333333333</ele><time>2026-05-01T13:55:55.001Z</time></trkpt><trkpt lat="45.76893661316639" lon="10.812015546982352"><ele>88.66666666666667</ele><time>2026-05-01T13:55:58.001Z</time></trkpt><trkpt lat="45.76886441759604" lon="10.811989980301316"><ele>88.0</ele><time>2026-05-01T13:56:01.001Z</time></trkpt><trkpt lat="45.7687752552684" lon="10.811963842070993"><ele>87.33333333333334</ele><time>2026-05-01T13:56:05.001Z</time></trkpt><trkpt lat="45.76870537074152" lon="10.811947746151715"><ele>86.66666666666667</ele><time>2026-05-01T13:56:07.001Z</time></trkpt><trkpt lat="45.76862833949712" lon="10.8119234740671"><ele>86.0</ele><time>2026-05-01T13:56:09.001Z</time></trkpt><trkpt lat="45.768563348671904" lon="10.811880482885377"><ele>86.6</ele><time>2026-05-01T13:56:11.001Z</time></trkpt><trkpt lat="45.76847686161886" lon="10.811867355730344"><ele>87.19999999999999</ele><time>2026-05-01T13:56:13.001Z</time></trkpt><trkpt lat="45.76836546069693" lon="10.811839815051641"><ele>87.80000000000001</ele><time>2026-05-01T13:56:15.001Z</time></trkpt><trkpt lat="45.76829323242635" lon="10.811796302039927"><ele>88.4</ele><time>2026-05-01T13:56:16.001Z</time></trkpt><trkpt lat="45.76822024719615" lon="10.811791654580011"><ele>89.0</ele><time>2026-05-01T13:56:17.001Z</time></trkpt><trkpt lat="45.768116829914995" lon="10.811752025771202"><ele>87.66666666666667</ele><time>2026-05-01T13:56:19.001Z</time></trkpt><trkpt lat="45.7680345547635" lon="10.811730561356889"><ele>86.33333333333334</ele><time>2026-05-01T13:56:21.001Z</time></trkpt><trkpt lat="45.7679417624223" lon="10.81169060039813"><ele>85.0</ele><time>2026-05-01T13:56:23.001Z</time></trkpt><trkpt lat="45.76787541504338" lon="10.81165244898661"><ele>83.66666666666667</ele><time>2026-05-01T13:56:24.001Z</time></trkpt><trkpt lat="45.76780291436781" lon="10.811641314814416"><ele>82.33333333333333</ele><time>2026-05-01T13:56:25Z</time></trkpt><trkpt lat="45.76769640513711" lon="10.811626532265198"><ele>81.0</ele><time>2026-05-01T13:56:27Z</time></trkpt><trkpt lat="45.76760316504631" lon="10.81160361133871"><ele>81.0</ele><time>2026-05-01T13:56:29Z</time></trkpt><trkpt lat="45.767483431386026" lon="10.811557109401946"><ele>81.0</ele><time>2026-05-01T13:56:31Z</time></trkpt><trkpt lat="45.767362713060365" lon="10.811513174931173"><ele>81.0</ele><time>2026-05-01T13:56:33Z</time></trkpt><trkpt lat="45.76730038424172" lon="10.811500384662864"><ele>81.0</ele><time>2026-05-01T13:56:34Z</time></trkpt><trkpt lat="45.76723651786394" lon="10.811486055694832"><ele>81.0</ele><time>2026-05-01T13:56:35Z</time></trkpt><trkpt lat="45.767172884972574" lon="10.811456836232953"><ele>81.0</ele><time>2026-05-01T13:56:36Z</time></trkpt><trkpt lat="45.767104353552604" lon="10.81144494834623"><ele>81.0</ele><time>2026-05-01T13:56:37Z</time></trkpt><trkpt lat="45.76703996922714" lon="10.811416730642462"><ele>81.0</ele><time>2026-05-01T13:56:38Z</time></trkpt><trkpt lat="45.76697195932246" lon="10.811399878534122"><ele>81.0</ele><time>2026-05-01T13:56:39Z</time></trkpt><trkpt lat="45.76689923863749" lon="10.811382109632687"><ele>81.0</ele><time>2026-05-01T13:56:40Z</time></trkpt><trkpt lat="45.766836956757466" lon="10.811354696126312"><ele>81.0</ele><time>2026-05-01T13:56:41Z</time></trkpt><trkpt lat="45.76676510082462" lon="10.811338309055612"><ele>81.0</ele><time>2026-05-01T13:56:42Z</time></trkpt><trkpt lat="45.76669614257537" lon="10.811319189431421"><ele>81.0</ele><time>2026-05-01T13:56:43Z</time></trkpt><trkpt lat="45.76658423524807" lon="10.81128678806827"><ele>81.4</ele><time>2026-05-01T13:56:45Z</time></trkpt><trkpt lat="45.766473978571156" lon="10.811256392157503"><ele>81.8</ele><time>2026-05-01T13:56:47Z</time></trkpt><trkpt lat="45.76636905327608" lon="10.811202229756411"><ele>82.2</ele><time>2026-05-01T13:56:49Z</time></trkpt><trkpt lat="45.766256221613496" lon="10.811168129240363"><ele>82.60000000000001</ele><time>2026-05-01T13:56:51Z</time></trkpt><trkpt lat="45.76619399161453" lon="10.811149171384175"><ele>83.0</ele><time>2026-05-01T13:56:52Z</time></trkpt><trkpt lat="45.76608684924527" lon="10.811114411506836"><ele>83.0</ele><time>2026-05-01T13:56:54Z</time></trkpt><trkpt lat="45.76600998951224" lon="10.811088249334908"><ele>83.0</ele><time>2026-05-01T13:56:56Z</time></trkpt><trkpt lat="45.76593792419525" lon="10.81106226076315"><ele>83.0</ele><time>2026-05-01T13:57:06Z</time></trkpt><trkpt lat="45.76587679099837" lon="10.81104000061295"><ele>83.0</ele><time>2026-05-01T13:57:10Z</time></trkpt><trkpt lat="45.765784815639975" lon="10.81100418456329"><ele>83.0</ele><time>2026-05-01T13:57:15Z</time></trkpt><trkpt lat="45.76568311657487" lon="10.81096458194621"><ele>83.0</ele><time>2026-05-01T13:57:17Z</time></trkpt><trkpt lat="45.76559774486235" lon="10.810931336575806"><ele>83.0</ele><time>2026-05-01T13:57:19Z</time></trkpt><trkpt lat="45.765522046620106" lon="10.810927342183302"><ele>83.0</ele><time>2026-05-01T13:57:21Z</time></trkpt><trkpt lat="45.765453887734196" lon="10.81090225645892"><ele>83.0</ele><time>2026-05-01T13:57:23Z</time></trkpt><trkpt lat="45.76538923708367" lon="10.810865016680392"><ele>83.0</ele><time>2026-05-01T13:57:26Z</time></trkpt><trkpt lat="45.76533003509291" lon="10.810809677859444"><ele>83.0</ele><time>2026-05-01T13:57:28Z</time></trkpt><trkpt lat="45.76523634921624" lon="10.810763572216993"><ele>83.0</ele><time>2026-05-01T13:57:31Z</time></trkpt><trkpt lat="45.7651539590023" lon="10.810756121983616"><ele>83.83333333333334</ele><time>2026-05-01T13:57:33Z</time></trkpt><trkpt lat="45.76507474756183" lon="10.810714735575012"><ele>84.66666666666667</ele><time>2026-05-01T13:57:35Z</time></trkpt><trkpt lat="45.76501551933791" lon="10.810633346175054"><ele>85.5</ele><time>2026-05-01T13:57:37Z</time></trkpt><trkpt lat="45.76494231909807" lon="10.810588039633641"><ele>86.33333333333333</ele><time>2026-05-01T13:57:39Z</time></trkpt><trkpt lat="45.764846370813515" lon="10.810527005706598"><ele>87.16666666666666</ele><time>2026-05-01T13:57:41Z</time></trkpt><trkpt lat="45.76478612900198" lon="10.810487846342314"><ele>88.0</ele><time>2026-05-01T13:57:43Z</time></trkpt><trkpt lat="45.76471207473372" lon="10.810439640211792"><ele>88.0</ele><time>2026-05-01T13:57:45Z</time></trkpt><trkpt lat="45.76461448856264" lon="10.810376115549976"><ele>88.0</ele><time>2026-05-01T13:57:47Z</time></trkpt><trkpt lat="45.76453440939337" lon="10.810323986062887"><ele>88.0</ele><time>2026-05-01T13:57:49Z</time></trkpt><trkpt lat="45.764467265288296" lon="10.810276533118364"><ele>88.0</ele><time>2026-05-01T13:57:53Z</time></trkpt><trkpt lat="45.76438644191435" lon="10.810218411929185"><ele>88.0</ele><time>2026-05-01T13:57:56Z</time></trkpt><trkpt lat="45.76432727621326" lon="10.81017367533894"><ele>88.0</ele><time>2026-05-01T13:57:58Z</time></trkpt><trkpt lat="45.764264627659806" lon="10.810126111879097"><ele>87.80000000000001</ele><time>2026-05-01T13:58:01Z</time></trkpt><trkpt lat="45.764194362466206" lon="10.810060065749708"><ele>87.6</ele><time>2026-05-01T13:58:03Z</time></trkpt><trkpt lat="45.764137015625245" lon="10.80992115515606"><ele>87.4</ele><time>2026-05-01T13:58:05.001Z</time></trkpt><trkpt lat="45.76406895930072" lon="10.809930091204647"><ele>87.19999999999999</ele><time>2026-05-01T13:58:06.001Z</time></trkpt><trkpt lat="45.76395986390456" lon="10.809943820532403"><ele>87.0</ele><time>2026-05-01T13:58:08.001Z</time></trkpt><trkpt lat="45.7638572739111" lon="10.80992136375827"><ele>87.0</ele><time>2026-05-01T13:58:10.001Z</time></trkpt><trkpt lat="45.76377432249725" lon="10.809876098539938"><ele>87.0</ele><time>2026-05-01T13:58:12.001Z</time></trkpt><trkpt lat="45.76372030931151" lon="10.809796980812859"><ele>87.0</ele><time>2026-05-01T13:58:16.001Z</time></trkpt><trkpt lat="45.76363592858604" lon="10.809744255763906"><ele>87.0</ele><time>2026-05-01T13:58:18.001Z</time></trkpt><trkpt lat="45.763516370422515" lon="10.809676315382255"><ele>87.0</ele><time>2026-05-01T13:58:20.001Z</time></trkpt><trkpt lat="45.76345165060114" lon="10.809648889445473"><ele>87.66666666666667</ele><time>2026-05-01T13:58:21.001Z</time></trkpt><trkpt lat="45.76338528632474" lon="10.809615728235123"><ele>88.33333333333333</ele><time>2026-05-01T13:58:22.001Z</time></trkpt><trkpt lat="45.763320903277815" lon="10.809572993219627"><ele>89.0</ele><time>2026-05-01T13:58:23.001Z</time></trkpt><trkpt lat="45.76324717605229" lon="10.809526130434328"><ele>89.66666666666666</ele><time>2026-05-01T13:58:24.001Z</time></trkpt><trkpt lat="45.76317666604907" lon="10.809480453763403"><ele>90.33333333333333</ele><time>2026-05-01T13:58:25.001Z</time></trkpt><trkpt lat="45.76309621814797" lon="10.809434948417826"><ele>91.0</ele><time>2026-05-01T13:58:26.001Z</time></trkpt><trkpt lat="45.76302633548586" lon="10.809402121028327"><ele>91.0</ele><time>2026-05-01T13:58:27.001Z</time></trkpt><trkpt lat="45.76295070671871" lon="10.809361002501273"><ele>91.0</ele><time>2026-05-01T13:58:28.001Z</time></trkpt><trkpt lat="45.76287044514802" lon="10.809326179246826"><ele>91.0</ele><time>2026-05-01T13:58:29.001Z</time></trkpt><trkpt lat="45.76278692920439" lon="10.809293325774679"><ele>91.0</ele><time>2026-05-01T13:58:30.001Z</time></trkpt><trkpt lat="45.76268810742281" lon="10.809259088327387"><ele>91.0</ele><time>2026-05-01T13:58:31Z</time></trkpt><trkpt lat="45.762583886737815" lon="10.809224441413253"><ele>91.75</ele><time>2026-05-01T13:58:32Z</time></trkpt><trkpt lat="45.7624758405317" lon="10.80918440162122"><ele>92.5</ele><time>2026-05-01T13:58:33Z</time></trkpt><trkpt lat="45.762367796522604" lon="10.809120817451591"><ele>93.25</ele><time>2026-05-01T13:58:34Z</time></trkpt><trkpt lat="45.76223572214136" lon="10.809074986566971"><ele>94.0</ele><time>2026-05-01T13:58:35Z</time></trkpt><trkpt lat="45.762073080813884" lon="10.809018548619779"><ele>94.0</ele><time>2026-05-01T13:58:36Z</time></trkpt><trkpt lat="45.76192612274425" lon="10.808967553093837"><ele>94.0</ele><time>2026-05-01T13:58:37Z</time></trkpt><trkpt lat="45.76178437805243" lon="10.808934765240053"><ele>94.0</ele><time>2026-05-01T13:58:38Z</time></trkpt><trkpt lat="45.76165628850208" lon="10.80888099372732"><ele>94.0</ele><time>2026-05-01T13:58:39Z</time></trkpt><trkpt lat="45.76151470817686" lon="10.808840562858846"><ele>94.33333333333333</ele><time>2026-05-01T13:58:40Z</time></trkpt><trkpt lat="45.7613653214793" lon="10.80878986277057"><ele>94.66666666666667</ele><time>2026-05-01T13:58:41Z</time></trkpt><trkpt lat="45.76121865217398" lon="10.808725396704215"><ele>95.0</ele><time>2026-05-01T13:58:42Z</time></trkpt><trkpt lat="45.76107162603025" lon="10.808652474471652"><ele>96.0</ele><time>2026-05-01T13:58:43Z</time></trkpt><trkpt lat="45.7609270576102" lon="10.808579384094692"><ele>97.0</ele><time>2026-05-01T13:58:44Z</time></trkpt><trkpt lat="45.76078616402437" lon="10.808502901765197"><ele>98.0</ele><time>2026-05-01T13:58:45Z</time></trkpt><trkpt lat="45.76063746635248" lon="10.808435162330003"><ele>95.33333333333333</ele><time>2026-05-01T13:58:46Z</time></trkpt><trkpt lat="45.76048221030961" lon="10.80838198903867"><ele>92.66666666666666</ele><time>2026-05-01T13:58:47Z</time></trkpt><trkpt lat="45.76031812595715" lon="10.808347220363856"><ele>90.0</ele><time>2026-05-01T13:58:48Z</time></trkpt><trkpt lat="45.760155745397654" lon="10.80832722166479"><ele>88.66666666666667</ele><time>2026-05-01T13:58:49Z</time></trkpt><trkpt lat="45.76000302582571" lon="10.808303291203604"><ele>87.33333333333334</ele><time>2026-05-01T13:58:50Z</time></trkpt><trkpt lat="45.75985444579953" lon="10.808280395773686"><ele>86.0</ele><time>2026-05-01T13:58:51Z</time></trkpt><trkpt lat="45.75969900549814" lon="10.808262683874766"><ele>86.0</ele><time>2026-05-01T13:58:52Z</time></trkpt><trkpt lat="45.75954464232455" lon="10.8082340779581"><ele>86.0</ele><time>2026-05-01T13:58:53Z</time></trkpt><trkpt lat="45.75939393239855" lon="10.808221012732274"><ele>86.0</ele><time>2026-05-01T13:58:54Z</time></trkpt><trkpt lat="45.75924713849138" lon="10.808204628540652"><ele>86.25</ele><time>2026-05-01T13:58:55Z</time></trkpt><trkpt lat="45.75910825009512" lon="10.80817566701583"><ele>86.5</ele><time>2026-05-01T13:58:56Z</time></trkpt><trkpt lat="45.75898039997248" lon="10.808161402787528"><ele>86.75</ele><time>2026-05-01T13:58:57Z</time></trkpt><trkpt lat="45.75885531248573" lon="10.808146008839902"><ele>87.0</ele><time>2026-05-01T13:58:58Z</time></trkpt><trkpt lat="45.75873362843779" lon="10.808127527866702"><ele>87.0</ele><time>2026-05-01T13:58:59Z</time></trkpt><trkpt lat="45.758608627535686" lon="10.80811152944057"><ele>87.0</ele><time>2026-05-01T13:59:00Z</time></trkpt><trkpt lat="45.75848926257953" lon="10.808086586762"><ele>87.0</ele><time>2026-05-01T13:59:01Z</time></trkpt><trkpt lat="45.758366783162835" lon="10.808046015851163"><ele>87.0</ele><time>2026-05-01T13:59:02Z</time></trkpt><trkpt lat="45.758243404463094" lon="10.807996564486333"><ele>87.75</ele><time>2026-05-01T13:59:03Z</time></trkpt><trkpt lat="45.75812387641553" lon="10.807944118637705"><ele>88.5</ele><time>2026-05-01T13:59:04Z</time></trkpt><trkpt lat="45.758001686889905" lon="10.807884625850397"><ele>89.25</ele><time>2026-05-01T13:59:05Z</time></trkpt><trkpt lat="45.75788653091926" lon="10.807816929550237"><ele>90.0</ele><time>2026-05-01T13:59:06Z</time></trkpt><trkpt lat="45.757780541129065" lon="10.807731746209752"><ele>87.75</ele><time>2026-05-01T13:59:07Z</time></trkpt><trkpt lat="45.7576725741508" lon="10.807658840466924"><ele>85.5</ele><time>2026-05-01T13:59:08Z</time></trkpt><trkpt lat="45.75756254306476" lon="10.807577434472147"><ele>83.25</ele><time>2026-05-01T13:59:09Z</time></trkpt><trkpt lat="45.757444115853545" lon="10.80747815885605"><ele>81.0</ele><time>2026-05-01T13:59:10Z</time></trkpt><trkpt lat="45.75734259451402" lon="10.807337541996462"><ele>81.0</ele><time>2026-05-01T13:59:11Z</time></trkpt><trkpt lat="45.75721566902171" lon="10.807193679092768"><ele>81.0</ele><time>2026-05-01T13:59:12Z</time></trkpt><trkpt lat="45.75710398317424" lon="10.807019430633682"><ele>81.0</ele><time>2026-05-01T13:59:13Z</time></trkpt><trkpt lat="45.75700003311586" lon="10.80683717407744"><ele>81.33333333333333</ele><time>2026-05-01T13:59:14Z</time></trkpt><trkpt lat="45.756887065855395" lon="10.8066568613216"><ele>81.66666666666666</ele><time>2026-05-01T13:59:15Z</time></trkpt><trkpt lat="45.756772102934825" lon="10.806477034290662"><ele>82.0</ele><time>2026-05-01T13:59:16Z</time></trkpt><trkpt lat="45.756651530155914" lon="10.806308449783653"><ele>82.0</ele><time>2026-05-01T13:59:17Z</time></trkpt><trkpt lat="45.756532316921636" lon="10.806156548762974"><ele>82.0</ele><time>2026-05-01T13:59:18Z</time></trkpt><trkpt lat="45.75640174606233" lon="10.806029273395694"><ele>82.0</ele><time>2026-05-01T13:59:19Z</time></trkpt><trkpt lat="45.75628619967155" lon="10.805895093054794"><ele>83.0</ele><time>2026-05-01T13:59:20Z</time></trkpt><trkpt lat="45.75616648730418" lon="10.80577804311546"><ele>84.0</ele><time>2026-05-01T13:59:21Z</time></trkpt><trkpt lat="45.75604963695622" lon="10.805653775745641"><ele>85.0</ele><time>2026-05-01T13:59:22Z</time></trkpt><trkpt lat="45.75593066765025" lon="10.805537999696261"><ele>86.0</ele><time>2026-05-01T13:59:23Z</time></trkpt><trkpt lat="45.75581681450132" lon="10.80542677216919"><ele>86.0</ele><time>2026-05-01T13:59:24Z</time></trkpt><trkpt lat="45.75570908048184" lon="10.805290473097624"><ele>86.0</ele><time>2026-05-01T13:59:25Z</time></trkpt><trkpt lat="45.75559390815108" lon="10.805169527526552"><ele>86.0</ele><time>2026-05-01T13:59:26Z</time></trkpt><trkpt lat="45.75547261533292" lon="10.805049141944755"><ele>86.0</ele><time>2026-05-01T13:59:27Z</time></trkpt><trkpt lat="45.7553434607049" lon="10.804926158867223"><ele>86.0</ele><time>2026-05-01T13:59:28Z</time></trkpt><trkpt lat="45.75520429787401" lon="10.804797165485068"><ele>86.0</ele><time>2026-05-01T13:59:29Z</time></trkpt><trkpt lat="45.755068753395754" lon="10.804676706172565"><ele>86.0</ele><time>2026-05-01T13:59:30Z</time></trkpt><trkpt lat="45.75493290094282" lon="10.804563287725669"><ele>86.0</ele><time>2026-05-01T13:59:31Z</time></trkpt><trkpt lat="45.75480073726265" lon="10.804470213167306"><ele>86.0</ele><time>2026-05-01T13:59:32Z</time></trkpt><trkpt lat="45.75467118630114" lon="10.804373227440475"><ele>86.0</ele><time>2026-05-01T13:59:33Z</time></trkpt><trkpt lat="45.75455509713173" lon="10.804267085550066"><ele>86.0</ele><time>2026-05-01T13:59:34Z</time></trkpt><trkpt lat="45.754457831185974" lon="10.804150123725261"><ele>86.0</ele><time>2026-05-01T13:59:35Z</time></trkpt><trkpt lat="45.75437604657746" lon="10.804026288111507"><ele>86.0</ele><time>2026-05-01T13:59:36Z</time></trkpt><trkpt lat="45.75430900485049" lon="10.803899727857997"><ele>86.0</ele><time>2026-05-01T13:59:37Z</time></trkpt><trkpt lat="45.7542678818632" lon="10.803775402891805"><ele>86.0</ele><time>2026-05-01T13:59:38Z</time></trkpt><trkpt lat="45.754227170919016" lon="10.803649917647233"><ele>86.0</ele><time>2026-05-01T13:59:39Z</time></trkpt><trkpt lat="45.754193528156144" lon="10.803540961107261"><ele>85.5</ele><time>2026-05-01T13:59:40Z</time></trkpt><trkpt lat="45.75416978322717" lon="10.80343266162271"><ele>85.0</ele><time>2026-05-01T13:59:41Z</time></trkpt><trkpt lat="45.754151842675775" lon="10.80331922099193"><ele>84.5</ele><time>2026-05-01T13:59:42Z</time></trkpt><trkpt lat="45.754136933046816" lon="10.803191736329651"><ele>84.0</ele><time>2026-05-01T13:59:43Z</time></trkpt><trkpt lat="45.754121848919056" lon="10.80307685526816"><ele>83.5</ele><time>2026-05-01T13:59:44Z</time></trkpt><trkpt lat="45.75410301081998" lon="10.802914210699894"><ele>83.0</ele><time>2026-05-01T13:59:46Z</time></trkpt><trkpt lat="45.75408626019714" lon="10.802790009111627"><ele>83.0</ele><time>2026-05-01T13:59:48Z</time></trkpt><trkpt lat="45.75406987364403" lon="10.802675366590329"><ele>83.0</ele><time>2026-05-01T13:59:50Z</time></trkpt><trkpt lat="45.75404633722061" lon="10.802506885546082"><ele>83.0</ele><time>2026-05-01T13:59:52Z</time></trkpt><trkpt lat="45.754034328034656" lon="10.802407665578114"><ele>83.0</ele><time>2026-05-01T13:59:53Z</time></trkpt><trkpt lat="45.75402048235054" lon="10.802308459082825"><ele>83.0</ele><time>2026-05-01T13:59:54Z</time></trkpt><trkpt lat="45.75400297860076" lon="10.802199011406312"><ele>83.0</ele><time>2026-05-01T13:59:55Z</time></trkpt><trkpt lat="45.75398803599377" lon="10.802082233388663"><ele>83.0</ele><time>2026-05-01T13:59:56Z</time></trkpt><trkpt lat="45.753977181169546" lon="10.801982962087063"><ele>83.0</ele><time>2026-05-01T13:59:57Z</time></trkpt><trkpt lat="45.75396861208914" lon="10.801892231854668"><ele>83.0</ele><time>2026-05-01T13:59:58Z</time></trkpt><trkpt lat="45.75397877911021" lon="10.801778097842021"><ele>83.0</ele><time>2026-05-01T13:59:59Z</time></trkpt><trkpt lat="45.753955820574475" lon="10.80162133109842"><ele>83.0</ele><time>2026-05-01T14:00:00Z</time></trkpt><trkpt lat="45.75397507039233" lon="10.801441567757903"><ele>83.33333333333334</ele><time>2026-05-01T14:00:01Z</time></trkpt><trkpt lat="45.75401267841691" lon="10.801222723416782"><ele>83.66666666666667</ele><time>2026-05-01T14:00:02Z</time></trkpt><trkpt lat="45.75406425003094" lon="10.800976137946044"><ele>84.0</ele><time>2026-05-01T14:00:03Z</time></trkpt><trkpt lat="45.754142194957566" lon="10.800713571813926"><ele>83.66666666666667</ele><time>2026-05-01T14:00:04Z</time></trkpt><trkpt lat="45.75417900533227" lon="10.800498758379147"><ele>83.33333333333334</ele><time>2026-05-01T14:00:05Z</time></trkpt><trkpt lat="45.754183740798965" lon="10.800277381958331"><ele>83.0</ele><time>2026-05-01T14:00:06Z</time></trkpt><trkpt lat="45.75416045518321" lon="10.800050220879413"><ele>83.0</ele><time>2026-05-01T14:00:07Z</time></trkpt><trkpt lat="45.7540794614016" lon="10.79979953628036"><ele>83.0</ele><time>2026-05-01T14:00:08Z</time></trkpt><trkpt lat="45.75392476455013" lon="10.7995757710076"><ele>83.0</ele><time>2026-05-01T14:00:09Z</time></trkpt><trkpt lat="45.75378488547157" lon="10.799351131920519"><ele>78.66666666666667</ele><time>2026-05-01T14:00:10Z</time></trkpt><trkpt lat="45.75366209223556" lon="10.79915066295162"><ele>74.33333333333333</ele><time>2026-05-01T14:00:11Z</time></trkpt><trkpt lat="45.75355126970367" lon="10.79898820224308"><ele>70.0</ele><time>2026-05-01T14:00:12Z</time></trkpt><trkpt lat="45.75342885301236" lon="10.79884929963839"><ele>79.0</ele><time>2026-05-01T14:00:13Z</time></trkpt><trkpt lat="45.753285967637204" lon="10.798747727349"><ele>88.0</ele><time>2026-05-01T14:00:14Z</time></trkpt><trkpt lat="45.75313690379668" lon="10.798671698912129"><ele>97.0</ele><time>2026-05-01T14:00:15Z</time></trkpt><trkpt lat="45.75298620635675" lon="10.798657163856205"><ele>97.0</ele><time>2026-05-01T14:00:16Z</time></trkpt><trkpt lat="45.75281519651255" lon="10.7986473482143"><ele>97.0</ele><time>2026-05-01T14:00:17Z</time></trkpt><trkpt lat="45.75265165431332" lon="10.79865604157624"><ele>97.0</ele><time>2026-05-01T14:00:18Z</time></trkpt><trkpt lat="45.75249529147984" lon="10.798653127889283"><ele>97.0</ele><time>2026-05-01T14:00:19Z</time></trkpt><trkpt lat="45.7523421689087" lon="10.798641221671064"><ele>97.0</ele><time>2026-05-01T14:00:20Z</time></trkpt><trkpt lat="45.752183085980136" lon="10.79864298470978"><ele>97.0</ele><time>2026-05-01T14:00:21Z</time></trkpt><trkpt lat="45.7520337051776" lon="10.798637839103314"><ele>97.0</ele><time>2026-05-01T14:00:22Z</time></trkpt><trkpt lat="45.75189349095276" lon="10.798635909299964"><ele>97.0</ele><time>2026-05-01T14:00:23Z</time></trkpt><trkpt lat="45.75175023585621" lon="10.798630109305483"><ele>97.0</ele><time>2026-05-01T14:00:24Z</time></trkpt><trkpt lat="45.75161327471436" lon="10.798619281178855"><ele>97.0</ele><time>2026-05-01T14:00:25Z</time></trkpt><trkpt lat="45.751485467874474" lon="10.798605472863263"><ele>95.8</ele><time>2026-05-01T14:00:26Z</time></trkpt><trkpt lat="45.75136074450495" lon="10.798586212850495"><ele>94.6</ele><time>2026-05-01T14:00:27Z</time></trkpt><trkpt lat="45.75124842750756" lon="10.798569404802198"><ele>93.39999999999999</ele><time>2026-05-01T14:00:28Z</time></trkpt><trkpt lat="45.75114176677089" lon="10.798559607560273"><ele>92.19999999999999</ele><time>2026-05-01T14:00:29Z</time></trkpt><trkpt lat="45.7510542258997" lon="10.79854314432201"><ele>91.0</ele><time>2026-05-01T14:00:30Z</time></trkpt><trkpt lat="45.75098108341418" lon="10.798530190486074"><ele>90.19999999999999</ele><time>2026-05-01T14:00:31Z</time></trkpt><trkpt lat="45.750890497567404" lon="10.79847372363585"><ele>89.39999999999999</ele><time>2026-05-01T14:00:33Z</time></trkpt><trkpt lat="45.750802415952684" lon="10.798416350777227"><ele>88.6</ele><time>2026-05-01T14:00:36Z</time></trkpt><trkpt lat="45.75068023568675" lon="10.798406693891204"><ele>87.8</ele><time>2026-05-01T14:00:39Z</time></trkpt><trkpt lat="45.75060962169181" lon="10.798391757253354"><ele>87.0</ele><time>2026-05-01T14:00:40Z</time></trkpt><trkpt lat="45.7505423317251" lon="10.798404312585577"><ele>87.0</ele><time>2026-05-01T14:00:41Z</time></trkpt><trkpt lat="45.75046213352455" lon="10.798439958806338"><ele>87.0</ele><time>2026-05-01T14:00:42Z</time></trkpt><trkpt lat="45.75037870646582" lon="10.798469684589394"><ele>87.0</ele><time>2026-05-01T14:00:43Z</time></trkpt><trkpt lat="45.75029009288402" lon="10.79848728521858"><ele>87.0</ele><time>2026-05-01T14:00:44Z</time></trkpt><trkpt lat="45.750187096912" lon="10.798473130507999"><ele>87.0</ele><time>2026-05-01T14:00:45Z</time></trkpt><trkpt lat="45.7500867935403" lon="10.798500683917995"><ele>86.6</ele><time>2026-05-01T14:00:46Z</time></trkpt><trkpt lat="45.74998572241203" lon="10.7985574943381"><ele>86.19999999999999</ele><time>2026-05-01T14:00:47Z</time></trkpt><trkpt lat="45.74987809454034" lon="10.798599304516252"><ele>85.8</ele><time>2026-05-01T14:00:48Z</time></trkpt><trkpt lat="45.74977487622796" lon="10.798629115513506"><ele>85.4</ele><time>2026-05-01T14:00:49Z</time></trkpt><trkpt lat="45.74966979316413" lon="10.798684032484783"><ele>85.0</ele><time>2026-05-01T14:00:50Z</time></trkpt><trkpt lat="45.74957408058711" lon="10.798770013436512"><ele>85.0</ele><time>2026-05-01T14:00:51Z</time></trkpt><trkpt lat="45.74946930906882" lon="10.798842620997613"><ele>85.0</ele><time>2026-05-01T14:00:52Z</time></trkpt><trkpt lat="45.749358337802285" lon="10.798891440472472"><ele>85.0</ele><time>2026-05-01T14:00:53Z</time></trkpt><trkpt lat="45.74924842463798" lon="10.79896338792336"><ele>85.0</ele><time>2026-05-01T14:00:54Z</time></trkpt><trkpt lat="45.74913504372565" lon="10.799037605261468"><ele>84.75</ele><time>2026-05-01T14:00:55Z</time></trkpt><trkpt lat="45.74902426355231" lon="10.799110304986904"><ele>84.5</ele><time>2026-05-01T14:00:56Z</time></trkpt><trkpt lat="45.74891399360561" lon="10.799206409274253"><ele>84.25</ele><time>2026-05-01T14:00:57Z</time></trkpt><trkpt lat="45.7487915896577" lon="10.799263259280908"><ele>84.0</ele><time>2026-05-01T14:00:58Z</time></trkpt><trkpt lat="45.74867344792515" lon="10.799340922871188"><ele>84.0</ele><time>2026-05-01T14:00:59Z</time></trkpt><trkpt lat="45.74855494906189" lon="10.799418821199824"><ele>84.0</ele><time>2026-05-01T14:01:00Z</time></trkpt><trkpt lat="45.7484240473396" lon="10.799502057133726"><ele>84.0</ele><time>2026-05-01T14:01:01Z</time></trkpt><trkpt lat="45.748297923390524" lon="10.799598258975358"><ele>84.0</ele><time>2026-05-01T14:01:02Z</time></trkpt><trkpt lat="45.74816373578273" lon="10.799685813423553"><ele>83.33333333333333</ele><time>2026-05-01T14:01:03Z</time></trkpt><trkpt lat="45.74801465245107" lon="10.799782525202222"><ele>82.66666666666666</ele><time>2026-05-01T14:01:04Z</time></trkpt><trkpt lat="45.74786421338236" lon="10.799867917229589"><ele>82.0</ele><time>2026-05-01T14:01:05Z</time></trkpt><trkpt lat="45.74771434661807" lon="10.79994260822911"><ele>80.0</ele><time>2026-05-01T14:01:06Z</time></trkpt><trkpt lat="45.74756313224124" lon="10.800016593617874"><ele>78.0</ele><time>2026-05-01T14:01:07Z</time></trkpt><trkpt lat="45.74741126116049" lon="10.800082002246087"><ele>76.0</ele><time>2026-05-01T14:01:08Z</time></trkpt><trkpt lat="45.74726606989224" lon="10.800146835359135"><ele>79.66666666666666</ele><time>2026-05-01T14:01:09Z</time></trkpt><trkpt lat="45.74711839754831" lon="10.800208268792398"><ele>83.33333333333333</ele><time>2026-05-01T14:01:10Z</time></trkpt><trkpt lat="45.74697185528583" lon="10.800269398313311"><ele>87.0</ele><time>2026-05-01T14:01:11Z</time></trkpt><trkpt lat="45.74682536804253" lon="10.800323903848579"><ele>87.0</ele><time>2026-05-01T14:01:12Z</time></trkpt><trkpt lat="45.74667040587715" lon="10.800360885107262"><ele>87.0</ele><time>2026-05-01T14:01:13Z</time></trkpt><trkpt lat="45.74650809948952" lon="10.800372108590341"><ele>87.0</ele><time>2026-05-01T14:01:14Z</time></trkpt><trkpt lat="45.746336279911105" lon="10.80034995174322"><ele>87.0</ele><time>2026-05-01T14:01:15Z</time></trkpt><trkpt lat="45.74616620179795" lon="10.800306292436185"><ele>87.0</ele><time>2026-05-01T14:01:16Z</time></trkpt><trkpt lat="45.74600309606828" lon="10.800236475054817"><ele>87.0</ele><time>2026-05-01T14:01:17Z</time></trkpt><trkpt lat="45.745848219760575" lon="10.800129441245334"><ele>83.33333333333333</ele><time>2026-05-01T14:01:18Z</time></trkpt><trkpt lat="45.7456990843924" lon="10.799996060068933"><ele>79.66666666666666</ele><time>2026-05-01T14:01:19Z</time></trkpt><trkpt lat="45.74554701770965" lon="10.79983319979848"><ele>76.0</ele><time>2026-05-01T14:01:20Z</time></trkpt><trkpt lat="45.74538092101056" lon="10.799635976350302"><ele>76.0</ele><time>2026-05-01T14:01:21Z</time></trkpt><trkpt lat="45.74522729103072" lon="10.799451881918005"><ele>76.0</ele><time>2026-05-01T14:01:22Z</time></trkpt><trkpt lat="45.7450662704676" lon="10.79927530354486"><ele>76.0</ele><time>2026-05-01T14:01:23Z</time></trkpt><trkpt lat="45.744911373256144" lon="10.799106348128015"><ele>76.0</ele><time>2026-05-01T14:01:24Z</time></trkpt><trkpt lat="45.74476220915798" lon="10.798933920917204"><ele>76.0</ele><time>2026-05-01T14:01:25Z</time></trkpt><trkpt lat="45.74461712260147" lon="10.798777925470748"><ele>76.0</ele><time>2026-05-01T14:01:26Z</time></trkpt><trkpt lat="45.74447979448266" lon="10.798615220732355"><ele>75.0</ele><time>2026-05-01T14:01:27Z</time></trkpt><trkpt lat="45.74433326223996" lon="10.798463358913468"><ele>74.0</ele><time>2026-05-01T14:01:28Z</time></trkpt><trkpt lat="45.744183143848936" lon="10.798334038789802"><ele>73.0</ele><time>2026-05-01T14:01:29Z</time></trkpt><trkpt lat="45.744017701817405" lon="10.79823460514838"><ele>73.0</ele><time>2026-05-01T14:01:30Z</time></trkpt><trkpt lat="45.74384310815473" lon="10.79814660748387"><ele>73.0</ele><time>2026-05-01T14:01:31Z</time></trkpt><trkpt lat="45.74366659662246" lon="10.798067372052373"><ele>73.0</ele><time>2026-05-01T14:01:32Z</time></trkpt><trkpt lat="45.743497019488196" lon="10.79799095128846"><ele>71.0</ele><time>2026-05-01T14:01:33Z</time></trkpt><trkpt lat="45.743325554735705" lon="10.797902822960577"><ele>69.0</ele><time>2026-05-01T14:01:34Z</time></trkpt><trkpt lat="45.743169142924295" lon="10.797779201375485"><ele>67.0</ele><time>2026-05-01T14:01:35Z</time></trkpt><trkpt lat="45.743012645787395" lon="10.797667264530569"><ele>67.0</ele><time>2026-05-01T14:01:36Z</time></trkpt><trkpt lat="45.74285333509746" lon="10.79755291258074"><ele>67.0</ele><time>2026-05-01T14:01:37Z</time></trkpt><trkpt lat="45.74269482555714" lon="10.79746275488657"><ele>67.0</ele><time>2026-05-01T14:01:38Z</time></trkpt><trkpt lat="45.74254129406944" lon="10.79734260327515"><ele>70.66666666666666</ele><time>2026-05-01T14:01:39Z</time></trkpt><trkpt lat="45.7423891436031" lon="10.797231068708626"><ele>74.33333333333333</ele><time>2026-05-01T14:01:40Z</time></trkpt><trkpt lat="45.74223204740384" lon="10.797122268564973"><ele>78.0</ele><time>2026-05-01T14:01:41Z</time></trkpt><trkpt lat="45.74207513268379" lon="10.797008533056108"><ele>78.0</ele><time>2026-05-01T14:01:42Z</time></trkpt><trkpt lat="45.7419200382101" lon="10.79688630855516"><ele>78.0</ele><time>2026-05-01T14:01:43Z</time></trkpt><trkpt lat="45.741758096551735" lon="10.796767699011024"><ele>78.0</ele><time>2026-05-01T14:01:44Z</time></trkpt><trkpt lat="45.74159436983115" lon="10.7966271825879"><ele>75.66666666666667</ele><time>2026-05-01T14:01:45Z</time></trkpt><trkpt lat="45.74143590822475" lon="10.796504927695532"><ele>73.33333333333334</ele><time>2026-05-01T14:01:46Z</time></trkpt><trkpt lat="45.741271975493724" lon="10.796374759764321"><ele>71.0</ele><time>2026-05-01T14:01:47Z</time></trkpt><trkpt lat="45.74111340685303" lon="10.79624659958756"><ele>70.33333333333334</ele><time>2026-05-01T14:01:48Z</time></trkpt><trkpt lat="45.74095552018444" lon="10.796118909630419"><ele>69.66666666666667</ele><time>2026-05-01T14:01:49Z</time></trkpt><trkpt lat="45.74079122533283" lon="10.795986846835119"><ele>69.0</ele><time>2026-05-01T14:01:50Z</time></trkpt><trkpt lat="45.74061773588334" lon="10.79588845305664"><ele>69.0</ele><time>2026-05-01T14:01:51Z</time></trkpt><trkpt lat="45.74044715700202" lon="10.795788721679791"><ele>69.0</ele><time>2026-05-01T14:01:52Z</time></trkpt><trkpt lat="45.740289003482374" lon="10.795734238960573"><ele>69.0</ele><time>2026-05-01T14:01:53Z</time></trkpt><trkpt lat="45.74013818409158" lon="10.795703518730457"><ele>71.5</ele><time>2026-05-01T14:01:54Z</time></trkpt><trkpt lat="45.739989531751824" lon="10.79567867761429"><ele>74.0</ele><time>2026-05-01T14:01:55Z</time></trkpt><trkpt lat="45.73985044952932" lon="10.79561881577962"><ele>76.5</ele><time>2026-05-01T14:01:56Z</time></trkpt><trkpt lat="45.73970703967273" lon="10.795569369281706"><ele>79.0</ele><time>2026-05-01T14:01:57Z</time></trkpt><trkpt lat="45.73955962391674" lon="10.795499648577513"><ele>79.0</ele><time>2026-05-01T14:01:58Z</time></trkpt><trkpt lat="45.739414430418506" lon="10.79540304518751"><ele>79.0</ele><time>2026-05-01T14:01:59Z</time></trkpt><trkpt lat="45.73928225064474" lon="10.795284593301778"><ele>79.0</ele><time>2026-05-01T14:02:00Z</time></trkpt><trkpt lat="45.739168866961506" lon="10.795145952135039"><ele>77.33333333333333</ele><time>2026-05-01T14:02:01Z</time></trkpt><trkpt lat="45.73906679523006" lon="10.794991439514602"><ele>75.66666666666667</ele><time>2026-05-01T14:02:02Z</time></trkpt><trkpt lat="45.73897701542459" lon="10.794822645197378"><ele>74.0</ele><time>2026-05-01T14:02:03Z</time></trkpt><trkpt lat="45.73888814362621" lon="10.794637046237984"><ele>74.0</ele><time>2026-05-01T14:02:04Z</time></trkpt><trkpt lat="45.73878774815574" lon="10.794450364435843"><ele>74.0</ele><time>2026-05-01T14:02:05Z</time></trkpt><trkpt lat="45.73869242884922" lon="10.794240718678775"><ele>74.0</ele><time>2026-05-01T14:02:06Z</time></trkpt><trkpt lat="45.73859775054725" lon="10.794036696612471"><ele>72.66666666666667</ele><time>2026-05-01T14:02:07Z</time></trkpt><trkpt lat="45.738503567940654" lon="10.793837943905947"><ele>71.33333333333333</ele><time>2026-05-01T14:02:08Z</time></trkpt><trkpt lat="45.73839912588554" lon="10.793645710254268"><ele>70.0</ele><time>2026-05-01T14:02:09Z</time></trkpt><trkpt lat="45.73826456794252" lon="10.793487048150674"><ele>70.0</ele><time>2026-05-01T14:02:10Z</time></trkpt><trkpt lat="45.73812267612432" lon="10.793346514861252"><ele>70.0</ele><time>2026-05-01T14:02:11Z</time></trkpt><trkpt lat="45.73798308333961" lon="10.79322152394401"><ele>70.0</ele><time>2026-05-01T14:02:12Z</time></trkpt><trkpt lat="45.737835550769724" lon="10.79312340494441"><ele>74.33333333333333</ele><time>2026-05-01T14:02:13Z</time></trkpt><trkpt lat="45.73768010798049" lon="10.793047507736805"><ele>78.66666666666667</ele><time>2026-05-01T14:02:14Z</time></trkpt><trkpt lat="45.73752295711206" lon="10.792998240708124"><ele>83.0</ele><time>2026-05-01T14:02:15Z</time></trkpt><trkpt lat="45.737366016755566" lon="10.792964830728362"><ele>83.0</ele><time>2026-05-01T14:02:16Z</time></trkpt><trkpt lat="45.73721556917943" lon="10.792914647312752"><ele>83.0</ele><time>2026-05-01T14:02:17Z</time></trkpt><trkpt lat="45.737073952179315" lon="10.792796728298962"><ele>83.0</ele><time>2026-05-01T14:02:18Z</time></trkpt><trkpt lat="45.73692871130578" lon="10.792699349405922"><ele>79.66666666666667</ele><time>2026-05-01T14:02:19Z</time></trkpt><trkpt lat="45.73679992381102" lon="10.792543005536857"><ele>76.33333333333333</ele><time>2026-05-01T14:02:20Z</time></trkpt><trkpt lat="45.73666069863737" lon="10.79241973409998"><ele>73.0</ele><time>2026-05-01T14:02:21Z</time></trkpt><trkpt lat="45.73654273646711" lon="10.792264991821034"><ele>73.0</ele><time>2026-05-01T14:02:22Z</time></trkpt><trkpt lat="45.73641894490475" lon="10.792131971283245"><ele>73.0</ele><time>2026-05-01T14:02:23Z</time></trkpt><trkpt lat="45.73629605596113" lon="10.792001510270667"><ele>73.0</ele><time>2026-05-01T14:02:24Z</time></trkpt><trkpt lat="45.73617166523066" lon="10.791869966983324"><ele>73.25</ele><time>2026-05-01T14:02:25Z</time></trkpt><trkpt lat="45.73603584741882" lon="10.791756913252598"><ele>73.5</ele><time>2026-05-01T14:02:26Z</time></trkpt><trkpt lat="45.73590900233088" lon="10.791641774946795"><ele>73.75</ele><time>2026-05-01T14:02:27Z</time></trkpt><trkpt lat="45.73578877113291" lon="10.791542180061558"><ele>74.0</ele><time>2026-05-01T14:02:28Z</time></trkpt><trkpt lat="45.735677380401874" lon="10.791442219388921"><ele>74.0</ele><time>2026-05-01T14:02:29Z</time></trkpt><trkpt lat="45.7355719168161" lon="10.79134848233988"><ele>74.0</ele><time>2026-05-01T14:02:30Z</time></trkpt><trkpt lat="45.735472269723196" lon="10.791260212199651"><ele>74.0</ele><time>2026-05-01T14:02:31Z</time></trkpt><trkpt lat="45.73538275670925" lon="10.791175681533398"><ele>74.0</ele><time>2026-05-01T14:02:32Z</time></trkpt><trkpt lat="45.7353002562273" lon="10.791103158763578"><ele>74.0</ele><time>2026-05-01T14:02:33Z</time></trkpt><trkpt lat="45.73521978091017" lon="10.791025866693818"><ele>74.0</ele><time>2026-05-01T14:02:34Z</time></trkpt><trkpt lat="45.73513979827383" lon="10.79095347338077"><ele>74.0</ele><time>2026-05-01T14:02:35Z</time></trkpt><trkpt lat="45.73505801294767" lon="10.790871623072412"><ele>74.0</ele><time>2026-05-01T14:02:36Z</time></trkpt><trkpt lat="45.73498081922666" lon="10.790784485701202"><ele>74.0</ele><time>2026-05-01T14:02:37Z</time></trkpt><trkpt lat="45.73491335668985" lon="10.790700364532414"><ele>74.0</ele><time>2026-05-01T14:02:38Z</time></trkpt><trkpt lat="45.73484110431047" lon="10.790607832665561"><ele>74.0</ele><time>2026-05-01T14:02:39Z</time></trkpt><trkpt lat="45.73477644395886" lon="10.790501993917067"><ele>74.0</ele><time>2026-05-01T14:02:40Z</time></trkpt><trkpt lat="45.73470681383422" lon="10.790403969607228"><ele>74.0</ele><time>2026-05-01T14:02:41Z</time></trkpt><trkpt lat="45.73463230436276" lon="10.790303932736455"><ele>74.0</ele><time>2026-05-01T14:02:42Z</time></trkpt><trkpt lat="45.7345609377702" lon="10.790194038110123"><ele>74.0</ele><time>2026-05-01T14:02:43Z</time></trkpt><trkpt lat="45.734493760771294" lon="10.790092623893367"><ele>74.2</ele><time>2026-05-01T14:02:44Z</time></trkpt><trkpt lat="45.73443202001663" lon="10.789990637188538"><ele>74.4</ele><time>2026-05-01T14:02:45Z</time></trkpt><trkpt lat="45.73437004582212" lon="10.789889195326094"><ele>74.6</ele><time>2026-05-01T14:02:46Z</time></trkpt><trkpt lat="45.73430481300435" lon="10.789771831800818"><ele>74.8</ele><time>2026-05-01T14:02:47Z</time></trkpt><trkpt lat="45.734236800384345" lon="10.78966049127983"><ele>75.0</ele><time>2026-05-01T14:02:48Z</time></trkpt><trkpt lat="45.73417203303923" lon="10.789559969259123"><ele>75.0</ele><time>2026-05-01T14:02:49Z</time></trkpt><trkpt lat="45.73410496988615" lon="10.789448407907553"><ele>75.0</ele><time>2026-05-01T14:02:50Z</time></trkpt><trkpt lat="45.73403594547749" lon="10.789342895504765"><ele>75.0</ele><time>2026-05-01T14:02:51Z</time></trkpt><trkpt lat="45.733965619603985" lon="10.789217015665416"><ele>75.0</ele><time>2026-05-01T14:02:52Z</time></trkpt><trkpt lat="45.73390762162475" lon="10.789082929874425"><ele>75.0</ele><time>2026-05-01T14:02:53Z</time></trkpt><trkpt lat="45.73384129417705" lon="10.788937321492607"><ele>74.5</ele><time>2026-05-01T14:02:54Z</time></trkpt><trkpt lat="45.73377288089119" lon="10.788804225320764"><ele>74.0</ele><time>2026-05-01T14:02:55Z</time></trkpt><trkpt lat="45.733701591275164" lon="10.788660128710685"><ele>73.5</ele><time>2026-05-01T14:02:56Z</time></trkpt><trkpt lat="45.73362256546035" lon="10.788510592254521"><ele>73.0</ele><time>2026-05-01T14:02:57Z</time></trkpt><trkpt lat="45.73353665135602" lon="10.788366065874142"><ele>73.0</ele><time>2026-05-01T14:02:58Z</time></trkpt><trkpt lat="45.733444302549096" lon="10.788229538874548"><ele>73.0</ele><time>2026-05-01T14:02:59Z</time></trkpt><trkpt lat="45.733349738772525" lon="10.788112360333388"><ele>73.0</ele><time>2026-05-01T14:03:00Z</time></trkpt><trkpt lat="45.733249983667676" lon="10.788003078492938"><ele>73.0</ele><time>2026-05-01T14:03:01Z</time></trkpt><trkpt lat="45.733147341207136" lon="10.787904993965151"><ele>73.0</ele><time>2026-05-01T14:03:02Z</time></trkpt><trkpt lat="45.73304538054074" lon="10.787819312951498"><ele>73.0</ele><time>2026-05-01T14:03:03Z</time></trkpt><trkpt lat="45.73294988875377" lon="10.787741917843956"><ele>73.0</ele><time>2026-05-01T14:03:04Z</time></trkpt><trkpt lat="45.732850522707444" lon="10.787680735997514"><ele>73.0</ele><time>2026-05-01T14:03:05Z</time></trkpt><trkpt lat="45.73275262164817" lon="10.7876239445086"><ele>73.0</ele><time>2026-05-01T14:03:06Z</time></trkpt><trkpt lat="45.73265832927406" lon="10.78753585950888"><ele>73.0</ele><time>2026-05-01T14:03:07Z</time></trkpt><trkpt lat="45.732555250219555" lon="10.787487536306577"><ele>73.0</ele><time>2026-05-01T14:03:08Z</time></trkpt><trkpt lat="45.73245220437583" lon="10.787435018566077"><ele>73.0</ele><time>2026-05-01T14:03:09Z</time></trkpt><trkpt lat="45.7323498892642" lon="10.787377021171459"><ele>73.0</ele><time>2026-05-01T14:03:10Z</time></trkpt><trkpt lat="45.73223987490478" lon="10.787311962867602"><ele>73.0</ele><time>2026-05-01T14:03:11Z</time></trkpt><trkpt lat="45.73213423015481" lon="10.787244946641799"><ele>73.0</ele><time>2026-05-01T14:03:12Z</time></trkpt><trkpt lat="45.732029294665494" lon="10.787170701514947"><ele>73.0</ele><time>2026-05-01T14:03:13Z</time></trkpt><trkpt lat="45.73192737043589" lon="10.787099551085912"><ele>73.0</ele><time>2026-05-01T14:03:14Z</time></trkpt><trkpt lat="45.73183457781734" lon="10.787007171709984"><ele>73.0</ele><time>2026-05-01T14:03:15Z</time></trkpt><trkpt lat="45.73173775311069" lon="10.786910536586454"><ele>72.5</ele><time>2026-05-01T14:03:16Z</time></trkpt><trkpt lat="45.731644370754715" lon="10.786793496225158"><ele>72.0</ele><time>2026-05-01T14:03:17Z</time></trkpt><trkpt lat="45.73155560886962" lon="10.786666168032557"><ele>71.5</ele><time>2026-05-01T14:03:18Z</time></trkpt><trkpt lat="45.7314836456543" lon="10.786525814558388"><ele>71.0</ele><time>2026-05-01T14:03:19Z</time></trkpt><trkpt lat="45.73142034473363" lon="10.786382852193128"><ele>71.0</ele><time>2026-05-01T14:03:20Z</time></trkpt><trkpt lat="45.731363907673874" lon="10.786234875058826"><ele>71.0</ele><time>2026-05-01T14:03:21Z</time></trkpt><trkpt lat="45.7313193665732" lon="10.786071892928744"><ele>71.0</ele><time>2026-05-01T14:03:22Z</time></trkpt><trkpt lat="45.731282016047764" lon="10.785902715915169"><ele>71.0</ele><time>2026-05-01T14:03:23Z</time></trkpt><trkpt lat="45.731252800515364" lon="10.78573160327957"><ele>69.0</ele><time>2026-05-01T14:03:24Z</time></trkpt><trkpt lat="45.731223171668546" lon="10.785556325033635"><ele>67.0</ele><time>2026-05-01T14:03:25Z</time></trkpt><trkpt lat="45.7311894038908" lon="10.785380025027179"><ele>65.0</ele><time>2026-05-01T14:03:26Z</time></trkpt><trkpt lat="45.731158972455866" lon="10.785214007887731"><ele>63.0</ele><time>2026-05-01T14:03:27Z</time></trkpt><trkpt lat="45.73112434832635" lon="10.785042772004395"><ele>62.75</ele><time>2026-05-01T14:03:28Z</time></trkpt><trkpt lat="45.731095194676755" lon="10.784876460103419"><ele>62.5</ele><time>2026-05-01T14:03:29Z</time></trkpt><trkpt lat="45.73105715010012" lon="10.784702625298317"><ele>62.25</ele><time>2026-05-01T14:03:30Z</time></trkpt><trkpt lat="45.731009926794506" lon="10.784528278318373"><ele>62.0</ele><time>2026-05-01T14:03:31Z</time></trkpt><trkpt lat="45.73094147941028" lon="10.784378958551125"><ele>64.5</ele><time>2026-05-01T14:03:32Z</time></trkpt><trkpt lat="45.730867448541446" lon="10.784224793772104"><ele>67.0</ele><time>2026-05-01T14:03:33Z</time></trkpt><trkpt lat="45.730799593360665" lon="10.784070870902356"><ele>69.5</ele><time>2026-05-01T14:03:34Z</time></trkpt><trkpt lat="45.73073110618349" lon="10.78391752045188"><ele>72.0</ele><time>2026-05-01T14:03:35Z</time></trkpt><trkpt lat="45.73066045831715" lon="10.783760477369754"><ele>72.0</ele><time>2026-05-01T14:03:36Z</time></trkpt><trkpt lat="45.730594377943255" lon="10.783607309664083"><ele>72.0</ele><time>2026-05-01T14:03:37Z</time></trkpt><trkpt lat="45.73052416565564" lon="10.783460155145017"><ele>72.0</ele><time>2026-05-01T14:03:38Z</time></trkpt><trkpt lat="45.73045546797166" lon="10.783309705260097"><ele>72.0</ele><time>2026-05-01T14:03:39Z</time></trkpt><trkpt lat="45.7303894325069" lon="10.783154121353368"><ele>71.75</ele><time>2026-05-01T14:03:40Z</time></trkpt><trkpt lat="45.73032073533995" lon="10.783004758871046"><ele>71.5</ele><time>2026-05-01T14:03:41Z</time></trkpt><trkpt lat="45.73026182408904" lon="10.78285127394618"><ele>71.25</ele><time>2026-05-01T14:03:42Z</time></trkpt><trkpt lat="45.73019404736883" lon="10.78270761879461"><ele>71.0</ele><time>2026-05-01T14:03:43Z</time></trkpt><trkpt lat="45.73012865431556" lon="10.782565207386106"><ele>71.0</ele><time>2026-05-01T14:03:44Z</time></trkpt><trkpt lat="45.730062752689825" lon="10.782422002379631"><ele>71.0</ele><time>2026-05-01T14:03:45Z</time></trkpt><trkpt lat="45.730000270467066" lon="10.782282092127943"><ele>71.0</ele><time>2026-05-01T14:03:46Z</time></trkpt><trkpt lat="45.729933275726445" lon="10.782147343195131"><ele>71.0</ele><time>2026-05-01T14:03:47Z</time></trkpt><trkpt lat="45.72987062832539" lon="10.782007236913424"><ele>71.0</ele><time>2026-05-01T14:03:48Z</time></trkpt><trkpt lat="45.729793192037405" lon="10.78187359974681"><ele>71.0</ele><time>2026-05-01T14:03:49Z</time></trkpt><trkpt lat="45.72971014273081" lon="10.781731637462002"><ele>71.0</ele><time>2026-05-01T14:03:50Z</time></trkpt><trkpt lat="45.7296091118592" lon="10.781613571766586"><ele>71.0</ele><time>2026-05-01T14:03:51Z</time></trkpt><trkpt lat="45.72949782900503" lon="10.781509522380468"><ele>71.25</ele><time>2026-05-01T14:03:52Z</time></trkpt><trkpt lat="45.72938572728014" lon="10.781418453559047"><ele>71.5</ele><time>2026-05-01T14:03:53Z</time></trkpt><trkpt lat="45.72928069230222" lon="10.781347411546859"><ele>71.75</ele><time>2026-05-01T14:03:54Z</time></trkpt><trkpt lat="45.72917147868879" lon="10.781296755886132"><ele>72.0</ele><time>2026-05-01T14:03:55Z</time></trkpt><trkpt lat="45.72907283706478" lon="10.781263482409411"><ele>72.0</ele><time>2026-05-01T14:03:56Z</time></trkpt><trkpt lat="45.72897198603083" lon="10.781245461091608"><ele>72.0</ele><time>2026-05-01T14:03:57Z</time></trkpt><trkpt lat="45.72887570214924" lon="10.781232295213995"><ele>72.0</ele><time>2026-05-01T14:03:58Z</time></trkpt><trkpt lat="45.7287911302428" lon="10.7812215148004"><ele>72.0</ele><time>2026-05-01T14:03:59Z</time></trkpt><trkpt lat="45.72870948815752" lon="10.781207092456963"><ele>72.0</ele><time>2026-05-01T14:04:00Z</time></trkpt><trkpt lat="45.72864123529174" lon="10.781185185835376"><ele>72.0</ele><time>2026-05-01T14:04:01Z</time></trkpt><trkpt lat="45.72856997210367" lon="10.781152604550401"><ele>72.33333333333333</ele><time>2026-05-01T14:04:02Z</time></trkpt><trkpt lat="45.728489104628515" lon="10.781133596068855"><ele>72.66666666666667</ele><time>2026-05-01T14:04:03Z</time></trkpt><trkpt lat="45.728403577192736" lon="10.781137670578836"><ele>73.0</ele><time>2026-05-01T14:04:04Z</time></trkpt><trkpt lat="45.72832276234031" lon="10.781143506760051"><ele>73.33333333333334</ele><time>2026-05-01T14:04:05Z</time></trkpt><trkpt lat="45.72823399074649" lon="10.78114692348764"><ele>73.66666666666667</ele><time>2026-05-01T14:04:06Z</time></trkpt><trkpt lat="45.72814821107089" lon="10.781125723881738"><ele>74.0</ele><time>2026-05-01T14:04:07Z</time></trkpt><trkpt lat="45.72806112346606" lon="10.781115205139649"><ele>74.0</ele><time>2026-05-01T14:04:08Z</time></trkpt><trkpt lat="45.727974184264625" lon="10.781103999270377"><ele>74.0</ele><time>2026-05-01T14:04:09Z</time></trkpt><trkpt lat="45.72788574395827" lon="10.78109259991935"><ele>74.0</ele><time>2026-05-01T14:04:10Z</time></trkpt><trkpt lat="45.727794272146994" lon="10.78108020418484"><ele>74.0</ele><time>2026-05-01T14:04:11Z</time></trkpt><trkpt lat="45.727701919617566" lon="10.781067640763723"><ele>74.0</ele><time>2026-05-01T14:04:12Z</time></trkpt><trkpt lat="45.727609568398954" lon="10.781057727530737"><ele>73.66666666666667</ele><time>2026-05-01T14:04:13Z</time></trkpt><trkpt lat="45.7275185222296" lon="10.781047712862124"><ele>73.33333333333334</ele><time>2026-05-01T14:04:14Z</time></trkpt><trkpt lat="45.727430617500836" lon="10.78103854234399"><ele>73.0</ele><time>2026-05-01T14:04:15Z</time></trkpt><trkpt lat="45.72734550304351" lon="10.781052351403748"><ele>72.66666666666667</ele><time>2026-05-01T14:04:16Z</time></trkpt><trkpt lat="45.72726610413325" lon="10.781043834442608"><ele>72.33333333333333</ele><time>2026-05-01T14:04:17Z</time></trkpt><trkpt lat="45.72718382882565" lon="10.781037441582363"><ele>72.0</ele><time>2026-05-01T14:04:18Z</time></trkpt><trkpt lat="45.727099052640206" lon="10.781037544667187"><ele>72.0</ele><time>2026-05-01T14:04:19Z</time></trkpt><trkpt lat="45.727013950281" lon="10.78103539866524"><ele>72.0</ele><time>2026-05-01T14:04:20Z</time></trkpt><trkpt lat="45.72693874742506" lon="10.781005000666013"><ele>72.0</ele><time>2026-05-01T14:04:21Z</time></trkpt><trkpt lat="45.726869553977195" lon="10.781003366816483"><ele>72.0</ele><time>2026-05-01T14:04:22Z</time></trkpt><trkpt lat="45.72680100188203" lon="10.781001783376956"><ele>72.0</ele><time>2026-05-01T14:04:23Z</time></trkpt><trkpt lat="45.72672267397065" lon="10.781021841278411"><ele>72.0</ele><time>2026-05-01T14:04:24Z</time></trkpt><trkpt lat="45.72664925061941" lon="10.781011536458966"><ele>72.00000000000001</ele><time>2026-05-01T14:04:25Z</time></trkpt><trkpt lat="45.72658150480713" lon="10.781009500316468"><ele>72.0</ele><time>2026-05-01T14:04:26Z</time></trkpt><trkpt lat="45.72650809573879" lon="10.781010512408962"><ele>72.0</ele><time>2026-05-01T14:04:27Z</time></trkpt><trkpt lat="45.726434079561265" lon="10.781005473026093"><ele>72.0</ele><time>2026-05-01T14:04:28Z</time></trkpt><trkpt lat="45.72636488796495" lon="10.781012869371175"><ele>72.0</ele><time>2026-05-01T14:04:29Z</time></trkpt><trkpt lat="45.72629592245349" lon="10.781016776435072"><ele>72.00000000000001</ele><time>2026-05-01T14:04:30Z</time></trkpt><trkpt lat="45.726223734667165" lon="10.781021544332088"><ele>72.0</ele><time>2026-05-01T14:04:31Z</time></trkpt><trkpt lat="45.72615041619415" lon="10.781032978022688"><ele>72.00000000000001</ele><time>2026-05-01T14:04:32Z</time></trkpt><trkpt lat="45.72607928406003" lon="10.781043566837035"><ele>72.0</ele><time>2026-05-01T14:04:33Z</time></trkpt><trkpt lat="45.72601033209364" lon="10.781041715748378"><ele>72.0</ele><time>2026-05-01T14:04:34Z</time></trkpt><trkpt lat="45.72593961215468" lon="10.781051230680884"><ele>72.0</ele><time>2026-05-01T14:04:35Z</time></trkpt><trkpt lat="45.72586340876544" lon="10.781055305138715"><ele>72.0</ele><time>2026-05-01T14:04:36Z</time></trkpt><trkpt lat="45.72578379551522" lon="10.781061133332404"><ele>72.00000000000001</ele><time>2026-05-01T14:04:37Z</time></trkpt><trkpt lat="45.72570229012395" lon="10.781065976284511"><ele>72.0</ele><time>2026-05-01T14:04:38Z</time></trkpt><trkpt lat="45.72562212542772" lon="10.781073545477016"><ele>72.2</ele><time>2026-05-01T14:04:39Z</time></trkpt><trkpt lat="45.725538883781596" lon="10.781077381342493"><ele>72.4</ele><time>2026-05-01T14:04:40Z</time></trkpt><trkpt lat="45.72544689144508" lon="10.781078170059782"><ele>72.6</ele><time>2026-05-01T14:04:41Z</time></trkpt><trkpt lat="45.72535174910333" lon="10.781091511865302"><ele>72.8</ele><time>2026-05-01T14:04:42Z</time></trkpt><trkpt lat="45.725250511109834" lon="10.781101689273289"><ele>73.0</ele><time>2026-05-01T14:04:43Z</time></trkpt><trkpt lat="45.72514542020637" lon="10.781108896545929"><ele>73.4</ele><time>2026-05-01T14:04:44Z</time></trkpt><trkpt lat="45.72504052300243" lon="10.781115715795272"><ele>73.8</ele><time>2026-05-01T14:04:45Z</time></trkpt><trkpt lat="45.72494145630824" lon="10.781122772575774"><ele>74.2</ele><time>2026-05-01T14:04:46Z</time></trkpt><trkpt lat="45.72484839835797" lon="10.781132115255707"><ele>74.6</ele><time>2026-05-01T14:04:47Z</time></trkpt><trkpt lat="45.724760287644095" lon="10.78114826942994"><ele>75.0</ele><time>2026-05-01T14:04:48Z</time></trkpt><trkpt lat="45.724665422556555" lon="10.781162832136058"><ele>75.0</ele><time>2026-05-01T14:04:49Z</time></trkpt><trkpt lat="45.72456802212586" lon="10.781181337201803"><ele>75.0</ele><time>2026-05-01T14:04:50Z</time></trkpt><trkpt lat="45.72447395924253" lon="10.78119975715515"><ele>75.0</ele><time>2026-05-01T14:04:51Z</time></trkpt><trkpt lat="45.72437590349293" lon="10.781222072690918"><ele>75.0</ele><time>2026-05-01T14:04:52Z</time></trkpt><trkpt lat="45.724281772650485" lon="10.781246610753566"><ele>75.0</ele><time>2026-05-01T14:04:53Z</time></trkpt><trkpt lat="45.72418494764595" lon="10.781276401263776"><ele>75.4</ele><time>2026-05-01T14:04:54Z</time></trkpt><trkpt lat="45.72409145031286" lon="10.781297077013882"><ele>75.8</ele><time>2026-05-01T14:04:55Z</time></trkpt><trkpt lat="45.724008421481564" lon="10.781310198003471"><ele>76.2</ele><time>2026-05-01T14:04:56Z</time></trkpt><trkpt lat="45.72391807331614" lon="10.781324486159393"><ele>76.6</ele><time>2026-05-01T14:04:57Z</time></trkpt><trkpt lat="45.72382075861887" lon="10.78133604422874"><ele>77.0</ele><time>2026-05-01T14:04:58Z</time></trkpt><trkpt lat="45.723720807849546" lon="10.781333891203495"><ele>77.0</ele><time>2026-05-01T14:04:59Z</time></trkpt><trkpt lat="45.723626520837676" lon="10.78131660620834"><ele>77.0</ele><time>2026-05-01T14:05:00Z</time></trkpt><trkpt lat="45.72353634157918" lon="10.781292332086425"><ele>77.0</ele><time>2026-05-01T14:05:01Z</time></trkpt><trkpt lat="45.723444540359885" lon="10.781253529314371"><ele>77.0</ele><time>2026-05-01T14:05:02Z</time></trkpt><trkpt lat="45.7233484014883" lon="10.781201234857011"><ele>77.0</ele><time>2026-05-01T14:05:03Z</time></trkpt><trkpt lat="45.72325561414987" lon="10.781141897567297"><ele>77.8</ele><time>2026-05-01T14:05:04Z</time></trkpt><trkpt lat="45.723168567642325" lon="10.781072278534824"><ele>78.6</ele><time>2026-05-01T14:05:05Z</time></trkpt><trkpt lat="45.72308379532732" lon="10.781003289849515"><ele>79.39999999999999</ele><time>2026-05-01T14:05:06Z</time></trkpt><trkpt lat="45.72300126891591" lon="10.780926366975736"><ele>80.2</ele><time>2026-05-01T14:05:07Z</time></trkpt><trkpt lat="45.72291495904109" lon="10.780842149255827"><ele>81.0</ele><time>2026-05-01T14:05:08Z</time></trkpt><trkpt lat="45.722828882540405" lon="10.780757606339277"><ele>80.39999999999999</ele><time>2026-05-01T14:05:09Z</time></trkpt><trkpt lat="45.722741071220405" lon="10.7806784243446"><ele>79.8</ele><time>2026-05-01T14:05:10Z</time></trkpt><trkpt lat="45.722651182549384" lon="10.780602245292066"><ele>79.19999999999999</ele><time>2026-05-01T14:05:11Z</time></trkpt><trkpt lat="45.72256954137153" lon="10.780523484034918"><ele>78.6</ele><time>2026-05-01T14:05:12Z</time></trkpt><trkpt lat="45.72248625332913" lon="10.780446484618826"><ele>78.0</ele><time>2026-05-01T14:05:13Z</time></trkpt><trkpt lat="45.72240752348242" lon="10.780370820175285"><ele>78.0</ele><time>2026-05-01T14:05:14Z</time></trkpt><trkpt lat="45.72232510845191" lon="10.780299638275824"><ele>78.0</ele><time>2026-05-01T14:05:15Z</time></trkpt><trkpt lat="45.722239770041945" lon="10.780222869735603"><ele>78.0</ele><time>2026-05-01T14:05:16Z</time></trkpt><trkpt lat="45.722152732806684" lon="10.78014427358456"><ele>78.0</ele><time>2026-05-01T14:05:17Z</time></trkpt><trkpt lat="45.72206473823954" lon="10.780062436986778"><ele>78.0</ele><time>2026-05-01T14:05:18Z</time></trkpt><trkpt lat="45.72197460305715" lon="10.779982258591842"><ele>78.4</ele><time>2026-05-01T14:05:19Z</time></trkpt><trkpt lat="45.721880832990934" lon="10.77989812059445"><ele>78.8</ele><time>2026-05-01T14:05:20Z</time></trkpt><trkpt lat="45.72178874300835" lon="10.779814854586686"><ele>79.2</ele><time>2026-05-01T14:05:21Z</time></trkpt><trkpt lat="45.72169410650359" lon="10.779721857478034"><ele>79.6</ele><time>2026-05-01T14:05:22Z</time></trkpt><trkpt lat="45.721602593775685" lon="10.779624712754764"><ele>80.0</ele><time>2026-05-01T14:05:23Z</time></trkpt><trkpt lat="45.7215067638044" lon="10.779541255826162"><ele>80.0</ele><time>2026-05-01T14:05:24Z</time></trkpt><trkpt lat="45.72141536018841" lon="10.779455153913513"><ele>80.0</ele><time>2026-05-01T14:05:25Z</time></trkpt><trkpt lat="45.72132530713115" lon="10.779368110904205"><ele>80.0</ele><time>2026-05-01T14:05:26Z</time></trkpt><trkpt lat="45.72123853631109" lon="10.779273590265753"><ele>80.0</ele><time>2026-05-01T14:05:27Z</time></trkpt><trkpt lat="45.72114973162623" lon="10.779171829814532"><ele>80.0</ele><time>2026-05-01T14:05:28Z</time></trkpt><trkpt lat="45.721061922686914" lon="10.779074620605485"><ele>79.75</ele><time>2026-05-01T14:05:29Z</time></trkpt><trkpt lat="45.720971139870855" lon="10.778970444463113"><ele>79.5</ele><time>2026-05-01T14:05:30Z</time></trkpt><trkpt lat="45.720881671931664" lon="10.77886274324003"><ele>79.25</ele><time>2026-05-01T14:05:31Z</time></trkpt><trkpt lat="45.720788791853664" lon="10.778756312239457"><ele>79.0</ele><time>2026-05-01T14:05:32Z</time></trkpt><trkpt lat="45.720696421625185" lon="10.778649372480052"><ele>79.0</ele><time>2026-05-01T14:05:33Z</time></trkpt><trkpt lat="45.720608282380304" lon="10.778530413957629"><ele>79.0</ele><time>2026-05-01T14:05:34Z</time></trkpt><trkpt lat="45.72052258342996" lon="10.778401229046553"><ele>79.0</ele><time>2026-05-01T14:05:35Z</time></trkpt><trkpt lat="45.720447073841385" lon="10.778271974554215"><ele>79.0</ele><time>2026-05-01T14:05:36Z</time></trkpt><trkpt lat="45.72035965353827" lon="10.778134434162814"><ele>79.5</ele><time>2026-05-01T14:05:37Z</time></trkpt><trkpt lat="45.72027726655248" lon="10.777995869947016"><ele>80.0</ele><time>2026-05-01T14:05:38Z</time></trkpt><trkpt lat="45.72020008826816" lon="10.777858247799843"><ele>80.5</ele><time>2026-05-01T14:05:39Z</time></trkpt><trkpt lat="45.720119774743694" lon="10.777719816501024"><ele>81.0</ele><time>2026-05-01T14:05:40Z</time></trkpt><trkpt lat="45.72003835451427" lon="10.777582004499543"><ele>78.5</ele><time>2026-05-01T14:05:41Z</time></trkpt><trkpt lat="45.719954038323" lon="10.777438215879398"><ele>76.0</ele><time>2026-05-01T14:05:42Z</time></trkpt><trkpt lat="45.71986651475535" lon="10.777294680324536"><ele>73.5</ele><time>2026-05-01T14:05:43Z</time></trkpt><trkpt lat="45.71977847617035" lon="10.777150154590352"><ele>71.0</ele><time>2026-05-01T14:05:44Z</time></trkpt><trkpt lat="45.71969081272042" lon="10.777012389360337"><ele>71.0</ele><time>2026-05-01T14:05:45Z</time></trkpt><trkpt lat="45.719604603853" lon="10.776873320680174"><ele>71.0</ele><time>2026-05-01T14:05:46Z</time></trkpt><trkpt lat="45.719516942979304" lon="10.776744107646941"><ele>71.0</ele><time>2026-05-01T14:05:47Z</time></trkpt><trkpt lat="45.71942902275149" lon="10.776612100746553"><ele>71.0</ele><time>2026-05-01T14:05:48Z</time></trkpt><trkpt lat="45.71934418228427" lon="10.776481820677475"><ele>72.0</ele><time>2026-05-01T14:05:49Z</time></trkpt><trkpt lat="45.71926834125187" lon="10.776345396913603"><ele>73.0</ele><time>2026-05-01T14:05:50Z</time></trkpt><trkpt lat="45.71918057908644" lon="10.776228112576762"><ele>74.0</ele><time>2026-05-01T14:05:51Z</time></trkpt><trkpt lat="45.7190978228706" lon="10.776104259937378"><ele>75.0</ele><time>2026-05-01T14:05:52Z</time></trkpt><trkpt lat="45.719018427505084" lon="10.77598823829342"><ele>73.0</ele><time>2026-05-01T14:05:53Z</time></trkpt><trkpt lat="45.71893679011441" lon="10.775865550271748"><ele>71.0</ele><time>2026-05-01T14:05:54Z</time></trkpt><trkpt lat="45.718857257254044" lon="10.775751470431402"><ele>69.0</ele><time>2026-05-01T14:05:55Z</time></trkpt><trkpt lat="45.7187758869261" lon="10.775637913964777"><ele>67.0</ele><time>2026-05-01T14:05:56Z</time></trkpt><trkpt lat="45.71869688191199" lon="10.77552417157031"><ele>67.0</ele><time>2026-05-01T14:05:57Z</time></trkpt><trkpt lat="45.71861911785593" lon="10.775415212600418"><ele>67.0</ele><time>2026-05-01T14:05:58Z</time></trkpt><trkpt lat="45.71854846231276" lon="10.775313400442547"><ele>67.0</ele><time>2026-05-01T14:05:59Z</time></trkpt><trkpt lat="45.71848753657004" lon="10.77522374689064"><ele>67.0</ele><time>2026-05-01T14:06:00Z</time></trkpt><trkpt lat="45.718439277361455" lon="10.775148616877884"><ele>67.0</ele><time>2026-05-01T14:06:01Z</time></trkpt><trkpt lat="45.71839416773565" lon="10.775083423217463"><ele>67.0</ele><time>2026-05-01T14:06:02Z</time></trkpt><trkpt lat="45.718311901304325" lon="10.774966846186782"><ele>67.66666666666666</ele><time>2026-05-01T14:06:04Z</time></trkpt><trkpt lat="45.718245687711665" lon="10.774884061184371"><ele>68.33333333333333</ele><time>2026-05-01T14:06:06Z</time></trkpt><trkpt lat="45.71817959209423" lon="10.774800225646075"><ele>69.0</ele><time>2026-05-01T14:06:08Z</time></trkpt><trkpt lat="45.71811215742183" lon="10.774728696868053"><ele>69.66666666666667</ele><time>2026-05-01T14:06:10Z</time></trkpt><trkpt lat="45.71805079758345" lon="10.774664848463"><ele>70.33333333333334</ele><time>2026-05-01T14:06:12Z</time></trkpt><trkpt lat="45.718004083595545" lon="10.774602920908903"><ele>71.0</ele><time>2026-05-01T14:06:14Z</time></trkpt><trkpt lat="45.71794260168307" lon="10.774534910580261"><ele>71.0</ele><time>2026-05-01T14:06:16Z</time></trkpt><trkpt lat="45.71784748113708" lon="10.774429691043375"><ele>71.0</ele><time>2026-05-01T14:06:18Z</time></trkpt><trkpt lat="45.71779368478499" lon="10.774371930029751"><ele>71.0</ele><time>2026-05-01T14:06:19Z</time></trkpt><trkpt lat="45.717725980204946" lon="10.774295200998125"><ele>71.0</ele><time>2026-05-01T14:06:20Z</time></trkpt><trkpt lat="45.71764969256377" lon="10.774228223425618"><ele>71.0</ele><time>2026-05-01T14:06:21Z</time></trkpt><trkpt lat="45.71759545222675" lon="10.774126535482567"><ele>71.6</ele><time>2026-05-01T14:06:22Z</time></trkpt><trkpt lat="45.71753338320175" lon="10.774037651361049"><ele>72.19999999999999</ele><time>2026-05-01T14:06:23Z</time></trkpt><trkpt lat="45.71747035059564" lon="10.77395007527435"><ele>72.80000000000001</ele><time>2026-05-01T14:06:24Z</time></trkpt><trkpt lat="45.71740399524984" lon="10.77385940236388"><ele>73.4</ele><time>2026-05-01T14:06:25Z</time></trkpt><trkpt lat="45.7173296742361" lon="10.773763886110554"><ele>74.0</ele><time>2026-05-01T14:06:26Z</time></trkpt><trkpt lat="45.717245506055164" lon="10.773659133239418"><ele>74.0</ele><time>2026-05-01T14:06:27Z</time></trkpt><trkpt lat="45.71716213366175" lon="10.7735566914884"><ele>74.0</ele><time>2026-05-01T14:06:28Z</time></trkpt><trkpt lat="45.71706507131147" lon="10.773468312259928"><ele>74.0</ele><time>2026-05-01T14:06:29Z</time></trkpt><trkpt lat="45.716973512026044" lon="10.773361665507228"><ele>74.0</ele><time>2026-05-01T14:06:30Z</time></trkpt><trkpt lat="45.71687759019563" lon="10.77325156361314"><ele>75.25</ele><time>2026-05-01T14:06:31Z</time></trkpt><trkpt lat="45.716776577613" lon="10.77314299144645"><ele>76.5</ele><time>2026-05-01T14:06:32Z</time></trkpt><trkpt lat="45.71667480863611" lon="10.77304082286698"><ele>77.75</ele><time>2026-05-01T14:06:33Z</time></trkpt><trkpt lat="45.71657065688138" lon="10.77294598263253"><ele>79.0</ele><time>2026-05-01T14:06:34Z</time></trkpt><trkpt lat="45.71646991686602" lon="10.772854940451925"><ele>79.0</ele><time>2026-05-01T14:06:35Z</time></trkpt><trkpt lat="45.71637377063709" lon="10.772771142877328"><ele>79.0</ele><time>2026-05-01T14:06:36Z</time></trkpt><trkpt lat="45.71627721359854" lon="10.772687926814479"><ele>79.0</ele><time>2026-05-01T14:06:37Z</time></trkpt><trkpt lat="45.71617692144875" lon="10.77259981423321"><ele>79.0</ele><time>2026-05-01T14:06:38Z</time></trkpt><trkpt lat="45.71607479781879" lon="10.772511805935826"><ele>79.0</ele><time>2026-05-01T14:06:39Z</time></trkpt><trkpt lat="45.71597563923837" lon="10.772430281496865"><ele>79.0</ele><time>2026-05-01T14:06:40Z</time></trkpt><trkpt lat="45.71588033900444" lon="10.772352977644033"><ele>79.0</ele><time>2026-05-01T14:06:41Z</time></trkpt><trkpt lat="45.71579164985761" lon="10.77225310827178"><ele>79.0</ele><time>2026-05-01T14:06:42Z</time></trkpt><trkpt lat="45.715699442912744" lon="10.77217079724707"><ele>79.0</ele><time>2026-05-01T14:06:43Z</time></trkpt><trkpt lat="45.71560375366337" lon="10.772085377656222"><ele>79.0</ele><time>2026-05-01T14:06:44Z</time></trkpt><trkpt lat="45.7154992175753" lon="10.771992060694759"><ele>79.0</ele><time>2026-05-01T14:06:45Z</time></trkpt><trkpt lat="45.71539158552253" lon="10.771896847084706"><ele>79.0</ele><time>2026-05-01T14:06:46Z</time></trkpt><trkpt lat="45.715279487566136" lon="10.771809151099395"><ele>79.0</ele><time>2026-05-01T14:06:47Z</time></trkpt><trkpt lat="45.71517519874822" lon="10.771721995278346"><ele>78.75</ele><time>2026-05-01T14:06:48Z</time></trkpt><trkpt lat="45.71507027616562" lon="10.771626268103372"><ele>78.5</ele><time>2026-05-01T14:06:49Z</time></trkpt><trkpt lat="45.714969032335155" lon="10.771532635552362"><ele>78.25</ele><time>2026-05-01T14:06:50Z</time></trkpt><trkpt lat="45.71486853588649" lon="10.771437208615714"><ele>78.0</ele><time>2026-05-01T14:06:51Z</time></trkpt><trkpt lat="45.714774048414505" lon="10.771347694781356"><ele>78.0</ele><time>2026-05-01T14:06:52Z</time></trkpt><trkpt lat="45.714677787424534" lon="10.771270804565928"><ele>78.0</ele><time>2026-05-01T14:06:53Z</time></trkpt><trkpt lat="45.71457681936748" lon="10.771184866943193"><ele>78.0</ele><time>2026-05-01T14:06:54Z</time></trkpt><trkpt lat="45.71447888065127" lon="10.77110110540921"><ele>78.0</ele><time>2026-05-01T14:06:55Z</time></trkpt><trkpt lat="45.71437433065108" lon="10.771012623404904"><ele>78.0</ele><time>2026-05-01T14:06:56Z</time></trkpt><trkpt lat="45.71427164820308" lon="10.770907188030254"><ele>78.0</ele><time>2026-05-01T14:06:57Z</time></trkpt><trkpt lat="45.71416001512102" lon="10.770809932492977"><ele>78.0</ele><time>2026-05-01T14:06:58Z</time></trkpt><trkpt lat="45.71405026258551" lon="10.770715784637561"><ele>78.0</ele><time>2026-05-01T14:06:59Z</time></trkpt><trkpt lat="45.713944251494475" lon="10.770622668183423"><ele>78.0</ele><time>2026-05-01T14:07:00Z</time></trkpt><trkpt lat="45.71384113482937" lon="10.77052095637452"><ele>78.0</ele><time>2026-05-01T14:07:01Z</time></trkpt><trkpt lat="45.71374034153113" lon="10.770435967038738"><ele>78.0</ele><time>2026-05-01T14:07:02Z</time></trkpt><trkpt lat="45.713642762573315" lon="10.770346150685816"><ele>78.0</ele><time>2026-05-01T14:07:03Z</time></trkpt><trkpt lat="45.71354159563273" lon="10.770258717518244"><ele>76.75</ele><time>2026-05-01T14:07:04Z</time></trkpt><trkpt lat="45.713438414402084" lon="10.77016631764662"><ele>75.5</ele><time>2026-05-01T14:07:05Z</time></trkpt><trkpt lat="45.713335317600745" lon="10.770071949161563"><ele>74.25</ele><time>2026-05-01T14:07:06Z</time></trkpt><trkpt lat="45.71323042462985" lon="10.76998780125705"><ele>73.0</ele><time>2026-05-01T14:07:07Z</time></trkpt><trkpt lat="45.71313233621742" lon="10.769908842152068"><ele>73.0</ele><time>2026-05-01T14:07:08Z</time></trkpt><trkpt lat="45.71303411659936" lon="10.769823825138515"><ele>73.0</ele><time>2026-05-01T14:07:09Z</time></trkpt><trkpt lat="45.71294080773851" lon="10.76971299738938"><ele>73.0</ele><time>2026-05-01T14:07:10Z</time></trkpt><trkpt lat="45.7128298177458" lon="10.769621892522093"><ele>73.0</ele><time>2026-05-01T14:07:11Z</time></trkpt><trkpt lat="45.71272990782216" lon="10.769535177842734"><ele>73.4</ele><time>2026-05-01T14:07:12Z</time></trkpt><trkpt lat="45.712625743061736" lon="10.769447617961648"><ele>73.8</ele><time>2026-05-01T14:07:13Z</time></trkpt><trkpt lat="45.712527120040775" lon="10.769359978075729"><ele>74.2</ele><time>2026-05-01T14:07:14Z</time></trkpt><trkpt lat="45.71243848842868" lon="10.769280736595087"><ele>74.6</ele><time>2026-05-01T14:07:15Z</time></trkpt><trkpt lat="45.71234755171099" lon="10.769198392981146"><ele>75.0</ele><time>2026-05-01T14:07:16Z</time></trkpt><trkpt lat="45.71225370367031" lon="10.769114849072785"><ele>75.0</ele><time>2026-05-01T14:07:17Z</time></trkpt><trkpt lat="45.71215336087392" lon="10.769033380296964"><ele>75.0</ele><time>2026-05-01T14:07:18Z</time></trkpt><trkpt lat="45.71205101423202" lon="10.768952228204668"><ele>75.0</ele><time>2026-05-01T14:07:19Z</time></trkpt><trkpt lat="45.71195275581763" lon="10.768858573401642"><ele>75.0</ele><time>2026-05-01T14:07:20Z</time></trkpt><trkpt lat="45.71184040819911" lon="10.768791237249024"><ele>74.2</ele><time>2026-05-01T14:07:21Z</time></trkpt><trkpt lat="45.71173844133494" lon="10.768728255688282"><ele>73.4</ele><time>2026-05-01T14:07:22Z</time></trkpt><trkpt lat="45.711634296746034" lon="10.768670769293644"><ele>72.6</ele><time>2026-05-01T14:07:23Z</time></trkpt><trkpt lat="45.711532072368385" lon="10.768603767158604"><ele>71.8</ele><time>2026-05-01T14:07:24Z</time></trkpt><trkpt lat="45.71143085052452" lon="10.768560355606164"><ele>71.0</ele><time>2026-05-01T14:07:25Z</time></trkpt><trkpt lat="45.71132296090431" lon="10.768497871466908"><ele>71.0</ele><time>2026-05-01T14:07:26Z</time></trkpt><trkpt lat="45.71121059104086" lon="10.768452471338389"><ele>71.0</ele><time>2026-05-01T14:07:27Z</time></trkpt><trkpt lat="45.71109051329903" lon="10.768410365532578"><ele>71.0</ele><time>2026-05-01T14:07:28Z</time></trkpt><trkpt lat="45.710970485391094" lon="10.768377041821815"><ele>71.0</ele><time>2026-05-01T14:07:29Z</time></trkpt><trkpt lat="45.710846508886036" lon="10.768341384600028"><ele>73.0</ele><time>2026-05-01T14:07:30Z</time></trkpt><trkpt lat="45.710721928604016" lon="10.76830787722774"><ele>75.0</ele><time>2026-05-01T14:07:31Z</time></trkpt><trkpt lat="45.71059583168203" lon="10.768261676207002"><ele>77.0</ele><time>2026-05-01T14:07:32Z</time></trkpt><trkpt lat="45.71046603839145" lon="10.76822354676838"><ele>79.0</ele><time>2026-05-01T14:07:33Z</time></trkpt><trkpt lat="45.710346754806096" lon="10.768178931639723"><ele>80.2</ele><time>2026-05-01T14:07:34Z</time></trkpt><trkpt lat="45.7102348897378" lon="10.768137500145846"><ele>81.4</ele><time>2026-05-01T14:07:35Z</time></trkpt><trkpt lat="45.71012370329647" lon="10.768106301124899"><ele>82.6</ele><time>2026-05-01T14:07:36Z</time></trkpt><trkpt lat="45.710014434107606" lon="10.768073749145827"><ele>83.8</ele><time>2026-05-01T14:07:37Z</time></trkpt><trkpt lat="45.70991509659484" lon="10.768031675464918"><ele>85.0</ele><time>2026-05-01T14:07:38Z</time></trkpt><trkpt lat="45.70982738852258" lon="10.768002055196602"><ele>85.0</ele><time>2026-05-01T14:07:39Z</time></trkpt><trkpt lat="45.70974335691306" lon="10.767973509625914"><ele>85.0</ele><time>2026-05-01T14:07:40Z</time></trkpt><trkpt lat="45.709662236278376" lon="10.767944388566232"><ele>85.0</ele><time>2026-05-01T14:07:41Z</time></trkpt><trkpt lat="45.709592367604834" lon="10.767921163870882"><ele>85.0</ele><time>2026-05-01T14:07:42Z</time></trkpt><trkpt lat="45.70951071178979" lon="10.76789373378977"><ele>85.0</ele><time>2026-05-01T14:07:44Z</time></trkpt><trkpt lat="45.70944002545313" lon="10.767871815154294"><ele>85.0</ele><time>2026-05-01T14:07:46Z</time></trkpt><trkpt lat="45.70934068931608" lon="10.76784287141759"><ele>86.4</ele><time>2026-05-01T14:07:48Z</time></trkpt><trkpt lat="45.709275844317716" lon="10.767815683021196"><ele>87.8</ele><time>2026-05-01T14:07:49Z</time></trkpt><trkpt lat="45.70917842343962" lon="10.767754775963695"><ele>89.19999999999999</ele><time>2026-05-01T14:07:51Z</time></trkpt><trkpt lat="45.70906961150597" lon="10.767730285325138"><ele>90.6</ele><time>2026-05-01T14:07:53Z</time></trkpt><trkpt lat="45.708950988254266" lon="10.767713974709249"><ele>92.0</ele><time>2026-05-01T14:07:55Z</time></trkpt><trkpt lat="45.70888313643696" lon="10.767697900847281"><ele>90.33333333333334</ele><time>2026-05-01T14:07:56Z</time></trkpt><trkpt lat="45.70881219567073" lon="10.76765094492767"><ele>88.66666666666667</ele><time>2026-05-01T14:07:57Z</time></trkpt><trkpt lat="45.70873190733846" lon="10.767623590291578"><ele>87.0</ele><time>2026-05-01T14:07:58Z</time></trkpt><trkpt lat="45.708653217741535" lon="10.767596780376143"><ele>85.33333333333333</ele><time>2026-05-01T14:07:59Z</time></trkpt><trkpt lat="45.70857986039566" lon="10.767571787185638"><ele>83.66666666666666</ele><time>2026-05-01T14:08:00Z</time></trkpt><trkpt lat="45.70848381012465" lon="10.767539062389291"><ele>82.0</ele><time>2026-05-01T14:08:01Z</time></trkpt><trkpt lat="45.70837775193885" lon="10.767502927824294"><ele>82.0</ele><time>2026-05-01T14:08:02Z</time></trkpt><trkpt lat="45.708276943496514" lon="10.767465329288779"><ele>82.0</ele><time>2026-05-01T14:08:03Z</time></trkpt><trkpt lat="45.70817976797898" lon="10.767444331667717"><ele>82.0</ele><time>2026-05-01T14:08:04Z</time></trkpt><trkpt lat="45.708081551163566" lon="10.76737013005952"><ele>82.0</ele><time>2026-05-01T14:08:05Z</time></trkpt><trkpt lat="45.70798003169565" lon="10.76731163014642"><ele>82.0</ele><time>2026-05-01T14:08:06Z</time></trkpt><trkpt lat="45.70788454387593" lon="10.76724756819199"><ele>82.0</ele><time>2026-05-01T14:08:07Z</time></trkpt><trkpt lat="45.70778445155272" lon="10.767193551479485"><ele>82.0</ele><time>2026-05-01T14:08:08Z</time></trkpt><trkpt lat="45.70768152855193" lon="10.767115221002554"><ele>82.0</ele><time>2026-05-01T14:08:09Z</time></trkpt><trkpt lat="45.70758617601112" lon="10.7670230331585"><ele>82.0</ele><time>2026-05-01T14:08:10Z</time></trkpt><trkpt lat="45.70748432526577" lon="10.766931026879055"><ele>81.19999999999999</ele><time>2026-05-01T14:08:11Z</time></trkpt><trkpt lat="45.707381335199024" lon="10.766832933714893"><ele>80.39999999999999</ele><time>2026-05-01T14:08:12Z</time></trkpt><trkpt lat="45.70729206572505" lon="10.766748964682424"><ele>79.6</ele><time>2026-05-01T14:08:13Z</time></trkpt><trkpt lat="45.70721179838522" lon="10.766656642277505"><ele>78.8</ele><time>2026-05-01T14:08:14Z</time></trkpt><trkpt lat="45.70712811335146" lon="10.766574430877903"><ele>78.0</ele><time>2026-05-01T14:08:15Z</time></trkpt><trkpt lat="45.70704887752528" lon="10.766502642642903"><ele>78.0</ele><time>2026-05-01T14:08:16Z</time></trkpt><trkpt lat="45.706979094486115" lon="10.766433038417064"><ele>78.0</ele><time>2026-05-01T14:08:17Z</time></trkpt><trkpt lat="45.70690712294573" lon="10.766361500607358"><ele>78.0</ele><time>2026-05-01T14:08:18Z</time></trkpt><trkpt lat="45.7068306455173" lon="10.766296731130767"><ele>78.0</ele><time>2026-05-01T14:08:19Z</time></trkpt><trkpt lat="45.70675738997132" lon="10.766212076439759"><ele>78.0</ele><time>2026-05-01T14:08:20Z</time></trkpt><trkpt lat="45.70668167592289" lon="10.766137080773689"><ele>78.0</ele><time>2026-05-01T14:08:21Z</time></trkpt><trkpt lat="45.70660518985508" lon="10.766060343740925"><ele>76.6</ele><time>2026-05-01T14:08:22Z</time></trkpt><trkpt lat="45.70652407854515" lon="10.765990376216854"><ele>75.19999999999999</ele><time>2026-05-01T14:08:23Z</time></trkpt><trkpt lat="45.70643941264974" lon="10.765911250816565"><ele>73.8</ele><time>2026-05-01T14:08:24Z</time></trkpt><trkpt lat="45.706352852468626" lon="10.765823960038368"><ele>72.39999999999999</ele><time>2026-05-01T14:08:25Z</time></trkpt><trkpt lat="45.70626441878921" lon="10.765735068428837"><ele>71.0</ele><time>2026-05-01T14:08:26Z</time></trkpt><trkpt lat="45.706190794747116" lon="10.765623936410186"><ele>71.0</ele><time>2026-05-01T14:08:27Z</time></trkpt><trkpt lat="45.70611119900953" lon="10.765518821289914"><ele>71.0</ele><time>2026-05-01T14:08:28Z</time></trkpt><trkpt lat="45.70603620422989" lon="10.765410788825573"><ele>71.0</ele><time>2026-05-01T14:08:29Z</time></trkpt><trkpt lat="45.70596518418382" lon="10.76530126220583"><ele>71.0</ele><time>2026-05-01T14:08:30Z</time></trkpt><trkpt lat="45.70589601517658" lon="10.765192946025193"><ele>71.0</ele><time>2026-05-01T14:08:31Z</time></trkpt><trkpt lat="45.70582941260453" lon="10.765088284801857"><ele>71.39999999999999</ele><time>2026-05-01T14:08:32Z</time></trkpt><trkpt lat="45.70574964248279" lon="10.764997812205957"><ele>71.8</ele><time>2026-05-01T14:08:33Z</time></trkpt><trkpt lat="45.705681461072714" lon="10.764889091573096"><ele>72.19999999999999</ele><time>2026-05-01T14:08:34Z</time></trkpt><trkpt lat="45.705622176352136" lon="10.764758794165424"><ele>72.6</ele><time>2026-05-01T14:08:35Z</time></trkpt><trkpt lat="45.70554599369579" lon="10.764634849604887"><ele>73.0</ele><time>2026-05-01T14:08:36Z</time></trkpt><trkpt lat="45.7054605366048" lon="10.764496971235037"><ele>73.0</ele><time>2026-05-01T14:08:37Z</time></trkpt><trkpt lat="45.705356578216005" lon="10.764390819880166"><ele>73.0</ele><time>2026-05-01T14:08:38Z</time></trkpt><trkpt lat="45.705269052040045" lon="10.764271118936257"><ele>73.0</ele><time>2026-05-01T14:08:39Z</time></trkpt><trkpt lat="45.7051876928958" lon="10.764155148301693"><ele>73.0</ele><time>2026-05-01T14:08:40Z</time></trkpt><trkpt lat="45.70510491640857" lon="10.764054740532751"><ele>74.25</ele><time>2026-05-01T14:08:41Z</time></trkpt><trkpt lat="45.70502763902171" lon="10.763943681606992"><ele>75.5</ele><time>2026-05-01T14:08:42Z</time></trkpt><trkpt lat="45.70492781115969" lon="10.763854133584815"><ele>76.75</ele><time>2026-05-01T14:08:43Z</time></trkpt><trkpt lat="45.7048194352377" lon="10.76376696684577"><ele>78.0</ele><time>2026-05-01T14:08:44Z</time></trkpt><trkpt lat="45.70470269878153" lon="10.763686668653285"><ele>78.0</ele><time>2026-05-01T14:08:45Z</time></trkpt><trkpt lat="45.70458323064005" lon="10.763624344005494"><ele>78.0</ele><time>2026-05-01T14:08:46Z</time></trkpt><trkpt lat="45.70446368422125" lon="10.7635683111726"><ele>78.0</ele><time>2026-05-01T14:08:47Z</time></trkpt><trkpt lat="45.70434283108003" lon="10.763513267873572"><ele>78.0</ele><time>2026-05-01T14:08:48Z</time></trkpt><trkpt lat="45.704223764041174" lon="10.763460029807177"><ele>75.5</ele><time>2026-05-01T14:08:49Z</time></trkpt><trkpt lat="45.704104162393854" lon="10.763406565254249"><ele>73.0</ele><time>2026-05-01T14:08:50Z</time></trkpt><trkpt lat="45.70398157277151" lon="10.763351835486242"><ele>70.5</ele><time>2026-05-01T14:08:51Z</time></trkpt><trkpt lat="45.703851631985415" lon="10.763317494517425"><ele>68.0</ele><time>2026-05-01T14:08:52Z</time></trkpt><trkpt lat="45.703731419445965" lon="10.763246195736658"><ele>68.0</ele><time>2026-05-01T14:08:53Z</time></trkpt><trkpt lat="45.70361006578634" lon="10.763182873932074"><ele>68.0</ele><time>2026-05-01T14:08:54Z</time></trkpt><trkpt lat="45.70349356130639" lon="10.76311110580131"><ele>68.0</ele><time>2026-05-01T14:08:55Z</time></trkpt><trkpt lat="45.70339117879886" lon="10.763039173626197"><ele>68.0</ele><time>2026-05-01T14:08:56Z</time></trkpt><trkpt lat="45.70328783445901" lon="10.762963834244388"><ele>67.25</ele><time>2026-05-01T14:08:57Z</time></trkpt><trkpt lat="45.70318329245166" lon="10.762886336887446"><ele>66.5</ele><time>2026-05-01T14:08:58Z</time></trkpt><trkpt lat="45.70308244814848" lon="10.762802546535724"><ele>65.75</ele><time>2026-05-01T14:08:59Z</time></trkpt><trkpt lat="45.70297703692457" lon="10.762724598757927"><ele>65.0</ele><time>2026-05-01T14:09:00Z</time></trkpt><trkpt lat="45.70287867168882" lon="10.762649574871025"><ele>65.0</ele><time>2026-05-01T14:09:01Z</time></trkpt><trkpt lat="45.70278444963996" lon="10.762578547971199"><ele>65.0</ele><time>2026-05-01T14:09:02Z</time></trkpt><trkpt lat="45.70269778773419" lon="10.762514383175732"><ele>65.0</ele><time>2026-05-01T14:09:03Z</time></trkpt><trkpt lat="45.70261688894378" lon="10.762457556506227"><ele>65.0</ele><time>2026-05-01T14:09:04Z</time></trkpt><trkpt lat="45.702537079816324" lon="10.762399848745682"><ele>65.0</ele><time>2026-05-01T14:09:05Z</time></trkpt><trkpt lat="45.70245842208076" lon="10.76233122518205"><ele>67.4</ele><time>2026-05-01T14:09:06Z</time></trkpt><trkpt lat="45.70237113368075" lon="10.762277000992293"><ele>69.8</ele><time>2026-05-01T14:09:07Z</time></trkpt><trkpt lat="45.702288909850836" lon="10.762203754973303"><ele>72.2</ele><time>2026-05-01T14:09:08Z</time></trkpt><trkpt lat="45.70220120454343" lon="10.762141414080636"><ele>74.6</ele><time>2026-05-01T14:09:09Z</time></trkpt><trkpt lat="45.702116003482125" lon="10.762086781954961"><ele>77.0</ele><time>2026-05-01T14:09:10Z</time></trkpt><trkpt lat="45.70202800791333" lon="10.762022622299225"><ele>77.0</ele><time>2026-05-01T14:09:11Z</time></trkpt><trkpt lat="45.7019438224962" lon="10.761944523610733"><ele>77.0</ele><time>2026-05-01T14:09:12Z</time></trkpt><trkpt lat="45.7018436384244" lon="10.761878311131593"><ele>77.0</ele><time>2026-05-01T14:09:13Z</time></trkpt><trkpt lat="45.70174124224491" lon="10.76180100220104"><ele>77.0</ele><time>2026-05-01T14:09:14Z</time></trkpt><trkpt lat="45.701639498791266" lon="10.76172801729571"><ele>77.0</ele><time>2026-05-01T14:09:15Z</time></trkpt><trkpt lat="45.70154594722129" lon="10.76165764620237"><ele>76.0</ele><time>2026-05-01T14:09:16Z</time></trkpt><trkpt lat="45.701453171835354" lon="10.761589165447708"><ele>75.0</ele><time>2026-05-01T14:09:17Z</time></trkpt><trkpt lat="45.70136194483523" lon="10.761505684420422"><ele>74.0</ele><time>2026-05-01T14:09:18Z</time></trkpt><trkpt lat="45.701264874905924" lon="10.76143572376175"><ele>73.0</ele><time>2026-05-01T14:09:19Z</time></trkpt><trkpt lat="45.701168356909314" lon="10.761364498518937"><ele>72.0</ele><time>2026-05-01T14:09:20Z</time></trkpt><trkpt lat="45.70107229225605" lon="10.761289654861848"><ele>70.75</ele><time>2026-05-01T14:09:21Z</time></trkpt><trkpt lat="45.70097432342086" lon="10.76121684096547"><ele>69.5</ele><time>2026-05-01T14:09:22Z</time></trkpt><trkpt lat="45.700870024177206" lon="10.761136262488304"><ele>68.25</ele><time>2026-05-01T14:09:23Z</time></trkpt><trkpt lat="45.70075697067995" lon="10.761056351814124"><ele>67.0</ele><time>2026-05-01T14:09:24Z</time></trkpt><trkpt lat="45.70064077429843" lon="10.760972554819055"><ele>67.0</ele><time>2026-05-01T14:09:25Z</time></trkpt><trkpt lat="45.700519615723636" lon="10.760877808157478"><ele>67.0</ele><time>2026-05-01T14:09:26Z</time></trkpt><trkpt lat="45.70040032131707" lon="10.760783989896892"><ele>67.0</ele><time>2026-05-01T14:09:27Z</time></trkpt><trkpt lat="45.70027855640515" lon="10.760683675827739"><ele>67.0</ele><time>2026-05-01T14:09:28Z</time></trkpt><trkpt lat="45.70016007329452" lon="10.760584187763602"><ele>67.25</ele><time>2026-05-01T14:09:29Z</time></trkpt><trkpt lat="45.7000392481211" lon="10.760473352635634"><ele>67.5</ele><time>2026-05-01T14:09:30Z</time></trkpt><trkpt lat="45.69991549017427" lon="10.760363238270937"><ele>67.75</ele><time>2026-05-01T14:09:31Z</time></trkpt><trkpt lat="45.69980374436912" lon="10.76024046551558"><ele>68.0</ele><time>2026-05-01T14:09:32Z</time></trkpt><trkpt lat="45.69968217542968" lon="10.760131421341908"><ele>68.0</ele><time>2026-05-01T14:09:33Z</time></trkpt><trkpt lat="45.69955532169483" lon="10.760017641915965"><ele>68.0</ele><time>2026-05-01T14:09:34Z</time></trkpt><trkpt lat="45.69941266524228" lon="10.759889038349144"><ele>68.0</ele><time>2026-05-01T14:09:35Z</time></trkpt><trkpt lat="45.699265586969304" lon="10.759756267830593"><ele>71.33333333333334</ele><time>2026-05-01T14:09:36Z</time></trkpt><trkpt lat="45.69912966533272" lon="10.75963320220498"><ele>74.66666666666667</ele><time>2026-05-01T14:09:37Z</time></trkpt><trkpt lat="45.69900106495553" lon="10.759516765365765"><ele>78.0</ele><time>2026-05-01T14:09:38Z</time></trkpt><trkpt lat="45.69887643187639" lon="10.759403920590087"><ele>78.5</ele><time>2026-05-01T14:09:39Z</time></trkpt><trkpt lat="45.69876139444876" lon="10.759299763854456"><ele>79.0</ele><time>2026-05-01T14:09:40Z</time></trkpt><trkpt lat="45.69865563239703" lon="10.75920400518309"><ele>79.5</ele><time>2026-05-01T14:09:41Z</time></trkpt><trkpt lat="45.698547463790526" lon="10.759106067599957"><ele>80.0</ele><time>2026-05-01T14:09:42Z</time></trkpt><trkpt lat="45.69843908861716" lon="10.759009459859477"><ele>80.0</ele><time>2026-05-01T14:09:43Z</time></trkpt><trkpt lat="45.69833100603472" lon="10.758920262069646"><ele>80.0</ele><time>2026-05-01T14:09:44Z</time></trkpt><trkpt lat="45.69822751199193" lon="10.75882817600843"><ele>80.0</ele><time>2026-05-01T14:09:45Z</time></trkpt><trkpt lat="45.69811881558805" lon="10.758735304498872"><ele>80.0</ele><time>2026-05-01T14:09:46Z</time></trkpt><trkpt lat="45.698008253493384" lon="10.758633472732216"><ele>79.5</ele><time>2026-05-01T14:09:47Z</time></trkpt><trkpt lat="45.69789468855162" lon="10.758526426719548"><ele>79.0</ele><time>2026-05-01T14:09:48Z</time></trkpt><trkpt lat="45.69777983363295" lon="10.758423551343792"><ele>78.5</ele><time>2026-05-01T14:09:49Z</time></trkpt><trkpt lat="45.697662922080234" lon="10.758324400269183"><ele>78.0</ele><time>2026-05-01T14:09:50Z</time></trkpt><trkpt lat="45.69754352972444" lon="10.758226979572772"><ele>78.0</ele><time>2026-05-01T14:09:51Z</time></trkpt><trkpt lat="45.697430979319385" lon="10.758117943374804"><ele>78.0</ele><time>2026-05-01T14:09:52Z</time></trkpt><trkpt lat="45.69730241011805" lon="10.75801441829286"><ele>78.0</ele><time>2026-05-01T14:09:53Z</time></trkpt><trkpt lat="45.697165634372176" lon="10.757884933390292"><ele>78.0</ele><time>2026-05-01T14:09:54Z</time></trkpt><trkpt lat="45.697021887207946" lon="10.757752705023035"><ele>76.66666666666667</ele><time>2026-05-01T14:09:55Z</time></trkpt><trkpt lat="45.696893524613685" lon="10.757594996329626"><ele>75.33333333333334</ele><time>2026-05-01T14:09:56Z</time></trkpt><trkpt lat="45.69677371249589" lon="10.757448505744183"><ele>74.0</ele><time>2026-05-01T14:09:57Z</time></trkpt><trkpt lat="45.69666684623599" lon="10.757311840768162"><ele>74.0</ele><time>2026-05-01T14:09:58Z</time></trkpt><trkpt lat="45.69656111639807" lon="10.757170135452073"><ele>74.0</ele><time>2026-05-01T14:09:59Z</time></trkpt><trkpt lat="45.696468903794084" lon="10.757043008105262"><ele>74.0</ele><time>2026-05-01T14:10:00Z</time></trkpt><trkpt lat="45.69637490255726" lon="10.75692152263441"><ele>74.0</ele><time>2026-05-01T14:10:01Z</time></trkpt><trkpt lat="45.69629264708763" lon="10.756810555546744"><ele>73.0</ele><time>2026-05-01T14:10:02Z</time></trkpt><trkpt lat="45.69620501287377" lon="10.756700549495838"><ele>72.0</ele><time>2026-05-01T14:10:03Z</time></trkpt><trkpt lat="45.69611848045363" lon="10.756591056579508"><ele>71.0</ele><time>2026-05-01T14:10:04Z</time></trkpt><trkpt lat="45.69602471344179" lon="10.756474279010986"><ele>70.0</ele><time>2026-05-01T14:10:05Z</time></trkpt><trkpt lat="45.69592817005435" lon="10.756360108104294"><ele>70.0</ele><time>2026-05-01T14:10:06Z</time></trkpt><trkpt lat="45.69582878914008" lon="10.756264009769579"><ele>70.0</ele><time>2026-05-01T14:10:07Z</time></trkpt><trkpt lat="45.69572146321514" lon="10.75617772813882"><ele>70.0</ele><time>2026-05-01T14:10:08Z</time></trkpt><trkpt lat="45.695613229051226" lon="10.756092911731931"><ele>70.0</ele><time>2026-05-01T14:10:09Z</time></trkpt><trkpt lat="45.69550443324416" lon="10.756008066491152"><ele>70.0</ele><time>2026-05-01T14:10:10Z</time></trkpt><trkpt lat="45.69538437048343" lon="10.755943338404691"><ele>70.0</ele><time>2026-05-01T14:10:11Z</time></trkpt><trkpt lat="45.695257123066135" lon="10.75588589548189"><ele>70.0</ele><time>2026-05-01T14:10:12Z</time></trkpt><trkpt lat="45.69512853016533" lon="10.75583629058492"><ele>70.0</ele><time>2026-05-01T14:10:13Z</time></trkpt><trkpt lat="45.69499718378613" lon="10.755777987638302"><ele>70.0</ele><time>2026-05-01T14:10:14Z</time></trkpt><trkpt lat="45.69484472907982" lon="10.755682382033612"><ele>70.0</ele><time>2026-05-01T14:10:15Z</time></trkpt><trkpt lat="45.694679936450854" lon="10.755601266267924"><ele>70.0</ele><time>2026-05-01T14:10:16Z</time></trkpt><trkpt lat="45.69449311372332" lon="10.755529627011004"><ele>72.66666666666666</ele><time>2026-05-01T14:10:17Z</time></trkpt><trkpt lat="45.694323136735804" lon="10.755430737393029"><ele>75.33333333333333</ele><time>2026-05-01T14:10:18Z</time></trkpt><trkpt lat="45.694135749147144" lon="10.755336889120008"><ele>78.0</ele><time>2026-05-01T14:10:19Z</time></trkpt><trkpt lat="45.69393752347373" lon="10.755227696358425"><ele>78.33333333333333</ele><time>2026-05-01T14:10:20Z</time></trkpt><trkpt lat="45.69374416008281" lon="10.755077934318109"><ele>78.66666666666666</ele><time>2026-05-01T14:10:21Z</time></trkpt><trkpt lat="45.69356277303835" lon="10.754921803677318"><ele>79.0</ele><time>2026-05-01T14:10:22Z</time></trkpt><trkpt lat="45.693379657879" lon="10.754760625122008"><ele>79.0</ele><time>2026-05-01T14:10:23Z</time></trkpt><trkpt lat="45.693198300187426" lon="10.754606925340866"><ele>79.0</ele><time>2026-05-01T14:10:24Z</time></trkpt><trkpt lat="45.69302533823186" lon="10.754458047726414"><ele>79.0</ele><time>2026-05-01T14:10:25Z</time></trkpt><trkpt lat="45.69284904963374" lon="10.754312500899161"><ele>77.0</ele><time>2026-05-01T14:10:26Z</time></trkpt><trkpt lat="45.69268580793091" lon="10.75417518362739"><ele>75.0</ele><time>2026-05-01T14:10:27Z</time></trkpt><trkpt lat="45.69252769319772" lon="10.754041942174746"><ele>73.0</ele><time>2026-05-01T14:10:28Z</time></trkpt><trkpt lat="45.692365649266925" lon="10.753912460190453"><ele>73.0</ele><time>2026-05-01T14:10:29Z</time></trkpt><trkpt lat="45.69221424395414" lon="10.753787160838874"><ele>73.0</ele><time>2026-05-01T14:10:30Z</time></trkpt><trkpt lat="45.692057116510526" lon="10.75365700014869"><ele>73.0</ele><time>2026-05-01T14:10:31Z</time></trkpt><trkpt lat="45.691914853043194" lon="10.75351199760973"><ele>73.0</ele><time>2026-05-01T14:10:32Z</time></trkpt><trkpt lat="45.691757357836416" lon="10.753376891450962"><ele>73.0</ele><time>2026-05-01T14:10:33Z</time></trkpt><trkpt lat="45.69159394563336" lon="10.75325767529362"><ele>73.0</ele><time>2026-05-01T14:10:34Z</time></trkpt><trkpt lat="45.691443872403056" lon="10.753128275396023"><ele>73.0</ele><time>2026-05-01T14:10:35Z</time></trkpt><trkpt lat="45.69129908410322" lon="10.75299811989588"><ele>73.0</ele><time>2026-05-01T14:10:36Z</time></trkpt><trkpt lat="45.691157116058186" lon="10.752874658665165"><ele>73.0</ele><time>2026-05-01T14:10:37Z</time></trkpt><trkpt lat="45.69102626520316" lon="10.752764004810937"><ele>72.0</ele><time>2026-05-01T14:10:38Z</time></trkpt><trkpt lat="45.69089386526864" lon="10.752652999105377"><ele>71.0</ele><time>2026-05-01T14:10:39Z</time></trkpt><trkpt lat="45.690760685628796" lon="10.752544868132105"><ele>70.0</ele><time>2026-05-01T14:10:40Z</time></trkpt><trkpt lat="45.690618694590576" lon="10.752438535946483"><ele>70.0</ele><time>2026-05-01T14:10:41Z</time></trkpt><trkpt lat="45.690473680588276" lon="10.752338216658728"><ele>70.0</ele><time>2026-05-01T14:10:42Z</time></trkpt><trkpt lat="45.690341155898615" lon="10.752251406382303"><ele>70.0</ele><time>2026-05-01T14:10:43Z</time></trkpt><trkpt lat="45.6902155769853" lon="10.752165644138943"><ele>70.0</ele><time>2026-05-01T14:10:44Z</time></trkpt><trkpt lat="45.6900977739693" lon="10.752081250095909"><ele>69.25</ele><time>2026-05-01T14:10:45Z</time></trkpt><trkpt lat="45.68998258172657" lon="10.75200285425055"><ele>68.5</ele><time>2026-05-01T14:10:46Z</time></trkpt><trkpt lat="45.68987037139862" lon="10.751929850917069"><ele>67.75</ele><time>2026-05-01T14:10:47Z</time></trkpt><trkpt lat="45.68975981857362" lon="10.751856982546316"><ele>67.0</ele><time>2026-05-01T14:10:48Z</time></trkpt><trkpt lat="45.68964501839535" lon="10.751784027347622"><ele>67.0</ele><time>2026-05-01T14:10:49Z</time></trkpt><trkpt lat="45.689535492498614" lon="10.751714558696195"><ele>67.0</ele><time>2026-05-01T14:10:50Z</time></trkpt><trkpt lat="45.68942420193039" lon="10.75163041420463"><ele>67.0</ele><time>2026-05-01T14:10:51Z</time></trkpt><trkpt lat="45.689322296893806" lon="10.751562073520459"><ele>67.0</ele><time>2026-05-01T14:10:52Z</time></trkpt><trkpt lat="45.68922741403086" lon="10.751457112899182"><ele>67.8</ele><time>2026-05-01T14:10:53Z</time></trkpt><trkpt lat="45.689116828708286" lon="10.751417308507076"><ele>68.6</ele><time>2026-05-01T14:10:54Z</time></trkpt><trkpt lat="45.689020358127586" lon="10.751361971869999"><ele>69.39999999999999</ele><time>2026-05-01T14:10:55Z</time></trkpt><trkpt lat="45.688918742343944" lon="10.751299028344613"><ele>70.2</ele><time>2026-05-01T14:10:56Z</time></trkpt><trkpt lat="45.68881648438703" lon="10.751238278778365"><ele>71.0</ele><time>2026-05-01T14:10:57Z</time></trkpt><trkpt lat="45.68871745136551" lon="10.751192399938729"><ele>71.0</ele><time>2026-05-01T14:10:58Z</time></trkpt><trkpt lat="45.6886427976345" lon="10.751105495082424"><ele>71.0</ele><time>2026-05-01T14:10:59Z</time></trkpt><trkpt lat="45.68856575134138" lon="10.751058502885321"><ele>71.0</ele><time>2026-05-01T14:11:00Z</time></trkpt><trkpt lat="45.68848253747105" lon="10.751006247428666"><ele>71.0</ele><time>2026-05-01T14:11:01Z</time></trkpt><trkpt lat="45.68840847468646" lon="10.750959738557357"><ele>71.0</ele><time>2026-05-01T14:11:02Z</time></trkpt><trkpt lat="45.68833638161432" lon="10.750913408724646"><ele>71.0</ele><time>2026-05-01T14:11:03Z</time></trkpt><trkpt lat="45.68826409285432" lon="10.750866977451226"><ele>70.83333333333334</ele><time>2026-05-01T14:11:04Z</time></trkpt><trkpt lat="45.688193359369706" lon="10.750820551221969"><ele>70.66666666666667</ele><time>2026-05-01T14:11:05Z</time></trkpt><trkpt lat="45.68811917842276" lon="10.750795383171813"><ele>70.5</ele><time>2026-05-01T14:11:06Z</time></trkpt><trkpt lat="45.68805445176714" lon="10.750735572737863"><ele>70.33333333333333</ele><time>2026-05-01T14:11:07Z</time></trkpt><trkpt lat="45.68799142368249" lon="10.750702812786415"><ele>70.16666666666666</ele><time>2026-05-01T14:11:08Z</time></trkpt><trkpt lat="45.687925928153284" lon="10.750662306487879"><ele>70.0</ele><time>2026-05-01T14:11:09Z</time></trkpt><trkpt lat="45.68784873190393" lon="10.750626776190632"><ele>70.0</ele><time>2026-05-01T14:11:10Z</time></trkpt><trkpt lat="45.68777965243185" lon="10.750571437200689"><ele>70.0</ele><time>2026-05-01T14:11:11Z</time></trkpt><trkpt lat="45.68770499197678" lon="10.750528580303305"><ele>70.0</ele><time>2026-05-01T14:11:12Z</time></trkpt><trkpt lat="45.68763050487631" lon="10.750478166545209"><ele>70.0</ele><time>2026-05-01T14:11:13Z</time></trkpt><trkpt lat="45.68756025883756" lon="10.75042455661694"><ele>70.0</ele><time>2026-05-01T14:11:14Z</time></trkpt><trkpt lat="45.68749787156673" lon="10.750383734963496"><ele>70.0</ele><time>2026-05-01T14:11:15Z</time></trkpt><trkpt lat="45.68743666773278" lon="10.75032085019803"><ele>69.66666666666666</ele><time>2026-05-01T14:11:16Z</time></trkpt><trkpt lat="45.687376157387966" lon="10.750256042201025"><ele>69.33333333333333</ele><time>2026-05-01T14:11:17Z</time></trkpt><trkpt lat="45.68731546119816" lon="10.750193749254485"><ele>69.0</ele><time>2026-05-01T14:11:18Z</time></trkpt><trkpt lat="45.68724956501471" lon="10.750133982899065"><ele>68.66666666666667</ele><time>2026-05-01T14:11:19Z</time></trkpt><trkpt lat="45.687182269853146" lon="10.750075668981388"><ele>68.33333333333334</ele><time>2026-05-01T14:11:20Z</time></trkpt><trkpt lat="45.687108923642626" lon="10.750016585801356"><ele>68.0</ele><time>2026-05-01T14:11:21Z</time></trkpt><trkpt lat="45.68704509214971" lon="10.749947360803874"><ele>68.0</ele><time>2026-05-01T14:11:22Z</time></trkpt><trkpt lat="45.68696796465212" lon="10.749891481939436"><ele>68.0</ele><time>2026-05-01T14:11:23Z</time></trkpt><trkpt lat="45.68689664463972" lon="10.749850211298147"><ele>68.0</ele><time>2026-05-01T14:11:24Z</time></trkpt><trkpt lat="45.686832226755364" lon="10.749803001037465"><ele>68.0</ele><time>2026-05-01T14:11:25Z</time></trkpt><trkpt lat="45.686772366781895" lon="10.749715831420598"><ele>68.0</ele><time>2026-05-01T14:11:26Z</time></trkpt><trkpt lat="45.68671550348536" lon="10.7496282067442"><ele>68.0</ele><time>2026-05-01T14:11:27Z</time></trkpt><trkpt lat="45.686646209710446" lon="10.74955507632994"><ele>67.83333333333334</ele><time>2026-05-01T14:11:28Z</time></trkpt><trkpt lat="45.68659397556429" lon="10.749465127529247"><ele>67.66666666666667</ele><time>2026-05-01T14:11:29Z</time></trkpt><trkpt lat="45.6865153861125" lon="10.749405074160094"><ele>67.5</ele><time>2026-05-01T14:11:30Z</time></trkpt><trkpt lat="45.68642999446143" lon="10.749361516333725"><ele>67.33333333333333</ele><time>2026-05-01T14:11:31Z</time></trkpt><trkpt lat="45.686346645850584" lon="10.749312392504356"><ele>67.16666666666666</ele><time>2026-05-01T14:11:32Z</time></trkpt><trkpt lat="45.686272858738015" lon="10.749259536885619"><ele>67.0</ele><time>2026-05-01T14:11:33Z</time></trkpt><trkpt lat="45.68619960409595" lon="10.749216801910565"><ele>67.0</ele><time>2026-05-01T14:11:34Z</time></trkpt><trkpt lat="45.686106403857494" lon="10.749150985717488"><ele>67.0</ele><time>2026-05-01T14:11:35Z</time></trkpt><trkpt lat="45.68601230131228" lon="10.749110463225778"><ele>67.0</ele><time>2026-05-01T14:11:36Z</time></trkpt><trkpt lat="45.68592759734479" lon="10.7490458824348"><ele>67.0</ele><time>2026-05-01T14:11:37Z</time></trkpt><trkpt lat="45.68583703051363" lon="10.748996108700908"><ele>67.0</ele><time>2026-05-01T14:11:38Z</time></trkpt><trkpt lat="45.68574943457481" lon="10.748951851008801"><ele>68.0</ele><time>2026-05-01T14:11:39Z</time></trkpt><trkpt lat="45.68565842834461" lon="10.748903280825207"><ele>69.0</ele><time>2026-05-01T14:11:40Z</time></trkpt><trkpt lat="45.68556017207023" lon="10.748857914252973"><ele>70.0</ele><time>2026-05-01T14:11:41Z</time></trkpt><trkpt lat="45.68546508654885" lon="10.748799621485297"><ele>71.0</ele><time>2026-05-01T14:11:42Z</time></trkpt><trkpt lat="45.685363126230804" lon="10.748741532452762"><ele>72.0</ele><time>2026-05-01T14:11:43Z</time></trkpt><trkpt lat="45.6852623028529" lon="10.748682573209434"><ele>71.4</ele><time>2026-05-01T14:11:44Z</time></trkpt><trkpt lat="45.68516049327817" lon="10.74862394830773"><ele>70.80000000000001</ele><time>2026-05-01T14:11:45Z</time></trkpt><trkpt lat="45.68506119829816" lon="10.748566065369523"><ele>70.2</ele><time>2026-05-01T14:11:46Z</time></trkpt><trkpt lat="45.684958540070014" lon="10.748495704087391"><ele>69.60000000000001</ele><time>2026-05-01T14:11:47Z</time></trkpt><trkpt lat="45.68485779934809" lon="10.748431202514695"><ele>69.0</ele><time>2026-05-01T14:11:48Z</time></trkpt><trkpt lat="45.68476131682719" lon="10.748354690317607"><ele>69.0</ele><time>2026-05-01T14:11:49Z</time></trkpt><trkpt lat="45.684655572980255" lon="10.748284170614921"><ele>69.0</ele><time>2026-05-01T14:11:50Z</time></trkpt><trkpt lat="45.68455193598241" lon="10.748205538614975"><ele>69.0</ele><time>2026-05-01T14:11:51Z</time></trkpt><trkpt lat="45.68444803294039" lon="10.748121485216277"><ele>69.0</ele><time>2026-05-01T14:11:52Z</time></trkpt><trkpt lat="45.68434827676075" lon="10.748000209149795"><ele>68.66666666666667</ele><time>2026-05-01T14:11:53Z</time></trkpt><trkpt lat="45.68421753167642" lon="10.747872345043316"><ele>68.33333333333334</ele><time>2026-05-01T14:11:54Z</time></trkpt><trkpt lat="45.68405610170245" lon="10.747713640910845"><ele>68.0</ele><time>2026-05-01T14:11:55Z</time></trkpt><trkpt lat="45.68387914446211" lon="10.747561000446376"><ele>68.0</ele><time>2026-05-01T14:11:56Z</time></trkpt><trkpt lat="45.68371162737295" lon="10.747381591104647"><ele>68.0</ele><time>2026-05-01T14:11:57Z</time></trkpt><trkpt lat="45.68352496572805" lon="10.747204910059585"><ele>68.0</ele><time>2026-05-01T14:11:58Z</time></trkpt><trkpt lat="45.68334350129605" lon="10.74702826007544"><ele>69.33333333333334</ele><time>2026-05-01T14:11:59Z</time></trkpt><trkpt lat="45.68316534309653" lon="10.74685001068519"><ele>70.66666666666667</ele><time>2026-05-01T14:12:00Z</time></trkpt><trkpt lat="45.68299779348268" lon="10.746672608356931"><ele>72.0</ele><time>2026-05-01T14:12:01Z</time></trkpt><trkpt lat="45.68283035832165" lon="10.746506558626276"><ele>72.33333333333333</ele><time>2026-05-01T14:12:02Z</time></trkpt><trkpt lat="45.682662974411826" lon="10.746346224092747"><ele>72.66666666666666</ele><time>2026-05-01T14:12:03Z</time></trkpt><trkpt lat="45.68249763650909" lon="10.746185605883113"><ele>73.0</ele><time>2026-05-01T14:12:04Z</time></trkpt><trkpt lat="45.68233251131294" lon="10.746025920828172"><ele>73.0</ele><time>2026-05-01T14:12:05Z</time></trkpt><trkpt lat="45.68216461574871" lon="10.745862168850309"><ele>73.0</ele><time>2026-05-01T14:12:06Z</time></trkpt><trkpt lat="45.68199956407246" lon="10.745707782626543"><ele>73.0</ele><time>2026-05-01T14:12:07Z</time></trkpt><trkpt lat="45.68183574552372" lon="10.745547433950918"><ele>72.33333333333333</ele><time>2026-05-01T14:12:08Z</time></trkpt><trkpt lat="45.68166804410035" lon="10.74538746512619"><ele>71.66666666666667</ele><time>2026-05-01T14:12:09Z</time></trkpt><trkpt lat="45.68150933670137" lon="10.745230443262672"><ele>71.0</ele><time>2026-05-01T14:12:10Z</time></trkpt><trkpt lat="45.68136553089837" lon="10.74506319455049"><ele>71.0</ele><time>2026-05-01T14:12:11Z</time></trkpt><trkpt lat="45.68121003625739" lon="10.744909875917983"><ele>71.0</ele><time>2026-05-01T14:12:12Z</time></trkpt><trkpt lat="45.68105085446298" lon="10.744752921751148"><ele>71.0</ele><time>2026-05-01T14:12:13Z</time></trkpt><trkpt lat="45.68089122243817" lon="10.744595163034177"><ele>70.0</ele><time>2026-05-01T14:12:14Z</time></trkpt><trkpt lat="45.680734778485" lon="10.744439164699005"><ele>69.0</ele><time>2026-05-01T14:12:15Z</time></trkpt><trkpt lat="45.68058354021937" lon="10.744277915417253"><ele>68.0</ele><time>2026-05-01T14:12:16Z</time></trkpt><trkpt lat="45.68044900541632" lon="10.744112913153081"><ele>68.0</ele><time>2026-05-01T14:12:17Z</time></trkpt><trkpt lat="45.680306075026124" lon="10.743940574451218"><ele>68.0</ele><time>2026-05-01T14:12:18Z</time></trkpt><trkpt lat="45.68018286805404" lon="10.743730675606457"><ele>68.0</ele><time>2026-05-01T14:12:19Z</time></trkpt><trkpt lat="45.68007758969649" lon="10.743506579450045"><ele>69.33333333333334</ele><time>2026-05-01T14:12:20Z</time></trkpt><trkpt lat="45.67995175850185" lon="10.743302800557993"><ele>70.66666666666667</ele><time>2026-05-01T14:12:21Z</time></trkpt><trkpt lat="45.67983634820541" lon="10.743079607350975"><ele>72.0</ele><time>2026-05-01T14:12:22Z</time></trkpt><trkpt lat="45.67971762273513" lon="10.742863849868689"><ele>73.0</ele><time>2026-05-01T14:12:23Z</time></trkpt><trkpt lat="45.67960465871111" lon="10.742643950143961"><ele>74.0</ele><time>2026-05-01T14:12:24Z</time></trkpt><trkpt lat="45.679482148135065" lon="10.742423785450516"><ele>75.0</ele><time>2026-05-01T14:12:25Z</time></trkpt><trkpt lat="45.67935747790759" lon="10.742199402471384"><ele>75.0</ele><time>2026-05-01T14:12:26Z</time></trkpt><trkpt lat="45.679235234121606" lon="10.741972841541566"><ele>75.0</ele><time>2026-05-01T14:12:27Z</time></trkpt><trkpt lat="45.679102807377305" lon="10.741767476487714"><ele>75.0</ele><time>2026-05-01T14:12:28Z</time></trkpt><trkpt lat="45.6789656803635" lon="10.741570746981935"><ele>76.0</ele><time>2026-05-01T14:12:29Z</time></trkpt><trkpt lat="45.678827866290376" lon="10.741387538407665"><ele>77.0</ele><time>2026-05-01T14:12:30Z</time></trkpt><trkpt lat="45.678683620476015" lon="10.741222115723158"><ele>78.0</ele><time>2026-05-01T14:12:31Z</time></trkpt><trkpt lat="45.678534891441124" lon="10.74107755910641"><ele>74.33333333333333</ele><time>2026-05-01T14:12:32Z</time></trkpt><trkpt lat="45.67838120719403" lon="10.740929533806838"><ele>70.66666666666666</ele><time>2026-05-01T14:12:33Z</time></trkpt><trkpt lat="45.67823297479947" lon="10.740802558025898"><ele>67.0</ele><time>2026-05-01T14:12:34Z</time></trkpt><trkpt lat="45.678090256346884" lon="10.740697309671257"><ele>67.0</ele><time>2026-05-01T14:12:35Z</time></trkpt><trkpt lat="45.67793687060744" lon="10.740594197570509"><ele>67.0</ele><time>2026-05-01T14:12:36Z</time></trkpt><trkpt lat="45.67778199514467" lon="10.740493569414776"><ele>67.0</ele><time>2026-05-01T14:12:37Z</time></trkpt><trkpt lat="45.67762706548559" lon="10.740395056592257"><ele>67.0</ele><time>2026-05-01T14:12:38Z</time></trkpt><trkpt lat="45.6774652037517" lon="10.740296927517466"><ele>67.0</ele><time>2026-05-01T14:12:39Z</time></trkpt><trkpt lat="45.67730785974409" lon="10.740192829763872"><ele>67.0</ele><time>2026-05-01T14:12:40Z</time></trkpt><trkpt lat="45.677151040191504" lon="10.740096985970704"><ele>67.0</ele><time>2026-05-01T14:12:41Z</time></trkpt><trkpt lat="45.676998550872476" lon="10.739990552045374"><ele>67.0</ele><time>2026-05-01T14:12:42Z</time></trkpt><trkpt lat="45.67683758209791" lon="10.739893088200898"><ele>67.0</ele><time>2026-05-01T14:12:43Z</time></trkpt><trkpt lat="45.67667388731654" lon="10.739793199504053"><ele>69.33333333333333</ele><time>2026-05-01T14:12:44Z</time></trkpt><trkpt lat="45.676518524582576" lon="10.739686134207073"><ele>71.66666666666667</ele><time>2026-05-01T14:12:45Z</time></trkpt><trkpt lat="45.67635752436399" lon="10.73958526318984"><ele>74.0</ele><time>2026-05-01T14:12:46Z</time></trkpt><trkpt lat="45.67619394555438" lon="10.739484302229805"><ele>71.66666666666667</ele><time>2026-05-01T14:12:47Z</time></trkpt><trkpt lat="45.676034420418375" lon="10.73938169670823"><ele>69.33333333333333</ele><time>2026-05-01T14:12:48Z</time></trkpt><trkpt lat="45.675869839274114" lon="10.739271016150928"><ele>67.0</ele><time>2026-05-01T14:12:49Z</time></trkpt><trkpt lat="45.67570732594908" lon="10.739163670440904"><ele>67.0</ele><time>2026-05-01T14:12:50Z</time></trkpt><trkpt lat="45.675548371817385" lon="10.73906940178622"><ele>67.0</ele><time>2026-05-01T14:12:51Z</time></trkpt><trkpt lat="45.67539280159901" lon="10.738968800538336"><ele>67.0</ele><time>2026-05-01T14:12:52Z</time></trkpt><trkpt lat="45.67523409768439" lon="10.738871456740387"><ele>67.0</ele><time>2026-05-01T14:12:53Z</time></trkpt><trkpt lat="45.67508466017383" lon="10.738748895373277"><ele>67.0</ele><time>2026-05-01T14:12:54Z</time></trkpt><trkpt lat="45.674925723192416" lon="10.738647324535952"><ele>67.0</ele><time>2026-05-01T14:12:55Z</time></trkpt><trkpt lat="45.674768080356046" lon="10.738546589918196"><ele>67.0</ele><time>2026-05-01T14:12:56Z</time></trkpt><trkpt lat="45.67461224449039" lon="10.738447009047997"><ele>67.0</ele><time>2026-05-01T14:12:57Z</time></trkpt><trkpt lat="45.67445868412927" lon="10.738350315671402"><ele>67.0</ele><time>2026-05-01T14:12:58Z</time></trkpt><trkpt lat="45.67431091995943" lon="10.738256393888266"><ele>70.66666666666666</ele><time>2026-05-01T14:12:59Z</time></trkpt><trkpt lat="45.6741670671891" lon="10.73816403418981"><ele>74.33333333333333</ele><time>2026-05-01T14:13:00Z</time></trkpt><trkpt lat="45.674025380773635" lon="10.738064741086268"><ele>78.0</ele><time>2026-05-01T14:13:01Z</time></trkpt><trkpt lat="45.67389273264712" lon="10.737959661155585"><ele>78.0</ele><time>2026-05-01T14:13:02Z</time></trkpt><trkpt lat="45.67376037928618" lon="10.737845296568395"><ele>78.0</ele><time>2026-05-01T14:13:03Z</time></trkpt><trkpt lat="45.67363517718563" lon="10.737729683546936"><ele>78.0</ele><time>2026-05-01T14:13:04Z</time></trkpt><trkpt lat="45.673501433613964" lon="10.737627171354944"><ele>76.0</ele><time>2026-05-01T14:13:05Z</time></trkpt><trkpt lat="45.6733770776616" lon="10.737504795161666"><ele>74.0</ele><time>2026-05-01T14:13:06Z</time></trkpt><trkpt lat="45.673257617632025" lon="10.737386287976108"><ele>72.0</ele><time>2026-05-01T14:13:07Z</time></trkpt><trkpt lat="45.673149730716666" lon="10.737277559048984"><ele>70.0</ele><time>2026-05-01T14:13:08Z</time></trkpt><trkpt lat="45.67305344428882" lon="10.737176297262517"><ele>70.0</ele><time>2026-05-01T14:13:09Z</time></trkpt><trkpt lat="45.67295558801036" lon="10.737071838246205"><ele>70.0</ele><time>2026-05-01T14:13:10Z</time></trkpt><trkpt lat="45.672858788588925" lon="10.736971515887452"><ele>70.0</ele><time>2026-05-01T14:13:11.001Z</time></trkpt><trkpt lat="45.672758094039814" lon="10.736864376035756"><ele>70.0</ele><time>2026-05-01T14:13:12.001Z</time></trkpt><trkpt lat="45.672655517101134" lon="10.736761847366534"><ele>71.0</ele><time>2026-05-01T14:13:13Z</time></trkpt><trkpt lat="45.67254371677179" lon="10.736664986676184"><ele>72.0</ele><time>2026-05-01T14:13:14Z</time></trkpt><trkpt lat="45.67242930298917" lon="10.73657356035739"><ele>73.0</ele><time>2026-05-01T14:13:15Z</time></trkpt><trkpt lat="45.67232247641511" lon="10.736480362700284"><ele>74.0</ele><time>2026-05-01T14:13:16Z</time></trkpt><trkpt lat="45.67222557733874" lon="10.736390917781806"><ele>74.0</ele><time>2026-05-01T14:13:17Z</time></trkpt><trkpt lat="45.6721435541114" lon="10.736317040346545"><ele>74.0</ele><time>2026-05-01T14:13:18Z</time></trkpt><trkpt lat="45.67208339228997" lon="10.736235492164386"><ele>74.0</ele><time>2026-05-01T14:13:19Z</time></trkpt><trkpt lat="45.67201142801046" lon="10.736196883789189"><ele>74.0</ele><time>2026-05-01T14:13:20Z</time></trkpt><trkpt lat="45.671946741989956" lon="10.736136746311507"><ele>74.0</ele><time>2026-05-01T14:13:21Z</time></trkpt><trkpt lat="45.671879918489175" lon="10.73605742029851"><ele>74.0</ele><time>2026-05-01T14:13:22Z</time></trkpt><trkpt lat="45.6718117779803" lon="10.735996272347343"><ele>74.0</ele><time>2026-05-01T14:13:23Z</time></trkpt><trkpt lat="45.671740388403265" lon="10.735931695713948"><ele>74.0</ele><time>2026-05-01T14:13:24Z</time></trkpt><trkpt lat="45.671662832454565" lon="10.735859412153792"><ele>74.0</ele><time>2026-05-01T14:13:25Z</time></trkpt><trkpt lat="45.67158650739534" lon="10.735769985377265"><ele>74.0</ele><time>2026-05-01T14:13:26Z</time></trkpt><trkpt lat="45.67149577647224" lon="10.735689480030619"><ele>74.0</ele><time>2026-05-01T14:13:27Z</time></trkpt><trkpt lat="45.67140011152649" lon="10.735596395184773"><ele>74.0</ele><time>2026-05-01T14:13:28Z</time></trkpt><trkpt lat="45.671299335009984" lon="10.73550538157715"><ele>74.0</ele><time>2026-05-01T14:13:29Z</time></trkpt><trkpt lat="45.671203438936836" lon="10.735418998077629"><ele>74.0</ele><time>2026-05-01T14:13:30Z</time></trkpt><trkpt lat="45.671101760891744" lon="10.735326763901055"><ele>74.0</ele><time>2026-05-01T14:13:31Z</time></trkpt><trkpt lat="45.67100829360246" lon="10.735225958471203"><ele>74.5</ele><time>2026-05-01T14:13:32Z</time></trkpt><trkpt lat="45.67090062520656" lon="10.735128463820361"><ele>75.0</ele><time>2026-05-01T14:13:33Z</time></trkpt><trkpt lat="45.67079077803761" lon="10.735021648713186"><ele>75.5</ele><time>2026-05-01T14:13:34Z</time></trkpt><trkpt lat="45.67068594323638" lon="10.734912342978308"><ele>76.0</ele><time>2026-05-01T14:13:35Z</time></trkpt><trkpt lat="45.67057281124919" lon="10.734805885279227"><ele>76.0</ele><time>2026-05-01T14:13:36Z</time></trkpt><trkpt lat="45.670455062583535" lon="10.7346905289374"><ele>76.0</ele><time>2026-05-01T14:13:37Z</time></trkpt><trkpt lat="45.67033384480526" lon="10.734580954485907"><ele>76.0</ele><time>2026-05-01T14:13:38Z</time></trkpt><trkpt lat="45.6702146305147" lon="10.734457436696273"><ele>76.0</ele><time>2026-05-01T14:13:39Z</time></trkpt><trkpt lat="45.670089720540474" lon="10.734350515248503"><ele>75.25</ele><time>2026-05-01T14:13:40Z</time></trkpt><trkpt lat="45.6699673556757" lon="10.734231318292979"><ele>74.5</ele><time>2026-05-01T14:13:41Z</time></trkpt><trkpt lat="45.6698524050933" lon="10.734101660215043"><ele>73.75</ele><time>2026-05-01T14:13:42Z</time></trkpt><trkpt lat="45.6697285289433" lon="10.733993331379667"><ele>73.0</ele><time>2026-05-01T14:13:43Z</time></trkpt><trkpt lat="45.66959807997379" lon="10.7338834608155"><ele>73.0</ele><time>2026-05-01T14:13:44Z</time></trkpt><trkpt lat="45.66947042349366" lon="10.733762860750172"><ele>73.0</ele><time>2026-05-01T14:13:45Z</time></trkpt><trkpt lat="45.66935190244604" lon="10.733631787086427"><ele>73.0</ele><time>2026-05-01T14:13:46Z</time></trkpt><trkpt lat="45.66922279135994" lon="10.73351352066212"><ele>71.5</ele><time>2026-05-01T14:13:47Z</time></trkpt><trkpt lat="45.66909997422205" lon="10.733394370954647"><ele>70.0</ele><time>2026-05-01T14:13:48Z</time></trkpt><trkpt lat="45.668983472009636" lon="10.733276544612416"><ele>68.5</ele><time>2026-05-01T14:13:49Z</time></trkpt><trkpt lat="45.668871544108896" lon="10.733162309553148"><ele>67.0</ele><time>2026-05-01T14:13:50Z</time></trkpt><trkpt lat="45.668762189615244" lon="10.733064170257002"><ele>67.0</ele><time>2026-05-01T14:13:51Z</time></trkpt><trkpt lat="45.668652435167836" lon="10.732966086969752"><ele>67.0</ele><time>2026-05-01T14:13:52Z</time></trkpt><trkpt lat="45.668535272833864" lon="10.732856572752492"><ele>67.0</ele><time>2026-05-01T14:13:53Z</time></trkpt><trkpt lat="45.66842222013587" lon="10.732741099127047"><ele>67.0</ele><time>2026-05-01T14:13:54Z</time></trkpt><trkpt lat="45.66830213973825" lon="10.732634764004759"><ele>67.25</ele><time>2026-05-01T14:13:55Z</time></trkpt><trkpt lat="45.668184466689574" lon="10.732537381068129"><ele>67.5</ele><time>2026-05-01T14:13:56Z</time></trkpt><trkpt lat="45.66806571437985" lon="10.732446277414493"><ele>67.75</ele><time>2026-05-01T14:13:57Z</time></trkpt><trkpt lat="45.66794225800992" lon="10.73235790103469"><ele>68.0</ele><time>2026-05-01T14:13:58Z</time></trkpt><trkpt lat="45.66781086208097" lon="10.732273252061265"><ele>73.33333333333334</ele><time>2026-05-01T14:13:59Z</time></trkpt><trkpt lat="45.66767377176667" lon="10.73218675357704"><ele>78.66666666666667</ele><time>2026-05-01T14:14:00Z</time></trkpt><trkpt lat="45.667536573835356" lon="10.73210770789647"><ele>84.0</ele><time>2026-05-01T14:14:01Z</time></trkpt><trkpt lat="45.6673904747408" lon="10.732015476538548"><ele>84.0</ele><time>2026-05-01T14:14:02Z</time></trkpt><trkpt lat="45.6672508947762" lon="10.731911200012267"><ele>84.0</ele><time>2026-05-01T14:14:03Z</time></trkpt><trkpt lat="45.66710842361908" lon="10.731820400613175"><ele>84.0</ele><time>2026-05-01T14:14:04Z</time></trkpt><trkpt lat="45.666971330819685" lon="10.731733945963557"><ele>81.0</ele><time>2026-05-01T14:14:05Z</time></trkpt><trkpt lat="45.66683711702085" lon="10.731639007468907"><ele>78.0</ele><time>2026-05-01T14:14:06Z</time></trkpt><trkpt lat="45.66669507993422" lon="10.731560347173607"><ele>75.0</ele><time>2026-05-01T14:14:07Z</time></trkpt><trkpt lat="45.666561091897535" lon="10.731462788769663"><ele>75.0</ele><time>2026-05-01T14:14:08Z</time></trkpt><trkpt lat="45.66641544223847" lon="10.731374257296515"><ele>75.0</ele><time>2026-05-01T14:14:09Z</time></trkpt><trkpt lat="45.66627405153511" lon="10.731280224429657"><ele>75.0</ele><time>2026-05-01T14:14:10Z</time></trkpt><trkpt lat="45.66613271229877" lon="10.731168744197188"><ele>74.5</ele><time>2026-05-01T14:14:11Z</time></trkpt><trkpt lat="45.66600833294825" lon="10.731050483035675"><ele>74.0</ele><time>2026-05-01T14:14:12Z</time></trkpt><trkpt lat="45.66587764237761" lon="10.730944452576374"><ele>73.5</ele><time>2026-05-01T14:14:13Z</time></trkpt><trkpt lat="45.66575823358923" lon="10.73084076827309"><ele>73.0</ele><time>2026-05-01T14:14:14Z</time></trkpt><trkpt lat="45.66563851993856" lon="10.730735697563647"><ele>73.0</ele><time>2026-05-01T14:14:15Z</time></trkpt><trkpt lat="45.665522086536534" lon="10.730638074865597"><ele>73.0</ele><time>2026-05-01T14:14:16Z</time></trkpt><trkpt lat="45.66539996087489" lon="10.730536189653048"><ele>73.0</ele><time>2026-05-01T14:14:17Z</time></trkpt><trkpt lat="45.665275862326645" lon="10.73043040821384"><ele>73.0</ele><time>2026-05-01T14:14:18Z</time></trkpt><trkpt lat="45.66515526857695" lon="10.730326231105234"><ele>72.0</ele><time>2026-05-01T14:14:19Z</time></trkpt><trkpt lat="45.66503611629074" lon="10.730222873525939"><ele>71.0</ele><time>2026-05-01T14:14:20Z</time></trkpt><trkpt lat="45.66491803175975" lon="10.730118389304124"><ele>70.0</ele><time>2026-05-01T14:14:21Z</time></trkpt><trkpt lat="45.66480285250566" lon="10.729989827518834"><ele>69.0</ele><time>2026-05-01T14:14:22Z</time></trkpt><trkpt lat="45.66467948947967" lon="10.72988196417885"><ele>69.0</ele><time>2026-05-01T14:14:23Z</time></trkpt><trkpt lat="45.664557426464604" lon="10.729775280129367"><ele>69.0</ele><time>2026-05-01T14:14:24Z</time></trkpt><trkpt lat="45.66444006215569" lon="10.729672777437536"><ele>69.0</ele><time>2026-05-01T14:14:25Z</time></trkpt><trkpt lat="45.66432154891425" lon="10.729569271268764"><ele>69.0</ele><time>2026-05-01T14:14:26Z</time></trkpt><trkpt lat="45.66420379128657" lon="10.72946648150566"><ele>68.5</ele><time>2026-05-01T14:14:27Z</time></trkpt><trkpt lat="45.66407520086363" lon="10.72938182725883"><ele>68.0</ele><time>2026-05-01T14:14:28Z</time></trkpt><trkpt lat="45.66395817006652" lon="10.729276048791775"><ele>67.5</ele><time>2026-05-01T14:14:29Z</time></trkpt><trkpt lat="45.66384721285587" lon="10.72915861954958"><ele>67.0</ele><time>2026-05-01T14:14:30Z</time></trkpt><trkpt lat="45.6637297355712" lon="10.729053219129154"><ele>67.0</ele><time>2026-05-01T14:14:31Z</time></trkpt><trkpt lat="45.6636146237095" lon="10.728949252444131"><ele>67.0</ele><time>2026-05-01T14:14:32Z</time></trkpt><trkpt lat="45.66349820840087" lon="10.728851364478182"><ele>67.0</ele><time>2026-05-01T14:14:33Z</time></trkpt><trkpt lat="45.66338660715617" lon="10.728754281177881"><ele>67.0</ele><time>2026-05-01T14:14:34Z</time></trkpt><trkpt lat="45.66328736386126" lon="10.728678467201439"><ele>66.5</ele><time>2026-05-01T14:14:35Z</time></trkpt><trkpt lat="45.663189087216715" lon="10.728592644178859"><ele>66.0</ele><time>2026-05-01T14:14:36Z</time></trkpt><trkpt lat="45.66308212377674" lon="10.728502335296389"><ele>65.5</ele><time>2026-05-01T14:14:37Z</time></trkpt><trkpt lat="45.662969002134396" lon="10.728406943133914"><ele>65.0</ele><time>2026-05-01T14:14:38Z</time></trkpt><trkpt lat="45.66285162798903" lon="10.72831562411605"><ele>68.75</ele><time>2026-05-01T14:14:39Z</time></trkpt><trkpt lat="45.66274308035326" lon="10.728217659969719"><ele>72.5</ele><time>2026-05-01T14:14:40Z</time></trkpt><trkpt lat="45.662616232274075" lon="10.728147039387217"><ele>76.25</ele><time>2026-05-01T14:14:41Z</time></trkpt><trkpt lat="45.66248836057651" lon="10.728060975731339"><ele>80.0</ele><time>2026-05-01T14:14:42Z</time></trkpt><trkpt lat="45.6623515911893" lon="10.727990564516146"><ele>80.0</ele><time>2026-05-01T14:14:43Z</time></trkpt><trkpt lat="45.662216951698966" lon="10.72791669625187"><ele>80.0</ele><time>2026-05-01T14:14:44Z</time></trkpt><trkpt lat="45.66208865545025" lon="10.72784311776488"><ele>80.0</ele><time>2026-05-01T14:14:45Z</time></trkpt><trkpt lat="45.66195783116431" lon="10.727770236332216"><ele>80.0</ele><time>2026-05-01T14:14:46Z</time></trkpt><trkpt lat="45.66182567955881" lon="10.727688129626204"><ele>77.25</ele><time>2026-05-01T14:14:47Z</time></trkpt><trkpt lat="45.661698134985606" lon="10.7275890074891"><ele>74.5</ele><time>2026-05-01T14:14:48Z</time></trkpt><trkpt lat="45.66157871430852" lon="10.727466207378995"><ele>71.75</ele><time>2026-05-01T14:14:49Z</time></trkpt><trkpt lat="45.66146657701479" lon="10.727327288502277"><ele>69.0</ele><time>2026-05-01T14:14:50Z</time></trkpt><trkpt lat="45.66136235245364" lon="10.727176284981775"><ele>69.0</ele><time>2026-05-01T14:14:51Z</time></trkpt><trkpt lat="45.66125627130968" lon="10.727028310584734"><ele>69.0</ele><time>2026-05-01T14:14:52Z</time></trkpt><trkpt lat="45.66114983060381" lon="10.72688477848815"><ele>69.0</ele><time>2026-05-01T14:14:53Z</time></trkpt><trkpt lat="45.661036169448785" lon="10.726744828670926"><ele>69.0</ele><time>2026-05-01T14:14:54Z</time></trkpt><trkpt lat="45.66090994700171" lon="10.72662997125982"><ele>70.5</ele><time>2026-05-01T14:14:55Z</time></trkpt><trkpt lat="45.66076387008111" lon="10.726545909813773"><ele>72.0</ele><time>2026-05-01T14:14:56Z</time></trkpt><trkpt lat="45.66062936063073" lon="10.726478157826529"><ele>73.5</ele><time>2026-05-01T14:14:57Z</time></trkpt><trkpt lat="45.6604978792675" lon="10.726411516494704"><ele>75.0</ele><time>2026-05-01T14:14:58Z</time></trkpt><trkpt lat="45.66036267368882" lon="10.726335756063802"><ele>73.25</ele><time>2026-05-01T14:14:59Z</time></trkpt><trkpt lat="45.66022529400831" lon="10.726262376517038"><ele>71.5</ele><time>2026-05-01T14:15:00Z</time></trkpt><trkpt lat="45.66009458424418" lon="10.7261883980471"><ele>69.75</ele><time>2026-05-01T14:15:01Z</time></trkpt><trkpt lat="45.659962076720284" lon="10.72611391466752"><ele>68.0</ele><time>2026-05-01T14:15:02Z</time></trkpt><trkpt lat="45.65982709710229" lon="10.726039417032073"><ele>68.0</ele><time>2026-05-01T14:15:03Z</time></trkpt><trkpt lat="45.659693455111814" lon="10.725954610464353"><ele>68.0</ele><time>2026-05-01T14:15:04Z</time></trkpt><trkpt lat="45.65955616316061" lon="10.725883209308371"><ele>68.0</ele><time>2026-05-01T14:15:05Z</time></trkpt><trkpt lat="45.65942176753158" lon="10.725808150968573"><ele>68.0</ele><time>2026-05-01T14:15:06Z</time></trkpt><trkpt lat="45.65929829437327" lon="10.72574287477597"><ele>69.75</ele><time>2026-05-01T14:15:07Z</time></trkpt><trkpt lat="45.65917327150616" lon="10.725675428478171"><ele>71.5</ele><time>2026-05-01T14:15:08Z</time></trkpt><trkpt lat="45.65905240251713" lon="10.725599462735085"><ele>73.25</ele><time>2026-05-01T14:15:09Z</time></trkpt><trkpt lat="45.65892823759964" lon="10.725528672593374"><ele>75.0</ele><time>2026-05-01T14:15:10Z</time></trkpt><trkpt lat="45.65880219211051" lon="10.72545303560108"><ele>75.0</ele><time>2026-05-01T14:15:11Z</time></trkpt><trkpt lat="45.65868022775843" lon="10.725367173957006"><ele>75.0</ele><time>2026-05-01T14:15:12Z</time></trkpt><trkpt lat="45.65856076788188" lon="10.725282447565581"><ele>75.0</ele><time>2026-05-01T14:15:13Z</time></trkpt><trkpt lat="45.65844526558603" lon="10.725196222006794"><ele>75.0</ele><time>2026-05-01T14:15:14Z</time></trkpt><trkpt lat="45.65834641171186" lon="10.725107884545851"><ele>72.75</ele><time>2026-05-01T14:15:15Z</time></trkpt><trkpt lat="45.658249816464455" lon="10.72501636284059"><ele>70.5</ele><time>2026-05-01T14:15:16.001Z</time></trkpt><trkpt lat="45.658157679924095" lon="10.724918402178387"><ele>68.25</ele><time>2026-05-01T14:15:17.001Z</time></trkpt><trkpt lat="45.65806011303951" lon="10.724806207073538"><ele>66.0</ele><time>2026-05-01T14:15:18.001Z</time></trkpt><trkpt lat="45.65796262024603" lon="10.724696008495732"><ele>66.0</ele><time>2026-05-01T14:15:19Z</time></trkpt><trkpt lat="45.657870362968396" lon="10.724590910751266"><ele>66.0</ele><time>2026-05-01T14:15:20Z</time></trkpt><trkpt lat="45.65778030247727" lon="10.724489189659273"><ele>66.0</ele><time>2026-05-01T14:15:21Z</time></trkpt><trkpt lat="45.65770916023159" lon="10.724402042220008"><ele>66.0</ele><time>2026-05-01T14:15:22Z</time></trkpt><trkpt lat="45.65764578606002" lon="10.72433007826748"><ele>66.0</ele><time>2026-05-01T14:15:23Z</time></trkpt><trkpt lat="45.6575835046429" lon="10.724258045618905"><ele>66.0</ele><time>2026-05-01T14:15:24Z</time></trkpt><trkpt lat="45.65753569228976" lon="10.72419867538163"><ele>66.0</ele><time>2026-05-01T14:15:25Z</time></trkpt><trkpt lat="45.657458474955874" lon="10.724113543699628"><ele>66.0</ele><time>2026-05-01T14:15:27Z</time></trkpt><trkpt lat="45.6573992714287" lon="10.72405642351871"><ele>66.0</ele><time>2026-05-01T14:15:29Z</time></trkpt><trkpt lat="45.6573220669592" lon="10.723982766690744"><ele>66.0</ele><time>2026-05-01T14:15:31Z</time></trkpt><trkpt lat="45.65721058794147" lon="10.723890526237012"><ele>66.0</ele><time>2026-05-01T14:15:33Z</time></trkpt><trkpt lat="45.657147299915096" lon="10.723836964397298"><ele>66.0</ele><time>2026-05-01T14:15:34Z</time></trkpt><trkpt lat="45.657075056814364" lon="10.723789214030754"><ele>66.0</ele><time>2026-05-01T14:15:35Z</time></trkpt><trkpt lat="45.65699841551963" lon="10.72372162954538"><ele>66.0</ele><time>2026-05-01T14:15:36Z</time></trkpt><trkpt lat="45.656917555051415" lon="10.723663495946552"><ele>66.0</ele><time>2026-05-01T14:15:37Z</time></trkpt><trkpt lat="45.65684032680296" lon="10.723610068976036"><ele>66.0</ele><time>2026-05-01T14:15:38Z</time></trkpt><trkpt lat="45.65676156715283" lon="10.72355490626988"><ele>65.6</ele><time>2026-05-01T14:15:39Z</time></trkpt><trkpt lat="45.65667541363658" lon="10.723501713300914"><ele>65.19999999999999</ele><time>2026-05-01T14:15:40Z</time></trkpt><trkpt lat="45.656586555437" lon="10.723449204758275"><ele>64.80000000000001</ele><time>2026-05-01T14:15:41Z</time></trkpt><trkpt lat="45.65649355948894" lon="10.723392743992259"><ele>64.4</ele><time>2026-05-01T14:15:42Z</time></trkpt><trkpt lat="45.65639909638691" lon="10.723344151542564"><ele>64.0</ele><time>2026-05-01T14:15:43Z</time></trkpt><trkpt lat="45.6563004938405" lon="10.723293398881392"><ele>64.0</ele><time>2026-05-01T14:15:44Z</time></trkpt><trkpt lat="45.65619631067783" lon="10.723243612329876"><ele>64.0</ele><time>2026-05-01T14:15:45Z</time></trkpt><trkpt lat="45.65609055141006" lon="10.72318494821565"><ele>64.0</ele><time>2026-05-01T14:15:46Z</time></trkpt><trkpt lat="45.65599239710621" lon="10.72312818304367"><ele>64.0</ele><time>2026-05-01T14:15:47Z</time></trkpt><trkpt lat="45.655890153884876" lon="10.723074397781362"><ele>64.0</ele><time>2026-05-01T14:15:48Z</time></trkpt><trkpt lat="45.65579412239434" lon="10.72302796650329"><ele>65.0</ele><time>2026-05-01T14:15:49Z</time></trkpt><trkpt lat="45.6557010863708" lon="10.722977749048065"><ele>66.0</ele><time>2026-05-01T14:15:50Z</time></trkpt><trkpt lat="45.65559940861053" lon="10.722930311689009"><ele>67.0</ele><time>2026-05-01T14:15:51Z</time></trkpt><trkpt lat="45.65550232066176" lon="10.72288143831895"><ele>68.0</ele><time>2026-05-01T14:15:52Z</time></trkpt><trkpt lat="45.655402745742144" lon="10.722843620469623"><ele>69.0</ele><time>2026-05-01T14:15:53Z</time></trkpt><trkpt lat="45.65531142066597" lon="10.722810128643397"><ele>68.66666666666667</ele><time>2026-05-01T14:15:54Z</time></trkpt><trkpt lat="45.655230133304244" lon="10.722775988185427"><ele>68.33333333333333</ele><time>2026-05-01T14:15:55Z</time></trkpt><trkpt lat="45.65514325505696" lon="10.72275141849508"><ele>68.0</ele><time>2026-05-01T14:15:56Z</time></trkpt><trkpt lat="45.655057838754765" lon="10.722732078094634"><ele>67.66666666666666</ele><time>2026-05-01T14:15:57Z</time></trkpt><trkpt lat="45.65497068598052" lon="10.722706919183873"><ele>67.33333333333333</ele><time>2026-05-01T14:15:58Z</time></trkpt><trkpt lat="45.65488319258507" lon="10.722686341280205"><ele>67.0</ele><time>2026-05-01T14:15:59Z</time></trkpt><trkpt lat="45.654789865367185" lon="10.72266997176169"><ele>67.0</ele><time>2026-05-01T14:16:00Z</time></trkpt><trkpt lat="45.65470719694473" lon="10.722636373618155"><ele>67.0</ele><time>2026-05-01T14:16:01Z</time></trkpt><trkpt lat="45.654630848073644" lon="10.722619903941743"><ele>67.0</ele><time>2026-05-01T14:16:02Z</time></trkpt><trkpt lat="45.65455966032123" lon="10.72260398564236"><ele>67.0</ele><time>2026-05-01T14:16:03Z</time></trkpt><trkpt lat="45.65447867762282" lon="10.722579105714274"><ele>67.0</ele><time>2026-05-01T14:16:04Z</time></trkpt><trkpt lat="45.654380440102436" lon="10.7225652082642"><ele>67.0</ele><time>2026-05-01T14:16:05Z</time></trkpt><trkpt lat="45.654292248483735" lon="10.72253990874946"><ele>68.0</ele><time>2026-05-01T14:16:06Z</time></trkpt><trkpt lat="45.65420052373117" lon="10.72252494474232"><ele>69.0</ele><time>2026-05-01T14:16:07Z</time></trkpt><trkpt lat="45.65410317640709" lon="10.722500630111044"><ele>70.0</ele><time>2026-05-01T14:16:08Z</time></trkpt><trkpt lat="45.654006007233974" lon="10.72248516312953"><ele>71.0</ele><time>2026-05-01T14:16:09Z</time></trkpt><trkpt lat="45.653908549244576" lon="10.722467625360084"><ele>72.0</ele><time>2026-05-01T14:16:10Z</time></trkpt><trkpt lat="45.65381206335903" lon="10.722441688391148"><ele>72.0</ele><time>2026-05-01T14:16:11Z</time></trkpt><trkpt lat="45.65371332645785" lon="10.722422177904683"><ele>72.0</ele><time>2026-05-01T14:16:12Z</time></trkpt><trkpt lat="45.653623322613356" lon="10.72235925664665"><ele>72.0</ele><time>2026-05-01T14:16:13Z</time></trkpt><trkpt lat="45.65352817330698" lon="10.722326016629879"><ele>72.0</ele><time>2026-05-01T14:16:14Z</time></trkpt><trkpt lat="45.65342548868975" lon="10.722271973173807"><ele>72.0</ele><time>2026-05-01T14:16:15Z</time></trkpt><trkpt lat="45.65332294962456" lon="10.72220085289063"><ele>72.5</ele><time>2026-05-01T14:16:16Z</time></trkpt><trkpt lat="45.653219509747174" lon="10.722129788287612"><ele>73.0</ele><time>2026-05-01T14:16:17Z</time></trkpt><trkpt lat="45.653113191412636" lon="10.722057452990063"><ele>73.5</ele><time>2026-05-01T14:16:18Z</time></trkpt><trkpt lat="45.65300663798263" lon="10.721983316965042"><ele>74.0</ele><time>2026-05-01T14:16:19Z</time></trkpt><trkpt lat="45.652896328024575" lon="10.72190627339374"><ele>72.5</ele><time>2026-05-01T14:16:20Z</time></trkpt><trkpt lat="45.65278009388793" lon="10.721839919625163"><ele>71.0</ele><time>2026-05-01T14:16:21Z</time></trkpt><trkpt lat="45.65266617236954" lon="10.72176713112323"><ele>69.5</ele><time>2026-05-01T14:16:22Z</time></trkpt><trkpt lat="45.65255214858617" lon="10.721705262327571"><ele>68.0</ele><time>2026-05-01T14:16:23Z</time></trkpt><trkpt lat="45.65243432720051" lon="10.72165436442543"><ele>68.0</ele><time>2026-05-01T14:16:24Z</time></trkpt><trkpt lat="45.65231786312155" lon="10.721596007582649"><ele>68.0</ele><time>2026-05-01T14:16:25Z</time></trkpt><trkpt lat="45.65220189842757" lon="10.721535985122692"><ele>68.0</ele><time>2026-05-01T14:16:26Z</time></trkpt><trkpt lat="45.652079063932774" lon="10.721485849460457"><ele>68.0</ele><time>2026-05-01T14:16:27Z</time></trkpt><trkpt lat="45.65195797885482" lon="10.721421854038466"><ele>70.25</ele><time>2026-05-01T14:16:28Z</time></trkpt><trkpt lat="45.651830325336185" lon="10.721364786378194"><ele>72.5</ele><time>2026-05-01T14:16:29Z</time></trkpt><trkpt lat="45.65170947040289" lon="10.72129457017828"><ele>74.75</ele><time>2026-05-01T14:16:30Z</time></trkpt><trkpt lat="45.651587953379575" lon="10.721229579632498"><ele>77.0</ele><time>2026-05-01T14:16:31Z</time></trkpt><trkpt lat="45.65146950392745" lon="10.721161968103676"><ele>77.0</ele><time>2026-05-01T14:16:32Z</time></trkpt><trkpt lat="45.65135419146424" lon="10.721077602849777"><ele>77.0</ele><time>2026-05-01T14:16:33Z</time></trkpt><trkpt lat="45.65122775726328" lon="10.721004483425814"><ele>77.0</ele><time>2026-05-01T14:16:34Z</time></trkpt><trkpt lat="45.651100136021206" lon="10.720926564832563"><ele>77.0</ele><time>2026-05-01T14:16:35Z</time></trkpt><trkpt lat="45.65097772964469" lon="10.720841318604018"><ele>76.25</ele><time>2026-05-01T14:16:36Z</time></trkpt><trkpt lat="45.65086267730368" lon="10.7207613103887"><ele>75.5</ele><time>2026-05-01T14:16:37Z</time></trkpt><trkpt lat="45.650752574028004" lon="10.720649274795058"><ele>74.75</ele><time>2026-05-01T14:16:38Z</time></trkpt><trkpt lat="45.65063861108125" lon="10.720562953585903"><ele>74.0</ele><time>2026-05-01T14:16:39Z</time></trkpt><trkpt lat="45.65052756107239" lon="10.720464473901563"><ele>74.0</ele><time>2026-05-01T14:16:40Z</time></trkpt><trkpt lat="45.65043161636142" lon="10.720349150896597"><ele>74.0</ele><time>2026-05-01T14:16:41Z</time></trkpt><trkpt lat="45.65034058044665" lon="10.720254615639519"><ele>74.0</ele><time>2026-05-01T14:16:42Z</time></trkpt><trkpt lat="45.65025483245369" lon="10.720163795102362"><ele>74.0</ele><time>2026-05-01T14:16:43Z</time></trkpt><trkpt lat="45.65017823035583" lon="10.720078729811013"><ele>74.0</ele><time>2026-05-01T14:16:44Z</time></trkpt><trkpt lat="45.65010485129891" lon="10.720003682443666"><ele>73.66666666666667</ele><time>2026-05-01T14:16:45Z</time></trkpt><trkpt lat="45.650034675282306" lon="10.719911417422052"><ele>73.33333333333334</ele><time>2026-05-01T14:16:46Z</time></trkpt><trkpt lat="45.649951547069385" lon="10.71983755474658"><ele>73.0</ele><time>2026-05-01T14:16:47Z</time></trkpt><trkpt lat="45.64988551259266" lon="10.719755706291233"><ele>72.66666666666667</ele><time>2026-05-01T14:16:48Z</time></trkpt><trkpt lat="45.64981745407795" lon="10.719690417243683"><ele>72.33333333333333</ele><time>2026-05-01T14:16:49Z</time></trkpt><trkpt lat="45.64975321926006" lon="10.719627340617805"><ele>72.0</ele><time>2026-05-01T14:16:50Z</time></trkpt><trkpt lat="45.64969274472997" lon="10.719550568489202"><ele>72.0</ele><time>2026-05-01T14:16:51Z</time></trkpt><trkpt lat="45.64963195804255" lon="10.719492731623284"><ele>72.0</ele><time>2026-05-01T14:16:52Z</time></trkpt><trkpt lat="45.64958286405167" lon="10.719423314131225"><ele>72.0</ele><time>2026-05-01T14:16:53Z</time></trkpt><trkpt lat="45.64950884708608" lon="10.719358520827186"><ele>72.0</ele><time>2026-05-01T14:16:55Z</time></trkpt><trkpt lat="45.64944489073754" lon="10.719279108126777"><ele>72.0</ele><time>2026-05-01T14:16:58Z</time></trkpt><trkpt lat="45.64934456215986" lon="10.719184662043828"><ele>72.0</ele><time>2026-05-01T14:17:00Z</time></trkpt><trkpt lat="45.64926991966384" lon="10.71910887261535"><ele>72.33333333333333</ele><time>2026-05-01T14:17:02Z</time></trkpt><trkpt lat="45.6492167893665" lon="10.719039436759893"><ele>72.66666666666667</ele><time>2026-05-01T14:17:04Z</time></trkpt><trkpt lat="45.64914681343269" lon="10.718949024336663"><ele>73.0</ele><time>2026-05-01T14:17:10Z</time></trkpt><trkpt lat="45.64907700940776" lon="10.718871091799864"><ele>73.33333333333334</ele><time>2026-05-01T14:17:12Z</time></trkpt><trkpt lat="45.64902619628874" lon="10.718814078152445"><ele>73.66666666666667</ele><time>2026-05-01T14:17:13Z</time></trkpt><trkpt lat="45.648938507011934" lon="10.71871158447545"><ele>74.0</ele><time>2026-05-01T14:17:15Z</time></trkpt><trkpt lat="45.64886973629488" lon="10.718627453545572"><ele>74.66666666666667</ele><time>2026-05-01T14:17:17Z</time></trkpt><trkpt lat="45.64881840720377" lon="10.718562436699388"><ele>75.33333333333334</ele><time>2026-05-01T14:17:19Z</time></trkpt><trkpt lat="45.64876000206891" lon="10.718479694425778"><ele>76.0</ele><time>2026-05-01T14:17:22Z</time></trkpt><trkpt lat="45.64870223792666" lon="10.718392725929261"><ele>76.66666666666667</ele><time>2026-05-01T14:17:25Z</time></trkpt><trkpt lat="45.64865859465936" lon="10.718325152701714"><ele>77.33333333333333</ele><time>2026-05-01T14:17:37Z</time></trkpt><trkpt lat="45.648585639820126" lon="10.718195387546132"><ele>78.0</ele><time>2026-05-01T14:17:39Z</time></trkpt><trkpt lat="45.64853515334626" lon="10.718096724965148"><ele>78.0</ele><time>2026-05-01T14:17:40Z</time></trkpt><trkpt lat="45.648482391978234" lon="10.71797749260718"><ele>78.0</ele><time>2026-05-01T14:17:41Z</time></trkpt><trkpt lat="45.64841226595941" lon="10.71785625120624"><ele>78.0</ele><time>2026-05-01T14:17:42Z</time></trkpt><trkpt lat="45.64835224441309" lon="10.717701158430996"><ele>78.0</ele><time>2026-05-01T14:17:43Z</time></trkpt><trkpt lat="45.64829516504269" lon="10.717534472335217"><ele>75.75</ele><time>2026-05-01T14:17:44Z</time></trkpt><trkpt lat="45.64822568699941" lon="10.717371013658356"><ele>73.5</ele><time>2026-05-01T14:17:45Z</time></trkpt><trkpt lat="45.648152056934265" lon="10.717195000768449"><ele>71.25</ele><time>2026-05-01T14:17:46Z</time></trkpt><trkpt lat="45.648068434996866" lon="10.716993728443414"><ele>69.0</ele><time>2026-05-01T14:17:47Z</time></trkpt><trkpt lat="45.64798885645575" lon="10.716765101035195"><ele>68.0</ele><time>2026-05-01T14:17:48Z</time></trkpt><trkpt lat="45.647902096010846" lon="10.716545311538072"><ele>67.0</ele><time>2026-05-01T14:17:49Z</time></trkpt><trkpt lat="45.6478114443858" lon="10.716326141388176"><ele>66.0</ele><time>2026-05-01T14:17:50Z</time></trkpt><trkpt lat="45.647712821020924" lon="10.716118371950476"><ele>67.66666666666667</ele><time>2026-05-01T14:17:51Z</time></trkpt><trkpt lat="45.647587343279106" lon="10.71592523833946"><ele>69.33333333333334</ele><time>2026-05-01T14:17:52Z</time></trkpt><trkpt lat="45.64744961120571" lon="10.715748637335246"><ele>71.0</ele><time>2026-05-01T14:17:53Z</time></trkpt><trkpt lat="45.647301831258616" lon="10.71560622040569"><ele>71.0</ele><time>2026-05-01T14:17:54Z</time></trkpt><trkpt lat="45.6471332809833" lon="10.715488808512484"><ele>71.0</ele><time>2026-05-01T14:17:55Z</time></trkpt><trkpt lat="45.64696458604014" lon="10.715382796586884"><ele>71.0</ele><time>2026-05-01T14:17:56Z</time></trkpt><trkpt lat="45.64678623386677" lon="10.715281026889148"><ele>69.0</ele><time>2026-05-01T14:17:57Z</time></trkpt><trkpt lat="45.64661477134356" lon="10.71517994220199"><ele>67.0</ele><time>2026-05-01T14:17:58Z</time></trkpt><trkpt lat="45.64643808539892" lon="10.71507665212995"><ele>65.0</ele><time>2026-05-01T14:17:59Z</time></trkpt><trkpt lat="45.64625711077207" lon="10.714979364528576"><ele>67.0</ele><time>2026-05-01T14:18:00Z</time></trkpt><trkpt lat="45.646087169570585" lon="10.714878104287589"><ele>69.0</ele><time>2026-05-01T14:18:01Z</time></trkpt><trkpt lat="45.64591667567392" lon="10.714780202743656"><ele>71.0</ele><time>2026-05-01T14:18:02Z</time></trkpt><trkpt lat="45.64574096809284" lon="10.714672163261946"><ele>71.0</ele><time>2026-05-01T14:18:03Z</time></trkpt><trkpt lat="45.64556777343293" lon="10.714559019046625"><ele>71.0</ele><time>2026-05-01T14:18:04Z</time></trkpt><trkpt lat="45.6454059581131" lon="10.714388897295805"><ele>71.0</ele><time>2026-05-01T14:18:05Z</time></trkpt><trkpt lat="45.64523984826618" lon="10.714230929352581"><ele>71.66666666666667</ele><time>2026-05-01T14:18:06Z</time></trkpt><trkpt lat="45.64507354958596" lon="10.714072137064315"><ele>72.33333333333333</ele><time>2026-05-01T14:18:07Z</time></trkpt><trkpt lat="45.64491154343716" lon="10.713917480518035"><ele>73.0</ele><time>2026-05-01T14:18:08Z</time></trkpt><trkpt lat="45.64473490638764" lon="10.713777330817573"><ele>73.0</ele><time>2026-05-01T14:18:09Z</time></trkpt><trkpt lat="45.644571395342076" lon="10.713622042276135"><ele>73.0</ele><time>2026-05-01T14:18:10Z</time></trkpt><trkpt lat="45.64441881385981" lon="10.71344579188401"><ele>73.0</ele><time>2026-05-01T14:18:11Z</time></trkpt><trkpt lat="45.64428048714358" lon="10.713294439895064"><ele>74.66666666666666</ele><time>2026-05-01T14:18:12Z</time></trkpt><trkpt lat="45.64415197189489" lon="10.713106681674114"><ele>76.33333333333333</ele><time>2026-05-01T14:18:13Z</time></trkpt><trkpt lat="45.64403842319113" lon="10.712874676904482"><ele>78.0</ele><time>2026-05-01T14:18:14Z</time></trkpt><trkpt lat="45.64393204948544" lon="10.71260163139431"><ele>79.33333333333333</ele><time>2026-05-01T14:18:15Z</time></trkpt><trkpt lat="45.64382403127266" lon="10.712327810209805"><ele>80.66666666666666</ele><time>2026-05-01T14:18:16Z</time></trkpt><trkpt lat="45.64369436443931" lon="10.712084339545198"><ele>82.0</ele><time>2026-05-01T14:18:17Z</time></trkpt><trkpt lat="45.643562505958336" lon="10.711859367105712"><ele>82.0</ele><time>2026-05-01T14:18:18Z</time></trkpt><trkpt lat="45.64342718672163" lon="10.711644180151389"><ele>82.0</ele><time>2026-05-01T14:18:19Z</time></trkpt><trkpt lat="45.64329494729203" lon="10.711431160960146"><ele>82.0</ele><time>2026-05-01T14:18:20Z</time></trkpt><trkpt lat="45.64316401885129" lon="10.711212100292094"><ele>82.0</ele><time>2026-05-01T14:18:21Z</time></trkpt><trkpt lat="45.643033108036754" lon="10.71099666830265"><ele>82.0</ele><time>2026-05-01T14:18:22Z</time></trkpt><trkpt lat="45.64290098439659" lon="10.710782974744237"><ele>82.0</ele><time>2026-05-01T14:18:23Z</time></trkpt><trkpt lat="45.64275008374121" lon="10.710590673068095"><ele>82.0</ele><time>2026-05-01T14:18:24Z</time></trkpt><trkpt lat="45.64258912822846" lon="10.710432867929363"><ele>82.0</ele><time>2026-05-01T14:18:25Z</time></trkpt><trkpt lat="45.64243187986715" lon="10.710297737143666"><ele>82.0</ele><time>2026-05-01T14:18:26Z</time></trkpt><trkpt lat="45.64227449631088" lon="10.710168153671107"><ele>84.33333333333333</ele><time>2026-05-01T14:18:27Z</time></trkpt><trkpt lat="45.64213790201457" lon="10.709992977218967"><ele>86.66666666666667</ele><time>2026-05-01T14:18:28Z</time></trkpt><trkpt lat="45.64201719676079" lon="10.70981656722622"><ele>89.0</ele><time>2026-05-01T14:18:29Z</time></trkpt><trkpt lat="45.6419186238865" lon="10.709630978776849"><ele>89.0</ele><time>2026-05-01T14:18:30Z</time></trkpt><trkpt lat="45.64183514426573" lon="10.709425080025001"><ele>89.0</ele><time>2026-05-01T14:18:31Z</time></trkpt><trkpt lat="45.64174621244872" lon="10.709189900293678"><ele>89.0</ele><time>2026-05-01T14:18:32Z</time></trkpt><trkpt lat="45.6416366055817" lon="10.708959519737094"><ele>84.66666666666667</ele><time>2026-05-01T14:18:33Z</time></trkpt><trkpt lat="45.64153709472639" lon="10.708736078590723"><ele>80.33333333333333</ele><time>2026-05-01T14:18:34Z</time></trkpt><trkpt lat="45.64140792480764" lon="10.708524521586021"><ele>76.0</ele><time>2026-05-01T14:18:35Z</time></trkpt><trkpt lat="45.64125127284397" lon="10.708353431582388"><ele>78.33333333333333</ele><time>2026-05-01T14:18:36Z</time></trkpt><trkpt lat="45.64107534077785" lon="10.708217295989318"><ele>80.66666666666667</ele><time>2026-05-01T14:18:37Z</time></trkpt><trkpt lat="45.64090190738249" lon="10.708111015927686"><ele>83.0</ele><time>2026-05-01T14:18:38Z</time></trkpt><trkpt lat="45.640723782586946" lon="10.708006021326652"><ele>83.0</ele><time>2026-05-01T14:18:39Z</time></trkpt><trkpt lat="45.64055416644846" lon="10.707881895227274"><ele>83.0</ele><time>2026-05-01T14:18:40Z</time></trkpt><trkpt lat="45.64037518194311" lon="10.70777026043358"><ele>83.0</ele><time>2026-05-01T14:18:41Z</time></trkpt><trkpt lat="45.640192106902155" lon="10.707655595445935"><ele>79.66666666666667</ele><time>2026-05-01T14:18:42Z</time></trkpt><trkpt lat="45.64000794829567" lon="10.707537383347498"><ele>76.33333333333333</ele><time>2026-05-01T14:18:43Z</time></trkpt><trkpt lat="45.63982835701408" lon="10.707414132593112"><ele>73.0</ele><time>2026-05-01T14:18:44Z</time></trkpt><trkpt lat="45.63964618213017" lon="10.707281252961858"><ele>73.0</ele><time>2026-05-01T14:18:45Z</time></trkpt><trkpt lat="45.639469900059744" lon="10.707151654514373"><ele>73.0</ele><time>2026-05-01T14:18:46Z</time></trkpt><trkpt lat="45.639293965903406" lon="10.707022048756816"><ele>73.0</ele><time>2026-05-01T14:18:47Z</time></trkpt><trkpt lat="45.63911848344624" lon="10.70689277568021"><ele>75.33333333333333</ele><time>2026-05-01T14:18:48Z</time></trkpt><trkpt lat="45.63894664202868" lon="10.706763610182428"><ele>77.66666666666667</ele><time>2026-05-01T14:18:49Z</time></trkpt><trkpt lat="45.63878112494667" lon="10.706627890599028"><ele>80.0</ele><time>2026-05-01T14:18:50Z</time></trkpt><trkpt lat="45.63862926072164" lon="10.70646459886735"><ele>80.0</ele><time>2026-05-01T14:18:51Z</time></trkpt><trkpt lat="45.638482515340804" lon="10.706275848975823"><ele>80.0</ele><time>2026-05-01T14:18:52Z</time></trkpt><trkpt lat="45.638339431722585" lon="10.706073257586558"><ele>80.0</ele><time>2026-05-01T14:18:53Z</time></trkpt><trkpt lat="45.63820567475796" lon="10.70588047268076"><ele>82.66666666666667</ele><time>2026-05-01T14:18:54Z</time></trkpt><trkpt lat="45.638075305817644" lon="10.705692239501468"><ele>85.33333333333333</ele><time>2026-05-01T14:18:55Z</time></trkpt><trkpt lat="45.63793435364411" lon="10.705533013157506"><ele>88.0</ele><time>2026-05-01T14:18:56Z</time></trkpt><trkpt lat="45.63778147203187" lon="10.70534915754452"><ele>82.0</ele><time>2026-05-01T14:18:57Z</time></trkpt><trkpt lat="45.637612338542795" lon="10.70516969450778"><ele>76.0</ele><time>2026-05-01T14:18:58Z</time></trkpt><trkpt lat="45.63743239787361" lon="10.7050045866839"><ele>70.0</ele><time>2026-05-01T14:18:59Z</time></trkpt><trkpt lat="45.63725325247656" lon="10.70485536745124"><ele>70.0</ele><time>2026-05-01T14:19:00Z</time></trkpt><trkpt lat="45.63707368999656" lon="10.70470913800009"><ele>70.0</ele><time>2026-05-01T14:19:01Z</time></trkpt><trkpt lat="45.63690013079829" lon="10.704568668439025"><ele>70.0</ele><time>2026-05-01T14:19:02Z</time></trkpt><trkpt lat="45.63674640232616" lon="10.70443863202804"><ele>69.33333333333333</ele><time>2026-05-01T14:19:03Z</time></trkpt><trkpt lat="45.63659577448993" lon="10.70431427422114"><ele>68.66666666666667</ele><time>2026-05-01T14:19:04Z</time></trkpt><trkpt lat="45.636454753686344" lon="10.704201936607165"><ele>68.0</ele><time>2026-05-01T14:19:05Z</time></trkpt><trkpt lat="45.63633031274674" lon="10.704105255444162"><ele>68.0</ele><time>2026-05-01T14:19:06Z</time></trkpt><trkpt lat="45.636204744933615" lon="10.704007876976807"><ele>68.0</ele><time>2026-05-01T14:19:07Z</time></trkpt><trkpt lat="45.636089046752275" lon="10.703932857353372"><ele>68.0</ele><time>2026-05-01T14:19:08Z</time></trkpt><trkpt lat="45.635966480098325" lon="10.703858127113346"><ele>68.0</ele><time>2026-05-01T14:19:09Z</time></trkpt><trkpt lat="45.63583907114342" lon="10.70378122093233"><ele>67.5</ele><time>2026-05-01T14:19:10Z</time></trkpt><trkpt lat="45.635713876533664" lon="10.703710017586959"><ele>67.0</ele><time>2026-05-01T14:19:11Z</time></trkpt><trkpt lat="45.63559178407738" lon="10.70363233599234"><ele>66.5</ele><time>2026-05-01T14:19:12Z</time></trkpt><trkpt lat="45.635471621677624" lon="10.703562098475691"><ele>66.0</ele><time>2026-05-01T14:19:13Z</time></trkpt><trkpt lat="45.63535141272155" lon="10.70349337676358"><ele>66.75</ele><time>2026-05-01T14:19:14Z</time></trkpt><trkpt lat="45.63523199196865" lon="10.703416037545736"><ele>67.5</ele><time>2026-05-01T14:19:15Z</time></trkpt><trkpt lat="45.635112653746894" lon="10.703328340252797"><ele>68.25</ele><time>2026-05-01T14:19:16Z</time></trkpt><trkpt lat="45.63500116729622" lon="10.703259420948323"><ele>69.0</ele><time>2026-05-01T14:19:17Z</time></trkpt><trkpt lat="45.63488736171608" lon="10.703176823409798"><ele>69.0</ele><time>2026-05-01T14:19:18.001Z</time></trkpt><trkpt lat="45.634763568523596" lon="10.703094384891898"><ele>69.0</ele><time>2026-05-01T14:19:19.001Z</time></trkpt><trkpt lat="45.6346418029617" lon="10.703012422596787"><ele>69.0</ele><time>2026-05-01T14:19:20.001Z</time></trkpt><trkpt lat="45.634527921259966" lon="10.702935763418227"><ele>69.0</ele><time>2026-05-01T14:19:21.001Z</time></trkpt><trkpt lat="45.634416144839186" lon="10.702858274127788"><ele>68.0</ele><time>2026-05-01T14:19:22.001Z</time></trkpt><trkpt lat="45.63429953954888" lon="10.70277840067663"><ele>67.0</ele><time>2026-05-01T14:19:23.001Z</time></trkpt><trkpt lat="45.634177329730065" lon="10.702695087408086"><ele>66.0</ele><time>2026-05-01T14:19:24.001Z</time></trkpt><trkpt lat="45.63405461774214" lon="10.702609300072297"><ele>65.0</ele><time>2026-05-01T14:19:25.001Z</time></trkpt><trkpt lat="45.633927339474155" lon="10.702533542283797"><ele>65.0</ele><time>2026-05-01T14:19:26.001Z</time></trkpt><trkpt lat="45.63380247614798" lon="10.702455596958355"><ele>65.0</ele><time>2026-05-01T14:19:27.001Z</time></trkpt><trkpt lat="45.63366959121786" lon="10.702351057511205"><ele>65.0</ele><time>2026-05-01T14:19:28.001Z</time></trkpt><trkpt lat="45.6335122290876" lon="10.70225704586951"><ele>66.0</ele><time>2026-05-01T14:19:29.001Z</time></trkpt><trkpt lat="45.63334616440451" lon="10.702157835341605"><ele>67.0</ele><time>2026-05-01T14:19:30.001Z</time></trkpt><trkpt lat="45.633178713633825" lon="10.70208090718541"><ele>68.0</ele><time>2026-05-01T14:19:31Z</time></trkpt><trkpt lat="45.63302695139411" lon="10.701976592580221"><ele>68.25</ele><time>2026-05-01T14:19:32Z</time></trkpt><trkpt lat="45.632879689167545" lon="10.701895351220479"><ele>68.5</ele><time>2026-05-01T14:19:33Z</time></trkpt><trkpt lat="45.632741475896204" lon="10.701816295760747"><ele>68.75</ele><time>2026-05-01T14:19:34Z</time></trkpt><trkpt lat="45.63261388344733" lon="10.701742207743512"><ele>69.0</ele><time>2026-05-01T14:19:35Z</time></trkpt><trkpt lat="45.632519090521335" lon="10.70168505475841"><ele>69.0</ele><time>2026-05-01T14:19:36Z</time></trkpt><trkpt lat="45.632444373774604" lon="10.70164378496326"><ele>69.0</ele><time>2026-05-01T14:19:37Z</time></trkpt><trkpt lat="45.63234548596918" lon="10.701580046216915"><ele>69.0</ele><time>2026-05-01T14:19:39Z</time></trkpt><trkpt lat="45.63222732799378" lon="10.701511304944631"><ele>69.0</ele><time>2026-05-01T14:19:41Z</time></trkpt><trkpt lat="45.63214401298662" lon="10.70146054496597"><ele>69.0</ele><time>2026-05-01T14:19:42Z</time></trkpt><trkpt lat="45.632020578960976" lon="10.701388731400753"><ele>70.66666666666667</ele><time>2026-05-01T14:19:43Z</time></trkpt><trkpt lat="45.63186458178341" lon="10.701294136095065"><ele>72.33333333333334</ele><time>2026-05-01T14:19:44Z</time></trkpt><trkpt lat="45.63168842983939" lon="10.701188817555549"><ele>74.0</ele><time>2026-05-01T14:19:45Z</time></trkpt><trkpt lat="45.631506462397134" lon="10.701100633116306"><ele>72.33333333333334</ele><time>2026-05-01T14:19:46Z</time></trkpt><trkpt lat="45.63132940511549" lon="10.701010499459446"><ele>70.66666666666667</ele><time>2026-05-01T14:19:47Z</time></trkpt><trkpt lat="45.63115639929351" lon="10.70090986700032"><ele>69.0</ele><time>2026-05-01T14:19:48Z</time></trkpt><trkpt lat="45.6309772426362" lon="10.700844567995988"><ele>69.0</ele><time>2026-05-01T14:19:49Z</time></trkpt><trkpt lat="45.630797870838215" lon="10.700788879033912"><ele>69.0</ele><time>2026-05-01T14:19:50Z</time></trkpt><trkpt lat="45.63062104778372" lon="10.700735983256868"><ele>69.0</ele><time>2026-05-01T14:19:51Z</time></trkpt><trkpt lat="45.63045294155841" lon="10.700685210405863"><ele>70.33333333333333</ele><time>2026-05-01T14:19:52Z</time></trkpt><trkpt lat="45.63028270792342" lon="10.700634234700109"><ele>71.66666666666666</ele><time>2026-05-01T14:19:53Z</time></trkpt><trkpt lat="45.630121020151826" lon="10.700568202334674"><ele>73.0</ele><time>2026-05-01T14:19:54Z</time></trkpt><trkpt lat="45.62996287396854" lon="10.700485470136094"><ele>73.0</ele><time>2026-05-01T14:19:55Z</time></trkpt><trkpt lat="45.629816252517124" lon="10.700400960459733"><ele>73.0</ele><time>2026-05-01T14:19:56Z</time></trkpt><trkpt lat="45.629671377042605" lon="10.70031103507754"><ele>73.0</ele><time>2026-05-01T14:19:57Z</time></trkpt><trkpt lat="45.62952276529887" lon="10.700216026888606"><ele>71.0</ele><time>2026-05-01T14:19:58Z</time></trkpt><trkpt lat="45.62937125885038" lon="10.70011824048949"><ele>69.0</ele><time>2026-05-01T14:19:59Z</time></trkpt><trkpt lat="45.6292167503272" lon="10.700018888957535"><ele>67.0</ele><time>2026-05-01T14:20:00Z</time></trkpt><trkpt lat="45.62906450959377" lon="10.699920853229129"><ele>67.0</ele><time>2026-05-01T14:20:01Z</time></trkpt><trkpt lat="45.628912717956396" lon="10.699821861776117"><ele>67.0</ele><time>2026-05-01T14:20:02Z</time></trkpt><trkpt lat="45.62875637374256" lon="10.699721655884858"><ele>67.0</ele><time>2026-05-01T14:20:03Z</time></trkpt><trkpt lat="45.628608004537334" lon="10.69962652600202"><ele>66.33333333333333</ele><time>2026-05-01T14:20:04Z</time></trkpt><trkpt lat="45.62846207287509" lon="10.69953328310405"><ele>65.66666666666667</ele><time>2026-05-01T14:20:05Z</time></trkpt><trkpt lat="45.62832386140477" lon="10.699447137244018"><ele>65.0</ele><time>2026-05-01T14:20:06Z</time></trkpt><trkpt lat="45.62819253119383" lon="10.699368341779588"><ele>65.0</ele><time>2026-05-01T14:20:07Z</time></trkpt><trkpt lat="45.62805439969091" lon="10.699288582918538"><ele>65.0</ele><time>2026-05-01T14:20:08Z</time></trkpt><trkpt lat="45.62790715964565" lon="10.699233418454021"><ele>65.0</ele><time>2026-05-01T14:20:09Z</time></trkpt><trkpt lat="45.62775825759854" lon="10.699172715935427"><ele>66.66666666666667</ele><time>2026-05-01T14:20:10Z</time></trkpt><trkpt lat="45.627607017371005" lon="10.699089731555913"><ele>68.33333333333333</ele><time>2026-05-01T14:20:11Z</time></trkpt><trkpt lat="45.62743578404968" lon="10.699028187216209"><ele>70.0</ele><time>2026-05-01T14:20:12Z</time></trkpt><trkpt lat="45.62726786526205" lon="10.698972698287934"><ele>70.0</ele><time>2026-05-01T14:20:13Z</time></trkpt><trkpt lat="45.627106114478636" lon="10.698919756817615"><ele>70.0</ele><time>2026-05-01T14:20:14Z</time></trkpt><trkpt lat="45.626951489829" lon="10.69886922058141"><ele>70.0</ele><time>2026-05-01T14:20:15Z</time></trkpt><trkpt lat="45.6267974500241" lon="10.6988189193543"><ele>69.0</ele><time>2026-05-01T14:20:16Z</time></trkpt><trkpt lat="45.626649981716206" lon="10.698768326124135"><ele>68.0</ele><time>2026-05-01T14:20:17Z</time></trkpt><trkpt lat="45.626511647404556" lon="10.69871392836251"><ele>67.0</ele><time>2026-05-01T14:20:18Z</time></trkpt><trkpt lat="45.62637319110388" lon="10.698647920172593"><ele>66.0</ele><time>2026-05-01T14:20:19Z</time></trkpt><trkpt lat="45.626239591580564" lon="10.69856999110461"><ele>67.0</ele><time>2026-05-01T14:20:20Z</time></trkpt><trkpt lat="45.62611284403544" lon="10.698475398842573"><ele>68.0</ele><time>2026-05-01T14:20:21Z</time></trkpt><trkpt lat="45.62598952072401" lon="10.698362995732566"><ele>69.0</ele><time>2026-05-01T14:20:22Z</time></trkpt><trkpt lat="45.62586327574767" lon="10.698244850232"><ele>70.0</ele><time>2026-05-01T14:20:23Z</time></trkpt><trkpt lat="45.625733387412915" lon="10.698132955883464"><ele>70.0</ele><time>2026-05-01T14:20:24Z</time></trkpt><trkpt lat="45.62559707059195" lon="10.698030393667908"><ele>70.0</ele><time>2026-05-01T14:20:25Z</time></trkpt><trkpt lat="45.62544117899113" lon="10.697923561681819"><ele>70.0</ele><time>2026-05-01T14:20:26Z</time></trkpt><trkpt lat="45.62528334095105" lon="10.697832647001162"><ele>71.66666666666666</ele><time>2026-05-01T14:20:27Z</time></trkpt><trkpt lat="45.62511408806806" lon="10.697756454842246"><ele>73.33333333333333</ele><time>2026-05-01T14:20:28Z</time></trkpt><trkpt lat="45.62492974715679" lon="10.697685633491353"><ele>75.0</ele><time>2026-05-01T14:20:29Z</time></trkpt><trkpt lat="45.624725666636" lon="10.697611456176714"><ele>73.33333333333333</ele><time>2026-05-01T14:20:30Z</time></trkpt><trkpt lat="45.624507000004456" lon="10.697536093764542"><ele>71.66666666666666</ele><time>2026-05-01T14:20:31Z</time></trkpt><trkpt lat="45.62429271907336" lon="10.6974622464877"><ele>70.0</ele><time>2026-05-01T14:20:32Z</time></trkpt><trkpt lat="45.62406487229339" lon="10.697384632385273"><ele>70.0</ele><time>2026-05-01T14:20:33Z</time></trkpt><trkpt lat="45.62385736084077" lon="10.697332600533146"><ele>70.0</ele><time>2026-05-01T14:20:34Z</time></trkpt><trkpt lat="45.62365766731944" lon="10.697269021367154"><ele>70.0</ele><time>2026-05-01T14:20:35Z</time></trkpt><trkpt lat="45.623470026290384" lon="10.697204269608894"><ele>71.0</ele><time>2026-05-01T14:20:36Z</time></trkpt><trkpt lat="45.62328719532331" lon="10.69711853968118"><ele>72.0</ele><time>2026-05-01T14:20:37Z</time></trkpt><trkpt lat="45.62310021596861" lon="10.69705413846953"><ele>73.0</ele><time>2026-05-01T14:20:38Z</time></trkpt><trkpt lat="45.62290819315066" lon="10.696988000013786"><ele>70.66666666666666</ele><time>2026-05-01T14:20:39Z</time></trkpt><trkpt lat="45.62273016326032" lon="10.696926205712407"><ele>68.33333333333333</ele><time>2026-05-01T14:20:40Z</time></trkpt><trkpt lat="45.6225660408062" lon="10.696863124639552"><ele>66.0</ele><time>2026-05-01T14:20:41Z</time></trkpt><trkpt lat="45.622405441550576" lon="10.696783751777803"><ele>66.0</ele><time>2026-05-01T14:20:42Z</time></trkpt><trkpt lat="45.622234853664885" lon="10.696681750391619"><ele>66.0</ele><time>2026-05-01T14:20:43Z</time></trkpt><trkpt lat="45.62208966889619" lon="10.696574014135413"><ele>66.0</ele><time>2026-05-01T14:20:44Z</time></trkpt><trkpt lat="45.62195288101738" lon="10.69646084575307"><ele>66.0</ele><time>2026-05-01T14:20:45Z</time></trkpt><trkpt lat="45.62182156669113" lon="10.69634540334838"><ele>66.0</ele><time>2026-05-01T14:20:46Z</time></trkpt><trkpt lat="45.621700977108276" lon="10.696233964617612"><ele>66.0</ele><time>2026-05-01T14:20:47Z</time></trkpt><trkpt lat="45.62158001845184" lon="10.696121319044362"><ele>66.0</ele><time>2026-05-01T14:20:48Z</time></trkpt><trkpt lat="45.62146001157966" lon="10.696007534981517"><ele>66.0</ele><time>2026-05-01T14:20:49Z</time></trkpt><trkpt lat="45.62134984084192" lon="10.69590816120284"><ele>66.0</ele><time>2026-05-01T14:20:50Z</time></trkpt><trkpt lat="45.62123564164616" lon="10.695809064995613"><ele>66.0</ele><time>2026-05-01T14:20:51Z</time></trkpt><trkpt lat="45.6211195704909" lon="10.695714106617062"><ele>66.0</ele><time>2026-05-01T14:20:52Z</time></trkpt><trkpt lat="45.62100935948264" lon="10.695629531345464"><ele>68.5</ele><time>2026-05-01T14:20:53Z</time></trkpt><trkpt lat="45.62089753544127" lon="10.695557378142775"><ele>71.0</ele><time>2026-05-01T14:20:54Z</time></trkpt><trkpt lat="45.62078634812441" lon="10.695495834582315"><ele>73.5</ele><time>2026-05-01T14:20:55Z</time></trkpt><trkpt lat="45.62068044941706" lon="10.69544405421901"><ele>76.0</ele><time>2026-05-01T14:20:56Z</time></trkpt><trkpt lat="45.62057428189278" lon="10.69541776482522"><ele>76.0</ele><time>2026-05-01T14:20:57Z</time></trkpt><trkpt lat="45.62047762902073" lon="10.695369143937263"><ele>76.0</ele><time>2026-05-01T14:20:58Z</time></trkpt><trkpt lat="45.620383894663306" lon="10.69532139193449"><ele>76.0</ele><time>2026-05-01T14:20:59Z</time></trkpt><trkpt lat="45.62028325348275" lon="10.695269155555653"><ele>76.0</ele><time>2026-05-01T14:21:00Z</time></trkpt><trkpt lat="45.620175132357005" lon="10.695229075097712"><ele>76.0</ele><time>2026-05-01T14:21:01Z</time></trkpt><trkpt lat="45.6200677323796" lon="10.695185408090126"><ele>74.0</ele><time>2026-05-01T14:21:02Z</time></trkpt><trkpt lat="45.61996106696712" lon="10.695125412659625"><ele>72.0</ele><time>2026-05-01T14:21:03Z</time></trkpt><trkpt lat="45.61985386305406" lon="10.695071923683495"><ele>70.0</ele><time>2026-05-01T14:21:04Z</time></trkpt><trkpt lat="45.61974754810532" lon="10.694998935299099"><ele>68.0</ele><time>2026-05-01T14:21:05Z</time></trkpt><trkpt lat="45.61962805658783" lon="10.69493486550965"><ele>68.0</ele><time>2026-05-01T14:21:06Z</time></trkpt><trkpt lat="45.6195223666234" lon="10.694857212804376"><ele>68.0</ele><time>2026-05-01T14:21:07Z</time></trkpt><trkpt lat="45.61942064509168" lon="10.694780865861658"><ele>68.0</ele><time>2026-05-01T14:21:08Z</time></trkpt><trkpt lat="45.61932912795865" lon="10.694711820959485"><ele>68.0</ele><time>2026-05-01T14:21:09Z</time></trkpt><trkpt lat="45.61924449730209" lon="10.694642625304152"><ele>68.0</ele><time>2026-05-01T14:21:10Z</time></trkpt><trkpt lat="45.6191634934531" lon="10.69456292934785"><ele>67.75</ele><time>2026-05-01T14:21:11Z</time></trkpt><trkpt lat="45.61906936041342" lon="10.694488370869884"><ele>67.5</ele><time>2026-05-01T14:21:12Z</time></trkpt><trkpt lat="45.61897760601727" lon="10.694403942416457"><ele>67.25</ele><time>2026-05-01T14:21:13Z</time></trkpt><trkpt lat="45.61888207345911" lon="10.69433446356641"><ele>67.0</ele><time>2026-05-01T14:21:14Z</time></trkpt><trkpt lat="45.61877081947956" lon="10.69424601803679"><ele>68.25</ele><time>2026-05-01T14:21:15Z</time></trkpt><trkpt lat="45.61865116989109" lon="10.69417921714986"><ele>69.5</ele><time>2026-05-01T14:21:16Z</time></trkpt><trkpt lat="45.618541202916504" lon="10.694134568076233"><ele>70.75</ele><time>2026-05-01T14:21:17Z</time></trkpt><trkpt lat="45.618435571232816" lon="10.694077819939846"><ele>72.0</ele><time>2026-05-01T14:21:18Z</time></trkpt><trkpt lat="45.61831567088554" lon="10.6940327676151"><ele>72.0</ele><time>2026-05-01T14:21:19Z</time></trkpt><trkpt lat="45.618198125785064" lon="10.693982504996471"><ele>72.0</ele><time>2026-05-01T14:21:20Z</time></trkpt><trkpt lat="45.6180799845081" lon="10.693916489603474"><ele>72.0</ele><time>2026-05-01T14:21:21Z</time></trkpt><trkpt lat="45.61795019533972" lon="10.693858991926561"><ele>72.0</ele><time>2026-05-01T14:21:22Z</time></trkpt><trkpt lat="45.617824435306005" lon="10.693801294913163"><ele>73.75</ele><time>2026-05-01T14:21:23Z</time></trkpt><trkpt lat="45.617698856437336" lon="10.693749606887117"><ele>75.5</ele><time>2026-05-01T14:21:24Z</time></trkpt><trkpt lat="45.617585636826554" lon="10.693701298162384"><ele>77.25</ele><time>2026-05-01T14:21:25Z</time></trkpt><trkpt lat="45.61747867285185" lon="10.693650311720225"><ele>79.0</ele><time>2026-05-01T14:21:26Z</time></trkpt><trkpt lat="45.617382475918184" lon="10.693611008227112"><ele>78.0</ele><time>2026-05-01T14:21:27Z</time></trkpt><trkpt lat="45.61728825228008" lon="10.693544577164925"><ele>77.0</ele><time>2026-05-01T14:21:28Z</time></trkpt><trkpt lat="45.61719380171338" lon="10.693507092282601"><ele>76.0</ele><time>2026-05-01T14:21:29Z</time></trkpt><trkpt lat="45.617101431073756" lon="10.693456081278969"><ele>75.0</ele><time>2026-05-01T14:21:30Z</time></trkpt><trkpt lat="45.61700794632219" lon="10.693412067475263"><ele>74.0</ele><time>2026-05-01T14:21:31.001Z</time></trkpt><trkpt lat="45.616904186027256" lon="10.693350470758837"><ele>74.0</ele><time>2026-05-01T14:21:32.001Z</time></trkpt><trkpt lat="45.61679743351291" lon="10.693292409717216"><ele>74.0</ele><time>2026-05-01T14:21:33.001Z</time></trkpt><trkpt lat="45.616697478195825" lon="10.693234074540147"><ele>74.0</ele><time>2026-05-01T14:21:34.001Z</time></trkpt><trkpt lat="45.61660304471253" lon="10.693177952515727"><ele>74.0</ele><time>2026-05-01T14:21:35.001Z</time></trkpt><trkpt lat="45.61650513452281" lon="10.693124476040387"><ele>74.0</ele><time>2026-05-01T14:21:36.001Z</time></trkpt><trkpt lat="45.61640459162242" lon="10.693073270655576"><ele>74.0</ele><time>2026-05-01T14:21:37Z</time></trkpt><trkpt lat="45.616310959790674" lon="10.693026400134793"><ele>74.0</ele><time>2026-05-01T14:21:38Z</time></trkpt><trkpt lat="45.616218002885496" lon="10.692975140227267"><ele>74.0</ele><time>2026-05-01T14:21:39Z</time></trkpt><trkpt lat="45.61612415449802" lon="10.692910183422857"><ele>74.0</ele><time>2026-05-01T14:21:40Z</time></trkpt><trkpt lat="45.616025068458804" lon="10.692849114735312"><ele>74.0</ele><time>2026-05-01T14:21:41Z</time></trkpt><trkpt lat="45.61592161298192" lon="10.692783691989208"><ele>72.5</ele><time>2026-05-01T14:21:42Z</time></trkpt><trkpt lat="45.61581354061742" lon="10.692725187403372"><ele>71.0</ele><time>2026-05-01T14:21:43Z</time></trkpt><trkpt lat="45.61570681632854" lon="10.692668473794438"><ele>69.5</ele><time>2026-05-01T14:21:44Z</time></trkpt><trkpt lat="45.61559857308692" lon="10.692609494419788"><ele>68.0</ele><time>2026-05-01T14:21:45Z</time></trkpt><trkpt lat="45.61549877391899" lon="10.692544220164166"><ele>68.0</ele><time>2026-05-01T14:21:46Z</time></trkpt><trkpt lat="45.61539121913165" lon="10.69248262320908"><ele>68.0</ele><time>2026-05-01T14:21:47Z</time></trkpt><trkpt lat="45.61529296417565" lon="10.692421891065607"><ele>68.0</ele><time>2026-05-01T14:21:48Z</time></trkpt><trkpt lat="45.6152030403858" lon="10.6923668263954"><ele>68.0</ele><time>2026-05-01T14:21:49Z</time></trkpt><trkpt lat="45.61511523346008" lon="10.692319581700112"><ele>68.0</ele><time>2026-05-01T14:21:50Z</time></trkpt><trkpt lat="45.615027284291685" lon="10.692274853389641"><ele>69.0</ele><time>2026-05-01T14:21:51Z</time></trkpt><trkpt lat="45.61493470313971" lon="10.692214936251448"><ele>70.0</ele><time>2026-05-01T14:21:52Z</time></trkpt><trkpt lat="45.61484322867942" lon="10.692165156717627"><ele>71.0</ele><time>2026-05-01T14:21:53Z</time></trkpt><trkpt lat="45.61475012642905" lon="10.692113284730558"><ele>72.0</ele><time>2026-05-01T14:21:54Z</time></trkpt><trkpt lat="45.614658732942075" lon="10.69206189894997"><ele>73.0</ele><time>2026-05-01T14:21:55Z</time></trkpt><trkpt lat="45.614566685191555" lon="10.692001808012677"><ele>72.0</ele><time>2026-05-01T14:21:56Z</time></trkpt><trkpt lat="45.61446999748811" lon="10.691951789274546"><ele>71.0</ele><time>2026-05-01T14:21:57Z</time></trkpt><trkpt lat="45.6143821297592" lon="10.691904008197222"><ele>70.0</ele><time>2026-05-01T14:21:58Z</time></trkpt><trkpt lat="45.614293728693276" lon="10.691856358254842"><ele>69.0</ele><time>2026-05-01T14:21:59Z</time></trkpt><trkpt lat="45.61421689661772" lon="10.691785257442413"><ele>68.0</ele><time>2026-05-01T14:22:00Z</time></trkpt><trkpt lat="45.61413329444881" lon="10.691747165188852"><ele>68.0</ele><time>2026-05-01T14:22:01Z</time></trkpt><trkpt lat="45.614051874433166" lon="10.6916835072699"><ele>68.0</ele><time>2026-05-01T14:22:02Z</time></trkpt><trkpt lat="45.61399358954629" lon="10.691596521174834"><ele>68.0</ele><time>2026-05-01T14:22:03Z</time></trkpt><trkpt lat="45.61392935318041" lon="10.691525629079939"><ele>68.0</ele><time>2026-05-01T14:22:04Z</time></trkpt><trkpt lat="45.613855179503375" lon="10.691451897571872"><ele>68.0</ele><time>2026-05-01T14:22:05Z</time></trkpt><trkpt lat="45.61379954208796" lon="10.691364079818715"><ele>68.0</ele><time>2026-05-01T14:22:06Z</time></trkpt><trkpt lat="45.6137487620832" lon="10.691280115290821"><ele>68.0</ele><time>2026-05-01T14:22:07Z</time></trkpt><trkpt lat="45.613706784210514" lon="10.69120548753002"><ele>68.0</ele><time>2026-05-01T14:22:08Z</time></trkpt><trkpt lat="45.613651331636156" lon="10.691087814071256"><ele>68.0</ele><time>2026-05-01T14:22:10Z</time></trkpt><trkpt lat="45.61361859768117" lon="10.691009778177792"><ele>68.0</ele><time>2026-05-01T14:22:16Z</time></trkpt><trkpt lat="45.61357550780417" lon="10.690897918468812"><ele>68.0</ele><time>2026-05-01T14:22:18Z</time></trkpt><trkpt lat="45.61354999775007" lon="10.690810909055424"><ele>68.0</ele><time>2026-05-01T14:22:19Z</time></trkpt><trkpt lat="45.613523411940314" lon="10.690721384162392"><ele>68.6</ele><time>2026-05-01T14:22:20Z</time></trkpt><trkpt lat="45.6134944770104" lon="10.690614311841626"><ele>69.19999999999999</ele><time>2026-05-01T14:22:21Z</time></trkpt><trkpt lat="45.61346783978307" lon="10.690487504630514"><ele>69.8</ele><time>2026-05-01T14:22:22Z</time></trkpt><trkpt lat="45.61343727151931" lon="10.690355846098363"><ele>70.39999999999999</ele><time>2026-05-01T14:22:23Z</time></trkpt><trkpt lat="45.61340836469058" lon="10.69022307486113"><ele>71.0</ele><time>2026-05-01T14:22:24Z</time></trkpt><trkpt lat="45.613371488164475" lon="10.690090697772115"><ele>71.0</ele><time>2026-05-01T14:22:25Z</time></trkpt><trkpt lat="45.613337839896616" lon="10.689951711981617"><ele>71.0</ele><time>2026-05-01T14:22:26Z</time></trkpt><trkpt lat="45.61329838697187" lon="10.689808861129565"><ele>71.0</ele><time>2026-05-01T14:22:27Z</time></trkpt><trkpt lat="45.61326127216818" lon="10.689648635807366"><ele>71.0</ele><time>2026-05-01T14:22:28Z</time></trkpt><trkpt lat="45.61321720478564" lon="10.689474308127373"><ele>71.5</ele><time>2026-05-01T14:22:29Z</time></trkpt><trkpt lat="45.61317680456905" lon="10.68931069876832"><ele>72.0</ele><time>2026-05-01T14:22:30Z</time></trkpt><trkpt lat="45.61313066373958" lon="10.689138627277984"><ele>72.5</ele><time>2026-05-01T14:22:31Z</time></trkpt><trkpt lat="45.61308824054645" lon="10.688977816716278"><ele>73.0</ele><time>2026-05-01T14:22:32Z</time></trkpt><trkpt lat="45.61303904247867" lon="10.688829321933454"><ele>73.0</ele><time>2026-05-01T14:22:33Z</time></trkpt><trkpt lat="45.61298304377539" lon="10.688694423150512"><ele>73.0</ele><time>2026-05-01T14:22:34Z</time></trkpt><trkpt lat="45.612924920683106" lon="10.688565707620988"><ele>73.0</ele><time>2026-05-01T14:22:35Z</time></trkpt><trkpt lat="45.612850155153886" lon="10.688439073806112"><ele>73.0</ele><time>2026-05-01T14:22:36Z</time></trkpt><trkpt lat="45.61276798816019" lon="10.688330475758075"><ele>73.0</ele><time>2026-05-01T14:22:37Z</time></trkpt><trkpt lat="45.612669604451966" lon="10.688235521142797"><ele>72.25</ele><time>2026-05-01T14:22:38Z</time></trkpt><trkpt lat="45.612576093228924" lon="10.688135132541923"><ele>71.5</ele><time>2026-05-01T14:22:39Z</time></trkpt><trkpt lat="45.61246878670683" lon="10.688052669000328"><ele>70.75</ele><time>2026-05-01T14:22:40Z</time></trkpt><trkpt lat="45.61237134667647" lon="10.687964757024016"><ele>70.0</ele><time>2026-05-01T14:22:41Z</time></trkpt><trkpt lat="45.61227919612418" lon="10.687889132491565"><ele>70.0</ele><time>2026-05-01T14:22:42Z</time></trkpt><trkpt lat="45.61219731395162" lon="10.687814601164328"><ele>70.0</ele><time>2026-05-01T14:22:43Z</time></trkpt><trkpt lat="45.61211145229734" lon="10.687742298362856"><ele>70.0</ele><time>2026-05-01T14:22:44Z</time></trkpt><trkpt lat="45.61202807791467" lon="10.687669670668592"><ele>70.0</ele><time>2026-05-01T14:22:45Z</time></trkpt><trkpt lat="45.61194178197176" lon="10.68760134190916"><ele>70.0</ele><time>2026-05-01T14:22:46Z</time></trkpt><trkpt lat="45.61185009079724" lon="10.687536392257256"><ele>70.0</ele><time>2026-05-01T14:22:47Z</time></trkpt><trkpt lat="45.61176688566062" lon="10.68745160920574"><ele>70.0</ele><time>2026-05-01T14:22:48Z</time></trkpt><trkpt lat="45.61167366850756" lon="10.687398428308668"><ele>70.0</ele><time>2026-05-01T14:22:49Z</time></trkpt><trkpt lat="45.61158493127039" lon="10.687355152458268"><ele>70.0</ele><time>2026-05-01T14:22:50Z</time></trkpt><trkpt lat="45.61149926674421" lon="10.687312373815834"><ele>70.0</ele><time>2026-05-01T14:22:51Z</time></trkpt><trkpt lat="45.611426301843245" lon="10.687288148546859"><ele>70.0</ele><time>2026-05-01T14:22:52Z</time></trkpt><trkpt lat="45.611352295610466" lon="10.687260188118865"><ele>70.0</ele><time>2026-05-01T14:22:53Z</time></trkpt><trkpt lat="45.611278658299526" lon="10.687233938120485"><ele>70.0</ele><time>2026-05-01T14:22:54Z</time></trkpt><trkpt lat="45.61120016180268" lon="10.687211704583806"><ele>70.0</ele><time>2026-05-01T14:22:55Z</time></trkpt><trkpt lat="45.61111972878785" lon="10.68719105781845"><ele>70.0</ele><time>2026-05-01T14:22:56Z</time></trkpt><trkpt lat="45.61103949719917" lon="10.687158338800343"><ele>70.0</ele><time>2026-05-01T14:22:57Z</time></trkpt><trkpt lat="45.61096464013453" lon="10.68714436151531"><ele>69.83333333333333</ele><time>2026-05-01T14:22:58Z</time></trkpt><trkpt lat="45.61089169085997" lon="10.687125879957442"><ele>69.66666666666666</ele><time>2026-05-01T14:22:59Z</time></trkpt><trkpt lat="45.61082339085456" lon="10.687110779380712"><ele>69.5</ele><time>2026-05-01T14:23:00Z</time></trkpt><trkpt lat="45.61073705758245" lon="10.687087314538537"><ele>69.33333333333333</ele><time>2026-05-01T14:23:02Z</time></trkpt><trkpt lat="45.61063774713446" lon="10.68707366474125"><ele>69.16666666666667</ele><time>2026-05-01T14:23:05Z</time></trkpt><trkpt lat="45.61055395219723" lon="10.687061237891038"><ele>69.0</ele><time>2026-05-01T14:23:06Z</time></trkpt><trkpt lat="45.61047916752364" lon="10.687056613996228"><ele>69.0</ele><time>2026-05-01T14:23:07Z</time></trkpt><trkpt lat="45.61039786804283" lon="10.687039971397391"><ele>69.0</ele><time>2026-05-01T14:23:08Z</time></trkpt><trkpt lat="45.61030777147095" lon="10.68702783574894"><ele>69.0</ele><time>2026-05-01T14:23:09Z</time></trkpt><trkpt lat="45.610220122026966" lon="10.686990573218809"><ele>69.0</ele><time>2026-05-01T14:23:10Z</time></trkpt><trkpt lat="45.61013108920464" lon="10.686971403671157"><ele>69.0</ele><time>2026-05-01T14:23:11Z</time></trkpt><trkpt lat="45.61003736173458" lon="10.686951073294468"><ele>69.0</ele><time>2026-05-01T14:23:12Z</time></trkpt><trkpt lat="45.60994557122107" lon="10.686925454672377"><ele>69.5</ele><time>2026-05-01T14:23:13Z</time></trkpt><trkpt lat="45.60987613653436" lon="10.686922552770904"><ele>70.0</ele><time>2026-05-01T14:23:14Z</time></trkpt><trkpt lat="45.60981402982723" lon="10.686903369106801"><ele>70.5</ele><time>2026-05-01T14:23:15Z</time></trkpt><trkpt lat="45.60970000353984" lon="10.686866032399791"><ele>71.0</ele><time>2026-05-01T14:23:17Z</time></trkpt><trkpt lat="45.609586332862605" lon="10.68684397158859"><ele>71.5</ele><time>2026-05-01T14:23:19Z</time></trkpt><trkpt lat="45.60952050002559" lon="10.686830219814956"><ele>72.0</ele><time>2026-05-01T14:23:20Z</time></trkpt><trkpt lat="45.60944855294914" lon="10.686813283103126"><ele>72.0</ele><time>2026-05-01T14:23:21Z</time></trkpt><trkpt lat="45.6093800163577" lon="10.686793506083859"><ele>72.0</ele><time>2026-05-01T14:23:22Z</time></trkpt><trkpt lat="45.60925825388259" lon="10.686776878364327"><ele>72.0</ele><time>2026-05-01T14:23:24Z</time></trkpt><trkpt lat="45.609155107482444" lon="10.686745602119416"><ele>72.0</ele><time>2026-05-01T14:23:26Z</time></trkpt><trkpt lat="45.60902946137567" lon="10.686727400848037"><ele>72.0</ele><time>2026-05-01T14:23:28Z</time></trkpt><trkpt lat="45.60895103048015" lon="10.686689652993202"><ele>72.0</ele><time>2026-05-01T14:23:29Z</time></trkpt><trkpt lat="45.60885748057658" lon="10.686678609849702"><ele>72.0</ele><time>2026-05-01T14:23:30Z</time></trkpt><trkpt lat="45.60875768504981" lon="10.686656088791581"><ele>72.0</ele><time>2026-05-01T14:23:31Z</time></trkpt><trkpt lat="45.608676798545616" lon="10.686637392313296"><ele>72.0</ele><time>2026-05-01T14:23:32Z</time></trkpt><trkpt lat="45.6086007608964" lon="10.686622438103033"><ele>72.0</ele><time>2026-05-01T14:23:33Z</time></trkpt><trkpt lat="45.60852725671199" lon="10.686605486928036"><ele>72.0</ele><time>2026-05-01T14:23:34Z</time></trkpt><trkpt lat="45.608454717548234" lon="10.686590244128066"><ele>72.00000000000001</ele><time>2026-05-01T14:23:35Z</time></trkpt><trkpt lat="45.60839138891545" lon="10.686574141925497"><ele>72.0</ele><time>2026-05-01T14:23:36.001Z</time></trkpt><trkpt lat="45.608324981927225" lon="10.686564102640213"><ele>72.0</ele><time>2026-05-01T14:23:37.001Z</time></trkpt><trkpt lat="45.60824782145885" lon="10.686551179877112"><ele>72.0</ele><time>2026-05-01T14:23:38.001Z</time></trkpt><trkpt lat="45.60817181856044" lon="10.686509331548335"><ele>72.0</ele><time>2026-05-01T14:23:39.001Z</time></trkpt><trkpt lat="45.608096937159935" lon="10.686491659588661"><ele>72.00000000000001</ele><time>2026-05-01T14:23:40.001Z</time></trkpt><trkpt lat="45.60803287766091" lon="10.686476541594553"><ele>72.0</ele><time>2026-05-01T14:23:41.001Z</time></trkpt><trkpt lat="45.607911710053415" lon="10.686447946135239"><ele>72.0</ele><time>2026-05-01T14:23:43Z</time></trkpt><trkpt lat="45.607832314447904" lon="10.686429692119043"><ele>72.0</ele><time>2026-05-01T14:23:45Z</time></trkpt><trkpt lat="45.60775031700356" lon="10.686411029257583"><ele>72.0</ele><time>2026-05-01T14:23:48Z</time></trkpt><trkpt lat="45.60768159574309" lon="10.68639538824903"><ele>72.0</ele><time>2026-05-01T14:23:50Z</time></trkpt><trkpt lat="45.60759895512415" lon="10.686376327199882"><ele>72.0</ele><time>2026-05-01T14:23:52Z</time></trkpt><trkpt lat="45.607483532833434" lon="10.68634962432553"><ele>72.0</ele><time>2026-05-01T14:23:54Z</time></trkpt><trkpt lat="45.6074049408594" lon="10.686331401689415"><ele>72.0</ele><time>2026-05-01T14:23:55Z</time></trkpt><trkpt lat="45.60731779053175" lon="10.686311194675094"><ele>72.0</ele><time>2026-05-01T14:23:56Z</time></trkpt><trkpt lat="45.60722668401471" lon="10.686290070371976"><ele>72.0</ele><time>2026-05-01T14:23:57Z</time></trkpt><trkpt lat="45.607132273112484" lon="10.686288014736895"><ele>72.0</ele><time>2026-05-01T14:23:58Z</time></trkpt><trkpt lat="45.60703309257631" lon="10.686256629127467"><ele>72.0</ele><time>2026-05-01T14:23:59Z</time></trkpt><trkpt lat="45.606926387484876" lon="10.686225220501413"><ele>71.8</ele><time>2026-05-01T14:24:00Z</time></trkpt><trkpt lat="45.60681429150374" lon="10.686191524529756"><ele>71.6</ele><time>2026-05-01T14:24:01Z</time></trkpt><trkpt lat="45.60669295600927" lon="10.686164039126862"><ele>71.39999999999999</ele><time>2026-05-01T14:24:02Z</time></trkpt><trkpt lat="45.60658860975202" lon="10.686146519207778"><ele>71.2</ele><time>2026-05-01T14:24:03Z</time></trkpt><trkpt lat="45.60649292351967" lon="10.686106290984583"><ele>71.0</ele><time>2026-05-01T14:24:04Z</time></trkpt><trkpt lat="45.60638861924517" lon="10.686082857548827"><ele>70.39999999999999</ele><time>2026-05-01T14:24:05Z</time></trkpt><trkpt lat="45.606284683140075" lon="10.686063523442845"><ele>69.8</ele><time>2026-05-01T14:24:06Z</time></trkpt><trkpt lat="45.606177065094386" lon="10.68604660536118"><ele>69.19999999999999</ele><time>2026-05-01T14:24:07Z</time></trkpt><trkpt lat="45.60606986828493" lon="10.686035496963314"><ele>68.6</ele><time>2026-05-01T14:24:08Z</time></trkpt><trkpt lat="45.60596548307538" lon="10.686027941822887"><ele>68.0</ele><time>2026-05-01T14:24:09Z</time></trkpt><trkpt lat="45.60587076946365" lon="10.686024205601887"><ele>68.0</ele><time>2026-05-01T14:24:10Z</time></trkpt><trkpt lat="45.60577370652538" lon="10.686025284913471"><ele>68.0</ele><time>2026-05-01T14:24:11Z</time></trkpt><trkpt lat="45.60566809686257" lon="10.686029763899505"><ele>68.0</ele><time>2026-05-01T14:24:12Z</time></trkpt><trkpt lat="45.6055691413475" lon="10.686035076569542"><ele>68.0</ele><time>2026-05-01T14:24:13Z</time></trkpt><trkpt lat="45.605461424148636" lon="10.68604177786656"><ele>68.0</ele><time>2026-05-01T14:24:14Z</time></trkpt><trkpt lat="45.605367177495225" lon="10.686043518906555"><ele>68.0</ele><time>2026-05-01T14:24:15Z</time></trkpt><trkpt lat="45.60527152385444" lon="10.686044414788947"><ele>68.0</ele><time>2026-05-01T14:24:16Z</time></trkpt><trkpt lat="45.605171859417936" lon="10.686040393654816"><ele>68.0</ele><time>2026-05-01T14:24:17Z</time></trkpt><trkpt lat="45.60506188024004" lon="10.68603956544707"><ele>68.0</ele><time>2026-05-01T14:24:18Z</time></trkpt><trkpt lat="45.60495220838073" lon="10.686058475019621"><ele>68.0</ele><time>2026-05-01T14:24:19Z</time></trkpt><trkpt lat="45.60484064962713" lon="10.686062697003635"><ele>68.0</ele><time>2026-05-01T14:24:20Z</time></trkpt><trkpt lat="45.60472235849298" lon="10.686061902468904"><ele>68.0</ele><time>2026-05-01T14:24:21Z</time></trkpt><trkpt lat="45.60460471197102" lon="10.686056994064241"><ele>68.0</ele><time>2026-05-01T14:24:22Z</time></trkpt><trkpt lat="45.60449432187114" lon="10.686051818171336"><ele>68.0</ele><time>2026-05-01T14:24:23Z</time></trkpt><trkpt lat="45.604382319119104" lon="10.686051550719528"><ele>68.2</ele><time>2026-05-01T14:24:24Z</time></trkpt><trkpt lat="45.60427549486266" lon="10.686035884156707"><ele>68.4</ele><time>2026-05-01T14:24:25Z</time></trkpt><trkpt lat="45.60418836732486" lon="10.68603750713196"><ele>68.60000000000001</ele><time>2026-05-01T14:24:26Z</time></trkpt><trkpt lat="45.604094092396" lon="10.686018413326986"><ele>68.8</ele><time>2026-05-01T14:24:27Z</time></trkpt><trkpt lat="45.603995471898365" lon="10.686015131429176"><ele>69.0</ele><time>2026-05-01T14:24:28Z</time></trkpt><trkpt lat="45.60389059697315" lon="10.68597712540711"><ele>69.0</ele><time>2026-05-01T14:24:29Z</time></trkpt><trkpt lat="45.60378847604509" lon="10.685977846200306"><ele>69.0</ele><time>2026-05-01T14:24:30Z</time></trkpt><trkpt lat="45.6036944798271" lon="10.685944927939362"><ele>69.0</ele><time>2026-05-01T14:24:31Z</time></trkpt><trkpt lat="45.603596611957215" lon="10.685927141347191"><ele>69.0</ele><time>2026-05-01T14:24:32Z</time></trkpt><trkpt lat="45.60350038834638" lon="10.685893396324534"><ele>69.0</ele><time>2026-05-01T14:24:33Z</time></trkpt><trkpt lat="45.603396144922144" lon="10.685867983823384"><ele>69.60000000000001</ele><time>2026-05-01T14:24:34Z</time></trkpt><trkpt lat="45.603285007032675" lon="10.685838590546204"><ele>70.2</ele><time>2026-05-01T14:24:35Z</time></trkpt><trkpt lat="45.60318067058247" lon="10.685799740367706"><ele>70.80000000000001</ele><time>2026-05-01T14:24:36Z</time></trkpt><trkpt lat="45.60307535557899" lon="10.685777471863467"><ele>71.4</ele><time>2026-05-01T14:24:37Z</time></trkpt><trkpt lat="45.60297235404575" lon="10.68575105541082"><ele>72.0</ele><time>2026-05-01T14:24:38Z</time></trkpt><trkpt lat="45.6028841731717" lon="10.685710887290467"><ele>71.8</ele><time>2026-05-01T14:24:39Z</time></trkpt><trkpt lat="45.602788582951" lon="10.685692523329983"><ele>71.6</ele><time>2026-05-01T14:24:40Z</time></trkpt><trkpt lat="45.60268618103827" lon="10.68566755387432"><ele>71.39999999999999</ele><time>2026-05-01T14:24:41Z</time></trkpt><trkpt lat="45.602585460780126" lon="10.685641205776653"><ele>71.2</ele><time>2026-05-01T14:24:42Z</time></trkpt><trkpt lat="45.602494058593756" lon="10.685607859513766"><ele>71.0</ele><time>2026-05-01T14:24:43Z</time></trkpt><trkpt lat="45.602398564671276" lon="10.685588463728742"><ele>71.0</ele><time>2026-05-01T14:24:44Z</time></trkpt><trkpt lat="45.602307304093365" lon="10.685559284846432"><ele>71.0</ele><time>2026-05-01T14:24:45Z</time></trkpt><trkpt lat="45.602218050975516" lon="10.68552701665391"><ele>71.0</ele><time>2026-05-01T14:24:46Z</time></trkpt><trkpt lat="45.60212645862627" lon="10.685509242686054"><ele>71.0</ele><time>2026-05-01T14:24:47Z</time></trkpt><trkpt lat="45.60203287737911" lon="10.6854728938012"><ele>71.0</ele><time>2026-05-01T14:24:48Z</time></trkpt><trkpt lat="45.60193524325477" lon="10.68545957644775"><ele>71.33333333333334</ele><time>2026-05-01T14:24:49Z</time></trkpt><trkpt lat="45.60183929907669" lon="10.685429065652347"><ele>71.66666666666667</ele><time>2026-05-01T14:24:50Z</time></trkpt><trkpt lat="45.60174304306885" lon="10.685422850053449"><ele>72.0</ele><time>2026-05-01T14:24:51Z</time></trkpt><trkpt lat="45.60165515531779" lon="10.685418898771323"><ele>72.33333333333333</ele><time>2026-05-01T14:24:52Z</time></trkpt><trkpt lat="45.60156870352408" lon="10.68541957495059"><ele>72.66666666666666</ele><time>2026-05-01T14:24:53Z</time></trkpt><trkpt lat="45.60148889386139" lon="10.685420273383992"><ele>73.0</ele><time>2026-05-01T14:24:54Z</time></trkpt><trkpt lat="45.60140818318761" lon="10.685420124462873"><ele>73.0</ele><time>2026-05-01T14:24:55Z</time></trkpt><trkpt lat="45.60131937000405" lon="10.68541975478966"><ele>73.0</ele><time>2026-05-01T14:24:56Z</time></trkpt><trkpt lat="45.60123132220556" lon="10.68541248664982"><ele>73.0</ele><time>2026-05-01T14:24:57Z</time></trkpt><trkpt lat="45.6011447057251" lon="10.685407684396449"><ele>73.0</ele><time>2026-05-01T14:24:58Z</time></trkpt><trkpt lat="45.601063341496" lon="10.68541140234103"><ele>73.0</ele><time>2026-05-01T14:24:59Z</time></trkpt><trkpt lat="45.600973952934666" lon="10.685403130290657"><ele>73.0</ele><time>2026-05-01T14:25:00Z</time></trkpt><trkpt lat="45.600867514616574" lon="10.685407900543623"><ele>72.5</ele><time>2026-05-01T14:25:01Z</time></trkpt><trkpt lat="45.60075853235586" lon="10.685397398438804"><ele>72.0</ele><time>2026-05-01T14:25:02Z</time></trkpt><trkpt lat="45.60064863020007" lon="10.685401673861351"><ele>71.5</ele><time>2026-05-01T14:25:03Z</time></trkpt><trkpt lat="45.600525369248004" lon="10.685396550193676"><ele>71.0</ele><time>2026-05-01T14:25:04Z</time></trkpt><trkpt lat="45.600373786717924" lon="10.685396089430009"><ele>72.0</ele><time>2026-05-01T14:25:05Z</time></trkpt><trkpt lat="45.60020992275795" lon="10.68538302062055"><ele>73.0</ele><time>2026-05-01T14:25:06Z</time></trkpt><trkpt lat="45.60005917925975" lon="10.685373925414636"><ele>74.0</ele><time>2026-05-01T14:25:07Z</time></trkpt><trkpt lat="45.59992421787569" lon="10.6853673358628"><ele>74.0</ele><time>2026-05-01T14:25:08Z</time></trkpt><trkpt lat="45.59979470981762" lon="10.685361816672264"><ele>74.0</ele><time>2026-05-01T14:25:09Z</time></trkpt><trkpt lat="45.599676061404196" lon="10.685358153719756"><ele>74.0</ele><time>2026-05-01T14:25:10Z</time></trkpt><trkpt lat="45.59955674013637" lon="10.685323550359376"><ele>74.0</ele><time>2026-05-01T14:25:11Z</time></trkpt><trkpt lat="45.59941763734313" lon="10.685277407767483"><ele>73.33333333333334</ele><time>2026-05-01T14:25:12Z</time></trkpt><trkpt lat="45.59927137152726" lon="10.685206656972927"><ele>72.66666666666667</ele><time>2026-05-01T14:25:13Z</time></trkpt><trkpt lat="45.59911292651368" lon="10.685092715597246"><ele>72.0</ele><time>2026-05-01T14:25:14Z</time></trkpt><trkpt lat="45.598968745886694" lon="10.684950936944183"><ele>72.0</ele><time>2026-05-01T14:25:15Z</time></trkpt><trkpt lat="45.598816406675226" lon="10.684789840271824"><ele>72.0</ele><time>2026-05-01T14:25:16Z</time></trkpt><trkpt lat="45.598663024427644" lon="10.684631451248043"><ele>72.0</ele><time>2026-05-01T14:25:17Z</time></trkpt><trkpt lat="45.59851651825407" lon="10.684509866023438"><ele>70.66666666666667</ele><time>2026-05-01T14:25:18Z</time></trkpt><trkpt lat="45.5983940102526" lon="10.684371902489104"><ele>69.33333333333334</ele><time>2026-05-01T14:25:19Z</time></trkpt><trkpt lat="45.59823645245845" lon="10.684249100778306"><ele>68.0</ele><time>2026-05-01T14:25:20Z</time></trkpt><trkpt lat="45.59808621321749" lon="10.68414228278003"><ele>68.0</ele><time>2026-05-01T14:25:21Z</time></trkpt><trkpt lat="45.59794376998896" lon="10.684039631309433"><ele>68.0</ele><time>2026-05-01T14:25:22Z</time></trkpt><trkpt lat="45.59780093163517" lon="10.683936695093863"><ele>68.0</ele><time>2026-05-01T14:25:23Z</time></trkpt><trkpt lat="45.597673995410844" lon="10.683845218719847"><ele>68.5</ele><time>2026-05-01T14:25:24Z</time></trkpt><trkpt lat="45.597553181043956" lon="10.683758154051626"><ele>69.0</ele><time>2026-05-01T14:25:25Z</time></trkpt><trkpt lat="45.59743558494892" lon="10.683673408626372"><ele>69.5</ele><time>2026-05-01T14:25:26Z</time></trkpt><trkpt lat="45.597316778268116" lon="10.683587810546237"><ele>70.0</ele><time>2026-05-01T14:25:27Z</time></trkpt><trkpt lat="45.59720312687718" lon="10.683506054265399"><ele>70.0</ele><time>2026-05-01T14:25:28Z</time></trkpt><trkpt lat="45.59708647236525" lon="10.683422137658482"><ele>70.0</ele><time>2026-05-01T14:25:29.001Z</time></trkpt><trkpt lat="45.59696620206648" lon="10.683335620000461"><ele>70.0</ele><time>2026-05-01T14:25:30.001Z</time></trkpt><trkpt lat="45.596847948709936" lon="10.683249893083769"><ele>70.0</ele><time>2026-05-01T14:25:31.001Z</time></trkpt><trkpt lat="45.59673883743959" lon="10.683170183996566"><ele>73.0</ele><time>2026-05-01T14:25:32.001Z</time></trkpt><trkpt lat="45.596625860484" lon="10.683086900343117"><ele>76.0</ele><time>2026-05-01T14:25:33.001Z</time></trkpt><trkpt lat="45.59651353620406" lon="10.683003672772294"><ele>79.0</ele><time>2026-05-01T14:25:34.001Z</time></trkpt><trkpt lat="45.59640558825044" lon="10.682926422113916"><ele>82.0</ele><time>2026-05-01T14:25:35.001Z</time></trkpt><trkpt lat="45.59629871764755" lon="10.682853446713583"><ele>78.33333333333333</ele><time>2026-05-01T14:25:36.001Z</time></trkpt><trkpt lat="45.596161955011546" lon="10.682762097019996"><ele>74.66666666666667</ele><time>2026-05-01T14:25:37.001Z</time></trkpt><trkpt lat="45.59598701274275" lon="10.682659121319206"><ele>71.0</ele><time>2026-05-01T14:25:38.001Z</time></trkpt><trkpt lat="45.59578011961027" lon="10.682541421509361"><ele>71.0</ele><time>2026-05-01T14:25:39.001Z</time></trkpt><trkpt lat="45.5955549784366" lon="10.682416035687169"><ele>71.0</ele><time>2026-05-01T14:25:40.001Z</time></trkpt><trkpt lat="45.595319749689104" lon="10.68228500012224"><ele>81.5</ele><time>2026-05-01T14:25:41.001Z</time></trkpt><trkpt lat="45.59508024773519" lon="10.682151948493164"><ele>92.0</ele><time>2026-05-01T14:25:42.001Z</time></trkpt><trkpt lat="45.59484365429877" lon="10.682020512645225"><ele>89.0</ele><time>2026-05-01T14:25:43.001Z</time></trkpt><trkpt lat="45.594635637461636" lon="10.681900809953095"><ele>86.0</ele><time>2026-05-01T14:25:44.001Z</time></trkpt><trkpt lat="45.5944362220827" lon="10.681772941573954"><ele>83.0</ele><time>2026-05-01T14:25:45.001Z</time></trkpt><trkpt lat="45.594248672948225" lon="10.681622433215834"><ele>83.0</ele><time>2026-05-01T14:25:46.001Z</time></trkpt><trkpt lat="45.59406115740833" lon="10.681442697239232"><ele>83.0</ele><time>2026-05-01T14:25:47.001Z</time></trkpt><trkpt lat="45.59389176988116" lon="10.681247379754385"><ele>83.0</ele><time>2026-05-01T14:25:48.001Z</time></trkpt><trkpt lat="45.59373617884364" lon="10.681034751557085"><ele>83.0</ele><time>2026-05-01T14:25:49Z</time></trkpt><trkpt lat="45.59359520257368" lon="10.680815570896934"><ele>83.0</ele><time>2026-05-01T14:25:50Z</time></trkpt><trkpt lat="45.59345531773618" lon="10.680593258051749"><ele>83.0</ele><time>2026-05-01T14:25:51Z</time></trkpt><trkpt lat="45.59332445366437" lon="10.680384279755915"><ele>78.33333333333334</ele><time>2026-05-01T14:25:52Z</time></trkpt><trkpt lat="45.593197941082494" lon="10.680182250102634"><ele>73.66666666666667</ele><time>2026-05-01T14:25:53Z</time></trkpt><trkpt lat="45.593081097751295" lon="10.67999566141515"><ele>69.0</ele><time>2026-05-01T14:25:54Z</time></trkpt><trkpt lat="45.59295890281807" lon="10.679800526670546"><ele>69.66666666666667</ele><time>2026-05-01T14:25:55Z</time></trkpt><trkpt lat="45.592837076535034" lon="10.679608300345198"><ele>70.33333333333334</ele><time>2026-05-01T14:25:56Z</time></trkpt><trkpt lat="45.59270068777508" lon="10.679429177503815"><ele>71.0</ele><time>2026-05-01T14:25:57Z</time></trkpt><trkpt lat="45.59258110324473" lon="10.679239771880527"><ele>71.0</ele><time>2026-05-01T14:25:58Z</time></trkpt><trkpt lat="45.59244824586964" lon="10.679078194014048"><ele>71.0</ele><time>2026-05-01T14:25:59Z</time></trkpt><trkpt lat="45.59230513889856" lon="10.678932593432508"><ele>71.0</ele><time>2026-05-01T14:26:00Z</time></trkpt><trkpt lat="45.59215772560394" lon="10.678800076827233"><ele>71.0</ele><time>2026-05-01T14:26:01Z</time></trkpt><trkpt lat="45.592034061786386" lon="10.678630856487153"><ele>71.0</ele><time>2026-05-01T14:26:02Z</time></trkpt><trkpt lat="45.59188504416342" lon="10.678508514063711"><ele>71.0</ele><time>2026-05-01T14:26:03Z</time></trkpt><trkpt lat="45.591732517574066" lon="10.678383495686203"><ele>72.0</ele><time>2026-05-01T14:26:04Z</time></trkpt><trkpt lat="45.59159018018795" lon="10.678258624459614"><ele>73.0</ele><time>2026-05-01T14:26:05Z</time></trkpt><trkpt lat="45.59145001354903" lon="10.67813738400661"><ele>74.0</ele><time>2026-05-01T14:26:06Z</time></trkpt><trkpt lat="45.59130773188247" lon="10.678011252705947"><ele>72.0</ele><time>2026-05-01T14:26:07Z</time></trkpt><trkpt lat="45.591166787410174" lon="10.677891020519631"><ele>70.0</ele><time>2026-05-01T14:26:08Z</time></trkpt><trkpt lat="45.5910149275642" lon="10.677789902631224"><ele>68.0</ele><time>2026-05-01T14:26:09Z</time></trkpt><trkpt lat="45.590861927284344" lon="10.6776881923348"><ele>68.0</ele><time>2026-05-01T14:26:10Z</time></trkpt><trkpt lat="45.59069928003634" lon="10.677592092274617"><ele>68.0</ele><time>2026-05-01T14:26:11Z</time></trkpt><trkpt lat="45.590525546230694" lon="10.677500881847843"><ele>68.0</ele><time>2026-05-01T14:26:12Z</time></trkpt><trkpt lat="45.590352425766376" lon="10.677413304316547"><ele>73.0</ele><time>2026-05-01T14:26:13Z</time></trkpt><trkpt lat="45.590184554778126" lon="10.677289520667365"><ele>78.0</ele><time>2026-05-01T14:26:14Z</time></trkpt><trkpt lat="45.590014139059306" lon="10.677189793180677"><ele>83.0</ele><time>2026-05-01T14:26:15Z</time></trkpt><trkpt lat="45.58984457814408" lon="10.677089850802995"><ele>83.0</ele><time>2026-05-01T14:26:16Z</time></trkpt><trkpt lat="45.58968639320104" lon="10.676996411103767"><ele>83.0</ele><time>2026-05-01T14:26:17Z</time></trkpt><trkpt lat="45.58953226926403" lon="10.676893910881496"><ele>83.0</ele><time>2026-05-01T14:26:18Z</time></trkpt><trkpt lat="45.58938012946524" lon="10.676778868482685"><ele>81.0</ele><time>2026-05-01T14:26:19Z</time></trkpt><trkpt lat="45.58923188039357" lon="10.676664800855363"><ele>79.0</ele><time>2026-05-01T14:26:20Z</time></trkpt><trkpt lat="45.58907489127926" lon="10.676544008148419"><ele>77.0</ele><time>2026-05-01T14:26:21Z</time></trkpt><trkpt lat="45.58891386085301" lon="10.67644589204333"><ele>77.0</ele><time>2026-05-01T14:26:22Z</time></trkpt><trkpt lat="45.5887499879504" lon="10.676318143945183"><ele>77.0</ele><time>2026-05-01T14:26:23Z</time></trkpt><trkpt lat="45.58858787182439" lon="10.676204631954901"><ele>77.0</ele><time>2026-05-01T14:26:24Z</time></trkpt><trkpt lat="45.588441104747815" lon="10.676096392087397"><ele>74.0</ele><time>2026-05-01T14:26:25Z</time></trkpt><trkpt lat="45.58831180864449" lon="10.675956720534128"><ele>71.0</ele><time>2026-05-01T14:26:26Z</time></trkpt><trkpt lat="45.58817205689573" lon="10.675849228827435"><ele>68.0</ele><time>2026-05-01T14:26:27Z</time></trkpt><trkpt lat="45.58803125934147" lon="10.675741049447291"><ele>68.0</ele><time>2026-05-01T14:26:28Z</time></trkpt><trkpt lat="45.58789225393634" lon="10.675636220771233"><ele>68.0</ele><time>2026-05-01T14:26:29Z</time></trkpt><trkpt lat="45.587730428562146" lon="10.675548076924988"><ele>68.0</ele><time>2026-05-01T14:26:30Z</time></trkpt><trkpt lat="45.5875761909455" lon="10.67543332190725"><ele>67.0</ele><time>2026-05-01T14:26:31Z</time></trkpt><trkpt lat="45.587416029206196" lon="10.675344635482809"><ele>66.0</ele><time>2026-05-01T14:26:32Z</time></trkpt><trkpt lat="45.58725473381552" lon="10.675271112756137"><ele>65.0</ele><time>2026-05-01T14:26:33Z</time></trkpt><trkpt lat="45.58709123179523" lon="10.67522018355205"><ele>67.0</ele><time>2026-05-01T14:26:34Z</time></trkpt><trkpt lat="45.586930724530774" lon="10.675153369221883"><ele>69.0</ele><time>2026-05-01T14:26:35Z</time></trkpt><trkpt lat="45.586778779106126" lon="10.67506107529176"><ele>71.0</ele><time>2026-05-01T14:26:36Z</time></trkpt><trkpt lat="45.58663483600757" lon="10.674996730739576"><ele>71.0</ele><time>2026-05-01T14:26:37Z</time></trkpt><trkpt lat="45.58649298573921" lon="10.67493332651544"><ele>71.0</ele><time>2026-05-01T14:26:38Z</time></trkpt><trkpt lat="45.586361299802256" lon="10.674874836988671"><ele>71.0</ele><time>2026-05-01T14:26:39Z</time></trkpt><trkpt lat="45.586229241487615" lon="10.6748161820801"><ele>71.0</ele><time>2026-05-01T14:26:40Z</time></trkpt><trkpt lat="45.586095384134374" lon="10.674756728104406"><ele>72.25</ele><time>2026-05-01T14:26:41Z</time></trkpt><trkpt lat="45.585966626343804" lon="10.674699539145937"><ele>73.5</ele><time>2026-05-01T14:26:42Z</time></trkpt><trkpt lat="45.58583500746151" lon="10.674641079415816"><ele>74.75</ele><time>2026-05-01T14:26:43Z</time></trkpt><trkpt lat="45.585699048750904" lon="10.67458069204352"><ele>76.0</ele><time>2026-05-01T14:26:44Z</time></trkpt><trkpt lat="45.58555891229262" lon="10.674547227587336"><ele>76.0</ele><time>2026-05-01T14:26:45Z</time></trkpt><trkpt lat="45.585414604840196" lon="10.674483953780582"><ele>76.0</ele><time>2026-05-01T14:26:46Z</time></trkpt><trkpt lat="45.58525697531521" lon="10.674412511069056"><ele>76.0</ele><time>2026-05-01T14:26:47Z</time></trkpt><trkpt lat="45.585100458247005" lon="10.674345535653597"><ele>74.5</ele><time>2026-05-01T14:26:48Z</time></trkpt><trkpt lat="45.584955225886" lon="10.674282215847072"><ele>73.0</ele><time>2026-05-01T14:26:49Z</time></trkpt><trkpt lat="45.584821883845365" lon="10.674197198100066"><ele>71.5</ele><time>2026-05-01T14:26:50Z</time></trkpt><trkpt lat="45.58467529369388" lon="10.674173496687748"><ele>70.0</ele><time>2026-05-01T14:26:51Z</time></trkpt><trkpt lat="45.584523909688585" lon="10.674139953170465"><ele>70.5</ele><time>2026-05-01T14:26:52Z</time></trkpt><trkpt lat="45.58439226557339" lon="10.674098057557014"><ele>71.0</ele><time>2026-05-01T14:26:53Z</time></trkpt><trkpt lat="45.58426319260551" lon="10.674093393141423"><ele>71.5</ele><time>2026-05-01T14:26:54Z</time></trkpt><trkpt lat="45.58413982542523" lon="10.674097589639475"><ele>72.0</ele><time>2026-05-01T14:26:55Z</time></trkpt><trkpt lat="45.584026294189044" lon="10.674110567122897"><ele>72.0</ele><time>2026-05-01T14:26:56Z</time></trkpt><trkpt lat="45.58391110603678" lon="10.674132172105887"><ele>72.0</ele><time>2026-05-01T14:26:57Z</time></trkpt><trkpt lat="45.58379124108991" lon="10.674158920562123"><ele>72.0</ele><time>2026-05-01T14:26:58Z</time></trkpt><trkpt lat="45.583660818064686" lon="10.674191043810787"><ele>72.0</ele><time>2026-05-01T14:26:59Z</time></trkpt><trkpt lat="45.58353353660933" lon="10.674224577633495"><ele>71.8</ele><time>2026-05-01T14:27:00Z</time></trkpt><trkpt lat="45.58341055961467" lon="10.674256977390645"><ele>71.6</ele><time>2026-05-01T14:27:01Z</time></trkpt><trkpt lat="45.58330151960859" lon="10.674309737802865"><ele>71.39999999999999</ele><time>2026-05-01T14:27:02Z</time></trkpt><trkpt lat="45.58321238244525" lon="10.674332591268895"><ele>71.2</ele><time>2026-05-01T14:27:03Z</time></trkpt><trkpt lat="45.58314857383682" lon="10.674336347738674"><ele>71.0</ele><time>2026-05-01T14:27:05Z</time></trkpt><trkpt lat="45.58308456613813" lon="10.674355664043285"><ele>71.0</ele><time>2026-05-01T14:27:07Z</time></trkpt><trkpt lat="45.58302009753395" lon="10.67437152524466"><ele>71.0</ele><time>2026-05-01T14:27:09Z</time></trkpt><trkpt lat="45.582897423285935" lon="10.674406230523726"><ele>71.0</ele><time>2026-05-01T14:27:11Z</time></trkpt><trkpt lat="45.58280783128137" lon="10.674412669954515"><ele>71.0</ele><time>2026-05-01T14:27:12Z</time></trkpt><trkpt lat="45.582653574547024" lon="10.674459688164493"><ele>71.0</ele><time>2026-05-01T14:27:13Z</time></trkpt><trkpt lat="45.58249992650777" lon="10.674469227466782"><ele>70.75</ele><time>2026-05-01T14:27:14Z</time></trkpt><trkpt lat="45.58234582832471" lon="10.674459134893478"><ele>70.5</ele><time>2026-05-01T14:27:15Z</time></trkpt><trkpt lat="45.58221844801449" lon="10.6744338922996"><ele>70.25</ele><time>2026-05-01T14:27:16Z</time></trkpt><trkpt lat="45.58209216679464" lon="10.674393800190227"><ele>70.0</ele><time>2026-05-01T14:27:17Z</time></trkpt><trkpt lat="45.58197069048383" lon="10.674339380124758"><ele>72.25</ele><time>2026-05-01T14:27:18Z</time></trkpt><trkpt lat="45.581848703549156" lon="10.67428368433798"><ele>74.5</ele><time>2026-05-01T14:27:19Z</time></trkpt><trkpt lat="45.5817385394828" lon="10.67422221266521"><ele>76.75</ele><time>2026-05-01T14:27:20Z</time></trkpt><trkpt lat="45.58161952108401" lon="10.674169616187754"><ele>79.0</ele><time>2026-05-01T14:27:21Z</time></trkpt><trkpt lat="45.581468094263265" lon="10.6741103830977"><ele>79.0</ele><time>2026-05-01T14:27:22Z</time></trkpt><trkpt lat="45.581298411546776" lon="10.674028987787205"><ele>79.0</ele><time>2026-05-01T14:27:23Z</time></trkpt><trkpt lat="45.58113972632367" lon="10.673932706025914"><ele>79.0</ele><time>2026-05-01T14:27:24Z</time></trkpt><trkpt lat="45.58098373153766" lon="10.673863452124511"><ele>82.75</ele><time>2026-05-01T14:27:25Z</time></trkpt><trkpt lat="45.58084867170741" lon="10.673791479746228"><ele>86.5</ele><time>2026-05-01T14:27:26Z</time></trkpt><trkpt lat="45.58072187258238" lon="10.673733648964673"><ele>90.25</ele><time>2026-05-01T14:27:27Z</time></trkpt><trkpt lat="45.58059685863454" lon="10.673676978456113"><ele>94.0</ele><time>2026-05-01T14:27:28Z</time></trkpt><trkpt lat="45.58048009454193" lon="10.673622438436272"><ele>90.4</ele><time>2026-05-01T14:27:29Z</time></trkpt><trkpt lat="45.580373985627055" lon="10.673575366535086"><ele>86.80000000000001</ele><time>2026-05-01T14:27:30Z</time></trkpt><trkpt lat="45.58026432287565" lon="10.673546725851772"><ele>83.19999999999999</ele><time>2026-05-01T14:27:31Z</time></trkpt><trkpt lat="45.58015844402649" lon="10.673524758998939"><ele>79.6</ele><time>2026-05-01T14:27:32Z</time></trkpt><trkpt lat="45.5800475146409" lon="10.673517936616893"><ele>76.0</ele><time>2026-05-01T14:27:33Z</time></trkpt><trkpt lat="45.579936334979614" lon="10.67352435115577"><ele>76.0</ele><time>2026-05-01T14:27:34Z</time></trkpt><trkpt lat="45.57981630363352" lon="10.673548846180502"><ele>76.0</ele><time>2026-05-01T14:27:35Z</time></trkpt><trkpt lat="45.57967560938905" lon="10.673570040839174"><ele>76.0</ele><time>2026-05-01T14:27:36.001Z</time></trkpt><trkpt lat="45.57954496792361" lon="10.673628719716373"><ele>76.0</ele><time>2026-05-01T14:27:37.001Z</time></trkpt><trkpt lat="45.579425706687" lon="10.67368960708142"><ele>81.0</ele><time>2026-05-01T14:27:38.001Z</time></trkpt><trkpt lat="45.57929812969328" lon="10.673731960108315"><ele>86.0</ele><time>2026-05-01T14:27:39.001Z</time></trkpt><trkpt lat="45.57918544915156" lon="10.673779785064845"><ele>91.0</ele><time>2026-05-01T14:27:40.001Z</time></trkpt><trkpt lat="45.579082121840486" lon="10.673815420776931"><ele>96.0</ele><time>2026-05-01T14:27:41.001Z</time></trkpt><trkpt lat="45.57899101984595" lon="10.673849919826338"><ele>101.0</ele><time>2026-05-01T14:27:42.001Z</time></trkpt><trkpt lat="45.57888547489826" lon="10.673873041827166"><ele>101.0</ele><time>2026-05-01T14:27:43.001Z</time></trkpt><trkpt lat="45.57877143655869" lon="10.673880487542931"><ele>101.0</ele><time>2026-05-01T14:27:44.001Z</time></trkpt><trkpt lat="45.57865423516136" lon="10.673886208466227"><ele>101.0</ele><time>2026-05-01T14:27:45.001Z</time></trkpt><trkpt lat="45.578540967154865" lon="10.673889947821351"><ele>101.0</ele><time>2026-05-01T14:27:46.001Z</time></trkpt><trkpt lat="45.578440700360254" lon="10.673888232502268"><ele>101.0</ele><time>2026-05-01T14:27:47.001Z</time></trkpt><trkpt lat="45.57832433985933" lon="10.673894445930761"><ele>100.75</ele><time>2026-05-01T14:27:48.001Z</time></trkpt><trkpt lat="45.5781960588131" lon="10.673873571928207"><ele>100.5</ele><time>2026-05-01T14:27:49.001Z</time></trkpt><trkpt lat="45.57808073817136" lon="10.673876494756461"><ele>100.25</ele><time>2026-05-01T14:27:50.001Z</time></trkpt><trkpt lat="45.57796656509615" lon="10.67387827150429"><ele>100.0</ele><time>2026-05-01T14:27:51.001Z</time></trkpt><trkpt lat="45.57783629217979" lon="10.673886848952312"><ele>100.0</ele><time>2026-05-01T14:27:52.001Z</time></trkpt><trkpt lat="45.5777068710823" lon="10.673896281619616"><ele>100.0</ele><time>2026-05-01T14:27:53.001Z</time></trkpt><trkpt lat="45.577569382649195" lon="10.673902118142951"><ele>100.0</ele><time>2026-05-01T14:27:54.001Z</time></trkpt><trkpt lat="45.57743692312748" lon="10.673936261196845"><ele>100.0</ele><time>2026-05-01T14:27:55Z</time></trkpt><trkpt lat="45.577318616920245" lon="10.673966633712366"><ele>100.0</ele><time>2026-05-01T14:27:56Z</time></trkpt><trkpt lat="45.577202665172415" lon="10.673987198739548"><ele>100.0</ele><time>2026-05-01T14:27:57Z</time></trkpt><trkpt lat="45.577095061811164" lon="10.674007617456915"><ele>100.0</ele><time>2026-05-01T14:27:58Z</time></trkpt><trkpt lat="45.57698278933058" lon="10.674039414079113"><ele>100.0</ele><time>2026-05-01T14:27:59Z</time></trkpt><trkpt lat="45.57686673628068" lon="10.674049372820818"><ele>98.25</ele><time>2026-05-01T14:28:00Z</time></trkpt><trkpt lat="45.57674045674732" lon="10.674081320459043"><ele>96.5</ele><time>2026-05-01T14:28:01Z</time></trkpt><trkpt lat="45.57660862023515" lon="10.674113626417594"><ele>94.75</ele><time>2026-05-01T14:28:02Z</time></trkpt><trkpt lat="45.57648023336837" lon="10.674147505261622"><ele>93.0</ele><time>2026-05-01T14:28:03Z</time></trkpt><trkpt lat="45.576358422067635" lon="10.674171472085437"><ele>93.0</ele><time>2026-05-01T14:28:04Z</time></trkpt><trkpt lat="45.57623192248225" lon="10.674198101644036"><ele>93.0</ele><time>2026-05-01T14:28:05Z</time></trkpt><trkpt lat="45.576095627427236" lon="10.674229124277858"><ele>93.0</ele><time>2026-05-01T14:28:06Z</time></trkpt><trkpt lat="45.57595201419794" lon="10.67425961968018"><ele>93.0</ele><time>2026-05-01T14:28:07Z</time></trkpt><trkpt lat="45.57582045846402" lon="10.674282328613263"><ele>90.5</ele><time>2026-05-01T14:28:08Z</time></trkpt><trkpt lat="45.57567785420408" lon="10.6743139169481"><ele>88.0</ele><time>2026-05-01T14:28:09Z</time></trkpt><trkpt lat="45.5755312793019" lon="10.674329594260389"><ele>85.5</ele><time>2026-05-01T14:28:10Z</time></trkpt><trkpt lat="45.57539122626636" lon="10.674363555896013"><ele>83.0</ele><time>2026-05-01T14:28:11Z</time></trkpt><trkpt lat="45.57527017099968" lon="10.67437899793994"><ele>82.0</ele><time>2026-05-01T14:28:12Z</time></trkpt><trkpt lat="45.575144951404305" lon="10.674420353267887"><ele>81.0</ele><time>2026-05-01T14:28:13Z</time></trkpt><trkpt lat="45.57500249532833" lon="10.674449166710572"><ele>80.0</ele><time>2026-05-01T14:28:14Z</time></trkpt><trkpt lat="45.5748600198373" lon="10.67448730748204"><ele>79.0</ele><time>2026-05-01T14:28:15Z</time></trkpt><trkpt lat="45.574722334573195" lon="10.674517850434826"><ele>80.75</ele><time>2026-05-01T14:28:16Z</time></trkpt><trkpt lat="45.574588797155045" lon="10.67455172480342"><ele>82.5</ele><time>2026-05-01T14:28:17Z</time></trkpt><trkpt lat="45.57446641290041" lon="10.674605935410243"><ele>84.25</ele><time>2026-05-01T14:28:18Z</time></trkpt><trkpt lat="45.574348776595436" lon="10.674677383883786"><ele>86.0</ele><time>2026-05-01T14:28:19Z</time></trkpt><trkpt lat="45.57423369847004" lon="10.674756495495737"><ele>86.0</ele><time>2026-05-01T14:28:20Z</time></trkpt><trkpt lat="45.57412544124973" lon="10.674857819531342"><ele>86.0</ele><time>2026-05-01T14:28:21Z</time></trkpt><trkpt lat="45.574022709299385" lon="10.674990768995249"><ele>86.0</ele><time>2026-05-01T14:28:22Z</time></trkpt><trkpt lat="45.57391632245496" lon="10.675151812640154"><ele>86.0</ele><time>2026-05-01T14:28:23Z</time></trkpt><trkpt lat="45.57382941322185" lon="10.675313636214906"><ele>85.0</ele><time>2026-05-01T14:28:24Z</time></trkpt><trkpt lat="45.573758386807555" lon="10.67545966396001"><ele>84.0</ele><time>2026-05-01T14:28:25Z</time></trkpt><trkpt lat="45.57371794881829" lon="10.675593950678715"><ele>83.0</ele><time>2026-05-01T14:28:26Z</time></trkpt><trkpt lat="45.5736909756555" lon="10.675691893785574"><ele>82.0</ele><time>2026-05-01T14:28:27Z</time></trkpt><trkpt lat="45.57367190929252" lon="10.675786517127236"><ele>81.0</ele><time>2026-05-01T14:28:29Z</time></trkpt><trkpt lat="45.57365717530468" lon="10.675912709145475"><ele>81.0</ele><time>2026-05-01T14:28:32Z</time></trkpt><trkpt lat="45.573640193803065" lon="10.676033343878583"><ele>81.0</ele><time>2026-05-01T14:28:33Z</time></trkpt><trkpt lat="45.57361700665764" lon="10.676194076261428"><ele>81.0</ele><time>2026-05-01T14:28:34Z</time></trkpt><trkpt lat="45.573610065677556" lon="10.676443099258789"><ele>81.0</ele><time>2026-05-01T14:28:35Z</time></trkpt><trkpt lat="45.57361263095493" lon="10.676749195849096"><ele>79.66666666666667</ele><time>2026-05-01T14:28:36Z</time></trkpt><trkpt lat="45.57365018846541" lon="10.67705813423082"><ele>78.33333333333334</ele><time>2026-05-01T14:28:37Z</time></trkpt><trkpt lat="45.573705196176114" lon="10.677275822142903"><ele>77.0</ele><time>2026-05-01T14:28:38Z</time></trkpt><trkpt lat="45.57376811099582" lon="10.677437456078133"><ele>78.0</ele><time>2026-05-01T14:28:39Z</time></trkpt><trkpt lat="45.57385197031369" lon="10.677609581575414"><ele>79.0</ele><time>2026-05-01T14:28:40Z</time></trkpt><trkpt lat="45.57394188105265" lon="10.677760106746078"><ele>80.0</ele><time>2026-05-01T14:28:41Z</time></trkpt><trkpt lat="45.57404303178077" lon="10.677869785404779"><ele>81.0</ele><time>2026-05-01T14:28:42Z</time></trkpt><trkpt lat="45.57412785614889" lon="10.677967193394196"><ele>81.0</ele><time>2026-05-01T14:28:43Z</time></trkpt><trkpt lat="45.574197222437625" lon="10.678039605163573"><ele>81.0</ele><time>2026-05-01T14:28:44Z</time></trkpt><trkpt lat="45.57425553673487" lon="10.67810561847576"><ele>81.0</ele><time>2026-05-01T14:28:45Z</time></trkpt><trkpt lat="45.57431660269661" lon="10.67816629627641"><ele>81.0</ele><time>2026-05-01T14:28:46Z</time></trkpt><trkpt lat="45.57439484551932" lon="10.678236504480623"><ele>81.0</ele><time>2026-05-01T14:28:47Z</time></trkpt><trkpt lat="45.57448011050142" lon="10.678314523728181"><ele>81.0</ele><time>2026-05-01T14:28:48Z</time></trkpt><trkpt lat="45.5745710739461" lon="10.678396798439474"><ele>81.75</ele><time>2026-05-01T14:28:49Z</time></trkpt><trkpt lat="45.57466710087368" lon="10.678482284318296"><ele>82.5</ele><time>2026-05-01T14:28:50Z</time></trkpt><trkpt lat="45.57476413141497" lon="10.67857553946111"><ele>83.25</ele><time>2026-05-01T14:28:51Z</time></trkpt><trkpt lat="45.57486176423017" lon="10.678664437022187"><ele>84.0</ele><time>2026-05-01T14:28:52Z</time></trkpt><trkpt lat="45.5749675926929" lon="10.678749315760848"><ele>84.0</ele><time>2026-05-01T14:28:53Z</time></trkpt><trkpt lat="45.57507014498843" lon="10.678855083433845"><ele>84.0</ele><time>2026-05-01T14:28:54Z</time></trkpt><trkpt lat="45.57516499456698" lon="10.678936489466013"><ele>84.0</ele><time>2026-05-01T14:28:55Z</time></trkpt><trkpt lat="45.575268277606966" lon="10.67902597590475"><ele>84.0</ele><time>2026-05-01T14:28:56Z</time></trkpt><trkpt lat="45.57536587252112" lon="10.679119954742065"><ele>84.75</ele><time>2026-05-01T14:28:57Z</time></trkpt><trkpt lat="45.575460164747085" lon="10.679203190571144"><ele>85.5</ele><time>2026-05-01T14:28:58Z</time></trkpt><trkpt lat="45.57556061050617" lon="10.679293993513571"><ele>86.25</ele><time>2026-05-01T14:28:59Z</time></trkpt><trkpt lat="45.57565594293964" lon="10.679392936073409"><ele>87.0</ele><time>2026-05-01T14:29:00Z</time></trkpt><trkpt lat="45.57575239543443" lon="10.679499741810332"><ele>87.0</ele><time>2026-05-01T14:29:01Z</time></trkpt><trkpt lat="45.575840510010416" lon="10.679642293192442"><ele>87.0</ele><time>2026-05-01T14:29:02Z</time></trkpt><trkpt lat="45.57591111664801" lon="10.67976223702641"><ele>87.0</ele><time>2026-05-01T14:29:03Z</time></trkpt><trkpt lat="45.57598656456053" lon="10.67989059774258"><ele>87.0</ele><time>2026-05-01T14:29:04Z</time></trkpt><trkpt lat="45.57604359790144" lon="10.680019177391177"><ele>87.0</ele><time>2026-05-01T14:29:05Z</time></trkpt><trkpt lat="45.57610039673146" lon="10.680158523111421"><ele>87.0</ele><time>2026-05-01T14:29:06Z</time></trkpt><trkpt lat="45.57615024423827" lon="10.68029412595634"><ele>87.0</ele><time>2026-05-01T14:29:07Z</time></trkpt><trkpt lat="45.57618592272934" lon="10.68044195443108"><ele>87.0</ele><time>2026-05-01T14:29:08Z</time></trkpt><trkpt lat="45.576214546453556" lon="10.680598970517028"><ele>87.0</ele><time>2026-05-01T14:29:09Z</time></trkpt><trkpt lat="45.5762494449682" lon="10.68075201189849"><ele>90.0</ele><time>2026-05-01T14:29:10Z</time></trkpt><trkpt lat="45.57629241984557" lon="10.680909365905023"><ele>93.0</ele><time>2026-05-01T14:29:11Z</time></trkpt><trkpt lat="45.57633692509473" lon="10.681056557657207"><ele>96.0</ele><time>2026-05-01T14:29:12Z</time></trkpt><trkpt lat="45.57637764009487" lon="10.681218213273825"><ele>99.0</ele><time>2026-05-01T14:29:13Z</time></trkpt><trkpt lat="45.57641783486069" lon="10.681385539724468"><ele>99.0</ele><time>2026-05-01T14:29:14Z</time></trkpt><trkpt lat="45.576452142967646" lon="10.681546177493802"><ele>99.0</ele><time>2026-05-01T14:29:15Z</time></trkpt><trkpt lat="45.57648949424522" lon="10.681705248340299"><ele>99.0</ele><time>2026-05-01T14:29:16Z</time></trkpt><trkpt lat="45.57652696846996" lon="10.681865630250554"><ele>99.0</ele><time>2026-05-01T14:29:17Z</time></trkpt><trkpt lat="45.57656666257653" lon="10.682020901899977"><ele>97.5</ele><time>2026-05-01T14:29:18Z</time></trkpt><trkpt lat="45.576606560038954" lon="10.682183331760466"><ele>96.0</ele><time>2026-05-01T14:29:19Z</time></trkpt><trkpt lat="45.576646439105176" lon="10.682335298552534"><ele>94.5</ele><time>2026-05-01T14:29:20Z</time></trkpt><trkpt lat="45.576687343562845" lon="10.682482077560515"><ele>93.0</ele><time>2026-05-01T14:29:21Z</time></trkpt><trkpt lat="45.57673583726444" lon="10.682629861008339"><ele>89.75</ele><time>2026-05-01T14:29:22Z</time></trkpt><trkpt lat="45.57678820260449" lon="10.682778082308715"><ele>86.5</ele><time>2026-05-01T14:29:23Z</time></trkpt><trkpt lat="45.57684811559314" lon="10.682923047809465"><ele>83.25</ele><time>2026-05-01T14:29:24Z</time></trkpt><trkpt lat="45.57691724021959" lon="10.683063782544606"><ele>80.0</ele><time>2026-05-01T14:29:25Z</time></trkpt><trkpt lat="45.57700247468232" lon="10.683183206904355"><ele>79.25</ele><time>2026-05-01T14:29:26Z</time></trkpt><trkpt lat="45.57709606179504" lon="10.683305974958826"><ele>78.5</ele><time>2026-05-01T14:29:27Z</time></trkpt><trkpt lat="45.577205801951074" lon="10.683422000510054"><ele>77.75</ele><time>2026-05-01T14:29:28Z</time></trkpt><trkpt lat="45.577319481085624" lon="10.683525327766198"><ele>77.0</ele><time>2026-05-01T14:29:29Z</time></trkpt><trkpt lat="45.57743207511616" lon="10.68360757585309"><ele>77.0</ele><time>2026-05-01T14:29:30Z</time></trkpt><trkpt lat="45.577546642096266" lon="10.683689970710216"><ele>77.0</ele><time>2026-05-01T14:29:31Z</time></trkpt><trkpt lat="45.577666403208006" lon="10.683768097377882"><ele>77.0</ele><time>2026-05-01T14:29:32Z</time></trkpt><trkpt lat="45.57778050589792" lon="10.683859351113595"><ele>77.0</ele><time>2026-05-01T14:29:33Z</time></trkpt><trkpt lat="45.57789497714565" lon="10.683957921214807"><ele>80.25</ele><time>2026-05-01T14:29:34Z</time></trkpt><trkpt lat="45.5780068370104" lon="10.684070968336826"><ele>83.5</ele><time>2026-05-01T14:29:35Z</time></trkpt><trkpt lat="45.57810487961797" lon="10.684208409786212"><ele>86.75</ele><time>2026-05-01T14:29:36.001Z</time></trkpt><trkpt lat="45.57819895657685" lon="10.684360743070513"><ele>90.0</ele><time>2026-05-01T14:29:37.001Z</time></trkpt><trkpt lat="45.57827605807817" lon="10.684525513121821"><ele>90.0</ele><time>2026-05-01T14:29:38.001Z</time></trkpt><trkpt lat="45.5783487189176" lon="10.684703590346698"><ele>90.0</ele><time>2026-05-01T14:29:39.001Z</time></trkpt><trkpt lat="45.57842163107749" lon="10.68490067002271"><ele>90.0</ele><time>2026-05-01T14:29:40.001Z</time></trkpt><trkpt lat="45.57848505122149" lon="10.685090248632969"><ele>90.0</ele><time>2026-05-01T14:29:41.001Z</time></trkpt><trkpt lat="45.57854782145656" lon="10.68527043455251"><ele>88.25</ele><time>2026-05-01T14:29:42.001Z</time></trkpt><trkpt lat="45.57861099427873" lon="10.685443512922834"><ele>86.5</ele><time>2026-05-01T14:29:43.001Z</time></trkpt><trkpt lat="45.578678974925275" lon="10.685622351310691"><ele>84.75</ele><time>2026-05-01T14:29:44.001Z</time></trkpt><trkpt lat="45.57875109303476" lon="10.685806126482328"><ele>83.0</ele><time>2026-05-01T14:29:45.001Z</time></trkpt><trkpt lat="45.57882196657293" lon="10.685990190142503"><ele>87.66666666666667</ele><time>2026-05-01T14:29:46.001Z</time></trkpt><trkpt lat="45.578897427749034" lon="10.686181172416513"><ele>92.33333333333334</ele><time>2026-05-01T14:29:47.001Z</time></trkpt><trkpt lat="45.57897520265525" lon="10.686369186627207"><ele>97.0</ele><time>2026-05-01T14:29:48.001Z</time></trkpt><trkpt lat="45.579062071064115" lon="10.686551067108804"><ele>97.0</ele><time>2026-05-01T14:29:49.001Z</time></trkpt><trkpt lat="45.57915285766411" lon="10.686725227899483"><ele>97.0</ele><time>2026-05-01T14:29:50.001Z</time></trkpt><trkpt lat="45.5792458356837" lon="10.686886654281752"><ele>97.0</ele><time>2026-05-01T14:29:51.001Z</time></trkpt><trkpt lat="45.57933473679934" lon="10.68704177007727"><ele>97.0</ele><time>2026-05-01T14:29:52.001Z</time></trkpt><trkpt lat="45.579420521188204" lon="10.687191012991015"><ele>97.25</ele><time>2026-05-01T14:29:53.001Z</time></trkpt><trkpt lat="45.57950481551302" lon="10.687345669992029"><ele>97.5</ele><time>2026-05-01T14:29:54.001Z</time></trkpt><trkpt lat="45.5795759632482" lon="10.687497234473401"><ele>97.75</ele><time>2026-05-01T14:29:55.001Z</time></trkpt><trkpt lat="45.57963164202748" lon="10.687655052395836"><ele>98.0</ele><time>2026-05-01T14:29:56.001Z</time></trkpt><trkpt lat="45.57968007233735" lon="10.687818495775465"><ele>98.0</ele><time>2026-05-01T14:29:57.001Z</time></trkpt><trkpt lat="45.57971654226689" lon="10.687980045959206"><ele>98.0</ele><time>2026-05-01T14:29:58.001Z</time></trkpt><trkpt lat="45.5797433467873" lon="10.688162494463736"><ele>98.0</ele><time>2026-05-01T14:29:59.001Z</time></trkpt><trkpt lat="45.57976538821491" lon="10.688339719237119"><ele>98.0</ele><time>2026-05-01T14:30:00.001Z</time></trkpt><trkpt lat="45.57977845740879" lon="10.688512253981377"><ele>96.0</ele><time>2026-05-01T14:30:01Z</time></trkpt><trkpt lat="45.57979802235435" lon="10.688687463999877"><ele>94.0</ele><time>2026-05-01T14:30:02Z</time></trkpt><trkpt lat="45.579818442578436" lon="10.688870155355078"><ele>92.0</ele><time>2026-05-01T14:30:03Z</time></trkpt><trkpt lat="45.579836345569426" lon="10.689057655359134"><ele>90.0</ele><time>2026-05-01T14:30:04Z</time></trkpt><trkpt lat="45.57985660338047" lon="10.689241766488557"><ele>87.66666666666667</ele><time>2026-05-01T14:30:05Z</time></trkpt><trkpt lat="45.579880869599755" lon="10.689442743741937"><ele>85.33333333333334</ele><time>2026-05-01T14:30:06Z</time></trkpt><trkpt lat="45.579913595325245" lon="10.689657741809715"><ele>83.0</ele><time>2026-05-01T14:30:07Z</time></trkpt><trkpt lat="45.57994674101826" lon="10.689905690298579"><ele>83.0</ele><time>2026-05-01T14:30:08Z</time></trkpt><trkpt lat="45.57995926831804" lon="10.690179213638405"><ele>83.0</ele><time>2026-05-01T14:30:09Z</time></trkpt><trkpt lat="45.57998296035713" lon="10.690408390468056"><ele>83.0</ele><time>2026-05-01T14:30:10Z</time></trkpt><trkpt lat="45.58000010743634" lon="10.690611685347172"><ele>83.75</ele><time>2026-05-01T14:30:11Z</time></trkpt><trkpt lat="45.58000504576395" lon="10.690783969870644"><ele>84.5</ele><time>2026-05-01T14:30:12Z</time></trkpt><trkpt lat="45.57999921626094" lon="10.690953079603615"><ele>85.25</ele><time>2026-05-01T14:30:13Z</time></trkpt><trkpt lat="45.57998269702946" lon="10.691119452557265"><ele>86.0</ele><time>2026-05-01T14:30:14Z</time></trkpt><trkpt lat="45.57995294679623" lon="10.691304088397027"><ele>86.75</ele><time>2026-05-01T14:30:15Z</time></trkpt><trkpt lat="45.579910430344924" lon="10.691478520571525"><ele>87.5</ele><time>2026-05-01T14:30:16Z</time></trkpt><trkpt lat="45.57985532159192" lon="10.69164527342085"><ele>88.25</ele><time>2026-05-01T14:30:17Z</time></trkpt><trkpt lat="45.5797924705321" lon="10.691800422822482"><ele>89.0</ele><time>2026-05-01T14:30:18Z</time></trkpt><trkpt lat="45.57972679159747" lon="10.691984622299836"><ele>90.25</ele><time>2026-05-01T14:30:19Z</time></trkpt><trkpt lat="45.57964031854814" lon="10.692149442166107"><ele>91.5</ele><time>2026-05-01T14:30:20Z</time></trkpt><trkpt lat="45.57955648336498" lon="10.692323431977409"><ele>92.75</ele><time>2026-05-01T14:30:21Z</time></trkpt><trkpt lat="45.57947134601052" lon="10.692478377757245"><ele>94.0</ele><time>2026-05-01T14:30:22Z</time></trkpt><trkpt lat="45.57939365810001" lon="10.692655473724722"><ele>90.5</ele><time>2026-05-01T14:30:23Z</time></trkpt><trkpt lat="45.57930957369546" lon="10.692828432655622"><ele>87.0</ele><time>2026-05-01T14:30:24Z</time></trkpt><trkpt lat="45.579229586078334" lon="10.692992460457143"><ele>83.5</ele><time>2026-05-01T14:30:25Z</time></trkpt><trkpt lat="45.57916588771867" lon="10.693142008407394"><ele>80.0</ele><time>2026-05-01T14:30:26Z</time></trkpt><trkpt lat="45.579108252230206" lon="10.693292390881014"><ele>80.0</ele><time>2026-05-01T14:30:27Z</time></trkpt><trkpt lat="45.579055092057466" lon="10.693437700627019"><ele>80.0</ele><time>2026-05-01T14:30:28Z</time></trkpt><trkpt lat="45.57900319167569" lon="10.693573852230895"><ele>80.0</ele><time>2026-05-01T14:30:29Z</time></trkpt><trkpt lat="45.57895046919634" lon="10.693710457644162"><ele>80.0</ele><time>2026-05-01T14:30:30Z</time></trkpt><trkpt lat="45.57889700874586" lon="10.693851002449207"><ele>80.0</ele><time>2026-05-01T14:30:31Z</time></trkpt><trkpt lat="45.578846292523856" lon="10.693991208221734"><ele>80.8</ele><time>2026-05-01T14:30:32Z</time></trkpt><trkpt lat="45.57877763318962" lon="10.69411588569612"><ele>81.6</ele><time>2026-05-01T14:30:33Z</time></trkpt><trkpt lat="45.57873627985847" lon="10.694237965834551"><ele>82.4</ele><time>2026-05-01T14:30:34Z</time></trkpt><trkpt lat="45.57869106840205" lon="10.69437143559326"><ele>83.2</ele><time>2026-05-01T14:30:35Z</time></trkpt><trkpt lat="45.57865652427351" lon="10.69452800477486"><ele>84.0</ele><time>2026-05-01T14:30:36Z</time></trkpt><trkpt lat="45.5785936642325" lon="10.694666894416162"><ele>82.5</ele><time>2026-05-01T14:30:37Z</time></trkpt><trkpt lat="45.57854772356944" lon="10.694816389782412"><ele>81.0</ele><time>2026-05-01T14:30:38Z</time></trkpt><trkpt lat="45.57851625614031" lon="10.69497305052162"><ele>79.5</ele><time>2026-05-01T14:30:39Z</time></trkpt><trkpt lat="45.57846137714065" lon="10.695112915333413"><ele>78.0</ele><time>2026-05-01T14:30:40Z</time></trkpt><trkpt lat="45.578430219550775" lon="10.695265175612116"><ele>78.0</ele><time>2026-05-01T14:30:41Z</time></trkpt><trkpt lat="45.57839587517784" lon="10.69541008691016"><ele>78.0</ele><time>2026-05-01T14:30:42Z</time></trkpt><trkpt lat="45.57835703641385" lon="10.695565775886969"><ele>78.0</ele><time>2026-05-01T14:30:43Z</time></trkpt><trkpt lat="45.57830950421347" lon="10.69572211920449"><ele>78.0</ele><time>2026-05-01T14:30:44Z</time></trkpt><trkpt lat="45.578279911310425" lon="10.695855254706649"><ele>78.0</ele><time>2026-05-01T14:30:45Z</time></trkpt><trkpt lat="45.57825089522745" lon="10.695991170040395"><ele>79.0</ele><time>2026-05-01T14:30:46Z</time></trkpt><trkpt lat="45.578220856612056" lon="10.696129351465869"><ele>80.0</ele><time>2026-05-01T14:30:47Z</time></trkpt><trkpt lat="45.578182120595244" lon="10.696279674381278"><ele>81.0</ele><time>2026-05-01T14:30:48Z</time></trkpt><trkpt lat="45.57814282069383" lon="10.696452655606976"><ele>82.0</ele><time>2026-05-01T14:30:49Z</time></trkpt><trkpt lat="45.57809122927533" lon="10.696657986273099"><ele>82.0</ele><time>2026-05-01T14:30:50Z</time></trkpt><trkpt lat="45.57802556013488" lon="10.696879433057532"><ele>82.0</ele><time>2026-05-01T14:30:51Z</time></trkpt><trkpt lat="45.57796829213006" lon="10.697101875069649"><ele>82.0</ele><time>2026-05-01T14:30:52Z</time></trkpt><trkpt lat="45.57790583564092" lon="10.697335926497155"><ele>83.33333333333333</ele><time>2026-05-01T14:30:53Z</time></trkpt><trkpt lat="45.57785330501024" lon="10.697567672287178"><ele>84.66666666666667</ele><time>2026-05-01T14:30:54Z</time></trkpt><trkpt lat="45.57782043568893" lon="10.697770999405417"><ele>86.0</ele><time>2026-05-01T14:30:55Z</time></trkpt><trkpt lat="45.57778729351897" lon="10.697973844777284"><ele>82.5</ele><time>2026-05-01T14:30:56Z</time></trkpt><trkpt lat="45.57777449362605" lon="10.698173437677141"><ele>79.0</ele><time>2026-05-01T14:30:57Z</time></trkpt><trkpt lat="45.57777631800627" lon="10.698374376911634"><ele>75.5</ele><time>2026-05-01T14:30:58Z</time></trkpt><trkpt lat="45.57778085315739" lon="10.698592479418503"><ele>72.0</ele><time>2026-05-01T14:30:59Z</time></trkpt><trkpt lat="45.57778396528261" lon="10.698808674180135"><ele>71.25</ele><time>2026-05-01T14:31:00Z</time></trkpt><trkpt lat="45.57777319671608" lon="10.699013750687488"><ele>70.5</ele><time>2026-05-01T14:31:01Z</time></trkpt><trkpt lat="45.57778836106692" lon="10.699193075087656"><ele>69.75</ele><time>2026-05-01T14:31:02Z</time></trkpt><trkpt lat="45.577813997986304" lon="10.699376601380036"><ele>69.0</ele><time>2026-05-01T14:31:03Z</time></trkpt><trkpt lat="45.577825608114225" lon="10.699573707143214"><ele>68.75</ele><time>2026-05-01T14:31:04Z</time></trkpt><trkpt lat="45.57784153684788" lon="10.699757709997828"><ele>68.5</ele><time>2026-05-01T14:31:05Z</time></trkpt><trkpt lat="45.577845093305655" lon="10.699942920681805"><ele>68.25</ele><time>2026-05-01T14:31:06Z</time></trkpt><trkpt lat="45.57785762056733" lon="10.700102686539257"><ele>68.0</ele><time>2026-05-01T14:31:07Z</time></trkpt><trkpt lat="45.5778667105611" lon="10.700259994396744"><ele>68.0</ele><time>2026-05-01T14:31:08Z</time></trkpt><trkpt lat="45.5778713957755" lon="10.700407973301894"><ele>68.0</ele><time>2026-05-01T14:31:09Z</time></trkpt><trkpt lat="45.57787347561529" lon="10.70053247609258"><ele>68.0</ele><time>2026-05-01T14:31:10Z</time></trkpt><trkpt lat="45.577872577222166" lon="10.70063983503553"><ele>68.0</ele><time>2026-05-01T14:31:11Z</time></trkpt><trkpt lat="45.577855387600074" lon="10.700747325538373"><ele>68.0</ele><time>2026-05-01T14:31:12Z</time></trkpt><trkpt lat="45.57784841430223" lon="10.700851652628845"><ele>68.0</ele><time>2026-05-01T14:31:13Z</time></trkpt><trkpt lat="45.57784550823785" lon="10.700952011816192"><ele>68.4</ele><time>2026-05-01T14:31:14Z</time></trkpt><trkpt lat="45.577841371010074" lon="10.701113928217097"><ele>68.8</ele><time>2026-05-01T14:31:16Z</time></trkpt><trkpt lat="45.57782345282319" lon="10.701275501755472"><ele>69.2</ele><time>2026-05-01T14:31:18Z</time></trkpt><trkpt lat="45.57781046868219" lon="10.701416281895309"><ele>69.6</ele><time>2026-05-01T14:31:20Z</time></trkpt><trkpt lat="45.577806380647644" lon="10.701525568480134"><ele>70.0</ele><time>2026-05-01T14:31:22Z</time></trkpt><trkpt lat="45.577798922484575" lon="10.70162160265445"><ele>70.0</ele><time>2026-05-01T14:31:24Z</time></trkpt><trkpt lat="45.57777826346426" lon="10.70171143755249"><ele>70.0</ele><time>2026-05-01T14:31:40.001Z</time></trkpt><trkpt lat="45.57776120038208" lon="10.701829954563571"><ele>70.0</ele><time>2026-05-01T14:31:43.001Z</time></trkpt><trkpt lat="45.5777383944033" lon="10.701989414897172"><ele>70.0</ele><time>2026-05-01T14:31:45.001Z</time></trkpt><trkpt lat="45.57772359287943" lon="10.702078271999847"><ele>70.0</ele><time>2026-05-01T14:31:46.001Z</time></trkpt><trkpt lat="45.577707732194156" lon="10.702176085589697"><ele>70.0</ele><time>2026-05-01T14:31:47.001Z</time></trkpt><trkpt lat="45.577692845368574" lon="10.702267893338206"><ele>69.66666666666666</ele><time>2026-05-01T14:31:48.001Z</time></trkpt><trkpt lat="45.57766707647869" lon="10.702426811352629"><ele>69.33333333333333</ele><time>2026-05-01T14:31:50.001Z</time></trkpt><trkpt lat="45.57765262642025" lon="10.702515925588933"><ele>69.0</ele><time>2026-05-01T14:31:52.001Z</time></trkpt><trkpt lat="45.577642182648646" lon="10.702627452222542"><ele>68.66666666666667</ele><time>2026-05-01T14:31:55.001Z</time></trkpt><trkpt lat="45.57762314899352" lon="10.702749961223777"><ele>68.33333333333334</ele><time>2026-05-01T14:31:58.001Z</time></trkpt><trkpt lat="45.57760629210159" lon="10.702847233993115"><ele>68.0</ele><time>2026-05-01T14:32:00.001Z</time></trkpt><trkpt lat="45.577586573240495" lon="10.702989022582669"><ele>68.16666666666667</ele><time>2026-05-01T14:32:02.001Z</time></trkpt><trkpt lat="45.57756408461678" lon="10.703091872520819"><ele>68.33333333333334</ele><time>2026-05-01T14:32:03.001Z</time></trkpt><trkpt lat="45.5775504359164" lon="10.703202170200163"><ele>68.5</ele><time>2026-05-01T14:32:04.001Z</time></trkpt><trkpt lat="45.57752223453256" lon="10.703304593546394"><ele>68.66666666666667</ele><time>2026-05-01T14:32:05.001Z</time></trkpt><trkpt lat="45.5775010894747" lon="10.70346258340348"><ele>68.83333333333333</ele><time>2026-05-01T14:32:07Z</time></trkpt><trkpt lat="45.57747498504648" lon="10.703571823577125"><ele>69.0</ele><time>2026-05-01T14:32:11Z</time></trkpt><trkpt lat="45.577436564980324" lon="10.7037219721477"><ele>69.0</ele><time>2026-05-01T14:32:14Z</time></trkpt><trkpt lat="45.57740143190308" lon="10.703801583925948"><ele>69.0</ele><time>2026-05-01T14:32:15Z</time></trkpt><trkpt lat="45.57737194664053" lon="10.703902125387751"><ele>69.0</ele><time>2026-05-01T14:32:16Z</time></trkpt><trkpt lat="45.57733567742562" lon="10.704023273011238"><ele>69.0</ele><time>2026-05-01T14:32:17Z</time></trkpt><trkpt lat="45.57729669015697" lon="10.704153499458226"><ele>69.0</ele><time>2026-05-01T14:32:18Z</time></trkpt><trkpt lat="45.577262167234245" lon="10.704268813846769"><ele>69.0</ele><time>2026-05-01T14:32:19Z</time></trkpt><trkpt lat="45.5772325853606" lon="10.704368033154037"><ele>69.5</ele><time>2026-05-01T14:32:20Z</time></trkpt><trkpt lat="45.57720275179324" lon="10.704466500592691"><ele>70.0</ele><time>2026-05-01T14:32:21Z</time></trkpt><trkpt lat="45.577169694706335" lon="10.704578862304531"><ele>70.5</ele><time>2026-05-01T14:32:22Z</time></trkpt><trkpt lat="45.5771392307506" lon="10.704682409917606"><ele>71.0</ele><time>2026-05-01T14:32:23Z</time></trkpt><trkpt lat="45.577107665434575" lon="10.704791383564416"><ele>71.5</ele><time>2026-05-01T14:32:24Z</time></trkpt><trkpt lat="45.577083304980945" lon="10.704876179331698"><ele>72.0</ele><time>2026-05-01T14:32:25Z</time></trkpt><trkpt lat="45.577058737319" lon="10.704961696218538"><ele>72.0</ele><time>2026-05-01T14:32:26Z</time></trkpt><trkpt lat="45.57703516714504" lon="10.70505653693755"><ele>72.0</ele><time>2026-05-01T14:32:27Z</time></trkpt><trkpt lat="45.57701773104631" lon="10.70516163085055"><ele>72.0</ele><time>2026-05-01T14:32:28Z</time></trkpt><trkpt lat="45.57701269432303" lon="10.705259210584193"><ele>72.0</ele><time>2026-05-01T14:32:29Z</time></trkpt><trkpt lat="45.577010362562625" lon="10.705385489250556"><ele>72.0</ele><time>2026-05-01T14:32:31Z</time></trkpt><trkpt lat="45.57700985463129" lon="10.705481039986987"><ele>72.0</ele><time>2026-05-01T14:32:35Z</time></trkpt><trkpt lat="45.57701059539279" lon="10.705599150328446"><ele>72.0</ele><time>2026-05-01T14:32:38Z</time></trkpt><trkpt lat="45.57701119638355" lon="10.705694977172497"><ele>72.0</ele><time>2026-05-01T14:32:40Z</time></trkpt><trkpt lat="45.57699476171201" lon="10.705825853799084"><ele>72.0</ele><time>2026-05-01T14:32:47Z</time></trkpt><trkpt lat="45.57696995465198" lon="10.705991256038368"><ele>72.0</ele><time>2026-05-01T14:32:49Z</time></trkpt><trkpt lat="45.576934912061084" lon="10.706116563945901"><ele>72.0</ele><time>2026-05-01T14:32:51Z</time></trkpt><trkpt lat="45.576907836409084" lon="10.70622561776818"><ele>72.0</ele><time>2026-05-01T14:32:54Z</time></trkpt><trkpt lat="45.57689271220396" lon="10.706337819511281"><ele>72.0</ele><time>2026-05-01T14:32:57Z</time></trkpt><trkpt lat="45.57683078935881" lon="10.70637818896288"><ele>72.0</ele><time>2026-05-01T14:33:07Z</time></trkpt><trkpt lat="45.57678906546252" lon="10.706463977371925"><ele>72.0</ele><time>2026-05-01T14:33:09Z</time></trkpt><trkpt lat="45.5767062231124" lon="10.706602725118548"><ele>72.0</ele><time>2026-05-01T14:33:11Z</time></trkpt><trkpt lat="45.57665494092756" lon="10.706688621318301"><ele>72.0</ele><time>2026-05-01T14:33:12Z</time></trkpt><trkpt lat="45.57660196222466" lon="10.706778698866355"><ele>72.0</ele><time>2026-05-01T14:33:13Z</time></trkpt><trkpt lat="45.57655400007803" lon="10.70686024699768"><ele>72.0</ele><time>2026-05-01T14:33:14Z</time></trkpt><trkpt lat="45.57648322806556" lon="10.706980577763026"><ele>72.0</ele><time>2026-05-01T14:33:16Z</time></trkpt><trkpt lat="45.57642713378656" lon="10.707074581718286"><ele>72.0</ele><time>2026-05-01T14:33:18Z</time></trkpt><trkpt lat="45.57637731755218" lon="10.707158316370654"><ele>72.0</ele><time>2026-05-01T14:33:20Z</time></trkpt><trkpt lat="45.57632935365709" lon="10.707239591836323"><ele>72.0</ele><time>2026-05-01T14:33:22Z</time></trkpt><trkpt lat="45.57628768886575" lon="10.70731019343991"><ele>71.83333333333333</ele><time>2026-05-01T14:33:24Z</time></trkpt><trkpt lat="45.57623792199607" lon="10.70739452408956"><ele>71.66666666666667</ele><time>2026-05-01T14:33:27Z</time></trkpt><trkpt lat="45.576183823036594" lon="10.707486195503472"><ele>71.5</ele><time>2026-05-01T14:33:30Z</time></trkpt><trkpt lat="45.576103319556914" lon="10.70762260984398"><ele>71.33333333333334</ele><time>2026-05-01T14:33:32Z</time></trkpt><trkpt lat="45.57605837584354" lon="10.707698767558204"><ele>71.16666666666667</ele><time>2026-05-01T14:33:33Z</time></trkpt><trkpt lat="45.57600985556497" lon="10.707780985742184"><ele>71.0</ele><time>2026-05-01T14:33:34Z</time></trkpt><trkpt lat="45.57594970264538" lon="10.707915596263721"><ele>71.0</ele><time>2026-05-01T14:33:36Z</time></trkpt><trkpt lat="45.57590430345089" lon="10.707979235053138"><ele>71.0</ele><time>2026-05-01T14:33:37Z</time></trkpt><trkpt lat="45.575857354900066" lon="10.70806152048621"><ele>71.0</ele><time>2026-05-01T14:33:39Z</time></trkpt><trkpt lat="45.57580593331324" lon="10.70812610666554"><ele>71.0</ele><time>2026-05-01T14:33:43Z</time></trkpt><trkpt lat="45.57575936623345" lon="10.708205464408941"><ele>71.0</ele><time>2026-05-01T14:33:45Z</time></trkpt><trkpt lat="45.57570987402222" lon="10.708288583953538"><ele>71.0</ele><time>2026-05-01T14:33:47.001Z</time></trkpt><trkpt lat="45.5756562227894" lon="10.708378742087996"><ele>71.0</ele><time>2026-05-01T14:33:49.001Z</time></trkpt><trkpt lat="45.575611481847695" lon="10.708473909007644"><ele>71.0</ele><time>2026-05-01T14:33:53.001Z</time></trkpt><trkpt lat="45.57557713672677" lon="10.708556694776771"><ele>71.0</ele><time>2026-05-01T14:33:55.001Z</time></trkpt><trkpt lat="45.575542359982215" lon="10.708658992364635"><ele>71.0</ele><time>2026-05-01T14:33:57.001Z</time></trkpt><trkpt lat="45.575484085208934" lon="10.7087057295994"><ele>71.0</ele><time>2026-05-01T14:34:01.001Z</time></trkpt><trkpt lat="45.57541696086913" lon="10.70881080433254"><ele>71.0</ele><time>2026-05-01T14:34:04.001Z</time></trkpt><trkpt lat="45.57534296017891" lon="10.708935483570576"><ele>71.0</ele><time>2026-05-01T14:34:06.001Z</time></trkpt><trkpt lat="45.575275274509245" lon="10.70904579785955"><ele>70.39999999999999</ele><time>2026-05-01T14:34:08.001Z</time></trkpt><trkpt lat="45.57521326280422" lon="10.70914948988077"><ele>69.8</ele><time>2026-05-01T14:34:10.001Z</time></trkpt><trkpt lat="45.5751536645224" lon="10.70924058420843"><ele>69.19999999999999</ele><time>2026-05-01T14:34:22Z</time></trkpt><trkpt lat="45.57506329962499" lon="10.709347923675114"><ele>68.6</ele><time>2026-05-01T14:34:24Z</time></trkpt><trkpt lat="45.574992294055534" lon="10.709414319239587"><ele>68.0</ele><time>2026-05-01T14:34:26Z</time></trkpt><trkpt lat="45.57492123513772" lon="10.709467259909875"><ele>68.0</ele><time>2026-05-01T14:34:28Z</time></trkpt><trkpt lat="45.57483372599311" lon="10.709529364450844"><ele>68.0</ele><time>2026-05-01T14:34:30Z</time></trkpt><trkpt lat="45.57472950232757" lon="10.70958963708658"><ele>68.0</ele><time>2026-05-01T14:34:32Z</time></trkpt><trkpt lat="45.574654029318424" lon="10.709618369962284"><ele>68.0</ele><time>2026-05-01T14:34:35Z</time></trkpt><trkpt lat="45.57459096919607" lon="10.709644259357304"><ele>68.0</ele><time>2026-05-01T14:34:37Z</time></trkpt><trkpt lat="45.574513248307554" lon="10.709666781155418"><ele>68.0</ele><time>2026-05-01T14:34:39Z</time></trkpt><trkpt lat="45.574411749369666" lon="10.70969263731797"><ele>68.2</ele><time>2026-05-01T14:34:41Z</time></trkpt><trkpt lat="45.57429355983952" lon="10.709712293297432"><ele>68.4</ele><time>2026-05-01T14:34:43Z</time></trkpt><trkpt lat="45.5742302152087" lon="10.709718404215561"><ele>68.60000000000001</ele><time>2026-05-01T14:34:44Z</time></trkpt><trkpt lat="45.574167425204834" lon="10.709725567272857"><ele>68.8</ele><time>2026-05-01T14:34:45Z</time></trkpt><trkpt lat="45.57404600808145" lon="10.709744357167228"><ele>69.0</ele><time>2026-05-01T14:34:47Z</time></trkpt><trkpt lat="45.573952906774686" lon="10.709764295830638"><ele>69.0</ele><time>2026-05-01T14:34:49Z</time></trkpt><trkpt lat="45.57387177312597" lon="10.709797946888825"><ele>69.0</ele><time>2026-05-01T14:34:51Z</time></trkpt><trkpt lat="45.573771313616184" lon="10.709842112757755"><ele>69.0</ele><time>2026-05-01T14:34:53Z</time></trkpt><trkpt lat="45.57367340267251" lon="10.709892840859105"><ele>69.0</ele><time>2026-05-01T14:34:55Z</time></trkpt><trkpt lat="45.57357464497299" lon="10.709955121552365"><ele>69.0</ele><time>2026-05-01T14:34:57Z</time></trkpt><trkpt lat="45.57347286166514" lon="10.710030403409403"><ele>69.2</ele><time>2026-05-01T14:34:59Z</time></trkpt><trkpt lat="45.57338876382784" lon="10.710134770267965"><ele>69.4</ele><time>2026-05-01T14:35:01Z</time></trkpt><trkpt lat="45.57333981966527" lon="10.710202944584797"><ele>69.6</ele><time>2026-05-01T14:35:02Z</time></trkpt><trkpt lat="45.573274941875724" lon="10.710247363080784"><ele>69.8</ele><time>2026-05-01T14:35:03Z</time></trkpt><trkpt lat="45.57316830323072" lon="10.71032120623257"><ele>70.0</ele><time>2026-05-01T14:35:05Z</time></trkpt><trkpt lat="45.573053657095144" lon="10.710366887445105"><ele>70.33333333333333</ele><time>2026-05-01T14:35:07Z</time></trkpt><trkpt lat="45.5729883653577" lon="10.71037483700307"><ele>70.66666666666666</ele><time>2026-05-01T14:35:08Z</time></trkpt><trkpt lat="45.57292395883122" lon="10.7103803388041"><ele>71.0</ele><time>2026-05-01T14:35:09Z</time></trkpt><trkpt lat="45.57285591905121" lon="10.710381558582679"><ele>71.33333333333333</ele><time>2026-05-01T14:35:10Z</time></trkpt><trkpt lat="45.572732743508006" lon="10.710377783263473"><ele>71.66666666666667</ele><time>2026-05-01T14:35:12Z</time></trkpt><trkpt lat="45.572669023640515" lon="10.710374485903086"><ele>72.0</ele><time>2026-05-01T14:35:13Z</time></trkpt><trkpt lat="45.57255988187333" lon="10.710370795052548"><ele>72.4</ele><time>2026-05-01T14:35:15Z</time></trkpt><trkpt lat="45.572431686340046" lon="10.710345030159358"><ele>72.80000000000001</ele><time>2026-05-01T14:35:17Z</time></trkpt><trkpt lat="45.57235874363344" lon="10.710314936303483"><ele>73.2</ele><time>2026-05-01T14:35:18Z</time></trkpt><trkpt lat="45.57230273240776" lon="10.710253597753075"><ele>73.60000000000001</ele><time>2026-05-01T14:35:19Z</time></trkpt><trkpt lat="45.57217935310766" lon="10.710180082993723"><ele>74.0</ele><time>2026-05-01T14:35:21Z</time></trkpt><trkpt lat="45.57211621736458" lon="10.710099920989476"><ele>75.25</ele><time>2026-05-01T14:35:22Z</time></trkpt><trkpt lat="45.57202106179951" lon="10.710015838754497"><ele>76.5</ele><time>2026-05-01T14:35:23Z</time></trkpt><trkpt lat="45.5718987086147" lon="10.709907784222391"><ele>77.75</ele><time>2026-05-01T14:35:24Z</time></trkpt><trkpt lat="45.57178551565803" lon="10.709830392347667"><ele>79.0</ele><time>2026-05-01T14:35:25Z</time></trkpt><trkpt lat="45.5716917389993" lon="10.709756613176545"><ele>79.0</ele><time>2026-05-01T14:35:26Z</time></trkpt><trkpt lat="45.571602726222" lon="10.709686117982772"><ele>79.0</ele><time>2026-05-01T14:35:27Z</time></trkpt><trkpt lat="45.57154008775002" lon="10.709648175474099"><ele>79.0</ele><time>2026-05-01T14:35:28Z</time></trkpt><trkpt lat="45.57148284374386" lon="10.709602715464925"><ele>79.0</ele><time>2026-05-01T14:35:29Z</time></trkpt><trkpt lat="45.57141991287468" lon="10.709570391691853"><ele>79.0</ele><time>2026-05-01T14:35:30Z</time></trkpt><trkpt lat="45.57134041519237" lon="10.709528365491444"><ele>79.0</ele><time>2026-05-01T14:35:31Z</time></trkpt><trkpt lat="45.57126569082601" lon="10.70949782093473"><ele>79.0</ele><time>2026-05-01T14:35:32Z</time></trkpt><trkpt lat="45.57119112657083" lon="10.70945350413479"><ele>79.0</ele><time>2026-05-01T14:35:33Z</time></trkpt><trkpt lat="45.57111339839931" lon="10.709419045230343"><ele>79.0</ele><time>2026-05-01T14:35:34Z</time></trkpt><trkpt lat="45.571033051782145" lon="10.709379796262947"><ele>79.0</ele><time>2026-05-01T14:35:35Z</time></trkpt><trkpt lat="45.570950658173174" lon="10.709337103664007"><ele>79.0</ele><time>2026-05-01T14:35:36Z</time></trkpt><trkpt lat="45.570863946956834" lon="10.709295755091722"><ele>79.0</ele><time>2026-05-01T14:35:37Z</time></trkpt><trkpt lat="45.57076695862401" lon="10.709246232993882"><ele>77.2</ele><time>2026-05-01T14:35:38Z</time></trkpt><trkpt lat="45.57066829576197" lon="10.709202041061628"><ele>75.4</ele><time>2026-05-01T14:35:39Z</time></trkpt><trkpt lat="45.57058291179077" lon="10.709155271022048"><ele>73.6</ele><time>2026-05-01T14:35:40Z</time></trkpt><trkpt lat="45.57048901832718" lon="10.709115854981338"><ele>71.8</ele><time>2026-05-01T14:35:41Z</time></trkpt><trkpt lat="45.570387955713436" lon="10.70906812672858"><ele>70.0</ele><time>2026-05-01T14:35:42Z</time></trkpt><trkpt lat="45.570272329275305" lon="10.709023930506742"><ele>76.0</ele><time>2026-05-01T14:35:43Z</time></trkpt><trkpt lat="45.57014710575319" lon="10.70898153880885"><ele>82.0</ele><time>2026-05-01T14:35:44.001Z</time></trkpt><trkpt lat="45.57000445613663" lon="10.708931383671064"><ele>88.0</ele><time>2026-05-01T14:35:45.001Z</time></trkpt><trkpt lat="45.569846141211585" lon="10.708882569178714"><ele>94.0</ele><time>2026-05-01T14:35:46.001Z</time></trkpt><trkpt lat="45.569679862226124" lon="10.708830089761616"><ele>94.0</ele><time>2026-05-01T14:35:47.001Z</time></trkpt><trkpt lat="45.56952763387015" lon="10.708760748341666"><ele>94.0</ele><time>2026-05-01T14:35:48.001Z</time></trkpt><trkpt lat="45.569362896334724" lon="10.708731892907847"><ele>94.0</ele><time>2026-05-01T14:35:49.001Z</time></trkpt><trkpt lat="45.569199336917386" lon="10.708711137044903"><ele>98.0</ele><time>2026-05-01T14:35:50.001Z</time></trkpt><trkpt lat="45.56904227035315" lon="10.708705669339377"><ele>102.0</ele><time>2026-05-01T14:35:51.001Z</time></trkpt><trkpt lat="45.56888068131854" lon="10.708717334107797"><ele>106.0</ele><time>2026-05-01T14:35:52.001Z</time></trkpt><trkpt lat="45.56871420825615" lon="10.708744682007781"><ele>101.66666666666667</ele><time>2026-05-01T14:35:53.001Z</time></trkpt><trkpt lat="45.56854067402697" lon="10.708799475864073"><ele>97.33333333333334</ele><time>2026-05-01T14:35:54.001Z</time></trkpt><trkpt lat="45.568363313904946" lon="10.708897620158783"><ele>93.0</ele><time>2026-05-01T14:35:55.001Z</time></trkpt><trkpt lat="45.56818030689438" lon="10.708962224039844"><ele>93.0</ele><time>2026-05-01T14:35:56.001Z</time></trkpt><trkpt lat="45.56800906884247" lon="10.709060755878836"><ele>93.0</ele><time>2026-05-01T14:35:57.001Z</time></trkpt><trkpt lat="45.56784129717781" lon="10.70914011154085"><ele>93.0</ele><time>2026-05-01T14:35:58.001Z</time></trkpt><trkpt lat="45.56766789547441" lon="10.709239572268473"><ele>96.0</ele><time>2026-05-01T14:35:59.001Z</time></trkpt><trkpt lat="45.56747761198114" lon="10.70934989194735"><ele>99.0</ele><time>2026-05-01T14:36:00.001Z</time></trkpt><trkpt lat="45.56726701556057" lon="10.709510427218875"><ele>102.0</ele><time>2026-05-01T14:36:01.001Z</time></trkpt><trkpt lat="45.567037320543825" lon="10.70968811184076"><ele>90.0</ele><time>2026-05-01T14:36:02.001Z</time></trkpt><trkpt lat="45.5668121791308" lon="10.709887879314808"><ele>78.0</ele><time>2026-05-01T14:36:03.001Z</time></trkpt><trkpt lat="45.56657014849055" lon="10.710089703485876"><ele>78.0</ele><time>2026-05-01T14:36:04.001Z</time></trkpt><trkpt lat="45.56631652002058" lon="10.710301072184766"><ele>78.0</ele><time>2026-05-01T14:36:05.001Z</time></trkpt><trkpt lat="45.56610816192278" lon="10.71056107089875"><ele>78.0</ele><time>2026-05-01T14:36:06.001Z</time></trkpt><trkpt lat="45.565912888408896" lon="10.710804721350113"><ele>78.0</ele><time>2026-05-01T14:36:07.001Z</time></trkpt><trkpt lat="45.56574342562806" lon="10.711051460349255"><ele>81.0</ele><time>2026-05-01T14:36:08.001Z</time></trkpt><trkpt lat="45.565583134673965" lon="10.7113162294476"><ele>84.0</ele><time>2026-05-01T14:36:09.001Z</time></trkpt><trkpt lat="45.56543503220852" lon="10.711565922516412"><ele>82.66666666666667</ele><time>2026-05-01T14:36:10.001Z</time></trkpt><trkpt lat="45.565294406938655" lon="10.71182282032463"><ele>81.33333333333334</ele><time>2026-05-01T14:36:11.001Z</time></trkpt><trkpt lat="45.56515542215605" lon="10.712056020456188"><ele>80.0</ele><time>2026-05-01T14:36:12.001Z</time></trkpt><trkpt lat="45.56503142209643" lon="10.712262562196232"><ele>80.0</ele><time>2026-05-01T14:36:13.001Z</time></trkpt><trkpt lat="45.564908710406584" lon="10.712471586671892"><ele>80.0</ele><time>2026-05-01T14:36:14.001Z</time></trkpt><trkpt lat="45.56478539861362" lon="10.712695339683908"><ele>80.0</ele><time>2026-05-01T14:36:15.001Z</time></trkpt><trkpt lat="45.56467250559725" lon="10.712897733744265"><ele>78.33333333333334</ele><time>2026-05-01T14:36:16.001Z</time></trkpt><trkpt lat="45.5645606889095" lon="10.713091204914056"><ele>76.66666666666667</ele><time>2026-05-01T14:36:17.001Z</time></trkpt><trkpt lat="45.564451779134124" lon="10.713268836849208"><ele>75.0</ele><time>2026-05-01T14:36:18.001Z</time></trkpt><trkpt lat="45.56433505381902" lon="10.713452107777822"><ele>77.66666666666667</ele><time>2026-05-01T14:36:19Z</time></trkpt><trkpt lat="45.56420785796548" lon="10.713622564308473"><ele>80.33333333333334</ele><time>2026-05-01T14:36:20Z</time></trkpt><trkpt lat="45.56408255104435" lon="10.713770213726981"><ele>83.0</ele><time>2026-05-01T14:36:21Z</time></trkpt><trkpt lat="45.563960737820686" lon="10.713896691936737"><ele>83.0</ele><time>2026-05-01T14:36:22Z</time></trkpt><trkpt lat="45.56384420234933" lon="10.714009073637204"><ele>83.0</ele><time>2026-05-01T14:36:23Z</time></trkpt><trkpt lat="45.56372071247267" lon="10.714118988393434"><ele>83.0</ele><time>2026-05-01T14:36:24Z</time></trkpt><trkpt lat="45.56358861725203" lon="10.714227721059252"><ele>83.0</ele><time>2026-05-01T14:36:25Z</time></trkpt><trkpt lat="45.56343085867341" lon="10.71434984728342"><ele>82.33333333333334</ele><time>2026-05-01T14:36:26Z</time></trkpt><trkpt lat="45.563243055410645" lon="10.71446904187341"><ele>81.66666666666667</ele><time>2026-05-01T14:36:27Z</time></trkpt><trkpt lat="45.563020518259506" lon="10.71454919109863"><ele>81.0</ele><time>2026-05-01T14:36:28Z</time></trkpt><trkpt lat="45.56279624434522" lon="10.71467189214051"><ele>78.5</ele><time>2026-05-01T14:36:29Z</time></trkpt><trkpt lat="45.56257400640861" lon="10.71474967945724"><ele>76.0</ele><time>2026-05-01T14:36:30Z</time></trkpt><trkpt lat="45.56234460071592" lon="10.71484453523401"><ele>76.0</ele><time>2026-05-01T14:36:31Z</time></trkpt><trkpt lat="45.56212554566617" lon="10.7149444357677"><ele>76.0</ele><time>2026-05-01T14:36:32Z</time></trkpt><trkpt lat="45.56192134916452" lon="10.71504019501045"><ele>76.0</ele><time>2026-05-01T14:36:33Z</time></trkpt><trkpt lat="45.56172239656394" lon="10.715131971000513"><ele>76.0</ele><time>2026-05-01T14:36:34Z</time></trkpt><trkpt lat="45.561521195615406" lon="10.715221475233196"><ele>76.0</ele><time>2026-05-01T14:36:35Z</time></trkpt><trkpt lat="45.56132624617083" lon="10.715312301302484"><ele>76.0</ele><time>2026-05-01T14:36:36Z</time></trkpt><trkpt lat="45.56114560114804" lon="10.715403080680787"><ele>76.0</ele><time>2026-05-01T14:36:37Z</time></trkpt><trkpt lat="45.56097710929937" lon="10.715497095321345"><ele>76.0</ele><time>2026-05-01T14:36:38Z</time></trkpt><trkpt lat="45.56081434454642" lon="10.71559832289889"><ele>76.0</ele><time>2026-05-01T14:36:39Z</time></trkpt><trkpt lat="45.56065847039574" lon="10.71569769026881"><ele>76.0</ele><time>2026-05-01T14:36:40Z</time></trkpt><trkpt lat="45.56051883789663" lon="10.71579766780867"><ele>76.0</ele><time>2026-05-01T14:36:41Z</time></trkpt><trkpt lat="45.56038863146265" lon="10.715901574521954"><ele>76.0</ele><time>2026-05-01T14:36:42Z</time></trkpt><trkpt lat="45.560259163747396" lon="10.716018129060712"><ele>77.33333333333333</ele><time>2026-05-01T14:36:43Z</time></trkpt><trkpt lat="45.56012940417344" lon="10.716136443569093"><ele>78.66666666666667</ele><time>2026-05-01T14:36:44Z</time></trkpt><trkpt lat="45.56000298562753" lon="10.716258653335055"><ele>80.0</ele><time>2026-05-01T14:36:45Z</time></trkpt><trkpt lat="45.559877970915736" lon="10.716380668201456"><ele>80.0</ele><time>2026-05-01T14:36:46Z</time></trkpt><trkpt lat="45.55978593036151" lon="10.716506441800822"><ele>80.0</ele><time>2026-05-01T14:36:47Z</time></trkpt><trkpt lat="45.55963300114236" lon="10.716606015644173"><ele>80.0</ele><time>2026-05-01T14:36:48Z</time></trkpt><trkpt lat="45.55947964077634" lon="10.716718596098831"><ele>80.25</ele><time>2026-05-01T14:36:49Z</time></trkpt><trkpt lat="45.559359767359176" lon="10.716845227697492"><ele>80.5</ele><time>2026-05-01T14:36:50Z</time></trkpt><trkpt lat="45.559242367147526" lon="10.716971199953123"><ele>80.75</ele><time>2026-05-01T14:36:51Z</time></trkpt><trkpt lat="45.55914053472312" lon="10.717063452817438"><ele>81.0</ele><time>2026-05-01T14:36:52Z</time></trkpt><trkpt lat="45.5590355454686" lon="10.717163425193645"><ele>81.0</ele><time>2026-05-01T14:36:53Z</time></trkpt><trkpt lat="45.558920955107915" lon="10.717289084704907"><ele>81.0</ele><time>2026-05-01T14:36:54Z</time></trkpt><trkpt lat="45.55881188730707" lon="10.717391737831191"><ele>81.0</ele><time>2026-05-01T14:36:55Z</time></trkpt><trkpt lat="45.55870317940505" lon="10.717486225036536"><ele>81.0</ele><time>2026-05-01T14:36:56Z</time></trkpt><trkpt lat="45.558591287580036" lon="10.71757016333584"><ele>80.25</ele><time>2026-05-01T14:36:57Z</time></trkpt><trkpt lat="45.558468024693994" lon="10.717648446888468"><ele>79.5</ele><time>2026-05-01T14:36:58Z</time></trkpt><trkpt lat="45.55833821759909" lon="10.717727559220233"><ele>78.75</ele><time>2026-05-01T14:36:59Z</time></trkpt><trkpt lat="45.55820243798064" lon="10.717796507133764"><ele>78.0</ele><time>2026-05-01T14:37:00Z</time></trkpt><trkpt lat="45.55806812106502" lon="10.71786060877091"><ele>79.0</ele><time>2026-05-01T14:37:01Z</time></trkpt><trkpt lat="45.55792407447901" lon="10.717914621917258"><ele>80.0</ele><time>2026-05-01T14:37:02Z</time></trkpt><trkpt lat="45.55778613176007" lon="10.717973303707156"><ele>81.0</ele><time>2026-05-01T14:37:03Z</time></trkpt><trkpt lat="45.55764923259263" lon="10.718044526768264"><ele>82.0</ele><time>2026-05-01T14:37:04Z</time></trkpt><trkpt lat="45.557515792249745" lon="10.718131942489231"><ele>82.0</ele><time>2026-05-01T14:37:05Z</time></trkpt><trkpt lat="45.55739482263203" lon="10.718213675234237"><ele>82.0</ele><time>2026-05-01T14:37:06Z</time></trkpt><trkpt lat="45.557274315188685" lon="10.718305799513104"><ele>82.0</ele><time>2026-05-01T14:37:07Z</time></trkpt><trkpt lat="45.55714396076709" lon="10.718399176698204"><ele>82.0</ele><time>2026-05-01T14:37:08Z</time></trkpt><trkpt lat="45.5570291181116" lon="10.718490075853556"><ele>82.0</ele><time>2026-05-01T14:37:09Z</time></trkpt><trkpt lat="45.556916505159535" lon="10.718569675734136"><ele>82.0</ele><time>2026-05-01T14:37:10Z</time></trkpt><trkpt lat="45.556813865532405" lon="10.718635077190191"><ele>82.0</ele><time>2026-05-01T14:37:11Z</time></trkpt><trkpt lat="45.55671858371704" lon="10.718706218193569"><ele>82.0</ele><time>2026-05-01T14:37:12Z</time></trkpt><trkpt lat="45.55663252936296" lon="10.718767423268508"><ele>82.0</ele><time>2026-05-01T14:37:13Z</time></trkpt><trkpt lat="45.55653732232595" lon="10.718845781639372"><ele>82.0</ele><time>2026-05-01T14:37:14Z</time></trkpt><trkpt lat="45.55642666691843" lon="10.7189332946798"><ele>82.0</ele><time>2026-05-01T14:37:15Z</time></trkpt><trkpt lat="45.556319463876804" lon="10.71902267158296"><ele>82.0</ele><time>2026-05-01T14:37:16Z</time></trkpt><trkpt lat="45.55621487505268" lon="10.719097084076257"><ele>82.0</ele><time>2026-05-01T14:37:17Z</time></trkpt><trkpt lat="45.55612647512509" lon="10.719160023497151"><ele>82.25</ele><time>2026-05-01T14:37:18Z</time></trkpt><trkpt lat="45.556028172098195" lon="10.71921395157042"><ele>82.5</ele><time>2026-05-01T14:37:19Z</time></trkpt><trkpt lat="45.55592343401197" lon="10.719271229925805"><ele>82.75</ele><time>2026-05-01T14:37:20Z</time></trkpt><trkpt lat="45.55581496340184" lon="10.719344109033928"><ele>83.0</ele><time>2026-05-01T14:37:21Z</time></trkpt><trkpt lat="45.55569810528762" lon="10.71941165946594"><ele>83.0</ele><time>2026-05-01T14:37:22Z</time></trkpt><trkpt lat="45.555595109653744" lon="10.719479824950643"><ele>83.0</ele><time>2026-05-01T14:37:23Z</time></trkpt><trkpt lat="45.55550002533041" lon="10.719530108332817"><ele>83.0</ele><time>2026-05-01T14:37:24Z</time></trkpt><trkpt lat="45.55541294647993" lon="10.719573904612098"><ele>83.0</ele><time>2026-05-01T14:37:25Z</time></trkpt><trkpt lat="45.55533376316186" lon="10.719616756976894"><ele>83.0</ele><time>2026-05-01T14:37:26Z</time></trkpt><trkpt lat="45.555258739582314" lon="10.719661764109393"><ele>82.5</ele><time>2026-05-01T14:37:27Z</time></trkpt><trkpt lat="45.55518351755835" lon="10.719711775428214"><ele>82.0</ele><time>2026-05-01T14:37:28Z</time></trkpt><trkpt lat="45.555111241843285" lon="10.719755552045692"><ele>81.5</ele><time>2026-05-01T14:37:29Z</time></trkpt><trkpt lat="45.555041487564694" lon="10.719793377474065"><ele>81.0</ele><time>2026-05-01T14:37:30Z</time></trkpt><trkpt lat="45.554953878010835" lon="10.719836277652334"><ele>80.5</ele><time>2026-05-01T14:37:32Z</time></trkpt><trkpt lat="45.55488961047231" lon="10.719865997802778"><ele>80.0</ele><time>2026-05-01T14:37:34Z</time></trkpt><trkpt lat="45.554835870326364" lon="10.71991580651816"><ele>80.0</ele><time>2026-05-01T14:37:47.001Z</time></trkpt><trkpt lat="45.554758319493445" lon="10.719959657025889"><ele>80.0</ele><time>2026-05-01T14:37:49.001Z</time></trkpt><trkpt lat="45.55468425069591" lon="10.719942666919616"><ele>80.0</ele><time>2026-05-01T14:37:51.001Z</time></trkpt><trkpt lat="45.55460650786322" lon="10.719983782588313"><ele>80.0</ele><time>2026-05-01T14:37:54.001Z</time></trkpt><trkpt lat="45.554544342792674" lon="10.72001667519019"><ele>80.0</ele><time>2026-05-01T14:37:56.001Z</time></trkpt><trkpt lat="45.55445259395184" lon="10.720026268451674"><ele>80.0</ele><time>2026-05-01T14:37:58.001Z</time></trkpt><trkpt lat="45.554372396140955" lon="10.7200433619824"><ele>80.42857142857143</ele><time>2026-05-01T14:38:00.001Z</time></trkpt><trkpt lat="45.55431414671563" lon="10.720123888912148"><ele>80.85714285714286</ele><time>2026-05-01T14:38:02.001Z</time></trkpt><trkpt lat="45.55425932522296" lon="10.720193555330557"><ele>81.28571428571428</ele><time>2026-05-01T14:38:04.001Z</time></trkpt><trkpt lat="45.554188966519035" lon="10.720195098933502"><ele>81.71428571428572</ele><time>2026-05-01T14:38:07.001Z</time></trkpt><trkpt lat="45.55412634051889" lon="10.720225523521558"><ele>82.14285714285715</ele><time>2026-05-01T14:38:09.001Z</time></trkpt><trkpt lat="45.554064508437826" lon="10.720255375940928"><ele>82.57142857142857</ele><time>2026-05-01T14:38:11.001Z</time></trkpt><trkpt lat="45.55400241133516" lon="10.720283355054683"><ele>83.0</ele><time>2026-05-01T14:38:13.001Z</time></trkpt><trkpt lat="45.55392518927422" lon="10.720318149026102"><ele>83.0</ele><time>2026-05-01T14:38:16.001Z</time></trkpt><trkpt lat="45.55384491909033" lon="10.72035390418898"><ele>83.0</ele><time>2026-05-01T14:38:19.001Z</time></trkpt><trkpt lat="45.55377779947459" lon="10.720383735138022"><ele>83.0</ele><time>2026-05-01T14:38:21.001Z</time></trkpt><trkpt lat="45.55368536807227" lon="10.720424828829431"><ele>83.0</ele><time>2026-05-01T14:38:23.001Z</time></trkpt><trkpt lat="45.55359299190119" lon="10.720469401847977"><ele>83.0</ele><time>2026-05-01T14:38:25Z</time></trkpt><trkpt lat="45.55350740308161" lon="10.720512229507948"><ele>83.0</ele><time>2026-05-01T14:38:27Z</time></trkpt><trkpt lat="45.55341008972363" lon="10.72056247320887"><ele>82.33333333333334</ele><time>2026-05-01T14:38:29Z</time></trkpt><trkpt lat="45.553319397435466" lon="10.72061385144791"><ele>81.66666666666667</ele><time>2026-05-01T14:38:31Z</time></trkpt><trkpt lat="45.55322336626833" lon="10.720668559126247"><ele>81.0</ele><time>2026-05-01T14:38:33Z</time></trkpt><trkpt lat="45.55313864570554" lon="10.72071691516577"><ele>80.33333333333333</ele><time>2026-05-01T14:38:35Z</time></trkpt><trkpt lat="45.55306372820523" lon="10.720759675898254"><ele>79.66666666666666</ele><time>2026-05-01T14:38:37Z</time></trkpt><trkpt lat="45.55299753346735" lon="10.720797457932866"><ele>79.0</ele><time>2026-05-01T14:38:39Z</time></trkpt><trkpt lat="45.55292257849041" lon="10.720877676832252"><ele>79.0</ele><time>2026-05-01T14:38:41Z</time></trkpt><trkpt lat="45.552842848727224" lon="10.720927877411397"><ele>79.0</ele><time>2026-05-01T14:38:43Z</time></trkpt><trkpt lat="45.55276981919263" lon="10.720956839633251"><ele>79.0</ele><time>2026-05-01T14:38:46Z</time></trkpt><trkpt lat="45.552700813071525" lon="10.721000189218115"><ele>79.0</ele><time>2026-05-01T14:38:50Z</time></trkpt><trkpt lat="45.55261348206717" lon="10.721015895927588"><ele>79.0</ele><time>2026-05-01T14:38:56Z</time></trkpt><trkpt lat="45.5524840209995" lon="10.721100025759494"><ele>79.5</ele><time>2026-05-01T14:38:58Z</time></trkpt><trkpt lat="45.552373775961854" lon="10.721160191237814"><ele>80.0</ele><time>2026-05-01T14:38:59Z</time></trkpt><trkpt lat="45.552249296073384" lon="10.721232553518785"><ele>80.5</ele><time>2026-05-01T14:39:00Z</time></trkpt><trkpt lat="45.5521258827299" lon="10.721313790535229"><ele>81.0</ele><time>2026-05-01T14:39:01Z</time></trkpt><trkpt lat="45.55199465883267" lon="10.721375715271709"><ele>79.66666666666667</ele><time>2026-05-01T14:39:02Z</time></trkpt><trkpt lat="45.55180959626783" lon="10.721486899641926"><ele>78.33333333333334</ele><time>2026-05-01T14:39:03Z</time></trkpt><trkpt lat="45.55165184659268" lon="10.721577749838033"><ele>77.0</ele><time>2026-05-01T14:39:04Z</time></trkpt><trkpt lat="45.551495212924856" lon="10.721667955508334"><ele>77.0</ele><time>2026-05-01T14:39:05Z</time></trkpt><trkpt lat="45.551345582547086" lon="10.72177641717439"><ele>77.0</ele><time>2026-05-01T14:39:06Z</time></trkpt><trkpt lat="45.551204594616316" lon="10.721838455958347"><ele>77.0</ele><time>2026-05-01T14:39:07Z</time></trkpt><trkpt lat="45.551076302073014" lon="10.721914174351447"><ele>77.0</ele><time>2026-05-01T14:39:08Z</time></trkpt><trkpt lat="45.55096927453873" lon="10.721980787468155"><ele>77.0</ele><time>2026-05-01T14:39:09Z</time></trkpt><trkpt lat="45.550880596525325" lon="10.722036065550112"><ele>77.0</ele><time>2026-05-01T14:39:10Z</time></trkpt><trkpt lat="45.55081488899961" lon="10.722071495917524"><ele>77.0</ele><time>2026-05-01T14:39:11Z</time></trkpt><trkpt lat="45.550740391420355" lon="10.722110105843395"><ele>77.0</ele><time>2026-05-01T14:39:12Z</time></trkpt><trkpt lat="45.55065157480564" lon="10.722181645376072"><ele>77.0</ele><time>2026-05-01T14:39:13Z</time></trkpt><trkpt lat="45.550559574250414" lon="10.722278975610433"><ele>77.0</ele><time>2026-05-01T14:39:14Z</time></trkpt><trkpt lat="45.55045401781477" lon="10.722390955783192"><ele>77.0</ele><time>2026-05-01T14:39:15Z</time></trkpt><trkpt lat="45.55035015717031" lon="10.72248398293412"><ele>77.0</ele><time>2026-05-01T14:39:16Z</time></trkpt><trkpt lat="45.55024132939436" lon="10.722576751473612"><ele>76.5</ele><time>2026-05-01T14:39:17Z</time></trkpt><trkpt lat="45.550118659543124" lon="10.722673865708371"><ele>76.0</ele><time>2026-05-01T14:39:18Z</time></trkpt><trkpt lat="45.54998278291451" lon="10.722753279549035"><ele>75.5</ele><time>2026-05-01T14:39:19Z</time></trkpt><trkpt lat="45.54984807490724" lon="10.722819275397415"><ele>75.0</ele><time>2026-05-01T14:39:20Z</time></trkpt><trkpt lat="45.549720807396234" lon="10.722880752949278"><ele>75.0</ele><time>2026-05-01T14:39:21Z</time></trkpt><trkpt lat="45.54961771247361" lon="10.722936148073332"><ele>75.0</ele><time>2026-05-01T14:39:22Z</time></trkpt><trkpt lat="45.54952787996731" lon="10.722976901806675"><ele>75.0</ele><time>2026-05-01T14:39:23Z</time></trkpt><trkpt lat="45.54945556748029" lon="10.723012328938772"><ele>75.0</ele><time>2026-05-01T14:39:24Z</time></trkpt><trkpt lat="45.54938946833261" lon="10.723034637161053"><ele>75.0</ele><time>2026-05-01T14:39:25Z</time></trkpt><trkpt lat="45.54932588901535" lon="10.723063631448806"><ele>75.0</ele><time>2026-05-01T14:39:26Z</time></trkpt><trkpt lat="45.54921398327423" lon="10.723124886507762"><ele>74.83333333333333</ele><time>2026-05-01T14:39:28Z</time></trkpt><trkpt lat="45.54910928077575" lon="10.723174924588088"><ele>74.66666666666667</ele><time>2026-05-01T14:39:30Z</time></trkpt><trkpt lat="45.54904337907302" lon="10.72321413854147"><ele>74.5</ele><time>2026-05-01T14:39:34Z</time></trkpt><trkpt lat="45.54895564087251" lon="10.723256175280397"><ele>74.33333333333334</ele><time>2026-05-01T14:39:36Z</time></trkpt><trkpt lat="45.54889164407842" lon="10.72329266748785"><ele>74.16666666666667</ele><time>2026-05-01T14:39:37Z</time></trkpt><trkpt lat="45.54881506345202" lon="10.72333034878449"><ele>74.0</ele><time>2026-05-01T14:39:38Z</time></trkpt><trkpt lat="45.54875257932391" lon="10.723360209316256"><ele>74.2</ele><time>2026-05-01T14:39:39Z</time></trkpt><trkpt lat="45.54863841075548" lon="10.723420191619748"><ele>74.4</ele><time>2026-05-01T14:39:41Z</time></trkpt><trkpt lat="45.548514366391856" lon="10.723479532955517"><ele>74.6</ele><time>2026-05-01T14:39:43.001Z</time></trkpt><trkpt lat="45.54845512585734" lon="10.723516240791259"><ele>74.8</ele><time>2026-05-01T14:39:44.001Z</time></trkpt><trkpt lat="45.54838165199044" lon="10.72352407388098"><ele>75.0</ele><time>2026-05-01T14:39:45.001Z</time></trkpt><trkpt lat="45.548300420085276" lon="10.723570248051907"><ele>75.0</ele><time>2026-05-01T14:39:46.001Z</time></trkpt><trkpt lat="45.54820329024662" lon="10.723640337028472"><ele>75.0</ele><time>2026-05-01T14:39:47.001Z</time></trkpt><trkpt lat="45.548111849634786" lon="10.723713307962829"><ele>75.0</ele><time>2026-05-01T14:39:48.001Z</time></trkpt><trkpt lat="45.54803872292141" lon="10.723771882095974"><ele>75.0</ele><time>2026-05-01T14:39:49.001Z</time></trkpt><trkpt lat="45.54797447310042" lon="10.723820790589897"><ele>75.0</ele><time>2026-05-01T14:39:50.001Z</time></trkpt><trkpt lat="45.547917304573744" lon="10.723859769129964"><ele>75.0</ele><time>2026-05-01T14:39:51.001Z</time></trkpt><trkpt lat="45.54784052982873" lon="10.723937687661394"><ele>74.66666666666667</ele><time>2026-05-01T14:39:53.001Z</time></trkpt><trkpt lat="45.547764531509536" lon="10.724020164203644"><ele>74.33333333333333</ele><time>2026-05-01T14:39:55.001Z</time></trkpt><trkpt lat="45.54767848900231" lon="10.724063045080074"><ele>74.0</ele><time>2026-05-01T14:39:58.001Z</time></trkpt><trkpt lat="45.54759720503027" lon="10.72409792285794"><ele>73.66666666666666</ele><time>2026-05-01T14:40:00.001Z</time></trkpt><trkpt lat="45.54752502352577" lon="10.724145322199497"><ele>73.33333333333333</ele><time>2026-05-01T14:40:02.001Z</time></trkpt><trkpt lat="45.5474608285521" lon="10.72422048830902"><ele>73.0</ele><time>2026-05-01T14:40:04.001Z</time></trkpt><trkpt lat="45.547368085928824" lon="10.72432021869091"><ele>73.0</ele><time>2026-05-01T14:40:06.001Z</time></trkpt><trkpt lat="45.54730525395765" lon="10.72435772818993"><ele>73.0</ele><time>2026-05-01T14:40:07.001Z</time></trkpt><trkpt lat="45.54723760663333" lon="10.724386294813922"><ele>73.0</ele><time>2026-05-01T14:40:08.001Z</time></trkpt><trkpt lat="45.5471617690204" lon="10.724425595135306"><ele>73.0</ele><time>2026-05-01T14:40:09.001Z</time></trkpt><trkpt lat="45.547085407972055" lon="10.724451296236257"><ele>73.0</ele><time>2026-05-01T14:40:10.001Z</time></trkpt><trkpt lat="45.547008039099865" lon="10.724471758619595"><ele>73.0</ele><time>2026-05-01T14:40:11.001Z</time></trkpt><trkpt lat="45.54692819521766" lon="10.724490726304015"><ele>73.16666666666666</ele><time>2026-05-01T14:40:12.001Z</time></trkpt><trkpt lat="45.5468457390499" lon="10.72450914127164"><ele>73.33333333333333</ele><time>2026-05-01T14:40:13.001Z</time></trkpt><trkpt lat="45.546772968597374" lon="10.724500474594496"><ele>73.5</ele><time>2026-05-01T14:40:14.001Z</time></trkpt><trkpt lat="45.546704897744206" lon="10.72450553933042"><ele>73.66666666666667</ele><time>2026-05-01T14:40:15.001Z</time></trkpt><trkpt lat="45.546628713684655" lon="10.724495302947858"><ele>73.83333333333334</ele><time>2026-05-01T14:40:16.001Z</time></trkpt><trkpt lat="45.54653777712305" lon="10.724484478951414"><ele>74.0</ele><time>2026-05-01T14:40:17.001Z</time></trkpt><trkpt lat="45.54643901766025" lon="10.724476982055844"><ele>74.0</ele><time>2026-05-01T14:40:18.001Z</time></trkpt><trkpt lat="45.54632703308472" lon="10.724481114275264"><ele>74.0</ele><time>2026-05-01T14:40:19.001Z</time></trkpt><trkpt lat="45.54620773543192" lon="10.724484463649505"><ele>74.0</ele><time>2026-05-01T14:40:20.001Z</time></trkpt><trkpt lat="45.546080483628295" lon="10.724494717853295"><ele>74.0</ele><time>2026-05-01T14:40:21.001Z</time></trkpt><trkpt lat="45.545955139474216" lon="10.724491883834183"><ele>74.5</ele><time>2026-05-01T14:40:22.001Z</time></trkpt><trkpt lat="45.545829280632255" lon="10.724465001604457"><ele>75.0</ele><time>2026-05-01T14:40:23.001Z</time></trkpt><trkpt lat="45.545698086555824" lon="10.724460657019366"><ele>75.5</ele><time>2026-05-01T14:40:24.001Z</time></trkpt><trkpt lat="45.54557149325641" lon="10.724454797708903"><ele>76.0</ele><time>2026-05-01T14:40:25.001Z</time></trkpt><trkpt lat="45.54544929012576" lon="10.72444826623561"><ele>75.8</ele><time>2026-05-01T14:40:26.001Z</time></trkpt><trkpt lat="45.54534313711817" lon="10.724436768167646"><ele>75.6</ele><time>2026-05-01T14:40:27.001Z</time></trkpt><trkpt lat="45.54523523839404" lon="10.724405414147173"><ele>75.4</ele><time>2026-05-01T14:40:28.001Z</time></trkpt><trkpt lat="45.545129855888504" lon="10.724399191519197"><ele>75.2</ele><time>2026-05-01T14:40:29.001Z</time></trkpt><trkpt lat="45.54503290328343" lon="10.724392254360156"><ele>75.0</ele><time>2026-05-01T14:40:30.001Z</time></trkpt><trkpt lat="45.54495409166099" lon="10.724382520585385"><ele>75.0</ele><time>2026-05-01T14:40:31Z</time></trkpt><trkpt lat="45.544875514138035" lon="10.724380797214927"><ele>75.0</ele><time>2026-05-01T14:40:32Z</time></trkpt><trkpt lat="45.54476406556995" lon="10.724373696089271"><ele>75.0</ele><time>2026-05-01T14:40:33Z</time></trkpt><trkpt lat="45.54465538836364" lon="10.724378560017104"><ele>75.0</ele><time>2026-05-01T14:40:34Z</time></trkpt><trkpt lat="45.54456753973012" lon="10.724359465971212"><ele>75.0</ele><time>2026-05-01T14:40:35Z</time></trkpt><trkpt lat="45.544483183255515" lon="10.7243464930178"><ele>74.33333333333333</ele><time>2026-05-01T14:40:36Z</time></trkpt><trkpt lat="45.54439526818862" lon="10.724350129847334"><ele>73.66666666666667</ele><time>2026-05-01T14:40:37Z</time></trkpt><trkpt lat="45.54431515651896" lon="10.724355255672759"><ele>73.0</ele><time>2026-05-01T14:40:38Z</time></trkpt><trkpt lat="45.544242918835934" lon="10.724362069374946"><ele>72.33333333333334</ele><time>2026-05-01T14:40:39Z</time></trkpt><trkpt lat="45.544135446040436" lon="10.724374965671137"><ele>71.66666666666667</ele><time>2026-05-01T14:40:41Z</time></trkpt><trkpt lat="45.544038011254294" lon="10.72438828213305"><ele>71.0</ele><time>2026-05-01T14:40:43Z</time></trkpt><trkpt lat="45.54391689352881" lon="10.72441612060251"><ele>70.66666666666667</ele><time>2026-05-01T14:40:45Z</time></trkpt><trkpt lat="45.54384788467772" lon="10.72443500281541"><ele>70.33333333333334</ele><time>2026-05-01T14:40:46Z</time></trkpt><trkpt lat="45.54375292187942" lon="10.724463174380322"><ele>70.0</ele><time>2026-05-01T14:40:48Z</time></trkpt><trkpt lat="45.543670403285745" lon="10.724482005177618"><ele>69.66666666666667</ele><time>2026-05-01T14:40:50Z</time></trkpt><trkpt lat="45.54359896884559" lon="10.724537622882883"><ele>69.33333333333333</ele><time>2026-05-01T14:40:53Z</time></trkpt><trkpt lat="45.54358291497525" lon="10.724433124390547"><ele>69.0</ele><time>2026-05-01T14:43:04Z</time></trkpt><trkpt lat="45.54355100310276" lon="10.724354196768243"><ele>69.0</ele><time>2026-05-01T14:43:08Z</time></trkpt><trkpt lat="45.54353298903954" lon="10.72426532161096"><ele>69.0</ele><time>2026-05-01T14:43:13Z</time></trkpt><trkpt lat="45.54358853901293" lon="10.724197657137733"><ele>69.0</ele><time>2026-05-01T14:43:18Z</time></trkpt><trkpt lat="45.54367740031156" lon="10.724360659016972"><ele>69.0</ele><time>2026-05-01T14:44:01.001Z</time></trkpt><trkpt lat="45.54371927386492" lon="10.724451955225415"><ele>69.0</ele><time>2026-05-01T14:45:01Z</time></trkpt><trkpt lat="45.5437313565394" lon="10.724572755366514"><ele>69.0</ele><time>2026-05-01T14:45:04Z</time></trkpt><trkpt lat="45.543665072896324" lon="10.724546236709637"><ele>69.0</ele><time>2026-05-01T14:45:09Z</time></trkpt><trkpt lat="45.54365427029607" lon="10.724383498573552"><ele>69.0</ele><time>2026-05-01T14:45:17Z</time></trkpt><trkpt lat="45.543637592585384" lon="10.724290354908275"><ele>69.0</ele><time>2026-05-01T14:45:23Z</time></trkpt><trkpt lat="45.54353234828061" lon="10.724255936230277"><ele>69.0</ele><time>2026-05-01T14:45:39Z</time></trkpt><trkpt lat="45.54342463612422" lon="10.724058662719795"><ele>68.75</ele><time>2026-05-01T14:45:52.001Z</time></trkpt><trkpt lat="45.54357837296118" lon="10.724397782345372"><ele>68.5</ele><time>2026-05-01T14:45:58.001Z</time></trkpt><trkpt lat="45.54349597773239" lon="10.724433495006489"><ele>68.25</ele><time>2026-05-01T14:46:29.001Z</time></trkpt><trkpt lat="45.543529405780134" lon="10.724524390820223"><ele>68.0</ele><time>2026-05-01T14:46:35.001Z</time></trkpt><trkpt lat="45.54358776768204" lon="10.724582409710314"><ele>68.0</ele><time>2026-05-01T14:46:43.001Z</time></trkpt><trkpt lat="45.543534986738976" lon="10.72463695888386"><ele>68.0</ele><time>2026-05-01T14:49:43Z</time></trkpt><trkpt lat="45.54348743487462" lon="10.724711445580343"><ele>68.0</ele><time>2026-05-01T14:49:50Z</time></trkpt><trkpt lat="45.5434184075764" lon="10.724786826599672"><ele>68.0</ele><time>2026-05-01T14:49:51Z</time></trkpt><trkpt lat="45.54334057448719" lon="10.72484372646057"><ele>68.0</ele><time>2026-05-01T14:49:52Z</time></trkpt><trkpt lat="45.543268177694245" lon="10.724888593184057"><ele>68.0</ele><time>2026-05-01T14:49:53Z</time></trkpt><trkpt lat="45.543185875555515" lon="10.724939930633903"><ele>68.0</ele><time>2026-05-01T14:49:54Z</time></trkpt><trkpt lat="45.54309056478669" lon="10.72499665951263"><ele>68.0</ele><time>2026-05-01T14:49:55Z</time></trkpt><trkpt lat="45.543005265912235" lon="10.72505702050416"><ele>68.0</ele><time>2026-05-01T14:49:56Z</time></trkpt><trkpt lat="45.5429238891243" lon="10.725111969964694"><ele>68.0</ele><time>2026-05-01T14:49:57Z</time></trkpt><trkpt lat="45.54282581102885" lon="10.725186586443415"><ele>68.0</ele><time>2026-05-01T14:49:58Z</time></trkpt><trkpt lat="45.54268970251176" lon="10.725282181411757"><ele>68.0</ele><time>2026-05-01T14:49:59Z</time></trkpt><trkpt lat="45.54256329060539" lon="10.725332128142652"><ele>68.0</ele><time>2026-05-01T14:50:00Z</time></trkpt><trkpt lat="45.54245088073563" lon="10.72540787794805"><ele>68.0</ele><time>2026-05-01T14:50:01Z</time></trkpt><trkpt lat="45.54233910934423" lon="10.725482214285789"><ele>68.0</ele><time>2026-05-01T14:50:02Z</time></trkpt><trkpt lat="45.542214362880635" lon="10.725563691696271"><ele>68.0</ele><time>2026-05-01T14:50:03Z</time></trkpt><trkpt lat="45.54206562849675" lon="10.72565743701688"><ele>68.0</ele><time>2026-05-01T14:50:04Z</time></trkpt><trkpt lat="45.54190426410667" lon="10.72573813544153"><ele>68.0</ele><time>2026-05-01T14:50:05Z</time></trkpt><trkpt lat="45.54173954771676" lon="10.725800551916631"><ele>67.33333333333334</ele><time>2026-05-01T14:50:06Z</time></trkpt><trkpt lat="45.54156505170125" lon="10.725858675738252"><ele>66.66666666666667</ele><time>2026-05-01T14:50:07Z</time></trkpt><trkpt lat="45.54138449127412" lon="10.725916827669762"><ele>66.0</ele><time>2026-05-01T14:50:08Z</time></trkpt><trkpt lat="45.54122148741135" lon="10.725991412933089"><ele>66.0</ele><time>2026-05-01T14:50:09Z</time></trkpt><trkpt lat="45.54106696280041" lon="10.726038432325078"><ele>66.0</ele><time>2026-05-01T14:50:10Z</time></trkpt><trkpt lat="45.5409181657891" lon="10.726085358280123"><ele>66.0</ele><time>2026-05-01T14:50:11Z</time></trkpt><trkpt lat="45.54076371517182" lon="10.72613813360288"><ele>66.25</ele><time>2026-05-01T14:50:12Z</time></trkpt><trkpt lat="45.5406175598446" lon="10.726189545793133"><ele>66.5</ele><time>2026-05-01T14:50:13Z</time></trkpt><trkpt lat="45.54047872157015" lon="10.726242194600912"><ele>66.75</ele><time>2026-05-01T14:50:14Z</time></trkpt><trkpt lat="45.54034843353589" lon="10.726298355534077"><ele>67.0</ele><time>2026-05-01T14:50:15Z</time></trkpt><trkpt lat="45.540232363829915" lon="10.726351271041288"><ele>67.0</ele><time>2026-05-01T14:50:16Z</time></trkpt><trkpt lat="45.54012064719697" lon="10.726399759331334"><ele>67.0</ele><time>2026-05-01T14:50:17.001Z</time></trkpt><trkpt lat="45.54001892930775" lon="10.726431557734392"><ele>67.0</ele><time>2026-05-01T14:50:18.001Z</time></trkpt><trkpt lat="45.53991499625959" lon="10.726472171196487"><ele>67.0</ele><time>2026-05-01T14:50:19.001Z</time></trkpt><trkpt lat="45.53981965337392" lon="10.726508543300671"><ele>67.0</ele><time>2026-05-01T14:50:20.001Z</time></trkpt><trkpt lat="45.53972996152849" lon="10.726547948478292"><ele>67.0</ele><time>2026-05-01T14:50:21.001Z</time></trkpt><trkpt lat="45.53963326728129" lon="10.72657813190517"><ele>67.0</ele><time>2026-05-01T14:50:22.001Z</time></trkpt><trkpt lat="45.539531754409055" lon="10.726619549503972"><ele>67.0</ele><time>2026-05-01T14:50:23.001Z</time></trkpt><trkpt lat="45.539434105322684" lon="10.726661947505779"><ele>67.0</ele><time>2026-05-01T14:50:24.001Z</time></trkpt><trkpt lat="45.53933941979294" lon="10.726703849100643"><ele>67.0</ele><time>2026-05-01T14:50:25.001Z</time></trkpt><trkpt lat="45.539248792581674" lon="10.726734617670301"><ele>67.0</ele><time>2026-05-01T14:50:26.001Z</time></trkpt><trkpt lat="45.53915060639221" lon="10.726774256652272"><ele>67.0</ele><time>2026-05-01T14:50:27.001Z</time></trkpt><trkpt lat="45.53905054780638" lon="10.726817395847824"><ele>67.0</ele><time>2026-05-01T14:50:28.001Z</time></trkpt><trkpt lat="45.53895566322765" lon="10.726859594518778"><ele>67.0</ele><time>2026-05-01T14:50:29.001Z</time></trkpt><trkpt lat="45.53886015919652" lon="10.726889705211857"><ele>67.0</ele><time>2026-05-01T14:50:30.001Z</time></trkpt><trkpt lat="45.53876286194755" lon="10.726930797842474"><ele>67.2</ele><time>2026-05-01T14:50:31.001Z</time></trkpt><trkpt lat="45.53866291687132" lon="10.726969469269783"><ele>67.4</ele><time>2026-05-01T14:50:32.001Z</time></trkpt><trkpt lat="45.53856655027045" lon="10.727009460187299"><ele>67.6</ele><time>2026-05-01T14:50:33.001Z</time></trkpt><trkpt lat="45.538473388184755" lon="10.727047851615662"><ele>67.8</ele><time>2026-05-01T14:50:34.001Z</time></trkpt><trkpt lat="45.53837472562938" lon="10.72709060615905"><ele>68.0</ele><time>2026-05-01T14:50:35.001Z</time></trkpt><trkpt lat="45.5382729879991" lon="10.727131350189829"><ele>68.0</ele><time>2026-05-01T14:50:36.001Z</time></trkpt><trkpt lat="45.538169956123184" lon="10.727180346435723"><ele>68.0</ele><time>2026-05-01T14:50:37.001Z</time></trkpt><trkpt lat="45.53806062172236" lon="10.727224564730342"><ele>68.0</ele><time>2026-05-01T14:50:38.001Z</time></trkpt><trkpt lat="45.53793700207561" lon="10.727251519340115"><ele>68.0</ele><time>2026-05-01T14:50:39.001Z</time></trkpt><trkpt lat="45.53781130395113" lon="10.727282054298735"><ele>68.0</ele><time>2026-05-01T14:50:40.001Z</time></trkpt><trkpt lat="45.53768066308405" lon="10.727301180539078"><ele>68.0</ele><time>2026-05-01T14:50:41.001Z</time></trkpt><trkpt lat="45.53756624433357" lon="10.727315491199503"><ele>68.0</ele><time>2026-05-01T14:50:43.001Z</time></trkpt><trkpt lat="45.53748609048596" lon="10.727324464140466"><ele>68.0</ele><time>2026-05-01T14:50:45.001Z</time></trkpt><trkpt lat="45.53742135197117" lon="10.727330538130516"><ele>68.0</ele><time>2026-05-01T14:50:49.001Z</time></trkpt><trkpt lat="45.53732792857948" lon="10.727339743705725"><ele>68.0</ele><time>2026-05-01T14:50:52.001Z</time></trkpt><trkpt lat="45.53725928587905" lon="10.727347218367072"><ele>68.0</ele><time>2026-05-01T14:50:53.001Z</time></trkpt><trkpt lat="45.5371801475323" lon="10.727354926338473"><ele>68.0</ele><time>2026-05-01T14:50:54.001Z</time></trkpt><trkpt lat="45.537092628768775" lon="10.72736335654708"><ele>68.0</ele><time>2026-05-01T14:50:55.001Z</time></trkpt><trkpt lat="45.53700546892389" lon="10.727371655031721"><ele>68.0</ele><time>2026-05-01T14:50:56.001Z</time></trkpt><trkpt lat="45.53690883716773" lon="10.727380855334294"><ele>68.0</ele><time>2026-05-01T14:50:57.001Z</time></trkpt><trkpt lat="45.53681196155416" lon="10.72742090629148"><ele>68.0</ele><time>2026-05-01T14:50:58.001Z</time></trkpt><trkpt lat="45.53671511046548" lon="10.727429885566576"><ele>68.0</ele><time>2026-05-01T14:50:59.001Z</time></trkpt><trkpt lat="45.53661584530362" lon="10.72743892597454"><ele>68.0</ele><time>2026-05-01T14:51:00.001Z</time></trkpt><trkpt lat="45.53650218699443" lon="10.727445616177352"><ele>68.0</ele><time>2026-05-01T14:51:00.999Z</time></trkpt><trkpt lat="45.5363856643745" lon="10.727452916388827"><ele>68.0</ele><time>2026-05-01T14:51:01.999Z</time></trkpt><trkpt lat="45.53627554651212" lon="10.727455518310046"><ele>67.75</ele><time>2026-05-01T14:51:02.999Z</time></trkpt><trkpt lat="45.53616169457422" lon="10.727464848591584"><ele>67.5</ele><time>2026-05-01T14:51:03.999Z</time></trkpt><trkpt lat="45.5360473127623" lon="10.727480840368292"><ele>67.25</ele><time>2026-05-01T14:51:04.999Z</time></trkpt><trkpt lat="45.535942944498785" lon="10.727496439530176"><ele>67.0</ele><time>2026-05-01T14:51:05.999Z</time></trkpt><trkpt lat="45.53581646734982" lon="10.727513462229998"><ele>67.0</ele><time>2026-05-01T14:51:06.999Z</time></trkpt><trkpt lat="45.53567930818179" lon="10.727512865865656"><ele>67.0</ele><time>2026-05-01T14:51:07.999Z</time></trkpt><trkpt lat="45.53554455403741" lon="10.727502576110588"><ele>67.0</ele><time>2026-05-01T14:51:08.999Z</time></trkpt><trkpt lat="45.53541132264812" lon="10.727497251939187"><ele>67.0</ele><time>2026-05-01T14:51:09.999Z</time></trkpt><trkpt lat="45.53525203120071" lon="10.727504564535556"><ele>67.0</ele><time>2026-05-01T14:51:10.999Z</time></trkpt><trkpt lat="45.5350837822379" lon="10.727487953258594"><ele>67.0</ele><time>2026-05-01T14:51:11.999Z</time></trkpt><trkpt lat="45.534908272319534" lon="10.727470325504564"><ele>67.0</ele><time>2026-05-01T14:51:12.999Z</time></trkpt><trkpt lat="45.5347220740357" lon="10.72744789070961"><ele>67.0</ele><time>2026-05-01T14:51:13.999Z</time></trkpt><trkpt lat="45.53454296336821" lon="10.727413017032612"><ele>67.0</ele><time>2026-05-01T14:51:14.999Z</time></trkpt><trkpt lat="45.534366927102525" lon="10.727373523716055"><ele>67.0</ele><time>2026-05-01T14:51:15.999Z</time></trkpt><trkpt lat="45.53419813375413" lon="10.727320008669912"><ele>67.0</ele><time>2026-05-01T14:51:16.999Z</time></trkpt><trkpt lat="45.534031393367584" lon="10.727265010879435"><ele>67.0</ele><time>2026-05-01T14:51:17.999Z</time></trkpt><trkpt lat="45.533863422053805" lon="10.727210805636206"><ele>67.0</ele><time>2026-05-01T14:51:18.999Z</time></trkpt><trkpt lat="45.533703406080264" lon="10.727154881910852"><ele>68.0</ele><time>2026-05-01T14:51:19.999Z</time></trkpt><trkpt lat="45.53353733427437" lon="10.72710223325911"><ele>69.0</ele><time>2026-05-01T14:51:20.999Z</time></trkpt><trkpt lat="45.5333757158801" lon="10.727043761836834"><ele>70.0</ele><time>2026-05-01T14:51:21.999Z</time></trkpt><trkpt lat="45.533218821590886" lon="10.72698283510986"><ele>70.0</ele><time>2026-05-01T14:51:22.999Z</time></trkpt><trkpt lat="45.53306442663341" lon="10.726926465195797"><ele>70.0</ele><time>2026-05-01T14:51:23.999Z</time></trkpt><trkpt lat="45.53291624225973" lon="10.726877912868598"><ele>70.0</ele><time>2026-05-01T14:51:24.999Z</time></trkpt><trkpt lat="45.53277322689112" lon="10.726833522668683"><ele>68.75</ele><time>2026-05-01T14:51:25.999Z</time></trkpt><trkpt lat="45.5326428135838" lon="10.726792061234473"><ele>67.5</ele><time>2026-05-01T14:51:26.999Z</time></trkpt><trkpt lat="45.53251915593514" lon="10.726754222618009"><ele>66.25</ele><time>2026-05-01T14:51:27.999Z</time></trkpt><trkpt lat="45.53240298224792" lon="10.726712922903829"><ele>65.0</ele><time>2026-05-01T14:51:28.999Z</time></trkpt><trkpt lat="45.53228188183891" lon="10.72669299578424"><ele>65.0</ele><time>2026-05-01T14:51:29.999Z</time></trkpt><trkpt lat="45.53214396024871" lon="10.726658492557748"><ele>65.0</ele><time>2026-05-01T14:51:30.999Z</time></trkpt><trkpt lat="45.53200389662991" lon="10.726623734105598"><ele>65.0</ele><time>2026-05-01T14:51:31.999Z</time></trkpt><trkpt lat="45.53188091886362" lon="10.726595051188752"><ele>65.0</ele><time>2026-05-01T14:51:33Z</time></trkpt><trkpt lat="45.53177217500698" lon="10.726562805709081"><ele>65.6</ele><time>2026-05-01T14:51:34Z</time></trkpt><trkpt lat="45.53166476827179" lon="10.726540644500387"><ele>66.2</ele><time>2026-05-01T14:51:35Z</time></trkpt><trkpt lat="45.531564191595734" lon="10.72652150642938"><ele>66.8</ele><time>2026-05-01T14:51:36Z</time></trkpt><trkpt lat="45.531460303920554" lon="10.7264994436213"><ele>67.4</ele><time>2026-05-01T14:51:37Z</time></trkpt><trkpt lat="45.531359340268075" lon="10.726479823994717"><ele>68.0</ele><time>2026-05-01T14:51:38Z</time></trkpt><trkpt lat="45.53127629724697" lon="10.726467826701837"><ele>68.16666666666667</ele><time>2026-05-01T14:51:39Z</time></trkpt><trkpt lat="45.531200155060425" lon="10.726458291274547"><ele>68.33333333333334</ele><time>2026-05-01T14:51:40Z</time></trkpt><trkpt lat="45.531118557767236" lon="10.726442145225347"><ele>68.5</ele><time>2026-05-01T14:51:41Z</time></trkpt><trkpt lat="45.53104004204654" lon="10.726441915064614"><ele>68.66666666666667</ele><time>2026-05-01T14:51:43Z</time></trkpt><trkpt lat="45.53095542851396" lon="10.726420729898168"><ele>68.83333333333333</ele><time>2026-05-01T14:51:47Z</time></trkpt><trkpt lat="45.53083773080798" lon="10.726408458101483"><ele>69.0</ele><time>2026-05-01T14:51:49Z</time></trkpt><trkpt lat="45.5307468903117" lon="10.726401517518168"><ele>69.0</ele><time>2026-05-01T14:51:50Z</time></trkpt><trkpt lat="45.53064003969326" lon="10.726417446540712"><ele>69.0</ele><time>2026-05-01T14:51:51Z</time></trkpt><trkpt lat="45.53053626733873" lon="10.726411351595578"><ele>69.0</ele><time>2026-05-01T14:51:52Z</time></trkpt><trkpt lat="45.53042488068778" lon="10.726410212999193"><ele>69.0</ele><time>2026-05-01T14:51:53Z</time></trkpt><trkpt lat="45.53030482951713" lon="10.726437742341558"><ele>69.0</ele><time>2026-05-01T14:51:54Z</time></trkpt><trkpt lat="45.530201857571306" lon="10.726468346657217"><ele>69.0</ele><time>2026-05-01T14:51:55Z</time></trkpt><trkpt lat="45.530108082072886" lon="10.726496847585166"><ele>69.0</ele><time>2026-05-01T14:51:56Z</time></trkpt><trkpt lat="45.53001830883096" lon="10.726521018237538"><ele>69.0</ele><time>2026-05-01T14:51:57Z</time></trkpt><trkpt lat="45.52993548855318" lon="10.726553683458281"><ele>69.0</ele><time>2026-05-01T14:51:58Z</time></trkpt><trkpt lat="45.5298618013812" lon="10.726577400909784"><ele>69.0</ele><time>2026-05-01T14:51:59Z</time></trkpt><trkpt lat="45.5297968619597" lon="10.726611247691626"><ele>69.0</ele><time>2026-05-01T14:52:00Z</time></trkpt><trkpt lat="45.52973929673582" lon="10.726647926374635"><ele>69.0</ele><time>2026-05-01T14:52:01Z</time></trkpt><trkpt lat="45.52962665170103" lon="10.72671814455687"><ele>69.0</ele><time>2026-05-01T14:52:03Z</time></trkpt><trkpt lat="45.529558679343296" lon="10.726757401069495"><ele>69.0</ele><time>2026-05-01T14:52:04Z</time></trkpt><trkpt lat="45.52948564521939" lon="10.726797535696283"><ele>69.0</ele><time>2026-05-01T14:52:05Z</time></trkpt><trkpt lat="45.52941493383482" lon="10.726840355845468"><ele>69.0</ele><time>2026-05-01T14:52:06Z</time></trkpt><trkpt lat="45.52934689838667" lon="10.726878567291186"><ele>69.0</ele><time>2026-05-01T14:52:07Z</time></trkpt><trkpt lat="45.52928571231082" lon="10.726909658644615"><ele>69.75</ele><time>2026-05-01T14:52:08Z</time></trkpt><trkpt lat="45.529177457019735" lon="10.726969016329113"><ele>70.5</ele><time>2026-05-01T14:52:10Z</time></trkpt><trkpt lat="45.529068315839" lon="10.727027887999837"><ele>71.25</ele><time>2026-05-01T14:52:12Z</time></trkpt><trkpt lat="45.52894330622481" lon="10.727101843295392"><ele>72.0</ele><time>2026-05-01T14:52:14Z</time></trkpt><trkpt lat="45.528860600234644" lon="10.727152200325177"><ele>72.0</ele><time>2026-05-01T14:52:15Z</time></trkpt><trkpt lat="45.528779011068956" lon="10.727198659411552"><ele>72.0</ele><time>2026-05-01T14:52:16Z</time></trkpt><trkpt lat="45.52868216147959" lon="10.7272445234342"><ele>72.0</ele><time>2026-05-01T14:52:17Z</time></trkpt><trkpt lat="45.52857544090333" lon="10.727280509193797"><ele>72.0</ele><time>2026-05-01T14:52:18Z</time></trkpt><trkpt lat="45.52845924164516" lon="10.727317768985477"><ele>72.0</ele><time>2026-05-01T14:52:19Z</time></trkpt><trkpt lat="45.52833798734656" lon="10.727347456274174"><ele>71.8</ele><time>2026-05-01T14:52:20Z</time></trkpt><trkpt lat="45.528221599209665" lon="10.727377295365171"><ele>71.6</ele><time>2026-05-01T14:52:21Z</time></trkpt><trkpt lat="45.528110178060096" lon="10.727407535533345"><ele>71.39999999999999</ele><time>2026-05-01T14:52:22Z</time></trkpt><trkpt lat="45.5280095848273" lon="10.72742190181698"><ele>71.2</ele><time>2026-05-01T14:52:23Z</time></trkpt><trkpt lat="45.52789902313019" lon="10.72744938013527"><ele>71.0</ele><time>2026-05-01T14:52:24Z</time></trkpt><trkpt lat="45.527787100798875" lon="10.727484173637135"><ele>70.8</ele><time>2026-05-01T14:52:25Z</time></trkpt><trkpt lat="45.52767874303462" lon="10.727520307910313"><ele>70.6</ele><time>2026-05-01T14:52:26Z</time></trkpt><trkpt lat="45.52756579731711" lon="10.727556328152763"><ele>70.4</ele><time>2026-05-01T14:52:27Z</time></trkpt><trkpt lat="45.52746151624593" lon="10.727594872391206"><ele>70.2</ele><time>2026-05-01T14:52:28Z</time></trkpt><trkpt lat="45.527354947091716" lon="10.727636797512853"><ele>70.0</ele><time>2026-05-01T14:52:29Z</time></trkpt><trkpt lat="45.52724832838822" lon="10.727684606709914"><ele>70.5</ele><time>2026-05-01T14:52:30Z</time></trkpt><trkpt lat="45.52713605612279" lon="10.727736262702287"><ele>71.0</ele><time>2026-05-01T14:52:31Z</time></trkpt><trkpt lat="45.527022974030835" lon="10.727790046805419"><ele>71.5</ele><time>2026-05-01T14:52:32Z</time></trkpt><trkpt lat="45.52691030662223" lon="10.727852072434679"><ele>72.0</ele><time>2026-05-01T14:52:33Z</time></trkpt><trkpt lat="45.52680377513456" lon="10.727915158913037"><ele>72.5</ele><time>2026-05-01T14:52:34Z</time></trkpt><trkpt lat="45.52670591127457" lon="10.727969049462907"><ele>73.0</ele><time>2026-05-01T14:52:35Z</time></trkpt><trkpt lat="45.52661748905794" lon="10.728020759838087"><ele>73.5</ele><time>2026-05-01T14:52:36Z</time></trkpt><trkpt lat="45.52654156002061" lon="10.728061078340176"><ele>74.0</ele><time>2026-05-01T14:52:37.001Z</time></trkpt><trkpt lat="45.52647174741254" lon="10.72810188790106"><ele>74.5</ele><time>2026-05-01T14:52:38.001Z</time></trkpt><trkpt lat="45.5264085775349" lon="10.728145781467035"><ele>75.0</ele><time>2026-05-01T14:52:39.001Z</time></trkpt><trkpt lat="45.52634475208597" lon="10.728186166043052"><ele>75.0</ele><time>2026-05-01T14:52:40.001Z</time></trkpt><trkpt lat="45.52627254098438" lon="10.728231722532742"><ele>75.0</ele><time>2026-05-01T14:52:41.001Z</time></trkpt><trkpt lat="45.52619530470723" lon="10.728280472172612"><ele>75.0</ele><time>2026-05-01T14:52:42.001Z</time></trkpt><trkpt lat="45.526114393062244" lon="10.728332767235209"><ele>75.0</ele><time>2026-05-01T14:52:43.001Z</time></trkpt><trkpt lat="45.52604254724564" lon="10.72837980702964"><ele>75.0</ele><time>2026-05-01T14:52:44.001Z</time></trkpt><trkpt lat="45.52598173774011" lon="10.728422905956394"><ele>75.0</ele><time>2026-05-01T14:52:45.001Z</time></trkpt><trkpt lat="45.52592352884908" lon="10.728466325449538"><ele>75.2</ele><time>2026-05-01T14:52:46.001Z</time></trkpt><trkpt lat="45.5258637365803" lon="10.72850087885681"><ele>75.4</ele><time>2026-05-01T14:52:47.001Z</time></trkpt><trkpt lat="45.52576342920407" lon="10.72856136667719"><ele>75.6</ele><time>2026-05-01T14:52:49.001Z</time></trkpt><trkpt lat="45.52570113273418" lon="10.728606393962146"><ele>75.8</ele><time>2026-05-01T14:52:51.001Z</time></trkpt><trkpt lat="45.52561071037747" lon="10.728639184789511"><ele>76.0</ele><time>2026-05-01T14:52:57.001Z</time></trkpt><trkpt lat="45.525492247771226" lon="10.728699350163796"><ele>76.5</ele><time>2026-05-01T14:52:59.001Z</time></trkpt><trkpt lat="45.52542774585555" lon="10.728761492717101"><ele>77.0</ele><time>2026-05-01T14:53:00.001Z</time></trkpt><trkpt lat="45.5253550050065" lon="10.72878933554673"><ele>77.5</ele><time>2026-05-01T14:53:01.001Z</time></trkpt><trkpt lat="45.52523594268281" lon="10.728827981212486"><ele>78.0</ele><time>2026-05-01T14:53:03.001Z</time></trkpt><trkpt lat="45.52517154094742" lon="10.72882906389158"><ele>78.5</ele><time>2026-05-01T14:53:04.001Z</time></trkpt><trkpt lat="45.525071702442894" lon="10.72886502315929"><ele>79.0</ele><time>2026-05-01T14:53:06.001Z</time></trkpt><trkpt lat="45.525059774318194" lon="10.729009368133326"><ele>79.2</ele><time>2026-05-01T14:53:07.998Z</time></trkpt><trkpt lat="45.525089641951766" lon="10.729109937487085"><ele>79.4</ele><time>2026-05-01T14:53:08.998Z</time></trkpt><trkpt lat="45.525100657808174" lon="10.729234028911982"><ele>79.6</ele><time>2026-05-01T14:53:09.998Z</time></trkpt><trkpt lat="45.52509486671642" lon="10.729392227812808"><ele>79.8</ele><time>2026-05-01T14:53:10.998Z</time></trkpt><trkpt lat="45.525091967822526" lon="10.729568806060724"><ele>80.0</ele><time>2026-05-01T14:53:11.998Z</time></trkpt><trkpt lat="45.525091783608985" lon="10.729748346106438"><ele>81.0</ele><time>2026-05-01T14:53:12.998Z</time></trkpt><trkpt lat="45.52509688132067" lon="10.729937921213489"><ele>82.0</ele><time>2026-05-01T14:53:13.998Z</time></trkpt><trkpt lat="45.52510051128483" lon="10.730145245267575"><ele>83.0</ele><time>2026-05-01T14:53:14.999Z</time></trkpt><trkpt lat="45.525100737115224" lon="10.730368609514839"><ele>84.0</ele><time>2026-05-01T14:53:15.999Z</time></trkpt><trkpt lat="45.525106555872775" lon="10.730596128676588"><ele>85.5</ele><time>2026-05-01T14:53:16.999Z</time></trkpt><trkpt lat="45.525128455836594" lon="10.730803665049516"><ele>87.0</ele><time>2026-05-01T14:53:17.999Z</time></trkpt><trkpt lat="45.525165665127936" lon="10.731005180569158"><ele>88.5</ele><time>2026-05-01T14:53:18.999Z</time></trkpt><trkpt lat="45.52522517872116" lon="10.731194074323785"><ele>90.0</ele><time>2026-05-01T14:53:19.999Z</time></trkpt><trkpt lat="45.52530520326671" lon="10.731378333514325"><ele>90.33333333333333</ele><time>2026-05-01T14:53:20.999Z</time></trkpt><trkpt lat="45.525407949868075" lon="10.73156222410165"><ele>90.66666666666666</ele><time>2026-05-01T14:53:21.999Z</time></trkpt><trkpt lat="45.52550176251781" lon="10.731772549400713"><ele>91.0</ele><time>2026-05-01T14:53:22.999Z</time></trkpt><trkpt lat="45.52560254295302" lon="10.731975391897567"><ele>93.33333333333333</ele><time>2026-05-01T14:53:23.999Z</time></trkpt><trkpt lat="45.52570062162326" lon="10.732172851729766"><ele>95.66666666666666</ele><time>2026-05-01T14:53:24.999Z</time></trkpt><trkpt lat="45.52578695572654" lon="10.732365904636918"><ele>98.0</ele><time>2026-05-01T14:53:25.999Z</time></trkpt><trkpt lat="45.52586301231351" lon="10.732557088363153"><ele>102.0</ele><time>2026-05-01T14:53:26.999Z</time></trkpt><trkpt lat="45.52592260504852" lon="10.732761514493442"><ele>106.0</ele><time>2026-05-01T14:53:27.999Z</time></trkpt><trkpt lat="45.5259675899908" lon="10.732991100665107"><ele>110.0</ele><time>2026-05-01T14:53:28.999Z</time></trkpt><trkpt lat="45.52600766170351" lon="10.733240710664854"><ele>110.0</ele><time>2026-05-01T14:53:29.999Z</time></trkpt><trkpt lat="45.526047028199955" lon="10.733479118370001"><ele>110.0</ele><time>2026-05-01T14:53:30.999Z</time></trkpt><trkpt lat="45.526087097700355" lon="10.73371047511462"><ele>110.0</ele><time>2026-05-01T14:53:31.999Z</time></trkpt><trkpt lat="45.52612749727723" lon="10.733931697618994"><ele>111.0</ele><time>2026-05-01T14:53:32.999Z</time></trkpt><trkpt lat="45.526170042691376" lon="10.734143617140509"><ele>112.0</ele><time>2026-05-01T14:53:33.999Z</time></trkpt><trkpt lat="45.52623506825345" lon="10.7343302222005"><ele>113.0</ele><time>2026-05-01T14:53:34.999Z</time></trkpt><trkpt lat="45.526300908686125" lon="10.7345160194185"><ele>114.0</ele><time>2026-05-01T14:53:35.999Z</time></trkpt><trkpt lat="45.526364490838525" lon="10.734691656894146"><ele>114.6</ele><time>2026-05-01T14:53:36.999Z</time></trkpt><trkpt lat="45.52641402467199" lon="10.734828487672555"><ele>115.2</ele><time>2026-05-01T14:53:37.999Z</time></trkpt><trkpt lat="45.52645413560128" lon="10.73495246392913"><ele>115.79999999999998</ele><time>2026-05-01T14:53:38.999Z</time></trkpt><trkpt lat="45.526495855374186" lon="10.735073865355227"><ele>116.39999999999999</ele><time>2026-05-01T14:53:39.999Z</time></trkpt><trkpt lat="45.5264776630915" lon="10.735210621360656"><ele>117.0</ele><time>2026-05-01T14:53:41Z</time></trkpt><trkpt lat="45.526448822556254" lon="10.735327793956964"><ele>117.0</ele><time>2026-05-01T14:53:42Z</time></trkpt><trkpt lat="45.52640471159366" lon="10.735453048552055"><ele>117.0</ele><time>2026-05-01T14:53:43Z</time></trkpt><trkpt lat="45.52635913870903" lon="10.735581299574378"><ele>117.0</ele><time>2026-05-01T14:53:44Z</time></trkpt><trkpt lat="45.52630282704462" lon="10.735737063704203"><ele>117.0</ele><time>2026-05-01T14:53:45Z</time></trkpt><trkpt lat="45.5262387277764" lon="10.735912570248683"><ele>117.0</ele><time>2026-05-01T14:53:46Z</time></trkpt><trkpt lat="45.52618259974401" lon="10.736067320254461"><ele>117.0</ele><time>2026-05-01T14:53:47Z</time></trkpt><trkpt lat="45.52613273933871" lon="10.736207236585"><ele>117.0</ele><time>2026-05-01T14:53:48Z</time></trkpt><trkpt lat="45.526091900157326" lon="10.736363420270775"><ele>117.0</ele><time>2026-05-01T14:53:49Z</time></trkpt><trkpt lat="45.526033832126025" lon="10.736512612585802"><ele>117.0</ele><time>2026-05-01T14:53:50Z</time></trkpt><trkpt lat="45.52596867764811" lon="10.73666674337477"><ele>117.0</ele><time>2026-05-01T14:53:51Z</time></trkpt><trkpt lat="45.52590524634277" lon="10.736813465997258"><ele>117.0</ele><time>2026-05-01T14:53:52Z</time></trkpt><trkpt lat="45.52582096228941" lon="10.736944753206338"><ele>117.0</ele><time>2026-05-01T14:53:53Z</time></trkpt><trkpt lat="45.52574579881814" lon="10.737089749932393"><ele>116.0</ele><time>2026-05-01T14:53:54Z</time></trkpt><trkpt lat="45.525678925980124" lon="10.737241982680727"><ele>115.0</ele><time>2026-05-01T14:53:55Z</time></trkpt><trkpt lat="45.52560212363441" lon="10.737379086226166"><ele>114.0</ele><time>2026-05-01T14:53:56Z</time></trkpt><trkpt lat="45.52550646416432" lon="10.737492012700725"><ele>113.0</ele><time>2026-05-01T14:53:57Z</time></trkpt><trkpt lat="45.52541700521128" lon="10.737604089547435"><ele>113.25</ele><time>2026-05-01T14:53:58Z</time></trkpt><trkpt lat="45.525320880733425" lon="10.737716101058407"><ele>113.5</ele><time>2026-05-01T14:53:59Z</time></trkpt><trkpt lat="45.52522141636019" lon="10.737808903313736"><ele>113.75</ele><time>2026-05-01T14:54:00Z</time></trkpt><trkpt lat="45.52512077505263" lon="10.73790747639395"><ele>114.0</ele><time>2026-05-01T14:54:01Z</time></trkpt><trkpt lat="45.525022833932695" lon="10.738004912354432"><ele>112.5</ele><time>2026-05-01T14:54:02Z</time></trkpt><trkpt lat="45.52492500600866" lon="10.738111718438523"><ele>111.0</ele><time>2026-05-01T14:54:03Z</time></trkpt><trkpt lat="45.52484217114907" lon="10.738232306805145"><ele>109.5</ele><time>2026-05-01T14:54:04Z</time></trkpt><trkpt lat="45.52476054965533" lon="10.738335426484676"><ele>108.0</ele><time>2026-05-01T14:54:05Z</time></trkpt><trkpt lat="45.52468627685301" lon="10.73844785118913"><ele>107.60000000000001</ele><time>2026-05-01T14:54:06Z</time></trkpt><trkpt lat="45.524622334321755" lon="10.738558296452394"><ele>107.20000000000002</ele><time>2026-05-01T14:54:07Z</time></trkpt><trkpt lat="45.52455427893208" lon="10.738664271593558"><ele>106.8</ele><time>2026-05-01T14:54:08Z</time></trkpt><trkpt lat="45.52450425029708" lon="10.738777381615002"><ele>106.4</ele><time>2026-05-01T14:54:09Z</time></trkpt><trkpt lat="45.52445492236791" lon="10.738885081561195"><ele>106.0</ele><time>2026-05-01T14:54:10Z</time></trkpt><trkpt lat="45.5244036801957" lon="10.739003329601195"><ele>106.0</ele><time>2026-05-01T14:54:11Z</time></trkpt><trkpt lat="45.52434221457639" lon="10.739145906713796"><ele>106.0</ele><time>2026-05-01T14:54:12Z</time></trkpt><trkpt lat="45.52427015545565" lon="10.739305687917401"><ele>106.0</ele><time>2026-05-01T14:54:13Z</time></trkpt><trkpt lat="45.524194906883245" lon="10.73947846553575"><ele>106.0</ele><time>2026-05-01T14:54:14Z</time></trkpt><trkpt lat="45.52411654729365" lon="10.739652902692225"><ele>106.33333333333334</ele><time>2026-05-01T14:54:15Z</time></trkpt><trkpt lat="45.524023965575275" lon="10.739850885152704"><ele>106.66666666666666</ele><time>2026-05-01T14:54:16Z</time></trkpt><trkpt lat="45.523931624478735" lon="10.740041536417905"><ele>107.0</ele><time>2026-05-01T14:54:17Z</time></trkpt><trkpt lat="45.523838260806656" lon="10.740237460179081"><ele>108.33333333333333</ele><time>2026-05-01T14:54:18Z</time></trkpt><trkpt lat="45.523757535697236" lon="10.74043321574983"><ele>109.66666666666666</ele><time>2026-05-01T14:54:19Z</time></trkpt><trkpt lat="45.5236951627427" lon="10.740639009399427"><ele>111.0</ele><time>2026-05-01T14:54:20Z</time></trkpt><trkpt lat="45.52365645223787" lon="10.740861548498758"><ele>113.0</ele><time>2026-05-01T14:54:21Z</time></trkpt><trkpt lat="45.52363909061667" lon="10.741085071112435"><ele>115.0</ele><time>2026-05-01T14:54:22Z</time></trkpt><trkpt lat="45.52361934184993" lon="10.741298116239488"><ele>117.0</ele><time>2026-05-01T14:54:23Z</time></trkpt><trkpt lat="45.523604644340665" lon="10.74151537283084"><ele>117.0</ele><time>2026-05-01T14:54:24Z</time></trkpt><trkpt lat="45.52359178798873" lon="10.741725683059315"><ele>117.0</ele><time>2026-05-01T14:54:25Z</time></trkpt><trkpt lat="45.52358345689009" lon="10.741933132208716"><ele>117.0</ele><time>2026-05-01T14:54:26Z</time></trkpt><trkpt lat="45.523581810132924" lon="10.742132531285826"><ele>117.0</ele><time>2026-05-01T14:54:27Z</time></trkpt><trkpt lat="45.52357918384647" lon="10.74233203088846"><ele>118.25</ele><time>2026-05-01T14:54:28Z</time></trkpt><trkpt lat="45.52357427724989" lon="10.742531672724695"><ele>119.5</ele><time>2026-05-01T14:54:29Z</time></trkpt><trkpt lat="45.52357240623821" lon="10.742727398840787"><ele>120.75</ele><time>2026-05-01T14:54:30.001Z</time></trkpt><trkpt lat="45.52356815064339" lon="10.74291696086022"><ele>122.0</ele><time>2026-05-01T14:54:31.001Z</time></trkpt><trkpt lat="45.523566016791285" lon="10.74309670790262"><ele>123.0</ele><time>2026-05-01T14:54:32.001Z</time></trkpt><trkpt lat="45.523562248017136" lon="10.743268136898699"><ele>124.0</ele><time>2026-05-01T14:54:33.001Z</time></trkpt><trkpt lat="45.5235525317176" lon="10.743440256342856"><ele>125.0</ele><time>2026-05-01T14:54:34.001Z</time></trkpt><trkpt lat="45.52354555076389" lon="10.743609438095282"><ele>126.0</ele><time>2026-05-01T14:54:35.001Z</time></trkpt><trkpt lat="45.5235299506986" lon="10.743788244827405"><ele>126.5</ele><time>2026-05-01T14:54:36.001Z</time></trkpt><trkpt lat="45.52350908330829" lon="10.743971005891444"><ele>127.0</ele><time>2026-05-01T14:54:37.001Z</time></trkpt><trkpt lat="45.52348407021865" lon="10.744162745544278"><ele>127.5</ele><time>2026-05-01T14:54:38.001Z</time></trkpt><trkpt lat="45.52346163847264" lon="10.744336463920453"><ele>128.0</ele><time>2026-05-01T14:54:39.001Z</time></trkpt><trkpt lat="45.523440237292135" lon="10.74450671600295"><ele>128.5</ele><time>2026-05-01T14:54:40.001Z</time></trkpt><trkpt lat="45.52341590218641" lon="10.744679402808245"><ele>129.0</ele><time>2026-05-01T14:54:41.001Z</time></trkpt><trkpt lat="45.52338508620129" lon="10.744850150882266"><ele>129.5</ele><time>2026-05-01T14:54:42.001Z</time></trkpt><trkpt lat="45.5233532666386" lon="10.745023737559407"><ele>130.0</ele><time>2026-05-01T14:54:43.001Z</time></trkpt><trkpt lat="45.523322725922654" lon="10.745197533562434"><ele>130.25</ele><time>2026-05-01T14:54:44.001Z</time></trkpt><trkpt lat="45.52329266643171" lon="10.745354660928717"><ele>130.5</ele><time>2026-05-01T14:54:45.001Z</time></trkpt><trkpt lat="45.52326646737489" lon="10.745523576166162"><ele>130.75</ele><time>2026-05-01T14:54:46.001Z</time></trkpt><trkpt lat="45.5232361016192" lon="10.745694911083893"><ele>131.0</ele><time>2026-05-01T14:54:47.001Z</time></trkpt><trkpt lat="45.52320868061139" lon="10.745862661163708"><ele>131.0</ele><time>2026-05-01T14:54:48.001Z</time></trkpt><trkpt lat="45.52318205426122" lon="10.7460154589758"><ele>131.0</ele><time>2026-05-01T14:54:49.001Z</time></trkpt><trkpt lat="45.523159706778195" lon="10.746161582123962"><ele>131.0</ele><time>2026-05-01T14:54:50.001Z</time></trkpt><trkpt lat="45.523130941021414" lon="10.74631823833658"><ele>131.0</ele><time>2026-05-01T14:54:51.001Z</time></trkpt><trkpt lat="45.523091539834354" lon="10.74647237791797"><ele>131.0</ele><time>2026-05-01T14:54:52.001Z</time></trkpt><trkpt lat="45.52301515307004" lon="10.746603347826174"><ele>131.25</ele><time>2026-05-01T14:54:53.001Z</time></trkpt><trkpt lat="45.522935049593094" lon="10.746728220494406"><ele>131.5</ele><time>2026-05-01T14:54:54.001Z</time></trkpt><trkpt lat="45.522843910397995" lon="10.746856999985829"><ele>131.75</ele><time>2026-05-01T14:54:55.001Z</time></trkpt><trkpt lat="45.52276145014504" lon="10.747005046944922"><ele>132.0</ele><time>2026-05-01T14:54:56.001Z</time></trkpt><trkpt lat="45.52266401366673" lon="10.74712662493989"><ele>132.4</ele><time>2026-05-01T14:54:57.001Z</time></trkpt><trkpt lat="45.52258044230015" lon="10.7472469579054"><ele>132.79999999999998</ele><time>2026-05-01T14:54:58.001Z</time></trkpt><trkpt lat="45.5225005746483" lon="10.747363922882684"><ele>133.2</ele><time>2026-05-01T14:54:59.001Z</time></trkpt><trkpt lat="45.52242843841881" lon="10.747463115834215"><ele>133.6</ele><time>2026-05-01T14:55:00.001Z</time></trkpt><trkpt lat="45.5223644616845" lon="10.747557836619498"><ele>134.0</ele><time>2026-05-01T14:55:01.001Z</time></trkpt><trkpt lat="45.52230344612651" lon="10.747637834760152"><ele>134.0</ele><time>2026-05-01T14:55:02.001Z</time></trkpt><trkpt lat="45.522256162066135" lon="10.747704061689364"><ele>134.0</ele><time>2026-05-01T14:55:03.001Z</time></trkpt><trkpt lat="45.52220219426835" lon="10.74777558361501"><ele>134.0</ele><time>2026-05-01T14:55:05.001Z</time></trkpt><trkpt lat="45.52214348721692" lon="10.747842088282171"><ele>134.0</ele><time>2026-05-01T14:55:08.001Z</time></trkpt><trkpt lat="45.52206195165284" lon="10.74792481420848"><ele>134.0</ele><time>2026-05-01T14:55:11.001Z</time></trkpt><trkpt lat="45.521982401269476" lon="10.747993718432351"><ele>134.0</ele><time>2026-05-01T14:55:12.999Z</time></trkpt><trkpt lat="45.52195375500096" lon="10.748140758440357"><ele>134.66666666666666</ele><time>2026-05-01T14:55:14.999Z</time></trkpt><trkpt lat="45.52198944761955" lon="10.748227146606581"><ele>135.33333333333331</ele><time>2026-05-01T14:55:15.999Z</time></trkpt><trkpt lat="45.52200028895756" lon="10.748401639454826"><ele>136.0</ele><time>2026-05-01T14:55:17.999Z</time></trkpt><trkpt lat="45.521992469958626" lon="10.74851193549204"><ele>136.66666666666666</ele><time>2026-05-01T14:55:18.999Z</time></trkpt><trkpt lat="45.521981669178146" lon="10.74863081060247"><ele>137.33333333333334</ele><time>2026-05-01T14:55:19.999Z</time></trkpt><trkpt lat="45.521969424451086" lon="10.74875711148852"><ele>138.0</ele><time>2026-05-01T14:55:20.999Z</time></trkpt><trkpt lat="45.521953046681176" lon="10.74889278336713"><ele>138.0</ele><time>2026-05-01T14:55:21.999Z</time></trkpt><trkpt lat="45.52193394221066" lon="10.749032490288368"><ele>138.0</ele><time>2026-05-01T14:55:22.999Z</time></trkpt><trkpt lat="45.521909515944074" lon="10.749169764109675"><ele>138.0</ele><time>2026-05-01T14:55:23.999Z</time></trkpt><trkpt lat="45.521888160143305" lon="10.749307540905841"><ele>138.0</ele><time>2026-05-01T14:55:24.999Z</time></trkpt><trkpt lat="45.52187196842593" lon="10.749446213116917"><ele>138.0</ele><time>2026-05-01T14:55:25.999Z</time></trkpt><trkpt lat="45.521853573512345" lon="10.749584160828217"><ele>138.20000000000002</ele><time>2026-05-01T14:55:26.999Z</time></trkpt><trkpt lat="45.52183372641048" lon="10.749717345948678"><ele>138.4</ele><time>2026-05-01T14:55:27.999Z</time></trkpt><trkpt lat="45.52182237965288" lon="10.749847549677584"><ele>138.60000000000002</ele><time>2026-05-01T14:55:28.999Z</time></trkpt><trkpt lat="45.52181841910867" lon="10.74997311816989"><ele>138.8</ele><time>2026-05-01T14:55:29.999Z</time></trkpt><trkpt lat="45.52182801001996" lon="10.750100672569475"><ele>139.0</ele><time>2026-05-01T14:55:30.999Z</time></trkpt><trkpt lat="45.52184494589564" lon="10.75023780916383"><ele>140.33333333333334</ele><time>2026-05-01T14:55:32Z</time></trkpt><trkpt lat="45.521862497520665" lon="10.750368124269285"><ele>141.66666666666669</ele><time>2026-05-01T14:55:33Z</time></trkpt><trkpt lat="45.52188226657416" lon="10.750498905495984"><ele>143.0</ele><time>2026-05-01T14:55:34Z</time></trkpt><trkpt lat="45.52187614990933" lon="10.75063635879717"><ele>144.33333333333334</ele><time>2026-05-01T14:55:35Z</time></trkpt><trkpt lat="45.52187302633727" lon="10.750763469164992"><ele>145.66666666666666</ele><time>2026-05-01T14:55:36Z</time></trkpt><trkpt lat="45.52186124473653" lon="10.750858927433743"><ele>147.0</ele><time>2026-05-01T14:55:37Z</time></trkpt><trkpt lat="45.52181898328338" lon="10.751028484439876"><ele>148.33333333333334</ele><time>2026-05-01T14:55:39Z</time></trkpt><trkpt lat="45.521805305058535" lon="10.75112673808913"><ele>149.66666666666666</ele><time>2026-05-01T14:55:40Z</time></trkpt><trkpt lat="45.52172925302943" lon="10.751266312898458"><ele>151.0</ele><time>2026-05-01T14:55:42Z</time></trkpt><trkpt lat="45.521692730740604" lon="10.751346793838303"><ele>152.33333333333331</ele><time>2026-05-01T14:55:43Z</time></trkpt><trkpt lat="45.52165382552813" lon="10.75144182305869"><ele>153.66666666666666</ele><time>2026-05-01T14:55:44Z</time></trkpt><trkpt lat="45.52161527018451" lon="10.751543734590475"><ele>155.0</ele><time>2026-05-01T14:55:45Z</time></trkpt><trkpt lat="45.521587653262344" lon="10.751665724753387"><ele>155.0</ele><time>2026-05-01T14:55:46Z</time></trkpt><trkpt lat="45.521559545104765" lon="10.751784801760595"><ele>155.0</ele><time>2026-05-01T14:55:47Z</time></trkpt><trkpt lat="45.521553750255514" lon="10.751884354658351"><ele>155.0</ele><time>2026-05-01T14:55:48Z</time></trkpt><trkpt lat="45.521563099679035" lon="10.751976678591117"><ele>155.0</ele><time>2026-05-01T14:55:49Z</time></trkpt><trkpt lat="45.52159330890931" lon="10.752067261497102"><ele>155.0</ele><time>2026-05-01T14:55:50Z</time></trkpt><trkpt lat="45.52163307289392" lon="10.75215810767991"><ele>155.0</ele><time>2026-05-01T14:55:51Z</time></trkpt><trkpt lat="45.521665834303796" lon="10.752253066677232"><ele>155.0</ele><time>2026-05-01T14:55:52Z</time></trkpt><trkpt lat="45.521691546649556" lon="10.75233586458614"><ele>155.2</ele><time>2026-05-01T14:55:53Z</time></trkpt><trkpt lat="45.52174369303534" lon="10.752514608385212"><ele>155.4</ele><time>2026-05-01T14:55:55Z</time></trkpt><trkpt lat="45.521774037078565" lon="10.752622843292906"><ele>155.6</ele><time>2026-05-01T14:55:56Z</time></trkpt><trkpt lat="45.52180671781348" lon="10.752744425564964"><ele>155.8</ele><time>2026-05-01T14:55:57Z</time></trkpt><trkpt lat="45.52183496644052" lon="10.752866267913678"><ele>156.0</ele><time>2026-05-01T14:55:58Z</time></trkpt><trkpt lat="45.52186132461279" lon="10.75298378043524"><ele>156.0</ele><time>2026-05-01T14:55:59Z</time></trkpt><trkpt lat="45.52188952188409" lon="10.753096979015023"><ele>156.0</ele><time>2026-05-01T14:56:00Z</time></trkpt><trkpt lat="45.521918913573046" lon="10.753215218795868"><ele>156.0</ele><time>2026-05-01T14:56:01Z</time></trkpt><trkpt lat="45.52195159125622" lon="10.753332888928034"><ele>156.0</ele><time>2026-05-01T14:56:02Z</time></trkpt><trkpt lat="45.52199023169356" lon="10.75344178249232"><ele>156.0</ele><time>2026-05-01T14:56:03Z</time></trkpt><trkpt lat="45.52200572060969" lon="10.753569474711789"><ele>156.0</ele><time>2026-05-01T14:56:04Z</time></trkpt><trkpt lat="45.522037718800426" lon="10.753695117530983"><ele>155.0</ele><time>2026-05-01T14:56:05Z</time></trkpt><trkpt lat="45.522069074662255" lon="10.75381933498783"><ele>154.0</ele><time>2026-05-01T14:56:06Z</time></trkpt><trkpt lat="45.52209694934967" lon="10.753945069027463"><ele>153.0</ele><time>2026-05-01T14:56:07Z</time></trkpt><trkpt lat="45.52212079952401" lon="10.754052727831438"><ele>152.0</ele><time>2026-05-01T14:56:08.001Z</time></trkpt><trkpt lat="45.5221415239106" lon="10.75414046458416"><ele>151.0</ele><time>2026-05-01T14:56:09.001Z</time></trkpt><trkpt lat="45.52216548148489" lon="10.75425609860165"><ele>150.0</ele><time>2026-05-01T14:56:11.001Z</time></trkpt><trkpt lat="45.52219439405373" lon="10.754350253606965"><ele>149.66666666666666</ele><time>2026-05-01T14:56:24.001Z</time></trkpt><trkpt lat="45.522224614597015" lon="10.754429747363643"><ele>149.33333333333334</ele><time>2026-05-01T14:56:27.001Z</time></trkpt><trkpt lat="45.52224295420321" lon="10.754548568540196"><ele>149.0</ele><time>2026-05-01T14:56:37.001Z</time></trkpt><trkpt lat="45.522266006288184" lon="10.754646097278295"><ele>148.66666666666669</ele><time>2026-05-01T14:56:39.001Z</time></trkpt><trkpt lat="45.52229315682882" lon="10.754791529114765"><ele>148.33333333333334</ele><time>2026-05-01T14:56:42.001Z</time></trkpt><trkpt lat="45.522303136736326" lon="10.754880349667365"><ele>148.0</ele><time>2026-05-01T14:56:43.001Z</time></trkpt><trkpt lat="45.52229926870146" lon="10.754987486327286"><ele>148.0</ele><time>2026-05-01T14:56:44.001Z</time></trkpt><trkpt lat="45.52225351901708" lon="10.75506863937257"><ele>148.0</ele><time>2026-05-01T14:56:45.001Z</time></trkpt><trkpt lat="45.522238794093184" lon="10.755170219808162"><ele>148.0</ele><time>2026-05-01T14:56:46.001Z</time></trkpt><trkpt lat="45.52219245592306" lon="10.75527100665838"><ele>148.0</ele><time>2026-05-01T14:56:47.001Z</time></trkpt><trkpt lat="45.5221489678489" lon="10.755385626632934"><ele>148.0</ele><time>2026-05-01T14:56:48.001Z</time></trkpt><trkpt lat="45.52210222544735" lon="10.755512636683026"><ele>148.0</ele><time>2026-05-01T14:56:49.001Z</time></trkpt><trkpt lat="45.522051346768" lon="10.755639538459254"><ele>148.16666666666669</ele><time>2026-05-01T14:56:50.001Z</time></trkpt><trkpt lat="45.5220077147456" lon="10.755750630008956"><ele>148.33333333333334</ele><time>2026-05-01T14:56:51.001Z</time></trkpt><trkpt lat="45.521964639197655" lon="10.75585229180544"><ele>148.5</ele><time>2026-05-01T14:56:52.001Z</time></trkpt><trkpt lat="45.52192642142191" lon="10.755948932402495"><ele>148.66666666666666</ele><time>2026-05-01T14:56:53.001Z</time></trkpt><trkpt lat="45.521883447297895" lon="10.756046180235515"><ele>148.83333333333331</ele><time>2026-05-01T14:56:54.001Z</time></trkpt><trkpt lat="45.5218406804094" lon="10.756149883173174"><ele>149.0</ele><time>2026-05-01T14:56:55.001Z</time></trkpt><trkpt lat="45.52179075552054" lon="10.756244590911047"><ele>149.0</ele><time>2026-05-01T14:56:56.001Z</time></trkpt><trkpt lat="45.521719760969226" lon="10.756320264468311"><ele>149.0</ele><time>2026-05-01T14:56:57.002Z</time></trkpt><trkpt lat="45.5216503302105" lon="10.756425806465192"><ele>149.0</ele><time>2026-05-01T14:56:58.002Z</time></trkpt><trkpt lat="45.52156436792926" lon="10.756496334763552"><ele>149.0</ele><time>2026-05-01T14:56:59.002Z</time></trkpt><trkpt lat="45.52146180215165" lon="10.756548588087727"><ele>149.0</ele><time>2026-05-01T14:57:00.002Z</time></trkpt><trkpt lat="45.52137600920173" lon="10.75663540405778"><ele>149.0</ele><time>2026-05-01T14:57:01.002Z</time></trkpt><trkpt lat="45.52128964869693" lon="10.756687577175352"><ele>149.0</ele><time>2026-05-01T14:57:02.002Z</time></trkpt><trkpt lat="45.521207983447574" lon="10.75675011085658"><ele>149.0</ele><time>2026-05-01T14:57:03.002Z</time></trkpt><trkpt lat="45.52112259693055" lon="10.756808697611389"><ele>149.0</ele><time>2026-05-01T14:57:04.002Z</time></trkpt><trkpt lat="45.52105092344007" lon="10.756857616651832"><ele>149.0</ele><time>2026-05-01T14:57:05.002Z</time></trkpt><trkpt lat="45.520949431384" lon="10.756923134487398"><ele>148.0</ele><time>2026-05-01T14:57:07.002Z</time></trkpt><trkpt lat="45.520845515374646" lon="10.756997519930627"><ele>147.0</ele><time>2026-05-01T14:57:09.002Z</time></trkpt><trkpt lat="45.52076337482543" lon="10.757053836105099"><ele>146.0</ele><time>2026-05-01T14:57:11.002Z</time></trkpt><trkpt lat="45.520691147889714" lon="10.757107334585253"><ele>145.0</ele><time>2026-05-01T14:57:13.002Z</time></trkpt><trkpt lat="45.52056976430942" lon="10.757171048825072"><ele>144.0</ele><time>2026-05-01T14:57:15.002Z</time></trkpt><trkpt lat="45.5204814699529" lon="10.75723217928267"><ele>144.4</ele><time>2026-05-01T14:57:16.002Z</time></trkpt><trkpt lat="45.52038831937526" lon="10.757298519081447"><ele>144.8</ele><time>2026-05-01T14:57:17.002Z</time></trkpt><trkpt lat="45.52030549495506" lon="10.75738237491537"><ele>145.2</ele><time>2026-05-01T14:57:18.002Z</time></trkpt><trkpt lat="45.5202128430755" lon="10.757452072300383"><ele>145.6</ele><time>2026-05-01T14:57:19.001Z</time></trkpt><trkpt lat="45.520125435440534" lon="10.757531769979296"><ele>146.0</ele><time>2026-05-01T14:57:20.001Z</time></trkpt><trkpt lat="45.52001738244448" lon="10.757646611441055"><ele>146.0</ele><time>2026-05-01T14:57:21.001Z</time></trkpt><trkpt lat="45.51988500941334" lon="10.757770607216402"><ele>146.0</ele><time>2026-05-01T14:57:22.001Z</time></trkpt><trkpt lat="45.51975084180375" lon="10.757904135176481"><ele>146.0</ele><time>2026-05-01T14:57:23.001Z</time></trkpt><trkpt lat="45.519610539536615" lon="10.758075358530789"><ele>145.66666666666666</ele><time>2026-05-01T14:57:24.001Z</time></trkpt><trkpt lat="45.51942242700755" lon="10.758239636267268"><ele>145.33333333333334</ele><time>2026-05-01T14:57:25.001Z</time></trkpt><trkpt lat="45.51926461718584" lon="10.758408697193108"><ele>145.0</ele><time>2026-05-01T14:57:26.001Z</time></trkpt><trkpt lat="45.51913193476139" lon="10.758562933611927"><ele>145.66666666666669</ele><time>2026-05-01T14:57:27.001Z</time></trkpt><trkpt lat="45.51900824204199" lon="10.758693270262143"><ele>146.33333333333334</ele><time>2026-05-01T14:57:28.001Z</time></trkpt><trkpt lat="45.51889004975432" lon="10.758825998321662"><ele>147.0</ele><time>2026-05-01T14:57:29.001Z</time></trkpt><trkpt lat="45.51877101083541" lon="10.758965372745475"><ele>146.33333333333334</ele><time>2026-05-01T14:57:30.001Z</time></trkpt><trkpt lat="45.51866540359517" lon="10.75909785730118"><ele>145.66666666666669</ele><time>2026-05-01T14:57:31.001Z</time></trkpt><trkpt lat="45.5185760687568" lon="10.759252139236603"><ele>145.0</ele><time>2026-05-01T14:57:32.001Z</time></trkpt><trkpt lat="45.51847952966812" lon="10.759459809794896"><ele>146.66666666666669</ele><time>2026-05-01T14:57:33.001Z</time></trkpt><trkpt lat="45.51835678545908" lon="10.759707092813205"><ele>148.33333333333334</ele><time>2026-05-01T14:57:34.001Z</time></trkpt><trkpt lat="45.51823203848787" lon="10.759968112877306"><ele>150.0</ele><time>2026-05-01T14:57:35.001Z</time></trkpt><trkpt lat="45.51810818505005" lon="10.76025493271666"><ele>150.5</ele><time>2026-05-01T14:57:36.001Z</time></trkpt><trkpt lat="45.517968873497686" lon="10.760533769739627"><ele>151.0</ele><time>2026-05-01T14:57:37.001Z</time></trkpt><trkpt lat="45.51783217962751" lon="10.760832536182894"><ele>153.5</ele><time>2026-05-01T14:57:38.001Z</time></trkpt><trkpt lat="45.51770047767987" lon="10.761121980633137"><ele>156.0</ele><time>2026-05-01T14:57:39.001Z</time></trkpt><trkpt lat="45.51758397663995" lon="10.761369336218303"><ele>156.0</ele><time>2026-05-01T14:57:40.001Z</time></trkpt><trkpt lat="45.517454557203784" lon="10.761574027196943"><ele>156.0</ele><time>2026-05-01T14:57:41.001Z</time></trkpt><trkpt lat="45.51734665292538" lon="10.7617834985143"><ele>156.0</ele><time>2026-05-01T14:57:42.001Z</time></trkpt><trkpt lat="45.517178343430416" lon="10.76191968249678"><ele>156.0</ele><time>2026-05-01T14:57:43.001Z</time></trkpt><trkpt lat="45.51700505269039" lon="10.76207946048323"><ele>156.0</ele><time>2026-05-01T14:57:44.001Z</time></trkpt><trkpt lat="45.51685831118237" lon="10.762226156695789"><ele>156.0</ele><time>2026-05-01T14:57:45.001Z</time></trkpt><trkpt lat="45.516720917031016" lon="10.762356570529317"><ele>156.0</ele><time>2026-05-01T14:57:46.001Z</time></trkpt><trkpt lat="45.516600421331255" lon="10.762482696200523"><ele>156.0</ele><time>2026-05-01T14:57:47.001Z</time></trkpt><trkpt lat="45.5164890583286" lon="10.762609690534047"><ele>156.0</ele><time>2026-05-01T14:57:48.001Z</time></trkpt><trkpt lat="45.51639511193547" lon="10.76274508165613"><ele>156.0</ele><time>2026-05-01T14:57:49.001Z</time></trkpt><trkpt lat="45.51631662949478" lon="10.76288608590493"><ele>156.25</ele><time>2026-05-01T14:57:50.001Z</time></trkpt><trkpt lat="45.51625148213571" lon="10.763018365087511"><ele>156.5</ele><time>2026-05-01T14:57:51.001Z</time></trkpt><trkpt lat="45.51618994088629" lon="10.763153746174728"><ele>156.75</ele><time>2026-05-01T14:57:52.001Z</time></trkpt><trkpt lat="45.51613222232603" lon="10.76328905201217"><ele>157.0</ele><time>2026-05-01T14:57:53.001Z</time></trkpt><trkpt lat="45.51605502204759" lon="10.76341524529598"><ele>157.0</ele><time>2026-05-01T14:57:54.001Z</time></trkpt><trkpt lat="45.51599966711526" lon="10.763568850935052"><ele>157.0</ele><time>2026-05-01T14:57:55.001Z</time></trkpt><trkpt lat="45.515929295814104" lon="10.763713388094981"><ele>157.0</ele><time>2026-05-01T14:57:56.001Z</time></trkpt><trkpt lat="45.51585983895161" lon="10.763862470330805"><ele>157.0</ele><time>2026-05-01T14:57:57.001Z</time></trkpt><trkpt lat="45.515786784380246" lon="10.764018395354864"><ele>157.0</ele><time>2026-05-01T14:57:58.001Z</time></trkpt><trkpt lat="45.51570721518327" lon="10.764174332629166"><ele>157.0</ele><time>2026-05-01T14:57:59.001Z</time></trkpt><trkpt lat="45.51562462492916" lon="10.764321475135974"><ele>157.0</ele><time>2026-05-01T14:58:00.001Z</time></trkpt><trkpt lat="45.51553738984596" lon="10.764459728078961"><ele>157.0</ele><time>2026-05-01T14:58:01.001Z</time></trkpt><trkpt lat="45.515455508642795" lon="10.76458966489213"><ele>157.0</ele><time>2026-05-01T14:58:02.001Z</time></trkpt><trkpt lat="45.515370368718074" lon="10.764723524465724"><ele>157.0</ele><time>2026-05-01T14:58:03.001Z</time></trkpt><trkpt lat="45.515285916046984" lon="10.764861624772177"><ele>157.0</ele><time>2026-05-01T14:58:04.001Z</time></trkpt><trkpt lat="45.515204416708144" lon="10.764996254687322"><ele>157.0</ele><time>2026-05-01T14:58:05.001Z</time></trkpt><trkpt lat="45.515131260972964" lon="10.765142912300936"><ele>157.0</ele><time>2026-05-01T14:58:06.001Z</time></trkpt><trkpt lat="45.515067279692595" lon="10.765296411910242"><ele>157.0</ele><time>2026-05-01T14:58:07.001Z</time></trkpt><trkpt lat="45.51501615356352" lon="10.765465443071736"><ele>157.0</ele><time>2026-05-01T14:58:08.001Z</time></trkpt><trkpt lat="45.51496857895234" lon="10.765645543785993"><ele>157.0</ele><time>2026-05-01T14:58:09.001Z</time></trkpt><trkpt lat="45.51492448029136" lon="10.765833189750056"><ele>157.0</ele><time>2026-05-01T14:58:10.001Z</time></trkpt><trkpt lat="45.514892598130146" lon="10.766025200630306"><ele>157.0</ele><time>2026-05-01T14:58:11.001Z</time></trkpt><trkpt lat="45.514865049405856" lon="10.7662074696741"><ele>157.0</ele><time>2026-05-01T14:58:12.001Z</time></trkpt><trkpt lat="45.51483598922531" lon="10.766404535010379"><ele>157.0</ele><time>2026-05-01T14:58:13.001Z</time></trkpt><trkpt lat="45.514807008263894" lon="10.766610826276743"><ele>157.0</ele><time>2026-05-01T14:58:14.001Z</time></trkpt><trkpt lat="45.514778711992776" lon="10.766821041064146"><ele>157.0</ele><time>2026-05-01T14:58:15.001Z</time></trkpt><trkpt lat="45.5147512421177" lon="10.767027951958072"><ele>157.0</ele><time>2026-05-01T14:58:16.001Z</time></trkpt><trkpt lat="45.514724267437806" lon="10.767214695817103"><ele>157.0</ele><time>2026-05-01T14:58:17.001Z</time></trkpt><trkpt lat="45.51470132345868" lon="10.76737759399516"><ele>157.0</ele><time>2026-05-01T14:58:18.001Z</time></trkpt><trkpt lat="45.51468674031702" lon="10.767525077038895"><ele>157.0</ele><time>2026-05-01T14:58:19.001Z</time></trkpt><trkpt lat="45.51467508121485" lon="10.767654068657903"><ele>157.0</ele><time>2026-05-01T14:58:20.001Z</time></trkpt><trkpt lat="45.51466751120297" lon="10.767760592939192"><ele>157.0</ele><time>2026-05-01T14:58:21.001Z</time></trkpt><trkpt lat="45.51465340749299" lon="10.767902082498763"><ele>157.0</ele><time>2026-05-01T14:58:23.001Z</time></trkpt><trkpt lat="45.51463822487483" lon="10.76804344956471"><ele>157.0</ele><time>2026-05-01T14:58:25.001Z</time></trkpt><trkpt lat="45.51463002340962" lon="10.768136976819921"><ele>157.0</ele><time>2026-05-01T14:58:26.001Z</time></trkpt><trkpt lat="45.514610416929074" lon="10.768238575870155"><ele>157.0</ele><time>2026-05-01T14:58:28.001Z</time></trkpt><trkpt lat="45.5147685606236" lon="10.76823528057083"><ele>157.0</ele><time>2026-05-01T14:58:29.001Z</time></trkpt><trkpt lat="45.51486127572236" lon="10.76826150943135"><ele>157.0</ele><time>2026-05-01T14:58:30.001Z</time></trkpt><trkpt lat="45.514966949014436" lon="10.768270135238295"><ele>157.0</ele><time>2026-05-01T14:58:31.001Z</time></trkpt><trkpt lat="45.51507621725808" lon="10.76829464916348"><ele>157.0</ele><time>2026-05-01T14:58:32.001Z</time></trkpt><trkpt lat="45.51519124679914" lon="10.768318568616422"><ele>157.0</ele><time>2026-05-01T14:58:33.001Z</time></trkpt><trkpt lat="45.51531392559767" lon="10.768334610229482"><ele>157.0</ele><time>2026-05-01T14:58:34.001Z</time></trkpt><trkpt lat="45.5154325414433" lon="10.76835171178692"><ele>156.2</ele><time>2026-05-01T14:58:35.001Z</time></trkpt><trkpt lat="45.51553404361984" lon="10.768379071166445"><ele>155.39999999999998</ele><time>2026-05-01T14:58:36.001Z</time></trkpt><trkpt lat="45.515629015159384" lon="10.768428897248592"><ele>154.60000000000002</ele><time>2026-05-01T14:58:37.001Z</time></trkpt><trkpt lat="45.51570667905315" lon="10.76850501371965"><ele>153.8</ele><time>2026-05-01T14:58:38.002Z</time></trkpt><trkpt lat="45.51573329598475" lon="10.76863591293512"><ele>153.0</ele><time>2026-05-01T14:58:39.002Z</time></trkpt><trkpt lat="45.51573799069668" lon="10.768755798870055"><ele>153.0</ele><time>2026-05-01T14:58:40.002Z</time></trkpt><trkpt lat="45.515731879705164" lon="10.768894772451292"><ele>153.0</ele><time>2026-05-01T14:58:41.002Z</time></trkpt><trkpt lat="45.515683389292924" lon="10.769004085749291"><ele>153.0</ele><time>2026-05-01T14:58:42.002Z</time></trkpt><trkpt lat="45.51560444979628" lon="10.769075787238805"><ele>153.0</ele><time>2026-05-01T14:58:43.002Z</time></trkpt><trkpt lat="45.51550622653475" lon="10.769112114528518"><ele>153.0</ele><time>2026-05-01T14:58:44.002Z</time></trkpt><trkpt lat="45.515413337583254" lon="10.769150748469594"><ele>153.25</ele><time>2026-05-01T14:58:45.002Z</time></trkpt><trkpt lat="45.515277439148974" lon="10.769072002204114"><ele>153.5</ele><time>2026-05-01T14:58:46.002Z</time></trkpt><trkpt lat="45.515147672584106" lon="10.769038319938389"><ele>153.75</ele><time>2026-05-01T14:58:47.002Z</time></trkpt><trkpt lat="45.51504253679771" lon="10.769021222777075"><ele>154.0</ele><time>2026-05-01T14:58:48.002Z</time></trkpt><trkpt lat="45.51496329482205" lon="10.76900719940709"><ele>154.0</ele><time>2026-05-01T14:58:49.002Z</time></trkpt><trkpt lat="45.5148890384512" lon="10.768996551956347"><ele>154.0</ele><time>2026-05-01T14:58:50.002Z</time></trkpt><trkpt lat="45.51479502467769" lon="10.768985641320421"><ele>154.0</ele><time>2026-05-01T14:58:51.002Z</time></trkpt><trkpt lat="45.514677210096536" lon="10.768980399173866"><ele>154.0</ele><time>2026-05-01T14:58:52.002Z</time></trkpt><trkpt lat="45.514546988842675" lon="10.768965663830892"><ele>154.0</ele><time>2026-05-01T14:58:53.002Z</time></trkpt><trkpt lat="45.514408833353464" lon="10.768944156339176"><ele>154.33333333333334</ele><time>2026-05-01T14:58:54.002Z</time></trkpt><trkpt lat="45.51425610784169" lon="10.76890827249526"><ele>154.66666666666666</ele><time>2026-05-01T14:58:55.002Z</time></trkpt><trkpt lat="45.5140898547723" lon="10.768885445479388"><ele>155.0</ele><time>2026-05-01T14:58:56.002Z</time></trkpt><trkpt lat="45.51391182789593" lon="10.768863532726352"><ele>154.66666666666666</ele><time>2026-05-01T14:58:57.002Z</time></trkpt><trkpt lat="45.513726232693955" lon="10.768839306846319"><ele>154.33333333333334</ele><time>2026-05-01T14:58:58.002Z</time></trkpt><trkpt lat="45.51353586785983" lon="10.76881021176544"><ele>154.0</ele><time>2026-05-01T14:58:59.002Z</time></trkpt><trkpt lat="45.513336234381605" lon="10.76878126843912"><ele>154.0</ele><time>2026-05-01T14:59:00.002Z</time></trkpt><trkpt lat="45.51312890960616" lon="10.768744275073436"><ele>154.0</ele><time>2026-05-01T14:59:01.002Z</time></trkpt><trkpt lat="45.512912061043984" lon="10.768706227652324"><ele>154.0</ele><time>2026-05-01T14:59:02.002Z</time></trkpt><trkpt lat="45.512700600794304" lon="10.768672493635881"><ele>155.0</ele><time>2026-05-01T14:59:03.002Z</time></trkpt><trkpt lat="45.51248271697594" lon="10.768632685994936"><ele>156.0</ele><time>2026-05-01T14:59:04.002Z</time></trkpt><trkpt lat="45.512272345422566" lon="10.768599389800219"><ele>157.0</ele><time>2026-05-01T14:59:05.002Z</time></trkpt><trkpt lat="45.512056182443295" lon="10.768569398715274"><ele>157.33333333333334</ele><time>2026-05-01T14:59:06.002Z</time></trkpt><trkpt lat="45.51184241802866" lon="10.768540939074033"><ele>157.66666666666666</ele><time>2026-05-01T14:59:07.002Z</time></trkpt><trkpt lat="45.51161957356225" lon="10.768502332654299"><ele>158.0</ele><time>2026-05-01T14:59:08.002Z</time></trkpt><trkpt lat="45.51136222998283" lon="10.768481215772615"><ele>150.5</ele><time>2026-05-01T14:59:09.002Z</time></trkpt><trkpt lat="45.51109178874027" lon="10.768444411966948"><ele>143.0</ele><time>2026-05-01T14:59:10.002Z</time></trkpt><trkpt lat="45.51080444836604" lon="10.768392293433319"><ele>143.0</ele><time>2026-05-01T14:59:11.002Z</time></trkpt><trkpt lat="45.510501281224705" lon="10.76833279934873"><ele>143.0</ele><time>2026-05-01T14:59:12.002Z</time></trkpt><trkpt lat="45.510188154657314" lon="10.76827432842651"><ele>141.0</ele><time>2026-05-01T14:59:13.002Z</time></trkpt><trkpt lat="45.509857444762964" lon="10.768210532139321"><ele>139.0</ele><time>2026-05-01T14:59:14.002Z</time></trkpt><trkpt lat="45.5095284360149" lon="10.768146078154945"><ele>137.5</ele><time>2026-05-01T14:59:15.002Z</time></trkpt><trkpt lat="45.509219141248465" lon="10.76808974302299"><ele>136.0</ele><time>2026-05-01T14:59:16.002Z</time></trkpt><trkpt lat="45.508911031353364" lon="10.768034729399435"><ele>136.0</ele><time>2026-05-01T14:59:17.002Z</time></trkpt><trkpt lat="45.50860395959901" lon="10.767986923579606"><ele>136.0</ele><time>2026-05-01T14:59:18.002Z</time></trkpt><trkpt lat="45.50830383368755" lon="10.767953241424843"><ele>136.0</ele><time>2026-05-01T14:59:19.002Z</time></trkpt><trkpt lat="45.50802373619599" lon="10.76794588154566"><ele>136.0</ele><time>2026-05-01T14:59:20.002Z</time></trkpt><trkpt lat="45.5077531110646" lon="10.767956803839263"><ele>135.5</ele><time>2026-05-01T14:59:21.002Z</time></trkpt><trkpt lat="45.50748654751667" lon="10.767970126876586"><ele>135.0</ele><time>2026-05-01T14:59:22.002Z</time></trkpt><trkpt lat="45.507233267972346" lon="10.767978843889262"><ele>135.0</ele><time>2026-05-01T14:59:23.002Z</time></trkpt><trkpt lat="45.506977222367894" lon="10.767983364574807"><ele>135.0</ele><time>2026-05-01T14:59:24.002Z</time></trkpt><trkpt lat="45.50672186598529" lon="10.767984901152282"><ele>135.0</ele><time>2026-05-01T14:59:25.001Z</time></trkpt><trkpt lat="45.50647427841755" lon="10.76799155003547"><ele>135.0</ele><time>2026-05-01T14:59:26.001Z</time></trkpt><trkpt lat="45.50622120599959" lon="10.768006889786472"><ele>135.0</ele><time>2026-05-01T14:59:27.001Z</time></trkpt><trkpt lat="45.50595952067244" lon="10.76801896882332"><ele>135.0</ele><time>2026-05-01T14:59:28.001Z</time></trkpt><trkpt lat="45.505697639710675" lon="10.76802895548007"><ele>135.0</ele><time>2026-05-01T14:59:29.001Z</time></trkpt><trkpt lat="45.50542497589094" lon="10.768042940385635"><ele>135.0</ele><time>2026-05-01T14:59:30.001Z</time></trkpt><trkpt lat="45.50513503190863" lon="10.768061357558313"><ele>137.0</ele><time>2026-05-01T14:59:31.001Z</time></trkpt><trkpt lat="45.504842993757634" lon="10.768085508163699"><ele>139.0</ele><time>2026-05-01T14:59:32.001Z</time></trkpt><trkpt lat="45.50455770894574" lon="10.768106171025726"><ele>141.0</ele><time>2026-05-01T14:59:33.001Z</time></trkpt><trkpt lat="45.50426665838776" lon="10.768124687555915"><ele>143.0</ele><time>2026-05-01T14:59:34.001Z</time></trkpt><trkpt lat="45.50399165781244" lon="10.768128546992717"><ele>142.0</ele><time>2026-05-01T14:59:35.001Z</time></trkpt><trkpt lat="45.50371366539116" lon="10.7681354762306"><ele>141.0</ele><time>2026-05-01T14:59:36.001Z</time></trkpt><trkpt lat="45.503437353200404" lon="10.768146481488824"><ele>141.0</ele><time>2026-05-01T14:59:37.001Z</time></trkpt><trkpt lat="45.50316000866347" lon="10.768153821275444"><ele>141.0</ele><time>2026-05-01T14:59:38.001Z</time></trkpt><trkpt lat="45.50288181984689" lon="10.768159934397936"><ele>139.5</ele><time>2026-05-01T14:59:39.001Z</time></trkpt><trkpt lat="45.50260704155047" lon="10.768166819717733"><ele>138.0</ele><time>2026-05-01T14:59:40.001Z</time></trkpt><trkpt lat="45.5023303381483" lon="10.768165161298706"><ele>135.5</ele><time>2026-05-01T14:59:41.001Z</time></trkpt><trkpt lat="45.5020583798999" lon="10.768161523777943"><ele>133.0</ele><time>2026-05-01T14:59:42.001Z</time></trkpt><trkpt lat="45.50178696091378" lon="10.768160570213475"><ele>133.0</ele><time>2026-05-01T14:59:43.001Z</time></trkpt><trkpt lat="45.50151867227043" lon="10.768167636366236"><ele>133.0</ele><time>2026-05-01T14:59:44.001Z</time></trkpt><trkpt lat="45.50125370190617" lon="10.768175993344137"><ele>133.0</ele><time>2026-05-01T14:59:45.001Z</time></trkpt><trkpt lat="45.50099115594461" lon="10.76818689686685"><ele>133.0</ele><time>2026-05-01T14:59:46.001Z</time></trkpt><trkpt lat="45.50072879982822" lon="10.768190762192441"><ele>133.0</ele><time>2026-05-01T14:59:47.001Z</time></trkpt><trkpt lat="45.50046696527195" lon="10.768196033525358"><ele>133.0</ele><time>2026-05-01T14:59:48.001Z</time></trkpt><trkpt lat="45.50020154610525" lon="10.768208966497543"><ele>132.5</ele><time>2026-05-01T14:59:49.001Z</time></trkpt><trkpt lat="45.49993559235161" lon="10.768217323388638"><ele>132.0</ele><time>2026-05-01T14:59:50.001Z</time></trkpt><trkpt lat="45.499665685319236" lon="10.768225015430957"><ele>130.5</ele><time>2026-05-01T14:59:51.001Z</time></trkpt><trkpt lat="45.49939132436185" lon="10.768231895011597"><ele>129.0</ele><time>2026-05-01T14:59:52.001Z</time></trkpt><trkpt lat="45.49912273780715" lon="10.76824086097802"><ele>129.0</ele><time>2026-05-01T14:59:53.001Z</time></trkpt><trkpt lat="45.498853020545226" lon="10.768254277882981"><ele>129.0</ele><time>2026-05-01T14:59:54.001Z</time></trkpt><trkpt lat="45.49858366015912" lon="10.768263637175053"><ele>130.0</ele><time>2026-05-01T14:59:55.001Z</time></trkpt><trkpt lat="45.49831355793997" lon="10.768273264682719"><ele>131.0</ele><time>2026-05-01T14:59:56.001Z</time></trkpt><trkpt lat="45.49804330442542" lon="10.76827823174584"><ele>129.0</ele><time>2026-05-01T14:59:57.001Z</time></trkpt><trkpt lat="45.49776996845786" lon="10.76828601746901"><ele>127.0</ele><time>2026-05-01T14:59:58.001Z</time></trkpt><trkpt lat="45.497500378030026" lon="10.768298004820531"><ele>127.0</ele><time>2026-05-01T14:59:59.001Z</time></trkpt><trkpt lat="45.4972267062382" lon="10.768308959485447"><ele>127.0</ele><time>2026-05-01T15:00:00.001Z</time></trkpt><trkpt lat="45.49695650328355" lon="10.768321253220593"><ele>128.0</ele><time>2026-05-01T15:00:01.001Z</time></trkpt><trkpt lat="45.49668749446611" lon="10.768328268901104"><ele>129.0</ele><time>2026-05-01T15:00:02.001Z</time></trkpt><trkpt lat="45.49641479822241" lon="10.768337300212528"><ele>128.0</ele><time>2026-05-01T15:00:03.001Z</time></trkpt><trkpt lat="45.49614376679037" lon="10.76834741747085"><ele>127.0</ele><time>2026-05-01T15:00:04.001Z</time></trkpt><trkpt lat="45.4958718958406" lon="10.76835367979226"><ele>127.0</ele><time>2026-05-01T15:00:05.001Z</time></trkpt><trkpt lat="45.49559999335339" lon="10.76835473900595"><ele>127.0</ele><time>2026-05-01T15:00:06.001Z</time></trkpt><trkpt lat="45.49532540466496" lon="10.768339889799272"><ele>128.0</ele><time>2026-05-01T15:00:07.001Z</time></trkpt><trkpt lat="45.495054110265656" lon="10.768309643270252"><ele>129.0</ele><time>2026-05-01T15:00:08.001Z</time></trkpt><trkpt lat="45.494779884644686" lon="10.768264983544153"><ele>128.0</ele><time>2026-05-01T15:00:09.001Z</time></trkpt><trkpt lat="45.494506898159415" lon="10.768209529086363"><ele>127.0</ele><time>2026-05-01T15:00:10.001Z</time></trkpt><trkpt lat="45.49423982169308" lon="10.768151962653635"><ele>127.0</ele><time>2026-05-01T15:00:11.001Z</time></trkpt><trkpt lat="45.493976449807406" lon="10.768083371581257"><ele>127.0</ele><time>2026-05-01T15:00:12.001Z</time></trkpt><trkpt lat="45.49371072044525" lon="10.76800949888901"><ele>126.5</ele><time>2026-05-01T15:00:13.001Z</time></trkpt><trkpt lat="45.49344943682662" lon="10.767937766639374"><ele>126.0</ele><time>2026-05-01T15:00:14.001Z</time></trkpt><trkpt lat="45.493187752729135" lon="10.767869128473441"><ele>126.0</ele><time>2026-05-01T15:00:15.001Z</time></trkpt><trkpt lat="45.492929355337054" lon="10.767799112057155"><ele>126.0</ele><time>2026-05-01T15:00:16.001Z</time></trkpt><trkpt lat="45.492669349509455" lon="10.76772886484836"><ele>126.5</ele><time>2026-05-01T15:00:17.001Z</time></trkpt><trkpt lat="45.4924063342233" lon="10.767660662490785"><ele>127.0</ele><time>2026-05-01T15:00:18.001Z</time></trkpt><trkpt lat="45.49214312467196" lon="10.767589171968448"><ele>126.5</ele><time>2026-05-01T15:00:19.001Z</time></trkpt><trkpt lat="45.49188107698152" lon="10.76751170817542"><ele>126.0</ele><time>2026-05-01T15:00:20.001Z</time></trkpt><trkpt lat="45.49161882886052" lon="10.767443082670423"><ele>126.0</ele><time>2026-05-01T15:00:21.001Z</time></trkpt><trkpt lat="45.491354103139784" lon="10.767379341332571"><ele>126.0</ele><time>2026-05-01T15:00:22.001Z</time></trkpt><trkpt lat="45.49109170007167" lon="10.767316021292128"><ele>128.5</ele><time>2026-05-01T15:00:23.001Z</time></trkpt><trkpt lat="45.490825482984185" lon="10.767246720966725"><ele>131.0</ele><time>2026-05-01T15:00:24.001Z</time></trkpt><trkpt lat="45.49055927361531" lon="10.767169467165479"><ele>131.5</ele><time>2026-05-01T15:00:25.001Z</time></trkpt><trkpt lat="45.49029133654071" lon="10.767094751675163"><ele>132.0</ele><time>2026-05-01T15:00:26.001Z</time></trkpt><trkpt lat="45.490024814323455" lon="10.767025764241298"><ele>132.0</ele><time>2026-05-01T15:00:27.001Z</time></trkpt><trkpt lat="45.48975372593422" lon="10.766953004510396"><ele>132.0</ele><time>2026-05-01T15:00:28.001Z</time></trkpt><trkpt lat="45.489480030171016" lon="10.76688642956101"><ele>130.0</ele><time>2026-05-01T15:00:29.001Z</time></trkpt><trkpt lat="45.48920841395133" lon="10.766809526387158"><ele>128.0</ele><time>2026-05-01T15:00:30.001Z</time></trkpt><trkpt lat="45.488939822169414" lon="10.766738762406824"><ele>127.5</ele><time>2026-05-01T15:00:31.001Z</time></trkpt><trkpt lat="45.488673640727974" lon="10.76666759068224"><ele>127.0</ele><time>2026-05-01T15:00:32.001Z</time></trkpt><trkpt lat="45.488409956924485" lon="10.766592691772988"><ele>127.0</ele><time>2026-05-01T15:00:33.001Z</time></trkpt><trkpt lat="45.48814302703663" lon="10.766518438864901"><ele>127.0</ele><time>2026-05-01T15:00:34.001Z</time></trkpt><trkpt lat="45.487876127124636" lon="10.766449627156002"><ele>129.0</ele><time>2026-05-01T15:00:35.001Z</time></trkpt><trkpt lat="45.48761101868812" lon="10.766379251428074"><ele>131.0</ele><time>2026-05-01T15:00:36.001Z</time></trkpt><trkpt lat="45.487345904727185" lon="10.76631058691299"><ele>130.5</ele><time>2026-05-01T15:00:37.001Z</time></trkpt><trkpt lat="45.487085124931845" lon="10.766244421042089"><ele>130.0</ele><time>2026-05-01T15:00:38.001Z</time></trkpt><trkpt lat="45.48682648864885" lon="10.766171130235927"><ele>130.0</ele><time>2026-05-01T15:00:39.001Z</time></trkpt><trkpt lat="45.48656811977393" lon="10.76609862523046"><ele>130.0</ele><time>2026-05-01T15:00:40.001Z</time></trkpt><trkpt lat="45.48630868452245" lon="10.76603167212944"><ele>127.5</ele><time>2026-05-01T15:00:41.001Z</time></trkpt><trkpt lat="45.48604955632277" lon="10.765964804623252"><ele>125.0</ele><time>2026-05-01T15:00:42.001Z</time></trkpt><trkpt lat="45.485791298480414" lon="10.765900210752061"><ele>125.0</ele><time>2026-05-01T15:00:43.001Z</time></trkpt><trkpt lat="45.48553618557163" lon="10.765835902448838"><ele>125.0</ele><time>2026-05-01T15:00:44.001Z</time></trkpt><trkpt lat="45.48527749775275" lon="10.765765724407334"><ele>123.5</ele><time>2026-05-01T15:00:45.001Z</time></trkpt><trkpt lat="45.48501666163379" lon="10.765701595631592"><ele>122.0</ele><time>2026-05-01T15:00:46.002Z</time></trkpt><trkpt lat="45.484756914610955" lon="10.765635382220207"><ele>122.0</ele><time>2026-05-01T15:00:47.002Z</time></trkpt><trkpt lat="45.484497386922804" lon="10.76556617421278"><ele>122.0</ele><time>2026-05-01T15:00:48.002Z</time></trkpt><trkpt lat="45.484236487952806" lon="10.765495046613523"><ele>122.0</ele><time>2026-05-01T15:00:49.002Z</time></trkpt><trkpt lat="45.48397582144788" lon="10.765421759627689"><ele>122.0</ele><time>2026-05-01T15:00:50.002Z</time></trkpt><trkpt lat="45.48371276578232" lon="10.76535389717354"><ele>122.0</ele><time>2026-05-01T15:00:51.002Z</time></trkpt><trkpt lat="45.483451778016764" lon="10.765285249812212"><ele>122.0</ele><time>2026-05-01T15:00:52.002Z</time></trkpt><trkpt lat="45.48318891826056" lon="10.765215842444904"><ele>121.0</ele><time>2026-05-01T15:00:53.002Z</time></trkpt><trkpt lat="45.482926992713395" lon="10.765147130562818"><ele>120.0</ele><time>2026-05-01T15:00:54.002Z</time></trkpt><trkpt lat="45.48266691419124" lon="10.765084881280513"><ele>120.0</ele><time>2026-05-01T15:00:55.002Z</time></trkpt><trkpt lat="45.482407284437436" lon="10.765017011574542"><ele>120.0</ele><time>2026-05-01T15:00:56.002Z</time></trkpt><trkpt lat="45.482149317702046" lon="10.764944335648318"><ele>121.0</ele><time>2026-05-01T15:00:57.002Z</time></trkpt><trkpt lat="45.4818882418633" lon="10.76487209771504"><ele>122.0</ele><time>2026-05-01T15:00:58.002Z</time></trkpt><trkpt lat="45.48162938669176" lon="10.764804393230325"><ele>122.0</ele><time>2026-05-01T15:00:59.002Z</time></trkpt><trkpt lat="45.481368239327104" lon="10.764738403541491"><ele>122.0</ele><time>2026-05-01T15:01:00.002Z</time></trkpt><trkpt lat="45.48110627310378" lon="10.764669757271175"><ele>120.0</ele><time>2026-05-01T15:01:01.002Z</time></trkpt><trkpt lat="45.480844746428474" lon="10.764598212500673"><ele>118.0</ele><time>2026-05-01T15:01:02.002Z</time></trkpt><trkpt lat="45.48058380532783" lon="10.764530435432313"><ele>119.5</ele><time>2026-05-01T15:01:03.002Z</time></trkpt><trkpt lat="45.480321685089606" lon="10.76446294843236"><ele>121.0</ele><time>2026-05-01T15:01:04.002Z</time></trkpt><trkpt lat="45.48006184518204" lon="10.764396271860331"><ele>120.0</ele><time>2026-05-01T15:01:05.002Z</time></trkpt><trkpt lat="45.479800351959646" lon="10.764328281877631"><ele>119.0</ele><time>2026-05-01T15:01:06.002Z</time></trkpt><trkpt lat="45.47953960761693" lon="10.76425843046564"><ele>118.0</ele><time>2026-05-01T15:01:07.002Z</time></trkpt><trkpt lat="45.47927918625906" lon="10.764190724581729"><ele>117.0</ele><time>2026-05-01T15:01:08.002Z</time></trkpt><trkpt lat="45.479015650710586" lon="10.764121051134417"><ele>116.5</ele><time>2026-05-01T15:01:09.002Z</time></trkpt><trkpt lat="45.47875331166386" lon="10.764050335618942"><ele>116.0</ele><time>2026-05-01T15:01:10.002Z</time></trkpt><trkpt lat="45.478492021418866" lon="10.763978070763933"><ele>116.0</ele><time>2026-05-01T15:01:11.002Z</time></trkpt><trkpt lat="45.478226754836435" lon="10.763908275209836"><ele>116.0</ele><time>2026-05-01T15:01:12.002Z</time></trkpt><trkpt lat="45.47796301342944" lon="10.76383945992116"><ele>117.5</ele><time>2026-05-01T15:01:13.002Z</time></trkpt><trkpt lat="45.47769623119858" lon="10.763773908119523"><ele>119.0</ele><time>2026-05-01T15:01:14.002Z</time></trkpt><trkpt lat="45.47743082411108" lon="10.76370584570434"><ele>119.0</ele><time>2026-05-01T15:01:15.002Z</time></trkpt><trkpt lat="45.47716486008635" lon="10.763636876532978"><ele>119.0</ele><time>2026-05-01T15:01:16.002Z</time></trkpt><trkpt lat="45.47689765992283" lon="10.763572824754057"><ele>118.5</ele><time>2026-05-01T15:01:17.002Z</time></trkpt><trkpt lat="45.47663069637111" lon="10.763508022010063"><ele>118.0</ele><time>2026-05-01T15:01:18.002Z</time></trkpt><trkpt lat="45.47634943490688" lon="10.763420612732585"><ele>120.5</ele><time>2026-05-01T15:01:19.002Z</time></trkpt><trkpt lat="45.4760698696936" lon="10.763309262808706"><ele>123.0</ele><time>2026-05-01T15:01:20.002Z</time></trkpt><trkpt lat="45.47579221673746" lon="10.763195352135185"><ele>123.0</ele><time>2026-05-01T15:01:21.002Z</time></trkpt><trkpt lat="45.47551964137457" lon="10.7630761964123"><ele>123.0</ele><time>2026-05-01T15:01:22.002Z</time></trkpt><trkpt lat="45.47524906386364" lon="10.76296850149991"><ele>123.5</ele><time>2026-05-01T15:01:23.002Z</time></trkpt><trkpt lat="45.474978742132755" lon="10.762869943094334"><ele>124.0</ele><time>2026-05-01T15:01:24.002Z</time></trkpt><trkpt lat="45.47471349948625" lon="10.762775497791305"><ele>124.0</ele><time>2026-05-01T15:01:25.002Z</time></trkpt><trkpt lat="45.4744461962877" lon="10.762683775591613"><ele>124.0</ele><time>2026-05-01T15:01:26.002Z</time></trkpt><trkpt lat="45.4741844686066" lon="10.762586026280703"><ele>124.0</ele><time>2026-05-01T15:01:27.002Z</time></trkpt><trkpt lat="45.47392193259897" lon="10.762487216282459"><ele>124.0</ele><time>2026-05-01T15:01:28.002Z</time></trkpt><trkpt lat="45.473658634072144" lon="10.762389171638565"><ele>122.5</ele><time>2026-05-01T15:01:29.002Z</time></trkpt><trkpt lat="45.473395109475305" lon="10.762290880302695"><ele>121.0</ele><time>2026-05-01T15:01:30.002Z</time></trkpt><trkpt lat="45.47312812958558" lon="10.762197557785965"><ele>121.0</ele><time>2026-05-01T15:01:31.001Z</time></trkpt><trkpt lat="45.47286192846638" lon="10.762106874600853"><ele>121.0</ele><time>2026-05-01T15:01:32.001Z</time></trkpt><trkpt lat="45.47259356055222" lon="10.762009667563536"><ele>121.0</ele><time>2026-05-01T15:01:33.001Z</time></trkpt><trkpt lat="45.47233176926025" lon="10.761912321878105"><ele>121.0</ele><time>2026-05-01T15:01:34.001Z</time></trkpt><trkpt lat="45.47206514885301" lon="10.761816816527253"><ele>119.5</ele><time>2026-05-01T15:01:35.001Z</time></trkpt><trkpt lat="45.47180071073786" lon="10.761719163649252"><ele>118.0</ele><time>2026-05-01T15:01:36.001Z</time></trkpt><trkpt lat="45.471534238701445" lon="10.761625746987022"><ele>117.0</ele><time>2026-05-01T15:01:37.001Z</time></trkpt><trkpt lat="45.47127377935222" lon="10.761535914710375"><ele>116.0</ele><time>2026-05-01T15:01:38.001Z</time></trkpt><trkpt lat="45.47101343690822" lon="10.761449102921839"><ele>116.0</ele><time>2026-05-01T15:01:39.001Z</time></trkpt><trkpt lat="45.470751669230246" lon="10.761366574685022"><ele>116.0</ele><time>2026-05-01T15:01:40.001Z</time></trkpt><trkpt lat="45.47048978548562" lon="10.76128851119254"><ele>114.0</ele><time>2026-05-01T15:01:41.001Z</time></trkpt><trkpt lat="45.47022707733742" lon="10.761223867465182"><ele>112.0</ele><time>2026-05-01T15:01:42.001Z</time></trkpt><trkpt lat="45.469955806592495" lon="10.761171042944737"><ele>112.0</ele><time>2026-05-01T15:01:43.001Z</time></trkpt><trkpt lat="45.4696837278207" lon="10.76111640124908"><ele>112.0</ele><time>2026-05-01T15:01:44.001Z</time></trkpt><trkpt lat="45.46941128986126" lon="10.76105550862626"><ele>113.5</ele><time>2026-05-01T15:01:45.001Z</time></trkpt><trkpt lat="45.469140437758604" lon="10.760987145856033"><ele>115.0</ele><time>2026-05-01T15:01:46.001Z</time></trkpt><trkpt lat="45.46886992753884" lon="10.760917491927867"><ele>114.5</ele><time>2026-05-01T15:01:47.001Z</time></trkpt><trkpt lat="45.46860326650995" lon="10.7608480678492"><ele>114.0</ele><time>2026-05-01T15:01:48.001Z</time></trkpt><trkpt lat="45.468336817190945" lon="10.760778694024946"><ele>114.0</ele><time>2026-05-01T15:01:49.001Z</time></trkpt><trkpt lat="45.468069545529964" lon="10.760706721531003"><ele>114.0</ele><time>2026-05-01T15:01:50.001Z</time></trkpt><trkpt lat="45.467802727712545" lon="10.760638255566429"><ele>116.5</ele><time>2026-05-01T15:01:51.001Z</time></trkpt><trkpt lat="45.46753725369273" lon="10.760569072378146"><ele>119.0</ele><time>2026-05-01T15:01:52.001Z</time></trkpt><trkpt lat="45.467274499675" lon="10.760502831986592"><ele>121.0</ele><time>2026-05-01T15:01:53.001Z</time></trkpt><trkpt lat="45.46701015752319" lon="10.760432367013136"><ele>123.0</ele><time>2026-05-01T15:01:54.001Z</time></trkpt><trkpt lat="45.46674569787615" lon="10.760358768981392"><ele>123.0</ele><time>2026-05-01T15:01:55.001Z</time></trkpt><trkpt lat="45.466483760036446" lon="10.760279518035015"><ele>123.0</ele><time>2026-05-01T15:01:56.001Z</time></trkpt><trkpt lat="45.466222709292424" lon="10.7601886782771"><ele>122.5</ele><time>2026-05-01T15:01:57.001Z</time></trkpt><trkpt lat="45.465962605335285" lon="10.760078401079213"><ele>122.0</ele><time>2026-05-01T15:01:58.001Z</time></trkpt><trkpt lat="45.46571554767846" lon="10.759947988864923"><ele>122.0</ele><time>2026-05-01T15:01:59.001Z</time></trkpt><trkpt lat="45.46547188265513" lon="10.759817570261783"><ele>122.0</ele><time>2026-05-01T15:02:00.001Z</time></trkpt><trkpt lat="45.46523112760558" lon="10.759689040987507"><ele>120.0</ele><time>2026-05-01T15:02:01.001Z</time></trkpt><trkpt lat="45.46499251164121" lon="10.759555158711718"><ele>118.0</ele><time>2026-05-01T15:02:02.001Z</time></trkpt><trkpt lat="45.46476062150938" lon="10.75941655052436"><ele>117.5</ele><time>2026-05-01T15:02:03.001Z</time></trkpt><trkpt lat="45.46453019990339" lon="10.759262356130856"><ele>117.0</ele><time>2026-05-01T15:02:04.001Z</time></trkpt><trkpt lat="45.46430645110691" lon="10.759099634117604"><ele>117.0</ele><time>2026-05-01T15:02:05.001Z</time></trkpt><trkpt lat="45.46407464814862" lon="10.75892472756431"><ele>117.0</ele><time>2026-05-01T15:02:06.001Z</time></trkpt><trkpt lat="45.4638332146879" lon="10.758733138474406"><ele>117.0</ele><time>2026-05-01T15:02:07.001Z</time></trkpt><trkpt lat="45.46359564428588" lon="10.758543895736814"><ele>117.0</ele><time>2026-05-01T15:02:08.001Z</time></trkpt><trkpt lat="45.46335994394381" lon="10.758358972982283"><ele>117.0</ele><time>2026-05-01T15:02:09.001Z</time></trkpt><trkpt lat="45.46312061375832" lon="10.758181452159475"><ele>117.0</ele><time>2026-05-01T15:02:10.001Z</time></trkpt><trkpt lat="45.462883042812905" lon="10.7580016392498"><ele>116.0</ele><time>2026-05-01T15:02:11.001Z</time></trkpt><trkpt lat="45.462647451345475" lon="10.757815594244205"><ele>115.0</ele><time>2026-05-01T15:02:12.001Z</time></trkpt><trkpt lat="45.46240836232542" lon="10.75761729731485"><ele>114.5</ele><time>2026-05-01T15:02:13.001Z</time></trkpt><trkpt lat="45.46217256172562" lon="10.757426369259703"><ele>114.0</ele><time>2026-05-01T15:02:14.001Z</time></trkpt><trkpt lat="45.46193058608665" lon="10.757230662678797"><ele>113.5</ele><time>2026-05-01T15:02:15.001Z</time></trkpt><trkpt lat="45.46169088833219" lon="10.757035371295387"><ele>113.0</ele><time>2026-05-01T15:02:16.001Z</time></trkpt><trkpt lat="45.46145170526203" lon="10.756841768190164"><ele>112.5</ele><time>2026-05-01T15:02:17.001Z</time></trkpt><trkpt lat="45.46121145565611" lon="10.756639858752363"><ele>112.0</ele><time>2026-05-01T15:02:18.001Z</time></trkpt><trkpt lat="45.46097060570035" lon="10.756439635487867"><ele>112.0</ele><time>2026-05-01T15:02:19.001Z</time></trkpt><trkpt lat="45.46073111547392" lon="10.756241301537813"><ele>112.0</ele><time>2026-05-01T15:02:20.001Z</time></trkpt><trkpt lat="45.46047942350465" lon="10.756048826114226"><ele>112.0</ele><time>2026-05-01T15:02:21.001Z</time></trkpt><trkpt lat="45.46023953498843" lon="10.755858002236302"><ele>112.0</ele><time>2026-05-01T15:02:22.001Z</time></trkpt><trkpt lat="45.45999571603921" lon="10.75566883872769"><ele>112.0</ele><time>2026-05-01T15:02:23.001Z</time></trkpt><trkpt lat="45.459755667032695" lon="10.755478662667405"><ele>112.0</ele><time>2026-05-01T15:02:24.001Z</time></trkpt><trkpt lat="45.45951081543607" lon="10.755285580609653"><ele>110.0</ele><time>2026-05-01T15:02:25.001Z</time></trkpt><trkpt lat="45.45927476749264" lon="10.75508905602505"><ele>108.0</ele><time>2026-05-01T15:02:26.001Z</time></trkpt><trkpt lat="45.45903527391336" lon="10.754891313415984"><ele>108.0</ele><time>2026-05-01T15:02:27.001Z</time></trkpt><trkpt lat="45.458798608511835" lon="10.754697870587272"><ele>108.0</ele><time>2026-05-01T15:02:28.001Z</time></trkpt><trkpt lat="45.458562780075525" lon="10.754508011354263"><ele>107.0</ele><time>2026-05-01T15:02:29.001Z</time></trkpt><trkpt lat="45.45832363207985" lon="10.754321748815237"><ele>106.0</ele><time>2026-05-01T15:02:30.001Z</time></trkpt><trkpt lat="45.458084655833844" lon="10.754133352384455"><ele>106.5</ele><time>2026-05-01T15:02:31.001Z</time></trkpt><trkpt lat="45.45784834004038" lon="10.7539446198557"><ele>107.0</ele><time>2026-05-01T15:02:32.001Z</time></trkpt><trkpt lat="45.457610913492" lon="10.753757676412956"><ele>107.0</ele><time>2026-05-01T15:02:33.001Z</time></trkpt><trkpt lat="45.45737478251673" lon="10.753565407357842"><ele>107.0</ele><time>2026-05-01T15:02:34.001Z</time></trkpt><trkpt lat="45.45713576395635" lon="10.753380148681854"><ele>105.5</ele><time>2026-05-01T15:02:35.001Z</time></trkpt><trkpt lat="45.45690152159186" lon="10.753194244661367"><ele>104.0</ele><time>2026-05-01T15:02:36.001Z</time></trkpt><trkpt lat="45.45666620543027" lon="10.753009122900163"><ele>104.0</ele><time>2026-05-01T15:02:37.001Z</time></trkpt><trkpt lat="45.456430880177045" lon="10.752824668650153"><ele>104.0</ele><time>2026-05-01T15:02:38.001Z</time></trkpt><trkpt lat="45.45619766503204" lon="10.752641025996061"><ele>104.5</ele><time>2026-05-01T15:02:39.001Z</time></trkpt><trkpt lat="45.45596876927356" lon="10.75245461737667"><ele>105.0</ele><time>2026-05-01T15:02:40.001Z</time></trkpt><trkpt lat="45.455737030716776" lon="10.75226831467591"><ele>105.0</ele><time>2026-05-01T15:02:41.001Z</time></trkpt><trkpt lat="45.45550535529474" lon="10.752079048458528"><ele>105.0</ele><time>2026-05-01T15:02:42.001Z</time></trkpt><trkpt lat="45.45527555231788" lon="10.75189159733128"><ele>104.0</ele><time>2026-05-01T15:02:43.001Z</time></trkpt><trkpt lat="45.4550419187781" lon="10.751710448785811"><ele>103.0</ele><time>2026-05-01T15:02:44.001Z</time></trkpt><trkpt lat="45.454810476598986" lon="10.751529970694406"><ele>102.5</ele><time>2026-05-01T15:02:45.001Z</time></trkpt><trkpt lat="45.45457371471499" lon="10.75134939713354"><ele>102.0</ele><time>2026-05-01T15:02:46.001Z</time></trkpt><trkpt lat="45.45434297026763" lon="10.751165921747482"><ele>102.0</ele><time>2026-05-01T15:02:47.001Z</time></trkpt><trkpt lat="45.45411367478405" lon="10.750982538065719"><ele>102.0</ele><time>2026-05-01T15:02:48.001Z</time></trkpt><trkpt lat="45.453882388772925" lon="10.750800841928035"><ele>102.0</ele><time>2026-05-01T15:02:49.001Z</time></trkpt><trkpt lat="45.45364897515958" lon="10.750623836933975"><ele>102.0</ele><time>2026-05-01T15:02:50.001Z</time></trkpt><trkpt lat="45.453411389928455" lon="10.750455991662712"><ele>102.0</ele><time>2026-05-01T15:02:51.001Z</time></trkpt><trkpt lat="45.45317049481457" lon="10.750289538572897"><ele>102.0</ele><time>2026-05-01T15:02:52.001Z</time></trkpt><trkpt lat="45.4529234218325" lon="10.750137313304483"><ele>102.0</ele><time>2026-05-01T15:02:53.001Z</time></trkpt><trkpt lat="45.452677015211535" lon="10.749989485780763"><ele>102.0</ele><time>2026-05-01T15:02:54.001Z</time></trkpt><trkpt lat="45.45243128169617" lon="10.749843376604163"><ele>102.0</ele><time>2026-05-01T15:02:55.001Z</time></trkpt><trkpt lat="45.452182121215984" lon="10.749704349789642"><ele>102.0</ele><time>2026-05-01T15:02:56.001Z</time></trkpt><trkpt lat="45.45193178065211" lon="10.74956881723067"><ele>102.5</ele><time>2026-05-01T15:02:57.001Z</time></trkpt><trkpt lat="45.45167982253023" lon="10.749439261280424"><ele>103.0</ele><time>2026-05-01T15:02:58.001Z</time></trkpt><trkpt lat="45.45142563352413" lon="10.7493187293302"><ele>103.0</ele><time>2026-05-01T15:02:59.001Z</time></trkpt><trkpt lat="45.451170806159816" lon="10.749197707415108"><ele>103.0</ele><time>2026-05-01T15:03:00.001Z</time></trkpt><trkpt lat="45.45091761419864" lon="10.749078498358497"><ele>103.0</ele><time>2026-05-01T15:03:01.001Z</time></trkpt><trkpt lat="45.45066429289951" lon="10.748952897465882"><ele>103.0</ele><time>2026-05-01T15:03:02.001Z</time></trkpt><trkpt lat="45.4504133269619" lon="10.748829466110434"><ele>103.0</ele><time>2026-05-01T15:03:03.001Z</time></trkpt><trkpt lat="45.45016259489977" lon="10.748703687023504"><ele>103.0</ele><time>2026-05-01T15:03:04.001Z</time></trkpt><trkpt lat="45.44991258838874" lon="10.748577059847976"><ele>102.5</ele><time>2026-05-01T15:03:05.001Z</time></trkpt><trkpt lat="45.44966384591678" lon="10.7484547222188"><ele>102.0</ele><time>2026-05-01T15:03:06.002Z</time></trkpt><trkpt lat="45.44941234724919" lon="10.748334145740856"><ele>102.0</ele><time>2026-05-01T15:03:07.002Z</time></trkpt><trkpt lat="45.44916441805141" lon="10.748209857359475"><ele>102.0</ele><time>2026-05-01T15:03:08.002Z</time></trkpt><trkpt lat="45.44891563715529" lon="10.748089382779419"><ele>102.0</ele><time>2026-05-01T15:03:09.002Z</time></trkpt><trkpt lat="45.44866815361304" lon="10.747965898488411"><ele>102.0</ele><time>2026-05-01T15:03:10.002Z</time></trkpt><trkpt lat="45.44842322362391" lon="10.747848068590617"><ele>102.0</ele><time>2026-05-01T15:03:11.002Z</time></trkpt><trkpt lat="45.44817501201992" lon="10.747728760461763"><ele>102.0</ele><time>2026-05-01T15:03:12.002Z</time></trkpt><trkpt lat="45.44793193517727" lon="10.747608782105436"><ele>103.0</ele><time>2026-05-01T15:03:13.002Z</time></trkpt><trkpt lat="45.447690430653104" lon="10.747487907608711"><ele>104.0</ele><time>2026-05-01T15:03:14.002Z</time></trkpt><trkpt lat="45.447447798116784" lon="10.747367232745878"><ele>104.0</ele><time>2026-05-01T15:03:15.002Z</time></trkpt><trkpt lat="45.44720157113647" lon="10.747244833400154"><ele>104.0</ele><time>2026-05-01T15:03:16.002Z</time></trkpt><trkpt lat="45.44695807019899" lon="10.747124347178168"><ele>103.5</ele><time>2026-05-01T15:03:17.002Z</time></trkpt><trkpt lat="45.44671715522093" lon="10.747004931282035"><ele>103.0</ele><time>2026-05-01T15:03:18.002Z</time></trkpt><trkpt lat="45.44647414064912" lon="10.746878910409487"><ele>104.5</ele><time>2026-05-01T15:03:19.002Z</time></trkpt><trkpt lat="45.44623307551858" lon="10.746752985715096"><ele>106.0</ele><time>2026-05-01T15:03:20.002Z</time></trkpt><trkpt lat="45.445993262441824" lon="10.746625109091893"><ele>106.0</ele><time>2026-05-01T15:03:21.002Z</time></trkpt><trkpt lat="45.44574965165724" lon="10.746499642531377"><ele>106.0</ele><time>2026-05-01T15:03:22.002Z</time></trkpt><trkpt lat="45.44550989051484" lon="10.746377604961358"><ele>106.0</ele><time>2026-05-01T15:03:23.002Z</time></trkpt><trkpt lat="45.44526769258502" lon="10.746256348408885"><ele>106.0</ele><time>2026-05-01T15:03:24.002Z</time></trkpt><trkpt lat="45.44502672542637" lon="10.746135932596259"><ele>106.0</ele><time>2026-05-01T15:03:25.002Z</time></trkpt><trkpt lat="45.4447836073728" lon="10.746008665413088"><ele>106.0</ele><time>2026-05-01T15:03:26.002Z</time></trkpt><trkpt lat="45.44453948542758" lon="10.745887343769"><ele>106.0</ele><time>2026-05-01T15:03:27.002Z</time></trkpt><trkpt lat="45.44430040840243" lon="10.745770492119004"><ele>106.0</ele><time>2026-05-01T15:03:28.002Z</time></trkpt><trkpt lat="45.44406080165379" lon="10.745653590323185"><ele>106.0</ele><time>2026-05-01T15:03:29.002Z</time></trkpt><trkpt lat="45.443822738440474" lon="10.745536471343902"><ele>106.0</ele><time>2026-05-01T15:03:30.002Z</time></trkpt><trkpt lat="45.44358479315912" lon="10.745417521763782"><ele>106.5</ele><time>2026-05-01T15:03:31.002Z</time></trkpt><trkpt lat="45.4433458139459" lon="10.745300261094052"><ele>107.0</ele><time>2026-05-01T15:03:32.002Z</time></trkpt><trkpt lat="45.44311085806113" lon="10.745184264099828"><ele>106.0</ele><time>2026-05-01T15:03:33.002Z</time></trkpt><trkpt lat="45.44287290432035" lon="10.745072095634704"><ele>105.0</ele><time>2026-05-01T15:03:34.002Z</time></trkpt><trkpt lat="45.442637324396784" lon="10.744960700873825"><ele>105.0</ele><time>2026-05-01T15:03:35.002Z</time></trkpt><trkpt lat="45.442405173133324" lon="10.744851127715034"><ele>105.0</ele><time>2026-05-01T15:03:36.002Z</time></trkpt><trkpt lat="45.44217760687303" lon="10.744748445773538"><ele>105.33333333333334</ele><time>2026-05-01T15:03:37.001Z</time></trkpt><trkpt lat="45.441968926976855" lon="10.744648529779735"><ele>105.66666666666667</ele><time>2026-05-01T15:03:38.001Z</time></trkpt><trkpt lat="45.441759303827595" lon="10.744540204285531"><ele>106.0</ele><time>2026-05-01T15:03:39.001Z</time></trkpt><trkpt lat="45.44154208122817" lon="10.744430924275585"><ele>106.0</ele><time>2026-05-01T15:03:40.001Z</time></trkpt><trkpt lat="45.44132404606616" lon="10.744315764479834"><ele>106.0</ele><time>2026-05-01T15:03:41.001Z</time></trkpt><trkpt lat="45.441108039566586" lon="10.744198739752626"><ele>105.66666666666667</ele><time>2026-05-01T15:03:42.001Z</time></trkpt><trkpt lat="45.44090510909532" lon="10.7440861063951"><ele>105.33333333333334</ele><time>2026-05-01T15:03:43.001Z</time></trkpt><trkpt lat="45.44070742660685" lon="10.743977108721433"><ele>105.0</ele><time>2026-05-01T15:03:44.001Z</time></trkpt><trkpt lat="45.440512608998695" lon="10.743872569026067"><ele>104.0</ele><time>2026-05-01T15:03:45.001Z</time></trkpt><trkpt lat="45.440316288754" lon="10.743769469604652"><ele>103.0</ele><time>2026-05-01T15:03:46.001Z</time></trkpt><trkpt lat="45.44012154456593" lon="10.743661430718024"><ele>102.0</ele><time>2026-05-01T15:03:47.001Z</time></trkpt><trkpt lat="45.439939855306264" lon="10.743551727477577"><ele>102.0</ele><time>2026-05-01T15:03:48.001Z</time></trkpt><trkpt lat="45.439761843615365" lon="10.74344338293617"><ele>102.0</ele><time>2026-05-01T15:03:49.001Z</time></trkpt><trkpt lat="45.43957945397002" lon="10.743340168088187"><ele>102.0</ele><time>2026-05-01T15:03:50.001Z</time></trkpt><trkpt lat="45.439397384913384" lon="10.743239837473661"><ele>102.0</ele><time>2026-05-01T15:03:51.001Z</time></trkpt><trkpt lat="45.43922527125739" lon="10.743146183529836"><ele>102.0</ele><time>2026-05-01T15:03:52.001Z</time></trkpt><trkpt lat="45.43906145806054" lon="10.743057160437417"><ele>102.0</ele><time>2026-05-01T15:03:53.001Z</time></trkpt><trkpt lat="45.43890605689817" lon="10.742976330968801"><ele>102.5</ele><time>2026-05-01T15:03:54.001Z</time></trkpt><trkpt lat="45.438770399108826" lon="10.742900065315931"><ele>103.0</ele><time>2026-05-01T15:03:55.001Z</time></trkpt><trkpt lat="45.4386458735295" lon="10.74283255856837"><ele>103.5</ele><time>2026-05-01T15:03:56.001Z</time></trkpt><trkpt lat="45.43853502525807" lon="10.742767738627345"><ele>104.0</ele><time>2026-05-01T15:03:57.001Z</time></trkpt><trkpt lat="45.438454569067446" lon="10.742729990539766"><ele>103.2</ele><time>2026-05-01T15:03:58.001Z</time></trkpt><trkpt lat="45.438392953845224" lon="10.742684402383533"><ele>102.4</ele><time>2026-05-01T15:03:59.001Z</time></trkpt><trkpt lat="45.43831130959259" lon="10.742623231586911"><ele>101.6</ele><time>2026-05-01T15:04:03.001Z</time></trkpt><trkpt lat="45.438235846118545" lon="10.742460993419568"><ele>100.8</ele><time>2026-05-01T15:04:05.001Z</time></trkpt><trkpt lat="45.43817611418077" lon="10.742354510915522"><ele>100.0</ele><time>2026-05-01T15:04:06.001Z</time></trkpt><trkpt lat="45.43810490978388" lon="10.74224062913658"><ele>100.0</ele><time>2026-05-01T15:04:07.001Z</time></trkpt><trkpt lat="45.43803024383504" lon="10.742136728450067"><ele>100.0</ele><time>2026-05-01T15:04:08.001Z</time></trkpt><trkpt lat="45.43793452657399" lon="10.742075766284207"><ele>100.0</ele><time>2026-05-01T15:04:09.001Z</time></trkpt><trkpt lat="45.43782855992892" lon="10.742100361591294"><ele>100.0</ele><time>2026-05-01T15:04:10.001Z</time></trkpt><trkpt lat="45.437733281946684" lon="10.74213135841561"><ele>100.0</ele><time>2026-05-01T15:04:11.001Z</time></trkpt><trkpt lat="45.43764102067493" lon="10.74215898197012"><ele>100.0</ele><time>2026-05-01T15:04:12.001Z</time></trkpt><trkpt lat="45.437566004302845" lon="10.742216980051728"><ele>100.0</ele><time>2026-05-01T15:04:13.001Z</time></trkpt><trkpt lat="45.43749766394416" lon="10.742265654971716"><ele>100.0</ele><time>2026-05-01T15:04:14.001Z</time></trkpt><trkpt lat="45.43743881412783" lon="10.742307570321907"><ele>100.0</ele><time>2026-05-01T15:04:15.001Z</time></trkpt><trkpt lat="45.43738030300135" lon="10.742349244443755"><ele>100.0</ele><time>2026-05-01T15:04:16.001Z</time></trkpt><trkpt lat="45.43740101293271" lon="10.742593260953974"><ele>100.00000000000001</ele><time>2026-05-01T15:04:17.001Z</time></trkpt><trkpt lat="45.43738669155022" lon="10.742688831729211"><ele>100.0</ele><time>2026-05-01T15:04:18.001Z</time></trkpt><trkpt lat="45.43737779899822" lon="10.74279106221652"><ele>100.0</ele><time>2026-05-01T15:04:19.001Z</time></trkpt><trkpt lat="45.43740266755212" lon="10.74291116028213"><ele>100.0</ele><time>2026-05-01T15:04:20.001Z</time></trkpt><trkpt lat="45.43743902166988" lon="10.743029831357267"><ele>100.00000000000001</ele><time>2026-05-01T15:04:21.001Z</time></trkpt><trkpt lat="45.43749718635175" lon="10.743130202548858"><ele>100.0</ele><time>2026-05-01T15:04:22.001Z</time></trkpt><trkpt lat="45.43756016669188" lon="10.743236558148602"><ele>100.4</ele><time>2026-05-01T15:04:23.001Z</time></trkpt><trkpt lat="45.437634088003556" lon="10.743337565082966"><ele>100.8</ele><time>2026-05-01T15:04:24.001Z</time></trkpt><trkpt lat="45.43771142633499" lon="10.743435065555477"><ele>101.19999999999999</ele><time>2026-05-01T15:04:25.001Z</time></trkpt><trkpt lat="45.437785913581116" lon="10.743537052074116"><ele>101.6</ele><time>2026-05-01T15:04:26.001Z</time></trkpt><trkpt lat="45.43783994058065" lon="10.743642118674607"><ele>102.0</ele><time>2026-05-01T15:04:27.001Z</time></trkpt><trkpt lat="45.437884621260835" lon="10.743764182258328"><ele>102.39999999999999</ele><time>2026-05-01T15:04:28.001Z</time></trkpt><trkpt lat="45.43790750621212" lon="10.743903251516135"><ele>102.8</ele><time>2026-05-01T15:04:29.001Z</time></trkpt><trkpt lat="45.437923489902325" lon="10.744056354194154"><ele>103.2</ele><time>2026-05-01T15:04:30.001Z</time></trkpt><trkpt lat="45.437933917669156" lon="10.744211491775344"><ele>103.6</ele><time>2026-05-01T15:04:31.001Z</time></trkpt><trkpt lat="45.43792182024376" lon="10.744371924226161"><ele>104.0</ele><time>2026-05-01T15:04:32.001Z</time></trkpt><trkpt lat="45.43792346425021" lon="10.744533515960516"><ele>105.25</ele><time>2026-05-01T15:04:33.001Z</time></trkpt><trkpt lat="45.43792574165215" lon="10.744697941422867"><ele>106.5</ele><time>2026-05-01T15:04:34.001Z</time></trkpt><trkpt lat="45.4379289334926" lon="10.744856044135869"><ele>107.75</ele><time>2026-05-01T15:04:35.001Z</time></trkpt><trkpt lat="45.43793202209447" lon="10.7450125763454"><ele>109.0</ele><time>2026-05-01T15:04:36.001Z</time></trkpt><trkpt lat="45.43793432779125" lon="10.745177009001152"><ele>108.75</ele><time>2026-05-01T15:04:37.001Z</time></trkpt><trkpt lat="45.437936598038455" lon="10.745349376137192"><ele>108.5</ele><time>2026-05-01T15:04:38.001Z</time></trkpt><trkpt lat="45.437938774459894" lon="10.745528800061777"><ele>108.25</ele><time>2026-05-01T15:04:39.001Z</time></trkpt><trkpt lat="45.43794098467966" lon="10.745711010681946"><ele>108.0</ele><time>2026-05-01T15:04:40.001Z</time></trkpt><trkpt lat="45.43794321007781" lon="10.74589447195011"><ele>107.25</ele><time>2026-05-01T15:04:41.001Z</time></trkpt><trkpt lat="45.43794592247323" lon="10.746083445791758"><ele>106.5</ele><time>2026-05-01T15:04:42.001Z</time></trkpt><trkpt lat="45.43794861904358" lon="10.746271970752181"><ele>105.75</ele><time>2026-05-01T15:04:43.001Z</time></trkpt><trkpt lat="45.43795120562624" lon="10.746452805904054"><ele>105.0</ele><time>2026-05-01T15:04:44.001Z</time></trkpt><trkpt lat="45.43795384537849" lon="10.74663735849894"><ele>105.5</ele><time>2026-05-01T15:04:45.001Z</time></trkpt><trkpt lat="45.437972582663164" lon="10.746824212741142"><ele>106.0</ele><time>2026-05-01T15:04:46.001Z</time></trkpt><trkpt lat="45.4379689308482" lon="10.747014273881552"><ele>106.5</ele><time>2026-05-01T15:04:47.001Z</time></trkpt><trkpt lat="45.43797130337051" lon="10.747204803743676"><ele>107.0</ele><time>2026-05-01T15:04:48.001Z</time></trkpt><trkpt lat="45.43797464469576" lon="10.747393648806927"><ele>105.75</ele><time>2026-05-01T15:04:49.001Z</time></trkpt><trkpt lat="45.43797787219415" lon="10.747583088485825"><ele>104.5</ele><time>2026-05-01T15:04:50.001Z</time></trkpt><trkpt lat="45.43798236050913" lon="10.747770581305655"><ele>103.25</ele><time>2026-05-01T15:04:51.001Z</time></trkpt><trkpt lat="45.43798525946165" lon="10.747972718018426"><ele>102.0</ele><time>2026-05-01T15:04:52.001Z</time></trkpt><trkpt lat="45.43799291340888" lon="10.748226676776731"><ele>102.0</ele><time>2026-05-01T15:04:53.001Z</time></trkpt><trkpt lat="45.43799528503458" lon="10.74854383911078"><ele>102.0</ele><time>2026-05-01T15:04:54.001Z</time></trkpt><trkpt lat="45.437991037637694" lon="10.748862745534725"><ele>102.0</ele><time>2026-05-01T15:04:55.001Z</time></trkpt><trkpt lat="45.437985641799635" lon="10.74918593188779"><ele>102.0</ele><time>2026-05-01T15:04:56.001Z</time></trkpt><trkpt lat="45.43798973329555" lon="10.749493703212357"><ele>102.0</ele><time>2026-05-01T15:04:57.001Z</time></trkpt><trkpt lat="45.43799149300807" lon="10.749767420310093"><ele>102.0</ele><time>2026-05-01T15:04:58.001Z</time></trkpt><trkpt lat="45.43799520781548" lon="10.750023125090818"><ele>101.33333333333334</ele><time>2026-05-01T15:04:59.001Z</time></trkpt><trkpt lat="45.43800092158213" lon="10.75026607439794"><ele>100.66666666666667</ele><time>2026-05-01T15:05:00.001Z</time></trkpt><trkpt lat="45.438006230793526" lon="10.750491709962866"><ele>100.0</ele><time>2026-05-01T15:05:01.001Z</time></trkpt><trkpt lat="45.43801115202731" lon="10.750696328380739"><ele>100.0</ele><time>2026-05-01T15:05:02.001Z</time></trkpt><trkpt lat="45.43801301657274" lon="10.750881346069034"><ele>100.0</ele><time>2026-05-01T15:05:03.001Z</time></trkpt><trkpt lat="45.438017147865175" lon="10.75105290240581"><ele>100.0</ele><time>2026-05-01T15:05:04.001Z</time></trkpt><trkpt lat="45.43802092661423" lon="10.751192915601738"><ele>100.0</ele><time>2026-05-01T15:05:05.001Z</time></trkpt><trkpt lat="45.438022432483436" lon="10.751326294212728"><ele>100.0</ele><time>2026-05-01T15:05:06.001Z</time></trkpt><trkpt lat="45.43802314468389" lon="10.751460144325671"><ele>100.2</ele><time>2026-05-01T15:05:07.001Z</time></trkpt><trkpt lat="45.438018835339854" lon="10.75156736519378"><ele>100.4</ele><time>2026-05-01T15:05:08.001Z</time></trkpt><trkpt lat="45.437995973369034" lon="10.751725791195756"><ele>100.6</ele><time>2026-05-01T15:05:10.001Z</time></trkpt><trkpt lat="45.437916812302475" lon="10.75186608621944"><ele>100.8</ele><time>2026-05-01T15:05:12.001Z</time></trkpt><trkpt lat="45.43787313484668" lon="10.752018443307316"><ele>101.0</ele><time>2026-05-01T15:05:14.001Z</time></trkpt><trkpt lat="45.43787750354334" lon="10.752110267910927"><ele>100.99999999999999</ele><time>2026-05-01T15:05:15.001Z</time></trkpt><trkpt lat="45.43790814597867" lon="10.752203170251567"><ele>101.0</ele><time>2026-05-01T15:05:16.001Z</time></trkpt><trkpt lat="45.43794893797699" lon="10.752289037761917"><ele>101.0</ele><time>2026-05-01T15:05:17.001Z</time></trkpt><trkpt lat="45.43798217048595" lon="10.752375937391687"><ele>101.0</ele><time>2026-05-01T15:05:18.001Z</time></trkpt><trkpt lat="45.4380066846572" lon="10.752481785842956"><ele>100.99999999999999</ele><time>2026-05-01T15:05:19.001Z</time></trkpt><trkpt lat="45.4380241009273" lon="10.752597418359157"><ele>101.0</ele><time>2026-05-01T15:05:20.001Z</time></trkpt><trkpt lat="45.438031433472176" lon="10.752725421551316"><ele>101.0</ele><time>2026-05-01T15:05:21.001Z</time></trkpt><trkpt lat="45.438035630115095" lon="10.752856643867876"><ele>101.0</ele><time>2026-05-01T15:05:22.001Z</time></trkpt><trkpt lat="45.438039910859395" lon="10.752983906216116"><ele>101.0</ele><time>2026-05-01T15:05:23.001Z</time></trkpt><trkpt lat="45.438044067022574" lon="10.75310897097975"><ele>101.0</ele><time>2026-05-01T15:05:24.001Z</time></trkpt><trkpt lat="45.438047460587136" lon="10.753239563706178"><ele>101.0</ele><time>2026-05-01T15:05:25.001Z</time></trkpt><trkpt lat="45.4380507539549" lon="10.753369780267114"><ele>101.0</ele><time>2026-05-01T15:05:26.001Z</time></trkpt><trkpt lat="45.438056580907805" lon="10.753500042820807"><ele>101.0</ele><time>2026-05-01T15:05:27.001Z</time></trkpt><trkpt lat="45.4380463940223" lon="10.753650422502085"><ele>101.0</ele><time>2026-05-01T15:05:28.001Z</time></trkpt><trkpt lat="45.438049513235576" lon="10.753816016490184"><ele>101.0</ele><time>2026-05-01T15:05:29.001Z</time></trkpt><trkpt lat="45.438053530630505" lon="10.754000548447339"><ele>101.0</ele><time>2026-05-01T15:05:30.001Z</time></trkpt><trkpt lat="45.43805935403495" lon="10.754198400828269"><ele>101.66666666666666</ele><time>2026-05-01T15:05:31.001Z</time></trkpt><trkpt lat="45.438065653969815" lon="10.754412444664528"><ele>102.33333333333334</ele><time>2026-05-01T15:05:32.001Z</time></trkpt><trkpt lat="45.4380756464866" lon="10.754637918591067"><ele>103.0</ele><time>2026-05-01T15:05:33.001Z</time></trkpt><trkpt lat="45.43808558535048" lon="10.754873232640703"><ele>103.0</ele><time>2026-05-01T15:05:34.001Z</time></trkpt><trkpt lat="45.43809667759781" lon="10.755103540528522"><ele>103.0</ele><time>2026-05-01T15:05:35.002Z</time></trkpt><trkpt lat="45.43810675658262" lon="10.755316381423922"><ele>103.0</ele><time>2026-05-01T15:05:36.002Z</time></trkpt><trkpt lat="45.438116255212655" lon="10.755531926291937"><ele>103.0</ele><time>2026-05-01T15:05:37.002Z</time></trkpt><trkpt lat="45.43814132389214" lon="10.755743924916867"><ele>103.0</ele><time>2026-05-01T15:05:38.002Z</time></trkpt><trkpt lat="45.43814522407188" lon="10.755964039590305"><ele>103.0</ele><time>2026-05-01T15:05:39.002Z</time></trkpt><trkpt lat="45.43815226376172" lon="10.756190190916142"><ele>102.66666666666667</ele><time>2026-05-01T15:05:40.002Z</time></trkpt><trkpt lat="45.43816100636334" lon="10.756420750475558"><ele>102.33333333333334</ele><time>2026-05-01T15:05:41.002Z</time></trkpt><trkpt lat="45.438170318778965" lon="10.756654591295504"><ele>102.0</ele><time>2026-05-01T15:05:42.002Z</time></trkpt><trkpt lat="45.43817606311777" lon="10.756866355958287"><ele>102.0</ele><time>2026-05-01T15:05:43Z</time></trkpt><trkpt lat="45.43818503339153" lon="10.757066340459177"><ele>102.0</ele><time>2026-05-01T15:05:44Z</time></trkpt><trkpt lat="45.43819295534008" lon="10.757248322674418"><ele>102.0</ele><time>2026-05-01T15:05:45Z</time></trkpt><trkpt lat="45.43820055431028" lon="10.757416853364143"><ele>102.0</ele><time>2026-05-01T15:05:46Z</time></trkpt><trkpt lat="45.438204732882134" lon="10.757567301114241"><ele>102.19999999999999</ele><time>2026-05-01T15:05:47Z</time></trkpt><trkpt lat="45.438212039272074" lon="10.757702421961481"><ele>102.4</ele><time>2026-05-01T15:05:48Z</time></trkpt><trkpt lat="45.43821972861614" lon="10.757836964867202"><ele>102.6</ele><time>2026-05-01T15:05:49Z</time></trkpt><trkpt lat="45.43822606634196" lon="10.757959238926663"><ele>102.80000000000001</ele><time>2026-05-01T15:05:50Z</time></trkpt><trkpt lat="45.43823288762952" lon="10.758084278138503"><ele>103.0</ele><time>2026-05-01T15:05:51Z</time></trkpt><trkpt lat="45.438240602837375" lon="10.758207734413539"><ele>103.0</ele><time>2026-05-01T15:05:52Z</time></trkpt><trkpt lat="45.43824858957008" lon="10.758332733011398"><ele>103.0</ele><time>2026-05-01T15:05:53Z</time></trkpt><trkpt lat="45.43825578556785" lon="10.758447170071094"><ele>103.0</ele><time>2026-05-01T15:05:54Z</time></trkpt><trkpt lat="45.43826244847716" lon="10.758566206500781"><ele>103.0</ele><time>2026-05-01T15:05:55Z</time></trkpt><trkpt lat="45.43826587609394" lon="10.758702999834163"><ele>103.0</ele><time>2026-05-01T15:05:56Z</time></trkpt><trkpt lat="45.43827562272384" lon="10.758849855838616"><ele>102.66666666666667</ele><time>2026-05-01T15:05:57Z</time></trkpt><trkpt lat="45.43828511663885" lon="10.758988205088503"><ele>102.33333333333334</ele><time>2026-05-01T15:05:58Z</time></trkpt><trkpt lat="45.43828906706429" lon="10.759114005694524"><ele>102.0</ele><time>2026-05-01T15:05:59Z</time></trkpt><trkpt lat="45.43829644889799" lon="10.759234112042023"><ele>101.66666666666666</ele><time>2026-05-01T15:06:00Z</time></trkpt><trkpt lat="45.438296638224315" lon="10.759346414932521"><ele>101.33333333333333</ele><time>2026-05-01T15:06:01Z</time></trkpt><trkpt lat="45.438299901298365" lon="10.759467733167904"><ele>101.0</ele><time>2026-05-01T15:06:02Z</time></trkpt><trkpt lat="45.438301658714295" lon="10.75960415107261"><ele>100.83333333333333</ele><time>2026-05-01T15:06:03Z</time></trkpt><trkpt lat="45.438308173153196" lon="10.759740635243952"><ele>100.66666666666666</ele><time>2026-05-01T15:06:04Z</time></trkpt><trkpt lat="45.43831161933872" lon="10.759876115875585"><ele>100.5</ele><time>2026-05-01T15:06:05Z</time></trkpt><trkpt lat="45.438314359689585" lon="10.760003799266942"><ele>100.33333333333334</ele><time>2026-05-01T15:06:06Z</time></trkpt><trkpt lat="45.43831869796718" lon="10.760094891451628"><ele>100.16666666666667</ele><time>2026-05-01T15:06:07Z</time></trkpt><trkpt lat="45.43831551660912" lon="10.760212044093965"><ele>100.0</ele><time>2026-05-01T15:06:09Z</time></trkpt><trkpt lat="45.43827389478611" lon="10.760341883392755"><ele>100.33333333333334</ele><time>2026-05-01T15:06:13Z</time></trkpt><trkpt lat="45.438217762540255" lon="10.760392783425612"><ele>100.66666666666667</ele><time>2026-05-01T15:06:14Z</time></trkpt><trkpt lat="45.43813950905632" lon="10.76041336889951"><ele>101.0</ele><time>2026-05-01T15:06:15Z</time></trkpt><trkpt lat="45.438061032947125" lon="10.760409365375468"><ele>101.33333333333334</ele><time>2026-05-01T15:06:16Z</time></trkpt><trkpt lat="45.43798796878499" lon="10.760383236648627"><ele>101.66666666666667</ele><time>2026-05-01T15:06:17Z</time></trkpt><trkpt lat="45.437909026853276" lon="10.760332938061682"><ele>102.0</ele><time>2026-05-01T15:06:18Z</time></trkpt><trkpt lat="45.43781926783064" lon="10.76028042994079"><ele>102.0</ele><time>2026-05-01T15:06:19Z</time></trkpt><trkpt lat="45.437716610004934" lon="10.760215219466843"><ele>102.0</ele><time>2026-05-01T15:06:20Z</time></trkpt><trkpt lat="45.43760818576593" lon="10.760153806825997"><ele>102.0</ele><time>2026-05-01T15:06:21Z</time></trkpt><trkpt lat="45.43748862966568" lon="10.760099914685412"><ele>102.0</ele><time>2026-05-01T15:06:22Z</time></trkpt><trkpt lat="45.43735908910406" lon="10.76005633965336"><ele>102.0</ele><time>2026-05-01T15:06:23Z</time></trkpt><trkpt lat="45.43722764120969" lon="10.760024316589247"><ele>102.0</ele><time>2026-05-01T15:06:24Z</time></trkpt><trkpt lat="45.437099511385455" lon="10.76001312151846"><ele>102.0</ele><time>2026-05-01T15:06:25Z</time></trkpt><trkpt lat="45.43698325690954" lon="10.760019288488401"><ele>102.0</ele><time>2026-05-01T15:06:26Z</time></trkpt><trkpt lat="45.436870563773496" lon="10.760039227818174"><ele>102.5</ele><time>2026-05-01T15:06:27.001Z</time></trkpt><trkpt lat="45.436758995778845" lon="10.76005215983245"><ele>103.0</ele><time>2026-05-01T15:06:28.001Z</time></trkpt><trkpt lat="45.43664790106886" lon="10.760066296857042"><ele>103.5</ele><time>2026-05-01T15:06:29.001Z</time></trkpt><trkpt lat="45.43653369034151" lon="10.760078599914928"><ele>104.0</ele><time>2026-05-01T15:06:30.001Z</time></trkpt><trkpt lat="45.43641435407501" lon="10.760093021906508"><ele>104.4</ele><time>2026-05-01T15:06:31.001Z</time></trkpt><trkpt lat="45.43629873964726" lon="10.760108595095387"><ele>104.80000000000001</ele><time>2026-05-01T15:06:32.001Z</time></trkpt><trkpt lat="45.43619008021376" lon="10.760124791998717"><ele>105.19999999999999</ele><time>2026-05-01T15:06:33.001Z</time></trkpt><trkpt lat="45.4360743072899" lon="10.760133009495433"><ele>105.6</ele><time>2026-05-01T15:06:34.001Z</time></trkpt><trkpt lat="45.43596957430542" lon="10.760139882197205"><ele>106.0</ele><time>2026-05-01T15:06:35.001Z</time></trkpt><trkpt lat="45.43585208899968" lon="10.76014410362572"><ele>106.0</ele><time>2026-05-01T15:06:36.001Z</time></trkpt><trkpt lat="45.43572213872807" lon="10.760132404653335"><ele>106.0</ele><time>2026-05-01T15:06:37.001Z</time></trkpt><trkpt lat="45.43560118974435" lon="10.760103451599875"><ele>106.0</ele><time>2026-05-01T15:06:38.001Z</time></trkpt><trkpt lat="45.43548075563358" lon="10.760081454237998"><ele>106.0</ele><time>2026-05-01T15:06:39.001Z</time></trkpt><trkpt lat="45.43536327103309" lon="10.760057005774685"><ele>106.0</ele><time>2026-05-01T15:06:40.001Z</time></trkpt><trkpt lat="45.435257867051455" lon="10.76001556785668"><ele>106.0</ele><time>2026-05-01T15:06:41.001Z</time></trkpt><trkpt lat="45.43513834183767" lon="10.760009090912158"><ele>106.0</ele><time>2026-05-01T15:06:42.001Z</time></trkpt><trkpt lat="45.435019313127846" lon="10.759983830272652"><ele>106.0</ele><time>2026-05-01T15:06:43.001Z</time></trkpt><trkpt lat="45.43491926167051" lon="10.759968980952378"><ele>106.0</ele><time>2026-05-01T15:06:44.001Z</time></trkpt><trkpt lat="45.4348154347953" lon="10.759979254899198"><ele>106.0</ele><time>2026-05-01T15:06:45.001Z</time></trkpt><trkpt lat="45.434713996855535" lon="10.759984926818223"><ele>106.0</ele><time>2026-05-01T15:06:46.001Z</time></trkpt><trkpt lat="45.434604317335186" lon="10.759997542694396"><ele>106.0</ele><time>2026-05-01T15:06:47.001Z</time></trkpt><trkpt lat="45.43450020470119" lon="10.760012661907322"><ele>106.0</ele><time>2026-05-01T15:06:48.001Z</time></trkpt><trkpt lat="45.43440011245647" lon="10.76002413316273"><ele>105.6</ele><time>2026-05-01T15:06:49.001Z</time></trkpt><trkpt lat="45.43429509011131" lon="10.760035252360538"><ele>105.19999999999999</ele><time>2026-05-01T15:06:50.001Z</time></trkpt><trkpt lat="45.4341942862098" lon="10.760035995644564"><ele>104.80000000000001</ele><time>2026-05-01T15:06:51.001Z</time></trkpt><trkpt lat="45.434095757009864" lon="10.76003422214559"><ele>104.4</ele><time>2026-05-01T15:06:52.001Z</time></trkpt><trkpt lat="45.43399976259219" lon="10.760031909420302"><ele>104.0</ele><time>2026-05-01T15:06:53.001Z</time></trkpt><trkpt lat="45.43390607198169" lon="10.760027797453342"><ele>104.0</ele><time>2026-05-01T15:06:54.001Z</time></trkpt><trkpt lat="45.433813401310275" lon="10.760007883707488"><ele>104.0</ele><time>2026-05-01T15:06:55.001Z</time></trkpt><trkpt lat="45.433718234198764" lon="10.759978700941252"><ele>104.0</ele><time>2026-05-01T15:06:56.001Z</time></trkpt><trkpt lat="45.43361998717949" lon="10.759935482478229"><ele>104.0</ele><time>2026-05-01T15:06:57.001Z</time></trkpt><trkpt lat="45.4335214974635" lon="10.759868064479601"><ele>104.0</ele><time>2026-05-01T15:06:58.001Z</time></trkpt><trkpt lat="45.433423156724785" lon="10.759783772744617"><ele>103.80000000000001</ele><time>2026-05-01T15:06:59.001Z</time></trkpt><trkpt lat="45.433322832592545" lon="10.759693582153789"><ele>103.60000000000001</ele><time>2026-05-01T15:07:00.001Z</time></trkpt><trkpt lat="45.43322768669356" lon="10.75960777684512"><ele>103.4</ele><time>2026-05-01T15:07:01.001Z</time></trkpt><trkpt lat="45.43313893983071" lon="10.75952405486841"><ele>103.2</ele><time>2026-05-01T15:07:02.001Z</time></trkpt><trkpt lat="45.433049479515454" lon="10.759441659684216"><ele>103.0</ele><time>2026-05-01T15:07:03.001Z</time></trkpt><trkpt lat="45.43296404910223" lon="10.759362986945993"><ele>103.0</ele><time>2026-05-01T15:07:04.001Z</time></trkpt><trkpt lat="45.43287358661205" lon="10.759287006658505"><ele>103.0</ele><time>2026-05-01T15:07:05.001Z</time></trkpt><trkpt lat="45.43278207979423" lon="10.759210937048952"><ele>103.0</ele><time>2026-05-01T15:07:06.001Z</time></trkpt><trkpt lat="45.432701766621456" lon="10.759138941067345"><ele>103.0</ele><time>2026-05-01T15:07:07.001Z</time></trkpt><trkpt lat="45.43260978152268" lon="10.759065406239088"><ele>103.0</ele><time>2026-05-01T15:07:08.001Z</time></trkpt><trkpt lat="45.43253208082322" lon="10.758962374633148"><ele>103.0</ele><time>2026-05-01T15:07:09.001Z</time></trkpt><trkpt lat="45.43243525693823" lon="10.758875871325282"><ele>103.0</ele><time>2026-05-01T15:07:10.001Z</time></trkpt><trkpt lat="45.43232082835978" lon="10.758775470606878"><ele>103.0</ele><time>2026-05-01T15:07:11.001Z</time></trkpt><trkpt lat="45.432176988049896" lon="10.758662434865476"><ele>103.0</ele><time>2026-05-01T15:07:12.001Z</time></trkpt><trkpt lat="45.43202272381436" lon="10.758559621871967"><ele>103.0</ele><time>2026-05-01T15:07:13.001Z</time></trkpt><trkpt lat="45.43186899747814" lon="10.75849885094506"><ele>103.0</ele><time>2026-05-01T15:07:14.001Z</time></trkpt><trkpt lat="45.43174187591318" lon="10.758414124659291"><ele>103.0</ele><time>2026-05-01T15:07:15.001Z</time></trkpt><trkpt lat="45.431622855336165" lon="10.758335893649017"><ele>103.0</ele><time>2026-05-01T15:07:16.001Z</time></trkpt><trkpt lat="45.43151105124247" lon="10.758269753644457"><ele>103.0</ele><time>2026-05-01T15:07:17.001Z</time></trkpt><trkpt lat="45.431392716031795" lon="10.758207668426282"><ele>103.0</ele><time>2026-05-01T15:07:18.001Z</time></trkpt><trkpt lat="45.43123166891552" lon="10.758143617336023"><ele>103.0</ele><time>2026-05-01T15:07:19.001Z</time></trkpt><trkpt lat="45.431046261365175" lon="10.758090982969842"><ele>103.25</ele><time>2026-05-01T15:07:20.001Z</time></trkpt><trkpt lat="45.43088212081983" lon="10.758049599717749"><ele>103.5</ele><time>2026-05-01T15:07:21.001Z</time></trkpt><trkpt lat="45.43074346020867" lon="10.758005139007153"><ele>103.75</ele><time>2026-05-01T15:07:22.001Z</time></trkpt><trkpt lat="45.43061543273745" lon="10.757933510279736"><ele>104.0</ele><time>2026-05-01T15:07:23.001Z</time></trkpt><trkpt lat="45.430495012832445" lon="10.757925771611756"><ele>103.5</ele><time>2026-05-01T15:07:24.001Z</time></trkpt><trkpt lat="45.43038737091783" lon="10.757876260200272"><ele>103.0</ele><time>2026-05-01T15:07:25.001Z</time></trkpt><trkpt lat="45.4302676456975" lon="10.75784089877567"><ele>102.5</ele><time>2026-05-01T15:07:26.001Z</time></trkpt><trkpt lat="45.43015681328868" lon="10.757795559257378"><ele>102.0</ele><time>2026-05-01T15:07:27.001Z</time></trkpt><trkpt lat="45.43004129678509" lon="10.75774040011987"><ele>102.19999999999999</ele><time>2026-05-01T15:07:28.001Z</time></trkpt><trkpt lat="45.42993386860762" lon="10.75769221897108"><ele>102.4</ele><time>2026-05-01T15:07:29.001Z</time></trkpt><trkpt lat="45.429830876069914" lon="10.757648589560377"><ele>102.6</ele><time>2026-05-01T15:07:30.001Z</time></trkpt><trkpt lat="45.42973712602577" lon="10.757611594919124"><ele>102.80000000000001</ele><time>2026-05-01T15:07:31.001Z</time></trkpt><trkpt lat="45.429650899801224" lon="10.757583021332595"><ele>103.0</ele><time>2026-05-01T15:07:32.001Z</time></trkpt><trkpt lat="45.42958151200351" lon="10.757557064474875"><ele>103.4</ele><time>2026-05-01T15:07:33.001Z</time></trkpt><trkpt lat="45.429516565954906" lon="10.757553236083346"><ele>103.80000000000001</ele><time>2026-05-01T15:07:34.001Z</time></trkpt><trkpt lat="45.429421335565856" lon="10.757461063005994"><ele>104.2</ele><time>2026-05-01T15:07:36.001Z</time></trkpt><trkpt lat="45.42932800908795" lon="10.757391057843826"><ele>104.6</ele><time>2026-05-01T15:07:38.001Z</time></trkpt><trkpt lat="45.42920321019475" lon="10.757423428210105"><ele>105.0</ele><time>2026-05-01T15:07:40.001Z</time></trkpt><trkpt lat="45.429138961866116" lon="10.757442509262225"><ele>105.0</ele><time>2026-05-01T15:07:41.001Z</time></trkpt><trkpt lat="45.429076210276044" lon="10.757451652265635"><ele>105.0</ele><time>2026-05-01T15:07:42.001Z</time></trkpt><trkpt lat="45.42901009052228" lon="10.757447298074519"><ele>105.0</ele><time>2026-05-01T15:07:43.001Z</time></trkpt><trkpt lat="45.42894627503882" lon="10.757430658230307"><ele>105.0</ele><time>2026-05-01T15:07:44.001Z</time></trkpt><trkpt lat="45.42888744427784" lon="10.757391691421759"><ele>105.0</ele><time>2026-05-01T15:07:45.001Z</time></trkpt><trkpt lat="45.428829911260394" lon="10.757326523756888"><ele>105.0</ele><time>2026-05-01T15:07:46.001Z</time></trkpt><trkpt lat="45.428723053328156" lon="10.757256991472397"><ele>104.5</ele><time>2026-05-01T15:07:48.001Z</time></trkpt><trkpt lat="45.428659092902855" lon="10.757273326283215"><ele>104.0</ele><time>2026-05-01T15:07:49Z</time></trkpt><trkpt lat="45.4286011309954" lon="10.75731302878643"><ele>103.5</ele><time>2026-05-01T15:07:50Z</time></trkpt><trkpt lat="45.428546772716274" lon="10.757359898788962"><ele>103.0</ele><time>2026-05-01T15:07:51Z</time></trkpt><trkpt lat="45.42849741766967" lon="10.757433163382451"><ele>102.5</ele><time>2026-05-01T15:07:52Z</time></trkpt><trkpt lat="45.4283815358626" lon="10.757404081229565"><ele>102.0</ele><time>2026-05-01T15:07:53Z</time></trkpt><trkpt lat="45.42826824896125" lon="10.757360782641374"><ele>102.0</ele><time>2026-05-01T15:07:54Z</time></trkpt><trkpt lat="45.42812730449042" lon="10.757307213508048"><ele>102.0</ele><time>2026-05-01T15:07:55Z</time></trkpt><trkpt lat="45.42795607832561" lon="10.757236190610438"><ele>102.0</ele><time>2026-05-01T15:07:56Z</time></trkpt><trkpt lat="45.427759402622264" lon="10.757168740811826"><ele>101.5</ele><time>2026-05-01T15:07:57Z</time></trkpt><trkpt lat="45.42756344832047" lon="10.757033301730006"><ele>101.0</ele><time>2026-05-01T15:07:58Z</time></trkpt><trkpt lat="45.42734153326233" lon="10.75687595850235"><ele>101.0</ele><time>2026-05-01T15:07:59Z</time></trkpt><trkpt lat="45.42711840171448" lon="10.756709550273088"><ele>101.0</ele><time>2026-05-01T15:08:00Z</time></trkpt><trkpt lat="45.42689075555802" lon="10.756536670766433"><ele>101.0</ele><time>2026-05-01T15:08:01Z</time></trkpt><trkpt lat="45.42665347103437" lon="10.756359012352108"><ele>101.0</ele><time>2026-05-01T15:08:02Z</time></trkpt><trkpt lat="45.42642690133774" lon="10.756189780485924"><ele>101.0</ele><time>2026-05-01T15:08:03Z</time></trkpt><trkpt lat="45.42622459242094" lon="10.756042931979787"><ele>101.0</ele><time>2026-05-01T15:08:04Z</time></trkpt><trkpt lat="45.426028740955864" lon="10.755897580561538"><ele>101.0</ele><time>2026-05-01T15:08:05Z</time></trkpt><trkpt lat="45.42581824493489" lon="10.755748080369319"><ele>101.33333333333333</ele><time>2026-05-01T15:08:06Z</time></trkpt><trkpt lat="45.42562724910181" lon="10.755609237643723"><ele>101.66666666666666</ele><time>2026-05-01T15:08:07Z</time></trkpt><trkpt lat="45.42545619272015" lon="10.755484498651901"><ele>102.0</ele><time>2026-05-01T15:08:08Z</time></trkpt><trkpt lat="45.4253088929752" lon="10.75536179104433"><ele>102.25</ele><time>2026-05-01T15:08:09Z</time></trkpt><trkpt lat="45.425189487072345" lon="10.755219887870926"><ele>102.5</ele><time>2026-05-01T15:08:10Z</time></trkpt><trkpt lat="45.42507696667786" lon="10.755102502196019"><ele>102.75</ele><time>2026-05-01T15:08:11Z</time></trkpt><trkpt lat="45.42498719367326" lon="10.754960744159328"><ele>103.0</ele><time>2026-05-01T15:08:12Z</time></trkpt><trkpt lat="45.42491453592765" lon="10.75482788227271"><ele>102.66666666666667</ele><time>2026-05-01T15:08:13Z</time></trkpt><trkpt lat="45.424861692380325" lon="10.75470607500673"><ele>102.33333333333334</ele><time>2026-05-01T15:08:14Z</time></trkpt><trkpt lat="45.424835306855016" lon="10.75458246523974"><ele>102.0</ele><time>2026-05-01T15:08:15Z</time></trkpt><trkpt lat="45.42486897742524" lon="10.754460088009509"><ele>101.66666666666666</ele><time>2026-05-01T15:08:16Z</time></trkpt><trkpt lat="45.42488781078823" lon="10.75433848919168"><ele>101.33333333333333</ele><time>2026-05-01T15:08:17Z</time></trkpt><trkpt lat="45.42487976256154" lon="10.754235887547209"><ele>101.0</ele><time>2026-05-01T15:08:18Z</time></trkpt><trkpt lat="45.42483371742646" lon="10.754144299316893"><ele>101.0</ele><time>2026-05-01T15:08:19Z</time></trkpt><trkpt lat="45.424763563766334" lon="10.754085883858963"><ele>101.0</ele><time>2026-05-01T15:08:20Z</time></trkpt><trkpt lat="45.424666410688076" lon="10.754063961903325"><ele>101.0</ele><time>2026-05-01T15:08:21Z</time></trkpt><trkpt lat="45.42455884324274" lon="10.75408830906204"><ele>101.0</ele><time>2026-05-01T15:08:22Z</time></trkpt><trkpt lat="45.424435136640405" lon="10.753969759288204"><ele>101.0</ele><time>2026-05-01T15:08:23Z</time></trkpt><trkpt lat="45.42429184163976" lon="10.753829109317532"><ele>101.33333333333333</ele><time>2026-05-01T15:08:24Z</time></trkpt><trkpt lat="45.4241372985203" lon="10.753678245707462"><ele>101.66666666666666</ele><time>2026-05-01T15:08:25Z</time></trkpt><trkpt lat="45.42397714458932" lon="10.753547643507897"><ele>102.0</ele><time>2026-05-01T15:08:26Z</time></trkpt><trkpt lat="45.423829686450766" lon="10.7534027969327"><ele>102.0</ele><time>2026-05-01T15:08:27Z</time></trkpt><trkpt lat="45.42369085169265" lon="10.75327076184091"><ele>102.0</ele><time>2026-05-01T15:08:28Z</time></trkpt><trkpt lat="45.42354957372123" lon="10.753137989223365"><ele>102.0</ele><time>2026-05-01T15:08:29Z</time></trkpt><trkpt lat="45.42341453369356" lon="10.753010782073707"><ele>102.0</ele><time>2026-05-01T15:08:30Z</time></trkpt><trkpt lat="45.423289000284235" lon="10.752884955952583"><ele>102.0</ele><time>2026-05-01T15:08:31Z</time></trkpt><trkpt lat="45.42316556010062" lon="10.75277283451938"><ele>102.0</ele><time>2026-05-01T15:08:32Z</time></trkpt><trkpt lat="45.42305629742628" lon="10.752636970972592"><ele>102.0</ele><time>2026-05-01T15:08:33Z</time></trkpt><trkpt lat="45.42292991153903" lon="10.752546265955756"><ele>102.25</ele><time>2026-05-01T15:08:34Z</time></trkpt><trkpt lat="45.42280969295712" lon="10.752434720274687"><ele>102.5</ele><time>2026-05-01T15:08:35Z</time></trkpt><trkpt lat="45.422691749510165" lon="10.752323302004468"><ele>102.75</ele><time>2026-05-01T15:08:36Z</time></trkpt><trkpt lat="45.42256231887789" lon="10.752210769017228"><ele>103.0</ele><time>2026-05-01T15:08:37Z</time></trkpt><trkpt lat="45.42243033709388" lon="10.75209675082478"><ele>103.0</ele><time>2026-05-01T15:08:38Z</time></trkpt><trkpt lat="45.422292145704546" lon="10.751982552855925"><ele>103.0</ele><time>2026-05-01T15:08:39Z</time></trkpt><trkpt lat="45.42214271648898" lon="10.751867883868512"><ele>103.0</ele><time>2026-05-01T15:08:40Z</time></trkpt><trkpt lat="45.421991857670626" lon="10.751757312505609"><ele>102.66666666666667</ele><time>2026-05-01T15:08:41Z</time></trkpt><trkpt lat="45.42183374197056" lon="10.75164115147093"><ele>102.33333333333334</ele><time>2026-05-01T15:08:42Z</time></trkpt><trkpt lat="45.42167645601386" lon="10.751522184221983"><ele>102.0</ele><time>2026-05-01T15:08:43Z</time></trkpt><trkpt lat="45.421515573132744" lon="10.751399806325757"><ele>102.0</ele><time>2026-05-01T15:08:44Z</time></trkpt><trkpt lat="45.42134998821667" lon="10.751276535683054"><ele>102.0</ele><time>2026-05-01T15:08:45Z</time></trkpt><trkpt lat="45.42118541868273" lon="10.751154664711551"><ele>102.0</ele><time>2026-05-01T15:08:46Z</time></trkpt><trkpt lat="45.421009885917506" lon="10.751038753900795"><ele>102.0</ele><time>2026-05-01T15:08:47Z</time></trkpt><trkpt lat="45.4208355393291" lon="10.75092853565948"><ele>102.0</ele><time>2026-05-01T15:08:48Z</time></trkpt><trkpt lat="45.420673263675056" lon="10.750829577905003"><ele>102.0</ele><time>2026-05-01T15:08:49Z</time></trkpt><trkpt lat="45.420521368748986" lon="10.750712738830462"><ele>102.0</ele><time>2026-05-01T15:08:50Z</time></trkpt><trkpt lat="45.4203495002931" lon="10.750633389836663"><ele>102.0</ele><time>2026-05-01T15:08:51Z</time></trkpt><trkpt lat="45.42017394197045" lon="10.750536172874614"><ele>102.0</ele><time>2026-05-01T15:08:52Z</time></trkpt><trkpt lat="45.419997072026646" lon="10.75046655570722"><ele>102.0</ele><time>2026-05-01T15:08:53Z</time></trkpt><trkpt lat="45.419830948410706" lon="10.750405878845308"><ele>102.0</ele><time>2026-05-01T15:08:54Z</time></trkpt><trkpt lat="45.41965189651382" lon="10.750346938771317"><ele>102.0</ele><time>2026-05-01T15:08:55.001Z</time></trkpt><trkpt lat="45.4194581267046" lon="10.750290224911756"><ele>102.0</ele><time>2026-05-01T15:08:56.001Z</time></trkpt><trkpt lat="45.41926187869834" lon="10.750231145413117"><ele>102.0</ele><time>2026-05-01T15:08:57.001Z</time></trkpt><trkpt lat="45.41907027233497" lon="10.750171551678948"><ele>102.0</ele><time>2026-05-01T15:08:58.001Z</time></trkpt><trkpt lat="45.418885429799765" lon="10.750109517117242"><ele>102.33333333333334</ele><time>2026-05-01T15:08:59.001Z</time></trkpt><trkpt lat="45.41870366311683" lon="10.750057501395027"><ele>102.66666666666667</ele><time>2026-05-01T15:09:00.001Z</time></trkpt><trkpt lat="45.41852817008712" lon="10.75000521080426"><ele>103.0</ele><time>2026-05-01T15:09:01.001Z</time></trkpt><trkpt lat="45.41835047122858" lon="10.749949048816019"><ele>103.0</ele><time>2026-05-01T15:09:02.001Z</time></trkpt><trkpt lat="45.41816820578011" lon="10.749894442365717"><ele>103.0</ele><time>2026-05-01T15:09:03.001Z</time></trkpt><trkpt lat="45.417992158193755" lon="10.749837915661477"><ele>103.0</ele><time>2026-05-01T15:09:04.001Z</time></trkpt><trkpt lat="45.41780647932442" lon="10.749785167071707"><ele>102.33333333333334</ele><time>2026-05-01T15:09:05.001Z</time></trkpt><trkpt lat="45.41762143519754" lon="10.749728086427535"><ele>101.66666666666666</ele><time>2026-05-01T15:09:06.001Z</time></trkpt><trkpt lat="45.41743639541953" lon="10.74968359371387"><ele>101.0</ele><time>2026-05-01T15:09:07.001Z</time></trkpt><trkpt lat="45.41723471642642" lon="10.749634586280093"><ele>101.0</ele><time>2026-05-01T15:09:08.001Z</time></trkpt><trkpt lat="45.41698977356725" lon="10.749614884647661"><ele>101.0</ele><time>2026-05-01T15:09:09.001Z</time></trkpt><trkpt lat="45.41672598358861" lon="10.749612054386052"><ele>101.0</ele><time>2026-05-01T15:09:10.001Z</time></trkpt><trkpt lat="45.41646733833189" lon="10.749612405598558"><ele>101.0</ele><time>2026-05-01T15:09:11.001Z</time></trkpt><trkpt lat="45.416239836700505" lon="10.7495834890297"><ele>101.66666666666666</ele><time>2026-05-01T15:09:12.001Z</time></trkpt><trkpt lat="45.41603494378393" lon="10.749520834731037"><ele>102.33333333333334</ele><time>2026-05-01T15:09:13.001Z</time></trkpt><trkpt lat="45.415854771891595" lon="10.749447096461946"><ele>103.0</ele><time>2026-05-01T15:09:14.001Z</time></trkpt><trkpt lat="45.41569408265038" lon="10.749390082623735"><ele>103.0</ele><time>2026-05-01T15:09:15.001Z</time></trkpt><trkpt lat="45.4155579568449" lon="10.74932436330307"><ele>103.0</ele><time>2026-05-01T15:09:16.001Z</time></trkpt><trkpt lat="45.415421649044745" lon="10.749266503591192"><ele>103.0</ele><time>2026-05-01T15:09:17.001Z</time></trkpt><trkpt lat="45.41528042630426" lon="10.749213532734471"><ele>103.0</ele><time>2026-05-01T15:09:18.001Z</time></trkpt><trkpt lat="45.415145803006" lon="10.749162691518686"><ele>103.0</ele><time>2026-05-01T15:09:19.001Z</time></trkpt><trkpt lat="45.41501088575443" lon="10.749114745879954"><ele>103.0</ele><time>2026-05-01T15:09:20.001Z</time></trkpt><trkpt lat="45.41486974563463" lon="10.749085421716606"><ele>103.0</ele><time>2026-05-01T15:09:21.001Z</time></trkpt><trkpt lat="45.4147351432551" lon="10.74905478496661"><ele>103.0</ele><time>2026-05-01T15:09:22.001Z</time></trkpt><trkpt lat="45.41459497608063" lon="10.74902435536292"><ele>103.0</ele><time>2026-05-01T15:09:23.001Z</time></trkpt><trkpt lat="45.41446115898056" lon="10.748988675537209"><ele>103.0</ele><time>2026-05-01T15:09:24.001Z</time></trkpt><trkpt lat="45.414322148057956" lon="10.748948425603501"><ele>103.0</ele><time>2026-05-01T15:09:25.001Z</time></trkpt><trkpt lat="45.41418216005835" lon="10.748892924718445"><ele>103.0</ele><time>2026-05-01T15:09:26.001Z</time></trkpt><trkpt lat="45.41403576382213" lon="10.748826757934355"><ele>103.0</ele><time>2026-05-01T15:09:27.001Z</time></trkpt><trkpt lat="45.41388937151976" lon="10.748759614665236"><ele>103.0</ele><time>2026-05-01T15:09:28.001Z</time></trkpt><trkpt lat="45.41374726981156" lon="10.74869516659408"><ele>103.0</ele><time>2026-05-01T15:09:29.001Z</time></trkpt><trkpt lat="45.4136089114514" lon="10.748643736230758"><ele>103.0</ele><time>2026-05-01T15:09:30.001Z</time></trkpt><trkpt lat="45.41346446314671" lon="10.748600884308852"><ele>102.5</ele><time>2026-05-01T15:09:31.001Z</time></trkpt><trkpt lat="45.413322591012694" lon="10.74856745246273"><ele>102.0</ele><time>2026-05-01T15:09:32.001Z</time></trkpt><trkpt lat="45.41318258023597" lon="10.748534479467414"><ele>101.5</ele><time>2026-05-01T15:09:33.001Z</time></trkpt><trkpt lat="45.41304270080546" lon="10.748505333415538"><ele>101.0</ele><time>2026-05-01T15:09:34.001Z</time></trkpt><trkpt lat="45.41290105326203" lon="10.748482382025648"><ele>101.0</ele><time>2026-05-01T15:09:35.001Z</time></trkpt><trkpt lat="45.4127658669256" lon="10.748468177896711"><ele>101.0</ele><time>2026-05-01T15:09:36.001Z</time></trkpt><trkpt lat="45.41263506993564" lon="10.748450849563454"><ele>101.0</ele><time>2026-05-01T15:09:37.001Z</time></trkpt><trkpt lat="45.41249847066262" lon="10.748434134834415"><ele>101.0</ele><time>2026-05-01T15:09:38.001Z</time></trkpt><trkpt lat="45.412348179808625" lon="10.74841664470632"><ele>101.0</ele><time>2026-05-01T15:09:39.001Z</time></trkpt><trkpt lat="45.41219591331111" lon="10.74839777256858"><ele>101.0</ele><time>2026-05-01T15:09:40.001Z</time></trkpt><trkpt lat="45.4120423699844" lon="10.74837200298533"><ele>101.0</ele><time>2026-05-01T15:09:41.001Z</time></trkpt><trkpt lat="45.411885873535105" lon="10.74834867801789"><ele>101.33333333333333</ele><time>2026-05-01T15:09:42.001Z</time></trkpt><trkpt lat="45.41171609799544" lon="10.748328771156396"><ele>101.66666666666666</ele><time>2026-05-01T15:09:43.001Z</time></trkpt><trkpt lat="45.41153451708853" lon="10.748310063342588"><ele>102.0</ele><time>2026-05-01T15:09:44.001Z</time></trkpt><trkpt lat="45.41134043252181" lon="10.748270164645989"><ele>101.0</ele><time>2026-05-01T15:09:45.001Z</time></trkpt><trkpt lat="45.41112075165305" lon="10.748244210492084"><ele>100.0</ele><time>2026-05-01T15:09:46.001Z</time></trkpt><trkpt lat="45.410881598006" lon="10.748219678430598"><ele>100.0</ele><time>2026-05-01T15:09:47.001Z</time></trkpt><trkpt lat="45.410636417024435" lon="10.748192682728359"><ele>100.0</ele><time>2026-05-01T15:09:48.001Z</time></trkpt><trkpt lat="45.410378183898146" lon="10.748164205307253"><ele>99.0</ele><time>2026-05-01T15:09:49.001Z</time></trkpt><trkpt lat="45.410118511383224" lon="10.74813802891265"><ele>98.0</ele><time>2026-05-01T15:09:50.001Z</time></trkpt><trkpt lat="45.40986409280211" lon="10.74811305756087"><ele>97.0</ele><time>2026-05-01T15:09:51.001Z</time></trkpt><trkpt lat="45.40962671648123" lon="10.748094506581847"><ele>96.0</ele><time>2026-05-01T15:09:52.001Z</time></trkpt><trkpt lat="45.40940211223107" lon="10.74810963190617"><ele>96.0</ele><time>2026-05-01T15:09:53.001Z</time></trkpt><trkpt lat="45.409188627279526" lon="10.74810744630999"><ele>96.0</ele><time>2026-05-01T15:09:54.001Z</time></trkpt><trkpt lat="45.40897780139047" lon="10.74808334754234"><ele>96.0</ele><time>2026-05-01T15:09:55Z</time></trkpt><trkpt lat="45.40878635880459" lon="10.748074432573443"><ele>96.0</ele><time>2026-05-01T15:09:56Z</time></trkpt><trkpt lat="45.40860805947366" lon="10.748063631386739"><ele>96.0</ele><time>2026-05-01T15:09:57Z</time></trkpt><trkpt lat="45.4084398487344" lon="10.7480492138932"><ele>96.0</ele><time>2026-05-01T15:09:58Z</time></trkpt><trkpt lat="45.40827940428985" lon="10.74803270401589"><ele>96.0</ele><time>2026-05-01T15:09:59Z</time></trkpt><trkpt lat="45.40813330109122" lon="10.748017669858172"><ele>96.0</ele><time>2026-05-01T15:10:00Z</time></trkpt><trkpt lat="45.408004908635405" lon="10.748006016819026"><ele>96.0</ele><time>2026-05-01T15:10:01Z</time></trkpt><trkpt lat="45.40789151387715" lon="10.747996103460995"><ele>96.0</ele><time>2026-05-01T15:10:02Z</time></trkpt><trkpt lat="45.407792432713805" lon="10.748010830739007"><ele>96.0</ele><time>2026-05-01T15:10:03Z</time></trkpt><trkpt lat="45.407706480254284" lon="10.747972507383821"><ele>96.0</ele><time>2026-05-01T15:10:04Z</time></trkpt><trkpt lat="45.40763142266079" lon="10.747894158830372"><ele>96.0</ele><time>2026-05-01T15:10:05Z</time></trkpt><trkpt lat="45.40757300764323" lon="10.74779190739416"><ele>96.0</ele><time>2026-05-01T15:10:06Z</time></trkpt><trkpt lat="45.40750838760629" lon="10.747740879297405"><ele>96.0</ele><time>2026-05-01T15:10:07Z</time></trkpt><trkpt lat="45.407420297706224" lon="10.747732282672816"><ele>96.0</ele><time>2026-05-01T15:10:08Z</time></trkpt><trkpt lat="45.4073309473046" lon="10.74782586946491"><ele>96.0</ele><time>2026-05-01T15:10:09Z</time></trkpt><trkpt lat="45.40725471295192" lon="10.747887308486185"><ele>96.0</ele><time>2026-05-01T15:10:10Z</time></trkpt><trkpt lat="45.40716412173602" lon="10.747898029957696"><ele>96.0</ele><time>2026-05-01T15:10:11Z</time></trkpt><trkpt lat="45.40704142903921" lon="10.747862753046268"><ele>96.0</ele><time>2026-05-01T15:10:12Z</time></trkpt><trkpt lat="45.40688661425111" lon="10.747823581747578"><ele>96.33333333333334</ele><time>2026-05-01T15:10:13Z</time></trkpt><trkpt lat="45.406726163183855" lon="10.747752214039227"><ele>96.66666666666667</ele><time>2026-05-01T15:10:14Z</time></trkpt><trkpt lat="45.406541847408455" lon="10.74768860859971"><ele>97.0</ele><time>2026-05-01T15:10:15Z</time></trkpt><trkpt lat="45.406349950438695" lon="10.747618294378926"><ele>96.66666666666667</ele><time>2026-05-01T15:10:16Z</time></trkpt><trkpt lat="45.4061518650495" lon="10.747545745929214"><ele>96.33333333333334</ele><time>2026-05-01T15:10:17Z</time></trkpt><trkpt lat="45.405930628434575" lon="10.747489790411416"><ele>96.0</ele><time>2026-05-01T15:10:18Z</time></trkpt><trkpt lat="45.405708775632824" lon="10.747388818895885"><ele>97.0</ele><time>2026-05-01T15:10:19Z</time></trkpt><trkpt lat="45.40548391064485" lon="10.747311582283759"><ele>98.0</ele><time>2026-05-01T15:10:20Z</time></trkpt><trkpt lat="45.40526421333689" lon="10.747237010971823"><ele>98.0</ele><time>2026-05-01T15:10:21Z</time></trkpt><trkpt lat="45.405062963512066" lon="10.747190123174224"><ele>98.0</ele><time>2026-05-01T15:10:22Z</time></trkpt><trkpt lat="45.40486955917405" lon="10.74710397235465"><ele>98.0</ele><time>2026-05-01T15:10:23Z</time></trkpt><trkpt lat="45.40466415075666" lon="10.747034727844996"><ele>97.0</ele><time>2026-05-01T15:10:24Z</time></trkpt><trkpt lat="45.40445073803687" lon="10.74698654280763"><ele>96.0</ele><time>2026-05-01T15:10:25Z</time></trkpt><trkpt lat="45.40424516779666" lon="10.746914683739702"><ele>95.0</ele><time>2026-05-01T15:10:26Z</time></trkpt><trkpt lat="45.4040619813608" lon="10.746850267097843"><ele>94.66666666666667</ele><time>2026-05-01T15:10:27Z</time></trkpt><trkpt lat="45.40389638268843" lon="10.74677901460449"><ele>94.33333333333333</ele><time>2026-05-01T15:10:28Z</time></trkpt><trkpt lat="45.403760595827805" lon="10.746695670498394"><ele>94.0</ele><time>2026-05-01T15:10:29Z</time></trkpt><trkpt lat="45.403633998320764" lon="10.746589989942626"><ele>94.0</ele><time>2026-05-01T15:10:30Z</time></trkpt><trkpt lat="45.4035092786561" lon="10.746457438263079"><ele>94.0</ele><time>2026-05-01T15:10:31Z</time></trkpt><trkpt lat="45.403370063432725" lon="10.74630899683908"><ele>94.0</ele><time>2026-05-01T15:10:32Z</time></trkpt><trkpt lat="45.4032312186646" lon="10.746155266346602"><ele>94.0</ele><time>2026-05-01T15:10:33Z</time></trkpt><trkpt lat="45.403087495350206" lon="10.746005846592023"><ele>94.0</ele><time>2026-05-01T15:10:34Z</time></trkpt><trkpt lat="45.40293647059129" lon="10.745855287769608"><ele>94.0</ele><time>2026-05-01T15:10:35Z</time></trkpt><trkpt lat="45.402793519718756" lon="10.74567721024147"><ele>94.0</ele><time>2026-05-01T15:10:36Z</time></trkpt><trkpt lat="45.402642553494154" lon="10.745514171566493"><ele>94.0</ele><time>2026-05-01T15:10:37Z</time></trkpt><trkpt lat="45.402488647650884" lon="10.745347956527587"><ele>94.0</ele><time>2026-05-01T15:10:38Z</time></trkpt><trkpt lat="45.40233279198049" lon="10.745186932853713"><ele>94.0</ele><time>2026-05-01T15:10:39Z</time></trkpt><trkpt lat="45.402146363887674" lon="10.745049067051406"><ele>94.0</ele><time>2026-05-01T15:10:40Z</time></trkpt><trkpt lat="45.401930770667036" lon="10.744943029410164"><ele>94.0</ele><time>2026-05-01T15:10:41Z</time></trkpt><trkpt lat="45.401696967372715" lon="10.74486920254577"><ele>94.0</ele><time>2026-05-01T15:10:42Z</time></trkpt><trkpt lat="45.40146026014298" lon="10.744799629324381"><ele>94.0</ele><time>2026-05-01T15:10:43Z</time></trkpt><trkpt lat="45.401211972843335" lon="10.744762477790134"><ele>94.5</ele><time>2026-05-01T15:10:44Z</time></trkpt><trkpt lat="45.40094972847679" lon="10.744749648546563"><ele>95.0</ele><time>2026-05-01T15:10:45Z</time></trkpt><trkpt lat="45.40070118374347" lon="10.744703972391939"><ele>95.0</ele><time>2026-05-01T15:10:46Z</time></trkpt><trkpt lat="45.400462383356675" lon="10.74470958651738"><ele>95.0</ele><time>2026-05-01T15:10:47Z</time></trkpt><trkpt lat="45.400224512217655" lon="10.74471791467858"><ele>95.0</ele><time>2026-05-01T15:10:48Z</time></trkpt><trkpt lat="45.39998413544014" lon="10.744774159049577"><ele>95.0</ele><time>2026-05-01T15:10:49Z</time></trkpt><trkpt lat="45.399770204279996" lon="10.74485789143015"><ele>95.66666666666667</ele><time>2026-05-01T15:10:50Z</time></trkpt><trkpt lat="45.3995722990704" lon="10.744898826857684"><ele>96.33333333333334</ele><time>2026-05-01T15:10:51Z</time></trkpt><trkpt lat="45.39936064529892" lon="10.744893187840958"><ele>97.0</ele><time>2026-05-01T15:10:52Z</time></trkpt><trkpt lat="45.399119173506016" lon="10.74487256740925"><ele>97.0</ele><time>2026-05-01T15:10:53Z</time></trkpt><trkpt lat="45.398871563598235" lon="10.744858544797857"><ele>97.0</ele><time>2026-05-01T15:10:54Z</time></trkpt><trkpt lat="45.39861320673228" lon="10.744824432224021"><ele>97.0</ele><time>2026-05-01T15:10:55Z</time></trkpt><trkpt lat="45.398356805787785" lon="10.744745316960772"><ele>97.0</ele><time>2026-05-01T15:10:56Z</time></trkpt><trkpt lat="45.39809641580704" lon="10.744679112895296"><ele>97.0</ele><time>2026-05-01T15:10:57Z</time></trkpt><trkpt lat="45.397845837710285" lon="10.744558458157162"><ele>97.0</ele><time>2026-05-01T15:10:58.001Z</time></trkpt><trkpt lat="45.39759064712906" lon="10.744454912902153"><ele>97.5</ele><time>2026-05-01T15:10:59.001Z</time></trkpt><trkpt lat="45.39733868186419" lon="10.74427288075618"><ele>98.0</ele><time>2026-05-01T15:11:00.001Z</time></trkpt><trkpt lat="45.3970745923491" lon="10.744135348236961"><ele>98.0</ele><time>2026-05-01T15:11:01.001Z</time></trkpt><trkpt lat="45.39681471128803" lon="10.744006603816475"><ele>98.0</ele><time>2026-05-01T15:11:02.001Z</time></trkpt><trkpt lat="45.39656504335215" lon="10.74387952176236"><ele>96.5</ele><time>2026-05-01T15:11:03.001Z</time></trkpt><trkpt lat="45.3963213587198" lon="10.743752757537466"><ele>95.0</ele><time>2026-05-01T15:11:04.001Z</time></trkpt><trkpt lat="45.39608138764131" lon="10.74362860825139"><ele>97.0</ele><time>2026-05-01T15:11:05.001Z</time></trkpt><trkpt lat="45.395843456188" lon="10.74350771079302"><ele>99.0</ele><time>2026-05-01T15:11:06.001Z</time></trkpt><trkpt lat="45.39560899555127" lon="10.743393592985235"><ele>100.0</ele><time>2026-05-01T15:11:07.001Z</time></trkpt><trkpt lat="45.395380660705115" lon="10.743281733623066"><ele>101.0</ele><time>2026-05-01T15:11:08.001Z</time></trkpt><trkpt lat="45.39516621415512" lon="10.743174441149648"><ele>101.0</ele><time>2026-05-01T15:11:09.001Z</time></trkpt><trkpt lat="45.3949650364333" lon="10.74305720784937"><ele>101.0</ele><time>2026-05-01T15:11:10.001Z</time></trkpt><trkpt lat="45.394788831007105" lon="10.742879983282013"><ele>101.0</ele><time>2026-05-01T15:11:11.001Z</time></trkpt><trkpt lat="45.394632976072685" lon="10.742637934402948"><ele>102.0</ele><time>2026-05-01T15:11:12.001Z</time></trkpt><trkpt lat="45.3944866987449" lon="10.742348518077145"><ele>103.0</ele><time>2026-05-01T15:11:13.001Z</time></trkpt><trkpt lat="45.39431966754655" lon="10.742067096815765"><ele>103.0</ele><time>2026-05-01T15:11:14.001Z</time></trkpt><trkpt lat="45.39413662661974" lon="10.741806117975228"><ele>103.0</ele><time>2026-05-01T15:11:15.001Z</time></trkpt><trkpt lat="45.39393933396495" lon="10.741561812405557"><ele>103.0</ele><time>2026-05-01T15:11:16.001Z</time></trkpt><trkpt lat="45.3937443462507" lon="10.741330041336656"><ele>103.0</ele><time>2026-05-01T15:11:17.001Z</time></trkpt><trkpt lat="45.393555854026005" lon="10.741105126539606"><ele>103.0</ele><time>2026-05-01T15:11:18.001Z</time></trkpt><trkpt lat="45.393364714289966" lon="10.740900050070735"><ele>103.0</ele><time>2026-05-01T15:11:19.001Z</time></trkpt><trkpt lat="45.39315710047106" lon="10.740731589454093"><ele>103.5</ele><time>2026-05-01T15:11:20.001Z</time></trkpt><trkpt lat="45.39292811846431" lon="10.740603431621185"><ele>104.0</ele><time>2026-05-01T15:11:21.001Z</time></trkpt><trkpt lat="45.39267813547411" lon="10.740501905297638"><ele>104.0</ele><time>2026-05-01T15:11:22.001Z</time></trkpt><trkpt lat="45.392428799401614" lon="10.740411355027105"><ele>104.0</ele><time>2026-05-01T15:11:23.001Z</time></trkpt><trkpt lat="45.392185921689155" lon="10.74032148073751"><ele>105.5</ele><time>2026-05-01T15:11:24.001Z</time></trkpt><trkpt lat="45.391948922324126" lon="10.740224575234974"><ele>107.0</ele><time>2026-05-01T15:11:25.001Z</time></trkpt><trkpt lat="45.39170939030788" lon="10.74013422007055"><ele>107.0</ele><time>2026-05-01T15:11:26.001Z</time></trkpt><trkpt lat="45.39147320430888" lon="10.740063685358553"><ele>107.0</ele><time>2026-05-01T15:11:27.001Z</time></trkpt><trkpt lat="45.391243304895156" lon="10.740012276032388"><ele>107.5</ele><time>2026-05-01T15:11:28.001Z</time></trkpt><trkpt lat="45.391015276680534" lon="10.73996476210322"><ele>108.0</ele><time>2026-05-01T15:11:29.001Z</time></trkpt><trkpt lat="45.390776754268664" lon="10.739908454695367"><ele>108.0</ele><time>2026-05-01T15:11:30.001Z</time></trkpt><trkpt lat="45.390548435912805" lon="10.739827605871904"><ele>108.0</ele><time>2026-05-01T15:11:31.001Z</time></trkpt><trkpt lat="45.39033098281716" lon="10.739707057379047"><ele>109.0</ele><time>2026-05-01T15:11:32.001Z</time></trkpt><trkpt lat="45.390130547403636" lon="10.739538772035981"><ele>110.0</ele><time>2026-05-01T15:11:33.001Z</time></trkpt><trkpt lat="45.38993976534818" lon="10.739326952511183"><ele>110.5</ele><time>2026-05-01T15:11:34.001Z</time></trkpt><trkpt lat="45.38974874108876" lon="10.739108109564187"><ele>111.0</ele><time>2026-05-01T15:11:35.001Z</time></trkpt><trkpt lat="45.38956234746904" lon="10.738905169424639"><ele>111.5</ele><time>2026-05-01T15:11:36.001Z</time></trkpt><trkpt lat="45.38937268386204" lon="10.738711578830067"><ele>112.0</ele><time>2026-05-01T15:11:37.001Z</time></trkpt><trkpt lat="45.38918726590653" lon="10.738520245635053"><ele>112.33333333333334</ele><time>2026-05-01T15:11:38.001Z</time></trkpt><trkpt lat="45.389006839318974" lon="10.73833031080864"><ele>112.66666666666666</ele><time>2026-05-01T15:11:39.001Z</time></trkpt><trkpt lat="45.3888294507174" lon="10.738144539108422"><ele>113.0</ele><time>2026-05-01T15:11:40.001Z</time></trkpt><trkpt lat="45.3886703748585" lon="10.737974665526183"><ele>114.66666666666666</ele><time>2026-05-01T15:11:41.001Z</time></trkpt><trkpt lat="45.38851133418436" lon="10.73780953895309"><ele>116.33333333333334</ele><time>2026-05-01T15:11:42.001Z</time></trkpt><trkpt lat="45.38836528875736" lon="10.737656448853022"><ele>118.0</ele><time>2026-05-01T15:11:43.001Z</time></trkpt><trkpt lat="45.38822331553773" lon="10.737509113848398"><ele>119.0</ele><time>2026-05-01T15:11:44.001Z</time></trkpt><trkpt lat="45.38806348179411" lon="10.737374158266773"><ele>120.0</ele><time>2026-05-01T15:11:45.001Z</time></trkpt><trkpt lat="45.387910226061884" lon="10.73726127604921"><ele>121.0</ele><time>2026-05-01T15:11:46.001Z</time></trkpt><trkpt lat="45.38776892163724" lon="10.737180111777768"><ele>124.75</ele><time>2026-05-01T15:11:47.001Z</time></trkpt><trkpt lat="45.38763967764719" lon="10.737103768181912"><ele>128.5</ele><time>2026-05-01T15:11:48.001Z</time></trkpt><trkpt lat="45.38751295922502" lon="10.73703204764421"><ele>132.25</ele><time>2026-05-01T15:11:49.001Z</time></trkpt><trkpt lat="45.38738884242824" lon="10.736970411600783"><ele>136.0</ele><time>2026-05-01T15:11:50.001Z</time></trkpt><trkpt lat="45.387268644957" lon="10.736924270180698"><ele>136.0</ele><time>2026-05-01T15:11:51.001Z</time></trkpt><trkpt lat="45.38714819481229" lon="10.736884938077862"><ele>136.0</ele><time>2026-05-01T15:11:52.001Z</time></trkpt><trkpt lat="45.38702758032193" lon="10.736839149870326"><ele>136.0</ele><time>2026-05-01T15:11:53.001Z</time></trkpt><trkpt lat="45.38690679197458" lon="10.736795716155944"><ele>136.0</ele><time>2026-05-01T15:11:54.001Z</time></trkpt><trkpt lat="45.386779041140386" lon="10.736743529620156"><ele>136.0</ele><time>2026-05-01T15:11:55.001Z</time></trkpt><trkpt lat="45.38664604235994" lon="10.736692536880883"><ele>136.0</ele><time>2026-05-01T15:11:56.001Z</time></trkpt><trkpt lat="45.386517234950794" lon="10.736646356797069"><ele>136.0</ele><time>2026-05-01T15:11:57.001Z</time></trkpt><trkpt lat="45.38638756519529" lon="10.736602701722978"><ele>136.0</ele><time>2026-05-01T15:11:58.001Z</time></trkpt><trkpt lat="45.386254792525044" lon="10.736553778668418"><ele>136.5</ele><time>2026-05-01T15:11:59.001Z</time></trkpt><trkpt lat="45.386125936989615" lon="10.736504740462074"><ele>137.0</ele><time>2026-05-01T15:12:00.001Z</time></trkpt><trkpt lat="45.38599323244498" lon="10.73645174293523"><ele>137.5</ele><time>2026-05-01T15:12:01Z</time></trkpt><trkpt lat="45.38585978012333" lon="10.736402958804497"><ele>138.0</ele><time>2026-05-01T15:12:02Z</time></trkpt><trkpt lat="45.385731421879356" lon="10.736349428186422"><ele>138.0</ele><time>2026-05-01T15:12:03Z</time></trkpt><trkpt lat="45.38561038657712" lon="10.736299817997944"><ele>138.0</ele><time>2026-05-01T15:12:04Z</time></trkpt><trkpt lat="45.38549907505506" lon="10.736250457596936"><ele>138.0</ele><time>2026-05-01T15:12:05Z</time></trkpt><trkpt lat="45.38538693545029" lon="10.73620966529061"><ele>138.0</ele><time>2026-05-01T15:12:06Z</time></trkpt><trkpt lat="45.38526688846493" lon="10.736173938163914"><ele>140.0</ele><time>2026-05-01T15:12:07Z</time></trkpt><trkpt lat="45.38514580890899" lon="10.736141509800436"><ele>142.0</ele><time>2026-05-01T15:12:08Z</time></trkpt><trkpt lat="45.385020399118275" lon="10.73612126815854"><ele>144.0</ele><time>2026-05-01T15:12:09Z</time></trkpt><trkpt lat="45.38489778700956" lon="10.736094565329122"><ele>146.0</ele><time>2026-05-01T15:12:10Z</time></trkpt><trkpt lat="45.38477470221582" lon="10.736063975801036"><ele>142.75</ele><time>2026-05-01T15:12:11Z</time></trkpt><trkpt lat="45.38465112505886" lon="10.736034823665518"><ele>139.5</ele><time>2026-05-01T15:12:12Z</time></trkpt><trkpt lat="45.384528504499436" lon="10.736008696812446"><ele>136.25</ele><time>2026-05-01T15:12:13Z</time></trkpt><trkpt lat="45.38441552964186" lon="10.73598953033676"><ele>133.0</ele><time>2026-05-01T15:12:14Z</time></trkpt><trkpt lat="45.38430470298288" lon="10.735969745892943"><ele>133.0</ele><time>2026-05-01T15:12:15Z</time></trkpt><trkpt lat="45.38418554638482" lon="10.735948128066772"><ele>133.0</ele><time>2026-05-01T15:12:16Z</time></trkpt><trkpt lat="45.384070454482156" lon="10.735922226487958"><ele>133.0</ele><time>2026-05-01T15:12:17Z</time></trkpt><trkpt lat="45.38395317634518" lon="10.735902717189301"><ele>133.0</ele><time>2026-05-01T15:12:18Z</time></trkpt><trkpt lat="45.38383893562357" lon="10.73588487681999"><ele>132.75</ele><time>2026-05-01T15:12:19Z</time></trkpt><trkpt lat="45.38372092198083" lon="10.73587506100914"><ele>132.5</ele><time>2026-05-01T15:12:20Z</time></trkpt><trkpt lat="45.38360305586611" lon="10.735860380491332"><ele>132.25</ele><time>2026-05-01T15:12:21Z</time></trkpt><trkpt lat="45.3834813072774" lon="10.735856753388687"><ele>132.0</ele><time>2026-05-01T15:12:22Z</time></trkpt><trkpt lat="45.38336424615775" lon="10.735857960083594"><ele>132.0</ele><time>2026-05-01T15:12:23Z</time></trkpt><trkpt lat="45.38324596538561" lon="10.73586004536202"><ele>132.0</ele><time>2026-05-01T15:12:24Z</time></trkpt><trkpt lat="45.383126000740134" lon="10.735854409912024"><ele>132.0</ele><time>2026-05-01T15:12:25Z</time></trkpt><trkpt lat="45.38300724655775" lon="10.735853687051591"><ele>132.0</ele><time>2026-05-01T15:12:26Z</time></trkpt><trkpt lat="45.38288423988562" lon="10.735860151043985"><ele>131.25</ele><time>2026-05-01T15:12:27Z</time></trkpt><trkpt lat="45.38276211561861" lon="10.735857516597397"><ele>130.5</ele><time>2026-05-01T15:12:28Z</time></trkpt><trkpt lat="45.382640111593055" lon="10.735847447924883"><ele>129.75</ele><time>2026-05-01T15:12:29Z</time></trkpt><trkpt lat="45.38251341658596" lon="10.735834755773853"><ele>129.0</ele><time>2026-05-01T15:12:30Z</time></trkpt><trkpt lat="45.38238584828632" lon="10.735800048351708"><ele>129.0</ele><time>2026-05-01T15:12:31Z</time></trkpt><trkpt lat="45.38225518545673" lon="10.735758236511483"><ele>129.0</ele><time>2026-05-01T15:12:32Z</time></trkpt><trkpt lat="45.38212198251906" lon="10.73572469974763"><ele>129.0</ele><time>2026-05-01T15:12:33Z</time></trkpt><trkpt lat="45.38198414496055" lon="10.73569126919738"><ele>129.0</ele><time>2026-05-01T15:12:34Z</time></trkpt><trkpt lat="45.38184267122228" lon="10.735652270882712"><ele>128.5</ele><time>2026-05-01T15:12:35Z</time></trkpt><trkpt lat="45.38170288036608" lon="10.735617854962227"><ele>128.0</ele><time>2026-05-01T15:12:36Z</time></trkpt><trkpt lat="45.381559776608235" lon="10.735575511715234"><ele>127.5</ele><time>2026-05-01T15:12:37Z</time></trkpt><trkpt lat="45.38141781373786" lon="10.73553945830262"><ele>127.0</ele><time>2026-05-01T15:12:38Z</time></trkpt><trkpt lat="45.38126932737626" lon="10.735510749051668"><ele>126.33333333333334</ele><time>2026-05-01T15:12:39Z</time></trkpt><trkpt lat="45.38111750548473" lon="10.73548603430111"><ele>125.66666666666666</ele><time>2026-05-01T15:12:40Z</time></trkpt><trkpt lat="45.38096677546458" lon="10.735469324955874"><ele>125.0</ele><time>2026-05-01T15:12:41Z</time></trkpt><trkpt lat="45.38080842348025" lon="10.735456606259401"><ele>125.0</ele><time>2026-05-01T15:12:42Z</time></trkpt><trkpt lat="45.38064829963017" lon="10.735448339504838"><ele>125.0</ele><time>2026-05-01T15:12:43Z</time></trkpt><trkpt lat="45.38049363322147" lon="10.735437665231318"><ele>125.0</ele><time>2026-05-01T15:12:44Z</time></trkpt><trkpt lat="45.38033622968602" lon="10.735431048500303"><ele>125.0</ele><time>2026-05-01T15:12:45Z</time></trkpt><trkpt lat="45.380180830036466" lon="10.735421046464419"><ele>125.0</ele><time>2026-05-01T15:12:46Z</time></trkpt><trkpt lat="45.380026453564334" lon="10.735412121622039"><ele>125.0</ele><time>2026-05-01T15:12:47Z</time></trkpt><trkpt lat="45.37986627988186" lon="10.735403797463471"><ele>125.0</ele><time>2026-05-01T15:12:48Z</time></trkpt><trkpt lat="45.37970738724502" lon="10.735391286044777"><ele>125.0</ele><time>2026-05-01T15:12:49Z</time></trkpt><trkpt lat="45.37954843856717" lon="10.735374692139331"><ele>125.0</ele><time>2026-05-01T15:12:50Z</time></trkpt><trkpt lat="45.379380487887005" lon="10.735361114800233"><ele>124.66666666666666</ele><time>2026-05-01T15:12:51Z</time></trkpt><trkpt lat="45.3792094759611" lon="10.735352438823016"><ele>124.33333333333334</ele><time>2026-05-01T15:12:52Z</time></trkpt><trkpt lat="45.37903527023712" lon="10.735342685727804"><ele>124.0</ele><time>2026-05-01T15:12:53Z</time></trkpt><trkpt lat="45.378856309891745" lon="10.73533065919937"><ele>122.66666666666667</ele><time>2026-05-01T15:12:54Z</time></trkpt><trkpt lat="45.378675207622756" lon="10.735319768840105"><ele>121.33333333333334</ele><time>2026-05-01T15:12:55Z</time></trkpt><trkpt lat="45.37849821102231" lon="10.735303130804978"><ele>120.0</ele><time>2026-05-01T15:12:56Z</time></trkpt><trkpt lat="45.37832297154337" lon="10.735295933132011"><ele>120.0</ele><time>2026-05-01T15:12:57Z</time></trkpt><trkpt lat="45.37814672832303" lon="10.735284498168403"><ele>120.0</ele><time>2026-05-01T15:12:58Z</time></trkpt><trkpt lat="45.37796665959607" lon="10.735268747046328"><ele>120.0</ele><time>2026-05-01T15:12:59Z</time></trkpt><trkpt lat="45.37779038116775" lon="10.735242690193418"><ele>119.66666666666666</ele><time>2026-05-01T15:13:00Z</time></trkpt><trkpt lat="45.37760596117211" lon="10.735215529293049"><ele>119.33333333333333</ele><time>2026-05-01T15:13:01Z</time></trkpt><trkpt lat="45.37742624235616" lon="10.735181851993636"><ele>119.0</ele><time>2026-05-01T15:13:02Z</time></trkpt><trkpt lat="45.3772485102981" lon="10.735138935382995"><ele>118.0</ele><time>2026-05-01T15:13:03Z</time></trkpt><trkpt lat="45.3770642210044" lon="10.735086095244114"><ele>117.0</ele><time>2026-05-01T15:13:04Z</time></trkpt><trkpt lat="45.37689013730737" lon="10.735030375609513"><ele>116.0</ele><time>2026-05-01T15:13:05Z</time></trkpt><trkpt lat="45.37670345318202" lon="10.734980670887477"><ele>116.0</ele><time>2026-05-01T15:13:06Z</time></trkpt><trkpt lat="45.37652100494103" lon="10.734910808550943"><ele>116.0</ele><time>2026-05-01T15:13:07Z</time></trkpt><trkpt lat="45.376333610090825" lon="10.734849731323614"><ele>116.0</ele><time>2026-05-01T15:13:08Z</time></trkpt><trkpt lat="45.37615399511933" lon="10.734787740241298"><ele>115.33333333333333</ele><time>2026-05-01T15:13:09Z</time></trkpt><trkpt lat="45.37596842388763" lon="10.73471411789209"><ele>114.66666666666666</ele><time>2026-05-01T15:13:10Z</time></trkpt><trkpt lat="45.3757902394867" lon="10.734629789008816"><ele>114.0</ele><time>2026-05-01T15:13:11Z</time></trkpt><trkpt lat="45.375615486043166" lon="10.734532640342673"><ele>113.66666666666666</ele><time>2026-05-01T15:13:12Z</time></trkpt><trkpt lat="45.37544135587712" lon="10.73443663319229"><ele>113.33333333333333</ele><time>2026-05-01T15:13:13Z</time></trkpt><trkpt lat="45.375266010391236" lon="10.734349776919496"><ele>113.0</ele><time>2026-05-01T15:13:14Z</time></trkpt><trkpt lat="45.37509008436164" lon="10.734267842246847"><ele>113.0</ele><time>2026-05-01T15:13:15.001Z</time></trkpt><trkpt lat="45.37491743967281" lon="10.73416600955323"><ele>113.0</ele><time>2026-05-01T15:13:16.001Z</time></trkpt><trkpt lat="45.37474574349673" lon="10.734088351934867"><ele>113.0</ele><time>2026-05-01T15:13:17.001Z</time></trkpt><trkpt lat="45.374584259851034" lon="10.73401677467817"><ele>113.0</ele><time>2026-05-01T15:13:18.001Z</time></trkpt><trkpt lat="45.37443077075788" lon="10.733931296757266"><ele>113.0</ele><time>2026-05-01T15:13:19.001Z</time></trkpt><trkpt lat="45.37426482289746" lon="10.733886242619493"><ele>113.0</ele><time>2026-05-01T15:13:20.001Z</time></trkpt><trkpt lat="45.37410446525325" lon="10.733822214500544"><ele>113.0</ele><time>2026-05-01T15:13:21.001Z</time></trkpt><trkpt lat="45.373949897049606" lon="10.733752555936347"><ele>113.0</ele><time>2026-05-01T15:13:22.001Z</time></trkpt><trkpt lat="45.37380800340117" lon="10.733645959609639"><ele>113.0</ele><time>2026-05-01T15:13:23.001Z</time></trkpt><trkpt lat="45.37366470784144" lon="10.733549380010937"><ele>112.33333333333333</ele><time>2026-05-01T15:13:24.001Z</time></trkpt><trkpt lat="45.37352055098779" lon="10.733464982552672"><ele>111.66666666666666</ele><time>2026-05-01T15:13:25.001Z</time></trkpt><trkpt lat="45.37338180770017" lon="10.733363635810608"><ele>111.0</ele><time>2026-05-01T15:13:26.001Z</time></trkpt><trkpt lat="45.37325561123705" lon="10.733259706837767"><ele>111.0</ele><time>2026-05-01T15:13:27.001Z</time></trkpt><trkpt lat="45.37313233390275" lon="10.733175108015148"><ele>111.0</ele><time>2026-05-01T15:13:28.001Z</time></trkpt><trkpt lat="45.373018759279276" lon="10.733091287923019"><ele>111.0</ele><time>2026-05-01T15:13:29.001Z</time></trkpt><trkpt lat="45.372903476312736" lon="10.733037598868954"><ele>111.0</ele><time>2026-05-01T15:13:30.001Z</time></trkpt><trkpt lat="45.372791290499244" lon="10.732988680488585"><ele>111.19999999999999</ele><time>2026-05-01T15:13:31.001Z</time></trkpt><trkpt lat="45.37268602198975" lon="10.73294995081266"><ele>111.39999999999999</ele><time>2026-05-01T15:13:32.001Z</time></trkpt><trkpt lat="45.372583826034955" lon="10.732914858401749"><ele>111.6</ele><time>2026-05-01T15:13:33.001Z</time></trkpt><trkpt lat="45.372475451504165" lon="10.732884556035126"><ele>111.8</ele><time>2026-05-01T15:13:34.001Z</time></trkpt><trkpt lat="45.37236853015475" lon="10.732856367754879"><ele>112.0</ele><time>2026-05-01T15:13:35.001Z</time></trkpt><trkpt lat="45.3722689225391" lon="10.732848924459319"><ele>112.00000000000001</ele><time>2026-05-01T15:13:36.001Z</time></trkpt><trkpt lat="45.372187855538726" lon="10.732848669593682"><ele>112.0</ele><time>2026-05-01T15:13:37.001Z</time></trkpt><trkpt lat="45.37207744085175" lon="10.73285028098174"><ele>112.0</ele><time>2026-05-01T15:13:39.001Z</time></trkpt><trkpt lat="45.37202694258218" lon="10.732780722733008"><ele>112.0</ele><time>2026-05-01T15:13:41.001Z</time></trkpt><trkpt lat="45.37202272253565" lon="10.732633769520058"><ele>112.00000000000001</ele><time>2026-05-01T15:13:43.001Z</time></trkpt><trkpt lat="45.37201507821552" lon="10.73254444548447"><ele>112.0</ele><time>2026-05-01T15:13:44.001Z</time></trkpt><trkpt lat="45.37198664326112" lon="10.732456332860192"><ele>111.83333333333334</ele><time>2026-05-01T15:13:45.001Z</time></trkpt><trkpt lat="45.37192843727647" lon="10.732381687471307"><ele>111.66666666666667</ele><time>2026-05-01T15:13:46.001Z</time></trkpt><trkpt lat="45.37185250111247" lon="10.73235216414506"><ele>111.5</ele><time>2026-05-01T15:13:47.001Z</time></trkpt><trkpt lat="45.37176484680336" lon="10.732368542023126"><ele>111.33333333333334</ele><time>2026-05-01T15:13:48.001Z</time></trkpt><trkpt lat="45.37168656280779" lon="10.732426419874622"><ele>111.16666666666667</ele><time>2026-05-01T15:13:49.001Z</time></trkpt><trkpt lat="45.37160339090947" lon="10.73250919901119"><ele>111.0</ele><time>2026-05-01T15:13:50.001Z</time></trkpt><trkpt lat="45.3714991297337" lon="10.732570258803564"><ele>111.0</ele><time>2026-05-01T15:13:51.001Z</time></trkpt><trkpt lat="45.37137634259613" lon="10.732589982912843"><ele>111.0</ele><time>2026-05-01T15:13:52.001Z</time></trkpt><trkpt lat="45.37125019524525" lon="10.732550402241598"><ele>111.0</ele><time>2026-05-01T15:13:53.001Z</time></trkpt><trkpt lat="45.3711177175511" lon="10.73253041542046"><ele>111.0</ele><time>2026-05-01T15:13:54.001Z</time></trkpt><trkpt lat="45.37098323770352" lon="10.732532841846565"><ele>110.5</ele><time>2026-05-01T15:13:55.001Z</time></trkpt><trkpt lat="45.37084360672172" lon="10.73249992083924"><ele>110.0</ele><time>2026-05-01T15:13:56.001Z</time></trkpt><trkpt lat="45.37069947038927" lon="10.732487792035732"><ele>109.5</ele><time>2026-05-01T15:13:57.001Z</time></trkpt><trkpt lat="45.370552036546336" lon="10.732471396418548"><ele>109.0</ele><time>2026-05-01T15:13:58.001Z</time></trkpt><trkpt lat="45.3704065205598" lon="10.732457032802609"><ele>108.25</ele><time>2026-05-01T15:13:59.001Z</time></trkpt><trkpt lat="45.37026374616517" lon="10.732452954093539"><ele>107.5</ele><time>2026-05-01T15:14:00.001Z</time></trkpt><trkpt lat="45.3701198751759" lon="10.732468227039547"><ele>106.75</ele><time>2026-05-01T15:14:01.001Z</time></trkpt><trkpt lat="45.36997479784251" lon="10.732500132602521"><ele>106.0</ele><time>2026-05-01T15:14:02.001Z</time></trkpt><trkpt lat="45.36983445654842" lon="10.732540283612288"><ele>106.0</ele><time>2026-05-01T15:14:03.001Z</time></trkpt><trkpt lat="45.36969532585643" lon="10.732585911545911"><ele>106.0</ele><time>2026-05-01T15:14:04.001Z</time></trkpt><trkpt lat="45.36957359481687" lon="10.732639656161725"><ele>106.0</ele><time>2026-05-01T15:14:05.001Z</time></trkpt><trkpt lat="45.36945877271671" lon="10.732698961305156"><ele>106.0</ele><time>2026-05-01T15:14:06.001Z</time></trkpt><trkpt lat="45.369351627043606" lon="10.732758073271041"><ele>106.25</ele><time>2026-05-01T15:14:07Z</time></trkpt><trkpt lat="45.36924758694393" lon="10.73282407989719"><ele>106.5</ele><time>2026-05-01T15:14:08Z</time></trkpt><trkpt lat="45.36914347110911" lon="10.732903903320063"><ele>106.75</ele><time>2026-05-01T15:14:09Z</time></trkpt><trkpt lat="45.36904039379068" lon="10.732983919050735"><ele>107.0</ele><time>2026-05-01T15:14:10Z</time></trkpt><trkpt lat="45.36893989966214" lon="10.733056555681049"><ele>106.5</ele><time>2026-05-01T15:14:11Z</time></trkpt><trkpt lat="45.368846207516484" lon="10.73312389331124"><ele>106.0</ele><time>2026-05-01T15:14:12Z</time></trkpt><trkpt lat="45.36874797511439" lon="10.733178921676636"><ele>105.5</ele><time>2026-05-01T15:14:13Z</time></trkpt><trkpt lat="45.36863412971213" lon="10.73322663863851"><ele>105.0</ele><time>2026-05-01T15:14:14Z</time></trkpt><trkpt lat="45.36851011571724" lon="10.733265514921511"><ele>105.0</ele><time>2026-05-01T15:14:15Z</time></trkpt><trkpt lat="45.36838718340057" lon="10.73330787700267"><ele>105.0</ele><time>2026-05-01T15:14:16Z</time></trkpt><trkpt lat="45.368262208322264" lon="10.733355928766564"><ele>105.0</ele><time>2026-05-01T15:14:17Z</time></trkpt><trkpt lat="45.36813638850103" lon="10.733426932944456"><ele>105.0</ele><time>2026-05-01T15:14:18Z</time></trkpt><trkpt lat="45.36801046515122" lon="10.733517824239106"><ele>104.75</ele><time>2026-05-01T15:14:19Z</time></trkpt><trkpt lat="45.36788427873131" lon="10.733616637098395"><ele>104.5</ele><time>2026-05-01T15:14:20Z</time></trkpt><trkpt lat="45.36775479620941" lon="10.733719393298019"><ele>104.25</ele><time>2026-05-01T15:14:21Z</time></trkpt><trkpt lat="45.36762311486989" lon="10.73381585159786"><ele>104.0</ele><time>2026-05-01T15:14:22Z</time></trkpt><trkpt lat="45.36748977320068" lon="10.73390566959142"><ele>104.0</ele><time>2026-05-01T15:14:23Z</time></trkpt><trkpt lat="45.367356159457245" lon="10.733987131062626"><ele>104.0</ele><time>2026-05-01T15:14:24Z</time></trkpt><trkpt lat="45.36722708274156" lon="10.734053223677124"><ele>104.0</ele><time>2026-05-01T15:14:25Z</time></trkpt><trkpt lat="45.36709946433005" lon="10.734114734320352"><ele>104.0</ele><time>2026-05-01T15:14:26Z</time></trkpt><trkpt lat="45.36697619881739" lon="10.734174259149473"><ele>104.25</ele><time>2026-05-01T15:14:27Z</time></trkpt><trkpt lat="45.36685582410437" lon="10.734233954691643"><ele>104.5</ele><time>2026-05-01T15:14:28Z</time></trkpt><trkpt lat="45.36674459484687" lon="10.734291433968378"><ele>104.75</ele><time>2026-05-01T15:14:29Z</time></trkpt><trkpt lat="45.36664166866278" lon="10.734348997758621"><ele>105.0</ele><time>2026-05-01T15:14:30Z</time></trkpt><trkpt lat="45.366544909392545" lon="10.734400327781456"><ele>104.66666666666667</ele><time>2026-05-01T15:14:31Z</time></trkpt><trkpt lat="45.36645394654579" lon="10.734459115941963"><ele>104.33333333333334</ele><time>2026-05-01T15:14:32Z</time></trkpt><trkpt lat="45.36637121002147" lon="10.734509185433236"><ele>104.0</ele><time>2026-05-01T15:14:33Z</time></trkpt><trkpt lat="45.36629560776249" lon="10.734561667645911"><ele>103.66666666666667</ele><time>2026-05-01T15:14:34Z</time></trkpt><trkpt lat="45.366219610509795" lon="10.734610136793298"><ele>103.33333333333334</ele><time>2026-05-01T15:14:35Z</time></trkpt><trkpt lat="45.36614574331968" lon="10.734659521346412"><ele>103.0</ele><time>2026-05-01T15:14:36Z</time></trkpt><trkpt lat="45.36607612775097" lon="10.734714583078377"><ele>103.00000000000001</ele><time>2026-05-01T15:14:37Z</time></trkpt><trkpt lat="45.3660105836837" lon="10.734765850453089"><ele>103.0</ele><time>2026-05-01T15:14:38Z</time></trkpt><trkpt lat="45.36595240574386" lon="10.734808836256292"><ele>103.0</ele><time>2026-05-01T15:14:39Z</time></trkpt><trkpt lat="45.365851209552744" lon="10.73488132976948"><ele>103.0</ele><time>2026-05-01T15:14:41Z</time></trkpt><trkpt lat="45.36579263407191" lon="10.734923024289163"><ele>103.00000000000001</ele><time>2026-05-01T15:14:42Z</time></trkpt><trkpt lat="45.365687345528585" lon="10.735004704042128"><ele>103.0</ele><time>2026-05-01T15:14:44Z</time></trkpt><trkpt lat="45.365587360418395" lon="10.735080315026693"><ele>103.0</ele><time>2026-05-01T15:14:46Z</time></trkpt><trkpt lat="45.365478127063014" lon="10.735163047676345"><ele>103.0</ele><time>2026-05-01T15:14:48Z</time></trkpt><trkpt lat="45.36542144859053" lon="10.73521230122789"><ele>103.0</ele><time>2026-05-01T15:14:49Z</time></trkpt><trkpt lat="45.36532221390967" lon="10.73529255324708"><ele>103.0</ele><time>2026-05-01T15:14:51Z</time></trkpt><trkpt lat="45.365233546386264" lon="10.73535911138299"><ele>103.0</ele><time>2026-05-01T15:14:53Z</time></trkpt><trkpt lat="45.365151157979184" lon="10.735424100944234"><ele>103.0</ele><time>2026-05-01T15:14:55Z</time></trkpt><trkpt lat="45.365069704406835" lon="10.735483959086705"><ele>103.0</ele><time>2026-05-01T15:14:57Z</time></trkpt><trkpt lat="45.364968884554024" lon="10.735517867402908"><ele>103.0</ele><time>2026-05-01T15:14:59Z</time></trkpt><trkpt lat="45.36486628346739" lon="10.735501573693297"><ele>103.0</ele><time>2026-05-01T15:15:01Z</time></trkpt><trkpt lat="45.36473981129489" lon="10.735509319444445"><ele>103.0</ele><time>2026-05-01T15:15:03Z</time></trkpt><trkpt lat="45.36467669784075" lon="10.735540379730702"><ele>102.83333333333334</ele><time>2026-05-01T15:15:04Z</time></trkpt><trkpt lat="45.36464412189317" lon="10.735620148356332"><ele>102.66666666666667</ele><time>2026-05-01T15:15:05Z</time></trkpt><trkpt lat="45.364532872316566" lon="10.735713708285626"><ele>102.5</ele><time>2026-05-01T15:15:07.001Z</time></trkpt><trkpt lat="45.36444864111622" lon="10.735715181187768"><ele>102.33333333333334</ele><time>2026-05-01T15:15:08.001Z</time></trkpt><trkpt lat="45.36437558581679" lon="10.735704983991841"><ele>102.16666666666667</ele><time>2026-05-01T15:15:09.001Z</time></trkpt><trkpt lat="45.36429885202066" lon="10.73569696880024"><ele>102.0</ele><time>2026-05-01T15:15:10.001Z</time></trkpt><trkpt lat="45.36421208306806" lon="10.735684111182167"><ele>102.0</ele><time>2026-05-01T15:15:11.001Z</time></trkpt><trkpt lat="45.36411471951218" lon="10.735673926296192"><ele>102.0</ele><time>2026-05-01T15:15:12.001Z</time></trkpt><trkpt lat="45.364002985939614" lon="10.735664093207069"><ele>102.0</ele><time>2026-05-01T15:15:13.001Z</time></trkpt><trkpt lat="45.36388782062379" lon="10.73564449976917"><ele>102.0</ele><time>2026-05-01T15:15:14.001Z</time></trkpt><trkpt lat="45.36376811812617" lon="10.735629526261635"><ele>102.0</ele><time>2026-05-01T15:15:15.001Z</time></trkpt><trkpt lat="45.36365932745395" lon="10.735615111004897"><ele>102.19999999999999</ele><time>2026-05-01T15:15:16.001Z</time></trkpt><trkpt lat="45.363553954628514" lon="10.735597234124544"><ele>102.4</ele><time>2026-05-01T15:15:17.001Z</time></trkpt><trkpt lat="45.36344651555521" lon="10.735582757774855"><ele>102.6</ele><time>2026-05-01T15:15:18.001Z</time></trkpt><trkpt lat="45.363340017742416" lon="10.735563518761234"><ele>102.80000000000001</ele><time>2026-05-01T15:15:19.001Z</time></trkpt><trkpt lat="45.36323269853389" lon="10.735550109445358"><ele>103.0</ele><time>2026-05-01T15:15:20.001Z</time></trkpt><trkpt lat="45.36313220880013" lon="10.735536785215874"><ele>103.00000000000001</ele><time>2026-05-01T15:15:21.001Z</time></trkpt><trkpt lat="45.3630410168758" lon="10.735524640023348"><ele>103.0</ele><time>2026-05-01T15:15:22.001Z</time></trkpt><trkpt lat="45.36295181092654" lon="10.73551061183145"><ele>103.0</ele><time>2026-05-01T15:15:23.001Z</time></trkpt><trkpt lat="45.362869442830636" lon="10.735501607982673"><ele>103.0</ele><time>2026-05-01T15:15:24.001Z</time></trkpt><trkpt lat="45.362797282988" lon="10.735488062997279"><ele>103.00000000000001</ele><time>2026-05-01T15:15:25.001Z</time></trkpt><trkpt lat="45.36272522802471" lon="10.735474346590772"><ele>103.0</ele><time>2026-05-01T15:15:26.001Z</time></trkpt><trkpt lat="45.362650966134" lon="10.735462359198667"><ele>102.4</ele><time>2026-05-01T15:15:27.001Z</time></trkpt><trkpt lat="45.36256910059481" lon="10.735447022484962"><ele>101.80000000000001</ele><time>2026-05-01T15:15:28.001Z</time></trkpt><trkpt lat="45.36247611503768" lon="10.7354338997266"><ele>101.2</ele><time>2026-05-01T15:15:29.001Z</time></trkpt><trkpt lat="45.362383789003545" lon="10.735421920304791"><ele>100.6</ele><time>2026-05-01T15:15:30.001Z</time></trkpt><trkpt lat="45.36229134193038" lon="10.735407772920697"><ele>100.0</ele><time>2026-05-01T15:15:31.001Z</time></trkpt><trkpt lat="45.36219584234619" lon="10.735395555978878"><ele>99.6</ele><time>2026-05-01T15:15:32.001Z</time></trkpt><trkpt lat="45.362102482415494" lon="10.735384387949834"><ele>99.2</ele><time>2026-05-01T15:15:33.001Z</time></trkpt><trkpt lat="45.36201901438954" lon="10.735368109118312"><ele>98.80000000000001</ele><time>2026-05-01T15:15:34.001Z</time></trkpt><trkpt lat="45.3619256443807" lon="10.735356598893262"><ele>98.4</ele><time>2026-05-01T15:15:35.001Z</time></trkpt><trkpt lat="45.36182864717916" lon="10.735341758773062"><ele>98.0</ele><time>2026-05-01T15:15:36.001Z</time></trkpt><trkpt lat="45.36172952902988" lon="10.735328700964144"><ele>98.0</ele><time>2026-05-01T15:15:37.001Z</time></trkpt><trkpt lat="45.36163184433704" lon="10.73531261558035"><ele>98.0</ele><time>2026-05-01T15:15:38.001Z</time></trkpt><trkpt lat="45.361534307321996" lon="10.735299277507295"><ele>98.0</ele><time>2026-05-01T15:15:39.001Z</time></trkpt><trkpt lat="45.361435631379145" lon="10.735286737056336"><ele>98.0</ele><time>2026-05-01T15:15:40.001Z</time></trkpt><trkpt lat="45.36134352133661" lon="10.735276826215436"><ele>98.0</ele><time>2026-05-01T15:15:41.001Z</time></trkpt><trkpt lat="45.36125891933071" lon="10.735268151635621"><ele>97.99999999999999</ele><time>2026-05-01T15:15:42.001Z</time></trkpt><trkpt lat="45.361175521378975" lon="10.735256112049191"><ele>98.0</ele><time>2026-05-01T15:15:43.001Z</time></trkpt><trkpt lat="45.36108965411162" lon="10.735240669605561"><ele>98.0</ele><time>2026-05-01T15:15:44.001Z</time></trkpt><trkpt lat="45.361004709879296" lon="10.73522729093451"><ele>98.0</ele><time>2026-05-01T15:15:45.001Z</time></trkpt><trkpt lat="45.360914473155816" lon="10.73521140281755"><ele>97.99999999999999</ele><time>2026-05-01T15:15:46.001Z</time></trkpt><trkpt lat="45.36082732264781" lon="10.735203620479934"><ele>98.0</ele><time>2026-05-01T15:15:47.001Z</time></trkpt><trkpt lat="45.360744039965574" lon="10.735194924475149"><ele>97.99999999999999</ele><time>2026-05-01T15:15:48.001Z</time></trkpt><trkpt lat="45.360663727367616" lon="10.73517685963442"><ele>98.0</ele><time>2026-05-01T15:15:49.001Z</time></trkpt><trkpt lat="45.36059362638586" lon="10.735170644341142"><ele>98.0</ele><time>2026-05-01T15:15:50.001Z</time></trkpt><trkpt lat="45.360527330147654" lon="10.735156330807257"><ele>98.0</ele><time>2026-05-01T15:15:51.001Z</time></trkpt><trkpt lat="45.36045995874502" lon="10.735146345421285"><ele>97.99999999999999</ele><time>2026-05-01T15:15:52.001Z</time></trkpt><trkpt lat="45.360365469614585" lon="10.735135187817486"><ele>98.0</ele><time>2026-05-01T15:15:54.001Z</time></trkpt><trkpt lat="45.360293289654216" lon="10.735109672848354"><ele>96.0</ele><time>2026-05-01T15:15:58.001Z</time></trkpt><trkpt lat="45.360298010082836" lon="10.735246309963879"><ele>94.0</ele><time>2026-05-01T15:16:01.001Z</time></trkpt><trkpt lat="45.36033145959458" lon="10.735339721900594"><ele>94.0</ele><time>2026-05-01T15:16:03.001Z</time></trkpt><trkpt lat="45.36037338248002" lon="10.735423647031444"><ele>94.0</ele><time>2026-05-01T15:16:53Z</time></trkpt></trkseg></trk></gpx>